<?xml version="1.0" encoding="UTF-8" standalone="no" ?>
<gpx xmlns="http://www.topografix.com/GPX/1/1" xmlns:xsi="http://www.w3.org/2001/XMLSchema-instance" xsi:schemaLocation="http://www.topografix.com/GPX/1/1 http://www.topografix.com/GPX/1/1/gpx.xsd" version="1.1" creator="VisuGPX - https://www.visugpx.com">
  <metadata>
    <name>boucle depuis le col de Vence </name>
    <desc><![CDATA[Ballade au départ du col de Vence avec passage picnic a Coursegoules et retour par le plateau de St Barnabé]]></desc>
  </metadata>
  <trk>
    <name><![CDATA[Track 001]]></name>
    <trkseg>
      <trkpt lat="43.76798" lon="7.06822">
        <ele>934.5</ele>
        <time>2019-12-12T09:42:04Z</time>
      </trkpt>
      <trkpt lat="43.76799" lon="7.06823">
        <ele>929.3</ele>
        <time>2019-12-12T09:42:06Z</time>
      </trkpt>
      <trkpt lat="43.768" lon="7.06824">
        <ele>927.3</ele>
        <time>2019-12-12T09:42:08Z</time>
      </trkpt>
      <trkpt lat="43.76799" lon="7.06824">
        <ele>927.8</ele>
        <time>2019-12-12T09:42:10Z</time>
      </trkpt>
      <trkpt lat="43.76799" lon="7.06823">
        <ele>928.3</ele>
        <time>2019-12-12T09:42:12Z</time>
      </trkpt>
      <trkpt lat="43.76799" lon="7.06823">
        <ele>928.3</ele>
        <time>2019-12-12T09:42:14Z</time>
      </trkpt>
      <trkpt lat="43.76799" lon="7.06822">
        <ele>928.3</ele>
        <time>2019-12-12T09:42:16Z</time>
      </trkpt>
      <trkpt lat="43.76799" lon="7.06822">
        <ele>928.3</ele>
        <time>2019-12-12T09:42:18Z</time>
      </trkpt>
      <trkpt lat="43.76799" lon="7.06821">
        <ele>928.3</ele>
        <time>2019-12-12T09:42:20Z</time>
      </trkpt>
      <trkpt lat="43.76799" lon="7.06821">
        <ele>928.3</ele>
        <time>2019-12-12T09:42:22Z</time>
      </trkpt>
      <trkpt lat="43.76798" lon="7.0682">
        <ele>928.3</ele>
        <time>2019-12-12T09:42:24Z</time>
      </trkpt>
      <trkpt lat="43.76797" lon="7.06815">
        <ele>927.8</ele>
        <time>2019-12-12T09:42:26Z</time>
      </trkpt>
      <trkpt lat="43.76796" lon="7.06811">
        <ele>928.8</ele>
        <time>2019-12-12T09:42:28Z</time>
      </trkpt>
      <trkpt lat="43.76796" lon="7.06808">
        <ele>930.2</ele>
        <time>2019-12-12T09:42:30Z</time>
      </trkpt>
      <trkpt lat="43.76796" lon="7.06806">
        <ele>931.7</ele>
        <time>2019-12-12T09:42:32Z</time>
      </trkpt>
      <trkpt lat="43.76797" lon="7.06807">
        <ele>931.7</ele>
        <time>2019-12-12T09:42:34Z</time>
      </trkpt>
      <trkpt lat="43.76797" lon="7.06807">
        <ele>932.1</ele>
        <time>2019-12-12T09:42:36Z</time>
      </trkpt>
      <trkpt lat="43.76797" lon="7.06806">
        <ele>932.1</ele>
        <time>2019-12-12T09:42:38Z</time>
      </trkpt>
      <trkpt lat="43.76797" lon="7.06807">
        <ele>932.1</ele>
        <time>2019-12-12T09:42:40Z</time>
      </trkpt>
      <trkpt lat="43.76797" lon="7.06807">
        <ele>932.1</ele>
        <time>2019-12-12T09:42:42Z</time>
      </trkpt>
      <trkpt lat="43.76797" lon="7.06807">
        <ele>932.1</ele>
        <time>2019-12-12T09:42:44Z</time>
      </trkpt>
      <trkpt lat="43.76798" lon="7.06809">
        <ele>932.6</ele>
        <time>2019-12-12T09:42:46Z</time>
      </trkpt>
      <trkpt lat="43.76799" lon="7.06811">
        <ele>933.1</ele>
        <time>2019-12-12T09:42:48Z</time>
      </trkpt>
      <trkpt lat="43.768" lon="7.06813">
        <ele>933.6</ele>
        <time>2019-12-12T09:42:50Z</time>
      </trkpt>
      <trkpt lat="43.76801" lon="7.06816">
        <ele>934.1</ele>
        <time>2019-12-12T09:42:52Z</time>
      </trkpt>
      <trkpt lat="43.76802" lon="7.06819">
        <ele>934.5</ele>
        <time>2019-12-12T09:42:54Z</time>
      </trkpt>
      <trkpt lat="43.76802" lon="7.0682">
        <ele>934.5</ele>
        <time>2019-12-12T09:42:56Z</time>
      </trkpt>
      <trkpt lat="43.76803" lon="7.06821">
        <ele>934.5</ele>
        <time>2019-12-12T09:42:58Z</time>
      </trkpt>
      <trkpt lat="43.76803" lon="7.06822">
        <ele>934.5</ele>
        <time>2019-12-12T09:43:00Z</time>
      </trkpt>
      <trkpt lat="43.76802" lon="7.0682">
        <ele>934.5</ele>
        <time>2019-12-12T09:43:02Z</time>
      </trkpt>
      <trkpt lat="43.76801" lon="7.06821">
        <ele>934.1</ele>
        <time>2019-12-12T09:43:04Z</time>
      </trkpt>
      <trkpt lat="43.76801" lon="7.06821">
        <ele>934.1</ele>
        <time>2019-12-12T09:43:06Z</time>
      </trkpt>
      <trkpt lat="43.76801" lon="7.06821">
        <ele>934.5</ele>
        <time>2019-12-12T09:43:08Z</time>
      </trkpt>
      <trkpt lat="43.76801" lon="7.06821">
        <ele>934.5</ele>
        <time>2019-12-12T09:43:10Z</time>
      </trkpt>
      <trkpt lat="43.76801" lon="7.0682">
        <ele>934.5</ele>
        <time>2019-12-12T09:43:12Z</time>
      </trkpt>
      <trkpt lat="43.76801" lon="7.0682">
        <ele>934.5</ele>
        <time>2019-12-12T09:43:14Z</time>
      </trkpt>
      <trkpt lat="43.76802" lon="7.0682">
        <ele>934.5</ele>
        <time>2019-12-12T09:43:16Z</time>
      </trkpt>
      <trkpt lat="43.76802" lon="7.06819">
        <ele>934.5</ele>
        <time>2019-12-12T09:43:18Z</time>
      </trkpt>
      <trkpt lat="43.76802" lon="7.06819">
        <ele>934.5</ele>
        <time>2019-12-12T09:43:20Z</time>
      </trkpt>
      <trkpt lat="43.76802" lon="7.06819">
        <ele>934.5</ele>
        <time>2019-12-12T09:43:22Z</time>
      </trkpt>
      <trkpt lat="43.76802" lon="7.06819">
        <ele>934.5</ele>
        <time>2019-12-12T09:43:24Z</time>
      </trkpt>
      <trkpt lat="43.76803" lon="7.06819">
        <ele>934.5</ele>
        <time>2019-12-12T09:43:26Z</time>
      </trkpt>
      <trkpt lat="43.76805" lon="7.06818">
        <ele>934.1</ele>
        <time>2019-12-12T09:43:28Z</time>
      </trkpt>
      <trkpt lat="43.76808" lon="7.0682">
        <ele>933.6</ele>
        <time>2019-12-12T09:43:30Z</time>
      </trkpt>
      <trkpt lat="43.7681" lon="7.06817">
        <ele>933.1</ele>
        <time>2019-12-12T09:43:32Z</time>
      </trkpt>
      <trkpt lat="43.76812" lon="7.06818">
        <ele>932.6</ele>
        <time>2019-12-12T09:43:34Z</time>
      </trkpt>
      <trkpt lat="43.76812" lon="7.06816">
        <ele>932.6</ele>
        <time>2019-12-12T09:43:36Z</time>
      </trkpt>
      <trkpt lat="43.76812" lon="7.06816">
        <ele>933.1</ele>
        <time>2019-12-12T09:43:38Z</time>
      </trkpt>
      <trkpt lat="43.76813" lon="7.06816">
        <ele>932.6</ele>
        <time>2019-12-12T09:43:40Z</time>
      </trkpt>
      <trkpt lat="43.76814" lon="7.06817">
        <ele>932.6</ele>
        <time>2019-12-12T09:43:42Z</time>
      </trkpt>
      <trkpt lat="43.76814" lon="7.06818">
        <ele>932.1</ele>
        <time>2019-12-12T09:43:44Z</time>
      </trkpt>
      <trkpt lat="43.76814" lon="7.06817">
        <ele>931.7</ele>
        <time>2019-12-12T09:43:46Z</time>
      </trkpt>
      <trkpt lat="43.76813" lon="7.06814">
        <ele>931.2</ele>
        <time>2019-12-12T09:43:48Z</time>
      </trkpt>
      <trkpt lat="43.76813" lon="7.06814">
        <ele>931.2</ele>
        <time>2019-12-12T09:43:50Z</time>
      </trkpt>
      <trkpt lat="43.76813" lon="7.06813">
        <ele>931.2</ele>
        <time>2019-12-12T09:43:52Z</time>
      </trkpt>
      <trkpt lat="43.76813" lon="7.06812">
        <ele>931.2</ele>
        <time>2019-12-12T09:43:54Z</time>
      </trkpt>
      <trkpt lat="43.76812" lon="7.0681">
        <ele>931.7</ele>
        <time>2019-12-12T09:43:56Z</time>
      </trkpt>
      <trkpt lat="43.76811" lon="7.06806">
        <ele>931.2</ele>
        <time>2019-12-12T09:43:58Z</time>
      </trkpt>
      <trkpt lat="43.76811" lon="7.06804">
        <ele>931.2</ele>
        <time>2019-12-12T09:44:00Z</time>
      </trkpt>
      <trkpt lat="43.76811" lon="7.06803">
        <ele>931.2</ele>
        <time>2019-12-12T09:44:02Z</time>
      </trkpt>
      <trkpt lat="43.76812" lon="7.06804">
        <ele>931.2</ele>
        <time>2019-12-12T09:44:04Z</time>
      </trkpt>
      <trkpt lat="43.76813" lon="7.06805">
        <ele>931.2</ele>
        <time>2019-12-12T09:44:06Z</time>
      </trkpt>
      <trkpt lat="43.76815" lon="7.06809">
        <ele>931.2</ele>
        <time>2019-12-12T09:44:08Z</time>
      </trkpt>
      <trkpt lat="43.76814" lon="7.06808">
        <ele>931.7</ele>
        <time>2019-12-12T09:44:10Z</time>
      </trkpt>
      <trkpt lat="43.76815" lon="7.06807">
        <ele>931.2</ele>
        <time>2019-12-12T09:44:12Z</time>
      </trkpt>
      <trkpt lat="43.76816" lon="7.06804">
        <ele>931.2</ele>
        <time>2019-12-12T09:44:14Z</time>
      </trkpt>
      <trkpt lat="43.76818" lon="7.06801">
        <ele>931.2</ele>
        <time>2019-12-12T09:44:16Z</time>
      </trkpt>
      <trkpt lat="43.76818" lon="7.06795">
        <ele>931.7</ele>
        <time>2019-12-12T09:44:18Z</time>
      </trkpt>
      <trkpt lat="43.76819" lon="7.06788">
        <ele>932.1</ele>
        <time>2019-12-12T09:44:20Z</time>
      </trkpt>
      <trkpt lat="43.7682" lon="7.06783">
        <ele>932.1</ele>
        <time>2019-12-12T09:44:22Z</time>
      </trkpt>
      <trkpt lat="43.76822" lon="7.06779">
        <ele>932.6</ele>
        <time>2019-12-12T09:44:24Z</time>
      </trkpt>
      <trkpt lat="43.76825" lon="7.06776">
        <ele>933.1</ele>
        <time>2019-12-12T09:44:26Z</time>
      </trkpt>
      <trkpt lat="43.76828" lon="7.06772">
        <ele>933.6</ele>
        <time>2019-12-12T09:44:28Z</time>
      </trkpt>
      <trkpt lat="43.7683" lon="7.06769">
        <ele>934.5</ele>
        <time>2019-12-12T09:44:30Z</time>
      </trkpt>
      <trkpt lat="43.76832" lon="7.06765">
        <ele>934.5</ele>
        <time>2019-12-12T09:44:32Z</time>
      </trkpt>
      <trkpt lat="43.76834" lon="7.06762">
        <ele>935.5</ele>
        <time>2019-12-12T09:44:34Z</time>
      </trkpt>
      <trkpt lat="43.76835" lon="7.0676">
        <ele>936</ele>
        <time>2019-12-12T09:44:36Z</time>
      </trkpt>
      <trkpt lat="43.76837" lon="7.06761">
        <ele>936.5</ele>
        <time>2019-12-12T09:44:38Z</time>
      </trkpt>
      <trkpt lat="43.76837" lon="7.06759">
        <ele>936.9</ele>
        <time>2019-12-12T09:44:40Z</time>
      </trkpt>
      <trkpt lat="43.76838" lon="7.06762">
        <ele>936.9</ele>
        <time>2019-12-12T09:44:42Z</time>
      </trkpt>
      <trkpt lat="43.76839" lon="7.06761">
        <ele>937.9</ele>
        <time>2019-12-12T09:44:44Z</time>
      </trkpt>
      <trkpt lat="43.76841" lon="7.06762">
        <ele>938.4</ele>
        <time>2019-12-12T09:44:46Z</time>
      </trkpt>
      <trkpt lat="43.7684" lon="7.06759">
        <ele>938.9</ele>
        <time>2019-12-12T09:44:48Z</time>
      </trkpt>
      <trkpt lat="43.7684" lon="7.06757">
        <ele>939.8</ele>
        <time>2019-12-12T09:44:50Z</time>
      </trkpt>
      <trkpt lat="43.76841" lon="7.06755">
        <ele>940.3</ele>
        <time>2019-12-12T09:44:52Z</time>
      </trkpt>
      <trkpt lat="43.76841" lon="7.06754">
        <ele>941.3</ele>
        <time>2019-12-12T09:44:54Z</time>
      </trkpt>
      <trkpt lat="43.76846" lon="7.06764">
        <ele>941.7</ele>
        <time>2019-12-12T09:44:56Z</time>
      </trkpt>
      <trkpt lat="43.76851" lon="7.06768">
        <ele>941.7</ele>
        <time>2019-12-12T09:44:58Z</time>
      </trkpt>
      <trkpt lat="43.76853" lon="7.06767">
        <ele>942.7</ele>
        <time>2019-12-12T09:45:00Z</time>
      </trkpt>
      <trkpt lat="43.76857" lon="7.06769">
        <ele>943.7</ele>
        <time>2019-12-12T09:45:02Z</time>
      </trkpt>
      <trkpt lat="43.76864" lon="7.06769">
        <ele>943.7</ele>
        <time>2019-12-12T09:45:04Z</time>
      </trkpt>
      <trkpt lat="43.76866" lon="7.06767">
        <ele>944.6</ele>
        <time>2019-12-12T09:45:06Z</time>
      </trkpt>
      <trkpt lat="43.76868" lon="7.06766">
        <ele>945.6</ele>
        <time>2019-12-12T09:45:08Z</time>
      </trkpt>
      <trkpt lat="43.76871" lon="7.06774">
        <ele>946.1</ele>
        <time>2019-12-12T09:45:10Z</time>
      </trkpt>
      <trkpt lat="43.76872" lon="7.06777">
        <ele>946.6</ele>
        <time>2019-12-12T09:45:12Z</time>
      </trkpt>
      <trkpt lat="43.76872" lon="7.06778">
        <ele>947.5</ele>
        <time>2019-12-12T09:45:14Z</time>
      </trkpt>
      <trkpt lat="43.76872" lon="7.06778">
        <ele>947.5</ele>
        <time>2019-12-12T09:45:16Z</time>
      </trkpt>
      <trkpt lat="43.76872" lon="7.06778">
        <ele>947.5</ele>
        <time>2019-12-12T09:45:18Z</time>
      </trkpt>
      <trkpt lat="43.76872" lon="7.06778">
        <ele>947.5</ele>
        <time>2019-12-12T09:45:20Z</time>
      </trkpt>
      <trkpt lat="43.76872" lon="7.06778">
        <ele>947.5</ele>
        <time>2019-12-12T09:45:22Z</time>
      </trkpt>
      <trkpt lat="43.76872" lon="7.06778">
        <ele>947.5</ele>
        <time>2019-12-12T09:45:24Z</time>
      </trkpt>
      <trkpt lat="43.76872" lon="7.06778">
        <ele>947.5</ele>
        <time>2019-12-12T09:45:26Z</time>
      </trkpt>
      <trkpt lat="43.76872" lon="7.06778">
        <ele>947.5</ele>
        <time>2019-12-12T09:45:28Z</time>
      </trkpt>
      <trkpt lat="43.76872" lon="7.06778">
        <ele>947.5</ele>
        <time>2019-12-12T09:45:30Z</time>
      </trkpt>
      <trkpt lat="43.76872" lon="7.06778">
        <ele>947.5</ele>
        <time>2019-12-12T09:45:32Z</time>
      </trkpt>
      <trkpt lat="43.76872" lon="7.06778">
        <ele>947.5</ele>
        <time>2019-12-12T09:45:34Z</time>
      </trkpt>
      <trkpt lat="43.76872" lon="7.06778">
        <ele>947.5</ele>
        <time>2019-12-12T09:45:36Z</time>
      </trkpt>
      <trkpt lat="43.76872" lon="7.06778">
        <ele>947.5</ele>
        <time>2019-12-12T09:45:38Z</time>
      </trkpt>
      <trkpt lat="43.76872" lon="7.06778">
        <ele>947.5</ele>
        <time>2019-12-12T09:45:40Z</time>
      </trkpt>
      <trkpt lat="43.76872" lon="7.06778">
        <ele>947.5</ele>
        <time>2019-12-12T09:45:42Z</time>
      </trkpt>
      <trkpt lat="43.76872" lon="7.06778">
        <ele>947.5</ele>
        <time>2019-12-12T09:45:44Z</time>
      </trkpt>
      <trkpt lat="43.76872" lon="7.06778">
        <ele>947.5</ele>
        <time>2019-12-12T09:45:46Z</time>
      </trkpt>
      <trkpt lat="43.76872" lon="7.06779">
        <ele>947.5</ele>
        <time>2019-12-12T09:45:48Z</time>
      </trkpt>
      <trkpt lat="43.76872" lon="7.0678">
        <ele>947.5</ele>
        <time>2019-12-12T09:45:50Z</time>
      </trkpt>
      <trkpt lat="43.76871" lon="7.06781">
        <ele>947.5</ele>
        <time>2019-12-12T09:45:52Z</time>
      </trkpt>
      <trkpt lat="43.76871" lon="7.06781">
        <ele>947.5</ele>
        <time>2019-12-12T09:45:54Z</time>
      </trkpt>
      <trkpt lat="43.76871" lon="7.06781">
        <ele>947.5</ele>
        <time>2019-12-12T09:45:56Z</time>
      </trkpt>
      <trkpt lat="43.76871" lon="7.06781">
        <ele>947.5</ele>
        <time>2019-12-12T09:45:58Z</time>
      </trkpt>
      <trkpt lat="43.76871" lon="7.06781">
        <ele>947.5</ele>
        <time>2019-12-12T09:46:00Z</time>
      </trkpt>
      <trkpt lat="43.76871" lon="7.06781">
        <ele>947.5</ele>
        <time>2019-12-12T09:46:02Z</time>
      </trkpt>
      <trkpt lat="43.76871" lon="7.06781">
        <ele>947.5</ele>
        <time>2019-12-12T09:46:04Z</time>
      </trkpt>
      <trkpt lat="43.76876" lon="7.06791">
        <ele>946.1</ele>
        <time>2019-12-12T09:46:06Z</time>
      </trkpt>
      <trkpt lat="43.76879" lon="7.06803">
        <ele>943.2</ele>
        <time>2019-12-12T09:46:08Z</time>
      </trkpt>
      <trkpt lat="43.76882" lon="7.06813">
        <ele>941.7</ele>
        <time>2019-12-12T09:46:10Z</time>
      </trkpt>
      <trkpt lat="43.76885" lon="7.06825">
        <ele>941.3</ele>
        <time>2019-12-12T09:46:12Z</time>
      </trkpt>
      <trkpt lat="43.76893" lon="7.0683">
        <ele>939.8</ele>
        <time>2019-12-12T09:46:14Z</time>
      </trkpt>
      <trkpt lat="43.76901" lon="7.06828">
        <ele>937.9</ele>
        <time>2019-12-12T09:46:16Z</time>
      </trkpt>
      <trkpt lat="43.76908" lon="7.06826">
        <ele>936.5</ele>
        <time>2019-12-12T09:46:18Z</time>
      </trkpt>
      <trkpt lat="43.76914" lon="7.06822">
        <ele>935</ele>
        <time>2019-12-12T09:46:20Z</time>
      </trkpt>
      <trkpt lat="43.76919" lon="7.06819">
        <ele>935</ele>
        <time>2019-12-12T09:46:22Z</time>
      </trkpt>
      <trkpt lat="43.76924" lon="7.06816">
        <ele>934.5</ele>
        <time>2019-12-12T09:46:24Z</time>
      </trkpt>
      <trkpt lat="43.7693" lon="7.06814">
        <ele>934.1</ele>
        <time>2019-12-12T09:46:26Z</time>
      </trkpt>
      <trkpt lat="43.76935" lon="7.0681">
        <ele>934.1</ele>
        <time>2019-12-12T09:46:28Z</time>
      </trkpt>
      <trkpt lat="43.76943" lon="7.06808">
        <ele>933.1</ele>
        <time>2019-12-12T09:46:30Z</time>
      </trkpt>
      <trkpt lat="43.76948" lon="7.06805">
        <ele>933.6</ele>
        <time>2019-12-12T09:46:32Z</time>
      </trkpt>
      <trkpt lat="43.76952" lon="7.068">
        <ele>933.6</ele>
        <time>2019-12-12T09:46:34Z</time>
      </trkpt>
      <trkpt lat="43.76956" lon="7.06794">
        <ele>934.1</ele>
        <time>2019-12-12T09:46:36Z</time>
      </trkpt>
      <trkpt lat="43.76959" lon="7.06789">
        <ele>934.5</ele>
        <time>2019-12-12T09:46:38Z</time>
      </trkpt>
      <trkpt lat="43.76961" lon="7.06784">
        <ele>935</ele>
        <time>2019-12-12T09:46:40Z</time>
      </trkpt>
      <trkpt lat="43.76964" lon="7.0678">
        <ele>935</ele>
        <time>2019-12-12T09:46:42Z</time>
      </trkpt>
      <trkpt lat="43.76968" lon="7.0678">
        <ele>935</ele>
        <time>2019-12-12T09:46:44Z</time>
      </trkpt>
      <trkpt lat="43.76972" lon="7.06777">
        <ele>935.5</ele>
        <time>2019-12-12T09:46:46Z</time>
      </trkpt>
      <trkpt lat="43.76975" lon="7.06774">
        <ele>935.5</ele>
        <time>2019-12-12T09:46:48Z</time>
      </trkpt>
      <trkpt lat="43.76977" lon="7.06769">
        <ele>936.5</ele>
        <time>2019-12-12T09:46:50Z</time>
      </trkpt>
      <trkpt lat="43.76979" lon="7.06765">
        <ele>936.9</ele>
        <time>2019-12-12T09:46:52Z</time>
      </trkpt>
      <trkpt lat="43.7698" lon="7.06765">
        <ele>936.5</ele>
        <time>2019-12-12T09:46:54Z</time>
      </trkpt>
      <trkpt lat="43.76979" lon="7.06766">
        <ele>936</ele>
        <time>2019-12-12T09:46:56Z</time>
      </trkpt>
      <trkpt lat="43.76978" lon="7.06766">
        <ele>936.9</ele>
        <time>2019-12-12T09:46:58Z</time>
      </trkpt>
      <trkpt lat="43.76978" lon="7.06765">
        <ele>936.9</ele>
        <time>2019-12-12T09:47:00Z</time>
      </trkpt>
      <trkpt lat="43.76978" lon="7.06765">
        <ele>936.9</ele>
        <time>2019-12-12T09:47:02Z</time>
      </trkpt>
      <trkpt lat="43.76978" lon="7.06765">
        <ele>936.9</ele>
        <time>2019-12-12T09:47:04Z</time>
      </trkpt>
      <trkpt lat="43.76978" lon="7.06765">
        <ele>936.9</ele>
        <time>2019-12-12T09:47:06Z</time>
      </trkpt>
      <trkpt lat="43.76978" lon="7.06765">
        <ele>936.9</ele>
        <time>2019-12-12T09:47:08Z</time>
      </trkpt>
      <trkpt lat="43.76978" lon="7.06765">
        <ele>936.9</ele>
        <time>2019-12-12T09:47:10Z</time>
      </trkpt>
      <trkpt lat="43.76978" lon="7.06765">
        <ele>936.9</ele>
        <time>2019-12-12T09:47:12Z</time>
      </trkpt>
      <trkpt lat="43.76978" lon="7.06765">
        <ele>936.9</ele>
        <time>2019-12-12T09:47:14Z</time>
      </trkpt>
      <trkpt lat="43.76978" lon="7.06765">
        <ele>936.9</ele>
        <time>2019-12-12T09:47:16Z</time>
      </trkpt>
      <trkpt lat="43.76978" lon="7.06765">
        <ele>936.9</ele>
        <time>2019-12-12T09:47:18Z</time>
      </trkpt>
      <trkpt lat="43.76978" lon="7.06765">
        <ele>936.9</ele>
        <time>2019-12-12T09:47:20Z</time>
      </trkpt>
      <trkpt lat="43.76978" lon="7.06765">
        <ele>936.9</ele>
        <time>2019-12-12T09:47:22Z</time>
      </trkpt>
      <trkpt lat="43.76978" lon="7.06765">
        <ele>936.9</ele>
        <time>2019-12-12T09:47:24Z</time>
      </trkpt>
      <trkpt lat="43.76978" lon="7.06765">
        <ele>936.9</ele>
        <time>2019-12-12T09:47:26Z</time>
      </trkpt>
      <trkpt lat="43.76978" lon="7.06765">
        <ele>936.9</ele>
        <time>2019-12-12T09:47:28Z</time>
      </trkpt>
      <trkpt lat="43.76978" lon="7.06765">
        <ele>936.9</ele>
        <time>2019-12-12T09:47:30Z</time>
      </trkpt>
      <trkpt lat="43.76978" lon="7.06765">
        <ele>936.9</ele>
        <time>2019-12-12T09:47:32Z</time>
      </trkpt>
      <trkpt lat="43.76978" lon="7.06765">
        <ele>936.9</ele>
        <time>2019-12-12T09:47:34Z</time>
      </trkpt>
      <trkpt lat="43.76978" lon="7.06765">
        <ele>936.9</ele>
        <time>2019-12-12T09:47:36Z</time>
      </trkpt>
      <trkpt lat="43.76978" lon="7.06765">
        <ele>936.9</ele>
        <time>2019-12-12T09:47:38Z</time>
      </trkpt>
      <trkpt lat="43.76978" lon="7.06765">
        <ele>936.9</ele>
        <time>2019-12-12T09:47:40Z</time>
      </trkpt>
      <trkpt lat="43.76978" lon="7.06765">
        <ele>936.9</ele>
        <time>2019-12-12T09:47:42Z</time>
      </trkpt>
      <trkpt lat="43.76978" lon="7.06764">
        <ele>936.9</ele>
        <time>2019-12-12T09:47:44Z</time>
      </trkpt>
      <trkpt lat="43.76978" lon="7.06764">
        <ele>936.9</ele>
        <time>2019-12-12T09:47:46Z</time>
      </trkpt>
      <trkpt lat="43.76978" lon="7.06764">
        <ele>936.9</ele>
        <time>2019-12-12T09:47:48Z</time>
      </trkpt>
      <trkpt lat="43.76978" lon="7.06764">
        <ele>936.9</ele>
        <time>2019-12-12T09:47:50Z</time>
      </trkpt>
      <trkpt lat="43.76978" lon="7.06764">
        <ele>936.9</ele>
        <time>2019-12-12T09:47:52Z</time>
      </trkpt>
      <trkpt lat="43.76978" lon="7.06764">
        <ele>936.9</ele>
        <time>2019-12-12T09:47:54Z</time>
      </trkpt>
      <trkpt lat="43.76978" lon="7.06764">
        <ele>936.9</ele>
        <time>2019-12-12T09:47:56Z</time>
      </trkpt>
      <trkpt lat="43.76978" lon="7.06764">
        <ele>936.9</ele>
        <time>2019-12-12T09:47:58Z</time>
      </trkpt>
      <trkpt lat="43.76978" lon="7.06764">
        <ele>936.9</ele>
        <time>2019-12-12T09:48:00Z</time>
      </trkpt>
      <trkpt lat="43.76978" lon="7.06764">
        <ele>936.9</ele>
        <time>2019-12-12T09:48:02Z</time>
      </trkpt>
      <trkpt lat="43.76978" lon="7.06764">
        <ele>936.9</ele>
        <time>2019-12-12T09:48:04Z</time>
      </trkpt>
      <trkpt lat="43.76978" lon="7.06764">
        <ele>936.9</ele>
        <time>2019-12-12T09:48:06Z</time>
      </trkpt>
      <trkpt lat="43.76978" lon="7.06764">
        <ele>936.9</ele>
        <time>2019-12-12T09:48:08Z</time>
      </trkpt>
      <trkpt lat="43.76978" lon="7.06764">
        <ele>936.9</ele>
        <time>2019-12-12T09:48:10Z</time>
      </trkpt>
      <trkpt lat="43.76978" lon="7.06764">
        <ele>936.9</ele>
        <time>2019-12-12T09:48:12Z</time>
      </trkpt>
      <trkpt lat="43.76978" lon="7.06764">
        <ele>936.9</ele>
        <time>2019-12-12T09:48:14Z</time>
      </trkpt>
      <trkpt lat="43.76978" lon="7.06764">
        <ele>936.9</ele>
        <time>2019-12-12T09:48:16Z</time>
      </trkpt>
      <trkpt lat="43.76978" lon="7.06764">
        <ele>936.9</ele>
        <time>2019-12-12T09:48:18Z</time>
      </trkpt>
      <trkpt lat="43.76978" lon="7.06764">
        <ele>936.9</ele>
        <time>2019-12-12T09:48:20Z</time>
      </trkpt>
      <trkpt lat="43.76978" lon="7.06764">
        <ele>936.9</ele>
        <time>2019-12-12T09:48:22Z</time>
      </trkpt>
      <trkpt lat="43.76978" lon="7.06764">
        <ele>936.9</ele>
        <time>2019-12-12T09:48:24Z</time>
      </trkpt>
      <trkpt lat="43.76978" lon="7.06764">
        <ele>936.9</ele>
        <time>2019-12-12T09:48:26Z</time>
      </trkpt>
      <trkpt lat="43.76978" lon="7.06764">
        <ele>936.9</ele>
        <time>2019-12-12T09:48:28Z</time>
      </trkpt>
      <trkpt lat="43.76978" lon="7.06764">
        <ele>936.9</ele>
        <time>2019-12-12T09:48:30Z</time>
      </trkpt>
      <trkpt lat="43.76978" lon="7.06764">
        <ele>936.9</ele>
        <time>2019-12-12T09:48:32Z</time>
      </trkpt>
      <trkpt lat="43.76978" lon="7.06764">
        <ele>936.9</ele>
        <time>2019-12-12T09:48:34Z</time>
      </trkpt>
      <trkpt lat="43.76978" lon="7.06764">
        <ele>936.9</ele>
        <time>2019-12-12T09:48:36Z</time>
      </trkpt>
      <trkpt lat="43.76978" lon="7.06764">
        <ele>936.9</ele>
        <time>2019-12-12T09:48:38Z</time>
      </trkpt>
      <trkpt lat="43.76978" lon="7.06764">
        <ele>936.9</ele>
        <time>2019-12-12T09:48:40Z</time>
      </trkpt>
      <trkpt lat="43.76978" lon="7.06764">
        <ele>936.9</ele>
        <time>2019-12-12T09:48:42Z</time>
      </trkpt>
      <trkpt lat="43.76978" lon="7.06764">
        <ele>936.9</ele>
        <time>2019-12-12T09:48:44Z</time>
      </trkpt>
      <trkpt lat="43.76978" lon="7.06764">
        <ele>936.9</ele>
        <time>2019-12-12T09:48:46Z</time>
      </trkpt>
      <trkpt lat="43.76978" lon="7.06764">
        <ele>936.9</ele>
        <time>2019-12-12T09:48:48Z</time>
      </trkpt>
      <trkpt lat="43.76978" lon="7.06764">
        <ele>936.9</ele>
        <time>2019-12-12T09:48:50Z</time>
      </trkpt>
      <trkpt lat="43.76978" lon="7.06764">
        <ele>936.9</ele>
        <time>2019-12-12T09:48:52Z</time>
      </trkpt>
      <trkpt lat="43.76978" lon="7.06764">
        <ele>936.9</ele>
        <time>2019-12-12T09:48:54Z</time>
      </trkpt>
      <trkpt lat="43.76978" lon="7.06764">
        <ele>936.9</ele>
        <time>2019-12-12T09:48:56Z</time>
      </trkpt>
      <trkpt lat="43.76978" lon="7.06764">
        <ele>936.9</ele>
        <time>2019-12-12T09:48:58Z</time>
      </trkpt>
      <trkpt lat="43.76978" lon="7.06764">
        <ele>936.9</ele>
        <time>2019-12-12T09:49:00Z</time>
      </trkpt>
      <trkpt lat="43.76978" lon="7.06764">
        <ele>936.9</ele>
        <time>2019-12-12T09:49:02Z</time>
      </trkpt>
      <trkpt lat="43.76978" lon="7.06764">
        <ele>936.9</ele>
        <time>2019-12-12T09:49:04Z</time>
      </trkpt>
      <trkpt lat="43.76978" lon="7.06764">
        <ele>936.9</ele>
        <time>2019-12-12T09:49:06Z</time>
      </trkpt>
      <trkpt lat="43.76978" lon="7.06764">
        <ele>936.9</ele>
        <time>2019-12-12T09:49:08Z</time>
      </trkpt>
      <trkpt lat="43.76978" lon="7.06764">
        <ele>936.9</ele>
        <time>2019-12-12T09:49:10Z</time>
      </trkpt>
      <trkpt lat="43.76978" lon="7.06764">
        <ele>936.9</ele>
        <time>2019-12-12T09:49:12Z</time>
      </trkpt>
      <trkpt lat="43.76978" lon="7.06764">
        <ele>936.9</ele>
        <time>2019-12-12T09:49:14Z</time>
      </trkpt>
      <trkpt lat="43.76978" lon="7.06764">
        <ele>936.9</ele>
        <time>2019-12-12T09:49:16Z</time>
      </trkpt>
      <trkpt lat="43.76978" lon="7.06764">
        <ele>936.9</ele>
        <time>2019-12-12T09:49:18Z</time>
      </trkpt>
      <trkpt lat="43.76978" lon="7.06764">
        <ele>936.9</ele>
        <time>2019-12-12T09:49:20Z</time>
      </trkpt>
      <trkpt lat="43.76978" lon="7.06764">
        <ele>936.9</ele>
        <time>2019-12-12T09:49:22Z</time>
      </trkpt>
      <trkpt lat="43.76978" lon="7.06764">
        <ele>936.9</ele>
        <time>2019-12-12T09:49:24Z</time>
      </trkpt>
      <trkpt lat="43.76978" lon="7.06764">
        <ele>936.9</ele>
        <time>2019-12-12T09:49:26Z</time>
      </trkpt>
      <trkpt lat="43.76978" lon="7.06764">
        <ele>936.9</ele>
        <time>2019-12-12T09:49:28Z</time>
      </trkpt>
      <trkpt lat="43.76978" lon="7.06764">
        <ele>936.9</ele>
        <time>2019-12-12T09:49:30Z</time>
      </trkpt>
      <trkpt lat="43.76978" lon="7.06764">
        <ele>936.9</ele>
        <time>2019-12-12T09:49:32Z</time>
      </trkpt>
      <trkpt lat="43.76978" lon="7.06764">
        <ele>936.9</ele>
        <time>2019-12-12T09:49:34Z</time>
      </trkpt>
      <trkpt lat="43.76978" lon="7.06764">
        <ele>936.9</ele>
        <time>2019-12-12T09:49:36Z</time>
      </trkpt>
      <trkpt lat="43.76978" lon="7.06764">
        <ele>936.9</ele>
        <time>2019-12-12T09:49:38Z</time>
      </trkpt>
      <trkpt lat="43.76978" lon="7.06764">
        <ele>936.9</ele>
        <time>2019-12-12T09:49:40Z</time>
      </trkpt>
      <trkpt lat="43.76978" lon="7.06764">
        <ele>936.9</ele>
        <time>2019-12-12T09:49:42Z</time>
      </trkpt>
      <trkpt lat="43.76978" lon="7.06764">
        <ele>936.9</ele>
        <time>2019-12-12T09:49:44Z</time>
      </trkpt>
      <trkpt lat="43.76978" lon="7.06764">
        <ele>936.9</ele>
        <time>2019-12-12T09:49:46Z</time>
      </trkpt>
      <trkpt lat="43.76978" lon="7.06764">
        <ele>936.9</ele>
        <time>2019-12-12T09:49:48Z</time>
      </trkpt>
      <trkpt lat="43.76978" lon="7.06764">
        <ele>936.9</ele>
        <time>2019-12-12T09:49:50Z</time>
      </trkpt>
      <trkpt lat="43.76978" lon="7.06764">
        <ele>936.9</ele>
        <time>2019-12-12T09:49:52Z</time>
      </trkpt>
      <trkpt lat="43.76978" lon="7.06764">
        <ele>936.9</ele>
        <time>2019-12-12T09:49:54Z</time>
      </trkpt>
      <trkpt lat="43.76978" lon="7.06764">
        <ele>936.9</ele>
        <time>2019-12-12T09:49:56Z</time>
      </trkpt>
      <trkpt lat="43.76978" lon="7.06764">
        <ele>936.9</ele>
        <time>2019-12-12T09:49:58Z</time>
      </trkpt>
      <trkpt lat="43.76978" lon="7.06764">
        <ele>936.9</ele>
        <time>2019-12-12T09:50:00Z</time>
      </trkpt>
      <trkpt lat="43.76978" lon="7.06764">
        <ele>936.9</ele>
        <time>2019-12-12T09:50:02Z</time>
      </trkpt>
      <trkpt lat="43.76978" lon="7.06764">
        <ele>936.9</ele>
        <time>2019-12-12T09:50:04Z</time>
      </trkpt>
      <trkpt lat="43.76978" lon="7.06764">
        <ele>936.9</ele>
        <time>2019-12-12T09:50:06Z</time>
      </trkpt>
      <trkpt lat="43.76978" lon="7.06764">
        <ele>936.9</ele>
        <time>2019-12-12T09:50:08Z</time>
      </trkpt>
      <trkpt lat="43.76978" lon="7.06764">
        <ele>936.9</ele>
        <time>2019-12-12T09:50:10Z</time>
      </trkpt>
      <trkpt lat="43.76978" lon="7.06764">
        <ele>936.9</ele>
        <time>2019-12-12T09:50:12Z</time>
      </trkpt>
      <trkpt lat="43.76978" lon="7.06764">
        <ele>936.9</ele>
        <time>2019-12-12T09:50:14Z</time>
      </trkpt>
      <trkpt lat="43.76978" lon="7.06764">
        <ele>936.9</ele>
        <time>2019-12-12T09:50:16Z</time>
      </trkpt>
      <trkpt lat="43.76978" lon="7.06764">
        <ele>936.9</ele>
        <time>2019-12-12T09:50:18Z</time>
      </trkpt>
      <trkpt lat="43.76978" lon="7.06764">
        <ele>936.9</ele>
        <time>2019-12-12T09:50:20Z</time>
      </trkpt>
      <trkpt lat="43.76978" lon="7.06764">
        <ele>936.9</ele>
        <time>2019-12-12T09:50:22Z</time>
      </trkpt>
      <trkpt lat="43.76978" lon="7.06764">
        <ele>936.9</ele>
        <time>2019-12-12T09:50:24Z</time>
      </trkpt>
      <trkpt lat="43.76978" lon="7.06764">
        <ele>936.9</ele>
        <time>2019-12-12T09:50:26Z</time>
      </trkpt>
      <trkpt lat="43.76978" lon="7.06764">
        <ele>936.9</ele>
        <time>2019-12-12T09:50:28Z</time>
      </trkpt>
      <trkpt lat="43.76978" lon="7.06764">
        <ele>936.9</ele>
        <time>2019-12-12T09:50:30Z</time>
      </trkpt>
      <trkpt lat="43.76978" lon="7.06764">
        <ele>936.9</ele>
        <time>2019-12-12T09:50:32Z</time>
      </trkpt>
      <trkpt lat="43.76978" lon="7.06764">
        <ele>936.9</ele>
        <time>2019-12-12T09:50:34Z</time>
      </trkpt>
      <trkpt lat="43.76978" lon="7.06764">
        <ele>936.9</ele>
        <time>2019-12-12T09:50:36Z</time>
      </trkpt>
      <trkpt lat="43.76979" lon="7.06763">
        <ele>936.9</ele>
        <time>2019-12-12T09:50:38Z</time>
      </trkpt>
      <trkpt lat="43.76983" lon="7.06759">
        <ele>936.9</ele>
        <time>2019-12-12T09:50:40Z</time>
      </trkpt>
      <trkpt lat="43.76988" lon="7.06755">
        <ele>936</ele>
        <time>2019-12-12T09:50:42Z</time>
      </trkpt>
      <trkpt lat="43.76992" lon="7.06751">
        <ele>935.5</ele>
        <time>2019-12-12T09:50:44Z</time>
      </trkpt>
      <trkpt lat="43.76994" lon="7.06747">
        <ele>935.5</ele>
        <time>2019-12-12T09:50:46Z</time>
      </trkpt>
      <trkpt lat="43.76997" lon="7.06744">
        <ele>935.5</ele>
        <time>2019-12-12T09:50:48Z</time>
      </trkpt>
      <trkpt lat="43.77001" lon="7.06741">
        <ele>935</ele>
        <time>2019-12-12T09:50:50Z</time>
      </trkpt>
      <trkpt lat="43.77004" lon="7.06738">
        <ele>935</ele>
        <time>2019-12-12T09:50:52Z</time>
      </trkpt>
      <trkpt lat="43.77007" lon="7.06735">
        <ele>934.1</ele>
        <time>2019-12-12T09:50:54Z</time>
      </trkpt>
      <trkpt lat="43.7701" lon="7.06732">
        <ele>933.6</ele>
        <time>2019-12-12T09:50:56Z</time>
      </trkpt>
      <trkpt lat="43.77014" lon="7.06726">
        <ele>932.1</ele>
        <time>2019-12-12T09:50:58Z</time>
      </trkpt>
      <trkpt lat="43.77018" lon="7.06724">
        <ele>931.7</ele>
        <time>2019-12-12T09:51:00Z</time>
      </trkpt>
      <trkpt lat="43.77021" lon="7.0672">
        <ele>931.2</ele>
        <time>2019-12-12T09:51:02Z</time>
      </trkpt>
      <trkpt lat="43.77025" lon="7.06718">
        <ele>930.2</ele>
        <time>2019-12-12T09:51:04Z</time>
      </trkpt>
      <trkpt lat="43.77029" lon="7.06715">
        <ele>929.3</ele>
        <time>2019-12-12T09:51:06Z</time>
      </trkpt>
      <trkpt lat="43.77033" lon="7.06712">
        <ele>928.8</ele>
        <time>2019-12-12T09:51:08Z</time>
      </trkpt>
      <trkpt lat="43.77036" lon="7.06708">
        <ele>928.3</ele>
        <time>2019-12-12T09:51:10Z</time>
      </trkpt>
      <trkpt lat="43.77038" lon="7.06704">
        <ele>927.8</ele>
        <time>2019-12-12T09:51:12Z</time>
      </trkpt>
      <trkpt lat="43.77041" lon="7.06701">
        <ele>927.8</ele>
        <time>2019-12-12T09:51:14Z</time>
      </trkpt>
      <trkpt lat="43.77044" lon="7.06699">
        <ele>927.3</ele>
        <time>2019-12-12T09:51:16Z</time>
      </trkpt>
      <trkpt lat="43.77048" lon="7.06697">
        <ele>926.8</ele>
        <time>2019-12-12T09:51:18Z</time>
      </trkpt>
      <trkpt lat="43.77052" lon="7.06693">
        <ele>926.8</ele>
        <time>2019-12-12T09:51:20Z</time>
      </trkpt>
      <trkpt lat="43.77056" lon="7.0669">
        <ele>926.8</ele>
        <time>2019-12-12T09:51:22Z</time>
      </trkpt>
      <trkpt lat="43.77062" lon="7.06687">
        <ele>927.3</ele>
        <time>2019-12-12T09:51:24Z</time>
      </trkpt>
      <trkpt lat="43.77067" lon="7.06683">
        <ele>927.3</ele>
        <time>2019-12-12T09:51:26Z</time>
      </trkpt>
      <trkpt lat="43.7707" lon="7.06681">
        <ele>927.3</ele>
        <time>2019-12-12T09:51:28Z</time>
      </trkpt>
      <trkpt lat="43.77075" lon="7.06679">
        <ele>926.8</ele>
        <time>2019-12-12T09:51:30Z</time>
      </trkpt>
      <trkpt lat="43.77078" lon="7.06676">
        <ele>926.8</ele>
        <time>2019-12-12T09:51:32Z</time>
      </trkpt>
      <trkpt lat="43.77082" lon="7.06672">
        <ele>926.8</ele>
        <time>2019-12-12T09:51:34Z</time>
      </trkpt>
      <trkpt lat="43.77087" lon="7.06668">
        <ele>926.4</ele>
        <time>2019-12-12T09:51:36Z</time>
      </trkpt>
      <trkpt lat="43.7709" lon="7.06663">
        <ele>926.4</ele>
        <time>2019-12-12T09:51:38Z</time>
      </trkpt>
      <trkpt lat="43.77093" lon="7.06658">
        <ele>926.8</ele>
        <time>2019-12-12T09:51:40Z</time>
      </trkpt>
      <trkpt lat="43.77095" lon="7.06653">
        <ele>926.4</ele>
        <time>2019-12-12T09:51:42Z</time>
      </trkpt>
      <trkpt lat="43.77098" lon="7.06649">
        <ele>925.9</ele>
        <time>2019-12-12T09:51:44Z</time>
      </trkpt>
      <trkpt lat="43.77101" lon="7.06645">
        <ele>925.9</ele>
        <time>2019-12-12T09:51:46Z</time>
      </trkpt>
      <trkpt lat="43.77104" lon="7.06642">
        <ele>925.9</ele>
        <time>2019-12-12T09:51:48Z</time>
      </trkpt>
      <trkpt lat="43.77107" lon="7.06639">
        <ele>925.9</ele>
        <time>2019-12-12T09:51:50Z</time>
      </trkpt>
      <trkpt lat="43.77109" lon="7.06636">
        <ele>925.9</ele>
        <time>2019-12-12T09:51:52Z</time>
      </trkpt>
      <trkpt lat="43.77111" lon="7.06634">
        <ele>926.4</ele>
        <time>2019-12-12T09:51:54Z</time>
      </trkpt>
      <trkpt lat="43.77113" lon="7.06631">
        <ele>926.4</ele>
        <time>2019-12-12T09:51:56Z</time>
      </trkpt>
      <trkpt lat="43.77117" lon="7.06628">
        <ele>926.4</ele>
        <time>2019-12-12T09:51:58Z</time>
      </trkpt>
      <trkpt lat="43.77122" lon="7.06624">
        <ele>926.4</ele>
        <time>2019-12-12T09:52:00Z</time>
      </trkpt>
      <trkpt lat="43.77124" lon="7.06616">
        <ele>925.9</ele>
        <time>2019-12-12T09:52:02Z</time>
      </trkpt>
      <trkpt lat="43.77128" lon="7.06612">
        <ele>926.4</ele>
        <time>2019-12-12T09:52:04Z</time>
      </trkpt>
      <trkpt lat="43.77132" lon="7.06607">
        <ele>926.4</ele>
        <time>2019-12-12T09:52:06Z</time>
      </trkpt>
      <trkpt lat="43.77134" lon="7.06596">
        <ele>926.8</ele>
        <time>2019-12-12T09:52:08Z</time>
      </trkpt>
      <trkpt lat="43.77138" lon="7.06592">
        <ele>927.8</ele>
        <time>2019-12-12T09:52:10Z</time>
      </trkpt>
      <trkpt lat="43.77141" lon="7.06587">
        <ele>928.8</ele>
        <time>2019-12-12T09:52:12Z</time>
      </trkpt>
      <trkpt lat="43.77142" lon="7.06582">
        <ele>929.3</ele>
        <time>2019-12-12T09:52:14Z</time>
      </trkpt>
      <trkpt lat="43.77144" lon="7.06576">
        <ele>930.7</ele>
        <time>2019-12-12T09:52:16Z</time>
      </trkpt>
      <trkpt lat="43.77145" lon="7.06571">
        <ele>931.7</ele>
        <time>2019-12-12T09:52:18Z</time>
      </trkpt>
      <trkpt lat="43.77147" lon="7.06568">
        <ele>932.6</ele>
        <time>2019-12-12T09:52:20Z</time>
      </trkpt>
      <trkpt lat="43.77148" lon="7.06564">
        <ele>933.6</ele>
        <time>2019-12-12T09:52:22Z</time>
      </trkpt>
      <trkpt lat="43.77147" lon="7.06559">
        <ele>935</ele>
        <time>2019-12-12T09:52:24Z</time>
      </trkpt>
      <trkpt lat="43.77147" lon="7.06554">
        <ele>936</ele>
        <time>2019-12-12T09:52:26Z</time>
      </trkpt>
      <trkpt lat="43.77146" lon="7.0655">
        <ele>937.4</ele>
        <time>2019-12-12T09:52:28Z</time>
      </trkpt>
      <trkpt lat="43.77145" lon="7.06546">
        <ele>938.9</ele>
        <time>2019-12-12T09:52:30Z</time>
      </trkpt>
      <trkpt lat="43.77145" lon="7.06541">
        <ele>939.8</ele>
        <time>2019-12-12T09:52:32Z</time>
      </trkpt>
      <trkpt lat="43.77146" lon="7.06535">
        <ele>941.3</ele>
        <time>2019-12-12T09:52:34Z</time>
      </trkpt>
      <trkpt lat="43.77145" lon="7.06529">
        <ele>942.2</ele>
        <time>2019-12-12T09:52:36Z</time>
      </trkpt>
      <trkpt lat="43.77147" lon="7.06518">
        <ele>943.7</ele>
        <time>2019-12-12T09:52:38Z</time>
      </trkpt>
      <trkpt lat="43.77147" lon="7.06511">
        <ele>945.1</ele>
        <time>2019-12-12T09:52:40Z</time>
      </trkpt>
      <trkpt lat="43.77147" lon="7.06504">
        <ele>946.6</ele>
        <time>2019-12-12T09:52:42Z</time>
      </trkpt>
      <trkpt lat="43.77147" lon="7.06497">
        <ele>948</ele>
        <time>2019-12-12T09:52:44Z</time>
      </trkpt>
      <trkpt lat="43.77148" lon="7.0649">
        <ele>949.4</ele>
        <time>2019-12-12T09:52:46Z</time>
      </trkpt>
      <trkpt lat="43.77147" lon="7.06484">
        <ele>951.4</ele>
        <time>2019-12-12T09:52:48Z</time>
      </trkpt>
      <trkpt lat="43.77147" lon="7.06477">
        <ele>953.3</ele>
        <time>2019-12-12T09:52:50Z</time>
      </trkpt>
      <trkpt lat="43.77148" lon="7.0647">
        <ele>954.2</ele>
        <time>2019-12-12T09:52:52Z</time>
      </trkpt>
      <trkpt lat="43.77148" lon="7.06464">
        <ele>955.7</ele>
        <time>2019-12-12T09:52:54Z</time>
      </trkpt>
      <trkpt lat="43.77148" lon="7.06458">
        <ele>957.1</ele>
        <time>2019-12-12T09:52:56Z</time>
      </trkpt>
      <trkpt lat="43.77147" lon="7.06453">
        <ele>958.1</ele>
        <time>2019-12-12T09:52:58Z</time>
      </trkpt>
      <trkpt lat="43.77147" lon="7.06447">
        <ele>960</ele>
        <time>2019-12-12T09:53:00Z</time>
      </trkpt>
      <trkpt lat="43.77148" lon="7.06444">
        <ele>961.5</ele>
        <time>2019-12-12T09:53:02Z</time>
      </trkpt>
      <trkpt lat="43.77146" lon="7.0644">
        <ele>961.9</ele>
        <time>2019-12-12T09:53:04Z</time>
      </trkpt>
      <trkpt lat="43.77145" lon="7.06435">
        <ele>963.9</ele>
        <time>2019-12-12T09:53:06Z</time>
      </trkpt>
      <trkpt lat="43.77146" lon="7.06431">
        <ele>965.3</ele>
        <time>2019-12-12T09:53:08Z</time>
      </trkpt>
      <trkpt lat="43.77147" lon="7.06426">
        <ele>965.8</ele>
        <time>2019-12-12T09:53:10Z</time>
      </trkpt>
      <trkpt lat="43.77147" lon="7.06422">
        <ele>967.7</ele>
        <time>2019-12-12T09:53:12Z</time>
      </trkpt>
      <trkpt lat="43.77146" lon="7.06418">
        <ele>968.7</ele>
        <time>2019-12-12T09:53:14Z</time>
      </trkpt>
      <trkpt lat="43.77146" lon="7.06415">
        <ele>969.6</ele>
        <time>2019-12-12T09:53:16Z</time>
      </trkpt>
      <trkpt lat="43.77145" lon="7.06411">
        <ele>970.6</ele>
        <time>2019-12-12T09:53:18Z</time>
      </trkpt>
      <trkpt lat="43.77143" lon="7.06406">
        <ele>972</ele>
        <time>2019-12-12T09:53:20Z</time>
      </trkpt>
      <trkpt lat="43.7714" lon="7.06402">
        <ele>973.5</ele>
        <time>2019-12-12T09:53:22Z</time>
      </trkpt>
      <trkpt lat="43.77136" lon="7.06395">
        <ele>974.9</ele>
        <time>2019-12-12T09:53:24Z</time>
      </trkpt>
      <trkpt lat="43.77131" lon="7.06388">
        <ele>974.9</ele>
        <time>2019-12-12T09:53:26Z</time>
      </trkpt>
      <trkpt lat="43.77127" lon="7.0638">
        <ele>975.4</ele>
        <time>2019-12-12T09:53:28Z</time>
      </trkpt>
      <trkpt lat="43.77124" lon="7.06374">
        <ele>976.4</ele>
        <time>2019-12-12T09:53:30Z</time>
      </trkpt>
      <trkpt lat="43.77122" lon="7.06367">
        <ele>976.4</ele>
        <time>2019-12-12T09:53:32Z</time>
      </trkpt>
      <trkpt lat="43.7712" lon="7.06361">
        <ele>977.3</ele>
        <time>2019-12-12T09:53:34Z</time>
      </trkpt>
      <trkpt lat="43.77118" lon="7.06356">
        <ele>978.3</ele>
        <time>2019-12-12T09:53:36Z</time>
      </trkpt>
      <trkpt lat="43.77116" lon="7.06352">
        <ele>979.7</ele>
        <time>2019-12-12T09:53:38Z</time>
      </trkpt>
      <trkpt lat="43.77114" lon="7.06345">
        <ele>980.7</ele>
        <time>2019-12-12T09:53:40Z</time>
      </trkpt>
      <trkpt lat="43.77112" lon="7.06339">
        <ele>982.6</ele>
        <time>2019-12-12T09:53:42Z</time>
      </trkpt>
      <trkpt lat="43.7711" lon="7.06334">
        <ele>983.1</ele>
        <time>2019-12-12T09:53:44Z</time>
      </trkpt>
      <trkpt lat="43.77109" lon="7.06332">
        <ele>984.5</ele>
        <time>2019-12-12T09:53:46Z</time>
      </trkpt>
      <trkpt lat="43.77107" lon="7.0633">
        <ele>986</ele>
        <time>2019-12-12T09:53:48Z</time>
      </trkpt>
      <trkpt lat="43.77105" lon="7.06329">
        <ele>986.4</ele>
        <time>2019-12-12T09:53:50Z</time>
      </trkpt>
      <trkpt lat="43.77105" lon="7.06328">
        <ele>986.9</ele>
        <time>2019-12-12T09:53:52Z</time>
      </trkpt>
      <trkpt lat="43.77105" lon="7.06325">
        <ele>988.4</ele>
        <time>2019-12-12T09:53:54Z</time>
      </trkpt>
      <trkpt lat="43.77103" lon="7.0632">
        <ele>988.9</ele>
        <time>2019-12-12T09:53:56Z</time>
      </trkpt>
      <trkpt lat="43.77101" lon="7.06315">
        <ele>989.8</ele>
        <time>2019-12-12T09:53:58Z</time>
      </trkpt>
      <trkpt lat="43.77101" lon="7.06309">
        <ele>990.8</ele>
        <time>2019-12-12T09:54:00Z</time>
      </trkpt>
      <trkpt lat="43.771" lon="7.06303">
        <ele>992.2</ele>
        <time>2019-12-12T09:54:02Z</time>
      </trkpt>
      <trkpt lat="43.77099" lon="7.06299">
        <ele>993.2</ele>
        <time>2019-12-12T09:54:04Z</time>
      </trkpt>
      <trkpt lat="43.77099" lon="7.06296">
        <ele>994.6</ele>
        <time>2019-12-12T09:54:06Z</time>
      </trkpt>
      <trkpt lat="43.77098" lon="7.06291">
        <ele>996.1</ele>
        <time>2019-12-12T09:54:08Z</time>
      </trkpt>
      <trkpt lat="43.77096" lon="7.06287">
        <ele>997</ele>
        <time>2019-12-12T09:54:10Z</time>
      </trkpt>
      <trkpt lat="43.77097" lon="7.06284">
        <ele>998.9</ele>
        <time>2019-12-12T09:54:12Z</time>
      </trkpt>
      <trkpt lat="43.77098" lon="7.06282">
        <ele>998.5</ele>
        <time>2019-12-12T09:54:14Z</time>
      </trkpt>
      <trkpt lat="43.77097" lon="7.06278">
        <ele>999.4</ele>
        <time>2019-12-12T09:54:16Z</time>
      </trkpt>
      <trkpt lat="43.77097" lon="7.06274">
        <ele>1000.4</ele>
        <time>2019-12-12T09:54:18Z</time>
      </trkpt>
      <trkpt lat="43.77096" lon="7.06268">
        <ele>1000.4</ele>
        <time>2019-12-12T09:54:20Z</time>
      </trkpt>
      <trkpt lat="43.77096" lon="7.06264">
        <ele>1001.8</ele>
        <time>2019-12-12T09:54:22Z</time>
      </trkpt>
      <trkpt lat="43.77096" lon="7.0626">
        <ele>1002.8</ele>
        <time>2019-12-12T09:54:24Z</time>
      </trkpt>
      <trkpt lat="43.77097" lon="7.06257">
        <ele>1003.3</ele>
        <time>2019-12-12T09:54:26Z</time>
      </trkpt>
      <trkpt lat="43.77096" lon="7.06256">
        <ele>1005.2</ele>
        <time>2019-12-12T09:54:28Z</time>
      </trkpt>
      <trkpt lat="43.77096" lon="7.06254">
        <ele>1006.2</ele>
        <time>2019-12-12T09:54:30Z</time>
      </trkpt>
      <trkpt lat="43.77097" lon="7.06252">
        <ele>1007.6</ele>
        <time>2019-12-12T09:54:32Z</time>
      </trkpt>
      <trkpt lat="43.77097" lon="7.0625">
        <ele>1007.1</ele>
        <time>2019-12-12T09:54:34Z</time>
      </trkpt>
      <trkpt lat="43.77097" lon="7.06248">
        <ele>1006.6</ele>
        <time>2019-12-12T09:54:36Z</time>
      </trkpt>
      <trkpt lat="43.77097" lon="7.06246">
        <ele>1007.6</ele>
        <time>2019-12-12T09:54:38Z</time>
      </trkpt>
      <trkpt lat="43.77096" lon="7.06246">
        <ele>1007.6</ele>
        <time>2019-12-12T09:54:40Z</time>
      </trkpt>
      <trkpt lat="43.77096" lon="7.06246">
        <ele>1007.6</ele>
        <time>2019-12-12T09:54:42Z</time>
      </trkpt>
      <trkpt lat="43.77096" lon="7.06246">
        <ele>1007.6</ele>
        <time>2019-12-12T09:54:44Z</time>
      </trkpt>
      <trkpt lat="43.77096" lon="7.06246">
        <ele>1007.6</ele>
        <time>2019-12-12T09:54:46Z</time>
      </trkpt>
      <trkpt lat="43.77096" lon="7.06244">
        <ele>1007.6</ele>
        <time>2019-12-12T09:54:48Z</time>
      </trkpt>
      <trkpt lat="43.77096" lon="7.06244">
        <ele>1008.1</ele>
        <time>2019-12-12T09:54:50Z</time>
      </trkpt>
      <trkpt lat="43.77096" lon="7.06244">
        <ele>1008.1</ele>
        <time>2019-12-12T09:54:52Z</time>
      </trkpt>
      <trkpt lat="43.77096" lon="7.06243">
        <ele>1008.1</ele>
        <time>2019-12-12T09:54:54Z</time>
      </trkpt>
      <trkpt lat="43.77097" lon="7.06242">
        <ele>1008.1</ele>
        <time>2019-12-12T09:54:56Z</time>
      </trkpt>
      <trkpt lat="43.77097" lon="7.06242">
        <ele>1008.1</ele>
        <time>2019-12-12T09:54:58Z</time>
      </trkpt>
      <trkpt lat="43.77097" lon="7.06241">
        <ele>1008.1</ele>
        <time>2019-12-12T09:55:00Z</time>
      </trkpt>
      <trkpt lat="43.77097" lon="7.06241">
        <ele>1008.1</ele>
        <time>2019-12-12T09:55:02Z</time>
      </trkpt>
      <trkpt lat="43.77097" lon="7.06241">
        <ele>1008.1</ele>
        <time>2019-12-12T09:55:04Z</time>
      </trkpt>
      <trkpt lat="43.77097" lon="7.06241">
        <ele>1008.1</ele>
        <time>2019-12-12T09:55:06Z</time>
      </trkpt>
      <trkpt lat="43.77097" lon="7.06241">
        <ele>1008.1</ele>
        <time>2019-12-12T09:55:08Z</time>
      </trkpt>
      <trkpt lat="43.77097" lon="7.06239">
        <ele>1008.1</ele>
        <time>2019-12-12T09:55:10Z</time>
      </trkpt>
      <trkpt lat="43.77102" lon="7.06229">
        <ele>1007.6</ele>
        <time>2019-12-12T09:55:12Z</time>
      </trkpt>
      <trkpt lat="43.77105" lon="7.06213">
        <ele>1007.6</ele>
        <time>2019-12-12T09:55:14Z</time>
      </trkpt>
      <trkpt lat="43.77106" lon="7.06203">
        <ele>1008.1</ele>
        <time>2019-12-12T09:55:16Z</time>
      </trkpt>
      <trkpt lat="43.77106" lon="7.06194">
        <ele>1007.6</ele>
        <time>2019-12-12T09:55:18Z</time>
      </trkpt>
      <trkpt lat="43.77107" lon="7.06183">
        <ele>1007.1</ele>
        <time>2019-12-12T09:55:20Z</time>
      </trkpt>
      <trkpt lat="43.77109" lon="7.06178">
        <ele>1007.1</ele>
        <time>2019-12-12T09:55:22Z</time>
      </trkpt>
      <trkpt lat="43.7711" lon="7.06173">
        <ele>1007.6</ele>
        <time>2019-12-12T09:55:24Z</time>
      </trkpt>
      <trkpt lat="43.77111" lon="7.06167">
        <ele>1008.1</ele>
        <time>2019-12-12T09:55:26Z</time>
      </trkpt>
      <trkpt lat="43.77112" lon="7.06161">
        <ele>1009</ele>
        <time>2019-12-12T09:55:28Z</time>
      </trkpt>
      <trkpt lat="43.77113" lon="7.06157">
        <ele>1010</ele>
        <time>2019-12-12T09:55:30Z</time>
      </trkpt>
      <trkpt lat="43.77115" lon="7.06153">
        <ele>1010.5</ele>
        <time>2019-12-12T09:55:32Z</time>
      </trkpt>
      <trkpt lat="43.77116" lon="7.06149">
        <ele>1011.4</ele>
        <time>2019-12-12T09:55:34Z</time>
      </trkpt>
      <trkpt lat="43.77115" lon="7.06145">
        <ele>1012.9</ele>
        <time>2019-12-12T09:55:36Z</time>
      </trkpt>
      <trkpt lat="43.77116" lon="7.06141">
        <ele>1013.8</ele>
        <time>2019-12-12T09:55:38Z</time>
      </trkpt>
      <trkpt lat="43.77116" lon="7.06138">
        <ele>1013.8</ele>
        <time>2019-12-12T09:55:40Z</time>
      </trkpt>
      <trkpt lat="43.77116" lon="7.06137">
        <ele>1012.9</ele>
        <time>2019-12-12T09:55:42Z</time>
      </trkpt>
      <trkpt lat="43.77116" lon="7.06135">
        <ele>1012.9</ele>
        <time>2019-12-12T09:55:44Z</time>
      </trkpt>
      <trkpt lat="43.77117" lon="7.06134">
        <ele>1012.9</ele>
        <time>2019-12-12T09:55:46Z</time>
      </trkpt>
      <trkpt lat="43.77116" lon="7.06131">
        <ele>1012.9</ele>
        <time>2019-12-12T09:55:48Z</time>
      </trkpt>
      <trkpt lat="43.77116" lon="7.06129">
        <ele>1012.9</ele>
        <time>2019-12-12T09:55:50Z</time>
      </trkpt>
      <trkpt lat="43.77116" lon="7.06128">
        <ele>1013.4</ele>
        <time>2019-12-12T09:55:52Z</time>
      </trkpt>
      <trkpt lat="43.77115" lon="7.06126">
        <ele>1013.4</ele>
        <time>2019-12-12T09:55:54Z</time>
      </trkpt>
      <trkpt lat="43.77115" lon="7.06123">
        <ele>1012.9</ele>
        <time>2019-12-12T09:55:56Z</time>
      </trkpt>
      <trkpt lat="43.77114" lon="7.06121">
        <ele>1012.9</ele>
        <time>2019-12-12T09:55:58Z</time>
      </trkpt>
      <trkpt lat="43.77113" lon="7.06119">
        <ele>1012.9</ele>
        <time>2019-12-12T09:56:00Z</time>
      </trkpt>
      <trkpt lat="43.77112" lon="7.0612">
        <ele>1012.4</ele>
        <time>2019-12-12T09:56:02Z</time>
      </trkpt>
      <trkpt lat="43.77112" lon="7.0612">
        <ele>1012.4</ele>
        <time>2019-12-12T09:56:04Z</time>
      </trkpt>
      <trkpt lat="43.77112" lon="7.0612">
        <ele>1012.4</ele>
        <time>2019-12-12T09:56:06Z</time>
      </trkpt>
      <trkpt lat="43.77111" lon="7.0612">
        <ele>1012.4</ele>
        <time>2019-12-12T09:56:08Z</time>
      </trkpt>
      <trkpt lat="43.77113" lon="7.06118">
        <ele>1011</ele>
        <time>2019-12-12T09:56:10Z</time>
      </trkpt>
      <trkpt lat="43.77116" lon="7.06116">
        <ele>1008.1</ele>
        <time>2019-12-12T09:56:12Z</time>
      </trkpt>
      <trkpt lat="43.77118" lon="7.06113">
        <ele>1006.2</ele>
        <time>2019-12-12T09:56:14Z</time>
      </trkpt>
      <trkpt lat="43.7712" lon="7.0611">
        <ele>1003.8</ele>
        <time>2019-12-12T09:56:16Z</time>
      </trkpt>
      <trkpt lat="43.77122" lon="7.06107">
        <ele>1001.8</ele>
        <time>2019-12-12T09:56:18Z</time>
      </trkpt>
      <trkpt lat="43.77123" lon="7.06104">
        <ele>999.9</ele>
        <time>2019-12-12T09:56:20Z</time>
      </trkpt>
      <trkpt lat="43.77124" lon="7.06106">
        <ele>998.9</ele>
        <time>2019-12-12T09:56:22Z</time>
      </trkpt>
      <trkpt lat="43.77124" lon="7.06106">
        <ele>998.5</ele>
        <time>2019-12-12T09:56:24Z</time>
      </trkpt>
      <trkpt lat="43.77125" lon="7.06105">
        <ele>998</ele>
        <time>2019-12-12T09:56:26Z</time>
      </trkpt>
      <trkpt lat="43.77124" lon="7.06105">
        <ele>998</ele>
        <time>2019-12-12T09:56:28Z</time>
      </trkpt>
      <trkpt lat="43.77124" lon="7.06106">
        <ele>998.5</ele>
        <time>2019-12-12T09:56:30Z</time>
      </trkpt>
      <trkpt lat="43.77125" lon="7.06106">
        <ele>998.5</ele>
        <time>2019-12-12T09:56:32Z</time>
      </trkpt>
      <trkpt lat="43.77125" lon="7.06106">
        <ele>998.5</ele>
        <time>2019-12-12T09:56:34Z</time>
      </trkpt>
      <trkpt lat="43.77125" lon="7.06106">
        <ele>998.9</ele>
        <time>2019-12-12T09:56:36Z</time>
      </trkpt>
      <trkpt lat="43.77126" lon="7.06107">
        <ele>998.9</ele>
        <time>2019-12-12T09:56:38Z</time>
      </trkpt>
      <trkpt lat="43.77126" lon="7.06107">
        <ele>998.9</ele>
        <time>2019-12-12T09:56:40Z</time>
      </trkpt>
      <trkpt lat="43.77126" lon="7.06107">
        <ele>998.9</ele>
        <time>2019-12-12T09:56:42Z</time>
      </trkpt>
      <trkpt lat="43.77126" lon="7.06107">
        <ele>998.9</ele>
        <time>2019-12-12T09:56:44Z</time>
      </trkpt>
      <trkpt lat="43.77126" lon="7.06107">
        <ele>998.9</ele>
        <time>2019-12-12T09:56:46Z</time>
      </trkpt>
      <trkpt lat="43.77126" lon="7.06106">
        <ele>998.9</ele>
        <time>2019-12-12T09:56:48Z</time>
      </trkpt>
      <trkpt lat="43.77126" lon="7.06106">
        <ele>998.5</ele>
        <time>2019-12-12T09:56:50Z</time>
      </trkpt>
      <trkpt lat="43.77126" lon="7.06106">
        <ele>998.5</ele>
        <time>2019-12-12T09:56:52Z</time>
      </trkpt>
      <trkpt lat="43.77126" lon="7.06105">
        <ele>998.5</ele>
        <time>2019-12-12T09:56:54Z</time>
      </trkpt>
      <trkpt lat="43.77126" lon="7.06106">
        <ele>998.5</ele>
        <time>2019-12-12T09:56:56Z</time>
      </trkpt>
      <trkpt lat="43.77126" lon="7.06106">
        <ele>998.5</ele>
        <time>2019-12-12T09:56:58Z</time>
      </trkpt>
      <trkpt lat="43.77126" lon="7.06106">
        <ele>998.5</ele>
        <time>2019-12-12T09:57:00Z</time>
      </trkpt>
      <trkpt lat="43.77127" lon="7.06106">
        <ele>998.5</ele>
        <time>2019-12-12T09:57:02Z</time>
      </trkpt>
      <trkpt lat="43.77127" lon="7.06106">
        <ele>998.5</ele>
        <time>2019-12-12T09:57:04Z</time>
      </trkpt>
      <trkpt lat="43.77127" lon="7.06106">
        <ele>998.5</ele>
        <time>2019-12-12T09:57:06Z</time>
      </trkpt>
      <trkpt lat="43.77128" lon="7.06106">
        <ele>998.5</ele>
        <time>2019-12-12T09:57:08Z</time>
      </trkpt>
      <trkpt lat="43.77128" lon="7.06104">
        <ele>998.5</ele>
        <time>2019-12-12T09:57:10Z</time>
      </trkpt>
      <trkpt lat="43.77129" lon="7.06103">
        <ele>998</ele>
        <time>2019-12-12T09:57:12Z</time>
      </trkpt>
      <trkpt lat="43.7713" lon="7.06102">
        <ele>998</ele>
        <time>2019-12-12T09:57:14Z</time>
      </trkpt>
      <trkpt lat="43.77131" lon="7.06099">
        <ele>997</ele>
        <time>2019-12-12T09:57:16Z</time>
      </trkpt>
      <trkpt lat="43.77131" lon="7.06095">
        <ele>996.5</ele>
        <time>2019-12-12T09:57:18Z</time>
      </trkpt>
      <trkpt lat="43.77133" lon="7.06094">
        <ele>996.1</ele>
        <time>2019-12-12T09:57:20Z</time>
      </trkpt>
      <trkpt lat="43.77136" lon="7.06092">
        <ele>995.1</ele>
        <time>2019-12-12T09:57:22Z</time>
      </trkpt>
      <trkpt lat="43.77138" lon="7.06087">
        <ele>994.1</ele>
        <time>2019-12-12T09:57:24Z</time>
      </trkpt>
      <trkpt lat="43.77139" lon="7.06084">
        <ele>993.7</ele>
        <time>2019-12-12T09:57:26Z</time>
      </trkpt>
      <trkpt lat="43.77139" lon="7.06082">
        <ele>993.2</ele>
        <time>2019-12-12T09:57:28Z</time>
      </trkpt>
      <trkpt lat="43.77141" lon="7.06078">
        <ele>992.2</ele>
        <time>2019-12-12T09:57:30Z</time>
      </trkpt>
      <trkpt lat="43.77142" lon="7.06075">
        <ele>991.7</ele>
        <time>2019-12-12T09:57:32Z</time>
      </trkpt>
      <trkpt lat="43.77142" lon="7.06071">
        <ele>990.8</ele>
        <time>2019-12-12T09:57:34Z</time>
      </trkpt>
      <trkpt lat="43.77143" lon="7.06069">
        <ele>990.3</ele>
        <time>2019-12-12T09:57:36Z</time>
      </trkpt>
      <trkpt lat="43.77144" lon="7.06065">
        <ele>989.3</ele>
        <time>2019-12-12T09:57:38Z</time>
      </trkpt>
      <trkpt lat="43.77144" lon="7.0606">
        <ele>988.9</ele>
        <time>2019-12-12T09:57:40Z</time>
      </trkpt>
      <trkpt lat="43.77145" lon="7.06056">
        <ele>988.4</ele>
        <time>2019-12-12T09:57:42Z</time>
      </trkpt>
      <trkpt lat="43.77146" lon="7.06052">
        <ele>987.4</ele>
        <time>2019-12-12T09:57:44Z</time>
      </trkpt>
      <trkpt lat="43.77147" lon="7.06048">
        <ele>986.9</ele>
        <time>2019-12-12T09:57:46Z</time>
      </trkpt>
      <trkpt lat="43.77149" lon="7.06042">
        <ele>986.4</ele>
        <time>2019-12-12T09:57:48Z</time>
      </trkpt>
      <trkpt lat="43.7715" lon="7.06036">
        <ele>986</ele>
        <time>2019-12-12T09:57:50Z</time>
      </trkpt>
      <trkpt lat="43.77151" lon="7.06032">
        <ele>986</ele>
        <time>2019-12-12T09:57:52Z</time>
      </trkpt>
      <trkpt lat="43.77153" lon="7.06029">
        <ele>985.5</ele>
        <time>2019-12-12T09:57:54Z</time>
      </trkpt>
      <trkpt lat="43.77154" lon="7.06026">
        <ele>985.5</ele>
        <time>2019-12-12T09:57:56Z</time>
      </trkpt>
      <trkpt lat="43.77154" lon="7.06023">
        <ele>985</ele>
        <time>2019-12-12T09:57:58Z</time>
      </trkpt>
      <trkpt lat="43.77155" lon="7.06019">
        <ele>985.5</ele>
        <time>2019-12-12T09:58:00Z</time>
      </trkpt>
      <trkpt lat="43.77156" lon="7.06016">
        <ele>985.5</ele>
        <time>2019-12-12T09:58:02Z</time>
      </trkpt>
      <trkpt lat="43.77156" lon="7.06012">
        <ele>985.5</ele>
        <time>2019-12-12T09:58:04Z</time>
      </trkpt>
      <trkpt lat="43.77157" lon="7.06009">
        <ele>986</ele>
        <time>2019-12-12T09:58:06Z</time>
      </trkpt>
      <trkpt lat="43.77157" lon="7.06006">
        <ele>986</ele>
        <time>2019-12-12T09:58:08Z</time>
      </trkpt>
      <trkpt lat="43.77157" lon="7.06003">
        <ele>986.4</ele>
        <time>2019-12-12T09:58:10Z</time>
      </trkpt>
      <trkpt lat="43.77158" lon="7.05999">
        <ele>987.4</ele>
        <time>2019-12-12T09:58:12Z</time>
      </trkpt>
      <trkpt lat="43.77158" lon="7.05996">
        <ele>987.9</ele>
        <time>2019-12-12T09:58:14Z</time>
      </trkpt>
      <trkpt lat="43.77158" lon="7.05992">
        <ele>988.9</ele>
        <time>2019-12-12T09:58:16Z</time>
      </trkpt>
      <trkpt lat="43.77158" lon="7.05989">
        <ele>989.8</ele>
        <time>2019-12-12T09:58:18Z</time>
      </trkpt>
      <trkpt lat="43.77158" lon="7.05985">
        <ele>990.8</ele>
        <time>2019-12-12T09:58:20Z</time>
      </trkpt>
      <trkpt lat="43.77158" lon="7.0598">
        <ele>991.7</ele>
        <time>2019-12-12T09:58:22Z</time>
      </trkpt>
      <trkpt lat="43.77158" lon="7.05976">
        <ele>993.2</ele>
        <time>2019-12-12T09:58:24Z</time>
      </trkpt>
      <trkpt lat="43.77157" lon="7.05973">
        <ele>992.7</ele>
        <time>2019-12-12T09:58:26Z</time>
      </trkpt>
      <trkpt lat="43.77157" lon="7.05969">
        <ele>992.2</ele>
        <time>2019-12-12T09:58:28Z</time>
      </trkpt>
      <trkpt lat="43.77157" lon="7.05966">
        <ele>992.7</ele>
        <time>2019-12-12T09:58:30Z</time>
      </trkpt>
      <trkpt lat="43.77157" lon="7.05964">
        <ele>992.7</ele>
        <time>2019-12-12T09:58:32Z</time>
      </trkpt>
      <trkpt lat="43.77158" lon="7.05961">
        <ele>993.2</ele>
        <time>2019-12-12T09:58:34Z</time>
      </trkpt>
      <trkpt lat="43.77158" lon="7.05957">
        <ele>993.2</ele>
        <time>2019-12-12T09:58:36Z</time>
      </trkpt>
      <trkpt lat="43.77158" lon="7.05954">
        <ele>993.2</ele>
        <time>2019-12-12T09:58:38Z</time>
      </trkpt>
      <trkpt lat="43.77158" lon="7.0595">
        <ele>993.7</ele>
        <time>2019-12-12T09:58:40Z</time>
      </trkpt>
      <trkpt lat="43.77159" lon="7.05947">
        <ele>994.1</ele>
        <time>2019-12-12T09:58:42Z</time>
      </trkpt>
      <trkpt lat="43.77159" lon="7.05943">
        <ele>994.6</ele>
        <time>2019-12-12T09:58:44Z</time>
      </trkpt>
      <trkpt lat="43.7716" lon="7.05939">
        <ele>995.1</ele>
        <time>2019-12-12T09:58:46Z</time>
      </trkpt>
      <trkpt lat="43.77161" lon="7.05936">
        <ele>995.1</ele>
        <time>2019-12-12T09:58:48Z</time>
      </trkpt>
      <trkpt lat="43.77162" lon="7.05932">
        <ele>995.1</ele>
        <time>2019-12-12T09:58:50Z</time>
      </trkpt>
      <trkpt lat="43.77164" lon="7.05928">
        <ele>995.1</ele>
        <time>2019-12-12T09:58:52Z</time>
      </trkpt>
      <trkpt lat="43.77169" lon="7.05921">
        <ele>995.1</ele>
        <time>2019-12-12T09:58:54Z</time>
      </trkpt>
      <trkpt lat="43.77169" lon="7.05917">
        <ele>995.1</ele>
        <time>2019-12-12T09:58:56Z</time>
      </trkpt>
      <trkpt lat="43.7717" lon="7.05914">
        <ele>995.6</ele>
        <time>2019-12-12T09:58:58Z</time>
      </trkpt>
      <trkpt lat="43.77171" lon="7.05912">
        <ele>995.6</ele>
        <time>2019-12-12T09:59:00Z</time>
      </trkpt>
      <trkpt lat="43.77171" lon="7.05908">
        <ele>995.6</ele>
        <time>2019-12-12T09:59:02Z</time>
      </trkpt>
      <trkpt lat="43.77172" lon="7.05906">
        <ele>995.6</ele>
        <time>2019-12-12T09:59:04Z</time>
      </trkpt>
      <trkpt lat="43.77172" lon="7.05903">
        <ele>995.6</ele>
        <time>2019-12-12T09:59:06Z</time>
      </trkpt>
      <trkpt lat="43.77173" lon="7.059">
        <ele>995.6</ele>
        <time>2019-12-12T09:59:08Z</time>
      </trkpt>
      <trkpt lat="43.77175" lon="7.05897">
        <ele>995.6</ele>
        <time>2019-12-12T09:59:10Z</time>
      </trkpt>
      <trkpt lat="43.77177" lon="7.05893">
        <ele>995.1</ele>
        <time>2019-12-12T09:59:12Z</time>
      </trkpt>
      <trkpt lat="43.77178" lon="7.0589">
        <ele>995.1</ele>
        <time>2019-12-12T09:59:14Z</time>
      </trkpt>
      <trkpt lat="43.7718" lon="7.05886">
        <ele>995.1</ele>
        <time>2019-12-12T09:59:16Z</time>
      </trkpt>
      <trkpt lat="43.77182" lon="7.05884">
        <ele>995.6</ele>
        <time>2019-12-12T09:59:18Z</time>
      </trkpt>
      <trkpt lat="43.77183" lon="7.05881">
        <ele>996.1</ele>
        <time>2019-12-12T09:59:20Z</time>
      </trkpt>
      <trkpt lat="43.77184" lon="7.05878">
        <ele>996.5</ele>
        <time>2019-12-12T09:59:22Z</time>
      </trkpt>
      <trkpt lat="43.77187" lon="7.05874">
        <ele>996.5</ele>
        <time>2019-12-12T09:59:24Z</time>
      </trkpt>
      <trkpt lat="43.77188" lon="7.0587">
        <ele>996.5</ele>
        <time>2019-12-12T09:59:26Z</time>
      </trkpt>
      <trkpt lat="43.77189" lon="7.05865">
        <ele>996.5</ele>
        <time>2019-12-12T09:59:28Z</time>
      </trkpt>
      <trkpt lat="43.7719" lon="7.05861">
        <ele>996.5</ele>
        <time>2019-12-12T09:59:30Z</time>
      </trkpt>
      <trkpt lat="43.7719" lon="7.05858">
        <ele>996.5</ele>
        <time>2019-12-12T09:59:32Z</time>
      </trkpt>
      <trkpt lat="43.77191" lon="7.05855">
        <ele>997</ele>
        <time>2019-12-12T09:59:34Z</time>
      </trkpt>
      <trkpt lat="43.77193" lon="7.05852">
        <ele>997</ele>
        <time>2019-12-12T09:59:36Z</time>
      </trkpt>
      <trkpt lat="43.77194" lon="7.0585">
        <ele>997.5</ele>
        <time>2019-12-12T09:59:38Z</time>
      </trkpt>
      <trkpt lat="43.77195" lon="7.05847">
        <ele>998</ele>
        <time>2019-12-12T09:59:40Z</time>
      </trkpt>
      <trkpt lat="43.77197" lon="7.05844">
        <ele>998</ele>
        <time>2019-12-12T09:59:42Z</time>
      </trkpt>
      <trkpt lat="43.77199" lon="7.05841">
        <ele>998</ele>
        <time>2019-12-12T09:59:44Z</time>
      </trkpt>
      <trkpt lat="43.772" lon="7.05838">
        <ele>998</ele>
        <time>2019-12-12T09:59:46Z</time>
      </trkpt>
      <trkpt lat="43.77202" lon="7.05835">
        <ele>998</ele>
        <time>2019-12-12T09:59:48Z</time>
      </trkpt>
      <trkpt lat="43.77203" lon="7.05832">
        <ele>998.5</ele>
        <time>2019-12-12T09:59:50Z</time>
      </trkpt>
      <trkpt lat="43.77203" lon="7.05827">
        <ele>998.5</ele>
        <time>2019-12-12T09:59:52Z</time>
      </trkpt>
      <trkpt lat="43.77202" lon="7.05822">
        <ele>998.9</ele>
        <time>2019-12-12T09:59:54Z</time>
      </trkpt>
      <trkpt lat="43.77203" lon="7.05814">
        <ele>999.4</ele>
        <time>2019-12-12T09:59:56Z</time>
      </trkpt>
      <trkpt lat="43.77205" lon="7.05808">
        <ele>999.9</ele>
        <time>2019-12-12T09:59:58Z</time>
      </trkpt>
      <trkpt lat="43.77205" lon="7.05805">
        <ele>1000.4</ele>
        <time>2019-12-12T10:00:00Z</time>
      </trkpt>
      <trkpt lat="43.77207" lon="7.05802">
        <ele>1000.9</ele>
        <time>2019-12-12T10:00:02Z</time>
      </trkpt>
      <trkpt lat="43.77208" lon="7.05801">
        <ele>1001.8</ele>
        <time>2019-12-12T10:00:04Z</time>
      </trkpt>
      <trkpt lat="43.7721" lon="7.05798">
        <ele>1002.3</ele>
        <time>2019-12-12T10:00:06Z</time>
      </trkpt>
      <trkpt lat="43.77211" lon="7.05796">
        <ele>1003.3</ele>
        <time>2019-12-12T10:00:08Z</time>
      </trkpt>
      <trkpt lat="43.77211" lon="7.05794">
        <ele>1003.3</ele>
        <time>2019-12-12T10:00:10Z</time>
      </trkpt>
      <trkpt lat="43.77211" lon="7.05791">
        <ele>1003.8</ele>
        <time>2019-12-12T10:00:12Z</time>
      </trkpt>
      <trkpt lat="43.77212" lon="7.05789">
        <ele>1003.3</ele>
        <time>2019-12-12T10:00:14Z</time>
      </trkpt>
      <trkpt lat="43.77212" lon="7.05786">
        <ele>1003.8</ele>
        <time>2019-12-12T10:00:16Z</time>
      </trkpt>
      <trkpt lat="43.77212" lon="7.05783">
        <ele>1004.2</ele>
        <time>2019-12-12T10:00:18Z</time>
      </trkpt>
      <trkpt lat="43.77213" lon="7.05779">
        <ele>1004.2</ele>
        <time>2019-12-12T10:00:20Z</time>
      </trkpt>
      <trkpt lat="43.77214" lon="7.05776">
        <ele>1004.7</ele>
        <time>2019-12-12T10:00:22Z</time>
      </trkpt>
      <trkpt lat="43.77215" lon="7.05772">
        <ele>1005.2</ele>
        <time>2019-12-12T10:00:24Z</time>
      </trkpt>
      <trkpt lat="43.77218" lon="7.05767">
        <ele>1005.7</ele>
        <time>2019-12-12T10:00:26Z</time>
      </trkpt>
      <trkpt lat="43.7722" lon="7.05763">
        <ele>1006.2</ele>
        <time>2019-12-12T10:00:28Z</time>
      </trkpt>
      <trkpt lat="43.77221" lon="7.0576">
        <ele>1006.6</ele>
        <time>2019-12-12T10:00:30Z</time>
      </trkpt>
      <trkpt lat="43.77224" lon="7.05756">
        <ele>1007.1</ele>
        <time>2019-12-12T10:00:32Z</time>
      </trkpt>
      <trkpt lat="43.77225" lon="7.05753">
        <ele>1007.1</ele>
        <time>2019-12-12T10:00:34Z</time>
      </trkpt>
      <trkpt lat="43.77226" lon="7.05749">
        <ele>1007.6</ele>
        <time>2019-12-12T10:00:36Z</time>
      </trkpt>
      <trkpt lat="43.77228" lon="7.05747">
        <ele>1007.6</ele>
        <time>2019-12-12T10:00:38Z</time>
      </trkpt>
      <trkpt lat="43.77229" lon="7.05745">
        <ele>1008.1</ele>
        <time>2019-12-12T10:00:40Z</time>
      </trkpt>
      <trkpt lat="43.77231" lon="7.05741">
        <ele>1008.1</ele>
        <time>2019-12-12T10:00:42Z</time>
      </trkpt>
      <trkpt lat="43.77231" lon="7.05737">
        <ele>1008.6</ele>
        <time>2019-12-12T10:00:44Z</time>
      </trkpt>
      <trkpt lat="43.77232" lon="7.05733">
        <ele>1008.6</ele>
        <time>2019-12-12T10:00:46Z</time>
      </trkpt>
      <trkpt lat="43.77233" lon="7.05729">
        <ele>1008.6</ele>
        <time>2019-12-12T10:00:48Z</time>
      </trkpt>
      <trkpt lat="43.77235" lon="7.05724">
        <ele>1008.6</ele>
        <time>2019-12-12T10:00:50Z</time>
      </trkpt>
      <trkpt lat="43.77237" lon="7.0572">
        <ele>1009</ele>
        <time>2019-12-12T10:00:52Z</time>
      </trkpt>
      <trkpt lat="43.77237" lon="7.05717">
        <ele>1009</ele>
        <time>2019-12-12T10:00:54Z</time>
      </trkpt>
      <trkpt lat="43.77237" lon="7.05713">
        <ele>1009.5</ele>
        <time>2019-12-12T10:00:56Z</time>
      </trkpt>
      <trkpt lat="43.77238" lon="7.05707">
        <ele>1009.5</ele>
        <time>2019-12-12T10:00:58Z</time>
      </trkpt>
      <trkpt lat="43.77238" lon="7.05703">
        <ele>1010</ele>
        <time>2019-12-12T10:01:00Z</time>
      </trkpt>
      <trkpt lat="43.77238" lon="7.057">
        <ele>1010</ele>
        <time>2019-12-12T10:01:02Z</time>
      </trkpt>
      <trkpt lat="43.77239" lon="7.05696">
        <ele>1010.5</ele>
        <time>2019-12-12T10:01:04Z</time>
      </trkpt>
      <trkpt lat="43.7724" lon="7.05693">
        <ele>1010</ele>
        <time>2019-12-12T10:01:06Z</time>
      </trkpt>
      <trkpt lat="43.7724" lon="7.05689">
        <ele>1010</ele>
        <time>2019-12-12T10:01:08Z</time>
      </trkpt>
      <trkpt lat="43.77241" lon="7.05686">
        <ele>1010</ele>
        <time>2019-12-12T10:01:10Z</time>
      </trkpt>
      <trkpt lat="43.77243" lon="7.05683">
        <ele>1010</ele>
        <time>2019-12-12T10:01:12Z</time>
      </trkpt>
      <trkpt lat="43.77244" lon="7.05681">
        <ele>1010.5</ele>
        <time>2019-12-12T10:01:14Z</time>
      </trkpt>
      <trkpt lat="43.77246" lon="7.05678">
        <ele>1010.5</ele>
        <time>2019-12-12T10:01:16Z</time>
      </trkpt>
      <trkpt lat="43.77247" lon="7.05675">
        <ele>1010.5</ele>
        <time>2019-12-12T10:01:18Z</time>
      </trkpt>
      <trkpt lat="43.77248" lon="7.05672">
        <ele>1011</ele>
        <time>2019-12-12T10:01:20Z</time>
      </trkpt>
      <trkpt lat="43.77249" lon="7.05669">
        <ele>1010.5</ele>
        <time>2019-12-12T10:01:22Z</time>
      </trkpt>
      <trkpt lat="43.77252" lon="7.05667">
        <ele>1011</ele>
        <time>2019-12-12T10:01:24Z</time>
      </trkpt>
      <trkpt lat="43.77254" lon="7.05664">
        <ele>1011</ele>
        <time>2019-12-12T10:01:26Z</time>
      </trkpt>
      <trkpt lat="43.77255" lon="7.05659">
        <ele>1011.4</ele>
        <time>2019-12-12T10:01:28Z</time>
      </trkpt>
      <trkpt lat="43.77255" lon="7.05656">
        <ele>1011.4</ele>
        <time>2019-12-12T10:01:30Z</time>
      </trkpt>
      <trkpt lat="43.77256" lon="7.05652">
        <ele>1011.9</ele>
        <time>2019-12-12T10:01:32Z</time>
      </trkpt>
      <trkpt lat="43.77258" lon="7.05649">
        <ele>1011.9</ele>
        <time>2019-12-12T10:01:34Z</time>
      </trkpt>
      <trkpt lat="43.7726" lon="7.05645">
        <ele>1011.4</ele>
        <time>2019-12-12T10:01:36Z</time>
      </trkpt>
      <trkpt lat="43.77262" lon="7.05644">
        <ele>1011.4</ele>
        <time>2019-12-12T10:01:38Z</time>
      </trkpt>
      <trkpt lat="43.77263" lon="7.05642">
        <ele>1011.9</ele>
        <time>2019-12-12T10:01:40Z</time>
      </trkpt>
      <trkpt lat="43.77263" lon="7.05642">
        <ele>1011</ele>
        <time>2019-12-12T10:01:42Z</time>
      </trkpt>
      <trkpt lat="43.77263" lon="7.05642">
        <ele>1010.5</ele>
        <time>2019-12-12T10:01:44Z</time>
      </trkpt>
      <trkpt lat="43.77263" lon="7.05641">
        <ele>1010.5</ele>
        <time>2019-12-12T10:01:46Z</time>
      </trkpt>
      <trkpt lat="43.77263" lon="7.05641">
        <ele>1010</ele>
        <time>2019-12-12T10:01:48Z</time>
      </trkpt>
      <trkpt lat="43.77263" lon="7.0564">
        <ele>1009</ele>
        <time>2019-12-12T10:01:50Z</time>
      </trkpt>
      <trkpt lat="43.77263" lon="7.0564">
        <ele>1009</ele>
        <time>2019-12-12T10:01:52Z</time>
      </trkpt>
      <trkpt lat="43.77263" lon="7.0564">
        <ele>1009</ele>
        <time>2019-12-12T10:01:54Z</time>
      </trkpt>
      <trkpt lat="43.77263" lon="7.0564">
        <ele>1009</ele>
        <time>2019-12-12T10:01:56Z</time>
      </trkpt>
      <trkpt lat="43.77263" lon="7.0564">
        <ele>1009</ele>
        <time>2019-12-12T10:01:58Z</time>
      </trkpt>
      <trkpt lat="43.77263" lon="7.05639">
        <ele>1009</ele>
        <time>2019-12-12T10:02:00Z</time>
      </trkpt>
      <trkpt lat="43.77264" lon="7.05639">
        <ele>1009</ele>
        <time>2019-12-12T10:02:02Z</time>
      </trkpt>
      <trkpt lat="43.77264" lon="7.05639">
        <ele>1009</ele>
        <time>2019-12-12T10:02:04Z</time>
      </trkpt>
      <trkpt lat="43.77264" lon="7.05639">
        <ele>1009</ele>
        <time>2019-12-12T10:02:06Z</time>
      </trkpt>
      <trkpt lat="43.77265" lon="7.05638">
        <ele>1009</ele>
        <time>2019-12-12T10:02:08Z</time>
      </trkpt>
      <trkpt lat="43.77266" lon="7.05635">
        <ele>1008.6</ele>
        <time>2019-12-12T10:02:10Z</time>
      </trkpt>
      <trkpt lat="43.77267" lon="7.05633">
        <ele>1008.1</ele>
        <time>2019-12-12T10:02:12Z</time>
      </trkpt>
      <trkpt lat="43.77269" lon="7.05629">
        <ele>1007.6</ele>
        <time>2019-12-12T10:02:14Z</time>
      </trkpt>
      <trkpt lat="43.7727" lon="7.05626">
        <ele>1007.1</ele>
        <time>2019-12-12T10:02:16Z</time>
      </trkpt>
      <trkpt lat="43.77271" lon="7.05622">
        <ele>1006.6</ele>
        <time>2019-12-12T10:02:18Z</time>
      </trkpt>
      <trkpt lat="43.77272" lon="7.05619">
        <ele>1006.6</ele>
        <time>2019-12-12T10:02:20Z</time>
      </trkpt>
      <trkpt lat="43.77273" lon="7.05616">
        <ele>1006.6</ele>
        <time>2019-12-12T10:02:22Z</time>
      </trkpt>
      <trkpt lat="43.77274" lon="7.05614">
        <ele>1006.2</ele>
        <time>2019-12-12T10:02:24Z</time>
      </trkpt>
      <trkpt lat="43.77275" lon="7.0561">
        <ele>1006.2</ele>
        <time>2019-12-12T10:02:26Z</time>
      </trkpt>
      <trkpt lat="43.77276" lon="7.05607">
        <ele>1005.7</ele>
        <time>2019-12-12T10:02:28Z</time>
      </trkpt>
      <trkpt lat="43.77277" lon="7.05603">
        <ele>1005.7</ele>
        <time>2019-12-12T10:02:30Z</time>
      </trkpt>
      <trkpt lat="43.77278" lon="7.05601">
        <ele>1005.2</ele>
        <time>2019-12-12T10:02:32Z</time>
      </trkpt>
      <trkpt lat="43.7728" lon="7.05598">
        <ele>1004.7</ele>
        <time>2019-12-12T10:02:34Z</time>
      </trkpt>
      <trkpt lat="43.77282" lon="7.05595">
        <ele>1004.2</ele>
        <time>2019-12-12T10:02:36Z</time>
      </trkpt>
      <trkpt lat="43.77283" lon="7.05591">
        <ele>1003.8</ele>
        <time>2019-12-12T10:02:38Z</time>
      </trkpt>
      <trkpt lat="43.77284" lon="7.05588">
        <ele>1003.3</ele>
        <time>2019-12-12T10:02:40Z</time>
      </trkpt>
      <trkpt lat="43.77286" lon="7.05584">
        <ele>1002.8</ele>
        <time>2019-12-12T10:02:42Z</time>
      </trkpt>
      <trkpt lat="43.77288" lon="7.05581">
        <ele>1002.8</ele>
        <time>2019-12-12T10:02:44Z</time>
      </trkpt>
      <trkpt lat="43.77289" lon="7.0558">
        <ele>1002.3</ele>
        <time>2019-12-12T10:02:46Z</time>
      </trkpt>
      <trkpt lat="43.77291" lon="7.05578">
        <ele>1001.8</ele>
        <time>2019-12-12T10:02:48Z</time>
      </trkpt>
      <trkpt lat="43.77293" lon="7.05576">
        <ele>1001.8</ele>
        <time>2019-12-12T10:02:50Z</time>
      </trkpt>
      <trkpt lat="43.77293" lon="7.05574">
        <ele>1001.8</ele>
        <time>2019-12-12T10:02:52Z</time>
      </trkpt>
      <trkpt lat="43.77294" lon="7.05574">
        <ele>1001.8</ele>
        <time>2019-12-12T10:02:54Z</time>
      </trkpt>
      <trkpt lat="43.77294" lon="7.05573">
        <ele>1001.8</ele>
        <time>2019-12-12T10:02:56Z</time>
      </trkpt>
      <trkpt lat="43.77294" lon="7.05573">
        <ele>1001.8</ele>
        <time>2019-12-12T10:02:58Z</time>
      </trkpt>
      <trkpt lat="43.77294" lon="7.05573">
        <ele>1001.8</ele>
        <time>2019-12-12T10:03:00Z</time>
      </trkpt>
      <trkpt lat="43.77294" lon="7.05573">
        <ele>1001.8</ele>
        <time>2019-12-12T10:03:02Z</time>
      </trkpt>
      <trkpt lat="43.77294" lon="7.05573">
        <ele>1001.8</ele>
        <time>2019-12-12T10:03:04Z</time>
      </trkpt>
      <trkpt lat="43.77294" lon="7.05572">
        <ele>1001.8</ele>
        <time>2019-12-12T10:03:06Z</time>
      </trkpt>
      <trkpt lat="43.77294" lon="7.05572">
        <ele>1001.8</ele>
        <time>2019-12-12T10:03:08Z</time>
      </trkpt>
      <trkpt lat="43.77294" lon="7.05572">
        <ele>1001.8</ele>
        <time>2019-12-12T10:03:10Z</time>
      </trkpt>
      <trkpt lat="43.77293" lon="7.05571">
        <ele>1001.8</ele>
        <time>2019-12-12T10:03:12Z</time>
      </trkpt>
      <trkpt lat="43.77293" lon="7.05571">
        <ele>1001.8</ele>
        <time>2019-12-12T10:03:14Z</time>
      </trkpt>
      <trkpt lat="43.77293" lon="7.05571">
        <ele>1001.8</ele>
        <time>2019-12-12T10:03:16Z</time>
      </trkpt>
      <trkpt lat="43.77293" lon="7.05571">
        <ele>1001.8</ele>
        <time>2019-12-12T10:03:18Z</time>
      </trkpt>
      <trkpt lat="43.77293" lon="7.0557">
        <ele>1001.8</ele>
        <time>2019-12-12T10:03:20Z</time>
      </trkpt>
      <trkpt lat="43.77293" lon="7.0557">
        <ele>1001.8</ele>
        <time>2019-12-12T10:03:22Z</time>
      </trkpt>
      <trkpt lat="43.77293" lon="7.0557">
        <ele>1001.8</ele>
        <time>2019-12-12T10:03:24Z</time>
      </trkpt>
      <trkpt lat="43.77293" lon="7.0557">
        <ele>1001.4</ele>
        <time>2019-12-12T10:03:26Z</time>
      </trkpt>
      <trkpt lat="43.77293" lon="7.0557">
        <ele>1001.4</ele>
        <time>2019-12-12T10:03:28Z</time>
      </trkpt>
      <trkpt lat="43.77293" lon="7.0557">
        <ele>1001.4</ele>
        <time>2019-12-12T10:03:30Z</time>
      </trkpt>
      <trkpt lat="43.77293" lon="7.0557">
        <ele>1001.4</ele>
        <time>2019-12-12T10:03:32Z</time>
      </trkpt>
      <trkpt lat="43.77294" lon="7.0557">
        <ele>1001.4</ele>
        <time>2019-12-12T10:03:34Z</time>
      </trkpt>
      <trkpt lat="43.77293" lon="7.0557">
        <ele>1001.4</ele>
        <time>2019-12-12T10:03:36Z</time>
      </trkpt>
      <trkpt lat="43.77294" lon="7.05569">
        <ele>1001.4</ele>
        <time>2019-12-12T10:03:38Z</time>
      </trkpt>
      <trkpt lat="43.77293" lon="7.05569">
        <ele>1001.8</ele>
        <time>2019-12-12T10:03:40Z</time>
      </trkpt>
      <trkpt lat="43.77293" lon="7.05569">
        <ele>1001.8</ele>
        <time>2019-12-12T10:03:42Z</time>
      </trkpt>
      <trkpt lat="43.77294" lon="7.05568">
        <ele>1001.4</ele>
        <time>2019-12-12T10:03:44Z</time>
      </trkpt>
      <trkpt lat="43.77294" lon="7.05568">
        <ele>1001.4</ele>
        <time>2019-12-12T10:03:46Z</time>
      </trkpt>
      <trkpt lat="43.77294" lon="7.05569">
        <ele>1001.4</ele>
        <time>2019-12-12T10:03:48Z</time>
      </trkpt>
      <trkpt lat="43.77294" lon="7.05569">
        <ele>1001.4</ele>
        <time>2019-12-12T10:03:50Z</time>
      </trkpt>
      <trkpt lat="43.77294" lon="7.0557">
        <ele>1001.4</ele>
        <time>2019-12-12T10:03:52Z</time>
      </trkpt>
      <trkpt lat="43.77294" lon="7.0557">
        <ele>1001.4</ele>
        <time>2019-12-12T10:03:54Z</time>
      </trkpt>
      <trkpt lat="43.77294" lon="7.0557">
        <ele>1001.4</ele>
        <time>2019-12-12T10:03:56Z</time>
      </trkpt>
      <trkpt lat="43.77294" lon="7.0557">
        <ele>1001.4</ele>
        <time>2019-12-12T10:03:58Z</time>
      </trkpt>
      <trkpt lat="43.77294" lon="7.0557">
        <ele>1001.4</ele>
        <time>2019-12-12T10:04:00Z</time>
      </trkpt>
      <trkpt lat="43.77294" lon="7.0557">
        <ele>1001.4</ele>
        <time>2019-12-12T10:04:02Z</time>
      </trkpt>
      <trkpt lat="43.77294" lon="7.0557">
        <ele>1001.4</ele>
        <time>2019-12-12T10:04:04Z</time>
      </trkpt>
      <trkpt lat="43.77294" lon="7.0557">
        <ele>1001.4</ele>
        <time>2019-12-12T10:04:06Z</time>
      </trkpt>
      <trkpt lat="43.77294" lon="7.0557">
        <ele>1000.9</ele>
        <time>2019-12-12T10:04:08Z</time>
      </trkpt>
      <trkpt lat="43.77294" lon="7.05568">
        <ele>1001.4</ele>
        <time>2019-12-12T10:04:10Z</time>
      </trkpt>
      <trkpt lat="43.77295" lon="7.05565">
        <ele>1001.4</ele>
        <time>2019-12-12T10:04:12Z</time>
      </trkpt>
      <trkpt lat="43.77296" lon="7.05561">
        <ele>1001.4</ele>
        <time>2019-12-12T10:04:14Z</time>
      </trkpt>
      <trkpt lat="43.77297" lon="7.05557">
        <ele>1000.9</ele>
        <time>2019-12-12T10:04:16Z</time>
      </trkpt>
      <trkpt lat="43.77297" lon="7.05555">
        <ele>1000.9</ele>
        <time>2019-12-12T10:04:18Z</time>
      </trkpt>
      <trkpt lat="43.77298" lon="7.05551">
        <ele>1000.4</ele>
        <time>2019-12-12T10:04:20Z</time>
      </trkpt>
      <trkpt lat="43.77299" lon="7.05548">
        <ele>1000.4</ele>
        <time>2019-12-12T10:04:22Z</time>
      </trkpt>
      <trkpt lat="43.773" lon="7.05545">
        <ele>1000.4</ele>
        <time>2019-12-12T10:04:24Z</time>
      </trkpt>
      <trkpt lat="43.77302" lon="7.05542">
        <ele>1000.4</ele>
        <time>2019-12-12T10:04:26Z</time>
      </trkpt>
      <trkpt lat="43.77303" lon="7.05538">
        <ele>999.9</ele>
        <time>2019-12-12T10:04:28Z</time>
      </trkpt>
      <trkpt lat="43.77303" lon="7.05534">
        <ele>999.9</ele>
        <time>2019-12-12T10:04:30Z</time>
      </trkpt>
      <trkpt lat="43.77304" lon="7.05531">
        <ele>999.4</ele>
        <time>2019-12-12T10:04:32Z</time>
      </trkpt>
      <trkpt lat="43.77304" lon="7.05527">
        <ele>998.9</ele>
        <time>2019-12-12T10:04:34Z</time>
      </trkpt>
      <trkpt lat="43.77305" lon="7.05524">
        <ele>998.9</ele>
        <time>2019-12-12T10:04:36Z</time>
      </trkpt>
      <trkpt lat="43.77306" lon="7.0552">
        <ele>998.9</ele>
        <time>2019-12-12T10:04:38Z</time>
      </trkpt>
      <trkpt lat="43.77307" lon="7.05516">
        <ele>998.9</ele>
        <time>2019-12-12T10:04:40Z</time>
      </trkpt>
      <trkpt lat="43.77309" lon="7.05513">
        <ele>998.9</ele>
        <time>2019-12-12T10:04:42Z</time>
      </trkpt>
      <trkpt lat="43.77311" lon="7.05509">
        <ele>998.9</ele>
        <time>2019-12-12T10:04:44Z</time>
      </trkpt>
      <trkpt lat="43.77313" lon="7.05503">
        <ele>998.9</ele>
        <time>2019-12-12T10:04:46Z</time>
      </trkpt>
      <trkpt lat="43.77314" lon="7.05499">
        <ele>998.9</ele>
        <time>2019-12-12T10:04:48Z</time>
      </trkpt>
      <trkpt lat="43.77316" lon="7.05496">
        <ele>999.4</ele>
        <time>2019-12-12T10:04:50Z</time>
      </trkpt>
      <trkpt lat="43.77317" lon="7.05492">
        <ele>999.4</ele>
        <time>2019-12-12T10:04:52Z</time>
      </trkpt>
      <trkpt lat="43.77318" lon="7.05489">
        <ele>999.9</ele>
        <time>2019-12-12T10:04:54Z</time>
      </trkpt>
      <trkpt lat="43.77319" lon="7.05486">
        <ele>999.9</ele>
        <time>2019-12-12T10:04:56Z</time>
      </trkpt>
      <trkpt lat="43.7732" lon="7.05483">
        <ele>1000.4</ele>
        <time>2019-12-12T10:04:58Z</time>
      </trkpt>
      <trkpt lat="43.77322" lon="7.0548">
        <ele>1000.4</ele>
        <time>2019-12-12T10:05:00Z</time>
      </trkpt>
      <trkpt lat="43.77324" lon="7.05477">
        <ele>1000.4</ele>
        <time>2019-12-12T10:05:02Z</time>
      </trkpt>
      <trkpt lat="43.77326" lon="7.05474">
        <ele>1000.4</ele>
        <time>2019-12-12T10:05:04Z</time>
      </trkpt>
      <trkpt lat="43.77327" lon="7.05472">
        <ele>1000.4</ele>
        <time>2019-12-12T10:05:06Z</time>
      </trkpt>
      <trkpt lat="43.77328" lon="7.0547">
        <ele>1000.4</ele>
        <time>2019-12-12T10:05:08Z</time>
      </trkpt>
      <trkpt lat="43.77329" lon="7.05468">
        <ele>1000.9</ele>
        <time>2019-12-12T10:05:10Z</time>
      </trkpt>
      <trkpt lat="43.77329" lon="7.05464">
        <ele>1000.9</ele>
        <time>2019-12-12T10:05:12Z</time>
      </trkpt>
      <trkpt lat="43.77329" lon="7.0546">
        <ele>1001.4</ele>
        <time>2019-12-12T10:05:14Z</time>
      </trkpt>
      <trkpt lat="43.77329" lon="7.05456">
        <ele>1001.4</ele>
        <time>2019-12-12T10:05:16Z</time>
      </trkpt>
      <trkpt lat="43.77331" lon="7.0545">
        <ele>1002.3</ele>
        <time>2019-12-12T10:05:18Z</time>
      </trkpt>
      <trkpt lat="43.77332" lon="7.05446">
        <ele>1002.8</ele>
        <time>2019-12-12T10:05:20Z</time>
      </trkpt>
      <trkpt lat="43.77331" lon="7.05441">
        <ele>1003.8</ele>
        <time>2019-12-12T10:05:22Z</time>
      </trkpt>
      <trkpt lat="43.77329" lon="7.05436">
        <ele>1004.2</ele>
        <time>2019-12-12T10:05:24Z</time>
      </trkpt>
      <trkpt lat="43.77327" lon="7.05433">
        <ele>1004.2</ele>
        <time>2019-12-12T10:05:26Z</time>
      </trkpt>
      <trkpt lat="43.77323" lon="7.0543">
        <ele>1005.2</ele>
        <time>2019-12-12T10:05:28Z</time>
      </trkpt>
      <trkpt lat="43.77322" lon="7.05427">
        <ele>1005.7</ele>
        <time>2019-12-12T10:05:30Z</time>
      </trkpt>
      <trkpt lat="43.77321" lon="7.05423">
        <ele>1006.2</ele>
        <time>2019-12-12T10:05:32Z</time>
      </trkpt>
      <trkpt lat="43.77321" lon="7.0542">
        <ele>1006.2</ele>
        <time>2019-12-12T10:05:34Z</time>
      </trkpt>
      <trkpt lat="43.77321" lon="7.05415">
        <ele>1006.2</ele>
        <time>2019-12-12T10:05:36Z</time>
      </trkpt>
      <trkpt lat="43.77321" lon="7.0541">
        <ele>1006.2</ele>
        <time>2019-12-12T10:05:38Z</time>
      </trkpt>
      <trkpt lat="43.77321" lon="7.05406">
        <ele>1006.2</ele>
        <time>2019-12-12T10:05:40Z</time>
      </trkpt>
      <trkpt lat="43.77322" lon="7.05402">
        <ele>1006.6</ele>
        <time>2019-12-12T10:05:42Z</time>
      </trkpt>
      <trkpt lat="43.77322" lon="7.05398">
        <ele>1006.6</ele>
        <time>2019-12-12T10:05:44Z</time>
      </trkpt>
      <trkpt lat="43.77322" lon="7.05394">
        <ele>1007.6</ele>
        <time>2019-12-12T10:05:46Z</time>
      </trkpt>
      <trkpt lat="43.77323" lon="7.0539">
        <ele>1008.1</ele>
        <time>2019-12-12T10:05:48Z</time>
      </trkpt>
      <trkpt lat="43.77324" lon="7.05387">
        <ele>1008.6</ele>
        <time>2019-12-12T10:05:50Z</time>
      </trkpt>
      <trkpt lat="43.77324" lon="7.05382">
        <ele>1009</ele>
        <time>2019-12-12T10:05:52Z</time>
      </trkpt>
      <trkpt lat="43.77324" lon="7.05378">
        <ele>1009.5</ele>
        <time>2019-12-12T10:05:54Z</time>
      </trkpt>
      <trkpt lat="43.77325" lon="7.05374">
        <ele>1010</ele>
        <time>2019-12-12T10:05:56Z</time>
      </trkpt>
      <trkpt lat="43.77325" lon="7.0537">
        <ele>1010.5</ele>
        <time>2019-12-12T10:05:58Z</time>
      </trkpt>
      <trkpt lat="43.77327" lon="7.05366">
        <ele>1011</ele>
        <time>2019-12-12T10:06:00Z</time>
      </trkpt>
      <trkpt lat="43.77328" lon="7.05363">
        <ele>1011.9</ele>
        <time>2019-12-12T10:06:02Z</time>
      </trkpt>
      <trkpt lat="43.77329" lon="7.0536">
        <ele>1012.4</ele>
        <time>2019-12-12T10:06:04Z</time>
      </trkpt>
      <trkpt lat="43.7733" lon="7.05357">
        <ele>1013.4</ele>
        <time>2019-12-12T10:06:06Z</time>
      </trkpt>
      <trkpt lat="43.7733" lon="7.05353">
        <ele>1013.8</ele>
        <time>2019-12-12T10:06:08Z</time>
      </trkpt>
      <trkpt lat="43.77331" lon="7.05349">
        <ele>1014.8</ele>
        <time>2019-12-12T10:06:10Z</time>
      </trkpt>
      <trkpt lat="43.77331" lon="7.05345">
        <ele>1015.3</ele>
        <time>2019-12-12T10:06:12Z</time>
      </trkpt>
      <trkpt lat="43.77331" lon="7.05341">
        <ele>1016.3</ele>
        <time>2019-12-12T10:06:14Z</time>
      </trkpt>
      <trkpt lat="43.77332" lon="7.05337">
        <ele>1017.2</ele>
        <time>2019-12-12T10:06:16Z</time>
      </trkpt>
      <trkpt lat="43.77333" lon="7.05332">
        <ele>1018.2</ele>
        <time>2019-12-12T10:06:18Z</time>
      </trkpt>
      <trkpt lat="43.77333" lon="7.05327">
        <ele>1019.1</ele>
        <time>2019-12-12T10:06:20Z</time>
      </trkpt>
      <trkpt lat="43.77332" lon="7.05322">
        <ele>1019.6</ele>
        <time>2019-12-12T10:06:22Z</time>
      </trkpt>
      <trkpt lat="43.77333" lon="7.05319">
        <ele>1020.6</ele>
        <time>2019-12-12T10:06:24Z</time>
      </trkpt>
      <trkpt lat="43.77333" lon="7.05314">
        <ele>1021.5</ele>
        <time>2019-12-12T10:06:26Z</time>
      </trkpt>
      <trkpt lat="43.77334" lon="7.0531">
        <ele>1022</ele>
        <time>2019-12-12T10:06:28Z</time>
      </trkpt>
      <trkpt lat="43.77334" lon="7.05307">
        <ele>1023</ele>
        <time>2019-12-12T10:06:30Z</time>
      </trkpt>
      <trkpt lat="43.77335" lon="7.05304">
        <ele>1023.5</ele>
        <time>2019-12-12T10:06:32Z</time>
      </trkpt>
      <trkpt lat="43.77335" lon="7.053">
        <ele>1024.4</ele>
        <time>2019-12-12T10:06:34Z</time>
      </trkpt>
      <trkpt lat="43.77336" lon="7.05296">
        <ele>1024.9</ele>
        <time>2019-12-12T10:06:36Z</time>
      </trkpt>
      <trkpt lat="43.77336" lon="7.05293">
        <ele>1025.9</ele>
        <time>2019-12-12T10:06:38Z</time>
      </trkpt>
      <trkpt lat="43.77336" lon="7.05289">
        <ele>1026.3</ele>
        <time>2019-12-12T10:06:40Z</time>
      </trkpt>
      <trkpt lat="43.77336" lon="7.05285">
        <ele>1026.8</ele>
        <time>2019-12-12T10:06:42Z</time>
      </trkpt>
      <trkpt lat="43.77336" lon="7.0528">
        <ele>1026.8</ele>
        <time>2019-12-12T10:06:44Z</time>
      </trkpt>
      <trkpt lat="43.77337" lon="7.05276">
        <ele>1027.8</ele>
        <time>2019-12-12T10:06:46Z</time>
      </trkpt>
      <trkpt lat="43.77337" lon="7.05273">
        <ele>1028.3</ele>
        <time>2019-12-12T10:06:48Z</time>
      </trkpt>
      <trkpt lat="43.77338" lon="7.05269">
        <ele>1028.7</ele>
        <time>2019-12-12T10:06:50Z</time>
      </trkpt>
      <trkpt lat="43.77339" lon="7.05265">
        <ele>1029.2</ele>
        <time>2019-12-12T10:06:52Z</time>
      </trkpt>
      <trkpt lat="43.77339" lon="7.0526">
        <ele>1030.2</ele>
        <time>2019-12-12T10:06:54Z</time>
      </trkpt>
      <trkpt lat="43.7734" lon="7.05256">
        <ele>1030.7</ele>
        <time>2019-12-12T10:06:56Z</time>
      </trkpt>
      <trkpt lat="43.7734" lon="7.05252">
        <ele>1031.2</ele>
        <time>2019-12-12T10:06:58Z</time>
      </trkpt>
      <trkpt lat="43.77341" lon="7.05249">
        <ele>1031.2</ele>
        <time>2019-12-12T10:07:00Z</time>
      </trkpt>
      <trkpt lat="43.77342" lon="7.05245">
        <ele>1032.1</ele>
        <time>2019-12-12T10:07:02Z</time>
      </trkpt>
      <trkpt lat="43.77343" lon="7.05242">
        <ele>1032.6</ele>
        <time>2019-12-12T10:07:04Z</time>
      </trkpt>
      <trkpt lat="43.77343" lon="7.05238">
        <ele>1033.1</ele>
        <time>2019-12-12T10:07:06Z</time>
      </trkpt>
      <trkpt lat="43.77344" lon="7.05234">
        <ele>1033.1</ele>
        <time>2019-12-12T10:07:08Z</time>
      </trkpt>
      <trkpt lat="43.77345" lon="7.05231">
        <ele>1033.6</ele>
        <time>2019-12-12T10:07:10Z</time>
      </trkpt>
      <trkpt lat="43.77345" lon="7.05227">
        <ele>1034</ele>
        <time>2019-12-12T10:07:12Z</time>
      </trkpt>
      <trkpt lat="43.77346" lon="7.05224">
        <ele>1034.5</ele>
        <time>2019-12-12T10:07:14Z</time>
      </trkpt>
      <trkpt lat="43.77347" lon="7.0522">
        <ele>1035</ele>
        <time>2019-12-12T10:07:16Z</time>
      </trkpt>
      <trkpt lat="43.77348" lon="7.05217">
        <ele>1036</ele>
        <time>2019-12-12T10:07:18Z</time>
      </trkpt>
      <trkpt lat="43.77348" lon="7.05214">
        <ele>1036</ele>
        <time>2019-12-12T10:07:20Z</time>
      </trkpt>
      <trkpt lat="43.7735" lon="7.05212">
        <ele>1036</ele>
        <time>2019-12-12T10:07:22Z</time>
      </trkpt>
      <trkpt lat="43.77351" lon="7.05208">
        <ele>1036.9</ele>
        <time>2019-12-12T10:07:24Z</time>
      </trkpt>
      <trkpt lat="43.77352" lon="7.05205">
        <ele>1037.4</ele>
        <time>2019-12-12T10:07:26Z</time>
      </trkpt>
      <trkpt lat="43.77353" lon="7.05201">
        <ele>1038.4</ele>
        <time>2019-12-12T10:07:28Z</time>
      </trkpt>
      <trkpt lat="43.77355" lon="7.05198">
        <ele>1038.8</ele>
        <time>2019-12-12T10:07:30Z</time>
      </trkpt>
      <trkpt lat="43.77357" lon="7.05195">
        <ele>1039.3</ele>
        <time>2019-12-12T10:07:32Z</time>
      </trkpt>
      <trkpt lat="43.7736" lon="7.05192">
        <ele>1039.8</ele>
        <time>2019-12-12T10:07:34Z</time>
      </trkpt>
      <trkpt lat="43.77361" lon="7.05188">
        <ele>1040.3</ele>
        <time>2019-12-12T10:07:36Z</time>
      </trkpt>
      <trkpt lat="43.77363" lon="7.05186">
        <ele>1040.3</ele>
        <time>2019-12-12T10:07:38Z</time>
      </trkpt>
      <trkpt lat="43.77366" lon="7.05183">
        <ele>1040.3</ele>
        <time>2019-12-12T10:07:40Z</time>
      </trkpt>
      <trkpt lat="43.77367" lon="7.05181">
        <ele>1040.8</ele>
        <time>2019-12-12T10:07:42Z</time>
      </trkpt>
      <trkpt lat="43.7737" lon="7.05179">
        <ele>1040.8</ele>
        <time>2019-12-12T10:07:44Z</time>
      </trkpt>
      <trkpt lat="43.77371" lon="7.05176">
        <ele>1041.2</ele>
        <time>2019-12-12T10:07:46Z</time>
      </trkpt>
      <trkpt lat="43.77375" lon="7.05176">
        <ele>1041.7</ele>
        <time>2019-12-12T10:07:48Z</time>
      </trkpt>
      <trkpt lat="43.77379" lon="7.05174">
        <ele>1041.2</ele>
        <time>2019-12-12T10:07:50Z</time>
      </trkpt>
      <trkpt lat="43.77383" lon="7.05172">
        <ele>1040.8</ele>
        <time>2019-12-12T10:07:52Z</time>
      </trkpt>
      <trkpt lat="43.77384" lon="7.0517">
        <ele>1040.3</ele>
        <time>2019-12-12T10:07:54Z</time>
      </trkpt>
      <trkpt lat="43.77387" lon="7.0517">
        <ele>1040.3</ele>
        <time>2019-12-12T10:07:56Z</time>
      </trkpt>
      <trkpt lat="43.77389" lon="7.05169">
        <ele>1040.3</ele>
        <time>2019-12-12T10:07:58Z</time>
      </trkpt>
      <trkpt lat="43.77391" lon="7.05166">
        <ele>1040.3</ele>
        <time>2019-12-12T10:08:00Z</time>
      </trkpt>
      <trkpt lat="43.77392" lon="7.05164">
        <ele>1040.3</ele>
        <time>2019-12-12T10:08:02Z</time>
      </trkpt>
      <trkpt lat="43.77394" lon="7.05161">
        <ele>1039.8</ele>
        <time>2019-12-12T10:08:04Z</time>
      </trkpt>
      <trkpt lat="43.77396" lon="7.05159">
        <ele>1039.3</ele>
        <time>2019-12-12T10:08:06Z</time>
      </trkpt>
      <trkpt lat="43.77398" lon="7.05156">
        <ele>1038.8</ele>
        <time>2019-12-12T10:08:08Z</time>
      </trkpt>
      <trkpt lat="43.774" lon="7.05153">
        <ele>1038.8</ele>
        <time>2019-12-12T10:08:10Z</time>
      </trkpt>
      <trkpt lat="43.77402" lon="7.05151">
        <ele>1038.8</ele>
        <time>2019-12-12T10:08:12Z</time>
      </trkpt>
      <trkpt lat="43.77404" lon="7.05147">
        <ele>1038.8</ele>
        <time>2019-12-12T10:08:14Z</time>
      </trkpt>
      <trkpt lat="43.77404" lon="7.05144">
        <ele>1039.3</ele>
        <time>2019-12-12T10:08:16Z</time>
      </trkpt>
      <trkpt lat="43.77405" lon="7.05141">
        <ele>1039.8</ele>
        <time>2019-12-12T10:08:18Z</time>
      </trkpt>
      <trkpt lat="43.77405" lon="7.05136">
        <ele>1039.8</ele>
        <time>2019-12-12T10:08:20Z</time>
      </trkpt>
      <trkpt lat="43.77405" lon="7.05131">
        <ele>1040.3</ele>
        <time>2019-12-12T10:08:22Z</time>
      </trkpt>
      <trkpt lat="43.77404" lon="7.05125">
        <ele>1040.3</ele>
        <time>2019-12-12T10:08:24Z</time>
      </trkpt>
      <trkpt lat="43.77404" lon="7.05121">
        <ele>1040.8</ele>
        <time>2019-12-12T10:08:26Z</time>
      </trkpt>
      <trkpt lat="43.77404" lon="7.05117">
        <ele>1041.2</ele>
        <time>2019-12-12T10:08:28Z</time>
      </trkpt>
      <trkpt lat="43.77404" lon="7.05114">
        <ele>1041.2</ele>
        <time>2019-12-12T10:08:30Z</time>
      </trkpt>
      <trkpt lat="43.77403" lon="7.0511">
        <ele>1041.7</ele>
        <time>2019-12-12T10:08:32Z</time>
      </trkpt>
      <trkpt lat="43.77403" lon="7.05106">
        <ele>1042.2</ele>
        <time>2019-12-12T10:08:34Z</time>
      </trkpt>
      <trkpt lat="43.77402" lon="7.05103">
        <ele>1042.7</ele>
        <time>2019-12-12T10:08:36Z</time>
      </trkpt>
      <trkpt lat="43.77401" lon="7.051">
        <ele>1043.2</ele>
        <time>2019-12-12T10:08:38Z</time>
      </trkpt>
      <trkpt lat="43.77399" lon="7.05097">
        <ele>1043.2</ele>
        <time>2019-12-12T10:08:40Z</time>
      </trkpt>
      <trkpt lat="43.77399" lon="7.05094">
        <ele>1043.6</ele>
        <time>2019-12-12T10:08:42Z</time>
      </trkpt>
      <trkpt lat="43.77399" lon="7.05091">
        <ele>1043.6</ele>
        <time>2019-12-12T10:08:44Z</time>
      </trkpt>
      <trkpt lat="43.77398" lon="7.05087">
        <ele>1044.1</ele>
        <time>2019-12-12T10:08:46Z</time>
      </trkpt>
      <trkpt lat="43.77397" lon="7.05084">
        <ele>1044.1</ele>
        <time>2019-12-12T10:08:48Z</time>
      </trkpt>
      <trkpt lat="43.77397" lon="7.0508">
        <ele>1044.1</ele>
        <time>2019-12-12T10:08:50Z</time>
      </trkpt>
      <trkpt lat="43.77396" lon="7.05075">
        <ele>1044.6</ele>
        <time>2019-12-12T10:08:52Z</time>
      </trkpt>
      <trkpt lat="43.77397" lon="7.05072">
        <ele>1044.6</ele>
        <time>2019-12-12T10:08:54Z</time>
      </trkpt>
      <trkpt lat="43.77396" lon="7.05068">
        <ele>1044.6</ele>
        <time>2019-12-12T10:08:56Z</time>
      </trkpt>
      <trkpt lat="43.77396" lon="7.05064">
        <ele>1045.1</ele>
        <time>2019-12-12T10:08:58Z</time>
      </trkpt>
      <trkpt lat="43.77395" lon="7.05061">
        <ele>1045.6</ele>
        <time>2019-12-12T10:09:00Z</time>
      </trkpt>
      <trkpt lat="43.77395" lon="7.05058">
        <ele>1045.6</ele>
        <time>2019-12-12T10:09:02Z</time>
      </trkpt>
      <trkpt lat="43.77395" lon="7.05055">
        <ele>1046.1</ele>
        <time>2019-12-12T10:09:04Z</time>
      </trkpt>
      <trkpt lat="43.77395" lon="7.05051">
        <ele>1046.1</ele>
        <time>2019-12-12T10:09:06Z</time>
      </trkpt>
      <trkpt lat="43.77394" lon="7.05047">
        <ele>1046.5</ele>
        <time>2019-12-12T10:09:08Z</time>
      </trkpt>
      <trkpt lat="43.77394" lon="7.05043">
        <ele>1046.5</ele>
        <time>2019-12-12T10:09:10Z</time>
      </trkpt>
      <trkpt lat="43.77393" lon="7.05039">
        <ele>1046.5</ele>
        <time>2019-12-12T10:09:12Z</time>
      </trkpt>
      <trkpt lat="43.7739" lon="7.05035">
        <ele>1046.1</ele>
        <time>2019-12-12T10:09:14Z</time>
      </trkpt>
      <trkpt lat="43.77389" lon="7.05032">
        <ele>1046.1</ele>
        <time>2019-12-12T10:09:16Z</time>
      </trkpt>
      <trkpt lat="43.77387" lon="7.05028">
        <ele>1046.1</ele>
        <time>2019-12-12T10:09:18Z</time>
      </trkpt>
      <trkpt lat="43.77387" lon="7.05024">
        <ele>1046.1</ele>
        <time>2019-12-12T10:09:20Z</time>
      </trkpt>
      <trkpt lat="43.77386" lon="7.05021">
        <ele>1046.1</ele>
        <time>2019-12-12T10:09:22Z</time>
      </trkpt>
      <trkpt lat="43.77385" lon="7.05017">
        <ele>1045.6</ele>
        <time>2019-12-12T10:09:24Z</time>
      </trkpt>
      <trkpt lat="43.77384" lon="7.05014">
        <ele>1045.6</ele>
        <time>2019-12-12T10:09:26Z</time>
      </trkpt>
      <trkpt lat="43.77382" lon="7.0501">
        <ele>1045.6</ele>
        <time>2019-12-12T10:09:28Z</time>
      </trkpt>
      <trkpt lat="43.77381" lon="7.05007">
        <ele>1045.6</ele>
        <time>2019-12-12T10:09:30Z</time>
      </trkpt>
      <trkpt lat="43.77379" lon="7.05004">
        <ele>1045.6</ele>
        <time>2019-12-12T10:09:32Z</time>
      </trkpt>
      <trkpt lat="43.77378" lon="7.05001">
        <ele>1045.6</ele>
        <time>2019-12-12T10:09:34Z</time>
      </trkpt>
      <trkpt lat="43.77377" lon="7.04998">
        <ele>1045.6</ele>
        <time>2019-12-12T10:09:36Z</time>
      </trkpt>
      <trkpt lat="43.77376" lon="7.04995">
        <ele>1045.6</ele>
        <time>2019-12-12T10:09:38Z</time>
      </trkpt>
      <trkpt lat="43.77375" lon="7.04992">
        <ele>1045.6</ele>
        <time>2019-12-12T10:09:40Z</time>
      </trkpt>
      <trkpt lat="43.77374" lon="7.04989">
        <ele>1046.1</ele>
        <time>2019-12-12T10:09:42Z</time>
      </trkpt>
      <trkpt lat="43.77373" lon="7.04985">
        <ele>1046.1</ele>
        <time>2019-12-12T10:09:44Z</time>
      </trkpt>
      <trkpt lat="43.77373" lon="7.04981">
        <ele>1046.1</ele>
        <time>2019-12-12T10:09:46Z</time>
      </trkpt>
      <trkpt lat="43.77372" lon="7.04977">
        <ele>1045.6</ele>
        <time>2019-12-12T10:09:48Z</time>
      </trkpt>
      <trkpt lat="43.77371" lon="7.04974">
        <ele>1046.1</ele>
        <time>2019-12-12T10:09:50Z</time>
      </trkpt>
      <trkpt lat="43.7737" lon="7.04971">
        <ele>1046.1</ele>
        <time>2019-12-12T10:09:52Z</time>
      </trkpt>
      <trkpt lat="43.77369" lon="7.04968">
        <ele>1046.1</ele>
        <time>2019-12-12T10:09:54Z</time>
      </trkpt>
      <trkpt lat="43.77367" lon="7.04963">
        <ele>1046.5</ele>
        <time>2019-12-12T10:09:56Z</time>
      </trkpt>
      <trkpt lat="43.77367" lon="7.0496">
        <ele>1047</ele>
        <time>2019-12-12T10:09:58Z</time>
      </trkpt>
      <trkpt lat="43.77367" lon="7.04957">
        <ele>1047.5</ele>
        <time>2019-12-12T10:10:00Z</time>
      </trkpt>
      <trkpt lat="43.77365" lon="7.04953">
        <ele>1048</ele>
        <time>2019-12-12T10:10:02Z</time>
      </trkpt>
      <trkpt lat="43.77364" lon="7.04949">
        <ele>1048.5</ele>
        <time>2019-12-12T10:10:04Z</time>
      </trkpt>
      <trkpt lat="43.77363" lon="7.04945">
        <ele>1048.5</ele>
        <time>2019-12-12T10:10:06Z</time>
      </trkpt>
      <trkpt lat="43.77362" lon="7.04941">
        <ele>1048.5</ele>
        <time>2019-12-12T10:10:08Z</time>
      </trkpt>
      <trkpt lat="43.77361" lon="7.04938">
        <ele>1048.5</ele>
        <time>2019-12-12T10:10:10Z</time>
      </trkpt>
      <trkpt lat="43.7736" lon="7.04935">
        <ele>1048.9</ele>
        <time>2019-12-12T10:10:12Z</time>
      </trkpt>
      <trkpt lat="43.77359" lon="7.04931">
        <ele>1048.9</ele>
        <time>2019-12-12T10:10:14Z</time>
      </trkpt>
      <trkpt lat="43.77359" lon="7.04928">
        <ele>1049.4</ele>
        <time>2019-12-12T10:10:16Z</time>
      </trkpt>
      <trkpt lat="43.77358" lon="7.04924">
        <ele>1049.4</ele>
        <time>2019-12-12T10:10:18Z</time>
      </trkpt>
      <trkpt lat="43.77358" lon="7.04922">
        <ele>1049.9</ele>
        <time>2019-12-12T10:10:20Z</time>
      </trkpt>
      <trkpt lat="43.77357" lon="7.04918">
        <ele>1049.9</ele>
        <time>2019-12-12T10:10:22Z</time>
      </trkpt>
      <trkpt lat="43.77356" lon="7.04914">
        <ele>1049.9</ele>
        <time>2019-12-12T10:10:24Z</time>
      </trkpt>
      <trkpt lat="43.77355" lon="7.0491">
        <ele>1049.9</ele>
        <time>2019-12-12T10:10:26Z</time>
      </trkpt>
      <trkpt lat="43.77353" lon="7.04907">
        <ele>1050.4</ele>
        <time>2019-12-12T10:10:28Z</time>
      </trkpt>
      <trkpt lat="43.77351" lon="7.04903">
        <ele>1050.4</ele>
        <time>2019-12-12T10:10:30Z</time>
      </trkpt>
      <trkpt lat="43.77348" lon="7.049">
        <ele>1050.9</ele>
        <time>2019-12-12T10:10:32Z</time>
      </trkpt>
      <trkpt lat="43.77345" lon="7.04897">
        <ele>1051.8</ele>
        <time>2019-12-12T10:10:34Z</time>
      </trkpt>
      <trkpt lat="43.77343" lon="7.04895">
        <ele>1052.3</ele>
        <time>2019-12-12T10:10:36Z</time>
      </trkpt>
      <trkpt lat="43.77341" lon="7.04895">
        <ele>1052.8</ele>
        <time>2019-12-12T10:10:38Z</time>
      </trkpt>
      <trkpt lat="43.77339" lon="7.04895">
        <ele>1052.8</ele>
        <time>2019-12-12T10:10:40Z</time>
      </trkpt>
      <trkpt lat="43.77336" lon="7.04893">
        <ele>1053.3</ele>
        <time>2019-12-12T10:10:42Z</time>
      </trkpt>
      <trkpt lat="43.77333" lon="7.04891">
        <ele>1053.3</ele>
        <time>2019-12-12T10:10:44Z</time>
      </trkpt>
      <trkpt lat="43.77331" lon="7.04889">
        <ele>1053.7</ele>
        <time>2019-12-12T10:10:46Z</time>
      </trkpt>
      <trkpt lat="43.77329" lon="7.04886">
        <ele>1054.2</ele>
        <time>2019-12-12T10:10:48Z</time>
      </trkpt>
      <trkpt lat="43.77326" lon="7.04884">
        <ele>1054.7</ele>
        <time>2019-12-12T10:10:50Z</time>
      </trkpt>
      <trkpt lat="43.77323" lon="7.04882">
        <ele>1055.2</ele>
        <time>2019-12-12T10:10:52Z</time>
      </trkpt>
      <trkpt lat="43.7732" lon="7.04879">
        <ele>1055.7</ele>
        <time>2019-12-12T10:10:54Z</time>
      </trkpt>
      <trkpt lat="43.77318" lon="7.04876">
        <ele>1055.7</ele>
        <time>2019-12-12T10:10:56Z</time>
      </trkpt>
      <trkpt lat="43.77315" lon="7.04872">
        <ele>1055.7</ele>
        <time>2019-12-12T10:10:58Z</time>
      </trkpt>
      <trkpt lat="43.77314" lon="7.04868">
        <ele>1055.7</ele>
        <time>2019-12-12T10:11:00Z</time>
      </trkpt>
      <trkpt lat="43.77312" lon="7.04864">
        <ele>1055.7</ele>
        <time>2019-12-12T10:11:02Z</time>
      </trkpt>
      <trkpt lat="43.7731" lon="7.04862">
        <ele>1055.7</ele>
        <time>2019-12-12T10:11:04Z</time>
      </trkpt>
      <trkpt lat="43.77308" lon="7.04859">
        <ele>1055.7</ele>
        <time>2019-12-12T10:11:06Z</time>
      </trkpt>
      <trkpt lat="43.77307" lon="7.04856">
        <ele>1055.7</ele>
        <time>2019-12-12T10:11:08Z</time>
      </trkpt>
      <trkpt lat="43.77306" lon="7.04852">
        <ele>1055.7</ele>
        <time>2019-12-12T10:11:10Z</time>
      </trkpt>
      <trkpt lat="43.77305" lon="7.04849">
        <ele>1055.2</ele>
        <time>2019-12-12T10:11:12Z</time>
      </trkpt>
      <trkpt lat="43.77303" lon="7.04845">
        <ele>1055.2</ele>
        <time>2019-12-12T10:11:14Z</time>
      </trkpt>
      <trkpt lat="43.77303" lon="7.04842">
        <ele>1055.7</ele>
        <time>2019-12-12T10:11:16Z</time>
      </trkpt>
      <trkpt lat="43.77301" lon="7.04839">
        <ele>1055.7</ele>
        <time>2019-12-12T10:11:18Z</time>
      </trkpt>
      <trkpt lat="43.773" lon="7.04836">
        <ele>1056.1</ele>
        <time>2019-12-12T10:11:20Z</time>
      </trkpt>
      <trkpt lat="43.77299" lon="7.04833">
        <ele>1056.1</ele>
        <time>2019-12-12T10:11:22Z</time>
      </trkpt>
      <trkpt lat="43.77299" lon="7.04829">
        <ele>1056.6</ele>
        <time>2019-12-12T10:11:24Z</time>
      </trkpt>
      <trkpt lat="43.77298" lon="7.04826">
        <ele>1057.1</ele>
        <time>2019-12-12T10:11:26Z</time>
      </trkpt>
      <trkpt lat="43.77297" lon="7.04823">
        <ele>1057.1</ele>
        <time>2019-12-12T10:11:28Z</time>
      </trkpt>
      <trkpt lat="43.77296" lon="7.04819">
        <ele>1057.6</ele>
        <time>2019-12-12T10:11:30Z</time>
      </trkpt>
      <trkpt lat="43.77294" lon="7.04815">
        <ele>1058.1</ele>
        <time>2019-12-12T10:11:32Z</time>
      </trkpt>
      <trkpt lat="43.77293" lon="7.04812">
        <ele>1058.5</ele>
        <time>2019-12-12T10:11:34Z</time>
      </trkpt>
      <trkpt lat="43.77291" lon="7.04808">
        <ele>1058.5</ele>
        <time>2019-12-12T10:11:36Z</time>
      </trkpt>
      <trkpt lat="43.77291" lon="7.04805">
        <ele>1059</ele>
        <time>2019-12-12T10:11:38Z</time>
      </trkpt>
      <trkpt lat="43.77291" lon="7.04802">
        <ele>1059.5</ele>
        <time>2019-12-12T10:11:40Z</time>
      </trkpt>
      <trkpt lat="43.77291" lon="7.04799">
        <ele>1059.5</ele>
        <time>2019-12-12T10:11:42Z</time>
      </trkpt>
      <trkpt lat="43.77289" lon="7.04795">
        <ele>1060</ele>
        <time>2019-12-12T10:11:44Z</time>
      </trkpt>
      <trkpt lat="43.77288" lon="7.04791">
        <ele>1060</ele>
        <time>2019-12-12T10:11:46Z</time>
      </trkpt>
      <trkpt lat="43.77287" lon="7.04787">
        <ele>1060.5</ele>
        <time>2019-12-12T10:11:48Z</time>
      </trkpt>
      <trkpt lat="43.77285" lon="7.04783">
        <ele>1061</ele>
        <time>2019-12-12T10:11:50Z</time>
      </trkpt>
      <trkpt lat="43.77283" lon="7.04779">
        <ele>1061</ele>
        <time>2019-12-12T10:11:52Z</time>
      </trkpt>
      <trkpt lat="43.77281" lon="7.04776">
        <ele>1061</ele>
        <time>2019-12-12T10:11:54Z</time>
      </trkpt>
      <trkpt lat="43.77279" lon="7.04772">
        <ele>1061.4</ele>
        <time>2019-12-12T10:11:56Z</time>
      </trkpt>
      <trkpt lat="43.77276" lon="7.04769">
        <ele>1061.9</ele>
        <time>2019-12-12T10:11:58Z</time>
      </trkpt>
      <trkpt lat="43.77275" lon="7.04765">
        <ele>1061.9</ele>
        <time>2019-12-12T10:12:00Z</time>
      </trkpt>
      <trkpt lat="43.77274" lon="7.04761">
        <ele>1062.4</ele>
        <time>2019-12-12T10:12:02Z</time>
      </trkpt>
      <trkpt lat="43.77271" lon="7.04758">
        <ele>1062.4</ele>
        <time>2019-12-12T10:12:04Z</time>
      </trkpt>
      <trkpt lat="43.77269" lon="7.04755">
        <ele>1061.9</ele>
        <time>2019-12-12T10:12:06Z</time>
      </trkpt>
      <trkpt lat="43.77266" lon="7.04753">
        <ele>1061.9</ele>
        <time>2019-12-12T10:12:08Z</time>
      </trkpt>
      <trkpt lat="43.77264" lon="7.0475">
        <ele>1061.9</ele>
        <time>2019-12-12T10:12:10Z</time>
      </trkpt>
      <trkpt lat="43.77263" lon="7.04747">
        <ele>1061.9</ele>
        <time>2019-12-12T10:12:12Z</time>
      </trkpt>
      <trkpt lat="43.77262" lon="7.04743">
        <ele>1062.4</ele>
        <time>2019-12-12T10:12:14Z</time>
      </trkpt>
      <trkpt lat="43.77261" lon="7.0474">
        <ele>1062.4</ele>
        <time>2019-12-12T10:12:16Z</time>
      </trkpt>
      <trkpt lat="43.77259" lon="7.04737">
        <ele>1062.4</ele>
        <time>2019-12-12T10:12:18Z</time>
      </trkpt>
      <trkpt lat="43.77258" lon="7.04734">
        <ele>1062.4</ele>
        <time>2019-12-12T10:12:20Z</time>
      </trkpt>
      <trkpt lat="43.77257" lon="7.04731">
        <ele>1062.9</ele>
        <time>2019-12-12T10:12:22Z</time>
      </trkpt>
      <trkpt lat="43.77256" lon="7.04727">
        <ele>1062.9</ele>
        <time>2019-12-12T10:12:24Z</time>
      </trkpt>
      <trkpt lat="43.77256" lon="7.04723">
        <ele>1063.4</ele>
        <time>2019-12-12T10:12:26Z</time>
      </trkpt>
      <trkpt lat="43.77255" lon="7.04719">
        <ele>1063.8</ele>
        <time>2019-12-12T10:12:28Z</time>
      </trkpt>
      <trkpt lat="43.77254" lon="7.04714">
        <ele>1064.3</ele>
        <time>2019-12-12T10:12:30Z</time>
      </trkpt>
      <trkpt lat="43.77253" lon="7.04709">
        <ele>1064.8</ele>
        <time>2019-12-12T10:12:32Z</time>
      </trkpt>
      <trkpt lat="43.77253" lon="7.04706">
        <ele>1065.8</ele>
        <time>2019-12-12T10:12:34Z</time>
      </trkpt>
      <trkpt lat="43.77253" lon="7.04704">
        <ele>1066.2</ele>
        <time>2019-12-12T10:12:36Z</time>
      </trkpt>
      <trkpt lat="43.77254" lon="7.04701">
        <ele>1066.7</ele>
        <time>2019-12-12T10:12:38Z</time>
      </trkpt>
      <trkpt lat="43.77254" lon="7.04698">
        <ele>1067.7</ele>
        <time>2019-12-12T10:12:40Z</time>
      </trkpt>
      <trkpt lat="43.77254" lon="7.04694">
        <ele>1068.2</ele>
        <time>2019-12-12T10:12:42Z</time>
      </trkpt>
      <trkpt lat="43.77253" lon="7.04691">
        <ele>1068.6</ele>
        <time>2019-12-12T10:12:44Z</time>
      </trkpt>
      <trkpt lat="43.77253" lon="7.04687">
        <ele>1069.1</ele>
        <time>2019-12-12T10:12:46Z</time>
      </trkpt>
      <trkpt lat="43.77254" lon="7.04683">
        <ele>1069.6</ele>
        <time>2019-12-12T10:12:48Z</time>
      </trkpt>
      <trkpt lat="43.77253" lon="7.04679">
        <ele>1069.6</ele>
        <time>2019-12-12T10:12:50Z</time>
      </trkpt>
      <trkpt lat="43.77252" lon="7.04675">
        <ele>1070.1</ele>
        <time>2019-12-12T10:12:52Z</time>
      </trkpt>
      <trkpt lat="43.77252" lon="7.04672">
        <ele>1070.6</ele>
        <time>2019-12-12T10:12:54Z</time>
      </trkpt>
      <trkpt lat="43.77252" lon="7.04667">
        <ele>1071</ele>
        <time>2019-12-12T10:12:56Z</time>
      </trkpt>
      <trkpt lat="43.77251" lon="7.04663">
        <ele>1071</ele>
        <time>2019-12-12T10:12:58Z</time>
      </trkpt>
      <trkpt lat="43.77251" lon="7.04659">
        <ele>1071.5</ele>
        <time>2019-12-12T10:13:00Z</time>
      </trkpt>
      <trkpt lat="43.7725" lon="7.04654">
        <ele>1072</ele>
        <time>2019-12-12T10:13:02Z</time>
      </trkpt>
      <trkpt lat="43.77249" lon="7.0465">
        <ele>1072.5</ele>
        <time>2019-12-12T10:13:04Z</time>
      </trkpt>
      <trkpt lat="43.77249" lon="7.04645">
        <ele>1072.5</ele>
        <time>2019-12-12T10:13:06Z</time>
      </trkpt>
      <trkpt lat="43.77248" lon="7.0464">
        <ele>1073</ele>
        <time>2019-12-12T10:13:08Z</time>
      </trkpt>
      <trkpt lat="43.77247" lon="7.04636">
        <ele>1073.4</ele>
        <time>2019-12-12T10:13:10Z</time>
      </trkpt>
      <trkpt lat="43.77246" lon="7.04631">
        <ele>1073.4</ele>
        <time>2019-12-12T10:13:12Z</time>
      </trkpt>
      <trkpt lat="43.77246" lon="7.04627">
        <ele>1073.9</ele>
        <time>2019-12-12T10:13:14Z</time>
      </trkpt>
      <trkpt lat="43.77246" lon="7.04622">
        <ele>1073.9</ele>
        <time>2019-12-12T10:13:16Z</time>
      </trkpt>
      <trkpt lat="43.77246" lon="7.04617">
        <ele>1074.4</ele>
        <time>2019-12-12T10:13:18Z</time>
      </trkpt>
      <trkpt lat="43.77246" lon="7.04612">
        <ele>1074.9</ele>
        <time>2019-12-12T10:13:20Z</time>
      </trkpt>
      <trkpt lat="43.77245" lon="7.04608">
        <ele>1074.9</ele>
        <time>2019-12-12T10:13:22Z</time>
      </trkpt>
      <trkpt lat="43.77244" lon="7.04604">
        <ele>1074.9</ele>
        <time>2019-12-12T10:13:24Z</time>
      </trkpt>
      <trkpt lat="43.77245" lon="7.046">
        <ele>1075.4</ele>
        <time>2019-12-12T10:13:26Z</time>
      </trkpt>
      <trkpt lat="43.77244" lon="7.04596">
        <ele>1075.4</ele>
        <time>2019-12-12T10:13:28Z</time>
      </trkpt>
      <trkpt lat="43.77243" lon="7.04593">
        <ele>1075.9</ele>
        <time>2019-12-12T10:13:30Z</time>
      </trkpt>
      <trkpt lat="43.77243" lon="7.04588">
        <ele>1076.3</ele>
        <time>2019-12-12T10:13:32Z</time>
      </trkpt>
      <trkpt lat="43.77242" lon="7.04585">
        <ele>1076.8</ele>
        <time>2019-12-12T10:13:34Z</time>
      </trkpt>
      <trkpt lat="43.77243" lon="7.0458">
        <ele>1077.3</ele>
        <time>2019-12-12T10:13:36Z</time>
      </trkpt>
      <trkpt lat="43.77243" lon="7.04576">
        <ele>1077.8</ele>
        <time>2019-12-12T10:13:38Z</time>
      </trkpt>
      <trkpt lat="43.77242" lon="7.04572">
        <ele>1078.3</ele>
        <time>2019-12-12T10:13:40Z</time>
      </trkpt>
      <trkpt lat="43.7724" lon="7.04568">
        <ele>1078.7</ele>
        <time>2019-12-12T10:13:42Z</time>
      </trkpt>
      <trkpt lat="43.7724" lon="7.04564">
        <ele>1079.2</ele>
        <time>2019-12-12T10:13:44Z</time>
      </trkpt>
      <trkpt lat="43.7724" lon="7.0456">
        <ele>1079.7</ele>
        <time>2019-12-12T10:13:46Z</time>
      </trkpt>
      <trkpt lat="43.77239" lon="7.04556">
        <ele>1079.7</ele>
        <time>2019-12-12T10:13:48Z</time>
      </trkpt>
      <trkpt lat="43.77239" lon="7.04551">
        <ele>1080.2</ele>
        <time>2019-12-12T10:13:50Z</time>
      </trkpt>
      <trkpt lat="43.77238" lon="7.04547">
        <ele>1080.7</ele>
        <time>2019-12-12T10:13:52Z</time>
      </trkpt>
      <trkpt lat="43.77239" lon="7.04543">
        <ele>1081.1</ele>
        <time>2019-12-12T10:13:54Z</time>
      </trkpt>
      <trkpt lat="43.7724" lon="7.04538">
        <ele>1081.1</ele>
        <time>2019-12-12T10:13:56Z</time>
      </trkpt>
      <trkpt lat="43.7724" lon="7.04534">
        <ele>1081.1</ele>
        <time>2019-12-12T10:13:58Z</time>
      </trkpt>
      <trkpt lat="43.77241" lon="7.04529">
        <ele>1081.6</ele>
        <time>2019-12-12T10:14:00Z</time>
      </trkpt>
      <trkpt lat="43.77241" lon="7.04525">
        <ele>1082.6</ele>
        <time>2019-12-12T10:14:02Z</time>
      </trkpt>
      <trkpt lat="43.77241" lon="7.04522">
        <ele>1083.1</ele>
        <time>2019-12-12T10:14:04Z</time>
      </trkpt>
      <trkpt lat="43.77242" lon="7.04518">
        <ele>1083.5</ele>
        <time>2019-12-12T10:14:06Z</time>
      </trkpt>
      <trkpt lat="43.77243" lon="7.04514">
        <ele>1084</ele>
        <time>2019-12-12T10:14:08Z</time>
      </trkpt>
      <trkpt lat="43.77243" lon="7.04511">
        <ele>1085</ele>
        <time>2019-12-12T10:14:10Z</time>
      </trkpt>
      <trkpt lat="43.77241" lon="7.04508">
        <ele>1085.9</ele>
        <time>2019-12-12T10:14:12Z</time>
      </trkpt>
      <trkpt lat="43.7724" lon="7.04506">
        <ele>1085.9</ele>
        <time>2019-12-12T10:14:14Z</time>
      </trkpt>
      <trkpt lat="43.77238" lon="7.04503">
        <ele>1085</ele>
        <time>2019-12-12T10:14:16Z</time>
      </trkpt>
      <trkpt lat="43.77237" lon="7.04501">
        <ele>1085</ele>
        <time>2019-12-12T10:14:18Z</time>
      </trkpt>
      <trkpt lat="43.77236" lon="7.045">
        <ele>1085</ele>
        <time>2019-12-12T10:14:20Z</time>
      </trkpt>
      <trkpt lat="43.77235" lon="7.04497">
        <ele>1084.5</ele>
        <time>2019-12-12T10:14:22Z</time>
      </trkpt>
      <trkpt lat="43.77235" lon="7.04495">
        <ele>1085</ele>
        <time>2019-12-12T10:14:24Z</time>
      </trkpt>
      <trkpt lat="43.77234" lon="7.04494">
        <ele>1085</ele>
        <time>2019-12-12T10:14:26Z</time>
      </trkpt>
      <trkpt lat="43.77233" lon="7.04493">
        <ele>1085.5</ele>
        <time>2019-12-12T10:14:28Z</time>
      </trkpt>
      <trkpt lat="43.77233" lon="7.04492">
        <ele>1085.5</ele>
        <time>2019-12-12T10:14:30Z</time>
      </trkpt>
      <trkpt lat="43.77232" lon="7.0449">
        <ele>1085.5</ele>
        <time>2019-12-12T10:14:32Z</time>
      </trkpt>
      <trkpt lat="43.77231" lon="7.04489">
        <ele>1085.5</ele>
        <time>2019-12-12T10:14:34Z</time>
      </trkpt>
      <trkpt lat="43.77231" lon="7.04487">
        <ele>1085.5</ele>
        <time>2019-12-12T10:14:36Z</time>
      </trkpt>
      <trkpt lat="43.77229" lon="7.04485">
        <ele>1085.9</ele>
        <time>2019-12-12T10:14:38Z</time>
      </trkpt>
      <trkpt lat="43.77228" lon="7.04483">
        <ele>1085.9</ele>
        <time>2019-12-12T10:14:40Z</time>
      </trkpt>
      <trkpt lat="43.77226" lon="7.04479">
        <ele>1086.4</ele>
        <time>2019-12-12T10:14:42Z</time>
      </trkpt>
      <trkpt lat="43.77225" lon="7.04468">
        <ele>1086.4</ele>
        <time>2019-12-12T10:14:44Z</time>
      </trkpt>
      <trkpt lat="43.77224" lon="7.0446">
        <ele>1086.9</ele>
        <time>2019-12-12T10:14:46Z</time>
      </trkpt>
      <trkpt lat="43.77223" lon="7.04454">
        <ele>1086.9</ele>
        <time>2019-12-12T10:14:48Z</time>
      </trkpt>
      <trkpt lat="43.77223" lon="7.04451">
        <ele>1086.9</ele>
        <time>2019-12-12T10:14:50Z</time>
      </trkpt>
      <trkpt lat="43.77223" lon="7.04449">
        <ele>1086.9</ele>
        <time>2019-12-12T10:14:52Z</time>
      </trkpt>
      <trkpt lat="43.77224" lon="7.04449">
        <ele>1085.9</ele>
        <time>2019-12-12T10:14:54Z</time>
      </trkpt>
      <trkpt lat="43.77224" lon="7.04446">
        <ele>1084.5</ele>
        <time>2019-12-12T10:14:56Z</time>
      </trkpt>
      <trkpt lat="43.77225" lon="7.04445">
        <ele>1084</ele>
        <time>2019-12-12T10:14:58Z</time>
      </trkpt>
      <trkpt lat="43.77223" lon="7.04443">
        <ele>1083.5</ele>
        <time>2019-12-12T10:15:00Z</time>
      </trkpt>
      <trkpt lat="43.77222" lon="7.04442">
        <ele>1083.1</ele>
        <time>2019-12-12T10:15:02Z</time>
      </trkpt>
      <trkpt lat="43.77222" lon="7.04442">
        <ele>1083.1</ele>
        <time>2019-12-12T10:15:04Z</time>
      </trkpt>
      <trkpt lat="43.77223" lon="7.04442">
        <ele>1082.1</ele>
        <time>2019-12-12T10:15:06Z</time>
      </trkpt>
      <trkpt lat="43.77224" lon="7.04441">
        <ele>1081.1</ele>
        <time>2019-12-12T10:15:08Z</time>
      </trkpt>
      <trkpt lat="43.77225" lon="7.0444">
        <ele>1080.7</ele>
        <time>2019-12-12T10:15:10Z</time>
      </trkpt>
      <trkpt lat="43.77225" lon="7.04439">
        <ele>1080.2</ele>
        <time>2019-12-12T10:15:12Z</time>
      </trkpt>
      <trkpt lat="43.77227" lon="7.0444">
        <ele>1079.7</ele>
        <time>2019-12-12T10:15:14Z</time>
      </trkpt>
      <trkpt lat="43.77229" lon="7.0444">
        <ele>1079.2</ele>
        <time>2019-12-12T10:15:16Z</time>
      </trkpt>
      <trkpt lat="43.77229" lon="7.04439">
        <ele>1078.3</ele>
        <time>2019-12-12T10:15:18Z</time>
      </trkpt>
      <trkpt lat="43.77229" lon="7.04439">
        <ele>1077.8</ele>
        <time>2019-12-12T10:15:20Z</time>
      </trkpt>
      <trkpt lat="43.77229" lon="7.0444">
        <ele>1077.8</ele>
        <time>2019-12-12T10:15:22Z</time>
      </trkpt>
      <trkpt lat="43.77226" lon="7.04441">
        <ele>1076.8</ele>
        <time>2019-12-12T10:15:24Z</time>
      </trkpt>
      <trkpt lat="43.77225" lon="7.04445">
        <ele>1076.3</ele>
        <time>2019-12-12T10:15:26Z</time>
      </trkpt>
      <trkpt lat="43.77223" lon="7.04449">
        <ele>1075.9</ele>
        <time>2019-12-12T10:15:28Z</time>
      </trkpt>
      <trkpt lat="43.77221" lon="7.0445">
        <ele>1075.4</ele>
        <time>2019-12-12T10:15:30Z</time>
      </trkpt>
      <trkpt lat="43.77221" lon="7.04448">
        <ele>1074.4</ele>
        <time>2019-12-12T10:15:32Z</time>
      </trkpt>
      <trkpt lat="43.77222" lon="7.04446">
        <ele>1073.9</ele>
        <time>2019-12-12T10:15:34Z</time>
      </trkpt>
      <trkpt lat="43.77222" lon="7.04445">
        <ele>1073.4</ele>
        <time>2019-12-12T10:15:36Z</time>
      </trkpt>
      <trkpt lat="43.77222" lon="7.04443">
        <ele>1072.5</ele>
        <time>2019-12-12T10:15:38Z</time>
      </trkpt>
      <trkpt lat="43.77223" lon="7.04442">
        <ele>1071.5</ele>
        <time>2019-12-12T10:15:40Z</time>
      </trkpt>
      <trkpt lat="43.77223" lon="7.04441">
        <ele>1071</ele>
        <time>2019-12-12T10:15:42Z</time>
      </trkpt>
      <trkpt lat="43.77224" lon="7.04441">
        <ele>1070.6</ele>
        <time>2019-12-12T10:15:44Z</time>
      </trkpt>
      <trkpt lat="43.77224" lon="7.04441">
        <ele>1069.6</ele>
        <time>2019-12-12T10:15:46Z</time>
      </trkpt>
      <trkpt lat="43.77224" lon="7.0444">
        <ele>1069.6</ele>
        <time>2019-12-12T10:15:48Z</time>
      </trkpt>
      <trkpt lat="43.77225" lon="7.0444">
        <ele>1069.6</ele>
        <time>2019-12-12T10:15:50Z</time>
      </trkpt>
      <trkpt lat="43.77225" lon="7.0444">
        <ele>1069.6</ele>
        <time>2019-12-12T10:15:52Z</time>
      </trkpt>
      <trkpt lat="43.77225" lon="7.0444">
        <ele>1069.6</ele>
        <time>2019-12-12T10:15:54Z</time>
      </trkpt>
      <trkpt lat="43.77225" lon="7.0444">
        <ele>1069.6</ele>
        <time>2019-12-12T10:15:56Z</time>
      </trkpt>
      <trkpt lat="43.77225" lon="7.0444">
        <ele>1069.6</ele>
        <time>2019-12-12T10:15:58Z</time>
      </trkpt>
      <trkpt lat="43.77225" lon="7.0444">
        <ele>1069.6</ele>
        <time>2019-12-12T10:16:00Z</time>
      </trkpt>
      <trkpt lat="43.77225" lon="7.0444">
        <ele>1069.6</ele>
        <time>2019-12-12T10:16:02Z</time>
      </trkpt>
      <trkpt lat="43.77225" lon="7.0444">
        <ele>1069.6</ele>
        <time>2019-12-12T10:16:04Z</time>
      </trkpt>
      <trkpt lat="43.77225" lon="7.0444">
        <ele>1069.6</ele>
        <time>2019-12-12T10:16:06Z</time>
      </trkpt>
      <trkpt lat="43.77225" lon="7.0444">
        <ele>1069.6</ele>
        <time>2019-12-12T10:16:08Z</time>
      </trkpt>
      <trkpt lat="43.77225" lon="7.0444">
        <ele>1069.6</ele>
        <time>2019-12-12T10:16:10Z</time>
      </trkpt>
      <trkpt lat="43.77225" lon="7.04441">
        <ele>1069.6</ele>
        <time>2019-12-12T10:16:12Z</time>
      </trkpt>
      <trkpt lat="43.77225" lon="7.04441">
        <ele>1069.6</ele>
        <time>2019-12-12T10:16:14Z</time>
      </trkpt>
      <trkpt lat="43.77225" lon="7.04442">
        <ele>1069.6</ele>
        <time>2019-12-12T10:16:16Z</time>
      </trkpt>
      <trkpt lat="43.77225" lon="7.04442">
        <ele>1069.6</ele>
        <time>2019-12-12T10:16:18Z</time>
      </trkpt>
      <trkpt lat="43.77225" lon="7.04442">
        <ele>1069.1</ele>
        <time>2019-12-12T10:16:20Z</time>
      </trkpt>
      <trkpt lat="43.77224" lon="7.04442">
        <ele>1069.1</ele>
        <time>2019-12-12T10:16:22Z</time>
      </trkpt>
      <trkpt lat="43.77221" lon="7.04439">
        <ele>1068.6</ele>
        <time>2019-12-12T10:16:24Z</time>
      </trkpt>
      <trkpt lat="43.7722" lon="7.04436">
        <ele>1067.7</ele>
        <time>2019-12-12T10:16:26Z</time>
      </trkpt>
      <trkpt lat="43.7722" lon="7.04436">
        <ele>1067.2</ele>
        <time>2019-12-12T10:16:28Z</time>
      </trkpt>
      <trkpt lat="43.7722" lon="7.04437">
        <ele>1067.2</ele>
        <time>2019-12-12T10:16:30Z</time>
      </trkpt>
      <trkpt lat="43.7722" lon="7.04438">
        <ele>1067.2</ele>
        <time>2019-12-12T10:16:32Z</time>
      </trkpt>
      <trkpt lat="43.7722" lon="7.04438">
        <ele>1066.7</ele>
        <time>2019-12-12T10:16:34Z</time>
      </trkpt>
      <trkpt lat="43.7722" lon="7.04438">
        <ele>1066.7</ele>
        <time>2019-12-12T10:16:36Z</time>
      </trkpt>
      <trkpt lat="43.7722" lon="7.04438">
        <ele>1066.7</ele>
        <time>2019-12-12T10:16:38Z</time>
      </trkpt>
      <trkpt lat="43.7722" lon="7.04438">
        <ele>1066.7</ele>
        <time>2019-12-12T10:16:40Z</time>
      </trkpt>
      <trkpt lat="43.7722" lon="7.04438">
        <ele>1066.7</ele>
        <time>2019-12-12T10:16:42Z</time>
      </trkpt>
      <trkpt lat="43.7722" lon="7.04438">
        <ele>1066.7</ele>
        <time>2019-12-12T10:16:44Z</time>
      </trkpt>
      <trkpt lat="43.7722" lon="7.04438">
        <ele>1066.7</ele>
        <time>2019-12-12T10:16:46Z</time>
      </trkpt>
      <trkpt lat="43.77221" lon="7.04437">
        <ele>1066.7</ele>
        <time>2019-12-12T10:16:48Z</time>
      </trkpt>
      <trkpt lat="43.77221" lon="7.04437">
        <ele>1066.7</ele>
        <time>2019-12-12T10:16:50Z</time>
      </trkpt>
      <trkpt lat="43.77221" lon="7.04437">
        <ele>1066.7</ele>
        <time>2019-12-12T10:16:52Z</time>
      </trkpt>
      <trkpt lat="43.77221" lon="7.04437">
        <ele>1066.7</ele>
        <time>2019-12-12T10:16:54Z</time>
      </trkpt>
      <trkpt lat="43.77221" lon="7.04437">
        <ele>1066.7</ele>
        <time>2019-12-12T10:16:56Z</time>
      </trkpt>
      <trkpt lat="43.7722" lon="7.04436">
        <ele>1066.7</ele>
        <time>2019-12-12T10:16:58Z</time>
      </trkpt>
      <trkpt lat="43.7722" lon="7.04436">
        <ele>1066.7</ele>
        <time>2019-12-12T10:17:00Z</time>
      </trkpt>
      <trkpt lat="43.7722" lon="7.04436">
        <ele>1066.7</ele>
        <time>2019-12-12T10:17:02Z</time>
      </trkpt>
      <trkpt lat="43.7722" lon="7.04436">
        <ele>1066.7</ele>
        <time>2019-12-12T10:17:04Z</time>
      </trkpt>
      <trkpt lat="43.7722" lon="7.04436">
        <ele>1066.7</ele>
        <time>2019-12-12T10:17:06Z</time>
      </trkpt>
      <trkpt lat="43.77221" lon="7.04436">
        <ele>1066.7</ele>
        <time>2019-12-12T10:17:08Z</time>
      </trkpt>
      <trkpt lat="43.77221" lon="7.04437">
        <ele>1066.7</ele>
        <time>2019-12-12T10:17:10Z</time>
      </trkpt>
      <trkpt lat="43.77221" lon="7.04437">
        <ele>1066.7</ele>
        <time>2019-12-12T10:17:12Z</time>
      </trkpt>
      <trkpt lat="43.77221" lon="7.04437">
        <ele>1066.7</ele>
        <time>2019-12-12T10:17:14Z</time>
      </trkpt>
      <trkpt lat="43.77221" lon="7.04437">
        <ele>1066.2</ele>
        <time>2019-12-12T10:17:16Z</time>
      </trkpt>
      <trkpt lat="43.77221" lon="7.04437">
        <ele>1066.2</ele>
        <time>2019-12-12T10:17:18Z</time>
      </trkpt>
      <trkpt lat="43.77221" lon="7.04437">
        <ele>1066.2</ele>
        <time>2019-12-12T10:17:20Z</time>
      </trkpt>
      <trkpt lat="43.77221" lon="7.04437">
        <ele>1066.2</ele>
        <time>2019-12-12T10:17:22Z</time>
      </trkpt>
      <trkpt lat="43.77221" lon="7.04438">
        <ele>1066.2</ele>
        <time>2019-12-12T10:17:24Z</time>
      </trkpt>
      <trkpt lat="43.77221" lon="7.04439">
        <ele>1066.2</ele>
        <time>2019-12-12T10:17:26Z</time>
      </trkpt>
      <trkpt lat="43.77221" lon="7.04439">
        <ele>1066.2</ele>
        <time>2019-12-12T10:17:28Z</time>
      </trkpt>
      <trkpt lat="43.77221" lon="7.04439">
        <ele>1066.2</ele>
        <time>2019-12-12T10:17:30Z</time>
      </trkpt>
      <trkpt lat="43.77221" lon="7.0444">
        <ele>1066.2</ele>
        <time>2019-12-12T10:17:32Z</time>
      </trkpt>
      <trkpt lat="43.77222" lon="7.0444">
        <ele>1066.2</ele>
        <time>2019-12-12T10:17:34Z</time>
      </trkpt>
      <trkpt lat="43.77222" lon="7.0444">
        <ele>1066.2</ele>
        <time>2019-12-12T10:17:36Z</time>
      </trkpt>
      <trkpt lat="43.77222" lon="7.0444">
        <ele>1066.2</ele>
        <time>2019-12-12T10:17:38Z</time>
      </trkpt>
      <trkpt lat="43.77222" lon="7.0444">
        <ele>1065.8</ele>
        <time>2019-12-12T10:17:40Z</time>
      </trkpt>
      <trkpt lat="43.77223" lon="7.04441">
        <ele>1065.8</ele>
        <time>2019-12-12T10:17:42Z</time>
      </trkpt>
      <trkpt lat="43.77223" lon="7.04441">
        <ele>1065.8</ele>
        <time>2019-12-12T10:17:44Z</time>
      </trkpt>
      <trkpt lat="43.77223" lon="7.04441">
        <ele>1065.8</ele>
        <time>2019-12-12T10:17:46Z</time>
      </trkpt>
      <trkpt lat="43.77223" lon="7.04441">
        <ele>1065.8</ele>
        <time>2019-12-12T10:17:48Z</time>
      </trkpt>
      <trkpt lat="43.77223" lon="7.04441">
        <ele>1065.8</ele>
        <time>2019-12-12T10:17:50Z</time>
      </trkpt>
      <trkpt lat="43.77223" lon="7.04441">
        <ele>1065.8</ele>
        <time>2019-12-12T10:17:52Z</time>
      </trkpt>
      <trkpt lat="43.77223" lon="7.04441">
        <ele>1065.8</ele>
        <time>2019-12-12T10:17:54Z</time>
      </trkpt>
      <trkpt lat="43.77223" lon="7.04441">
        <ele>1065.8</ele>
        <time>2019-12-12T10:17:56Z</time>
      </trkpt>
      <trkpt lat="43.77223" lon="7.04441">
        <ele>1065.8</ele>
        <time>2019-12-12T10:17:58Z</time>
      </trkpt>
      <trkpt lat="43.77223" lon="7.04441">
        <ele>1065.8</ele>
        <time>2019-12-12T10:18:00Z</time>
      </trkpt>
      <trkpt lat="43.77224" lon="7.04441">
        <ele>1065.8</ele>
        <time>2019-12-12T10:18:02Z</time>
      </trkpt>
      <trkpt lat="43.77226" lon="7.04442">
        <ele>1065.8</ele>
        <time>2019-12-12T10:18:04Z</time>
      </trkpt>
      <trkpt lat="43.77229" lon="7.04442">
        <ele>1065.8</ele>
        <time>2019-12-12T10:18:06Z</time>
      </trkpt>
      <trkpt lat="43.77231" lon="7.04443">
        <ele>1065.3</ele>
        <time>2019-12-12T10:18:08Z</time>
      </trkpt>
      <trkpt lat="43.77231" lon="7.04443">
        <ele>1065.3</ele>
        <time>2019-12-12T10:18:10Z</time>
      </trkpt>
      <trkpt lat="43.77232" lon="7.04443">
        <ele>1065.3</ele>
        <time>2019-12-12T10:18:12Z</time>
      </trkpt>
      <trkpt lat="43.77232" lon="7.04443">
        <ele>1065.3</ele>
        <time>2019-12-12T10:18:14Z</time>
      </trkpt>
      <trkpt lat="43.77232" lon="7.04444">
        <ele>1065.3</ele>
        <time>2019-12-12T10:18:16Z</time>
      </trkpt>
      <trkpt lat="43.77232" lon="7.04444">
        <ele>1065.3</ele>
        <time>2019-12-12T10:18:18Z</time>
      </trkpt>
      <trkpt lat="43.77232" lon="7.04444">
        <ele>1065.3</ele>
        <time>2019-12-12T10:18:20Z</time>
      </trkpt>
      <trkpt lat="43.77233" lon="7.04444">
        <ele>1065.3</ele>
        <time>2019-12-12T10:18:22Z</time>
      </trkpt>
      <trkpt lat="43.77233" lon="7.04444">
        <ele>1065.3</ele>
        <time>2019-12-12T10:18:24Z</time>
      </trkpt>
      <trkpt lat="43.77233" lon="7.04444">
        <ele>1065.3</ele>
        <time>2019-12-12T10:18:26Z</time>
      </trkpt>
      <trkpt lat="43.77233" lon="7.04444">
        <ele>1065.3</ele>
        <time>2019-12-12T10:18:28Z</time>
      </trkpt>
      <trkpt lat="43.77233" lon="7.04445">
        <ele>1065.3</ele>
        <time>2019-12-12T10:18:30Z</time>
      </trkpt>
      <trkpt lat="43.77234" lon="7.04445">
        <ele>1065.3</ele>
        <time>2019-12-12T10:18:32Z</time>
      </trkpt>
      <trkpt lat="43.77234" lon="7.04446">
        <ele>1065.3</ele>
        <time>2019-12-12T10:18:34Z</time>
      </trkpt>
      <trkpt lat="43.77234" lon="7.04447">
        <ele>1065.3</ele>
        <time>2019-12-12T10:18:36Z</time>
      </trkpt>
      <trkpt lat="43.77235" lon="7.04447">
        <ele>1065.3</ele>
        <time>2019-12-12T10:18:38Z</time>
      </trkpt>
      <trkpt lat="43.77235" lon="7.04447">
        <ele>1065.3</ele>
        <time>2019-12-12T10:18:40Z</time>
      </trkpt>
      <trkpt lat="43.77234" lon="7.04447">
        <ele>1065.3</ele>
        <time>2019-12-12T10:18:42Z</time>
      </trkpt>
      <trkpt lat="43.77234" lon="7.04447">
        <ele>1065.3</ele>
        <time>2019-12-12T10:18:44Z</time>
      </trkpt>
      <trkpt lat="43.77234" lon="7.04447">
        <ele>1065.3</ele>
        <time>2019-12-12T10:18:46Z</time>
      </trkpt>
      <trkpt lat="43.77234" lon="7.04446">
        <ele>1065.3</ele>
        <time>2019-12-12T10:18:48Z</time>
      </trkpt>
      <trkpt lat="43.77234" lon="7.04446">
        <ele>1065.3</ele>
        <time>2019-12-12T10:18:50Z</time>
      </trkpt>
      <trkpt lat="43.77233" lon="7.04446">
        <ele>1065.3</ele>
        <time>2019-12-12T10:18:52Z</time>
      </trkpt>
      <trkpt lat="43.77234" lon="7.04446">
        <ele>1065.3</ele>
        <time>2019-12-12T10:18:54Z</time>
      </trkpt>
      <trkpt lat="43.77234" lon="7.04446">
        <ele>1065.3</ele>
        <time>2019-12-12T10:18:56Z</time>
      </trkpt>
      <trkpt lat="43.77234" lon="7.04446">
        <ele>1065.3</ele>
        <time>2019-12-12T10:18:58Z</time>
      </trkpt>
      <trkpt lat="43.77234" lon="7.04446">
        <ele>1065.3</ele>
        <time>2019-12-12T10:19:00Z</time>
      </trkpt>
      <trkpt lat="43.77234" lon="7.04446">
        <ele>1065.3</ele>
        <time>2019-12-12T10:19:02Z</time>
      </trkpt>
      <trkpt lat="43.77234" lon="7.04446">
        <ele>1064.8</ele>
        <time>2019-12-12T10:19:04Z</time>
      </trkpt>
      <trkpt lat="43.77232" lon="7.04444">
        <ele>1064.8</ele>
        <time>2019-12-12T10:19:06Z</time>
      </trkpt>
      <trkpt lat="43.7723" lon="7.04443">
        <ele>1064.3</ele>
        <time>2019-12-12T10:19:08Z</time>
      </trkpt>
      <trkpt lat="43.77228" lon="7.04441">
        <ele>1064.3</ele>
        <time>2019-12-12T10:19:10Z</time>
      </trkpt>
      <trkpt lat="43.77227" lon="7.04441">
        <ele>1064.3</ele>
        <time>2019-12-12T10:19:12Z</time>
      </trkpt>
      <trkpt lat="43.77227" lon="7.04441">
        <ele>1064.3</ele>
        <time>2019-12-12T10:19:14Z</time>
      </trkpt>
      <trkpt lat="43.77227" lon="7.04441">
        <ele>1064.3</ele>
        <time>2019-12-12T10:19:16Z</time>
      </trkpt>
      <trkpt lat="43.77226" lon="7.0444">
        <ele>1064.3</ele>
        <time>2019-12-12T10:19:18Z</time>
      </trkpt>
      <trkpt lat="43.77226" lon="7.0444">
        <ele>1064.3</ele>
        <time>2019-12-12T10:19:20Z</time>
      </trkpt>
      <trkpt lat="43.77226" lon="7.04439">
        <ele>1064.3</ele>
        <time>2019-12-12T10:19:22Z</time>
      </trkpt>
      <trkpt lat="43.77227" lon="7.04439">
        <ele>1064.3</ele>
        <time>2019-12-12T10:19:24Z</time>
      </trkpt>
      <trkpt lat="43.77227" lon="7.04439">
        <ele>1064.3</ele>
        <time>2019-12-12T10:19:26Z</time>
      </trkpt>
      <trkpt lat="43.7723" lon="7.04438">
        <ele>1063.8</ele>
        <time>2019-12-12T10:19:28Z</time>
      </trkpt>
      <trkpt lat="43.77231" lon="7.04437">
        <ele>1063.4</ele>
        <time>2019-12-12T10:19:30Z</time>
      </trkpt>
      <trkpt lat="43.77232" lon="7.04435">
        <ele>1062.9</ele>
        <time>2019-12-12T10:19:32Z</time>
      </trkpt>
      <trkpt lat="43.77234" lon="7.04433">
        <ele>1062.9</ele>
        <time>2019-12-12T10:19:34Z</time>
      </trkpt>
      <trkpt lat="43.77235" lon="7.04434">
        <ele>1062.9</ele>
        <time>2019-12-12T10:19:36Z</time>
      </trkpt>
      <trkpt lat="43.77236" lon="7.04435">
        <ele>1062.4</ele>
        <time>2019-12-12T10:19:38Z</time>
      </trkpt>
      <trkpt lat="43.77236" lon="7.04435">
        <ele>1062.4</ele>
        <time>2019-12-12T10:19:40Z</time>
      </trkpt>
      <trkpt lat="43.77237" lon="7.04434">
        <ele>1062.4</ele>
        <time>2019-12-12T10:19:42Z</time>
      </trkpt>
      <trkpt lat="43.77237" lon="7.04434">
        <ele>1062.4</ele>
        <time>2019-12-12T10:19:44Z</time>
      </trkpt>
      <trkpt lat="43.77237" lon="7.04434">
        <ele>1062.4</ele>
        <time>2019-12-12T10:19:46Z</time>
      </trkpt>
      <trkpt lat="43.77238" lon="7.04434">
        <ele>1062.4</ele>
        <time>2019-12-12T10:19:48Z</time>
      </trkpt>
      <trkpt lat="43.77238" lon="7.04435">
        <ele>1062.4</ele>
        <time>2019-12-12T10:19:50Z</time>
      </trkpt>
      <trkpt lat="43.77238" lon="7.04434">
        <ele>1062.4</ele>
        <time>2019-12-12T10:19:52Z</time>
      </trkpt>
      <trkpt lat="43.77238" lon="7.04434">
        <ele>1062.4</ele>
        <time>2019-12-12T10:19:54Z</time>
      </trkpt>
      <trkpt lat="43.77238" lon="7.04435">
        <ele>1062.4</ele>
        <time>2019-12-12T10:19:56Z</time>
      </trkpt>
      <trkpt lat="43.77235" lon="7.04435">
        <ele>1062.4</ele>
        <time>2019-12-12T10:19:58Z</time>
      </trkpt>
      <trkpt lat="43.77233" lon="7.04436">
        <ele>1061.9</ele>
        <time>2019-12-12T10:20:00Z</time>
      </trkpt>
      <trkpt lat="43.77232" lon="7.04437">
        <ele>1062.4</ele>
        <time>2019-12-12T10:20:02Z</time>
      </trkpt>
      <trkpt lat="43.77231" lon="7.04437">
        <ele>1062.4</ele>
        <time>2019-12-12T10:20:04Z</time>
      </trkpt>
      <trkpt lat="43.77231" lon="7.04436">
        <ele>1062.4</ele>
        <time>2019-12-12T10:20:06Z</time>
      </trkpt>
      <trkpt lat="43.77229" lon="7.04435">
        <ele>1062.4</ele>
        <time>2019-12-12T10:20:08Z</time>
      </trkpt>
      <trkpt lat="43.77229" lon="7.04435">
        <ele>1062.4</ele>
        <time>2019-12-12T10:20:10Z</time>
      </trkpt>
      <trkpt lat="43.77229" lon="7.04435">
        <ele>1061.9</ele>
        <time>2019-12-12T10:20:12Z</time>
      </trkpt>
      <trkpt lat="43.7723" lon="7.04437">
        <ele>1061.9</ele>
        <time>2019-12-12T10:20:14Z</time>
      </trkpt>
      <trkpt lat="43.7723" lon="7.04437">
        <ele>1061.9</ele>
        <time>2019-12-12T10:20:16Z</time>
      </trkpt>
      <trkpt lat="43.7723" lon="7.04438">
        <ele>1061.9</ele>
        <time>2019-12-12T10:20:18Z</time>
      </trkpt>
      <trkpt lat="43.77231" lon="7.04439">
        <ele>1061.9</ele>
        <time>2019-12-12T10:20:20Z</time>
      </trkpt>
      <trkpt lat="43.77231" lon="7.0444">
        <ele>1061.4</ele>
        <time>2019-12-12T10:20:22Z</time>
      </trkpt>
      <trkpt lat="43.77232" lon="7.04441">
        <ele>1061.4</ele>
        <time>2019-12-12T10:20:24Z</time>
      </trkpt>
      <trkpt lat="43.77233" lon="7.04442">
        <ele>1061.4</ele>
        <time>2019-12-12T10:20:26Z</time>
      </trkpt>
      <trkpt lat="43.77235" lon="7.04443">
        <ele>1061.4</ele>
        <time>2019-12-12T10:20:28Z</time>
      </trkpt>
      <trkpt lat="43.77238" lon="7.04442">
        <ele>1061.4</ele>
        <time>2019-12-12T10:20:30Z</time>
      </trkpt>
      <trkpt lat="43.77241" lon="7.04444">
        <ele>1061.4</ele>
        <time>2019-12-12T10:20:32Z</time>
      </trkpt>
      <trkpt lat="43.77244" lon="7.04444">
        <ele>1061.4</ele>
        <time>2019-12-12T10:20:34Z</time>
      </trkpt>
      <trkpt lat="43.77247" lon="7.04442">
        <ele>1061.4</ele>
        <time>2019-12-12T10:20:36Z</time>
      </trkpt>
      <trkpt lat="43.7725" lon="7.04441">
        <ele>1061</ele>
        <time>2019-12-12T10:20:38Z</time>
      </trkpt>
      <trkpt lat="43.77251" lon="7.04439">
        <ele>1061</ele>
        <time>2019-12-12T10:20:40Z</time>
      </trkpt>
      <trkpt lat="43.77252" lon="7.04436">
        <ele>1061</ele>
        <time>2019-12-12T10:20:42Z</time>
      </trkpt>
      <trkpt lat="43.77254" lon="7.04434">
        <ele>1061</ele>
        <time>2019-12-12T10:20:44Z</time>
      </trkpt>
      <trkpt lat="43.77255" lon="7.04431">
        <ele>1061</ele>
        <time>2019-12-12T10:20:46Z</time>
      </trkpt>
      <trkpt lat="43.77256" lon="7.04428">
        <ele>1061</ele>
        <time>2019-12-12T10:20:48Z</time>
      </trkpt>
      <trkpt lat="43.77258" lon="7.04424">
        <ele>1061</ele>
        <time>2019-12-12T10:20:50Z</time>
      </trkpt>
      <trkpt lat="43.77259" lon="7.0442">
        <ele>1061</ele>
        <time>2019-12-12T10:20:52Z</time>
      </trkpt>
      <trkpt lat="43.7726" lon="7.04416">
        <ele>1061</ele>
        <time>2019-12-12T10:20:54Z</time>
      </trkpt>
      <trkpt lat="43.7726" lon="7.04411">
        <ele>1061</ele>
        <time>2019-12-12T10:20:56Z</time>
      </trkpt>
      <trkpt lat="43.7726" lon="7.04405">
        <ele>1061.4</ele>
        <time>2019-12-12T10:20:58Z</time>
      </trkpt>
      <trkpt lat="43.77259" lon="7.04399">
        <ele>1061.4</ele>
        <time>2019-12-12T10:21:00Z</time>
      </trkpt>
      <trkpt lat="43.77258" lon="7.04394">
        <ele>1061.9</ele>
        <time>2019-12-12T10:21:02Z</time>
      </trkpt>
      <trkpt lat="43.77256" lon="7.04388">
        <ele>1061.9</ele>
        <time>2019-12-12T10:21:04Z</time>
      </trkpt>
      <trkpt lat="43.77252" lon="7.04387">
        <ele>1061.9</ele>
        <time>2019-12-12T10:21:06Z</time>
      </trkpt>
      <trkpt lat="43.7725" lon="7.04387">
        <ele>1061.4</ele>
        <time>2019-12-12T10:21:08Z</time>
      </trkpt>
      <trkpt lat="43.77249" lon="7.04387">
        <ele>1061.4</ele>
        <time>2019-12-12T10:21:10Z</time>
      </trkpt>
      <trkpt lat="43.77247" lon="7.04387">
        <ele>1061</ele>
        <time>2019-12-12T10:21:12Z</time>
      </trkpt>
      <trkpt lat="43.77244" lon="7.04387">
        <ele>1061</ele>
        <time>2019-12-12T10:21:14Z</time>
      </trkpt>
      <trkpt lat="43.77242" lon="7.04387">
        <ele>1060.5</ele>
        <time>2019-12-12T10:21:16Z</time>
      </trkpt>
      <trkpt lat="43.77241" lon="7.04389">
        <ele>1059.5</ele>
        <time>2019-12-12T10:21:18Z</time>
      </trkpt>
      <trkpt lat="43.77241" lon="7.04389">
        <ele>1059</ele>
        <time>2019-12-12T10:21:20Z</time>
      </trkpt>
      <trkpt lat="43.7724" lon="7.0439">
        <ele>1058.5</ele>
        <time>2019-12-12T10:21:22Z</time>
      </trkpt>
      <trkpt lat="43.7724" lon="7.04391">
        <ele>1058.1</ele>
        <time>2019-12-12T10:21:24Z</time>
      </trkpt>
      <trkpt lat="43.77239" lon="7.04392">
        <ele>1058.1</ele>
        <time>2019-12-12T10:21:26Z</time>
      </trkpt>
      <trkpt lat="43.77238" lon="7.04391">
        <ele>1057.6</ele>
        <time>2019-12-12T10:21:28Z</time>
      </trkpt>
      <trkpt lat="43.77238" lon="7.04392">
        <ele>1057.6</ele>
        <time>2019-12-12T10:21:30Z</time>
      </trkpt>
      <trkpt lat="43.77238" lon="7.04392">
        <ele>1057.6</ele>
        <time>2019-12-12T10:21:32Z</time>
      </trkpt>
      <trkpt lat="43.77238" lon="7.04392">
        <ele>1057.6</ele>
        <time>2019-12-12T10:21:34Z</time>
      </trkpt>
      <trkpt lat="43.77238" lon="7.04392">
        <ele>1057.6</ele>
        <time>2019-12-12T10:21:36Z</time>
      </trkpt>
      <trkpt lat="43.77238" lon="7.04392">
        <ele>1057.6</ele>
        <time>2019-12-12T10:21:38Z</time>
      </trkpt>
      <trkpt lat="43.77238" lon="7.04392">
        <ele>1057.6</ele>
        <time>2019-12-12T10:21:40Z</time>
      </trkpt>
      <trkpt lat="43.77238" lon="7.04392">
        <ele>1057.6</ele>
        <time>2019-12-12T10:21:42Z</time>
      </trkpt>
      <trkpt lat="43.77238" lon="7.04392">
        <ele>1057.6</ele>
        <time>2019-12-12T10:21:44Z</time>
      </trkpt>
      <trkpt lat="43.77239" lon="7.04392">
        <ele>1057.6</ele>
        <time>2019-12-12T10:21:46Z</time>
      </trkpt>
      <trkpt lat="43.77239" lon="7.04392">
        <ele>1057.6</ele>
        <time>2019-12-12T10:21:48Z</time>
      </trkpt>
      <trkpt lat="43.77239" lon="7.04392">
        <ele>1057.6</ele>
        <time>2019-12-12T10:21:50Z</time>
      </trkpt>
      <trkpt lat="43.7724" lon="7.04392">
        <ele>1057.6</ele>
        <time>2019-12-12T10:21:52Z</time>
      </trkpt>
      <trkpt lat="43.7724" lon="7.04392">
        <ele>1057.6</ele>
        <time>2019-12-12T10:21:54Z</time>
      </trkpt>
      <trkpt lat="43.77242" lon="7.04393">
        <ele>1058.1</ele>
        <time>2019-12-12T10:21:56Z</time>
      </trkpt>
      <trkpt lat="43.77243" lon="7.04393">
        <ele>1058.1</ele>
        <time>2019-12-12T10:21:58Z</time>
      </trkpt>
      <trkpt lat="43.77244" lon="7.04394">
        <ele>1058.1</ele>
        <time>2019-12-12T10:22:00Z</time>
      </trkpt>
      <trkpt lat="43.77245" lon="7.04394">
        <ele>1058.1</ele>
        <time>2019-12-12T10:22:02Z</time>
      </trkpt>
      <trkpt lat="43.77245" lon="7.04394">
        <ele>1058.5</ele>
        <time>2019-12-12T10:22:04Z</time>
      </trkpt>
      <trkpt lat="43.77245" lon="7.04393">
        <ele>1058.5</ele>
        <time>2019-12-12T10:22:06Z</time>
      </trkpt>
      <trkpt lat="43.77245" lon="7.04393">
        <ele>1058.1</ele>
        <time>2019-12-12T10:22:08Z</time>
      </trkpt>
      <trkpt lat="43.77245" lon="7.04392">
        <ele>1058.1</ele>
        <time>2019-12-12T10:22:10Z</time>
      </trkpt>
      <trkpt lat="43.77244" lon="7.0439">
        <ele>1058.1</ele>
        <time>2019-12-12T10:22:12Z</time>
      </trkpt>
      <trkpt lat="43.77244" lon="7.0439">
        <ele>1058.1</ele>
        <time>2019-12-12T10:22:14Z</time>
      </trkpt>
      <trkpt lat="43.77244" lon="7.0439">
        <ele>1058.1</ele>
        <time>2019-12-12T10:22:16Z</time>
      </trkpt>
      <trkpt lat="43.77244" lon="7.0439">
        <ele>1058.1</ele>
        <time>2019-12-12T10:22:18Z</time>
      </trkpt>
      <trkpt lat="43.77244" lon="7.04389">
        <ele>1058.1</ele>
        <time>2019-12-12T10:22:20Z</time>
      </trkpt>
      <trkpt lat="43.77245" lon="7.04388">
        <ele>1058.1</ele>
        <time>2019-12-12T10:22:22Z</time>
      </trkpt>
      <trkpt lat="43.77245" lon="7.04388">
        <ele>1058.1</ele>
        <time>2019-12-12T10:22:24Z</time>
      </trkpt>
      <trkpt lat="43.77245" lon="7.04387">
        <ele>1058.1</ele>
        <time>2019-12-12T10:22:26Z</time>
      </trkpt>
      <trkpt lat="43.77244" lon="7.04387">
        <ele>1058.5</ele>
        <time>2019-12-12T10:22:28Z</time>
      </trkpt>
      <trkpt lat="43.77243" lon="7.04387">
        <ele>1058.5</ele>
        <time>2019-12-12T10:22:30Z</time>
      </trkpt>
      <trkpt lat="43.77243" lon="7.04387">
        <ele>1058.5</ele>
        <time>2019-12-12T10:22:32Z</time>
      </trkpt>
      <trkpt lat="43.77242" lon="7.04386">
        <ele>1058.5</ele>
        <time>2019-12-12T10:22:34Z</time>
      </trkpt>
      <trkpt lat="43.77243" lon="7.04386">
        <ele>1058.5</ele>
        <time>2019-12-12T10:22:36Z</time>
      </trkpt>
      <trkpt lat="43.77243" lon="7.04386">
        <ele>1058.5</ele>
        <time>2019-12-12T10:22:38Z</time>
      </trkpt>
      <trkpt lat="43.77242" lon="7.04386">
        <ele>1058.5</ele>
        <time>2019-12-12T10:22:40Z</time>
      </trkpt>
      <trkpt lat="43.77242" lon="7.04385">
        <ele>1058.5</ele>
        <time>2019-12-12T10:22:42Z</time>
      </trkpt>
      <trkpt lat="43.77242" lon="7.04385">
        <ele>1058.5</ele>
        <time>2019-12-12T10:22:44Z</time>
      </trkpt>
      <trkpt lat="43.77241" lon="7.04385">
        <ele>1058.5</ele>
        <time>2019-12-12T10:22:46Z</time>
      </trkpt>
      <trkpt lat="43.77241" lon="7.04385">
        <ele>1058.5</ele>
        <time>2019-12-12T10:22:48Z</time>
      </trkpt>
      <trkpt lat="43.77241" lon="7.04385">
        <ele>1058.5</ele>
        <time>2019-12-12T10:22:50Z</time>
      </trkpt>
      <trkpt lat="43.77241" lon="7.04385">
        <ele>1058.5</ele>
        <time>2019-12-12T10:22:52Z</time>
      </trkpt>
      <trkpt lat="43.77241" lon="7.04385">
        <ele>1058.5</ele>
        <time>2019-12-12T10:22:54Z</time>
      </trkpt>
      <trkpt lat="43.77241" lon="7.04385">
        <ele>1058.5</ele>
        <time>2019-12-12T10:22:56Z</time>
      </trkpt>
      <trkpt lat="43.77241" lon="7.04385">
        <ele>1058.5</ele>
        <time>2019-12-12T10:22:58Z</time>
      </trkpt>
      <trkpt lat="43.77241" lon="7.04385">
        <ele>1058.5</ele>
        <time>2019-12-12T10:23:00Z</time>
      </trkpt>
      <trkpt lat="43.77241" lon="7.04385">
        <ele>1058.1</ele>
        <time>2019-12-12T10:23:02Z</time>
      </trkpt>
      <trkpt lat="43.77241" lon="7.04385">
        <ele>1058.1</ele>
        <time>2019-12-12T10:23:04Z</time>
      </trkpt>
      <trkpt lat="43.77241" lon="7.04385">
        <ele>1058.1</ele>
        <time>2019-12-12T10:23:06Z</time>
      </trkpt>
      <trkpt lat="43.77241" lon="7.04386">
        <ele>1058.1</ele>
        <time>2019-12-12T10:23:08Z</time>
      </trkpt>
      <trkpt lat="43.77241" lon="7.04386">
        <ele>1058.1</ele>
        <time>2019-12-12T10:23:10Z</time>
      </trkpt>
      <trkpt lat="43.7724" lon="7.04386">
        <ele>1058.1</ele>
        <time>2019-12-12T10:23:12Z</time>
      </trkpt>
      <trkpt lat="43.77241" lon="7.04386">
        <ele>1058.1</ele>
        <time>2019-12-12T10:23:14Z</time>
      </trkpt>
      <trkpt lat="43.77241" lon="7.04386">
        <ele>1058.1</ele>
        <time>2019-12-12T10:23:16Z</time>
      </trkpt>
      <trkpt lat="43.77241" lon="7.04386">
        <ele>1058.1</ele>
        <time>2019-12-12T10:23:18Z</time>
      </trkpt>
      <trkpt lat="43.77241" lon="7.04386">
        <ele>1058.1</ele>
        <time>2019-12-12T10:23:20Z</time>
      </trkpt>
      <trkpt lat="43.77241" lon="7.04385">
        <ele>1057.6</ele>
        <time>2019-12-12T10:23:22Z</time>
      </trkpt>
      <trkpt lat="43.77242" lon="7.04386">
        <ele>1057.1</ele>
        <time>2019-12-12T10:23:24Z</time>
      </trkpt>
      <trkpt lat="43.77243" lon="7.04385">
        <ele>1056.6</ele>
        <time>2019-12-12T10:23:26Z</time>
      </trkpt>
      <trkpt lat="43.77242" lon="7.04384">
        <ele>1056.6</ele>
        <time>2019-12-12T10:23:28Z</time>
      </trkpt>
      <trkpt lat="43.77242" lon="7.04384">
        <ele>1056.6</ele>
        <time>2019-12-12T10:23:30Z</time>
      </trkpt>
      <trkpt lat="43.77242" lon="7.04384">
        <ele>1056.6</ele>
        <time>2019-12-12T10:23:32Z</time>
      </trkpt>
      <trkpt lat="43.77242" lon="7.04384">
        <ele>1056.6</ele>
        <time>2019-12-12T10:23:34Z</time>
      </trkpt>
      <trkpt lat="43.77241" lon="7.04383">
        <ele>1056.6</ele>
        <time>2019-12-12T10:23:36Z</time>
      </trkpt>
      <trkpt lat="43.7724" lon="7.04382">
        <ele>1056.1</ele>
        <time>2019-12-12T10:23:38Z</time>
      </trkpt>
      <trkpt lat="43.7724" lon="7.04382">
        <ele>1056.1</ele>
        <time>2019-12-12T10:23:40Z</time>
      </trkpt>
      <trkpt lat="43.7724" lon="7.04383">
        <ele>1056.1</ele>
        <time>2019-12-12T10:23:42Z</time>
      </trkpt>
      <trkpt lat="43.7724" lon="7.04383">
        <ele>1056.1</ele>
        <time>2019-12-12T10:23:44Z</time>
      </trkpt>
      <trkpt lat="43.7724" lon="7.04382">
        <ele>1056.1</ele>
        <time>2019-12-12T10:23:46Z</time>
      </trkpt>
      <trkpt lat="43.77239" lon="7.04382">
        <ele>1056.1</ele>
        <time>2019-12-12T10:23:48Z</time>
      </trkpt>
      <trkpt lat="43.7724" lon="7.0438">
        <ele>1056.6</ele>
        <time>2019-12-12T10:23:50Z</time>
      </trkpt>
      <trkpt lat="43.7724" lon="7.0438">
        <ele>1056.6</ele>
        <time>2019-12-12T10:23:52Z</time>
      </trkpt>
      <trkpt lat="43.77241" lon="7.0438">
        <ele>1056.6</ele>
        <time>2019-12-12T10:23:54Z</time>
      </trkpt>
      <trkpt lat="43.77241" lon="7.0438">
        <ele>1057.1</ele>
        <time>2019-12-12T10:23:56Z</time>
      </trkpt>
      <trkpt lat="43.77241" lon="7.04379">
        <ele>1057.1</ele>
        <time>2019-12-12T10:23:58Z</time>
      </trkpt>
      <trkpt lat="43.77242" lon="7.04378">
        <ele>1057.1</ele>
        <time>2019-12-12T10:24:00Z</time>
      </trkpt>
      <trkpt lat="43.77242" lon="7.04378">
        <ele>1057.6</ele>
        <time>2019-12-12T10:24:02Z</time>
      </trkpt>
      <trkpt lat="43.77242" lon="7.04379">
        <ele>1057.6</ele>
        <time>2019-12-12T10:24:04Z</time>
      </trkpt>
      <trkpt lat="43.77241" lon="7.0438">
        <ele>1057.1</ele>
        <time>2019-12-12T10:24:06Z</time>
      </trkpt>
      <trkpt lat="43.7724" lon="7.04382">
        <ele>1057.1</ele>
        <time>2019-12-12T10:24:08Z</time>
      </trkpt>
      <trkpt lat="43.77241" lon="7.04382">
        <ele>1057.1</ele>
        <time>2019-12-12T10:24:10Z</time>
      </trkpt>
      <trkpt lat="43.77241" lon="7.04382">
        <ele>1057.1</ele>
        <time>2019-12-12T10:24:12Z</time>
      </trkpt>
      <trkpt lat="43.77242" lon="7.04383">
        <ele>1057.1</ele>
        <time>2019-12-12T10:24:14Z</time>
      </trkpt>
      <trkpt lat="43.77242" lon="7.04383">
        <ele>1057.1</ele>
        <time>2019-12-12T10:24:16Z</time>
      </trkpt>
      <trkpt lat="43.77242" lon="7.04383">
        <ele>1057.1</ele>
        <time>2019-12-12T10:24:18Z</time>
      </trkpt>
      <trkpt lat="43.77241" lon="7.04383">
        <ele>1056.6</ele>
        <time>2019-12-12T10:24:20Z</time>
      </trkpt>
      <trkpt lat="43.77242" lon="7.04383">
        <ele>1056.1</ele>
        <time>2019-12-12T10:24:22Z</time>
      </trkpt>
      <trkpt lat="43.77241" lon="7.04383">
        <ele>1056.1</ele>
        <time>2019-12-12T10:24:24Z</time>
      </trkpt>
      <trkpt lat="43.77241" lon="7.04383">
        <ele>1056.1</ele>
        <time>2019-12-12T10:24:26Z</time>
      </trkpt>
      <trkpt lat="43.77242" lon="7.04383">
        <ele>1055.7</ele>
        <time>2019-12-12T10:24:28Z</time>
      </trkpt>
      <trkpt lat="43.77241" lon="7.04383">
        <ele>1055.7</ele>
        <time>2019-12-12T10:24:30Z</time>
      </trkpt>
      <trkpt lat="43.7724" lon="7.04382">
        <ele>1054.7</ele>
        <time>2019-12-12T10:24:32Z</time>
      </trkpt>
      <trkpt lat="43.77238" lon="7.04382">
        <ele>1054.2</ele>
        <time>2019-12-12T10:24:34Z</time>
      </trkpt>
      <trkpt lat="43.77236" lon="7.04383">
        <ele>1053.3</ele>
        <time>2019-12-12T10:24:36Z</time>
      </trkpt>
      <trkpt lat="43.77235" lon="7.04382">
        <ele>1052.3</ele>
        <time>2019-12-12T10:24:38Z</time>
      </trkpt>
      <trkpt lat="43.77236" lon="7.04382">
        <ele>1051.8</ele>
        <time>2019-12-12T10:24:40Z</time>
      </trkpt>
      <trkpt lat="43.77237" lon="7.04381">
        <ele>1051.3</ele>
        <time>2019-12-12T10:24:42Z</time>
      </trkpt>
      <trkpt lat="43.77237" lon="7.04381">
        <ele>1050.4</ele>
        <time>2019-12-12T10:24:44Z</time>
      </trkpt>
      <trkpt lat="43.77237" lon="7.0438">
        <ele>1049.9</ele>
        <time>2019-12-12T10:24:46Z</time>
      </trkpt>
      <trkpt lat="43.77237" lon="7.0438">
        <ele>1049.4</ele>
        <time>2019-12-12T10:24:48Z</time>
      </trkpt>
      <trkpt lat="43.77237" lon="7.0438">
        <ele>1048.9</ele>
        <time>2019-12-12T10:24:50Z</time>
      </trkpt>
      <trkpt lat="43.77237" lon="7.0438">
        <ele>1048.5</ele>
        <time>2019-12-12T10:24:52Z</time>
      </trkpt>
      <trkpt lat="43.77238" lon="7.04379">
        <ele>1048</ele>
        <time>2019-12-12T10:24:54Z</time>
      </trkpt>
      <trkpt lat="43.77238" lon="7.04379">
        <ele>1047.5</ele>
        <time>2019-12-12T10:24:56Z</time>
      </trkpt>
      <trkpt lat="43.77237" lon="7.04379">
        <ele>1047</ele>
        <time>2019-12-12T10:24:58Z</time>
      </trkpt>
      <trkpt lat="43.77237" lon="7.04379">
        <ele>1047</ele>
        <time>2019-12-12T10:25:00Z</time>
      </trkpt>
      <trkpt lat="43.77236" lon="7.04378">
        <ele>1046.5</ele>
        <time>2019-12-12T10:25:02Z</time>
      </trkpt>
      <trkpt lat="43.77235" lon="7.04376">
        <ele>1046.1</ele>
        <time>2019-12-12T10:25:04Z</time>
      </trkpt>
      <trkpt lat="43.77234" lon="7.04375">
        <ele>1045.1</ele>
        <time>2019-12-12T10:25:06Z</time>
      </trkpt>
      <trkpt lat="43.77233" lon="7.04372">
        <ele>1044.6</ele>
        <time>2019-12-12T10:25:08Z</time>
      </trkpt>
      <trkpt lat="43.77232" lon="7.04369">
        <ele>1044.6</ele>
        <time>2019-12-12T10:25:10Z</time>
      </trkpt>
      <trkpt lat="43.77233" lon="7.04369">
        <ele>1044.1</ele>
        <time>2019-12-12T10:25:12Z</time>
      </trkpt>
      <trkpt lat="43.77234" lon="7.04368">
        <ele>1043.6</ele>
        <time>2019-12-12T10:25:14Z</time>
      </trkpt>
      <trkpt lat="43.77235" lon="7.04366">
        <ele>1043.2</ele>
        <time>2019-12-12T10:25:16Z</time>
      </trkpt>
      <trkpt lat="43.77236" lon="7.04367">
        <ele>1042.7</ele>
        <time>2019-12-12T10:25:18Z</time>
      </trkpt>
      <trkpt lat="43.77237" lon="7.04367">
        <ele>1042.2</ele>
        <time>2019-12-12T10:25:20Z</time>
      </trkpt>
      <trkpt lat="43.77237" lon="7.04368">
        <ele>1041.7</ele>
        <time>2019-12-12T10:25:22Z</time>
      </trkpt>
      <trkpt lat="43.77239" lon="7.04368">
        <ele>1041.7</ele>
        <time>2019-12-12T10:25:24Z</time>
      </trkpt>
      <trkpt lat="43.7724" lon="7.04368">
        <ele>1041.2</ele>
        <time>2019-12-12T10:25:26Z</time>
      </trkpt>
      <trkpt lat="43.77241" lon="7.04368">
        <ele>1040.8</ele>
        <time>2019-12-12T10:25:28Z</time>
      </trkpt>
      <trkpt lat="43.77242" lon="7.04367">
        <ele>1040.3</ele>
        <time>2019-12-12T10:25:30Z</time>
      </trkpt>
      <trkpt lat="43.77244" lon="7.04367">
        <ele>1039.8</ele>
        <time>2019-12-12T10:25:32Z</time>
      </trkpt>
      <trkpt lat="43.77245" lon="7.04366">
        <ele>1039.8</ele>
        <time>2019-12-12T10:25:34Z</time>
      </trkpt>
      <trkpt lat="43.77245" lon="7.04366">
        <ele>1038.8</ele>
        <time>2019-12-12T10:25:36Z</time>
      </trkpt>
      <trkpt lat="43.77245" lon="7.04365">
        <ele>1038.4</ele>
        <time>2019-12-12T10:25:38Z</time>
      </trkpt>
      <trkpt lat="43.77244" lon="7.04363">
        <ele>1037.9</ele>
        <time>2019-12-12T10:25:40Z</time>
      </trkpt>
      <trkpt lat="43.77244" lon="7.04363">
        <ele>1037.4</ele>
        <time>2019-12-12T10:25:42Z</time>
      </trkpt>
      <trkpt lat="43.77242" lon="7.04362">
        <ele>1036.9</ele>
        <time>2019-12-12T10:25:44Z</time>
      </trkpt>
      <trkpt lat="43.77239" lon="7.04362">
        <ele>1036.4</ele>
        <time>2019-12-12T10:25:46Z</time>
      </trkpt>
      <trkpt lat="43.77237" lon="7.04362">
        <ele>1035.5</ele>
        <time>2019-12-12T10:25:48Z</time>
      </trkpt>
      <trkpt lat="43.77235" lon="7.04365">
        <ele>1035</ele>
        <time>2019-12-12T10:25:50Z</time>
      </trkpt>
      <trkpt lat="43.77235" lon="7.04367">
        <ele>1035</ele>
        <time>2019-12-12T10:25:52Z</time>
      </trkpt>
      <trkpt lat="43.77235" lon="7.04367">
        <ele>1035</ele>
        <time>2019-12-12T10:25:54Z</time>
      </trkpt>
      <trkpt lat="43.77235" lon="7.04367">
        <ele>1034.5</ele>
        <time>2019-12-12T10:25:56Z</time>
      </trkpt>
      <trkpt lat="43.77235" lon="7.04367">
        <ele>1034.5</ele>
        <time>2019-12-12T10:25:58Z</time>
      </trkpt>
      <trkpt lat="43.77235" lon="7.04367">
        <ele>1034.5</ele>
        <time>2019-12-12T10:26:00Z</time>
      </trkpt>
      <trkpt lat="43.77235" lon="7.04368">
        <ele>1034</ele>
        <time>2019-12-12T10:26:02Z</time>
      </trkpt>
      <trkpt lat="43.77235" lon="7.04368">
        <ele>1034</ele>
        <time>2019-12-12T10:26:04Z</time>
      </trkpt>
      <trkpt lat="43.77235" lon="7.04368">
        <ele>1034</ele>
        <time>2019-12-12T10:26:06Z</time>
      </trkpt>
      <trkpt lat="43.77236" lon="7.04368">
        <ele>1034</ele>
        <time>2019-12-12T10:26:08Z</time>
      </trkpt>
      <trkpt lat="43.77236" lon="7.04369">
        <ele>1034</ele>
        <time>2019-12-12T10:26:10Z</time>
      </trkpt>
      <trkpt lat="43.77237" lon="7.04368">
        <ele>1034.5</ele>
        <time>2019-12-12T10:26:12Z</time>
      </trkpt>
      <trkpt lat="43.77237" lon="7.04367">
        <ele>1035</ele>
        <time>2019-12-12T10:26:14Z</time>
      </trkpt>
      <trkpt lat="43.77238" lon="7.04366">
        <ele>1035.5</ele>
        <time>2019-12-12T10:26:16Z</time>
      </trkpt>
      <trkpt lat="43.7724" lon="7.04366">
        <ele>1036</ele>
        <time>2019-12-12T10:26:18Z</time>
      </trkpt>
      <trkpt lat="43.77242" lon="7.04365">
        <ele>1036.9</ele>
        <time>2019-12-12T10:26:20Z</time>
      </trkpt>
      <trkpt lat="43.77244" lon="7.04364">
        <ele>1037.4</ele>
        <time>2019-12-12T10:26:22Z</time>
      </trkpt>
      <trkpt lat="43.77247" lon="7.0436">
        <ele>1038.8</ele>
        <time>2019-12-12T10:26:24Z</time>
      </trkpt>
      <trkpt lat="43.7725" lon="7.04356">
        <ele>1039.3</ele>
        <time>2019-12-12T10:26:26Z</time>
      </trkpt>
      <trkpt lat="43.77252" lon="7.04356">
        <ele>1040.3</ele>
        <time>2019-12-12T10:26:28Z</time>
      </trkpt>
      <trkpt lat="43.77255" lon="7.04355">
        <ele>1040.8</ele>
        <time>2019-12-12T10:26:30Z</time>
      </trkpt>
      <trkpt lat="43.77258" lon="7.04353">
        <ele>1041.2</ele>
        <time>2019-12-12T10:26:32Z</time>
      </trkpt>
      <trkpt lat="43.77261" lon="7.04352">
        <ele>1041.2</ele>
        <time>2019-12-12T10:26:34Z</time>
      </trkpt>
      <trkpt lat="43.77263" lon="7.04349">
        <ele>1041.7</ele>
        <time>2019-12-12T10:26:36Z</time>
      </trkpt>
      <trkpt lat="43.77265" lon="7.04346">
        <ele>1041.7</ele>
        <time>2019-12-12T10:26:38Z</time>
      </trkpt>
      <trkpt lat="43.77268" lon="7.04342">
        <ele>1041.7</ele>
        <time>2019-12-12T10:26:40Z</time>
      </trkpt>
      <trkpt lat="43.77269" lon="7.0434">
        <ele>1041.7</ele>
        <time>2019-12-12T10:26:42Z</time>
      </trkpt>
      <trkpt lat="43.77271" lon="7.04337">
        <ele>1041.7</ele>
        <time>2019-12-12T10:26:44Z</time>
      </trkpt>
      <trkpt lat="43.77272" lon="7.04333">
        <ele>1042.7</ele>
        <time>2019-12-12T10:26:46Z</time>
      </trkpt>
      <trkpt lat="43.77274" lon="7.0433">
        <ele>1042.7</ele>
        <time>2019-12-12T10:26:48Z</time>
      </trkpt>
      <trkpt lat="43.77276" lon="7.0433">
        <ele>1043.2</ele>
        <time>2019-12-12T10:26:50Z</time>
      </trkpt>
      <trkpt lat="43.77276" lon="7.04329">
        <ele>1043.6</ele>
        <time>2019-12-12T10:26:52Z</time>
      </trkpt>
      <trkpt lat="43.77276" lon="7.04331">
        <ele>1043.6</ele>
        <time>2019-12-12T10:26:54Z</time>
      </trkpt>
      <trkpt lat="43.77277" lon="7.04329">
        <ele>1043.6</ele>
        <time>2019-12-12T10:26:56Z</time>
      </trkpt>
      <trkpt lat="43.77278" lon="7.04329">
        <ele>1043.6</ele>
        <time>2019-12-12T10:26:58Z</time>
      </trkpt>
      <trkpt lat="43.7728" lon="7.04329">
        <ele>1043.6</ele>
        <time>2019-12-12T10:27:00Z</time>
      </trkpt>
      <trkpt lat="43.77282" lon="7.04328">
        <ele>1044.1</ele>
        <time>2019-12-12T10:27:02Z</time>
      </trkpt>
      <trkpt lat="43.77283" lon="7.04327">
        <ele>1044.6</ele>
        <time>2019-12-12T10:27:04Z</time>
      </trkpt>
      <trkpt lat="43.77283" lon="7.04326">
        <ele>1045.1</ele>
        <time>2019-12-12T10:27:06Z</time>
      </trkpt>
      <trkpt lat="43.77284" lon="7.04324">
        <ele>1045.1</ele>
        <time>2019-12-12T10:27:08Z</time>
      </trkpt>
      <trkpt lat="43.77284" lon="7.04323">
        <ele>1045.6</ele>
        <time>2019-12-12T10:27:10Z</time>
      </trkpt>
      <trkpt lat="43.77284" lon="7.04319">
        <ele>1046.1</ele>
        <time>2019-12-12T10:27:12Z</time>
      </trkpt>
      <trkpt lat="43.77285" lon="7.04317">
        <ele>1046.1</ele>
        <time>2019-12-12T10:27:14Z</time>
      </trkpt>
      <trkpt lat="43.77285" lon="7.04315">
        <ele>1046.5</ele>
        <time>2019-12-12T10:27:16Z</time>
      </trkpt>
      <trkpt lat="43.77286" lon="7.04312">
        <ele>1047</ele>
        <time>2019-12-12T10:27:18Z</time>
      </trkpt>
      <trkpt lat="43.77289" lon="7.04311">
        <ele>1048</ele>
        <time>2019-12-12T10:27:20Z</time>
      </trkpt>
      <trkpt lat="43.77291" lon="7.04307">
        <ele>1048.5</ele>
        <time>2019-12-12T10:27:22Z</time>
      </trkpt>
      <trkpt lat="43.77292" lon="7.04304">
        <ele>1048.9</ele>
        <time>2019-12-12T10:27:24Z</time>
      </trkpt>
      <trkpt lat="43.77294" lon="7.04299">
        <ele>1049.4</ele>
        <time>2019-12-12T10:27:26Z</time>
      </trkpt>
      <trkpt lat="43.77296" lon="7.04296">
        <ele>1049.4</ele>
        <time>2019-12-12T10:27:28Z</time>
      </trkpt>
      <trkpt lat="43.77298" lon="7.04292">
        <ele>1049.9</ele>
        <time>2019-12-12T10:27:30Z</time>
      </trkpt>
      <trkpt lat="43.77299" lon="7.04288">
        <ele>1050.4</ele>
        <time>2019-12-12T10:27:32Z</time>
      </trkpt>
      <trkpt lat="43.773" lon="7.04285">
        <ele>1050.9</ele>
        <time>2019-12-12T10:27:34Z</time>
      </trkpt>
      <trkpt lat="43.77303" lon="7.04281">
        <ele>1051.3</ele>
        <time>2019-12-12T10:27:36Z</time>
      </trkpt>
      <trkpt lat="43.77304" lon="7.04277">
        <ele>1051.3</ele>
        <time>2019-12-12T10:27:38Z</time>
      </trkpt>
      <trkpt lat="43.77305" lon="7.04273">
        <ele>1051.8</ele>
        <time>2019-12-12T10:27:40Z</time>
      </trkpt>
      <trkpt lat="43.77305" lon="7.04269">
        <ele>1051.8</ele>
        <time>2019-12-12T10:27:42Z</time>
      </trkpt>
      <trkpt lat="43.77306" lon="7.04264">
        <ele>1052.3</ele>
        <time>2019-12-12T10:27:44Z</time>
      </trkpt>
      <trkpt lat="43.77307" lon="7.04261">
        <ele>1052.8</ele>
        <time>2019-12-12T10:27:46Z</time>
      </trkpt>
      <trkpt lat="43.77309" lon="7.04258">
        <ele>1053.7</ele>
        <time>2019-12-12T10:27:48Z</time>
      </trkpt>
      <trkpt lat="43.7731" lon="7.04254">
        <ele>1054.7</ele>
        <time>2019-12-12T10:27:50Z</time>
      </trkpt>
      <trkpt lat="43.7731" lon="7.04253">
        <ele>1055.7</ele>
        <time>2019-12-12T10:27:52Z</time>
      </trkpt>
      <trkpt lat="43.77311" lon="7.04251">
        <ele>1057.1</ele>
        <time>2019-12-12T10:27:54Z</time>
      </trkpt>
      <trkpt lat="43.77312" lon="7.04246">
        <ele>1058.1</ele>
        <time>2019-12-12T10:27:56Z</time>
      </trkpt>
      <trkpt lat="43.77313" lon="7.04244">
        <ele>1058.5</ele>
        <time>2019-12-12T10:27:58Z</time>
      </trkpt>
      <trkpt lat="43.77313" lon="7.04241">
        <ele>1060</ele>
        <time>2019-12-12T10:28:00Z</time>
      </trkpt>
      <trkpt lat="43.77314" lon="7.04238">
        <ele>1061.4</ele>
        <time>2019-12-12T10:28:02Z</time>
      </trkpt>
      <trkpt lat="43.77315" lon="7.04235">
        <ele>1062.4</ele>
        <time>2019-12-12T10:28:04Z</time>
      </trkpt>
      <trkpt lat="43.77316" lon="7.04232">
        <ele>1063.4</ele>
        <time>2019-12-12T10:28:06Z</time>
      </trkpt>
      <trkpt lat="43.77317" lon="7.04229">
        <ele>1064.3</ele>
        <time>2019-12-12T10:28:08Z</time>
      </trkpt>
      <trkpt lat="43.77318" lon="7.04226">
        <ele>1065.3</ele>
        <time>2019-12-12T10:28:10Z</time>
      </trkpt>
      <trkpt lat="43.77318" lon="7.04225">
        <ele>1066.2</ele>
        <time>2019-12-12T10:28:12Z</time>
      </trkpt>
      <trkpt lat="43.77319" lon="7.04225">
        <ele>1066.7</ele>
        <time>2019-12-12T10:28:14Z</time>
      </trkpt>
      <trkpt lat="43.77319" lon="7.04224">
        <ele>1066.2</ele>
        <time>2019-12-12T10:28:16Z</time>
      </trkpt>
      <trkpt lat="43.7732" lon="7.04224">
        <ele>1066.7</ele>
        <time>2019-12-12T10:28:18Z</time>
      </trkpt>
      <trkpt lat="43.7732" lon="7.04224">
        <ele>1065.8</ele>
        <time>2019-12-12T10:28:20Z</time>
      </trkpt>
      <trkpt lat="43.7732" lon="7.04224">
        <ele>1065.8</ele>
        <time>2019-12-12T10:28:22Z</time>
      </trkpt>
      <trkpt lat="43.77319" lon="7.04224">
        <ele>1066.2</ele>
        <time>2019-12-12T10:28:24Z</time>
      </trkpt>
      <trkpt lat="43.77318" lon="7.04224">
        <ele>1065.3</ele>
        <time>2019-12-12T10:28:26Z</time>
      </trkpt>
      <trkpt lat="43.77318" lon="7.04222">
        <ele>1065.3</ele>
        <time>2019-12-12T10:28:28Z</time>
      </trkpt>
      <trkpt lat="43.77318" lon="7.04222">
        <ele>1064.8</ele>
        <time>2019-12-12T10:28:30Z</time>
      </trkpt>
      <trkpt lat="43.77318" lon="7.04221">
        <ele>1064.8</ele>
        <time>2019-12-12T10:28:32Z</time>
      </trkpt>
      <trkpt lat="43.77318" lon="7.04221">
        <ele>1065.3</ele>
        <time>2019-12-12T10:28:34Z</time>
      </trkpt>
      <trkpt lat="43.77318" lon="7.04222">
        <ele>1065.3</ele>
        <time>2019-12-12T10:28:36Z</time>
      </trkpt>
      <trkpt lat="43.77318" lon="7.04222">
        <ele>1065.3</ele>
        <time>2019-12-12T10:28:38Z</time>
      </trkpt>
      <trkpt lat="43.77318" lon="7.04222">
        <ele>1065.3</ele>
        <time>2019-12-12T10:28:40Z</time>
      </trkpt>
      <trkpt lat="43.77318" lon="7.04222">
        <ele>1065.3</ele>
        <time>2019-12-12T10:28:42Z</time>
      </trkpt>
      <trkpt lat="43.77318" lon="7.04222">
        <ele>1065.3</ele>
        <time>2019-12-12T10:28:44Z</time>
      </trkpt>
      <trkpt lat="43.77318" lon="7.04222">
        <ele>1065.3</ele>
        <time>2019-12-12T10:28:46Z</time>
      </trkpt>
      <trkpt lat="43.77318" lon="7.04221">
        <ele>1065.3</ele>
        <time>2019-12-12T10:28:48Z</time>
      </trkpt>
      <trkpt lat="43.77318" lon="7.04221">
        <ele>1065.3</ele>
        <time>2019-12-12T10:28:50Z</time>
      </trkpt>
      <trkpt lat="43.77318" lon="7.04221">
        <ele>1065.3</ele>
        <time>2019-12-12T10:28:52Z</time>
      </trkpt>
      <trkpt lat="43.77318" lon="7.04221">
        <ele>1065.3</ele>
        <time>2019-12-12T10:28:54Z</time>
      </trkpt>
      <trkpt lat="43.77318" lon="7.0422">
        <ele>1065.3</ele>
        <time>2019-12-12T10:28:56Z</time>
      </trkpt>
      <trkpt lat="43.77318" lon="7.0422">
        <ele>1065.3</ele>
        <time>2019-12-12T10:28:58Z</time>
      </trkpt>
      <trkpt lat="43.77318" lon="7.0422">
        <ele>1065.3</ele>
        <time>2019-12-12T10:29:00Z</time>
      </trkpt>
      <trkpt lat="43.77318" lon="7.0422">
        <ele>1065.3</ele>
        <time>2019-12-12T10:29:02Z</time>
      </trkpt>
      <trkpt lat="43.77318" lon="7.0422">
        <ele>1065.3</ele>
        <time>2019-12-12T10:29:04Z</time>
      </trkpt>
      <trkpt lat="43.77318" lon="7.0422">
        <ele>1065.3</ele>
        <time>2019-12-12T10:29:06Z</time>
      </trkpt>
      <trkpt lat="43.77318" lon="7.0422">
        <ele>1065.3</ele>
        <time>2019-12-12T10:29:08Z</time>
      </trkpt>
      <trkpt lat="43.77318" lon="7.0422">
        <ele>1065.3</ele>
        <time>2019-12-12T10:29:10Z</time>
      </trkpt>
      <trkpt lat="43.77318" lon="7.0422">
        <ele>1065.3</ele>
        <time>2019-12-12T10:29:12Z</time>
      </trkpt>
      <trkpt lat="43.77318" lon="7.04219">
        <ele>1065.3</ele>
        <time>2019-12-12T10:29:14Z</time>
      </trkpt>
      <trkpt lat="43.77318" lon="7.04219">
        <ele>1065.3</ele>
        <time>2019-12-12T10:29:16Z</time>
      </trkpt>
      <trkpt lat="43.77318" lon="7.04219">
        <ele>1064.8</ele>
        <time>2019-12-12T10:29:18Z</time>
      </trkpt>
      <trkpt lat="43.77318" lon="7.04219">
        <ele>1064.8</ele>
        <time>2019-12-12T10:29:20Z</time>
      </trkpt>
      <trkpt lat="43.77318" lon="7.04219">
        <ele>1064.8</ele>
        <time>2019-12-12T10:29:22Z</time>
      </trkpt>
      <trkpt lat="43.77318" lon="7.04219">
        <ele>1064.8</ele>
        <time>2019-12-12T10:29:24Z</time>
      </trkpt>
      <trkpt lat="43.77318" lon="7.04218">
        <ele>1064.8</ele>
        <time>2019-12-12T10:29:26Z</time>
      </trkpt>
      <trkpt lat="43.77318" lon="7.04218">
        <ele>1064.8</ele>
        <time>2019-12-12T10:29:28Z</time>
      </trkpt>
      <trkpt lat="43.77318" lon="7.04219">
        <ele>1064.8</ele>
        <time>2019-12-12T10:29:30Z</time>
      </trkpt>
      <trkpt lat="43.77318" lon="7.04219">
        <ele>1064.8</ele>
        <time>2019-12-12T10:29:32Z</time>
      </trkpt>
      <trkpt lat="43.77317" lon="7.04219">
        <ele>1064.8</ele>
        <time>2019-12-12T10:29:34Z</time>
      </trkpt>
      <trkpt lat="43.77317" lon="7.04218">
        <ele>1064.8</ele>
        <time>2019-12-12T10:29:36Z</time>
      </trkpt>
      <trkpt lat="43.77317" lon="7.04218">
        <ele>1064.8</ele>
        <time>2019-12-12T10:29:38Z</time>
      </trkpt>
      <trkpt lat="43.77317" lon="7.04218">
        <ele>1064.8</ele>
        <time>2019-12-12T10:29:40Z</time>
      </trkpt>
      <trkpt lat="43.77317" lon="7.04217">
        <ele>1064.8</ele>
        <time>2019-12-12T10:29:42Z</time>
      </trkpt>
      <trkpt lat="43.77317" lon="7.04216">
        <ele>1064.8</ele>
        <time>2019-12-12T10:29:44Z</time>
      </trkpt>
      <trkpt lat="43.77317" lon="7.04216">
        <ele>1064.3</ele>
        <time>2019-12-12T10:29:46Z</time>
      </trkpt>
      <trkpt lat="43.77317" lon="7.04215">
        <ele>1064.3</ele>
        <time>2019-12-12T10:29:48Z</time>
      </trkpt>
      <trkpt lat="43.77317" lon="7.04215">
        <ele>1064.3</ele>
        <time>2019-12-12T10:29:50Z</time>
      </trkpt>
      <trkpt lat="43.77317" lon="7.04215">
        <ele>1064.3</ele>
        <time>2019-12-12T10:29:52Z</time>
      </trkpt>
      <trkpt lat="43.77317" lon="7.04214">
        <ele>1064.3</ele>
        <time>2019-12-12T10:29:54Z</time>
      </trkpt>
      <trkpt lat="43.77317" lon="7.04214">
        <ele>1064.3</ele>
        <time>2019-12-12T10:29:56Z</time>
      </trkpt>
      <trkpt lat="43.77316" lon="7.04214">
        <ele>1064.3</ele>
        <time>2019-12-12T10:29:58Z</time>
      </trkpt>
      <trkpt lat="43.77316" lon="7.04214">
        <ele>1064.3</ele>
        <time>2019-12-12T10:30:00Z</time>
      </trkpt>
      <trkpt lat="43.77314" lon="7.04214">
        <ele>1064.3</ele>
        <time>2019-12-12T10:30:02Z</time>
      </trkpt>
      <trkpt lat="43.77313" lon="7.04214">
        <ele>1064.3</ele>
        <time>2019-12-12T10:30:04Z</time>
      </trkpt>
      <trkpt lat="43.77312" lon="7.04214">
        <ele>1064.3</ele>
        <time>2019-12-12T10:30:06Z</time>
      </trkpt>
      <trkpt lat="43.77311" lon="7.04215">
        <ele>1064.3</ele>
        <time>2019-12-12T10:30:08Z</time>
      </trkpt>
      <trkpt lat="43.77311" lon="7.04217">
        <ele>1064.3</ele>
        <time>2019-12-12T10:30:10Z</time>
      </trkpt>
      <trkpt lat="43.7731" lon="7.04218">
        <ele>1064.3</ele>
        <time>2019-12-12T10:30:12Z</time>
      </trkpt>
      <trkpt lat="43.77312" lon="7.04219">
        <ele>1064.8</ele>
        <time>2019-12-12T10:30:14Z</time>
      </trkpt>
      <trkpt lat="43.77313" lon="7.0422">
        <ele>1064.8</ele>
        <time>2019-12-12T10:30:16Z</time>
      </trkpt>
      <trkpt lat="43.77313" lon="7.0422">
        <ele>1064.3</ele>
        <time>2019-12-12T10:30:18Z</time>
      </trkpt>
      <trkpt lat="43.77313" lon="7.04219">
        <ele>1064.3</ele>
        <time>2019-12-12T10:30:20Z</time>
      </trkpt>
      <trkpt lat="43.77313" lon="7.04219">
        <ele>1064.3</ele>
        <time>2019-12-12T10:30:22Z</time>
      </trkpt>
      <trkpt lat="43.77312" lon="7.04219">
        <ele>1064.3</ele>
        <time>2019-12-12T10:30:24Z</time>
      </trkpt>
      <trkpt lat="43.77312" lon="7.04219">
        <ele>1064.3</ele>
        <time>2019-12-12T10:30:26Z</time>
      </trkpt>
      <trkpt lat="43.77312" lon="7.04219">
        <ele>1064.3</ele>
        <time>2019-12-12T10:30:28Z</time>
      </trkpt>
      <trkpt lat="43.77312" lon="7.04219">
        <ele>1064.3</ele>
        <time>2019-12-12T10:30:30Z</time>
      </trkpt>
      <trkpt lat="43.77312" lon="7.04219">
        <ele>1064.3</ele>
        <time>2019-12-12T10:30:32Z</time>
      </trkpt>
      <trkpt lat="43.77312" lon="7.04219">
        <ele>1063.8</ele>
        <time>2019-12-12T10:30:34Z</time>
      </trkpt>
      <trkpt lat="43.77311" lon="7.04219">
        <ele>1063.8</ele>
        <time>2019-12-12T10:30:36Z</time>
      </trkpt>
      <trkpt lat="43.77311" lon="7.04219">
        <ele>1063.8</ele>
        <time>2019-12-12T10:30:38Z</time>
      </trkpt>
      <trkpt lat="43.77311" lon="7.04218">
        <ele>1063.8</ele>
        <time>2019-12-12T10:30:40Z</time>
      </trkpt>
      <trkpt lat="43.77311" lon="7.04218">
        <ele>1063.8</ele>
        <time>2019-12-12T10:30:42Z</time>
      </trkpt>
      <trkpt lat="43.77311" lon="7.04218">
        <ele>1063.8</ele>
        <time>2019-12-12T10:30:44Z</time>
      </trkpt>
      <trkpt lat="43.77311" lon="7.04218">
        <ele>1063.8</ele>
        <time>2019-12-12T10:30:46Z</time>
      </trkpt>
      <trkpt lat="43.77311" lon="7.04217">
        <ele>1063.8</ele>
        <time>2019-12-12T10:30:48Z</time>
      </trkpt>
      <trkpt lat="43.77311" lon="7.04217">
        <ele>1063.8</ele>
        <time>2019-12-12T10:30:50Z</time>
      </trkpt>
      <trkpt lat="43.77311" lon="7.04217">
        <ele>1063.8</ele>
        <time>2019-12-12T10:30:52Z</time>
      </trkpt>
      <trkpt lat="43.77311" lon="7.04217">
        <ele>1063.8</ele>
        <time>2019-12-12T10:30:54Z</time>
      </trkpt>
      <trkpt lat="43.77311" lon="7.04217">
        <ele>1063.8</ele>
        <time>2019-12-12T10:30:56Z</time>
      </trkpt>
      <trkpt lat="43.77311" lon="7.04218">
        <ele>1063.8</ele>
        <time>2019-12-12T10:30:58Z</time>
      </trkpt>
      <trkpt lat="43.77311" lon="7.04218">
        <ele>1063.8</ele>
        <time>2019-12-12T10:31:00Z</time>
      </trkpt>
      <trkpt lat="43.77312" lon="7.04218">
        <ele>1063.8</ele>
        <time>2019-12-12T10:31:02Z</time>
      </trkpt>
      <trkpt lat="43.77312" lon="7.04218">
        <ele>1063.8</ele>
        <time>2019-12-12T10:31:04Z</time>
      </trkpt>
      <trkpt lat="43.77312" lon="7.04218">
        <ele>1063.4</ele>
        <time>2019-12-12T10:31:06Z</time>
      </trkpt>
      <trkpt lat="43.77312" lon="7.04218">
        <ele>1063.4</ele>
        <time>2019-12-12T10:31:08Z</time>
      </trkpt>
      <trkpt lat="43.77312" lon="7.04218">
        <ele>1063.4</ele>
        <time>2019-12-12T10:31:10Z</time>
      </trkpt>
      <trkpt lat="43.77313" lon="7.04218">
        <ele>1063.4</ele>
        <time>2019-12-12T10:31:12Z</time>
      </trkpt>
      <trkpt lat="43.77313" lon="7.04218">
        <ele>1063.4</ele>
        <time>2019-12-12T10:31:14Z</time>
      </trkpt>
      <trkpt lat="43.77314" lon="7.04219">
        <ele>1063.4</ele>
        <time>2019-12-12T10:31:16Z</time>
      </trkpt>
      <trkpt lat="43.77317" lon="7.04217">
        <ele>1063.4</ele>
        <time>2019-12-12T10:31:18Z</time>
      </trkpt>
      <trkpt lat="43.77321" lon="7.04215">
        <ele>1063.4</ele>
        <time>2019-12-12T10:31:20Z</time>
      </trkpt>
      <trkpt lat="43.77324" lon="7.04216">
        <ele>1063.4</ele>
        <time>2019-12-12T10:31:22Z</time>
      </trkpt>
      <trkpt lat="43.77329" lon="7.04215">
        <ele>1063.8</ele>
        <time>2019-12-12T10:31:24Z</time>
      </trkpt>
      <trkpt lat="43.77332" lon="7.04214">
        <ele>1063.4</ele>
        <time>2019-12-12T10:31:26Z</time>
      </trkpt>
      <trkpt lat="43.77336" lon="7.04212">
        <ele>1063.4</ele>
        <time>2019-12-12T10:31:28Z</time>
      </trkpt>
      <trkpt lat="43.7734" lon="7.0421">
        <ele>1063.4</ele>
        <time>2019-12-12T10:31:30Z</time>
      </trkpt>
      <trkpt lat="43.77345" lon="7.04205">
        <ele>1063.4</ele>
        <time>2019-12-12T10:31:32Z</time>
      </trkpt>
      <trkpt lat="43.77348" lon="7.04198">
        <ele>1063.4</ele>
        <time>2019-12-12T10:31:34Z</time>
      </trkpt>
      <trkpt lat="43.77352" lon="7.0419">
        <ele>1062.9</ele>
        <time>2019-12-12T10:31:36Z</time>
      </trkpt>
      <trkpt lat="43.77357" lon="7.04182">
        <ele>1063.4</ele>
        <time>2019-12-12T10:31:38Z</time>
      </trkpt>
      <trkpt lat="43.77363" lon="7.04176">
        <ele>1063.4</ele>
        <time>2019-12-12T10:31:40Z</time>
      </trkpt>
      <trkpt lat="43.77368" lon="7.04169">
        <ele>1063.4</ele>
        <time>2019-12-12T10:31:42Z</time>
      </trkpt>
      <trkpt lat="43.77374" lon="7.04163">
        <ele>1062.9</ele>
        <time>2019-12-12T10:31:44Z</time>
      </trkpt>
      <trkpt lat="43.7738" lon="7.04157">
        <ele>1063.4</ele>
        <time>2019-12-12T10:31:46Z</time>
      </trkpt>
      <trkpt lat="43.77385" lon="7.04152">
        <ele>1063.4</ele>
        <time>2019-12-12T10:31:48Z</time>
      </trkpt>
      <trkpt lat="43.77391" lon="7.04148">
        <ele>1062.9</ele>
        <time>2019-12-12T10:31:50Z</time>
      </trkpt>
      <trkpt lat="43.77398" lon="7.04142">
        <ele>1062.9</ele>
        <time>2019-12-12T10:31:52Z</time>
      </trkpt>
      <trkpt lat="43.77406" lon="7.04136">
        <ele>1062.9</ele>
        <time>2019-12-12T10:31:54Z</time>
      </trkpt>
      <trkpt lat="43.77414" lon="7.0413">
        <ele>1062.4</ele>
        <time>2019-12-12T10:31:56Z</time>
      </trkpt>
      <trkpt lat="43.77422" lon="7.04126">
        <ele>1062.4</ele>
        <time>2019-12-12T10:31:58Z</time>
      </trkpt>
      <trkpt lat="43.77428" lon="7.04124">
        <ele>1062.4</ele>
        <time>2019-12-12T10:32:00Z</time>
      </trkpt>
      <trkpt lat="43.77435" lon="7.04122">
        <ele>1062.4</ele>
        <time>2019-12-12T10:32:02Z</time>
      </trkpt>
      <trkpt lat="43.77444" lon="7.04119">
        <ele>1062.4</ele>
        <time>2019-12-12T10:32:04Z</time>
      </trkpt>
      <trkpt lat="43.77452" lon="7.04115">
        <ele>1062.4</ele>
        <time>2019-12-12T10:32:06Z</time>
      </trkpt>
      <trkpt lat="43.77461" lon="7.04113">
        <ele>1061.9</ele>
        <time>2019-12-12T10:32:08Z</time>
      </trkpt>
      <trkpt lat="43.7747" lon="7.04113">
        <ele>1061.9</ele>
        <time>2019-12-12T10:32:10Z</time>
      </trkpt>
      <trkpt lat="43.77478" lon="7.04112">
        <ele>1061.4</ele>
        <time>2019-12-12T10:32:12Z</time>
      </trkpt>
      <trkpt lat="43.77486" lon="7.04112">
        <ele>1060.5</ele>
        <time>2019-12-12T10:32:14Z</time>
      </trkpt>
      <trkpt lat="43.77492" lon="7.04111">
        <ele>1060</ele>
        <time>2019-12-12T10:32:16Z</time>
      </trkpt>
      <trkpt lat="43.775" lon="7.0411">
        <ele>1060</ele>
        <time>2019-12-12T10:32:18Z</time>
      </trkpt>
      <trkpt lat="43.77508" lon="7.0411">
        <ele>1059.5</ele>
        <time>2019-12-12T10:32:20Z</time>
      </trkpt>
      <trkpt lat="43.77516" lon="7.04112">
        <ele>1059.5</ele>
        <time>2019-12-12T10:32:22Z</time>
      </trkpt>
      <trkpt lat="43.77524" lon="7.04114">
        <ele>1059</ele>
        <time>2019-12-12T10:32:24Z</time>
      </trkpt>
      <trkpt lat="43.77532" lon="7.04112">
        <ele>1059</ele>
        <time>2019-12-12T10:32:26Z</time>
      </trkpt>
      <trkpt lat="43.77541" lon="7.04109">
        <ele>1059</ele>
        <time>2019-12-12T10:32:28Z</time>
      </trkpt>
      <trkpt lat="43.77549" lon="7.04105">
        <ele>1059.5</ele>
        <time>2019-12-12T10:32:30Z</time>
      </trkpt>
      <trkpt lat="43.77557" lon="7.04102">
        <ele>1058.1</ele>
        <time>2019-12-12T10:32:32Z</time>
      </trkpt>
      <trkpt lat="43.77567" lon="7.04097">
        <ele>1057.6</ele>
        <time>2019-12-12T10:32:34Z</time>
      </trkpt>
      <trkpt lat="43.77577" lon="7.04093">
        <ele>1057.6</ele>
        <time>2019-12-12T10:32:36Z</time>
      </trkpt>
      <trkpt lat="43.77587" lon="7.04088">
        <ele>1058.1</ele>
        <time>2019-12-12T10:32:38Z</time>
      </trkpt>
      <trkpt lat="43.77597" lon="7.04082">
        <ele>1058.1</ele>
        <time>2019-12-12T10:32:40Z</time>
      </trkpt>
      <trkpt lat="43.77607" lon="7.04075">
        <ele>1058.1</ele>
        <time>2019-12-12T10:32:42Z</time>
      </trkpt>
      <trkpt lat="43.77616" lon="7.04066">
        <ele>1058.1</ele>
        <time>2019-12-12T10:32:44Z</time>
      </trkpt>
      <trkpt lat="43.77624" lon="7.04057">
        <ele>1058.1</ele>
        <time>2019-12-12T10:32:46Z</time>
      </trkpt>
      <trkpt lat="43.77632" lon="7.0405">
        <ele>1058.5</ele>
        <time>2019-12-12T10:32:48Z</time>
      </trkpt>
      <trkpt lat="43.77638" lon="7.04044">
        <ele>1059</ele>
        <time>2019-12-12T10:32:50Z</time>
      </trkpt>
      <trkpt lat="43.77644" lon="7.04038">
        <ele>1059.5</ele>
        <time>2019-12-12T10:32:52Z</time>
      </trkpt>
      <trkpt lat="43.77652" lon="7.04034">
        <ele>1060</ele>
        <time>2019-12-12T10:32:54Z</time>
      </trkpt>
      <trkpt lat="43.7766" lon="7.04031">
        <ele>1061</ele>
        <time>2019-12-12T10:32:56Z</time>
      </trkpt>
      <trkpt lat="43.77667" lon="7.04029">
        <ele>1061.4</ele>
        <time>2019-12-12T10:32:58Z</time>
      </trkpt>
      <trkpt lat="43.77677" lon="7.04028">
        <ele>1061</ele>
        <time>2019-12-12T10:33:00Z</time>
      </trkpt>
      <trkpt lat="43.77685" lon="7.04027">
        <ele>1060.5</ele>
        <time>2019-12-12T10:33:02Z</time>
      </trkpt>
      <trkpt lat="43.77693" lon="7.04023">
        <ele>1058.5</ele>
        <time>2019-12-12T10:33:04Z</time>
      </trkpt>
      <trkpt lat="43.77702" lon="7.04019">
        <ele>1058.5</ele>
        <time>2019-12-12T10:33:06Z</time>
      </trkpt>
      <trkpt lat="43.77712" lon="7.04013">
        <ele>1058.1</ele>
        <time>2019-12-12T10:33:08Z</time>
      </trkpt>
      <trkpt lat="43.77722" lon="7.04007">
        <ele>1058.1</ele>
        <time>2019-12-12T10:33:10Z</time>
      </trkpt>
      <trkpt lat="43.77732" lon="7.04004">
        <ele>1058.1</ele>
        <time>2019-12-12T10:33:12Z</time>
      </trkpt>
      <trkpt lat="43.77742" lon="7.04002">
        <ele>1058.5</ele>
        <time>2019-12-12T10:33:14Z</time>
      </trkpt>
      <trkpt lat="43.77749" lon="7.04">
        <ele>1059.5</ele>
        <time>2019-12-12T10:33:16Z</time>
      </trkpt>
      <trkpt lat="43.77756" lon="7.04">
        <ele>1061</ele>
        <time>2019-12-12T10:33:18Z</time>
      </trkpt>
      <trkpt lat="43.77761" lon="7.03999">
        <ele>1062.4</ele>
        <time>2019-12-12T10:33:20Z</time>
      </trkpt>
      <trkpt lat="43.77764" lon="7.03999">
        <ele>1063.4</ele>
        <time>2019-12-12T10:33:22Z</time>
      </trkpt>
      <trkpt lat="43.7777" lon="7.04">
        <ele>1061.9</ele>
        <time>2019-12-12T10:33:24Z</time>
      </trkpt>
      <trkpt lat="43.77776" lon="7.03999">
        <ele>1062.4</ele>
        <time>2019-12-12T10:33:26Z</time>
      </trkpt>
      <trkpt lat="43.7778" lon="7.03998">
        <ele>1063.4</ele>
        <time>2019-12-12T10:33:28Z</time>
      </trkpt>
      <trkpt lat="43.77785" lon="7.03997">
        <ele>1064.3</ele>
        <time>2019-12-12T10:33:30Z</time>
      </trkpt>
      <trkpt lat="43.77789" lon="7.03995">
        <ele>1065.3</ele>
        <time>2019-12-12T10:33:32Z</time>
      </trkpt>
      <trkpt lat="43.77794" lon="7.03993">
        <ele>1064.3</ele>
        <time>2019-12-12T10:33:34Z</time>
      </trkpt>
      <trkpt lat="43.77798" lon="7.03991">
        <ele>1063.4</ele>
        <time>2019-12-12T10:33:36Z</time>
      </trkpt>
      <trkpt lat="43.77802" lon="7.03987">
        <ele>1062.4</ele>
        <time>2019-12-12T10:33:38Z</time>
      </trkpt>
      <trkpt lat="43.77806" lon="7.03984">
        <ele>1062.4</ele>
        <time>2019-12-12T10:33:40Z</time>
      </trkpt>
      <trkpt lat="43.77809" lon="7.03983">
        <ele>1062.9</ele>
        <time>2019-12-12T10:33:42Z</time>
      </trkpt>
      <trkpt lat="43.77812" lon="7.03982">
        <ele>1063.4</ele>
        <time>2019-12-12T10:33:44Z</time>
      </trkpt>
      <trkpt lat="43.77816" lon="7.03982">
        <ele>1064.3</ele>
        <time>2019-12-12T10:33:46Z</time>
      </trkpt>
      <trkpt lat="43.77819" lon="7.03983">
        <ele>1065.3</ele>
        <time>2019-12-12T10:33:48Z</time>
      </trkpt>
      <trkpt lat="43.77823" lon="7.03984">
        <ele>1066.7</ele>
        <time>2019-12-12T10:33:50Z</time>
      </trkpt>
      <trkpt lat="43.77827" lon="7.03985">
        <ele>1067.7</ele>
        <time>2019-12-12T10:33:52Z</time>
      </trkpt>
      <trkpt lat="43.77833" lon="7.03986">
        <ele>1068.2</ele>
        <time>2019-12-12T10:33:54Z</time>
      </trkpt>
      <trkpt lat="43.77838" lon="7.03986">
        <ele>1069.1</ele>
        <time>2019-12-12T10:33:56Z</time>
      </trkpt>
      <trkpt lat="43.77844" lon="7.03986">
        <ele>1068.2</ele>
        <time>2019-12-12T10:33:58Z</time>
      </trkpt>
      <trkpt lat="43.77849" lon="7.03986">
        <ele>1068.2</ele>
        <time>2019-12-12T10:34:00Z</time>
      </trkpt>
      <trkpt lat="43.77853" lon="7.03987">
        <ele>1068.6</ele>
        <time>2019-12-12T10:34:02Z</time>
      </trkpt>
      <trkpt lat="43.77857" lon="7.03989">
        <ele>1070.6</ele>
        <time>2019-12-12T10:34:04Z</time>
      </trkpt>
      <trkpt lat="43.77861" lon="7.03991">
        <ele>1072</ele>
        <time>2019-12-12T10:34:06Z</time>
      </trkpt>
      <trkpt lat="43.77865" lon="7.03991">
        <ele>1073</ele>
        <time>2019-12-12T10:34:08Z</time>
      </trkpt>
      <trkpt lat="43.77869" lon="7.03993">
        <ele>1073.9</ele>
        <time>2019-12-12T10:34:10Z</time>
      </trkpt>
      <trkpt lat="43.77874" lon="7.03993">
        <ele>1074.4</ele>
        <time>2019-12-12T10:34:12Z</time>
      </trkpt>
      <trkpt lat="43.77878" lon="7.03994">
        <ele>1075.4</ele>
        <time>2019-12-12T10:34:14Z</time>
      </trkpt>
      <trkpt lat="43.77882" lon="7.03994">
        <ele>1074.4</ele>
        <time>2019-12-12T10:34:16Z</time>
      </trkpt>
      <trkpt lat="43.77887" lon="7.03995">
        <ele>1074.4</ele>
        <time>2019-12-12T10:34:18Z</time>
      </trkpt>
      <trkpt lat="43.77891" lon="7.03997">
        <ele>1075.4</ele>
        <time>2019-12-12T10:34:20Z</time>
      </trkpt>
      <trkpt lat="43.77895" lon="7.03998">
        <ele>1075.9</ele>
        <time>2019-12-12T10:34:22Z</time>
      </trkpt>
      <trkpt lat="43.779" lon="7.03997">
        <ele>1075.9</ele>
        <time>2019-12-12T10:34:24Z</time>
      </trkpt>
      <trkpt lat="43.77903" lon="7.03999">
        <ele>1077.3</ele>
        <time>2019-12-12T10:34:26Z</time>
      </trkpt>
      <trkpt lat="43.77908" lon="7.03999">
        <ele>1077.8</ele>
        <time>2019-12-12T10:34:28Z</time>
      </trkpt>
      <trkpt lat="43.77913" lon="7.03998">
        <ele>1077.8</ele>
        <time>2019-12-12T10:34:30Z</time>
      </trkpt>
      <trkpt lat="43.77917" lon="7.03999">
        <ele>1078.3</ele>
        <time>2019-12-12T10:34:32Z</time>
      </trkpt>
      <trkpt lat="43.77922" lon="7.03999">
        <ele>1078.7</ele>
        <time>2019-12-12T10:34:34Z</time>
      </trkpt>
      <trkpt lat="43.77927" lon="7.03998">
        <ele>1077.8</ele>
        <time>2019-12-12T10:34:36Z</time>
      </trkpt>
      <trkpt lat="43.77933" lon="7.04">
        <ele>1077.3</ele>
        <time>2019-12-12T10:34:38Z</time>
      </trkpt>
      <trkpt lat="43.77939" lon="7.04001">
        <ele>1076.3</ele>
        <time>2019-12-12T10:34:40Z</time>
      </trkpt>
      <trkpt lat="43.77945" lon="7.04002">
        <ele>1075.4</ele>
        <time>2019-12-12T10:34:42Z</time>
      </trkpt>
      <trkpt lat="43.7795" lon="7.04004">
        <ele>1074.9</ele>
        <time>2019-12-12T10:34:44Z</time>
      </trkpt>
      <trkpt lat="43.77955" lon="7.04007">
        <ele>1075.4</ele>
        <time>2019-12-12T10:34:46Z</time>
      </trkpt>
      <trkpt lat="43.7796" lon="7.04009">
        <ele>1075.4</ele>
        <time>2019-12-12T10:34:48Z</time>
      </trkpt>
      <trkpt lat="43.77966" lon="7.04011">
        <ele>1075.9</ele>
        <time>2019-12-12T10:34:50Z</time>
      </trkpt>
      <trkpt lat="43.77972" lon="7.04011">
        <ele>1074.9</ele>
        <time>2019-12-12T10:34:52Z</time>
      </trkpt>
      <trkpt lat="43.77978" lon="7.04011">
        <ele>1074.4</ele>
        <time>2019-12-12T10:34:54Z</time>
      </trkpt>
      <trkpt lat="43.77984" lon="7.04012">
        <ele>1074.9</ele>
        <time>2019-12-12T10:34:56Z</time>
      </trkpt>
      <trkpt lat="43.77991" lon="7.04012">
        <ele>1074.9</ele>
        <time>2019-12-12T10:34:58Z</time>
      </trkpt>
      <trkpt lat="43.77998" lon="7.04011">
        <ele>1074.9</ele>
        <time>2019-12-12T10:35:00Z</time>
      </trkpt>
      <trkpt lat="43.78003" lon="7.04009">
        <ele>1074.9</ele>
        <time>2019-12-12T10:35:02Z</time>
      </trkpt>
      <trkpt lat="43.78009" lon="7.04009">
        <ele>1075.4</ele>
        <time>2019-12-12T10:35:04Z</time>
      </trkpt>
      <trkpt lat="43.78014" lon="7.04008">
        <ele>1075.9</ele>
        <time>2019-12-12T10:35:06Z</time>
      </trkpt>
      <trkpt lat="43.78019" lon="7.04006">
        <ele>1076.8</ele>
        <time>2019-12-12T10:35:08Z</time>
      </trkpt>
      <trkpt lat="43.78024" lon="7.04003">
        <ele>1075.9</ele>
        <time>2019-12-12T10:35:10Z</time>
      </trkpt>
      <trkpt lat="43.78031" lon="7.04001">
        <ele>1075.9</ele>
        <time>2019-12-12T10:35:12Z</time>
      </trkpt>
      <trkpt lat="43.78035" lon="7.03999">
        <ele>1075.9</ele>
        <time>2019-12-12T10:35:14Z</time>
      </trkpt>
      <trkpt lat="43.7804" lon="7.03999">
        <ele>1075.9</ele>
        <time>2019-12-12T10:35:16Z</time>
      </trkpt>
      <trkpt lat="43.78045" lon="7.03999">
        <ele>1075.9</ele>
        <time>2019-12-12T10:35:18Z</time>
      </trkpt>
      <trkpt lat="43.78051" lon="7.04">
        <ele>1076.3</ele>
        <time>2019-12-12T10:35:20Z</time>
      </trkpt>
      <trkpt lat="43.78057" lon="7.04002">
        <ele>1076.3</ele>
        <time>2019-12-12T10:35:22Z</time>
      </trkpt>
      <trkpt lat="43.78063" lon="7.04005">
        <ele>1076.3</ele>
        <time>2019-12-12T10:35:24Z</time>
      </trkpt>
      <trkpt lat="43.78068" lon="7.04007">
        <ele>1076.3</ele>
        <time>2019-12-12T10:35:26Z</time>
      </trkpt>
      <trkpt lat="43.78072" lon="7.04011">
        <ele>1075.9</ele>
        <time>2019-12-12T10:35:28Z</time>
      </trkpt>
      <trkpt lat="43.78074" lon="7.04016">
        <ele>1075.4</ele>
        <time>2019-12-12T10:35:30Z</time>
      </trkpt>
      <trkpt lat="43.7808" lon="7.04021">
        <ele>1075.4</ele>
        <time>2019-12-12T10:35:32Z</time>
      </trkpt>
      <trkpt lat="43.78084" lon="7.04024">
        <ele>1075.4</ele>
        <time>2019-12-12T10:35:34Z</time>
      </trkpt>
      <trkpt lat="43.7809" lon="7.04028">
        <ele>1074.9</ele>
        <time>2019-12-12T10:35:36Z</time>
      </trkpt>
      <trkpt lat="43.78092" lon="7.04032">
        <ele>1074.9</ele>
        <time>2019-12-12T10:35:38Z</time>
      </trkpt>
      <trkpt lat="43.78097" lon="7.04035">
        <ele>1074.9</ele>
        <time>2019-12-12T10:35:40Z</time>
      </trkpt>
      <trkpt lat="43.78102" lon="7.04037">
        <ele>1075.4</ele>
        <time>2019-12-12T10:35:42Z</time>
      </trkpt>
      <trkpt lat="43.78105" lon="7.04039">
        <ele>1075.9</ele>
        <time>2019-12-12T10:35:44Z</time>
      </trkpt>
      <trkpt lat="43.78109" lon="7.04039">
        <ele>1075.9</ele>
        <time>2019-12-12T10:35:46Z</time>
      </trkpt>
      <trkpt lat="43.78113" lon="7.04041">
        <ele>1075.4</ele>
        <time>2019-12-12T10:35:48Z</time>
      </trkpt>
      <trkpt lat="43.78117" lon="7.04042">
        <ele>1075.4</ele>
        <time>2019-12-12T10:35:50Z</time>
      </trkpt>
      <trkpt lat="43.78123" lon="7.0404">
        <ele>1075.9</ele>
        <time>2019-12-12T10:35:52Z</time>
      </trkpt>
      <trkpt lat="43.7813" lon="7.04038">
        <ele>1075.9</ele>
        <time>2019-12-12T10:35:54Z</time>
      </trkpt>
      <trkpt lat="43.78137" lon="7.04038">
        <ele>1075.4</ele>
        <time>2019-12-12T10:35:56Z</time>
      </trkpt>
      <trkpt lat="43.78146" lon="7.04037">
        <ele>1074.4</ele>
        <time>2019-12-12T10:35:58Z</time>
      </trkpt>
      <trkpt lat="43.78156" lon="7.0404">
        <ele>1072</ele>
        <time>2019-12-12T10:36:00Z</time>
      </trkpt>
      <trkpt lat="43.78162" lon="7.04045">
        <ele>1071.5</ele>
        <time>2019-12-12T10:36:02Z</time>
      </trkpt>
      <trkpt lat="43.78167" lon="7.04048">
        <ele>1070.1</ele>
        <time>2019-12-12T10:36:04Z</time>
      </trkpt>
      <trkpt lat="43.78173" lon="7.04053">
        <ele>1070.6</ele>
        <time>2019-12-12T10:36:06Z</time>
      </trkpt>
      <trkpt lat="43.78178" lon="7.04055">
        <ele>1071</ele>
        <time>2019-12-12T10:36:08Z</time>
      </trkpt>
      <trkpt lat="43.78182" lon="7.04057">
        <ele>1071.5</ele>
        <time>2019-12-12T10:36:10Z</time>
      </trkpt>
      <trkpt lat="43.78187" lon="7.04059">
        <ele>1071.5</ele>
        <time>2019-12-12T10:36:12Z</time>
      </trkpt>
      <trkpt lat="43.78194" lon="7.04063">
        <ele>1071.5</ele>
        <time>2019-12-12T10:36:14Z</time>
      </trkpt>
      <trkpt lat="43.78202" lon="7.04066">
        <ele>1071.5</ele>
        <time>2019-12-12T10:36:16Z</time>
      </trkpt>
      <trkpt lat="43.78211" lon="7.04069">
        <ele>1070.6</ele>
        <time>2019-12-12T10:36:18Z</time>
      </trkpt>
      <trkpt lat="43.7822" lon="7.04072">
        <ele>1069.6</ele>
        <time>2019-12-12T10:36:20Z</time>
      </trkpt>
      <trkpt lat="43.78225" lon="7.04075">
        <ele>1069.1</ele>
        <time>2019-12-12T10:36:22Z</time>
      </trkpt>
      <trkpt lat="43.78228" lon="7.04077">
        <ele>1068.2</ele>
        <time>2019-12-12T10:36:24Z</time>
      </trkpt>
      <trkpt lat="43.78229" lon="7.04079">
        <ele>1066.7</ele>
        <time>2019-12-12T10:36:26Z</time>
      </trkpt>
      <trkpt lat="43.7823" lon="7.0408">
        <ele>1065.8</ele>
        <time>2019-12-12T10:36:28Z</time>
      </trkpt>
      <trkpt lat="43.78231" lon="7.0408">
        <ele>1065.3</ele>
        <time>2019-12-12T10:36:30Z</time>
      </trkpt>
      <trkpt lat="43.78231" lon="7.0408">
        <ele>1065.8</ele>
        <time>2019-12-12T10:36:32Z</time>
      </trkpt>
      <trkpt lat="43.78231" lon="7.0408">
        <ele>1065.8</ele>
        <time>2019-12-12T10:36:34Z</time>
      </trkpt>
      <trkpt lat="43.78231" lon="7.0408">
        <ele>1065.8</ele>
        <time>2019-12-12T10:36:36Z</time>
      </trkpt>
      <trkpt lat="43.78231" lon="7.0408">
        <ele>1065.8</ele>
        <time>2019-12-12T10:36:38Z</time>
      </trkpt>
      <trkpt lat="43.78231" lon="7.0408">
        <ele>1065.8</ele>
        <time>2019-12-12T10:36:40Z</time>
      </trkpt>
      <trkpt lat="43.78231" lon="7.0408">
        <ele>1065.8</ele>
        <time>2019-12-12T10:36:42Z</time>
      </trkpt>
      <trkpt lat="43.78231" lon="7.0408">
        <ele>1065.8</ele>
        <time>2019-12-12T10:36:44Z</time>
      </trkpt>
      <trkpt lat="43.78231" lon="7.0408">
        <ele>1065.8</ele>
        <time>2019-12-12T10:36:46Z</time>
      </trkpt>
      <trkpt lat="43.78231" lon="7.0408">
        <ele>1065.8</ele>
        <time>2019-12-12T10:36:48Z</time>
      </trkpt>
      <trkpt lat="43.78231" lon="7.0408">
        <ele>1065.8</ele>
        <time>2019-12-12T10:36:50Z</time>
      </trkpt>
      <trkpt lat="43.78231" lon="7.0408">
        <ele>1065.8</ele>
        <time>2019-12-12T10:36:52Z</time>
      </trkpt>
      <trkpt lat="43.78231" lon="7.0408">
        <ele>1065.8</ele>
        <time>2019-12-12T10:36:54Z</time>
      </trkpt>
      <trkpt lat="43.78231" lon="7.0408">
        <ele>1065.8</ele>
        <time>2019-12-12T10:36:56Z</time>
      </trkpt>
      <trkpt lat="43.78231" lon="7.0408">
        <ele>1065.8</ele>
        <time>2019-12-12T10:36:58Z</time>
      </trkpt>
      <trkpt lat="43.78231" lon="7.0408">
        <ele>1065.8</ele>
        <time>2019-12-12T10:37:00Z</time>
      </trkpt>
      <trkpt lat="43.78231" lon="7.0408">
        <ele>1065.8</ele>
        <time>2019-12-12T10:37:02Z</time>
      </trkpt>
      <trkpt lat="43.78231" lon="7.0408">
        <ele>1065.8</ele>
        <time>2019-12-12T10:37:04Z</time>
      </trkpt>
      <trkpt lat="43.78231" lon="7.0408">
        <ele>1065.8</ele>
        <time>2019-12-12T10:37:06Z</time>
      </trkpt>
      <trkpt lat="43.78231" lon="7.0408">
        <ele>1065.8</ele>
        <time>2019-12-12T10:37:08Z</time>
      </trkpt>
      <trkpt lat="43.78231" lon="7.0408">
        <ele>1065.8</ele>
        <time>2019-12-12T10:37:10Z</time>
      </trkpt>
      <trkpt lat="43.78231" lon="7.0408">
        <ele>1065.8</ele>
        <time>2019-12-12T10:37:12Z</time>
      </trkpt>
      <trkpt lat="43.78231" lon="7.0408">
        <ele>1065.8</ele>
        <time>2019-12-12T10:37:14Z</time>
      </trkpt>
      <trkpt lat="43.78231" lon="7.0408">
        <ele>1065.8</ele>
        <time>2019-12-12T10:37:16Z</time>
      </trkpt>
      <trkpt lat="43.78231" lon="7.04081">
        <ele>1065.8</ele>
        <time>2019-12-12T10:37:18Z</time>
      </trkpt>
      <trkpt lat="43.78231" lon="7.04081">
        <ele>1065.8</ele>
        <time>2019-12-12T10:37:20Z</time>
      </trkpt>
      <trkpt lat="43.78231" lon="7.04081">
        <ele>1065.8</ele>
        <time>2019-12-12T10:37:22Z</time>
      </trkpt>
      <trkpt lat="43.78231" lon="7.04081">
        <ele>1065.8</ele>
        <time>2019-12-12T10:37:24Z</time>
      </trkpt>
      <trkpt lat="43.78231" lon="7.04081">
        <ele>1065.8</ele>
        <time>2019-12-12T10:37:26Z</time>
      </trkpt>
      <trkpt lat="43.78231" lon="7.04081">
        <ele>1065.8</ele>
        <time>2019-12-12T10:37:28Z</time>
      </trkpt>
      <trkpt lat="43.78231" lon="7.04081">
        <ele>1065.8</ele>
        <time>2019-12-12T10:37:30Z</time>
      </trkpt>
      <trkpt lat="43.78231" lon="7.04081">
        <ele>1065.8</ele>
        <time>2019-12-12T10:37:32Z</time>
      </trkpt>
      <trkpt lat="43.78231" lon="7.04081">
        <ele>1065.8</ele>
        <time>2019-12-12T10:37:34Z</time>
      </trkpt>
      <trkpt lat="43.78231" lon="7.04081">
        <ele>1065.8</ele>
        <time>2019-12-12T10:37:36Z</time>
      </trkpt>
      <trkpt lat="43.78231" lon="7.04081">
        <ele>1065.8</ele>
        <time>2019-12-12T10:37:38Z</time>
      </trkpt>
      <trkpt lat="43.78231" lon="7.04081">
        <ele>1065.8</ele>
        <time>2019-12-12T10:37:40Z</time>
      </trkpt>
      <trkpt lat="43.78231" lon="7.04081">
        <ele>1065.8</ele>
        <time>2019-12-12T10:37:42Z</time>
      </trkpt>
      <trkpt lat="43.78231" lon="7.04081">
        <ele>1065.8</ele>
        <time>2019-12-12T10:37:44Z</time>
      </trkpt>
      <trkpt lat="43.78231" lon="7.04081">
        <ele>1065.8</ele>
        <time>2019-12-12T10:37:46Z</time>
      </trkpt>
      <trkpt lat="43.78231" lon="7.04081">
        <ele>1065.8</ele>
        <time>2019-12-12T10:37:48Z</time>
      </trkpt>
      <trkpt lat="43.78231" lon="7.04081">
        <ele>1065.8</ele>
        <time>2019-12-12T10:37:50Z</time>
      </trkpt>
      <trkpt lat="43.78231" lon="7.04081">
        <ele>1065.8</ele>
        <time>2019-12-12T10:37:52Z</time>
      </trkpt>
      <trkpt lat="43.78231" lon="7.04081">
        <ele>1065.8</ele>
        <time>2019-12-12T10:37:54Z</time>
      </trkpt>
      <trkpt lat="43.78231" lon="7.04081">
        <ele>1065.8</ele>
        <time>2019-12-12T10:37:56Z</time>
      </trkpt>
      <trkpt lat="43.78231" lon="7.04081">
        <ele>1065.8</ele>
        <time>2019-12-12T10:37:58Z</time>
      </trkpt>
      <trkpt lat="43.78231" lon="7.04081">
        <ele>1065.8</ele>
        <time>2019-12-12T10:38:00Z</time>
      </trkpt>
      <trkpt lat="43.78231" lon="7.04081">
        <ele>1065.8</ele>
        <time>2019-12-12T10:38:02Z</time>
      </trkpt>
      <trkpt lat="43.78231" lon="7.04081">
        <ele>1065.8</ele>
        <time>2019-12-12T10:38:04Z</time>
      </trkpt>
      <trkpt lat="43.78231" lon="7.04081">
        <ele>1065.8</ele>
        <time>2019-12-12T10:38:06Z</time>
      </trkpt>
      <trkpt lat="43.78231" lon="7.04081">
        <ele>1065.8</ele>
        <time>2019-12-12T10:38:08Z</time>
      </trkpt>
      <trkpt lat="43.78231" lon="7.04081">
        <ele>1065.8</ele>
        <time>2019-12-12T10:38:10Z</time>
      </trkpt>
      <trkpt lat="43.78231" lon="7.04081">
        <ele>1065.8</ele>
        <time>2019-12-12T10:38:12Z</time>
      </trkpt>
      <trkpt lat="43.78231" lon="7.04081">
        <ele>1065.8</ele>
        <time>2019-12-12T10:38:14Z</time>
      </trkpt>
      <trkpt lat="43.78231" lon="7.04081">
        <ele>1065.8</ele>
        <time>2019-12-12T10:38:16Z</time>
      </trkpt>
      <trkpt lat="43.78231" lon="7.04081">
        <ele>1065.8</ele>
        <time>2019-12-12T10:38:18Z</time>
      </trkpt>
      <trkpt lat="43.78231" lon="7.04081">
        <ele>1065.8</ele>
        <time>2019-12-12T10:38:20Z</time>
      </trkpt>
      <trkpt lat="43.78231" lon="7.04081">
        <ele>1065.8</ele>
        <time>2019-12-12T10:38:22Z</time>
      </trkpt>
      <trkpt lat="43.78231" lon="7.04081">
        <ele>1065.8</ele>
        <time>2019-12-12T10:38:24Z</time>
      </trkpt>
      <trkpt lat="43.78231" lon="7.04081">
        <ele>1065.8</ele>
        <time>2019-12-12T10:38:26Z</time>
      </trkpt>
      <trkpt lat="43.78231" lon="7.04081">
        <ele>1065.8</ele>
        <time>2019-12-12T10:38:28Z</time>
      </trkpt>
      <trkpt lat="43.78231" lon="7.04081">
        <ele>1065.8</ele>
        <time>2019-12-12T10:38:30Z</time>
      </trkpt>
      <trkpt lat="43.78232" lon="7.04086">
        <ele>1063.4</ele>
        <time>2019-12-12T10:38:32Z</time>
      </trkpt>
      <trkpt lat="43.78238" lon="7.04093">
        <ele>1060</ele>
        <time>2019-12-12T10:38:34Z</time>
      </trkpt>
      <trkpt lat="43.78243" lon="7.04102">
        <ele>1057.1</ele>
        <time>2019-12-12T10:38:36Z</time>
      </trkpt>
      <trkpt lat="43.78247" lon="7.04111">
        <ele>1054.7</ele>
        <time>2019-12-12T10:38:38Z</time>
      </trkpt>
      <trkpt lat="43.78252" lon="7.0412">
        <ele>1052.3</ele>
        <time>2019-12-12T10:38:40Z</time>
      </trkpt>
      <trkpt lat="43.78256" lon="7.04129">
        <ele>1050.9</ele>
        <time>2019-12-12T10:38:42Z</time>
      </trkpt>
      <trkpt lat="43.78258" lon="7.04138">
        <ele>1049.4</ele>
        <time>2019-12-12T10:38:44Z</time>
      </trkpt>
      <trkpt lat="43.78261" lon="7.04147">
        <ele>1046.5</ele>
        <time>2019-12-12T10:38:46Z</time>
      </trkpt>
      <trkpt lat="43.78265" lon="7.04156">
        <ele>1044.6</ele>
        <time>2019-12-12T10:38:48Z</time>
      </trkpt>
      <trkpt lat="43.78269" lon="7.04165">
        <ele>1043.2</ele>
        <time>2019-12-12T10:38:50Z</time>
      </trkpt>
      <trkpt lat="43.78273" lon="7.04174">
        <ele>1041.7</ele>
        <time>2019-12-12T10:38:52Z</time>
      </trkpt>
      <trkpt lat="43.78276" lon="7.04184">
        <ele>1040.3</ele>
        <time>2019-12-12T10:38:54Z</time>
      </trkpt>
      <trkpt lat="43.78279" lon="7.04195">
        <ele>1039.3</ele>
        <time>2019-12-12T10:38:56Z</time>
      </trkpt>
      <trkpt lat="43.78283" lon="7.04204">
        <ele>1037.9</ele>
        <time>2019-12-12T10:38:58Z</time>
      </trkpt>
      <trkpt lat="43.78288" lon="7.0421">
        <ele>1036.9</ele>
        <time>2019-12-12T10:39:00Z</time>
      </trkpt>
      <trkpt lat="43.78293" lon="7.04205">
        <ele>1035.5</ele>
        <time>2019-12-12T10:39:02Z</time>
      </trkpt>
      <trkpt lat="43.78296" lon="7.04196">
        <ele>1034</ele>
        <time>2019-12-12T10:39:04Z</time>
      </trkpt>
      <trkpt lat="43.78297" lon="7.04184">
        <ele>1032.6</ele>
        <time>2019-12-12T10:39:06Z</time>
      </trkpt>
      <trkpt lat="43.78296" lon="7.04172">
        <ele>1031.2</ele>
        <time>2019-12-12T10:39:08Z</time>
      </trkpt>
      <trkpt lat="43.78293" lon="7.04159">
        <ele>1029.7</ele>
        <time>2019-12-12T10:39:10Z</time>
      </trkpt>
      <trkpt lat="43.78289" lon="7.04146">
        <ele>1027.8</ele>
        <time>2019-12-12T10:39:12Z</time>
      </trkpt>
      <trkpt lat="43.78287" lon="7.04129">
        <ele>1026.3</ele>
        <time>2019-12-12T10:39:14Z</time>
      </trkpt>
      <trkpt lat="43.78289" lon="7.04112">
        <ele>1024.9</ele>
        <time>2019-12-12T10:39:16Z</time>
      </trkpt>
      <trkpt lat="43.78292" lon="7.04096">
        <ele>1023.5</ele>
        <time>2019-12-12T10:39:18Z</time>
      </trkpt>
      <trkpt lat="43.78295" lon="7.04082">
        <ele>1023</ele>
        <time>2019-12-12T10:39:20Z</time>
      </trkpt>
      <trkpt lat="43.78299" lon="7.0407">
        <ele>1022</ele>
        <time>2019-12-12T10:39:22Z</time>
      </trkpt>
      <trkpt lat="43.78305" lon="7.04063">
        <ele>1021.1</ele>
        <time>2019-12-12T10:39:24Z</time>
      </trkpt>
      <trkpt lat="43.78314" lon="7.04062">
        <ele>1020.1</ele>
        <time>2019-12-12T10:39:26Z</time>
      </trkpt>
      <trkpt lat="43.78325" lon="7.04064">
        <ele>1019.6</ele>
        <time>2019-12-12T10:39:28Z</time>
      </trkpt>
      <trkpt lat="43.78337" lon="7.04065">
        <ele>1020.1</ele>
        <time>2019-12-12T10:39:30Z</time>
      </trkpt>
      <trkpt lat="43.78351" lon="7.04067">
        <ele>1019.6</ele>
        <time>2019-12-12T10:39:32Z</time>
      </trkpt>
      <trkpt lat="43.78363" lon="7.04066">
        <ele>1020.1</ele>
        <time>2019-12-12T10:39:34Z</time>
      </trkpt>
      <trkpt lat="43.78377" lon="7.04061">
        <ele>1019.1</ele>
        <time>2019-12-12T10:39:36Z</time>
      </trkpt>
      <trkpt lat="43.78392" lon="7.04055">
        <ele>1018.2</ele>
        <time>2019-12-12T10:39:38Z</time>
      </trkpt>
      <trkpt lat="43.78405" lon="7.0405">
        <ele>1017.2</ele>
        <time>2019-12-12T10:39:40Z</time>
      </trkpt>
      <trkpt lat="43.78416" lon="7.04046">
        <ele>1016.7</ele>
        <time>2019-12-12T10:39:42Z</time>
      </trkpt>
      <trkpt lat="43.78429" lon="7.04042">
        <ele>1015.3</ele>
        <time>2019-12-12T10:39:44Z</time>
      </trkpt>
      <trkpt lat="43.7844" lon="7.04035">
        <ele>1014.3</ele>
        <time>2019-12-12T10:39:46Z</time>
      </trkpt>
      <trkpt lat="43.78447" lon="7.04024">
        <ele>1012.9</ele>
        <time>2019-12-12T10:39:48Z</time>
      </trkpt>
      <trkpt lat="43.7845" lon="7.04008">
        <ele>1011.9</ele>
        <time>2019-12-12T10:39:50Z</time>
      </trkpt>
      <trkpt lat="43.78451" lon="7.03992">
        <ele>1012.4</ele>
        <time>2019-12-12T10:39:52Z</time>
      </trkpt>
      <trkpt lat="43.78455" lon="7.03981">
        <ele>1012.4</ele>
        <time>2019-12-12T10:39:54Z</time>
      </trkpt>
      <trkpt lat="43.78464" lon="7.03974">
        <ele>1012.4</ele>
        <time>2019-12-12T10:39:56Z</time>
      </trkpt>
      <trkpt lat="43.78474" lon="7.03973">
        <ele>1013.4</ele>
        <time>2019-12-12T10:39:58Z</time>
      </trkpt>
      <trkpt lat="43.78485" lon="7.03974">
        <ele>1013.8</ele>
        <time>2019-12-12T10:40:00Z</time>
      </trkpt>
      <trkpt lat="43.78496" lon="7.03972">
        <ele>1013.4</ele>
        <time>2019-12-12T10:40:02Z</time>
      </trkpt>
      <trkpt lat="43.78508" lon="7.03971">
        <ele>1013.8</ele>
        <time>2019-12-12T10:40:04Z</time>
      </trkpt>
      <trkpt lat="43.78522" lon="7.03968">
        <ele>1013.8</ele>
        <time>2019-12-12T10:40:06Z</time>
      </trkpt>
      <trkpt lat="43.78531" lon="7.03965">
        <ele>1012.9</ele>
        <time>2019-12-12T10:40:08Z</time>
      </trkpt>
      <trkpt lat="43.78539" lon="7.03957">
        <ele>1011.9</ele>
        <time>2019-12-12T10:40:10Z</time>
      </trkpt>
      <trkpt lat="43.78545" lon="7.03947">
        <ele>1011</ele>
        <time>2019-12-12T10:40:12Z</time>
      </trkpt>
      <trkpt lat="43.78551" lon="7.03936">
        <ele>1010.5</ele>
        <time>2019-12-12T10:40:14Z</time>
      </trkpt>
      <trkpt lat="43.78556" lon="7.03922">
        <ele>1010.5</ele>
        <time>2019-12-12T10:40:16Z</time>
      </trkpt>
      <trkpt lat="43.78562" lon="7.03907">
        <ele>1010.5</ele>
        <time>2019-12-12T10:40:18Z</time>
      </trkpt>
      <trkpt lat="43.78566" lon="7.03893">
        <ele>1010.5</ele>
        <time>2019-12-12T10:40:20Z</time>
      </trkpt>
      <trkpt lat="43.78566" lon="7.03877">
        <ele>1009.5</ele>
        <time>2019-12-12T10:40:22Z</time>
      </trkpt>
      <trkpt lat="43.78564" lon="7.03861">
        <ele>1009.5</ele>
        <time>2019-12-12T10:40:24Z</time>
      </trkpt>
      <trkpt lat="43.7856" lon="7.03846">
        <ele>1009</ele>
        <time>2019-12-12T10:40:26Z</time>
      </trkpt>
      <trkpt lat="43.78554" lon="7.03829">
        <ele>1005.7</ele>
        <time>2019-12-12T10:40:28Z</time>
      </trkpt>
      <trkpt lat="43.78549" lon="7.03815">
        <ele>1003.3</ele>
        <time>2019-12-12T10:40:30Z</time>
      </trkpt>
      <trkpt lat="43.78551" lon="7.03802">
        <ele>1002.3</ele>
        <time>2019-12-12T10:40:32Z</time>
      </trkpt>
      <trkpt lat="43.78556" lon="7.03793">
        <ele>1002.8</ele>
        <time>2019-12-12T10:40:34Z</time>
      </trkpt>
      <trkpt lat="43.78564" lon="7.03786">
        <ele>1003.3</ele>
        <time>2019-12-12T10:40:36Z</time>
      </trkpt>
      <trkpt lat="43.78576" lon="7.03777">
        <ele>1003.8</ele>
        <time>2019-12-12T10:40:38Z</time>
      </trkpt>
      <trkpt lat="43.78586" lon="7.0377">
        <ele>1003.8</ele>
        <time>2019-12-12T10:40:40Z</time>
      </trkpt>
      <trkpt lat="43.78593" lon="7.03768">
        <ele>1003.8</ele>
        <time>2019-12-12T10:40:42Z</time>
      </trkpt>
      <trkpt lat="43.78601" lon="7.03775">
        <ele>1004.2</ele>
        <time>2019-12-12T10:40:44Z</time>
      </trkpt>
      <trkpt lat="43.78608" lon="7.03788">
        <ele>1004.2</ele>
        <time>2019-12-12T10:40:46Z</time>
      </trkpt>
      <trkpt lat="43.78613" lon="7.03802">
        <ele>1002.8</ele>
        <time>2019-12-12T10:40:48Z</time>
      </trkpt>
      <trkpt lat="43.78619" lon="7.03811">
        <ele>1003.3</ele>
        <time>2019-12-12T10:40:50Z</time>
      </trkpt>
      <trkpt lat="43.78632" lon="7.03805">
        <ele>1002.8</ele>
        <time>2019-12-12T10:40:52Z</time>
      </trkpt>
      <trkpt lat="43.78643" lon="7.03797">
        <ele>1002.8</ele>
        <time>2019-12-12T10:40:54Z</time>
      </trkpt>
      <trkpt lat="43.78656" lon="7.03788">
        <ele>1003.3</ele>
        <time>2019-12-12T10:40:56Z</time>
      </trkpt>
      <trkpt lat="43.78669" lon="7.03779">
        <ele>1003.3</ele>
        <time>2019-12-12T10:40:58Z</time>
      </trkpt>
      <trkpt lat="43.78681" lon="7.03768">
        <ele>1002.3</ele>
        <time>2019-12-12T10:41:00Z</time>
      </trkpt>
      <trkpt lat="43.7869" lon="7.03753">
        <ele>1000.4</ele>
        <time>2019-12-12T10:41:02Z</time>
      </trkpt>
      <trkpt lat="43.78696" lon="7.03734">
        <ele>998.5</ele>
        <time>2019-12-12T10:41:04Z</time>
      </trkpt>
      <trkpt lat="43.787" lon="7.03715">
        <ele>997.5</ele>
        <time>2019-12-12T10:41:06Z</time>
      </trkpt>
      <trkpt lat="43.78705" lon="7.03696">
        <ele>996.5</ele>
        <time>2019-12-12T10:41:08Z</time>
      </trkpt>
      <trkpt lat="43.7871" lon="7.03676">
        <ele>996.1</ele>
        <time>2019-12-12T10:41:10Z</time>
      </trkpt>
      <trkpt lat="43.78716" lon="7.03654">
        <ele>995.1</ele>
        <time>2019-12-12T10:41:12Z</time>
      </trkpt>
      <trkpt lat="43.7872" lon="7.03633">
        <ele>994.6</ele>
        <time>2019-12-12T10:41:14Z</time>
      </trkpt>
      <trkpt lat="43.78725" lon="7.03612">
        <ele>994.1</ele>
        <time>2019-12-12T10:41:16Z</time>
      </trkpt>
      <trkpt lat="43.7873" lon="7.0359">
        <ele>993.7</ele>
        <time>2019-12-12T10:41:18Z</time>
      </trkpt>
      <trkpt lat="43.78733" lon="7.0357">
        <ele>993.2</ele>
        <time>2019-12-12T10:41:20Z</time>
      </trkpt>
      <trkpt lat="43.78737" lon="7.03554">
        <ele>992.7</ele>
        <time>2019-12-12T10:41:22Z</time>
      </trkpt>
      <trkpt lat="43.78744" lon="7.03541">
        <ele>993.2</ele>
        <time>2019-12-12T10:41:24Z</time>
      </trkpt>
      <trkpt lat="43.78752" lon="7.03529">
        <ele>993.7</ele>
        <time>2019-12-12T10:41:26Z</time>
      </trkpt>
      <trkpt lat="43.78759" lon="7.0352">
        <ele>994.1</ele>
        <time>2019-12-12T10:41:28Z</time>
      </trkpt>
      <trkpt lat="43.78767" lon="7.0351">
        <ele>994.6</ele>
        <time>2019-12-12T10:41:30Z</time>
      </trkpt>
      <trkpt lat="43.78773" lon="7.035">
        <ele>994.1</ele>
        <time>2019-12-12T10:41:32Z</time>
      </trkpt>
      <trkpt lat="43.7878" lon="7.0349">
        <ele>993.7</ele>
        <time>2019-12-12T10:41:34Z</time>
      </trkpt>
      <trkpt lat="43.78787" lon="7.03483">
        <ele>993.7</ele>
        <time>2019-12-12T10:41:36Z</time>
      </trkpt>
      <trkpt lat="43.78793" lon="7.03475">
        <ele>993.2</ele>
        <time>2019-12-12T10:41:38Z</time>
      </trkpt>
      <trkpt lat="43.78801" lon="7.03469">
        <ele>992.2</ele>
        <time>2019-12-12T10:41:40Z</time>
      </trkpt>
      <trkpt lat="43.78807" lon="7.03463">
        <ele>991.7</ele>
        <time>2019-12-12T10:41:42Z</time>
      </trkpt>
      <trkpt lat="43.78813" lon="7.03458">
        <ele>991.7</ele>
        <time>2019-12-12T10:41:44Z</time>
      </trkpt>
      <trkpt lat="43.78818" lon="7.03453">
        <ele>991.3</ele>
        <time>2019-12-12T10:41:46Z</time>
      </trkpt>
      <trkpt lat="43.78824" lon="7.03448">
        <ele>990.3</ele>
        <time>2019-12-12T10:41:48Z</time>
      </trkpt>
      <trkpt lat="43.7883" lon="7.03445">
        <ele>990.3</ele>
        <time>2019-12-12T10:41:50Z</time>
      </trkpt>
      <trkpt lat="43.78836" lon="7.03443">
        <ele>990.3</ele>
        <time>2019-12-12T10:41:52Z</time>
      </trkpt>
      <trkpt lat="43.78841" lon="7.03443">
        <ele>990.8</ele>
        <time>2019-12-12T10:41:54Z</time>
      </trkpt>
      <trkpt lat="43.78845" lon="7.03444">
        <ele>990.8</ele>
        <time>2019-12-12T10:41:56Z</time>
      </trkpt>
      <trkpt lat="43.7885" lon="7.03448">
        <ele>989.8</ele>
        <time>2019-12-12T10:41:58Z</time>
      </trkpt>
      <trkpt lat="43.78855" lon="7.03452">
        <ele>988.9</ele>
        <time>2019-12-12T10:42:00Z</time>
      </trkpt>
      <trkpt lat="43.78861" lon="7.03458">
        <ele>988.9</ele>
        <time>2019-12-12T10:42:02Z</time>
      </trkpt>
      <trkpt lat="43.78867" lon="7.03462">
        <ele>989.8</ele>
        <time>2019-12-12T10:42:04Z</time>
      </trkpt>
      <trkpt lat="43.78875" lon="7.03464">
        <ele>989.8</ele>
        <time>2019-12-12T10:42:06Z</time>
      </trkpt>
      <trkpt lat="43.78882" lon="7.03463">
        <ele>990.3</ele>
        <time>2019-12-12T10:42:08Z</time>
      </trkpt>
      <trkpt lat="43.78892" lon="7.03462">
        <ele>990.8</ele>
        <time>2019-12-12T10:42:10Z</time>
      </trkpt>
      <trkpt lat="43.78901" lon="7.0346">
        <ele>990.8</ele>
        <time>2019-12-12T10:42:12Z</time>
      </trkpt>
      <trkpt lat="43.78906" lon="7.03458">
        <ele>991.7</ele>
        <time>2019-12-12T10:42:14Z</time>
      </trkpt>
      <trkpt lat="43.78907" lon="7.03458">
        <ele>991.3</ele>
        <time>2019-12-12T10:42:16Z</time>
      </trkpt>
      <trkpt lat="43.78907" lon="7.03456">
        <ele>988.9</ele>
        <time>2019-12-12T10:42:18Z</time>
      </trkpt>
      <trkpt lat="43.78907" lon="7.03456">
        <ele>988.9</ele>
        <time>2019-12-12T10:42:20Z</time>
      </trkpt>
      <trkpt lat="43.78907" lon="7.03456">
        <ele>988.9</ele>
        <time>2019-12-12T10:42:22Z</time>
      </trkpt>
      <trkpt lat="43.78907" lon="7.03456">
        <ele>988.9</ele>
        <time>2019-12-12T10:42:24Z</time>
      </trkpt>
      <trkpt lat="43.78907" lon="7.03456">
        <ele>988.9</ele>
        <time>2019-12-12T10:42:26Z</time>
      </trkpt>
      <trkpt lat="43.78907" lon="7.03456">
        <ele>988.9</ele>
        <time>2019-12-12T10:42:28Z</time>
      </trkpt>
      <trkpt lat="43.78907" lon="7.03456">
        <ele>988.9</ele>
        <time>2019-12-12T10:42:30Z</time>
      </trkpt>
      <trkpt lat="43.78907" lon="7.03456">
        <ele>988.9</ele>
        <time>2019-12-12T10:42:32Z</time>
      </trkpt>
      <trkpt lat="43.78907" lon="7.03456">
        <ele>988.9</ele>
        <time>2019-12-12T10:42:34Z</time>
      </trkpt>
      <trkpt lat="43.78907" lon="7.03456">
        <ele>988.9</ele>
        <time>2019-12-12T10:42:36Z</time>
      </trkpt>
      <trkpt lat="43.78907" lon="7.03456">
        <ele>988.9</ele>
        <time>2019-12-12T10:42:38Z</time>
      </trkpt>
      <trkpt lat="43.78907" lon="7.03456">
        <ele>988.9</ele>
        <time>2019-12-12T10:42:40Z</time>
      </trkpt>
      <trkpt lat="43.78907" lon="7.03456">
        <ele>988.9</ele>
        <time>2019-12-12T10:42:42Z</time>
      </trkpt>
      <trkpt lat="43.78907" lon="7.03456">
        <ele>988.9</ele>
        <time>2019-12-12T10:42:44Z</time>
      </trkpt>
      <trkpt lat="43.78907" lon="7.03456">
        <ele>988.9</ele>
        <time>2019-12-12T10:42:46Z</time>
      </trkpt>
      <trkpt lat="43.78907" lon="7.03456">
        <ele>988.9</ele>
        <time>2019-12-12T10:42:48Z</time>
      </trkpt>
      <trkpt lat="43.78907" lon="7.03456">
        <ele>988.9</ele>
        <time>2019-12-12T10:42:50Z</time>
      </trkpt>
      <trkpt lat="43.78907" lon="7.03456">
        <ele>988.9</ele>
        <time>2019-12-12T10:42:52Z</time>
      </trkpt>
      <trkpt lat="43.78907" lon="7.03456">
        <ele>988.9</ele>
        <time>2019-12-12T10:42:54Z</time>
      </trkpt>
      <trkpt lat="43.78907" lon="7.03456">
        <ele>988.9</ele>
        <time>2019-12-12T10:42:56Z</time>
      </trkpt>
      <trkpt lat="43.78907" lon="7.03456">
        <ele>988.9</ele>
        <time>2019-12-12T10:42:58Z</time>
      </trkpt>
      <trkpt lat="43.78907" lon="7.03456">
        <ele>988.9</ele>
        <time>2019-12-12T10:43:00Z</time>
      </trkpt>
      <trkpt lat="43.78907" lon="7.03456">
        <ele>988.9</ele>
        <time>2019-12-12T10:43:02Z</time>
      </trkpt>
      <trkpt lat="43.78907" lon="7.03456">
        <ele>988.9</ele>
        <time>2019-12-12T10:43:04Z</time>
      </trkpt>
      <trkpt lat="43.78907" lon="7.03456">
        <ele>988.9</ele>
        <time>2019-12-12T10:43:06Z</time>
      </trkpt>
      <trkpt lat="43.78907" lon="7.03456">
        <ele>988.9</ele>
        <time>2019-12-12T10:43:08Z</time>
      </trkpt>
      <trkpt lat="43.78907" lon="7.03456">
        <ele>988.9</ele>
        <time>2019-12-12T10:43:10Z</time>
      </trkpt>
      <trkpt lat="43.78907" lon="7.03456">
        <ele>988.9</ele>
        <time>2019-12-12T10:43:12Z</time>
      </trkpt>
      <trkpt lat="43.78908" lon="7.03456">
        <ele>988.9</ele>
        <time>2019-12-12T10:43:14Z</time>
      </trkpt>
      <trkpt lat="43.78908" lon="7.03456">
        <ele>988.9</ele>
        <time>2019-12-12T10:43:16Z</time>
      </trkpt>
      <trkpt lat="43.78907" lon="7.03456">
        <ele>988.9</ele>
        <time>2019-12-12T10:43:18Z</time>
      </trkpt>
      <trkpt lat="43.78907" lon="7.03456">
        <ele>988.9</ele>
        <time>2019-12-12T10:43:20Z</time>
      </trkpt>
      <trkpt lat="43.78907" lon="7.03456">
        <ele>988.9</ele>
        <time>2019-12-12T10:43:22Z</time>
      </trkpt>
      <trkpt lat="43.78907" lon="7.03456">
        <ele>988.9</ele>
        <time>2019-12-12T10:43:24Z</time>
      </trkpt>
      <trkpt lat="43.78907" lon="7.03456">
        <ele>988.9</ele>
        <time>2019-12-12T10:43:26Z</time>
      </trkpt>
      <trkpt lat="43.78907" lon="7.03456">
        <ele>988.9</ele>
        <time>2019-12-12T10:43:28Z</time>
      </trkpt>
      <trkpt lat="43.78907" lon="7.03456">
        <ele>988.9</ele>
        <time>2019-12-12T10:43:30Z</time>
      </trkpt>
      <trkpt lat="43.78907" lon="7.03456">
        <ele>988.9</ele>
        <time>2019-12-12T10:43:32Z</time>
      </trkpt>
      <trkpt lat="43.78908" lon="7.03455">
        <ele>988.9</ele>
        <time>2019-12-12T10:43:34Z</time>
      </trkpt>
      <trkpt lat="43.78913" lon="7.03452">
        <ele>986.4</ele>
        <time>2019-12-12T10:43:36Z</time>
      </trkpt>
      <trkpt lat="43.78918" lon="7.0345">
        <ele>985</ele>
        <time>2019-12-12T10:43:38Z</time>
      </trkpt>
      <trkpt lat="43.78925" lon="7.03447">
        <ele>985</ele>
        <time>2019-12-12T10:43:40Z</time>
      </trkpt>
      <trkpt lat="43.78932" lon="7.03441">
        <ele>984</ele>
        <time>2019-12-12T10:43:42Z</time>
      </trkpt>
      <trkpt lat="43.78939" lon="7.03435">
        <ele>984</ele>
        <time>2019-12-12T10:43:44Z</time>
      </trkpt>
      <trkpt lat="43.78948" lon="7.03427">
        <ele>983.6</ele>
        <time>2019-12-12T10:43:46Z</time>
      </trkpt>
      <trkpt lat="43.78957" lon="7.03417">
        <ele>983.1</ele>
        <time>2019-12-12T10:43:48Z</time>
      </trkpt>
      <trkpt lat="43.78967" lon="7.03406">
        <ele>981.2</ele>
        <time>2019-12-12T10:43:50Z</time>
      </trkpt>
      <trkpt lat="43.78975" lon="7.03395">
        <ele>979.7</ele>
        <time>2019-12-12T10:43:52Z</time>
      </trkpt>
      <trkpt lat="43.7898" lon="7.03387">
        <ele>977.8</ele>
        <time>2019-12-12T10:43:54Z</time>
      </trkpt>
      <trkpt lat="43.78988" lon="7.0338">
        <ele>975.9</ele>
        <time>2019-12-12T10:43:56Z</time>
      </trkpt>
      <trkpt lat="43.78998" lon="7.03373">
        <ele>974</ele>
        <time>2019-12-12T10:43:58Z</time>
      </trkpt>
      <trkpt lat="43.79008" lon="7.03365">
        <ele>974</ele>
        <time>2019-12-12T10:44:00Z</time>
      </trkpt>
      <trkpt lat="43.79019" lon="7.03354">
        <ele>973</ele>
        <time>2019-12-12T10:44:02Z</time>
      </trkpt>
      <trkpt lat="43.79029" lon="7.03343">
        <ele>972</ele>
        <time>2019-12-12T10:44:04Z</time>
      </trkpt>
      <trkpt lat="43.79037" lon="7.03333">
        <ele>971.1</ele>
        <time>2019-12-12T10:44:06Z</time>
      </trkpt>
      <trkpt lat="43.79043" lon="7.0333">
        <ele>970.1</ele>
        <time>2019-12-12T10:44:08Z</time>
      </trkpt>
      <trkpt lat="43.79045" lon="7.03337">
        <ele>968.7</ele>
        <time>2019-12-12T10:44:10Z</time>
      </trkpt>
      <trkpt lat="43.79037" lon="7.03346">
        <ele>967.7</ele>
        <time>2019-12-12T10:44:12Z</time>
      </trkpt>
      <trkpt lat="43.7903" lon="7.03356">
        <ele>966.7</ele>
        <time>2019-12-12T10:44:14Z</time>
      </trkpt>
      <trkpt lat="43.79023" lon="7.0337">
        <ele>965.8</ele>
        <time>2019-12-12T10:44:16Z</time>
      </trkpt>
      <trkpt lat="43.79016" lon="7.03385">
        <ele>965.8</ele>
        <time>2019-12-12T10:44:18Z</time>
      </trkpt>
      <trkpt lat="43.79009" lon="7.03402">
        <ele>964.8</ele>
        <time>2019-12-12T10:44:20Z</time>
      </trkpt>
      <trkpt lat="43.79002" lon="7.03421">
        <ele>963.9</ele>
        <time>2019-12-12T10:44:22Z</time>
      </trkpt>
      <trkpt lat="43.78994" lon="7.0344">
        <ele>962.9</ele>
        <time>2019-12-12T10:44:24Z</time>
      </trkpt>
      <trkpt lat="43.78987" lon="7.0346">
        <ele>961</ele>
        <time>2019-12-12T10:44:26Z</time>
      </trkpt>
      <trkpt lat="43.78987" lon="7.0348">
        <ele>958.6</ele>
        <time>2019-12-12T10:44:28Z</time>
      </trkpt>
      <trkpt lat="43.7899" lon="7.03501">
        <ele>956.2</ele>
        <time>2019-12-12T10:44:30Z</time>
      </trkpt>
      <trkpt lat="43.78989" lon="7.03523">
        <ele>954.2</ele>
        <time>2019-12-12T10:44:32Z</time>
      </trkpt>
      <trkpt lat="43.78981" lon="7.03541">
        <ele>952.3</ele>
        <time>2019-12-12T10:44:34Z</time>
      </trkpt>
      <trkpt lat="43.78973" lon="7.0356">
        <ele>949.9</ele>
        <time>2019-12-12T10:44:36Z</time>
      </trkpt>
      <trkpt lat="43.78971" lon="7.03583">
        <ele>948</ele>
        <time>2019-12-12T10:44:38Z</time>
      </trkpt>
      <trkpt lat="43.78972" lon="7.03607">
        <ele>945.6</ele>
        <time>2019-12-12T10:44:40Z</time>
      </trkpt>
      <trkpt lat="43.78971" lon="7.03629">
        <ele>942.7</ele>
        <time>2019-12-12T10:44:42Z</time>
      </trkpt>
      <trkpt lat="43.78971" lon="7.03645">
        <ele>940.3</ele>
        <time>2019-12-12T10:44:44Z</time>
      </trkpt>
      <trkpt lat="43.78972" lon="7.03655">
        <ele>938.4</ele>
        <time>2019-12-12T10:44:46Z</time>
      </trkpt>
      <trkpt lat="43.78978" lon="7.03666">
        <ele>937.9</ele>
        <time>2019-12-12T10:44:48Z</time>
      </trkpt>
      <trkpt lat="43.78986" lon="7.03672">
        <ele>937.4</ele>
        <time>2019-12-12T10:44:50Z</time>
      </trkpt>
      <trkpt lat="43.78996" lon="7.03677">
        <ele>937.4</ele>
        <time>2019-12-12T10:44:52Z</time>
      </trkpt>
      <trkpt lat="43.79004" lon="7.03683">
        <ele>937.4</ele>
        <time>2019-12-12T10:44:54Z</time>
      </trkpt>
      <trkpt lat="43.79012" lon="7.03687">
        <ele>937.4</ele>
        <time>2019-12-12T10:44:56Z</time>
      </trkpt>
      <trkpt lat="43.79021" lon="7.03691">
        <ele>939.3</ele>
        <time>2019-12-12T10:44:58Z</time>
      </trkpt>
      <trkpt lat="43.79029" lon="7.03695">
        <ele>939.8</ele>
        <time>2019-12-12T10:45:00Z</time>
      </trkpt>
      <trkpt lat="43.79037" lon="7.03699">
        <ele>940.3</ele>
        <time>2019-12-12T10:45:02Z</time>
      </trkpt>
      <trkpt lat="43.79045" lon="7.037">
        <ele>940.8</ele>
        <time>2019-12-12T10:45:04Z</time>
      </trkpt>
      <trkpt lat="43.79053" lon="7.03698">
        <ele>942.2</ele>
        <time>2019-12-12T10:45:06Z</time>
      </trkpt>
      <trkpt lat="43.7906" lon="7.03694">
        <ele>942.7</ele>
        <time>2019-12-12T10:45:08Z</time>
      </trkpt>
      <trkpt lat="43.79067" lon="7.03689">
        <ele>942.7</ele>
        <time>2019-12-12T10:45:10Z</time>
      </trkpt>
      <trkpt lat="43.79073" lon="7.03685">
        <ele>943.2</ele>
        <time>2019-12-12T10:45:12Z</time>
      </trkpt>
      <trkpt lat="43.79079" lon="7.03681">
        <ele>943.7</ele>
        <time>2019-12-12T10:45:14Z</time>
      </trkpt>
      <trkpt lat="43.79084" lon="7.03679">
        <ele>944.2</ele>
        <time>2019-12-12T10:45:16Z</time>
      </trkpt>
      <trkpt lat="43.7909" lon="7.03675">
        <ele>945.1</ele>
        <time>2019-12-12T10:45:18Z</time>
      </trkpt>
      <trkpt lat="43.79095" lon="7.03674">
        <ele>946.1</ele>
        <time>2019-12-12T10:45:20Z</time>
      </trkpt>
      <trkpt lat="43.79101" lon="7.03673">
        <ele>946.1</ele>
        <time>2019-12-12T10:45:22Z</time>
      </trkpt>
      <trkpt lat="43.79106" lon="7.03673">
        <ele>946.1</ele>
        <time>2019-12-12T10:45:24Z</time>
      </trkpt>
      <trkpt lat="43.79112" lon="7.03673">
        <ele>947</ele>
        <time>2019-12-12T10:45:26Z</time>
      </trkpt>
      <trkpt lat="43.79118" lon="7.03673">
        <ele>949</ele>
        <time>2019-12-12T10:45:28Z</time>
      </trkpt>
      <trkpt lat="43.79124" lon="7.03673">
        <ele>948.5</ele>
        <time>2019-12-12T10:45:30Z</time>
      </trkpt>
      <trkpt lat="43.79127" lon="7.03674">
        <ele>948.5</ele>
        <time>2019-12-12T10:45:32Z</time>
      </trkpt>
      <trkpt lat="43.79128" lon="7.03675">
        <ele>949</ele>
        <time>2019-12-12T10:45:34Z</time>
      </trkpt>
      <trkpt lat="43.79128" lon="7.03675">
        <ele>948.5</ele>
        <time>2019-12-12T10:45:36Z</time>
      </trkpt>
      <trkpt lat="43.79128" lon="7.03674">
        <ele>948.5</ele>
        <time>2019-12-12T10:45:38Z</time>
      </trkpt>
      <trkpt lat="43.79128" lon="7.03674">
        <ele>948.5</ele>
        <time>2019-12-12T10:45:40Z</time>
      </trkpt>
      <trkpt lat="43.79128" lon="7.03674">
        <ele>948.5</ele>
        <time>2019-12-12T10:45:42Z</time>
      </trkpt>
      <trkpt lat="43.79129" lon="7.03674">
        <ele>948.5</ele>
        <time>2019-12-12T10:45:44Z</time>
      </trkpt>
      <trkpt lat="43.79129" lon="7.03674">
        <ele>948.5</ele>
        <time>2019-12-12T10:45:46Z</time>
      </trkpt>
      <trkpt lat="43.79129" lon="7.03674">
        <ele>948.5</ele>
        <time>2019-12-12T10:45:48Z</time>
      </trkpt>
      <trkpt lat="43.79129" lon="7.03674">
        <ele>948.5</ele>
        <time>2019-12-12T10:45:50Z</time>
      </trkpt>
      <trkpt lat="43.79129" lon="7.03674">
        <ele>948.5</ele>
        <time>2019-12-12T10:45:52Z</time>
      </trkpt>
      <trkpt lat="43.79129" lon="7.03674">
        <ele>948.5</ele>
        <time>2019-12-12T10:45:54Z</time>
      </trkpt>
      <trkpt lat="43.79129" lon="7.03674">
        <ele>948.5</ele>
        <time>2019-12-12T10:45:56Z</time>
      </trkpt>
      <trkpt lat="43.79129" lon="7.03674">
        <ele>948.5</ele>
        <time>2019-12-12T10:45:58Z</time>
      </trkpt>
      <trkpt lat="43.79129" lon="7.03674">
        <ele>948.5</ele>
        <time>2019-12-12T10:46:00Z</time>
      </trkpt>
      <trkpt lat="43.79129" lon="7.03674">
        <ele>948.5</ele>
        <time>2019-12-12T10:46:02Z</time>
      </trkpt>
      <trkpt lat="43.7913" lon="7.03674">
        <ele>948.5</ele>
        <time>2019-12-12T10:46:04Z</time>
      </trkpt>
      <trkpt lat="43.79136" lon="7.03674">
        <ele>949</ele>
        <time>2019-12-12T10:46:06Z</time>
      </trkpt>
      <trkpt lat="43.79144" lon="7.03676">
        <ele>948.5</ele>
        <time>2019-12-12T10:46:08Z</time>
      </trkpt>
      <trkpt lat="43.79154" lon="7.03677">
        <ele>949</ele>
        <time>2019-12-12T10:46:10Z</time>
      </trkpt>
      <trkpt lat="43.79161" lon="7.03678">
        <ele>948.5</ele>
        <time>2019-12-12T10:46:12Z</time>
      </trkpt>
      <trkpt lat="43.79168" lon="7.03679">
        <ele>948</ele>
        <time>2019-12-12T10:46:14Z</time>
      </trkpt>
      <trkpt lat="43.79173" lon="7.03682">
        <ele>947.5</ele>
        <time>2019-12-12T10:46:16Z</time>
      </trkpt>
      <trkpt lat="43.79177" lon="7.03684">
        <ele>947</ele>
        <time>2019-12-12T10:46:18Z</time>
      </trkpt>
      <trkpt lat="43.79182" lon="7.03686">
        <ele>947</ele>
        <time>2019-12-12T10:46:20Z</time>
      </trkpt>
      <trkpt lat="43.79187" lon="7.03687">
        <ele>947</ele>
        <time>2019-12-12T10:46:22Z</time>
      </trkpt>
      <trkpt lat="43.79192" lon="7.03687">
        <ele>947</ele>
        <time>2019-12-12T10:46:24Z</time>
      </trkpt>
      <trkpt lat="43.79196" lon="7.03688">
        <ele>947.5</ele>
        <time>2019-12-12T10:46:26Z</time>
      </trkpt>
      <trkpt lat="43.79201" lon="7.03688">
        <ele>947.5</ele>
        <time>2019-12-12T10:46:28Z</time>
      </trkpt>
      <trkpt lat="43.79205" lon="7.0369">
        <ele>947.5</ele>
        <time>2019-12-12T10:46:30Z</time>
      </trkpt>
      <trkpt lat="43.79209" lon="7.0369">
        <ele>948</ele>
        <time>2019-12-12T10:46:32Z</time>
      </trkpt>
      <trkpt lat="43.79215" lon="7.03691">
        <ele>948.5</ele>
        <time>2019-12-12T10:46:34Z</time>
      </trkpt>
      <trkpt lat="43.79219" lon="7.03692">
        <ele>949</ele>
        <time>2019-12-12T10:46:36Z</time>
      </trkpt>
      <trkpt lat="43.79224" lon="7.03693">
        <ele>949</ele>
        <time>2019-12-12T10:46:38Z</time>
      </trkpt>
      <trkpt lat="43.79229" lon="7.03693">
        <ele>949.4</ele>
        <time>2019-12-12T10:46:40Z</time>
      </trkpt>
      <trkpt lat="43.79235" lon="7.03694">
        <ele>949.4</ele>
        <time>2019-12-12T10:46:42Z</time>
      </trkpt>
      <trkpt lat="43.7924" lon="7.03694">
        <ele>949.9</ele>
        <time>2019-12-12T10:46:44Z</time>
      </trkpt>
      <trkpt lat="43.79245" lon="7.03694">
        <ele>949</ele>
        <time>2019-12-12T10:46:46Z</time>
      </trkpt>
      <trkpt lat="43.79251" lon="7.03693">
        <ele>949</ele>
        <time>2019-12-12T10:46:48Z</time>
      </trkpt>
      <trkpt lat="43.79257" lon="7.03694">
        <ele>949</ele>
        <time>2019-12-12T10:46:50Z</time>
      </trkpt>
      <trkpt lat="43.79261" lon="7.03694">
        <ele>949</ele>
        <time>2019-12-12T10:46:52Z</time>
      </trkpt>
      <trkpt lat="43.79265" lon="7.03694">
        <ele>948.5</ele>
        <time>2019-12-12T10:46:54Z</time>
      </trkpt>
      <trkpt lat="43.79269" lon="7.03695">
        <ele>949.4</ele>
        <time>2019-12-12T10:46:56Z</time>
      </trkpt>
      <trkpt lat="43.79274" lon="7.03696">
        <ele>949.4</ele>
        <time>2019-12-12T10:46:58Z</time>
      </trkpt>
      <trkpt lat="43.79278" lon="7.03698">
        <ele>949.4</ele>
        <time>2019-12-12T10:47:00Z</time>
      </trkpt>
      <trkpt lat="43.79282" lon="7.03699">
        <ele>949.4</ele>
        <time>2019-12-12T10:47:02Z</time>
      </trkpt>
      <trkpt lat="43.79287" lon="7.03699">
        <ele>951.4</ele>
        <time>2019-12-12T10:47:04Z</time>
      </trkpt>
      <trkpt lat="43.79292" lon="7.03701">
        <ele>952.3</ele>
        <time>2019-12-12T10:47:06Z</time>
      </trkpt>
      <trkpt lat="43.79296" lon="7.03704">
        <ele>952.8</ele>
        <time>2019-12-12T10:47:08Z</time>
      </trkpt>
      <trkpt lat="43.793" lon="7.03708">
        <ele>952.8</ele>
        <time>2019-12-12T10:47:10Z</time>
      </trkpt>
      <trkpt lat="43.79305" lon="7.03712">
        <ele>954.2</ele>
        <time>2019-12-12T10:47:12Z</time>
      </trkpt>
      <trkpt lat="43.79308" lon="7.03717">
        <ele>954.7</ele>
        <time>2019-12-12T10:47:14Z</time>
      </trkpt>
      <trkpt lat="43.79311" lon="7.03721">
        <ele>955.2</ele>
        <time>2019-12-12T10:47:16Z</time>
      </trkpt>
      <trkpt lat="43.79313" lon="7.03725">
        <ele>956.2</ele>
        <time>2019-12-12T10:47:18Z</time>
      </trkpt>
      <trkpt lat="43.79315" lon="7.03731">
        <ele>956.2</ele>
        <time>2019-12-12T10:47:20Z</time>
      </trkpt>
      <trkpt lat="43.79317" lon="7.03736">
        <ele>957.1</ele>
        <time>2019-12-12T10:47:22Z</time>
      </trkpt>
      <trkpt lat="43.79319" lon="7.03741">
        <ele>957.6</ele>
        <time>2019-12-12T10:47:24Z</time>
      </trkpt>
      <trkpt lat="43.79321" lon="7.03745">
        <ele>958.1</ele>
        <time>2019-12-12T10:47:26Z</time>
      </trkpt>
      <trkpt lat="43.79323" lon="7.03749">
        <ele>959.1</ele>
        <time>2019-12-12T10:47:28Z</time>
      </trkpt>
      <trkpt lat="43.79324" lon="7.03754">
        <ele>959.5</ele>
        <time>2019-12-12T10:47:30Z</time>
      </trkpt>
      <trkpt lat="43.79328" lon="7.03757">
        <ele>960</ele>
        <time>2019-12-12T10:47:32Z</time>
      </trkpt>
      <trkpt lat="43.79331" lon="7.03761">
        <ele>961.9</ele>
        <time>2019-12-12T10:47:34Z</time>
      </trkpt>
      <trkpt lat="43.79333" lon="7.03766">
        <ele>961.9</ele>
        <time>2019-12-12T10:47:36Z</time>
      </trkpt>
      <trkpt lat="43.79335" lon="7.03771">
        <ele>962.4</ele>
        <time>2019-12-12T10:47:38Z</time>
      </trkpt>
      <trkpt lat="43.79337" lon="7.03774">
        <ele>963.4</ele>
        <time>2019-12-12T10:47:40Z</time>
      </trkpt>
      <trkpt lat="43.79342" lon="7.03777">
        <ele>963.9</ele>
        <time>2019-12-12T10:47:42Z</time>
      </trkpt>
      <trkpt lat="43.79346" lon="7.03783">
        <ele>964.8</ele>
        <time>2019-12-12T10:47:44Z</time>
      </trkpt>
      <trkpt lat="43.79349" lon="7.03787">
        <ele>965.3</ele>
        <time>2019-12-12T10:47:46Z</time>
      </trkpt>
      <trkpt lat="43.79352" lon="7.03789">
        <ele>964.8</ele>
        <time>2019-12-12T10:47:48Z</time>
      </trkpt>
      <trkpt lat="43.79355" lon="7.03791">
        <ele>964.8</ele>
        <time>2019-12-12T10:47:50Z</time>
      </trkpt>
      <trkpt lat="43.79357" lon="7.03794">
        <ele>965.3</ele>
        <time>2019-12-12T10:47:52Z</time>
      </trkpt>
      <trkpt lat="43.7936" lon="7.03798">
        <ele>965.8</ele>
        <time>2019-12-12T10:47:54Z</time>
      </trkpt>
      <trkpt lat="43.79362" lon="7.03801">
        <ele>966.3</ele>
        <time>2019-12-12T10:47:56Z</time>
      </trkpt>
      <trkpt lat="43.79365" lon="7.03805">
        <ele>966.7</ele>
        <time>2019-12-12T10:47:58Z</time>
      </trkpt>
      <trkpt lat="43.79367" lon="7.03809">
        <ele>967.7</ele>
        <time>2019-12-12T10:48:00Z</time>
      </trkpt>
      <trkpt lat="43.7937" lon="7.03814">
        <ele>968.7</ele>
        <time>2019-12-12T10:48:02Z</time>
      </trkpt>
      <trkpt lat="43.7937" lon="7.03818">
        <ele>969.1</ele>
        <time>2019-12-12T10:48:04Z</time>
      </trkpt>
      <trkpt lat="43.79372" lon="7.03824">
        <ele>969.6</ele>
        <time>2019-12-12T10:48:06Z</time>
      </trkpt>
      <trkpt lat="43.79372" lon="7.03831">
        <ele>970.1</ele>
        <time>2019-12-12T10:48:08Z</time>
      </trkpt>
      <trkpt lat="43.79371" lon="7.03838">
        <ele>970.6</ele>
        <time>2019-12-12T10:48:10Z</time>
      </trkpt>
      <trkpt lat="43.79374" lon="7.03847">
        <ele>971.1</ele>
        <time>2019-12-12T10:48:12Z</time>
      </trkpt>
      <trkpt lat="43.79373" lon="7.03854">
        <ele>971.5</ele>
        <time>2019-12-12T10:48:14Z</time>
      </trkpt>
      <trkpt lat="43.79372" lon="7.03859">
        <ele>972</ele>
        <time>2019-12-12T10:48:16Z</time>
      </trkpt>
      <trkpt lat="43.79371" lon="7.03865">
        <ele>972.5</ele>
        <time>2019-12-12T10:48:18Z</time>
      </trkpt>
      <trkpt lat="43.7937" lon="7.0387">
        <ele>973</ele>
        <time>2019-12-12T10:48:20Z</time>
      </trkpt>
      <trkpt lat="43.79369" lon="7.03876">
        <ele>973.5</ele>
        <time>2019-12-12T10:48:22Z</time>
      </trkpt>
      <trkpt lat="43.79367" lon="7.03882">
        <ele>974</ele>
        <time>2019-12-12T10:48:24Z</time>
      </trkpt>
      <trkpt lat="43.79367" lon="7.03887">
        <ele>974.4</ele>
        <time>2019-12-12T10:48:26Z</time>
      </trkpt>
      <trkpt lat="43.79366" lon="7.03892">
        <ele>974.9</ele>
        <time>2019-12-12T10:48:28Z</time>
      </trkpt>
      <trkpt lat="43.79366" lon="7.03898">
        <ele>975.4</ele>
        <time>2019-12-12T10:48:30Z</time>
      </trkpt>
      <trkpt lat="43.79366" lon="7.03904">
        <ele>975.9</ele>
        <time>2019-12-12T10:48:32Z</time>
      </trkpt>
      <trkpt lat="43.79366" lon="7.03909">
        <ele>976.4</ele>
        <time>2019-12-12T10:48:34Z</time>
      </trkpt>
      <trkpt lat="43.79364" lon="7.03915">
        <ele>976.4</ele>
        <time>2019-12-12T10:48:36Z</time>
      </trkpt>
      <trkpt lat="43.79363" lon="7.03921">
        <ele>976.8</ele>
        <time>2019-12-12T10:48:38Z</time>
      </trkpt>
      <trkpt lat="43.79362" lon="7.03927">
        <ele>976.8</ele>
        <time>2019-12-12T10:48:40Z</time>
      </trkpt>
      <trkpt lat="43.79361" lon="7.03933">
        <ele>977.3</ele>
        <time>2019-12-12T10:48:42Z</time>
      </trkpt>
      <trkpt lat="43.7936" lon="7.03941">
        <ele>977.8</ele>
        <time>2019-12-12T10:48:44Z</time>
      </trkpt>
      <trkpt lat="43.7936" lon="7.03947">
        <ele>978.3</ele>
        <time>2019-12-12T10:48:46Z</time>
      </trkpt>
      <trkpt lat="43.7936" lon="7.03954">
        <ele>978.3</ele>
        <time>2019-12-12T10:48:48Z</time>
      </trkpt>
      <trkpt lat="43.79359" lon="7.03961">
        <ele>978.3</ele>
        <time>2019-12-12T10:48:50Z</time>
      </trkpt>
      <trkpt lat="43.79358" lon="7.03969">
        <ele>978.3</ele>
        <time>2019-12-12T10:48:52Z</time>
      </trkpt>
      <trkpt lat="43.79358" lon="7.03975">
        <ele>977.8</ele>
        <time>2019-12-12T10:48:54Z</time>
      </trkpt>
      <trkpt lat="43.79356" lon="7.03981">
        <ele>978.3</ele>
        <time>2019-12-12T10:48:56Z</time>
      </trkpt>
      <trkpt lat="43.79354" lon="7.03987">
        <ele>977.8</ele>
        <time>2019-12-12T10:48:58Z</time>
      </trkpt>
      <trkpt lat="43.79354" lon="7.03993">
        <ele>977.8</ele>
        <time>2019-12-12T10:49:00Z</time>
      </trkpt>
      <trkpt lat="43.79353" lon="7.03999">
        <ele>977.8</ele>
        <time>2019-12-12T10:49:02Z</time>
      </trkpt>
      <trkpt lat="43.79353" lon="7.04004">
        <ele>977.3</ele>
        <time>2019-12-12T10:49:04Z</time>
      </trkpt>
      <trkpt lat="43.79352" lon="7.0401">
        <ele>977.3</ele>
        <time>2019-12-12T10:49:06Z</time>
      </trkpt>
      <trkpt lat="43.79351" lon="7.04015">
        <ele>976.8</ele>
        <time>2019-12-12T10:49:08Z</time>
      </trkpt>
      <trkpt lat="43.7935" lon="7.04021">
        <ele>976.4</ele>
        <time>2019-12-12T10:49:10Z</time>
      </trkpt>
      <trkpt lat="43.7935" lon="7.04027">
        <ele>975.9</ele>
        <time>2019-12-12T10:49:12Z</time>
      </trkpt>
      <trkpt lat="43.7935" lon="7.04033">
        <ele>975.4</ele>
        <time>2019-12-12T10:49:14Z</time>
      </trkpt>
      <trkpt lat="43.79351" lon="7.04039">
        <ele>974.4</ele>
        <time>2019-12-12T10:49:16Z</time>
      </trkpt>
      <trkpt lat="43.7935" lon="7.04044">
        <ele>974</ele>
        <time>2019-12-12T10:49:18Z</time>
      </trkpt>
      <trkpt lat="43.79349" lon="7.0405">
        <ele>973.5</ele>
        <time>2019-12-12T10:49:20Z</time>
      </trkpt>
      <trkpt lat="43.79348" lon="7.04055">
        <ele>973</ele>
        <time>2019-12-12T10:49:22Z</time>
      </trkpt>
      <trkpt lat="43.79347" lon="7.04061">
        <ele>972.5</ele>
        <time>2019-12-12T10:49:24Z</time>
      </trkpt>
      <trkpt lat="43.79346" lon="7.04066">
        <ele>971.5</ele>
        <time>2019-12-12T10:49:26Z</time>
      </trkpt>
      <trkpt lat="43.79345" lon="7.04071">
        <ele>970.6</ele>
        <time>2019-12-12T10:49:28Z</time>
      </trkpt>
      <trkpt lat="43.79343" lon="7.04075">
        <ele>970.1</ele>
        <time>2019-12-12T10:49:30Z</time>
      </trkpt>
      <trkpt lat="43.79341" lon="7.0408">
        <ele>970.1</ele>
        <time>2019-12-12T10:49:32Z</time>
      </trkpt>
      <trkpt lat="43.79339" lon="7.04085">
        <ele>970.6</ele>
        <time>2019-12-12T10:49:34Z</time>
      </trkpt>
      <trkpt lat="43.79337" lon="7.0409">
        <ele>970.6</ele>
        <time>2019-12-12T10:49:36Z</time>
      </trkpt>
      <trkpt lat="43.79335" lon="7.04094">
        <ele>970.6</ele>
        <time>2019-12-12T10:49:38Z</time>
      </trkpt>
      <trkpt lat="43.79333" lon="7.04097">
        <ele>970.6</ele>
        <time>2019-12-12T10:49:40Z</time>
      </trkpt>
      <trkpt lat="43.79331" lon="7.04101">
        <ele>970.6</ele>
        <time>2019-12-12T10:49:42Z</time>
      </trkpt>
      <trkpt lat="43.7933" lon="7.04105">
        <ele>970.1</ele>
        <time>2019-12-12T10:49:44Z</time>
      </trkpt>
      <trkpt lat="43.7933" lon="7.0411">
        <ele>969.6</ele>
        <time>2019-12-12T10:49:46Z</time>
      </trkpt>
      <trkpt lat="43.79328" lon="7.04114">
        <ele>969.6</ele>
        <time>2019-12-12T10:49:48Z</time>
      </trkpt>
      <trkpt lat="43.79327" lon="7.04118">
        <ele>969.1</ele>
        <time>2019-12-12T10:49:50Z</time>
      </trkpt>
      <trkpt lat="43.79326" lon="7.04121">
        <ele>968.2</ele>
        <time>2019-12-12T10:49:52Z</time>
      </trkpt>
      <trkpt lat="43.79324" lon="7.04124">
        <ele>968.2</ele>
        <time>2019-12-12T10:49:54Z</time>
      </trkpt>
      <trkpt lat="43.79323" lon="7.04128">
        <ele>967.7</ele>
        <time>2019-12-12T10:49:56Z</time>
      </trkpt>
      <trkpt lat="43.79323" lon="7.04131">
        <ele>968.2</ele>
        <time>2019-12-12T10:49:58Z</time>
      </trkpt>
      <trkpt lat="43.79324" lon="7.04136">
        <ele>968.2</ele>
        <time>2019-12-12T10:50:00Z</time>
      </trkpt>
      <trkpt lat="43.79325" lon="7.04139">
        <ele>969.1</ele>
        <time>2019-12-12T10:50:02Z</time>
      </trkpt>
      <trkpt lat="43.79326" lon="7.0414">
        <ele>969.1</ele>
        <time>2019-12-12T10:50:04Z</time>
      </trkpt>
      <trkpt lat="43.79328" lon="7.0414">
        <ele>969.1</ele>
        <time>2019-12-12T10:50:06Z</time>
      </trkpt>
      <trkpt lat="43.7933" lon="7.0414">
        <ele>968.7</ele>
        <time>2019-12-12T10:50:08Z</time>
      </trkpt>
      <trkpt lat="43.79333" lon="7.04139">
        <ele>968.7</ele>
        <time>2019-12-12T10:50:10Z</time>
      </trkpt>
      <trkpt lat="43.79336" lon="7.04138">
        <ele>968.7</ele>
        <time>2019-12-12T10:50:12Z</time>
      </trkpt>
      <trkpt lat="43.79337" lon="7.04134">
        <ele>968.2</ele>
        <time>2019-12-12T10:50:14Z</time>
      </trkpt>
      <trkpt lat="43.7934" lon="7.0413">
        <ele>967.7</ele>
        <time>2019-12-12T10:50:16Z</time>
      </trkpt>
      <trkpt lat="43.79344" lon="7.04126">
        <ele>966.7</ele>
        <time>2019-12-12T10:50:18Z</time>
      </trkpt>
      <trkpt lat="43.79347" lon="7.04121">
        <ele>965.8</ele>
        <time>2019-12-12T10:50:20Z</time>
      </trkpt>
      <trkpt lat="43.79349" lon="7.04117">
        <ele>964.8</ele>
        <time>2019-12-12T10:50:22Z</time>
      </trkpt>
      <trkpt lat="43.79351" lon="7.04114">
        <ele>963.9</ele>
        <time>2019-12-12T10:50:24Z</time>
      </trkpt>
      <trkpt lat="43.79353" lon="7.0411">
        <ele>963.4</ele>
        <time>2019-12-12T10:50:26Z</time>
      </trkpt>
      <trkpt lat="43.79356" lon="7.04105">
        <ele>963.4</ele>
        <time>2019-12-12T10:50:28Z</time>
      </trkpt>
      <trkpt lat="43.79358" lon="7.041">
        <ele>962.9</ele>
        <time>2019-12-12T10:50:30Z</time>
      </trkpt>
      <trkpt lat="43.79361" lon="7.04095">
        <ele>961.9</ele>
        <time>2019-12-12T10:50:32Z</time>
      </trkpt>
      <trkpt lat="43.79363" lon="7.04092">
        <ele>961.5</ele>
        <time>2019-12-12T10:50:34Z</time>
      </trkpt>
      <trkpt lat="43.79364" lon="7.04091">
        <ele>960.5</ele>
        <time>2019-12-12T10:50:36Z</time>
      </trkpt>
      <trkpt lat="43.79366" lon="7.0409">
        <ele>960.5</ele>
        <time>2019-12-12T10:50:38Z</time>
      </trkpt>
      <trkpt lat="43.79367" lon="7.04083">
        <ele>960.5</ele>
        <time>2019-12-12T10:50:40Z</time>
      </trkpt>
      <trkpt lat="43.7937" lon="7.04081">
        <ele>959.5</ele>
        <time>2019-12-12T10:50:42Z</time>
      </trkpt>
      <trkpt lat="43.79373" lon="7.04077">
        <ele>959.1</ele>
        <time>2019-12-12T10:50:44Z</time>
      </trkpt>
      <trkpt lat="43.79375" lon="7.04073">
        <ele>958.6</ele>
        <time>2019-12-12T10:50:46Z</time>
      </trkpt>
      <trkpt lat="43.79378" lon="7.04067">
        <ele>958.6</ele>
        <time>2019-12-12T10:50:48Z</time>
      </trkpt>
      <trkpt lat="43.79379" lon="7.04064">
        <ele>958.1</ele>
        <time>2019-12-12T10:50:50Z</time>
      </trkpt>
      <trkpt lat="43.79382" lon="7.04058">
        <ele>958.1</ele>
        <time>2019-12-12T10:50:52Z</time>
      </trkpt>
      <trkpt lat="43.79384" lon="7.04052">
        <ele>959.1</ele>
        <time>2019-12-12T10:50:54Z</time>
      </trkpt>
      <trkpt lat="43.79384" lon="7.04046">
        <ele>959.1</ele>
        <time>2019-12-12T10:50:56Z</time>
      </trkpt>
      <trkpt lat="43.79386" lon="7.04043">
        <ele>958.6</ele>
        <time>2019-12-12T10:50:58Z</time>
      </trkpt>
      <trkpt lat="43.79388" lon="7.04041">
        <ele>958.1</ele>
        <time>2019-12-12T10:51:00Z</time>
      </trkpt>
      <trkpt lat="43.79388" lon="7.04042">
        <ele>957.6</ele>
        <time>2019-12-12T10:51:02Z</time>
      </trkpt>
      <trkpt lat="43.79389" lon="7.04044">
        <ele>958.1</ele>
        <time>2019-12-12T10:51:04Z</time>
      </trkpt>
      <trkpt lat="43.79391" lon="7.04045">
        <ele>958.1</ele>
        <time>2019-12-12T10:51:06Z</time>
      </trkpt>
      <trkpt lat="43.79391" lon="7.04045">
        <ele>958.6</ele>
        <time>2019-12-12T10:51:08Z</time>
      </trkpt>
      <trkpt lat="43.79392" lon="7.04045">
        <ele>958.1</ele>
        <time>2019-12-12T10:51:10Z</time>
      </trkpt>
      <trkpt lat="43.79393" lon="7.04046">
        <ele>958.1</ele>
        <time>2019-12-12T10:51:12Z</time>
      </trkpt>
      <trkpt lat="43.79394" lon="7.04047">
        <ele>957.1</ele>
        <time>2019-12-12T10:51:14Z</time>
      </trkpt>
      <trkpt lat="43.79394" lon="7.04045">
        <ele>957.1</ele>
        <time>2019-12-12T10:51:16Z</time>
      </trkpt>
      <trkpt lat="43.79395" lon="7.04044">
        <ele>957.1</ele>
        <time>2019-12-12T10:51:18Z</time>
      </trkpt>
      <trkpt lat="43.79395" lon="7.04044">
        <ele>956.6</ele>
        <time>2019-12-12T10:51:20Z</time>
      </trkpt>
      <trkpt lat="43.79395" lon="7.04043">
        <ele>956.2</ele>
        <time>2019-12-12T10:51:22Z</time>
      </trkpt>
      <trkpt lat="43.79394" lon="7.04043">
        <ele>956.6</ele>
        <time>2019-12-12T10:51:24Z</time>
      </trkpt>
      <trkpt lat="43.79395" lon="7.04043">
        <ele>956.2</ele>
        <time>2019-12-12T10:51:26Z</time>
      </trkpt>
      <trkpt lat="43.79394" lon="7.04044">
        <ele>956.2</ele>
        <time>2019-12-12T10:51:28Z</time>
      </trkpt>
      <trkpt lat="43.79394" lon="7.04044">
        <ele>956.2</ele>
        <time>2019-12-12T10:51:30Z</time>
      </trkpt>
      <trkpt lat="43.79394" lon="7.04044">
        <ele>956.6</ele>
        <time>2019-12-12T10:51:32Z</time>
      </trkpt>
      <trkpt lat="43.79394" lon="7.04043">
        <ele>956.6</ele>
        <time>2019-12-12T10:51:34Z</time>
      </trkpt>
      <trkpt lat="43.79395" lon="7.04042">
        <ele>957.1</ele>
        <time>2019-12-12T10:51:36Z</time>
      </trkpt>
      <trkpt lat="43.79396" lon="7.04042">
        <ele>957.1</ele>
        <time>2019-12-12T10:51:38Z</time>
      </trkpt>
      <trkpt lat="43.79396" lon="7.04044">
        <ele>957.6</ele>
        <time>2019-12-12T10:51:40Z</time>
      </trkpt>
      <trkpt lat="43.79396" lon="7.04046">
        <ele>958.1</ele>
        <time>2019-12-12T10:51:42Z</time>
      </trkpt>
      <trkpt lat="43.79395" lon="7.04045">
        <ele>958.1</ele>
        <time>2019-12-12T10:51:44Z</time>
      </trkpt>
      <trkpt lat="43.79396" lon="7.04045">
        <ele>958.1</ele>
        <time>2019-12-12T10:51:46Z</time>
      </trkpt>
      <trkpt lat="43.79396" lon="7.04044">
        <ele>958.6</ele>
        <time>2019-12-12T10:51:48Z</time>
      </trkpt>
      <trkpt lat="43.79396" lon="7.04043">
        <ele>958.6</ele>
        <time>2019-12-12T10:51:50Z</time>
      </trkpt>
      <trkpt lat="43.79395" lon="7.04042">
        <ele>959.1</ele>
        <time>2019-12-12T10:51:52Z</time>
      </trkpt>
      <trkpt lat="43.79395" lon="7.04042">
        <ele>959.5</ele>
        <time>2019-12-12T10:51:54Z</time>
      </trkpt>
      <trkpt lat="43.79394" lon="7.04039">
        <ele>960.5</ele>
        <time>2019-12-12T10:51:56Z</time>
      </trkpt>
      <trkpt lat="43.79393" lon="7.04038">
        <ele>961</ele>
        <time>2019-12-12T10:51:58Z</time>
      </trkpt>
      <trkpt lat="43.79393" lon="7.04039">
        <ele>961</ele>
        <time>2019-12-12T10:52:00Z</time>
      </trkpt>
      <trkpt lat="43.79393" lon="7.0404">
        <ele>961.5</ele>
        <time>2019-12-12T10:52:02Z</time>
      </trkpt>
      <trkpt lat="43.79393" lon="7.04042">
        <ele>961.9</ele>
        <time>2019-12-12T10:52:04Z</time>
      </trkpt>
      <trkpt lat="43.79393" lon="7.04046">
        <ele>962.4</ele>
        <time>2019-12-12T10:52:06Z</time>
      </trkpt>
      <trkpt lat="43.79392" lon="7.04049">
        <ele>962.4</ele>
        <time>2019-12-12T10:52:08Z</time>
      </trkpt>
      <trkpt lat="43.79391" lon="7.04049">
        <ele>963.4</ele>
        <time>2019-12-12T10:52:10Z</time>
      </trkpt>
      <trkpt lat="43.7939" lon="7.04052">
        <ele>964.3</ele>
        <time>2019-12-12T10:52:12Z</time>
      </trkpt>
      <trkpt lat="43.7939" lon="7.0406">
        <ele>965.3</ele>
        <time>2019-12-12T10:52:14Z</time>
      </trkpt>
      <trkpt lat="43.7939" lon="7.04064">
        <ele>965.8</ele>
        <time>2019-12-12T10:52:16Z</time>
      </trkpt>
      <trkpt lat="43.7939" lon="7.04068">
        <ele>965.8</ele>
        <time>2019-12-12T10:52:18Z</time>
      </trkpt>
      <trkpt lat="43.7939" lon="7.04071">
        <ele>965.8</ele>
        <time>2019-12-12T10:52:20Z</time>
      </trkpt>
      <trkpt lat="43.7939" lon="7.04074">
        <ele>965.8</ele>
        <time>2019-12-12T10:52:22Z</time>
      </trkpt>
      <trkpt lat="43.7939" lon="7.04077">
        <ele>966.3</ele>
        <time>2019-12-12T10:52:24Z</time>
      </trkpt>
      <trkpt lat="43.79391" lon="7.04083">
        <ele>967.2</ele>
        <time>2019-12-12T10:52:26Z</time>
      </trkpt>
      <trkpt lat="43.79391" lon="7.04088">
        <ele>967.7</ele>
        <time>2019-12-12T10:52:28Z</time>
      </trkpt>
      <trkpt lat="43.79392" lon="7.04091">
        <ele>967.7</ele>
        <time>2019-12-12T10:52:30Z</time>
      </trkpt>
      <trkpt lat="43.79393" lon="7.04095">
        <ele>968.7</ele>
        <time>2019-12-12T10:52:32Z</time>
      </trkpt>
      <trkpt lat="43.79392" lon="7.04099">
        <ele>969.1</ele>
        <time>2019-12-12T10:52:34Z</time>
      </trkpt>
      <trkpt lat="43.79392" lon="7.04103">
        <ele>969.6</ele>
        <time>2019-12-12T10:52:36Z</time>
      </trkpt>
      <trkpt lat="43.79392" lon="7.04104">
        <ele>969.1</ele>
        <time>2019-12-12T10:52:38Z</time>
      </trkpt>
      <trkpt lat="43.7939" lon="7.04108">
        <ele>969.1</ele>
        <time>2019-12-12T10:52:40Z</time>
      </trkpt>
      <trkpt lat="43.79389" lon="7.04112">
        <ele>969.1</ele>
        <time>2019-12-12T10:52:42Z</time>
      </trkpt>
      <trkpt lat="43.79389" lon="7.04116">
        <ele>968.2</ele>
        <time>2019-12-12T10:52:44Z</time>
      </trkpt>
      <trkpt lat="43.79387" lon="7.04121">
        <ele>968.2</ele>
        <time>2019-12-12T10:52:46Z</time>
      </trkpt>
      <trkpt lat="43.79385" lon="7.04124">
        <ele>967.2</ele>
        <time>2019-12-12T10:52:48Z</time>
      </trkpt>
      <trkpt lat="43.79383" lon="7.04128">
        <ele>966.3</ele>
        <time>2019-12-12T10:52:50Z</time>
      </trkpt>
      <trkpt lat="43.79382" lon="7.04133">
        <ele>965.8</ele>
        <time>2019-12-12T10:52:52Z</time>
      </trkpt>
      <trkpt lat="43.79379" lon="7.04139">
        <ele>966.3</ele>
        <time>2019-12-12T10:52:54Z</time>
      </trkpt>
      <trkpt lat="43.79378" lon="7.04143">
        <ele>965.8</ele>
        <time>2019-12-12T10:52:56Z</time>
      </trkpt>
      <trkpt lat="43.79376" lon="7.04149">
        <ele>966.7</ele>
        <time>2019-12-12T10:52:58Z</time>
      </trkpt>
      <trkpt lat="43.79373" lon="7.04152">
        <ele>966.7</ele>
        <time>2019-12-12T10:53:00Z</time>
      </trkpt>
      <trkpt lat="43.79372" lon="7.04156">
        <ele>966.7</ele>
        <time>2019-12-12T10:53:02Z</time>
      </trkpt>
      <trkpt lat="43.79371" lon="7.0416">
        <ele>966.7</ele>
        <time>2019-12-12T10:53:04Z</time>
      </trkpt>
      <trkpt lat="43.7937" lon="7.04164">
        <ele>967.2</ele>
        <time>2019-12-12T10:53:06Z</time>
      </trkpt>
      <trkpt lat="43.7937" lon="7.04168">
        <ele>966.7</ele>
        <time>2019-12-12T10:53:08Z</time>
      </trkpt>
      <trkpt lat="43.79372" lon="7.04173">
        <ele>966.3</ele>
        <time>2019-12-12T10:53:10Z</time>
      </trkpt>
      <trkpt lat="43.79372" lon="7.04174">
        <ele>965.8</ele>
        <time>2019-12-12T10:53:12Z</time>
      </trkpt>
      <trkpt lat="43.79372" lon="7.04178">
        <ele>965.8</ele>
        <time>2019-12-12T10:53:14Z</time>
      </trkpt>
      <trkpt lat="43.79371" lon="7.04183">
        <ele>965.8</ele>
        <time>2019-12-12T10:53:16Z</time>
      </trkpt>
      <trkpt lat="43.79369" lon="7.04188">
        <ele>965.8</ele>
        <time>2019-12-12T10:53:18Z</time>
      </trkpt>
      <trkpt lat="43.79369" lon="7.04194">
        <ele>965.3</ele>
        <time>2019-12-12T10:53:20Z</time>
      </trkpt>
      <trkpt lat="43.79368" lon="7.04198">
        <ele>965.3</ele>
        <time>2019-12-12T10:53:22Z</time>
      </trkpt>
      <trkpt lat="43.79366" lon="7.04202">
        <ele>965.8</ele>
        <time>2019-12-12T10:53:24Z</time>
      </trkpt>
      <trkpt lat="43.79364" lon="7.04208">
        <ele>965.3</ele>
        <time>2019-12-12T10:53:26Z</time>
      </trkpt>
      <trkpt lat="43.79362" lon="7.04213">
        <ele>964.8</ele>
        <time>2019-12-12T10:53:28Z</time>
      </trkpt>
      <trkpt lat="43.7936" lon="7.04218">
        <ele>964.8</ele>
        <time>2019-12-12T10:53:30Z</time>
      </trkpt>
      <trkpt lat="43.7936" lon="7.04221">
        <ele>964.3</ele>
        <time>2019-12-12T10:53:32Z</time>
      </trkpt>
      <trkpt lat="43.7936" lon="7.04225">
        <ele>963.9</ele>
        <time>2019-12-12T10:53:34Z</time>
      </trkpt>
      <trkpt lat="43.79358" lon="7.04232">
        <ele>963.9</ele>
        <time>2019-12-12T10:53:36Z</time>
      </trkpt>
      <trkpt lat="43.79358" lon="7.04235">
        <ele>963.4</ele>
        <time>2019-12-12T10:53:38Z</time>
      </trkpt>
      <trkpt lat="43.79359" lon="7.04238">
        <ele>962.9</ele>
        <time>2019-12-12T10:53:40Z</time>
      </trkpt>
      <trkpt lat="43.79361" lon="7.04241">
        <ele>962.4</ele>
        <time>2019-12-12T10:53:42Z</time>
      </trkpt>
      <trkpt lat="43.79361" lon="7.04246">
        <ele>961.9</ele>
        <time>2019-12-12T10:53:44Z</time>
      </trkpt>
      <trkpt lat="43.79361" lon="7.0425">
        <ele>961.9</ele>
        <time>2019-12-12T10:53:46Z</time>
      </trkpt>
      <trkpt lat="43.79362" lon="7.04254">
        <ele>961</ele>
        <time>2019-12-12T10:53:48Z</time>
      </trkpt>
      <trkpt lat="43.79362" lon="7.04259">
        <ele>960.5</ele>
        <time>2019-12-12T10:53:50Z</time>
      </trkpt>
      <trkpt lat="43.79361" lon="7.04264">
        <ele>960.5</ele>
        <time>2019-12-12T10:53:52Z</time>
      </trkpt>
      <trkpt lat="43.79359" lon="7.04269">
        <ele>961.5</ele>
        <time>2019-12-12T10:53:54Z</time>
      </trkpt>
      <trkpt lat="43.79358" lon="7.04274">
        <ele>960.5</ele>
        <time>2019-12-12T10:53:56Z</time>
      </trkpt>
      <trkpt lat="43.79358" lon="7.04278">
        <ele>960.5</ele>
        <time>2019-12-12T10:53:58Z</time>
      </trkpt>
      <trkpt lat="43.79358" lon="7.04283">
        <ele>960</ele>
        <time>2019-12-12T10:54:00Z</time>
      </trkpt>
      <trkpt lat="43.79358" lon="7.04287">
        <ele>959.1</ele>
        <time>2019-12-12T10:54:02Z</time>
      </trkpt>
      <trkpt lat="43.79357" lon="7.04292">
        <ele>960</ele>
        <time>2019-12-12T10:54:04Z</time>
      </trkpt>
      <trkpt lat="43.79356" lon="7.04297">
        <ele>961</ele>
        <time>2019-12-12T10:54:06Z</time>
      </trkpt>
      <trkpt lat="43.79355" lon="7.04303">
        <ele>961.5</ele>
        <time>2019-12-12T10:54:08Z</time>
      </trkpt>
      <trkpt lat="43.79353" lon="7.04308">
        <ele>962.9</ele>
        <time>2019-12-12T10:54:10Z</time>
      </trkpt>
      <trkpt lat="43.7935" lon="7.04314">
        <ele>963.9</ele>
        <time>2019-12-12T10:54:12Z</time>
      </trkpt>
      <trkpt lat="43.7935" lon="7.04319">
        <ele>963.9</ele>
        <time>2019-12-12T10:54:14Z</time>
      </trkpt>
      <trkpt lat="43.79349" lon="7.04323">
        <ele>963.9</ele>
        <time>2019-12-12T10:54:16Z</time>
      </trkpt>
      <trkpt lat="43.79348" lon="7.04328">
        <ele>964.3</ele>
        <time>2019-12-12T10:54:18Z</time>
      </trkpt>
      <trkpt lat="43.79348" lon="7.04332">
        <ele>963.4</ele>
        <time>2019-12-12T10:54:20Z</time>
      </trkpt>
      <trkpt lat="43.79348" lon="7.04336">
        <ele>964.3</ele>
        <time>2019-12-12T10:54:22Z</time>
      </trkpt>
      <trkpt lat="43.79348" lon="7.04337">
        <ele>965.8</ele>
        <time>2019-12-12T10:54:24Z</time>
      </trkpt>
      <trkpt lat="43.79347" lon="7.0434">
        <ele>968.2</ele>
        <time>2019-12-12T10:54:26Z</time>
      </trkpt>
      <trkpt lat="43.79348" lon="7.0434">
        <ele>968.7</ele>
        <time>2019-12-12T10:54:28Z</time>
      </trkpt>
      <trkpt lat="43.79349" lon="7.04338">
        <ele>969.6</ele>
        <time>2019-12-12T10:54:30Z</time>
      </trkpt>
      <trkpt lat="43.7935" lon="7.04337">
        <ele>971.5</ele>
        <time>2019-12-12T10:54:32Z</time>
      </trkpt>
      <trkpt lat="43.79351" lon="7.04335">
        <ele>972.5</ele>
        <time>2019-12-12T10:54:34Z</time>
      </trkpt>
      <trkpt lat="43.79352" lon="7.04332">
        <ele>973</ele>
        <time>2019-12-12T10:54:36Z</time>
      </trkpt>
      <trkpt lat="43.79353" lon="7.04328">
        <ele>973.5</ele>
        <time>2019-12-12T10:54:38Z</time>
      </trkpt>
      <trkpt lat="43.79354" lon="7.04324">
        <ele>974.4</ele>
        <time>2019-12-12T10:54:40Z</time>
      </trkpt>
      <trkpt lat="43.79357" lon="7.0432">
        <ele>975.4</ele>
        <time>2019-12-12T10:54:42Z</time>
      </trkpt>
      <trkpt lat="43.79359" lon="7.04319">
        <ele>975.9</ele>
        <time>2019-12-12T10:54:44Z</time>
      </trkpt>
      <trkpt lat="43.79361" lon="7.04316">
        <ele>976.8</ele>
        <time>2019-12-12T10:54:46Z</time>
      </trkpt>
      <trkpt lat="43.79363" lon="7.04314">
        <ele>977.8</ele>
        <time>2019-12-12T10:54:48Z</time>
      </trkpt>
      <trkpt lat="43.79366" lon="7.04312">
        <ele>978.3</ele>
        <time>2019-12-12T10:54:50Z</time>
      </trkpt>
      <trkpt lat="43.79368" lon="7.04307">
        <ele>979.2</ele>
        <time>2019-12-12T10:54:52Z</time>
      </trkpt>
      <trkpt lat="43.79369" lon="7.04304">
        <ele>979.7</ele>
        <time>2019-12-12T10:54:54Z</time>
      </trkpt>
      <trkpt lat="43.79371" lon="7.04299">
        <ele>980.2</ele>
        <time>2019-12-12T10:54:56Z</time>
      </trkpt>
      <trkpt lat="43.79374" lon="7.04296">
        <ele>980.7</ele>
        <time>2019-12-12T10:54:58Z</time>
      </trkpt>
      <trkpt lat="43.79376" lon="7.04294">
        <ele>980.7</ele>
        <time>2019-12-12T10:55:00Z</time>
      </trkpt>
      <trkpt lat="43.79379" lon="7.04294">
        <ele>980.7</ele>
        <time>2019-12-12T10:55:02Z</time>
      </trkpt>
      <trkpt lat="43.79382" lon="7.04292">
        <ele>980.2</ele>
        <time>2019-12-12T10:55:04Z</time>
      </trkpt>
      <trkpt lat="43.79384" lon="7.04288">
        <ele>980.2</ele>
        <time>2019-12-12T10:55:06Z</time>
      </trkpt>
      <trkpt lat="43.79386" lon="7.04282">
        <ele>980.7</ele>
        <time>2019-12-12T10:55:08Z</time>
      </trkpt>
      <trkpt lat="43.79388" lon="7.04277">
        <ele>980.7</ele>
        <time>2019-12-12T10:55:10Z</time>
      </trkpt>
      <trkpt lat="43.79391" lon="7.04273">
        <ele>981.2</ele>
        <time>2019-12-12T10:55:12Z</time>
      </trkpt>
      <trkpt lat="43.79395" lon="7.0427">
        <ele>981.6</ele>
        <time>2019-12-12T10:55:14Z</time>
      </trkpt>
      <trkpt lat="43.79399" lon="7.04262">
        <ele>983.6</ele>
        <time>2019-12-12T10:55:16Z</time>
      </trkpt>
      <trkpt lat="43.79402" lon="7.04257">
        <ele>985</ele>
        <time>2019-12-12T10:55:18Z</time>
      </trkpt>
      <trkpt lat="43.79403" lon="7.04254">
        <ele>985.5</ele>
        <time>2019-12-12T10:55:20Z</time>
      </trkpt>
      <trkpt lat="43.79404" lon="7.04251">
        <ele>986.4</ele>
        <time>2019-12-12T10:55:22Z</time>
      </trkpt>
      <trkpt lat="43.79406" lon="7.04247">
        <ele>986.9</ele>
        <time>2019-12-12T10:55:24Z</time>
      </trkpt>
      <trkpt lat="43.79408" lon="7.04245">
        <ele>987.4</ele>
        <time>2019-12-12T10:55:26Z</time>
      </trkpt>
      <trkpt lat="43.79413" lon="7.04243">
        <ele>987.9</ele>
        <time>2019-12-12T10:55:28Z</time>
      </trkpt>
      <trkpt lat="43.79417" lon="7.04239">
        <ele>988.9</ele>
        <time>2019-12-12T10:55:30Z</time>
      </trkpt>
      <trkpt lat="43.7942" lon="7.04234">
        <ele>990.8</ele>
        <time>2019-12-12T10:55:32Z</time>
      </trkpt>
      <trkpt lat="43.79422" lon="7.0423">
        <ele>992.2</ele>
        <time>2019-12-12T10:55:34Z</time>
      </trkpt>
      <trkpt lat="43.79425" lon="7.04226">
        <ele>993.2</ele>
        <time>2019-12-12T10:55:36Z</time>
      </trkpt>
      <trkpt lat="43.79427" lon="7.04223">
        <ele>993.7</ele>
        <time>2019-12-12T10:55:38Z</time>
      </trkpt>
      <trkpt lat="43.7943" lon="7.0422">
        <ele>994.6</ele>
        <time>2019-12-12T10:55:40Z</time>
      </trkpt>
      <trkpt lat="43.79432" lon="7.04217">
        <ele>994.6</ele>
        <time>2019-12-12T10:55:42Z</time>
      </trkpt>
      <trkpt lat="43.79436" lon="7.04214">
        <ele>995.1</ele>
        <time>2019-12-12T10:55:44Z</time>
      </trkpt>
      <trkpt lat="43.7944" lon="7.04211">
        <ele>995.1</ele>
        <time>2019-12-12T10:55:46Z</time>
      </trkpt>
      <trkpt lat="43.79443" lon="7.04209">
        <ele>995.6</ele>
        <time>2019-12-12T10:55:48Z</time>
      </trkpt>
      <trkpt lat="43.79445" lon="7.04206">
        <ele>996.5</ele>
        <time>2019-12-12T10:55:50Z</time>
      </trkpt>
      <trkpt lat="43.79448" lon="7.04202">
        <ele>997.5</ele>
        <time>2019-12-12T10:55:52Z</time>
      </trkpt>
      <trkpt lat="43.79449" lon="7.04198">
        <ele>998.5</ele>
        <time>2019-12-12T10:55:54Z</time>
      </trkpt>
      <trkpt lat="43.79451" lon="7.04195">
        <ele>999.4</ele>
        <time>2019-12-12T10:55:56Z</time>
      </trkpt>
      <trkpt lat="43.79455" lon="7.04191">
        <ele>1000.9</ele>
        <time>2019-12-12T10:55:58Z</time>
      </trkpt>
      <trkpt lat="43.79459" lon="7.04188">
        <ele>1002.3</ele>
        <time>2019-12-12T10:56:00Z</time>
      </trkpt>
      <trkpt lat="43.7946" lon="7.04184">
        <ele>1003.8</ele>
        <time>2019-12-12T10:56:02Z</time>
      </trkpt>
      <trkpt lat="43.79461" lon="7.0418">
        <ele>1005.2</ele>
        <time>2019-12-12T10:56:04Z</time>
      </trkpt>
      <trkpt lat="43.79463" lon="7.04175">
        <ele>1006.6</ele>
        <time>2019-12-12T10:56:06Z</time>
      </trkpt>
      <trkpt lat="43.79463" lon="7.04171">
        <ele>1008.1</ele>
        <time>2019-12-12T10:56:08Z</time>
      </trkpt>
      <trkpt lat="43.79463" lon="7.04166">
        <ele>1010</ele>
        <time>2019-12-12T10:56:10Z</time>
      </trkpt>
      <trkpt lat="43.79463" lon="7.04162">
        <ele>1012.4</ele>
        <time>2019-12-12T10:56:12Z</time>
      </trkpt>
      <trkpt lat="43.79463" lon="7.04159">
        <ele>1013.8</ele>
        <time>2019-12-12T10:56:14Z</time>
      </trkpt>
      <trkpt lat="43.79464" lon="7.04147">
        <ele>1015.8</ele>
        <time>2019-12-12T10:56:16Z</time>
      </trkpt>
      <trkpt lat="43.79464" lon="7.04142">
        <ele>1017.2</ele>
        <time>2019-12-12T10:56:18Z</time>
      </trkpt>
      <trkpt lat="43.79463" lon="7.04138">
        <ele>1018.7</ele>
        <time>2019-12-12T10:56:20Z</time>
      </trkpt>
      <trkpt lat="43.79463" lon="7.04135">
        <ele>1019.6</ele>
        <time>2019-12-12T10:56:22Z</time>
      </trkpt>
      <trkpt lat="43.79463" lon="7.04132">
        <ele>1021.1</ele>
        <time>2019-12-12T10:56:24Z</time>
      </trkpt>
      <trkpt lat="43.79462" lon="7.04128">
        <ele>1021.1</ele>
        <time>2019-12-12T10:56:26Z</time>
      </trkpt>
      <trkpt lat="43.79463" lon="7.04124">
        <ele>1022</ele>
        <time>2019-12-12T10:56:28Z</time>
      </trkpt>
      <trkpt lat="43.79464" lon="7.04121">
        <ele>1022.5</ele>
        <time>2019-12-12T10:56:30Z</time>
      </trkpt>
      <trkpt lat="43.79463" lon="7.04116">
        <ele>1023</ele>
        <time>2019-12-12T10:56:32Z</time>
      </trkpt>
      <trkpt lat="43.79464" lon="7.04111">
        <ele>1023.5</ele>
        <time>2019-12-12T10:56:34Z</time>
      </trkpt>
      <trkpt lat="43.79466" lon="7.04106">
        <ele>1024.4</ele>
        <time>2019-12-12T10:56:36Z</time>
      </trkpt>
      <trkpt lat="43.79468" lon="7.04102">
        <ele>1024.9</ele>
        <time>2019-12-12T10:56:38Z</time>
      </trkpt>
      <trkpt lat="43.7947" lon="7.04098">
        <ele>1025.4</ele>
        <time>2019-12-12T10:56:40Z</time>
      </trkpt>
      <trkpt lat="43.79471" lon="7.04095">
        <ele>1025.9</ele>
        <time>2019-12-12T10:56:42Z</time>
      </trkpt>
      <trkpt lat="43.79472" lon="7.04093">
        <ele>1026.3</ele>
        <time>2019-12-12T10:56:44Z</time>
      </trkpt>
      <trkpt lat="43.79472" lon="7.04085">
        <ele>1026.8</ele>
        <time>2019-12-12T10:56:46Z</time>
      </trkpt>
      <trkpt lat="43.79474" lon="7.0408">
        <ele>1027.3</ele>
        <time>2019-12-12T10:56:48Z</time>
      </trkpt>
      <trkpt lat="43.79476" lon="7.04078">
        <ele>1027.8</ele>
        <time>2019-12-12T10:56:50Z</time>
      </trkpt>
      <trkpt lat="43.79477" lon="7.04075">
        <ele>1027.3</ele>
        <time>2019-12-12T10:56:52Z</time>
      </trkpt>
      <trkpt lat="43.79477" lon="7.04073">
        <ele>1027.3</ele>
        <time>2019-12-12T10:56:54Z</time>
      </trkpt>
      <trkpt lat="43.79478" lon="7.04073">
        <ele>1026.8</ele>
        <time>2019-12-12T10:56:56Z</time>
      </trkpt>
      <trkpt lat="43.79478" lon="7.04072">
        <ele>1027.3</ele>
        <time>2019-12-12T10:56:58Z</time>
      </trkpt>
      <trkpt lat="43.79479" lon="7.04072">
        <ele>1027.3</ele>
        <time>2019-12-12T10:57:00Z</time>
      </trkpt>
      <trkpt lat="43.79479" lon="7.04071">
        <ele>1027.3</ele>
        <time>2019-12-12T10:57:02Z</time>
      </trkpt>
      <trkpt lat="43.7948" lon="7.0407">
        <ele>1027.8</ele>
        <time>2019-12-12T10:57:04Z</time>
      </trkpt>
      <trkpt lat="43.7948" lon="7.04069">
        <ele>1027.8</ele>
        <time>2019-12-12T10:57:06Z</time>
      </trkpt>
      <trkpt lat="43.7948" lon="7.04069">
        <ele>1027.8</ele>
        <time>2019-12-12T10:57:08Z</time>
      </trkpt>
      <trkpt lat="43.7948" lon="7.04069">
        <ele>1027.8</ele>
        <time>2019-12-12T10:57:10Z</time>
      </trkpt>
      <trkpt lat="43.7948" lon="7.04069">
        <ele>1027.8</ele>
        <time>2019-12-12T10:57:12Z</time>
      </trkpt>
      <trkpt lat="43.7948" lon="7.04069">
        <ele>1027.8</ele>
        <time>2019-12-12T10:57:14Z</time>
      </trkpt>
      <trkpt lat="43.7948" lon="7.04069">
        <ele>1027.8</ele>
        <time>2019-12-12T10:57:16Z</time>
      </trkpt>
      <trkpt lat="43.7948" lon="7.0407">
        <ele>1027.8</ele>
        <time>2019-12-12T10:57:18Z</time>
      </trkpt>
      <trkpt lat="43.7948" lon="7.0407">
        <ele>1028.3</ele>
        <time>2019-12-12T10:57:20Z</time>
      </trkpt>
      <trkpt lat="43.7948" lon="7.0407">
        <ele>1028.3</ele>
        <time>2019-12-12T10:57:22Z</time>
      </trkpt>
      <trkpt lat="43.7948" lon="7.04069">
        <ele>1028.3</ele>
        <time>2019-12-12T10:57:24Z</time>
      </trkpt>
      <trkpt lat="43.7948" lon="7.0407">
        <ele>1028.3</ele>
        <time>2019-12-12T10:57:26Z</time>
      </trkpt>
      <trkpt lat="43.7948" lon="7.04069">
        <ele>1028.3</ele>
        <time>2019-12-12T10:57:28Z</time>
      </trkpt>
      <trkpt lat="43.7948" lon="7.04069">
        <ele>1028.3</ele>
        <time>2019-12-12T10:57:30Z</time>
      </trkpt>
      <trkpt lat="43.7948" lon="7.04069">
        <ele>1028.3</ele>
        <time>2019-12-12T10:57:32Z</time>
      </trkpt>
      <trkpt lat="43.7948" lon="7.04069">
        <ele>1027.8</ele>
        <time>2019-12-12T10:57:34Z</time>
      </trkpt>
      <trkpt lat="43.7948" lon="7.04069">
        <ele>1027.8</ele>
        <time>2019-12-12T10:57:36Z</time>
      </trkpt>
      <trkpt lat="43.7948" lon="7.04069">
        <ele>1027.8</ele>
        <time>2019-12-12T10:57:38Z</time>
      </trkpt>
      <trkpt lat="43.7948" lon="7.04069">
        <ele>1027.8</ele>
        <time>2019-12-12T10:57:40Z</time>
      </trkpt>
      <trkpt lat="43.7948" lon="7.04069">
        <ele>1027.8</ele>
        <time>2019-12-12T10:57:42Z</time>
      </trkpt>
      <trkpt lat="43.7948" lon="7.04069">
        <ele>1027.8</ele>
        <time>2019-12-12T10:57:44Z</time>
      </trkpt>
      <trkpt lat="43.7948" lon="7.04069">
        <ele>1027.8</ele>
        <time>2019-12-12T10:57:46Z</time>
      </trkpt>
      <trkpt lat="43.79481" lon="7.04069">
        <ele>1027.8</ele>
        <time>2019-12-12T10:57:48Z</time>
      </trkpt>
      <trkpt lat="43.79481" lon="7.04068">
        <ele>1027.8</ele>
        <time>2019-12-12T10:57:50Z</time>
      </trkpt>
      <trkpt lat="43.79481" lon="7.04068">
        <ele>1027.8</ele>
        <time>2019-12-12T10:57:52Z</time>
      </trkpt>
      <trkpt lat="43.79481" lon="7.04068">
        <ele>1027.8</ele>
        <time>2019-12-12T10:57:54Z</time>
      </trkpt>
      <trkpt lat="43.79481" lon="7.04068">
        <ele>1027.8</ele>
        <time>2019-12-12T10:57:56Z</time>
      </trkpt>
      <trkpt lat="43.79481" lon="7.04068">
        <ele>1027.3</ele>
        <time>2019-12-12T10:57:58Z</time>
      </trkpt>
      <trkpt lat="43.79481" lon="7.04068">
        <ele>1027.3</ele>
        <time>2019-12-12T10:58:00Z</time>
      </trkpt>
      <trkpt lat="43.79482" lon="7.04068">
        <ele>1027.3</ele>
        <time>2019-12-12T10:58:02Z</time>
      </trkpt>
      <trkpt lat="43.79482" lon="7.04068">
        <ele>1027.3</ele>
        <time>2019-12-12T10:58:04Z</time>
      </trkpt>
      <trkpt lat="43.79482" lon="7.04069">
        <ele>1027.3</ele>
        <time>2019-12-12T10:58:06Z</time>
      </trkpt>
      <trkpt lat="43.79482" lon="7.04069">
        <ele>1027.3</ele>
        <time>2019-12-12T10:58:08Z</time>
      </trkpt>
      <trkpt lat="43.79481" lon="7.04069">
        <ele>1027.3</ele>
        <time>2019-12-12T10:58:10Z</time>
      </trkpt>
      <trkpt lat="43.79481" lon="7.04069">
        <ele>1027.3</ele>
        <time>2019-12-12T10:58:12Z</time>
      </trkpt>
      <trkpt lat="43.7948" lon="7.0407">
        <ele>1027.3</ele>
        <time>2019-12-12T10:58:14Z</time>
      </trkpt>
      <trkpt lat="43.7948" lon="7.0407">
        <ele>1027.3</ele>
        <time>2019-12-12T10:58:16Z</time>
      </trkpt>
      <trkpt lat="43.79479" lon="7.04069">
        <ele>1027.3</ele>
        <time>2019-12-12T10:58:18Z</time>
      </trkpt>
      <trkpt lat="43.79479" lon="7.04069">
        <ele>1027.3</ele>
        <time>2019-12-12T10:58:20Z</time>
      </trkpt>
      <trkpt lat="43.79478" lon="7.04068">
        <ele>1026.8</ele>
        <time>2019-12-12T10:58:22Z</time>
      </trkpt>
      <trkpt lat="43.79478" lon="7.04068">
        <ele>1026.8</ele>
        <time>2019-12-12T10:58:24Z</time>
      </trkpt>
      <trkpt lat="43.79478" lon="7.04067">
        <ele>1026.8</ele>
        <time>2019-12-12T10:58:26Z</time>
      </trkpt>
      <trkpt lat="43.7948" lon="7.04065">
        <ele>1026.8</ele>
        <time>2019-12-12T10:58:28Z</time>
      </trkpt>
      <trkpt lat="43.79482" lon="7.04065">
        <ele>1026.8</ele>
        <time>2019-12-12T10:58:30Z</time>
      </trkpt>
      <trkpt lat="43.79484" lon="7.04065">
        <ele>1026.3</ele>
        <time>2019-12-12T10:58:32Z</time>
      </trkpt>
      <trkpt lat="43.79485" lon="7.04064">
        <ele>1026.3</ele>
        <time>2019-12-12T10:58:34Z</time>
      </trkpt>
      <trkpt lat="43.79486" lon="7.04064">
        <ele>1026.3</ele>
        <time>2019-12-12T10:58:36Z</time>
      </trkpt>
      <trkpt lat="43.79487" lon="7.04063">
        <ele>1026.3</ele>
        <time>2019-12-12T10:58:38Z</time>
      </trkpt>
      <trkpt lat="43.79487" lon="7.04063">
        <ele>1026.3</ele>
        <time>2019-12-12T10:58:40Z</time>
      </trkpt>
      <trkpt lat="43.79487" lon="7.04062">
        <ele>1026.3</ele>
        <time>2019-12-12T10:58:42Z</time>
      </trkpt>
      <trkpt lat="43.79487" lon="7.04062">
        <ele>1026.3</ele>
        <time>2019-12-12T10:58:44Z</time>
      </trkpt>
      <trkpt lat="43.79488" lon="7.04062">
        <ele>1026.3</ele>
        <time>2019-12-12T10:58:46Z</time>
      </trkpt>
      <trkpt lat="43.79488" lon="7.04062">
        <ele>1026.3</ele>
        <time>2019-12-12T10:58:48Z</time>
      </trkpt>
      <trkpt lat="43.79488" lon="7.04062">
        <ele>1026.3</ele>
        <time>2019-12-12T10:58:50Z</time>
      </trkpt>
      <trkpt lat="43.79488" lon="7.04061">
        <ele>1026.3</ele>
        <time>2019-12-12T10:58:52Z</time>
      </trkpt>
      <trkpt lat="43.79488" lon="7.04062">
        <ele>1026.3</ele>
        <time>2019-12-12T10:58:54Z</time>
      </trkpt>
      <trkpt lat="43.79488" lon="7.04062">
        <ele>1026.3</ele>
        <time>2019-12-12T10:58:56Z</time>
      </trkpt>
      <trkpt lat="43.79488" lon="7.04062">
        <ele>1026.3</ele>
        <time>2019-12-12T10:58:58Z</time>
      </trkpt>
      <trkpt lat="43.79488" lon="7.04061">
        <ele>1026.3</ele>
        <time>2019-12-12T10:59:00Z</time>
      </trkpt>
      <trkpt lat="43.79487" lon="7.04062">
        <ele>1025.9</ele>
        <time>2019-12-12T10:59:02Z</time>
      </trkpt>
      <trkpt lat="43.79487" lon="7.04062">
        <ele>1025.9</ele>
        <time>2019-12-12T10:59:04Z</time>
      </trkpt>
      <trkpt lat="43.79486" lon="7.04063">
        <ele>1025.9</ele>
        <time>2019-12-12T10:59:06Z</time>
      </trkpt>
      <trkpt lat="43.79484" lon="7.04063">
        <ele>1025.4</ele>
        <time>2019-12-12T10:59:08Z</time>
      </trkpt>
      <trkpt lat="43.79483" lon="7.04064">
        <ele>1024.9</ele>
        <time>2019-12-12T10:59:10Z</time>
      </trkpt>
      <trkpt lat="43.79483" lon="7.04065">
        <ele>1024.4</ele>
        <time>2019-12-12T10:59:12Z</time>
      </trkpt>
      <trkpt lat="43.79482" lon="7.04066">
        <ele>1023.9</ele>
        <time>2019-12-12T10:59:14Z</time>
      </trkpt>
      <trkpt lat="43.79481" lon="7.04068">
        <ele>1023.9</ele>
        <time>2019-12-12T10:59:16Z</time>
      </trkpt>
      <trkpt lat="43.7948" lon="7.0407">
        <ele>1023.5</ele>
        <time>2019-12-12T10:59:18Z</time>
      </trkpt>
      <trkpt lat="43.79479" lon="7.04071">
        <ele>1023.5</ele>
        <time>2019-12-12T10:59:20Z</time>
      </trkpt>
      <trkpt lat="43.79478" lon="7.04072">
        <ele>1023</ele>
        <time>2019-12-12T10:59:22Z</time>
      </trkpt>
      <trkpt lat="43.79478" lon="7.04075">
        <ele>1022.5</ele>
        <time>2019-12-12T10:59:24Z</time>
      </trkpt>
      <trkpt lat="43.79477" lon="7.04078">
        <ele>1022.5</ele>
        <time>2019-12-12T10:59:26Z</time>
      </trkpt>
      <trkpt lat="43.79478" lon="7.0408">
        <ele>1022.5</ele>
        <time>2019-12-12T10:59:28Z</time>
      </trkpt>
      <trkpt lat="43.79478" lon="7.04081">
        <ele>1023</ele>
        <time>2019-12-12T10:59:30Z</time>
      </trkpt>
      <trkpt lat="43.79477" lon="7.04084">
        <ele>1023</ele>
        <time>2019-12-12T10:59:32Z</time>
      </trkpt>
      <trkpt lat="43.79476" lon="7.04086">
        <ele>1023</ele>
        <time>2019-12-12T10:59:34Z</time>
      </trkpt>
      <trkpt lat="43.79474" lon="7.04088">
        <ele>1022.5</ele>
        <time>2019-12-12T10:59:36Z</time>
      </trkpt>
      <trkpt lat="43.79473" lon="7.04091">
        <ele>1022.5</ele>
        <time>2019-12-12T10:59:38Z</time>
      </trkpt>
      <trkpt lat="43.79472" lon="7.04093">
        <ele>1022.5</ele>
        <time>2019-12-12T10:59:40Z</time>
      </trkpt>
      <trkpt lat="43.79471" lon="7.04094">
        <ele>1022</ele>
        <time>2019-12-12T10:59:42Z</time>
      </trkpt>
      <trkpt lat="43.7947" lon="7.04096">
        <ele>1022.5</ele>
        <time>2019-12-12T10:59:44Z</time>
      </trkpt>
      <trkpt lat="43.7947" lon="7.04096">
        <ele>1022.5</ele>
        <time>2019-12-12T10:59:46Z</time>
      </trkpt>
      <trkpt lat="43.7947" lon="7.04096">
        <ele>1022</ele>
        <time>2019-12-12T10:59:48Z</time>
      </trkpt>
      <trkpt lat="43.7947" lon="7.04096">
        <ele>1022</ele>
        <time>2019-12-12T10:59:50Z</time>
      </trkpt>
      <trkpt lat="43.7947" lon="7.04096">
        <ele>1022</ele>
        <time>2019-12-12T10:59:51Z</time>
      </trkpt>
      <trkpt lat="43.79473" lon="7.04098">
        <ele>1012.4</ele>
        <time>2019-12-12T11:22:55Z</time>
      </trkpt>
      <trkpt lat="43.79469" lon="7.04096">
        <ele>1016.7</ele>
        <time>2019-12-12T11:22:57Z</time>
      </trkpt>
      <trkpt lat="43.79464" lon="7.04099">
        <ele>1037.9</ele>
        <time>2019-12-12T11:22:59Z</time>
      </trkpt>
      <trkpt lat="43.79464" lon="7.041">
        <ele>1035</ele>
        <time>2019-12-12T11:23:01Z</time>
      </trkpt>
      <trkpt lat="43.79463" lon="7.04099">
        <ele>1032.6</ele>
        <time>2019-12-12T11:23:05Z</time>
      </trkpt>
      <trkpt lat="43.79463" lon="7.041">
        <ele>1033.1</ele>
        <time>2019-12-12T11:23:07Z</time>
      </trkpt>
      <trkpt lat="43.79463" lon="7.041">
        <ele>1033.1</ele>
        <time>2019-12-12T11:23:09Z</time>
      </trkpt>
      <trkpt lat="43.79463" lon="7.041">
        <ele>1032.1</ele>
        <time>2019-12-12T11:23:11Z</time>
      </trkpt>
      <trkpt lat="43.79463" lon="7.041">
        <ele>1030.2</ele>
        <time>2019-12-12T11:23:13Z</time>
      </trkpt>
      <trkpt lat="43.79464" lon="7.04101">
        <ele>1029.7</ele>
        <time>2019-12-12T11:23:15Z</time>
      </trkpt>
      <trkpt lat="43.79463" lon="7.04103">
        <ele>1029.2</ele>
        <time>2019-12-12T11:23:17Z</time>
      </trkpt>
      <trkpt lat="43.79463" lon="7.04103">
        <ele>1028.7</ele>
        <time>2019-12-12T11:23:19Z</time>
      </trkpt>
      <trkpt lat="43.79463" lon="7.04103">
        <ele>1028.7</ele>
        <time>2019-12-12T11:23:21Z</time>
      </trkpt>
      <trkpt lat="43.79463" lon="7.04104">
        <ele>1028.7</ele>
        <time>2019-12-12T11:23:23Z</time>
      </trkpt>
      <trkpt lat="43.79462" lon="7.04104">
        <ele>1029.2</ele>
        <time>2019-12-12T11:23:27Z</time>
      </trkpt>
      <trkpt lat="43.79462" lon="7.04103">
        <ele>1029.2</ele>
        <time>2019-12-12T11:23:29Z</time>
      </trkpt>
      <trkpt lat="43.79462" lon="7.04103">
        <ele>1029.2</ele>
        <time>2019-12-12T11:23:31Z</time>
      </trkpt>
      <trkpt lat="43.79462" lon="7.04103">
        <ele>1029.2</ele>
        <time>2019-12-12T11:23:33Z</time>
      </trkpt>
      <trkpt lat="43.79462" lon="7.04103">
        <ele>1029.2</ele>
        <time>2019-12-12T11:23:35Z</time>
      </trkpt>
      <trkpt lat="43.79462" lon="7.04103">
        <ele>1029.2</ele>
        <time>2019-12-12T11:23:37Z</time>
      </trkpt>
      <trkpt lat="43.79461" lon="7.04104">
        <ele>1029.2</ele>
        <time>2019-12-12T11:23:39Z</time>
      </trkpt>
      <trkpt lat="43.79461" lon="7.04104">
        <ele>1029.2</ele>
        <time>2019-12-12T11:23:41Z</time>
      </trkpt>
      <trkpt lat="43.79461" lon="7.04104">
        <ele>1029.2</ele>
        <time>2019-12-12T11:23:43Z</time>
      </trkpt>
      <trkpt lat="43.79461" lon="7.04104">
        <ele>1029.2</ele>
        <time>2019-12-12T11:23:45Z</time>
      </trkpt>
      <trkpt lat="43.79461" lon="7.04103">
        <ele>1029.2</ele>
        <time>2019-12-12T11:23:47Z</time>
      </trkpt>
      <trkpt lat="43.79461" lon="7.04104">
        <ele>1029.2</ele>
        <time>2019-12-12T11:23:49Z</time>
      </trkpt>
      <trkpt lat="43.79461" lon="7.04105">
        <ele>1029.2</ele>
        <time>2019-12-12T11:23:51Z</time>
      </trkpt>
      <trkpt lat="43.79461" lon="7.04106">
        <ele>1029.2</ele>
        <time>2019-12-12T11:23:53Z</time>
      </trkpt>
      <trkpt lat="43.79461" lon="7.04106">
        <ele>1029.2</ele>
        <time>2019-12-12T11:23:55Z</time>
      </trkpt>
      <trkpt lat="43.79461" lon="7.04106">
        <ele>1029.2</ele>
        <time>2019-12-12T11:23:57Z</time>
      </trkpt>
      <trkpt lat="43.79461" lon="7.04107">
        <ele>1029.2</ele>
        <time>2019-12-12T11:23:59Z</time>
      </trkpt>
      <trkpt lat="43.79462" lon="7.04108">
        <ele>1029.2</ele>
        <time>2019-12-12T11:24:01Z</time>
      </trkpt>
      <trkpt lat="43.79462" lon="7.0411">
        <ele>1029.2</ele>
        <time>2019-12-12T11:24:03Z</time>
      </trkpt>
      <trkpt lat="43.79461" lon="7.04114">
        <ele>1029.2</ele>
        <time>2019-12-12T11:24:05Z</time>
      </trkpt>
      <trkpt lat="43.79462" lon="7.04116">
        <ele>1029.7</ele>
        <time>2019-12-12T11:24:07Z</time>
      </trkpt>
      <trkpt lat="43.79462" lon="7.04118">
        <ele>1029.7</ele>
        <time>2019-12-12T11:24:09Z</time>
      </trkpt>
      <trkpt lat="43.79463" lon="7.0412">
        <ele>1030.2</ele>
        <time>2019-12-12T11:24:11Z</time>
      </trkpt>
      <trkpt lat="43.79464" lon="7.04122">
        <ele>1030.2</ele>
        <time>2019-12-12T11:24:13Z</time>
      </trkpt>
      <trkpt lat="43.79464" lon="7.04125">
        <ele>1030.2</ele>
        <time>2019-12-12T11:24:15Z</time>
      </trkpt>
      <trkpt lat="43.79465" lon="7.04129">
        <ele>1030.7</ele>
        <time>2019-12-12T11:24:17Z</time>
      </trkpt>
      <trkpt lat="43.79469" lon="7.04141">
        <ele>1031.2</ele>
        <time>2019-12-12T11:24:19Z</time>
      </trkpt>
      <trkpt lat="43.79471" lon="7.04153">
        <ele>1031.6</ele>
        <time>2019-12-12T11:24:21Z</time>
      </trkpt>
      <trkpt lat="43.79465" lon="7.04167">
        <ele>1031.6</ele>
        <time>2019-12-12T11:24:23Z</time>
      </trkpt>
      <trkpt lat="43.79461" lon="7.04173">
        <ele>1032.1</ele>
        <time>2019-12-12T11:24:25Z</time>
      </trkpt>
      <trkpt lat="43.79453" lon="7.0418">
        <ele>1032.6</ele>
        <time>2019-12-12T11:24:27Z</time>
      </trkpt>
      <trkpt lat="43.79444" lon="7.0419">
        <ele>1032.6</ele>
        <time>2019-12-12T11:24:29Z</time>
      </trkpt>
      <trkpt lat="43.79435" lon="7.042">
        <ele>1032.6</ele>
        <time>2019-12-12T11:24:31Z</time>
      </trkpt>
      <trkpt lat="43.79428" lon="7.0421">
        <ele>1032.6</ele>
        <time>2019-12-12T11:24:33Z</time>
      </trkpt>
      <trkpt lat="43.7942" lon="7.04219">
        <ele>1032.6</ele>
        <time>2019-12-12T11:24:35Z</time>
      </trkpt>
      <trkpt lat="43.79411" lon="7.04229">
        <ele>1032.1</ele>
        <time>2019-12-12T11:24:37Z</time>
      </trkpt>
      <trkpt lat="43.79402" lon="7.04239">
        <ele>1032.1</ele>
        <time>2019-12-12T11:24:39Z</time>
      </trkpt>
      <trkpt lat="43.79393" lon="7.04249">
        <ele>1031.6</ele>
        <time>2019-12-12T11:24:41Z</time>
      </trkpt>
      <trkpt lat="43.79382" lon="7.0426">
        <ele>1031.6</ele>
        <time>2019-12-12T11:24:43Z</time>
      </trkpt>
      <trkpt lat="43.79371" lon="7.04271">
        <ele>1031.2</ele>
        <time>2019-12-12T11:24:45Z</time>
      </trkpt>
      <trkpt lat="43.79363" lon="7.04285">
        <ele>1031.2</ele>
        <time>2019-12-12T11:24:47Z</time>
      </trkpt>
      <trkpt lat="43.79357" lon="7.04298">
        <ele>1031.2</ele>
        <time>2019-12-12T11:24:49Z</time>
      </trkpt>
      <trkpt lat="43.79352" lon="7.04321">
        <ele>1029.7</ele>
        <time>2019-12-12T11:24:51Z</time>
      </trkpt>
      <trkpt lat="43.79346" lon="7.04336">
        <ele>1029.7</ele>
        <time>2019-12-12T11:24:53Z</time>
      </trkpt>
      <trkpt lat="43.79342" lon="7.04348">
        <ele>1028.7</ele>
        <time>2019-12-12T11:24:55Z</time>
      </trkpt>
      <trkpt lat="43.7934" lon="7.04355">
        <ele>1028.3</ele>
        <time>2019-12-12T11:24:57Z</time>
      </trkpt>
      <trkpt lat="43.79337" lon="7.04361">
        <ele>1027.8</ele>
        <time>2019-12-12T11:24:59Z</time>
      </trkpt>
      <trkpt lat="43.79333" lon="7.0437">
        <ele>1026.8</ele>
        <time>2019-12-12T11:25:01Z</time>
      </trkpt>
      <trkpt lat="43.79328" lon="7.0438">
        <ele>1026.3</ele>
        <time>2019-12-12T11:25:03Z</time>
      </trkpt>
      <trkpt lat="43.79324" lon="7.04393">
        <ele>1026.8</ele>
        <time>2019-12-12T11:25:05Z</time>
      </trkpt>
      <trkpt lat="43.79318" lon="7.04408">
        <ele>1026.3</ele>
        <time>2019-12-12T11:25:07Z</time>
      </trkpt>
      <trkpt lat="43.79311" lon="7.04423">
        <ele>1026.3</ele>
        <time>2019-12-12T11:25:09Z</time>
      </trkpt>
      <trkpt lat="43.79306" lon="7.04436">
        <ele>1025.4</ele>
        <time>2019-12-12T11:25:11Z</time>
      </trkpt>
      <trkpt lat="43.79301" lon="7.04445">
        <ele>1025.4</ele>
        <time>2019-12-12T11:25:13Z</time>
      </trkpt>
      <trkpt lat="43.79294" lon="7.04456">
        <ele>1025.4</ele>
        <time>2019-12-12T11:25:15Z</time>
      </trkpt>
      <trkpt lat="43.79287" lon="7.04469">
        <ele>1024.4</ele>
        <time>2019-12-12T11:25:17Z</time>
      </trkpt>
      <trkpt lat="43.7928" lon="7.04483">
        <ele>1023.5</ele>
        <time>2019-12-12T11:25:19Z</time>
      </trkpt>
      <trkpt lat="43.79273" lon="7.04488">
        <ele>1023.5</ele>
        <time>2019-12-12T11:25:21Z</time>
      </trkpt>
      <trkpt lat="43.79271" lon="7.04492">
        <ele>1023.5</ele>
        <time>2019-12-12T11:25:23Z</time>
      </trkpt>
      <trkpt lat="43.79269" lon="7.04489">
        <ele>1023.5</ele>
        <time>2019-12-12T11:25:25Z</time>
      </trkpt>
      <trkpt lat="43.7927" lon="7.04483">
        <ele>1023.5</ele>
        <time>2019-12-12T11:25:27Z</time>
      </trkpt>
      <trkpt lat="43.79274" lon="7.04476">
        <ele>1023.5</ele>
        <time>2019-12-12T11:25:29Z</time>
      </trkpt>
      <trkpt lat="43.79279" lon="7.04467">
        <ele>1023.5</ele>
        <time>2019-12-12T11:25:31Z</time>
      </trkpt>
      <trkpt lat="43.79283" lon="7.04456">
        <ele>1023.9</ele>
        <time>2019-12-12T11:25:33Z</time>
      </trkpt>
      <trkpt lat="43.79287" lon="7.04441">
        <ele>1024.9</ele>
        <time>2019-12-12T11:25:35Z</time>
      </trkpt>
      <trkpt lat="43.7929" lon="7.04426">
        <ele>1025.4</ele>
        <time>2019-12-12T11:25:37Z</time>
      </trkpt>
      <trkpt lat="43.79294" lon="7.04408">
        <ele>1026.3</ele>
        <time>2019-12-12T11:25:39Z</time>
      </trkpt>
      <trkpt lat="43.79298" lon="7.04389">
        <ele>1026.8</ele>
        <time>2019-12-12T11:25:41Z</time>
      </trkpt>
      <trkpt lat="43.79303" lon="7.0437">
        <ele>1027.3</ele>
        <time>2019-12-12T11:25:43Z</time>
      </trkpt>
      <trkpt lat="43.79307" lon="7.04349">
        <ele>1027.8</ele>
        <time>2019-12-12T11:25:45Z</time>
      </trkpt>
      <trkpt lat="43.79311" lon="7.04328">
        <ele>1027.8</ele>
        <time>2019-12-12T11:25:47Z</time>
      </trkpt>
      <trkpt lat="43.79315" lon="7.04305">
        <ele>1028.3</ele>
        <time>2019-12-12T11:25:49Z</time>
      </trkpt>
      <trkpt lat="43.7932" lon="7.04283">
        <ele>1028.3</ele>
        <time>2019-12-12T11:25:51Z</time>
      </trkpt>
      <trkpt lat="43.79324" lon="7.04261">
        <ele>1029.2</ele>
        <time>2019-12-12T11:25:53Z</time>
      </trkpt>
      <trkpt lat="43.79326" lon="7.04241">
        <ele>1030.7</ele>
        <time>2019-12-12T11:25:55Z</time>
      </trkpt>
      <trkpt lat="43.79329" lon="7.04224">
        <ele>1031.6</ele>
        <time>2019-12-12T11:25:57Z</time>
      </trkpt>
      <trkpt lat="43.79331" lon="7.04206">
        <ele>1032.6</ele>
        <time>2019-12-12T11:25:59Z</time>
      </trkpt>
      <trkpt lat="43.79333" lon="7.04187">
        <ele>1033.6</ele>
        <time>2019-12-12T11:26:01Z</time>
      </trkpt>
      <trkpt lat="43.79335" lon="7.0417">
        <ele>1035</ele>
        <time>2019-12-12T11:26:03Z</time>
      </trkpt>
      <trkpt lat="43.79337" lon="7.04155">
        <ele>1036</ele>
        <time>2019-12-12T11:26:05Z</time>
      </trkpt>
      <trkpt lat="43.79339" lon="7.04139">
        <ele>1037.4</ele>
        <time>2019-12-12T11:26:07Z</time>
      </trkpt>
      <trkpt lat="43.79345" lon="7.04129">
        <ele>1037.4</ele>
        <time>2019-12-12T11:26:09Z</time>
      </trkpt>
      <trkpt lat="43.79351" lon="7.04112">
        <ele>1038.4</ele>
        <time>2019-12-12T11:26:11Z</time>
      </trkpt>
      <trkpt lat="43.79358" lon="7.04093">
        <ele>1039.8</ele>
        <time>2019-12-12T11:26:13Z</time>
      </trkpt>
      <trkpt lat="43.79366" lon="7.04074">
        <ele>1040.8</ele>
        <time>2019-12-12T11:26:15Z</time>
      </trkpt>
      <trkpt lat="43.79371" lon="7.04053">
        <ele>1042.2</ele>
        <time>2019-12-12T11:26:17Z</time>
      </trkpt>
      <trkpt lat="43.79373" lon="7.04037">
        <ele>1043.2</ele>
        <time>2019-12-12T11:26:19Z</time>
      </trkpt>
      <trkpt lat="43.79372" lon="7.04031">
        <ele>1044.1</ele>
        <time>2019-12-12T11:26:21Z</time>
      </trkpt>
      <trkpt lat="43.7937" lon="7.04028">
        <ele>1044.1</ele>
        <time>2019-12-12T11:26:23Z</time>
      </trkpt>
      <trkpt lat="43.79369" lon="7.04026">
        <ele>1044.6</ele>
        <time>2019-12-12T11:26:25Z</time>
      </trkpt>
      <trkpt lat="43.79369" lon="7.04025">
        <ele>1045.1</ele>
        <time>2019-12-12T11:26:27Z</time>
      </trkpt>
      <trkpt lat="43.7937" lon="7.04023">
        <ele>1043.2</ele>
        <time>2019-12-12T11:26:29Z</time>
      </trkpt>
      <trkpt lat="43.79372" lon="7.0402">
        <ele>1042.7</ele>
        <time>2019-12-12T11:26:31Z</time>
      </trkpt>
      <trkpt lat="43.79374" lon="7.0401">
        <ele>1042.2</ele>
        <time>2019-12-12T11:26:33Z</time>
      </trkpt>
      <trkpt lat="43.79377" lon="7.04002">
        <ele>1041.7</ele>
        <time>2019-12-12T11:26:35Z</time>
      </trkpt>
      <trkpt lat="43.7938" lon="7.03992">
        <ele>1041.7</ele>
        <time>2019-12-12T11:26:37Z</time>
      </trkpt>
      <trkpt lat="43.79384" lon="7.0398">
        <ele>1041.2</ele>
        <time>2019-12-12T11:26:39Z</time>
      </trkpt>
      <trkpt lat="43.79386" lon="7.03966">
        <ele>1041.2</ele>
        <time>2019-12-12T11:26:41Z</time>
      </trkpt>
      <trkpt lat="43.79389" lon="7.03952">
        <ele>1041.7</ele>
        <time>2019-12-12T11:26:43Z</time>
      </trkpt>
      <trkpt lat="43.79392" lon="7.03935">
        <ele>1042.2</ele>
        <time>2019-12-12T11:26:45Z</time>
      </trkpt>
      <trkpt lat="43.79394" lon="7.03917">
        <ele>1043.2</ele>
        <time>2019-12-12T11:26:47Z</time>
      </trkpt>
      <trkpt lat="43.79395" lon="7.03897">
        <ele>1043.6</ele>
        <time>2019-12-12T11:26:49Z</time>
      </trkpt>
      <trkpt lat="43.79398" lon="7.03877">
        <ele>1044.6</ele>
        <time>2019-12-12T11:26:51Z</time>
      </trkpt>
      <trkpt lat="43.79401" lon="7.03856">
        <ele>1045.1</ele>
        <time>2019-12-12T11:26:53Z</time>
      </trkpt>
      <trkpt lat="43.79404" lon="7.03834">
        <ele>1044.6</ele>
        <time>2019-12-12T11:26:55Z</time>
      </trkpt>
      <trkpt lat="43.79404" lon="7.03813">
        <ele>1044.1</ele>
        <time>2019-12-12T11:26:57Z</time>
      </trkpt>
      <trkpt lat="43.79399" lon="7.03798">
        <ele>1044.6</ele>
        <time>2019-12-12T11:26:59Z</time>
      </trkpt>
      <trkpt lat="43.79383" lon="7.03787">
        <ele>1044.6</ele>
        <time>2019-12-12T11:27:01Z</time>
      </trkpt>
      <trkpt lat="43.79369" lon="7.03779">
        <ele>1044.6</ele>
        <time>2019-12-12T11:27:03Z</time>
      </trkpt>
      <trkpt lat="43.79356" lon="7.03768">
        <ele>1045.1</ele>
        <time>2019-12-12T11:27:05Z</time>
      </trkpt>
      <trkpt lat="43.79348" lon="7.03753">
        <ele>1046.1</ele>
        <time>2019-12-12T11:27:07Z</time>
      </trkpt>
      <trkpt lat="43.79341" lon="7.03734">
        <ele>1045.6</ele>
        <time>2019-12-12T11:27:09Z</time>
      </trkpt>
      <trkpt lat="43.79335" lon="7.03718">
        <ele>1045.6</ele>
        <time>2019-12-12T11:27:11Z</time>
      </trkpt>
      <trkpt lat="43.79329" lon="7.03708">
        <ele>1045.6</ele>
        <time>2019-12-12T11:27:13Z</time>
      </trkpt>
      <trkpt lat="43.7932" lon="7.03698">
        <ele>1044.1</ele>
        <time>2019-12-12T11:27:15Z</time>
      </trkpt>
      <trkpt lat="43.79308" lon="7.03688">
        <ele>1042.2</ele>
        <time>2019-12-12T11:27:17Z</time>
      </trkpt>
      <trkpt lat="43.79294" lon="7.03683">
        <ele>1040.8</ele>
        <time>2019-12-12T11:27:19Z</time>
      </trkpt>
      <trkpt lat="43.7928" lon="7.03679">
        <ele>1039.8</ele>
        <time>2019-12-12T11:27:21Z</time>
      </trkpt>
      <trkpt lat="43.79264" lon="7.03676">
        <ele>1039.8</ele>
        <time>2019-12-12T11:27:23Z</time>
      </trkpt>
      <trkpt lat="43.79249" lon="7.03674">
        <ele>1039.8</ele>
        <time>2019-12-12T11:27:25Z</time>
      </trkpt>
      <trkpt lat="43.79234" lon="7.03671">
        <ele>1040.3</ele>
        <time>2019-12-12T11:27:27Z</time>
      </trkpt>
      <trkpt lat="43.79218" lon="7.03668">
        <ele>1039.3</ele>
        <time>2019-12-12T11:27:29Z</time>
      </trkpt>
      <trkpt lat="43.79201" lon="7.03665">
        <ele>1036.9</ele>
        <time>2019-12-12T11:27:31Z</time>
      </trkpt>
      <trkpt lat="43.79184" lon="7.03655">
        <ele>1036</ele>
        <time>2019-12-12T11:27:33Z</time>
      </trkpt>
      <trkpt lat="43.79165" lon="7.03649">
        <ele>1034</ele>
        <time>2019-12-12T11:27:35Z</time>
      </trkpt>
      <trkpt lat="43.79147" lon="7.03645">
        <ele>1032.6</ele>
        <time>2019-12-12T11:27:37Z</time>
      </trkpt>
      <trkpt lat="43.79127" lon="7.03646">
        <ele>1029.2</ele>
        <time>2019-12-12T11:27:39Z</time>
      </trkpt>
      <trkpt lat="43.79109" lon="7.03645">
        <ele>1026.3</ele>
        <time>2019-12-12T11:27:41Z</time>
      </trkpt>
      <trkpt lat="43.79092" lon="7.03649">
        <ele>1023.5</ele>
        <time>2019-12-12T11:27:43Z</time>
      </trkpt>
      <trkpt lat="43.79077" lon="7.03657">
        <ele>1018.7</ele>
        <time>2019-12-12T11:27:45Z</time>
      </trkpt>
      <trkpt lat="43.79063" lon="7.03669">
        <ele>1011</ele>
        <time>2019-12-12T11:27:47Z</time>
      </trkpt>
      <trkpt lat="43.79048" lon="7.03679">
        <ele>1004.7</ele>
        <time>2019-12-12T11:27:49Z</time>
      </trkpt>
      <trkpt lat="43.79036" lon="7.03679">
        <ele>1001.4</ele>
        <time>2019-12-12T11:27:51Z</time>
      </trkpt>
      <trkpt lat="43.79026" lon="7.03674">
        <ele>998.9</ele>
        <time>2019-12-12T11:27:53Z</time>
      </trkpt>
      <trkpt lat="43.79017" lon="7.03671">
        <ele>998</ele>
        <time>2019-12-12T11:27:55Z</time>
      </trkpt>
      <trkpt lat="43.7901" lon="7.0367">
        <ele>996.5</ele>
        <time>2019-12-12T11:27:57Z</time>
      </trkpt>
      <trkpt lat="43.79005" lon="7.03668">
        <ele>993.2</ele>
        <time>2019-12-12T11:27:59Z</time>
      </trkpt>
      <trkpt lat="43.79001" lon="7.03668">
        <ele>990.8</ele>
        <time>2019-12-12T11:28:01Z</time>
      </trkpt>
      <trkpt lat="43.78996" lon="7.03666">
        <ele>988.4</ele>
        <time>2019-12-12T11:28:03Z</time>
      </trkpt>
      <trkpt lat="43.78991" lon="7.03664">
        <ele>984.5</ele>
        <time>2019-12-12T11:28:05Z</time>
      </trkpt>
      <trkpt lat="43.78987" lon="7.03659">
        <ele>982.6</ele>
        <time>2019-12-12T11:28:07Z</time>
      </trkpt>
      <trkpt lat="43.78985" lon="7.03653">
        <ele>980.2</ele>
        <time>2019-12-12T11:28:09Z</time>
      </trkpt>
      <trkpt lat="43.78984" lon="7.03646">
        <ele>978.8</ele>
        <time>2019-12-12T11:28:11Z</time>
      </trkpt>
      <trkpt lat="43.78984" lon="7.0364">
        <ele>975.9</ele>
        <time>2019-12-12T11:28:13Z</time>
      </trkpt>
      <trkpt lat="43.78985" lon="7.03638">
        <ele>974.9</ele>
        <time>2019-12-12T11:28:15Z</time>
      </trkpt>
      <trkpt lat="43.78986" lon="7.03637">
        <ele>974</ele>
        <time>2019-12-12T11:28:17Z</time>
      </trkpt>
      <trkpt lat="43.78986" lon="7.03637">
        <ele>973.5</ele>
        <time>2019-12-12T11:28:19Z</time>
      </trkpt>
      <trkpt lat="43.78986" lon="7.03637">
        <ele>973.5</ele>
        <time>2019-12-12T11:28:21Z</time>
      </trkpt>
      <trkpt lat="43.78986" lon="7.03637">
        <ele>973.5</ele>
        <time>2019-12-12T11:28:23Z</time>
      </trkpt>
      <trkpt lat="43.78986" lon="7.03637">
        <ele>973.5</ele>
        <time>2019-12-12T11:28:25Z</time>
      </trkpt>
      <trkpt lat="43.78986" lon="7.03637">
        <ele>973.5</ele>
        <time>2019-12-12T11:28:27Z</time>
      </trkpt>
      <trkpt lat="43.78986" lon="7.03637">
        <ele>973.5</ele>
        <time>2019-12-12T11:28:29Z</time>
      </trkpt>
      <trkpt lat="43.78986" lon="7.03636">
        <ele>973.5</ele>
        <time>2019-12-12T11:28:31Z</time>
      </trkpt>
      <trkpt lat="43.78986" lon="7.03635">
        <ele>973.5</ele>
        <time>2019-12-12T11:28:33Z</time>
      </trkpt>
      <trkpt lat="43.78986" lon="7.03635">
        <ele>973.5</ele>
        <time>2019-12-12T11:28:35Z</time>
      </trkpt>
      <trkpt lat="43.78986" lon="7.03634">
        <ele>973.5</ele>
        <time>2019-12-12T11:28:37Z</time>
      </trkpt>
      <trkpt lat="43.78986" lon="7.03633">
        <ele>973.5</ele>
        <time>2019-12-12T11:28:39Z</time>
      </trkpt>
      <trkpt lat="43.78986" lon="7.03632">
        <ele>973.5</ele>
        <time>2019-12-12T11:28:41Z</time>
      </trkpt>
      <trkpt lat="43.78987" lon="7.03626">
        <ele>972.5</ele>
        <time>2019-12-12T11:28:43Z</time>
      </trkpt>
      <trkpt lat="43.78988" lon="7.03623">
        <ele>972</ele>
        <time>2019-12-12T11:28:45Z</time>
      </trkpt>
      <trkpt lat="43.78987" lon="7.03621">
        <ele>970.6</ele>
        <time>2019-12-12T11:28:47Z</time>
      </trkpt>
      <trkpt lat="43.78986" lon="7.0362">
        <ele>970.6</ele>
        <time>2019-12-12T11:28:49Z</time>
      </trkpt>
      <trkpt lat="43.78986" lon="7.0362">
        <ele>970.6</ele>
        <time>2019-12-12T11:28:51Z</time>
      </trkpt>
      <trkpt lat="43.78986" lon="7.0362">
        <ele>970.6</ele>
        <time>2019-12-12T11:28:53Z</time>
      </trkpt>
      <trkpt lat="43.78986" lon="7.0362">
        <ele>970.6</ele>
        <time>2019-12-12T11:28:55Z</time>
      </trkpt>
      <trkpt lat="43.78986" lon="7.0362">
        <ele>970.6</ele>
        <time>2019-12-12T11:28:57Z</time>
      </trkpt>
      <trkpt lat="43.78986" lon="7.03619">
        <ele>970.6</ele>
        <time>2019-12-12T11:28:59Z</time>
      </trkpt>
      <trkpt lat="43.78986" lon="7.03618">
        <ele>970.6</ele>
        <time>2019-12-12T11:29:01Z</time>
      </trkpt>
      <trkpt lat="43.78986" lon="7.03617">
        <ele>970.1</ele>
        <time>2019-12-12T11:29:03Z</time>
      </trkpt>
      <trkpt lat="43.78986" lon="7.03615">
        <ele>969.6</ele>
        <time>2019-12-12T11:29:05Z</time>
      </trkpt>
      <trkpt lat="43.78985" lon="7.03613">
        <ele>969.1</ele>
        <time>2019-12-12T11:29:07Z</time>
      </trkpt>
      <trkpt lat="43.78985" lon="7.03611">
        <ele>968.7</ele>
        <time>2019-12-12T11:29:09Z</time>
      </trkpt>
      <trkpt lat="43.78985" lon="7.03609">
        <ele>968.7</ele>
        <time>2019-12-12T11:29:11Z</time>
      </trkpt>
      <trkpt lat="43.78986" lon="7.03605">
        <ele>968.2</ele>
        <time>2019-12-12T11:29:13Z</time>
      </trkpt>
      <trkpt lat="43.78985" lon="7.03599">
        <ele>967.7</ele>
        <time>2019-12-12T11:29:15Z</time>
      </trkpt>
      <trkpt lat="43.78985" lon="7.03595">
        <ele>967.2</ele>
        <time>2019-12-12T11:29:17Z</time>
      </trkpt>
      <trkpt lat="43.78985" lon="7.03592">
        <ele>967.2</ele>
        <time>2019-12-12T11:29:19Z</time>
      </trkpt>
      <trkpt lat="43.78986" lon="7.03588">
        <ele>966.7</ele>
        <time>2019-12-12T11:29:21Z</time>
      </trkpt>
      <trkpt lat="43.78987" lon="7.03584">
        <ele>966.7</ele>
        <time>2019-12-12T11:29:23Z</time>
      </trkpt>
      <trkpt lat="43.78988" lon="7.0358">
        <ele>966.7</ele>
        <time>2019-12-12T11:29:25Z</time>
      </trkpt>
      <trkpt lat="43.78989" lon="7.03577">
        <ele>966.7</ele>
        <time>2019-12-12T11:29:27Z</time>
      </trkpt>
      <trkpt lat="43.7899" lon="7.03573">
        <ele>966.7</ele>
        <time>2019-12-12T11:29:29Z</time>
      </trkpt>
      <trkpt lat="43.78992" lon="7.03569">
        <ele>967.2</ele>
        <time>2019-12-12T11:29:31Z</time>
      </trkpt>
      <trkpt lat="43.78992" lon="7.03565">
        <ele>967.2</ele>
        <time>2019-12-12T11:29:33Z</time>
      </trkpt>
      <trkpt lat="43.78993" lon="7.03561">
        <ele>967.7</ele>
        <time>2019-12-12T11:29:35Z</time>
      </trkpt>
      <trkpt lat="43.78995" lon="7.03557">
        <ele>967.7</ele>
        <time>2019-12-12T11:29:37Z</time>
      </trkpt>
      <trkpt lat="43.78996" lon="7.03553">
        <ele>968.2</ele>
        <time>2019-12-12T11:29:39Z</time>
      </trkpt>
      <trkpt lat="43.78998" lon="7.03548">
        <ele>968.2</ele>
        <time>2019-12-12T11:29:41Z</time>
      </trkpt>
      <trkpt lat="43.79" lon="7.03543">
        <ele>968.7</ele>
        <time>2019-12-12T11:29:43Z</time>
      </trkpt>
      <trkpt lat="43.79001" lon="7.03536">
        <ele>968.7</ele>
        <time>2019-12-12T11:29:45Z</time>
      </trkpt>
      <trkpt lat="43.79002" lon="7.03531">
        <ele>969.6</ele>
        <time>2019-12-12T11:29:47Z</time>
      </trkpt>
      <trkpt lat="43.79004" lon="7.03525">
        <ele>970.6</ele>
        <time>2019-12-12T11:29:49Z</time>
      </trkpt>
      <trkpt lat="43.79005" lon="7.0352">
        <ele>971.1</ele>
        <time>2019-12-12T11:29:51Z</time>
      </trkpt>
      <trkpt lat="43.79005" lon="7.03514">
        <ele>972</ele>
        <time>2019-12-12T11:29:53Z</time>
      </trkpt>
      <trkpt lat="43.79004" lon="7.03508">
        <ele>972.5</ele>
        <time>2019-12-12T11:29:55Z</time>
      </trkpt>
      <trkpt lat="43.79003" lon="7.03503">
        <ele>973</ele>
        <time>2019-12-12T11:29:57Z</time>
      </trkpt>
      <trkpt lat="43.79002" lon="7.03498">
        <ele>974</ele>
        <time>2019-12-12T11:29:59Z</time>
      </trkpt>
      <trkpt lat="43.79001" lon="7.03492">
        <ele>974.9</ele>
        <time>2019-12-12T11:30:01Z</time>
      </trkpt>
      <trkpt lat="43.79" lon="7.03486">
        <ele>975.4</ele>
        <time>2019-12-12T11:30:03Z</time>
      </trkpt>
      <trkpt lat="43.78999" lon="7.03481">
        <ele>976.4</ele>
        <time>2019-12-12T11:30:05Z</time>
      </trkpt>
      <trkpt lat="43.78999" lon="7.03476">
        <ele>976.8</ele>
        <time>2019-12-12T11:30:07Z</time>
      </trkpt>
      <trkpt lat="43.78999" lon="7.03469">
        <ele>977.8</ele>
        <time>2019-12-12T11:30:09Z</time>
      </trkpt>
      <trkpt lat="43.79" lon="7.03463">
        <ele>978.3</ele>
        <time>2019-12-12T11:30:11Z</time>
      </trkpt>
      <trkpt lat="43.79002" lon="7.03458">
        <ele>979.2</ele>
        <time>2019-12-12T11:30:13Z</time>
      </trkpt>
      <trkpt lat="43.79004" lon="7.03455">
        <ele>979.7</ele>
        <time>2019-12-12T11:30:15Z</time>
      </trkpt>
      <trkpt lat="43.79006" lon="7.03452">
        <ele>980.2</ele>
        <time>2019-12-12T11:30:17Z</time>
      </trkpt>
      <trkpt lat="43.79009" lon="7.03449">
        <ele>981.6</ele>
        <time>2019-12-12T11:30:19Z</time>
      </trkpt>
      <trkpt lat="43.79011" lon="7.03447">
        <ele>982.1</ele>
        <time>2019-12-12T11:30:21Z</time>
      </trkpt>
      <trkpt lat="43.79012" lon="7.03445">
        <ele>983.1</ele>
        <time>2019-12-12T11:30:23Z</time>
      </trkpt>
      <trkpt lat="43.79013" lon="7.03444">
        <ele>983.6</ele>
        <time>2019-12-12T11:30:25Z</time>
      </trkpt>
      <trkpt lat="43.79013" lon="7.03444">
        <ele>983.6</ele>
        <time>2019-12-12T11:30:27Z</time>
      </trkpt>
      <trkpt lat="43.79012" lon="7.03442">
        <ele>981.6</ele>
        <time>2019-12-12T11:30:29Z</time>
      </trkpt>
      <trkpt lat="43.79012" lon="7.03441">
        <ele>981.2</ele>
        <time>2019-12-12T11:30:31Z</time>
      </trkpt>
      <trkpt lat="43.79012" lon="7.03441">
        <ele>979.7</ele>
        <time>2019-12-12T11:30:33Z</time>
      </trkpt>
      <trkpt lat="43.79012" lon="7.03441">
        <ele>979.7</ele>
        <time>2019-12-12T11:30:35Z</time>
      </trkpt>
      <trkpt lat="43.79012" lon="7.03441">
        <ele>979.7</ele>
        <time>2019-12-12T11:30:37Z</time>
      </trkpt>
      <trkpt lat="43.79012" lon="7.03441">
        <ele>980.2</ele>
        <time>2019-12-12T11:30:39Z</time>
      </trkpt>
      <trkpt lat="43.79011" lon="7.03442">
        <ele>979.7</ele>
        <time>2019-12-12T11:30:41Z</time>
      </trkpt>
      <trkpt lat="43.79011" lon="7.03442">
        <ele>980.2</ele>
        <time>2019-12-12T11:30:43Z</time>
      </trkpt>
      <trkpt lat="43.79011" lon="7.03442">
        <ele>979.7</ele>
        <time>2019-12-12T11:30:45Z</time>
      </trkpt>
      <trkpt lat="43.79011" lon="7.03441">
        <ele>980.2</ele>
        <time>2019-12-12T11:30:47Z</time>
      </trkpt>
      <trkpt lat="43.79011" lon="7.03441">
        <ele>980.2</ele>
        <time>2019-12-12T11:30:49Z</time>
      </trkpt>
      <trkpt lat="43.79012" lon="7.0344">
        <ele>980.2</ele>
        <time>2019-12-12T11:30:51Z</time>
      </trkpt>
      <trkpt lat="43.79011" lon="7.03439">
        <ele>980.2</ele>
        <time>2019-12-12T11:30:53Z</time>
      </trkpt>
      <trkpt lat="43.7901" lon="7.03437">
        <ele>980.2</ele>
        <time>2019-12-12T11:30:55Z</time>
      </trkpt>
      <trkpt lat="43.7901" lon="7.03439">
        <ele>979.2</ele>
        <time>2019-12-12T11:30:57Z</time>
      </trkpt>
      <trkpt lat="43.79009" lon="7.03439">
        <ele>979.2</ele>
        <time>2019-12-12T11:30:59Z</time>
      </trkpt>
      <trkpt lat="43.7901" lon="7.03439">
        <ele>979.2</ele>
        <time>2019-12-12T11:31:01Z</time>
      </trkpt>
      <trkpt lat="43.7901" lon="7.03438">
        <ele>979.2</ele>
        <time>2019-12-12T11:31:03Z</time>
      </trkpt>
      <trkpt lat="43.7901" lon="7.03438">
        <ele>979.2</ele>
        <time>2019-12-12T11:31:05Z</time>
      </trkpt>
      <trkpt lat="43.79009" lon="7.03438">
        <ele>979.2</ele>
        <time>2019-12-12T11:31:07Z</time>
      </trkpt>
      <trkpt lat="43.79009" lon="7.03439">
        <ele>979.2</ele>
        <time>2019-12-12T11:31:09Z</time>
      </trkpt>
      <trkpt lat="43.79009" lon="7.03439">
        <ele>979.2</ele>
        <time>2019-12-12T11:31:11Z</time>
      </trkpt>
      <trkpt lat="43.79009" lon="7.03439">
        <ele>979.2</ele>
        <time>2019-12-12T11:31:13Z</time>
      </trkpt>
      <trkpt lat="43.79008" lon="7.03439">
        <ele>979.2</ele>
        <time>2019-12-12T11:31:15Z</time>
      </trkpt>
      <trkpt lat="43.79008" lon="7.03439">
        <ele>979.2</ele>
        <time>2019-12-12T11:31:17Z</time>
      </trkpt>
      <trkpt lat="43.79008" lon="7.03439">
        <ele>979.2</ele>
        <time>2019-12-12T11:31:19Z</time>
      </trkpt>
      <trkpt lat="43.79008" lon="7.03439">
        <ele>979.2</ele>
        <time>2019-12-12T11:31:21Z</time>
      </trkpt>
      <trkpt lat="43.79007" lon="7.03439">
        <ele>979.2</ele>
        <time>2019-12-12T11:31:23Z</time>
      </trkpt>
      <trkpt lat="43.79008" lon="7.0344">
        <ele>979.2</ele>
        <time>2019-12-12T11:31:25Z</time>
      </trkpt>
      <trkpt lat="43.79008" lon="7.03439">
        <ele>979.2</ele>
        <time>2019-12-12T11:31:27Z</time>
      </trkpt>
      <trkpt lat="43.79008" lon="7.03439">
        <ele>978.8</ele>
        <time>2019-12-12T11:31:29Z</time>
      </trkpt>
      <trkpt lat="43.79008" lon="7.03439">
        <ele>978.8</ele>
        <time>2019-12-12T11:31:31Z</time>
      </trkpt>
      <trkpt lat="43.79008" lon="7.03439">
        <ele>978.8</ele>
        <time>2019-12-12T11:31:33Z</time>
      </trkpt>
      <trkpt lat="43.79008" lon="7.03439">
        <ele>978.8</ele>
        <time>2019-12-12T11:31:35Z</time>
      </trkpt>
      <trkpt lat="43.79008" lon="7.03439">
        <ele>978.8</ele>
        <time>2019-12-12T11:31:37Z</time>
      </trkpt>
      <trkpt lat="43.79008" lon="7.03439">
        <ele>978.8</ele>
        <time>2019-12-12T11:31:39Z</time>
      </trkpt>
      <trkpt lat="43.79008" lon="7.0344">
        <ele>978.8</ele>
        <time>2019-12-12T11:31:41Z</time>
      </trkpt>
      <trkpt lat="43.79007" lon="7.0344">
        <ele>978.8</ele>
        <time>2019-12-12T11:31:43Z</time>
      </trkpt>
      <trkpt lat="43.79007" lon="7.0344">
        <ele>978.8</ele>
        <time>2019-12-12T11:31:45Z</time>
      </trkpt>
      <trkpt lat="43.79007" lon="7.0344">
        <ele>978.8</ele>
        <time>2019-12-12T11:31:47Z</time>
      </trkpt>
      <trkpt lat="43.79006" lon="7.0344">
        <ele>978.8</ele>
        <time>2019-12-12T11:31:49Z</time>
      </trkpt>
      <trkpt lat="43.79005" lon="7.0344">
        <ele>977.8</ele>
        <time>2019-12-12T11:31:51Z</time>
      </trkpt>
      <trkpt lat="43.79004" lon="7.03441">
        <ele>976.8</ele>
        <time>2019-12-12T11:31:53Z</time>
      </trkpt>
      <trkpt lat="43.79003" lon="7.03441">
        <ele>976.4</ele>
        <time>2019-12-12T11:31:55Z</time>
      </trkpt>
      <trkpt lat="43.79003" lon="7.03441">
        <ele>976.4</ele>
        <time>2019-12-12T11:31:57Z</time>
      </trkpt>
      <trkpt lat="43.79003" lon="7.03441">
        <ele>975.9</ele>
        <time>2019-12-12T11:31:59Z</time>
      </trkpt>
      <trkpt lat="43.79003" lon="7.03441">
        <ele>975.9</ele>
        <time>2019-12-12T11:32:01Z</time>
      </trkpt>
      <trkpt lat="43.79002" lon="7.03441">
        <ele>975.9</ele>
        <time>2019-12-12T11:32:03Z</time>
      </trkpt>
      <trkpt lat="43.79002" lon="7.03441">
        <ele>975.9</ele>
        <time>2019-12-12T11:32:05Z</time>
      </trkpt>
      <trkpt lat="43.79001" lon="7.03441">
        <ele>975.9</ele>
        <time>2019-12-12T11:32:07Z</time>
      </trkpt>
      <trkpt lat="43.79001" lon="7.03441">
        <ele>975.9</ele>
        <time>2019-12-12T11:32:09Z</time>
      </trkpt>
      <trkpt lat="43.79001" lon="7.03441">
        <ele>975.9</ele>
        <time>2019-12-12T11:32:11Z</time>
      </trkpt>
      <trkpt lat="43.79" lon="7.03441">
        <ele>975.9</ele>
        <time>2019-12-12T11:32:13Z</time>
      </trkpt>
      <trkpt lat="43.79" lon="7.03441">
        <ele>975.9</ele>
        <time>2019-12-12T11:32:15Z</time>
      </trkpt>
      <trkpt lat="43.79001" lon="7.0344">
        <ele>975.9</ele>
        <time>2019-12-12T11:32:17Z</time>
      </trkpt>
      <trkpt lat="43.79004" lon="7.03438">
        <ele>975.4</ele>
        <time>2019-12-12T11:32:19Z</time>
      </trkpt>
      <trkpt lat="43.79007" lon="7.03435">
        <ele>975.4</ele>
        <time>2019-12-12T11:32:21Z</time>
      </trkpt>
      <trkpt lat="43.7901" lon="7.03432">
        <ele>974.9</ele>
        <time>2019-12-12T11:32:23Z</time>
      </trkpt>
      <trkpt lat="43.79011" lon="7.03429">
        <ele>974.4</ele>
        <time>2019-12-12T11:32:25Z</time>
      </trkpt>
      <trkpt lat="43.79012" lon="7.03425">
        <ele>974</ele>
        <time>2019-12-12T11:32:27Z</time>
      </trkpt>
      <trkpt lat="43.79014" lon="7.03421">
        <ele>973.5</ele>
        <time>2019-12-12T11:32:29Z</time>
      </trkpt>
      <trkpt lat="43.79015" lon="7.03417">
        <ele>973</ele>
        <time>2019-12-12T11:32:31Z</time>
      </trkpt>
      <trkpt lat="43.79017" lon="7.03413">
        <ele>972.5</ele>
        <time>2019-12-12T11:32:33Z</time>
      </trkpt>
      <trkpt lat="43.79021" lon="7.0341">
        <ele>972</ele>
        <time>2019-12-12T11:32:35Z</time>
      </trkpt>
      <trkpt lat="43.79023" lon="7.03407">
        <ele>971.5</ele>
        <time>2019-12-12T11:32:37Z</time>
      </trkpt>
      <trkpt lat="43.79025" lon="7.03403">
        <ele>970.6</ele>
        <time>2019-12-12T11:32:39Z</time>
      </trkpt>
      <trkpt lat="43.79026" lon="7.03398">
        <ele>969.6</ele>
        <time>2019-12-12T11:32:41Z</time>
      </trkpt>
      <trkpt lat="43.79028" lon="7.03395">
        <ele>968.7</ele>
        <time>2019-12-12T11:32:43Z</time>
      </trkpt>
      <trkpt lat="43.79029" lon="7.03391">
        <ele>967.7</ele>
        <time>2019-12-12T11:32:45Z</time>
      </trkpt>
      <trkpt lat="43.7903" lon="7.03386">
        <ele>966.7</ele>
        <time>2019-12-12T11:32:47Z</time>
      </trkpt>
      <trkpt lat="43.79032" lon="7.03383">
        <ele>965.8</ele>
        <time>2019-12-12T11:32:49Z</time>
      </trkpt>
      <trkpt lat="43.79034" lon="7.03379">
        <ele>965.3</ele>
        <time>2019-12-12T11:32:51Z</time>
      </trkpt>
      <trkpt lat="43.79035" lon="7.03373">
        <ele>963.9</ele>
        <time>2019-12-12T11:32:53Z</time>
      </trkpt>
      <trkpt lat="43.79036" lon="7.03369">
        <ele>962.9</ele>
        <time>2019-12-12T11:32:55Z</time>
      </trkpt>
      <trkpt lat="43.79037" lon="7.03365">
        <ele>961.9</ele>
        <time>2019-12-12T11:32:57Z</time>
      </trkpt>
      <trkpt lat="43.79038" lon="7.0336">
        <ele>961</ele>
        <time>2019-12-12T11:32:59Z</time>
      </trkpt>
      <trkpt lat="43.79039" lon="7.03355">
        <ele>960</ele>
        <time>2019-12-12T11:33:01Z</time>
      </trkpt>
      <trkpt lat="43.79041" lon="7.03352">
        <ele>959.1</ele>
        <time>2019-12-12T11:33:03Z</time>
      </trkpt>
      <trkpt lat="43.79042" lon="7.03348">
        <ele>958.1</ele>
        <time>2019-12-12T11:33:05Z</time>
      </trkpt>
      <trkpt lat="43.79043" lon="7.03343">
        <ele>957.1</ele>
        <time>2019-12-12T11:33:07Z</time>
      </trkpt>
      <trkpt lat="43.79046" lon="7.03339">
        <ele>956.6</ele>
        <time>2019-12-12T11:33:09Z</time>
      </trkpt>
      <trkpt lat="43.79048" lon="7.03335">
        <ele>955.7</ele>
        <time>2019-12-12T11:33:11Z</time>
      </trkpt>
      <trkpt lat="43.7905" lon="7.0333">
        <ele>954.7</ele>
        <time>2019-12-12T11:33:13Z</time>
      </trkpt>
      <trkpt lat="43.79051" lon="7.03325">
        <ele>954.2</ele>
        <time>2019-12-12T11:33:15Z</time>
      </trkpt>
      <trkpt lat="43.7905" lon="7.03321">
        <ele>953.8</ele>
        <time>2019-12-12T11:33:17Z</time>
      </trkpt>
      <trkpt lat="43.79047" lon="7.03319">
        <ele>953.8</ele>
        <time>2019-12-12T11:33:19Z</time>
      </trkpt>
      <trkpt lat="43.79043" lon="7.03318">
        <ele>954.2</ele>
        <time>2019-12-12T11:33:21Z</time>
      </trkpt>
      <trkpt lat="43.79041" lon="7.03319">
        <ele>954.2</ele>
        <time>2019-12-12T11:33:23Z</time>
      </trkpt>
      <trkpt lat="43.79038" lon="7.03318">
        <ele>954.2</ele>
        <time>2019-12-12T11:33:25Z</time>
      </trkpt>
      <trkpt lat="43.79035" lon="7.0332">
        <ele>954.2</ele>
        <time>2019-12-12T11:33:27Z</time>
      </trkpt>
      <trkpt lat="43.79033" lon="7.03322">
        <ele>954.7</ele>
        <time>2019-12-12T11:33:29Z</time>
      </trkpt>
      <trkpt lat="43.7903" lon="7.03325">
        <ele>954.2</ele>
        <time>2019-12-12T11:33:31Z</time>
      </trkpt>
      <trkpt lat="43.79027" lon="7.03329">
        <ele>954.7</ele>
        <time>2019-12-12T11:33:33Z</time>
      </trkpt>
      <trkpt lat="43.79024" lon="7.03331">
        <ele>954.7</ele>
        <time>2019-12-12T11:33:35Z</time>
      </trkpt>
      <trkpt lat="43.79021" lon="7.03335">
        <ele>955.7</ele>
        <time>2019-12-12T11:33:37Z</time>
      </trkpt>
      <trkpt lat="43.79018" lon="7.03338">
        <ele>956.2</ele>
        <time>2019-12-12T11:33:39Z</time>
      </trkpt>
      <trkpt lat="43.79016" lon="7.03341">
        <ele>956.6</ele>
        <time>2019-12-12T11:33:41Z</time>
      </trkpt>
      <trkpt lat="43.79014" lon="7.03343">
        <ele>957.1</ele>
        <time>2019-12-12T11:33:43Z</time>
      </trkpt>
      <trkpt lat="43.79011" lon="7.03346">
        <ele>957.6</ele>
        <time>2019-12-12T11:33:45Z</time>
      </trkpt>
      <trkpt lat="43.79007" lon="7.03349">
        <ele>958.1</ele>
        <time>2019-12-12T11:33:47Z</time>
      </trkpt>
      <trkpt lat="43.79004" lon="7.03352">
        <ele>959.1</ele>
        <time>2019-12-12T11:33:49Z</time>
      </trkpt>
      <trkpt lat="43.79001" lon="7.03354">
        <ele>960</ele>
        <time>2019-12-12T11:33:51Z</time>
      </trkpt>
      <trkpt lat="43.78998" lon="7.03356">
        <ele>961</ele>
        <time>2019-12-12T11:33:53Z</time>
      </trkpt>
      <trkpt lat="43.78995" lon="7.03359">
        <ele>961.9</ele>
        <time>2019-12-12T11:33:55Z</time>
      </trkpt>
      <trkpt lat="43.78992" lon="7.03362">
        <ele>962.9</ele>
        <time>2019-12-12T11:33:57Z</time>
      </trkpt>
      <trkpt lat="43.78989" lon="7.03365">
        <ele>964.8</ele>
        <time>2019-12-12T11:33:59Z</time>
      </trkpt>
      <trkpt lat="43.78986" lon="7.03367">
        <ele>966.7</ele>
        <time>2019-12-12T11:34:01Z</time>
      </trkpt>
      <trkpt lat="43.78985" lon="7.0337">
        <ele>967.7</ele>
        <time>2019-12-12T11:34:03Z</time>
      </trkpt>
      <trkpt lat="43.78983" lon="7.03373">
        <ele>968.2</ele>
        <time>2019-12-12T11:34:05Z</time>
      </trkpt>
      <trkpt lat="43.7898" lon="7.03377">
        <ele>969.1</ele>
        <time>2019-12-12T11:34:07Z</time>
      </trkpt>
      <trkpt lat="43.78978" lon="7.03381">
        <ele>970.1</ele>
        <time>2019-12-12T11:34:09Z</time>
      </trkpt>
      <trkpt lat="43.78976" lon="7.03385">
        <ele>971.1</ele>
        <time>2019-12-12T11:34:11Z</time>
      </trkpt>
      <trkpt lat="43.78975" lon="7.03388">
        <ele>971.5</ele>
        <time>2019-12-12T11:34:13Z</time>
      </trkpt>
      <trkpt lat="43.78971" lon="7.03391">
        <ele>973</ele>
        <time>2019-12-12T11:34:15Z</time>
      </trkpt>
      <trkpt lat="43.78968" lon="7.03394">
        <ele>974</ele>
        <time>2019-12-12T11:34:17Z</time>
      </trkpt>
      <trkpt lat="43.78966" lon="7.03397">
        <ele>974.9</ele>
        <time>2019-12-12T11:34:19Z</time>
      </trkpt>
      <trkpt lat="43.78963" lon="7.034">
        <ele>975.9</ele>
        <time>2019-12-12T11:34:21Z</time>
      </trkpt>
      <trkpt lat="43.7896" lon="7.03403">
        <ele>976.4</ele>
        <time>2019-12-12T11:34:23Z</time>
      </trkpt>
      <trkpt lat="43.78958" lon="7.03406">
        <ele>976.8</ele>
        <time>2019-12-12T11:34:25Z</time>
      </trkpt>
      <trkpt lat="43.78955" lon="7.03408">
        <ele>976.8</ele>
        <time>2019-12-12T11:34:27Z</time>
      </trkpt>
      <trkpt lat="43.78952" lon="7.03411">
        <ele>977.3</ele>
        <time>2019-12-12T11:34:29Z</time>
      </trkpt>
      <trkpt lat="43.78949" lon="7.03413">
        <ele>978.8</ele>
        <time>2019-12-12T11:34:31Z</time>
      </trkpt>
      <trkpt lat="43.78946" lon="7.03416">
        <ele>979.2</ele>
        <time>2019-12-12T11:34:33Z</time>
      </trkpt>
      <trkpt lat="43.78943" lon="7.0342">
        <ele>979.7</ele>
        <time>2019-12-12T11:34:35Z</time>
      </trkpt>
      <trkpt lat="43.7894" lon="7.03422">
        <ele>980.2</ele>
        <time>2019-12-12T11:34:37Z</time>
      </trkpt>
      <trkpt lat="43.78937" lon="7.03424">
        <ele>980.2</ele>
        <time>2019-12-12T11:34:39Z</time>
      </trkpt>
      <trkpt lat="43.78934" lon="7.03427">
        <ele>980.7</ele>
        <time>2019-12-12T11:34:41Z</time>
      </trkpt>
      <trkpt lat="43.7893" lon="7.0343">
        <ele>981.2</ele>
        <time>2019-12-12T11:34:43Z</time>
      </trkpt>
      <trkpt lat="43.78927" lon="7.03432">
        <ele>981.6</ele>
        <time>2019-12-12T11:34:45Z</time>
      </trkpt>
      <trkpt lat="43.78925" lon="7.03434">
        <ele>982.1</ele>
        <time>2019-12-12T11:34:47Z</time>
      </trkpt>
      <trkpt lat="43.78922" lon="7.03436">
        <ele>982.6</ele>
        <time>2019-12-12T11:34:49Z</time>
      </trkpt>
      <trkpt lat="43.78919" lon="7.03439">
        <ele>982.6</ele>
        <time>2019-12-12T11:34:51Z</time>
      </trkpt>
      <trkpt lat="43.78916" lon="7.03441">
        <ele>983.1</ele>
        <time>2019-12-12T11:34:53Z</time>
      </trkpt>
      <trkpt lat="43.78913" lon="7.03443">
        <ele>983.6</ele>
        <time>2019-12-12T11:34:55Z</time>
      </trkpt>
      <trkpt lat="43.78908" lon="7.03446">
        <ele>983.6</ele>
        <time>2019-12-12T11:34:57Z</time>
      </trkpt>
      <trkpt lat="43.78905" lon="7.03448">
        <ele>984</ele>
        <time>2019-12-12T11:34:59Z</time>
      </trkpt>
      <trkpt lat="43.78902" lon="7.0345">
        <ele>984</ele>
        <time>2019-12-12T11:35:01Z</time>
      </trkpt>
      <trkpt lat="43.78898" lon="7.03451">
        <ele>984.5</ele>
        <time>2019-12-12T11:35:03Z</time>
      </trkpt>
      <trkpt lat="43.78893" lon="7.03452">
        <ele>984.5</ele>
        <time>2019-12-12T11:35:05Z</time>
      </trkpt>
      <trkpt lat="43.78889" lon="7.03452">
        <ele>984.5</ele>
        <time>2019-12-12T11:35:07Z</time>
      </trkpt>
      <trkpt lat="43.78886" lon="7.03452">
        <ele>984.5</ele>
        <time>2019-12-12T11:35:09Z</time>
      </trkpt>
      <trkpt lat="43.78884" lon="7.03451">
        <ele>985</ele>
        <time>2019-12-12T11:35:11Z</time>
      </trkpt>
      <trkpt lat="43.78881" lon="7.0345">
        <ele>985</ele>
        <time>2019-12-12T11:35:13Z</time>
      </trkpt>
      <trkpt lat="43.78878" lon="7.03449">
        <ele>985.5</ele>
        <time>2019-12-12T11:35:15Z</time>
      </trkpt>
      <trkpt lat="43.78875" lon="7.03446">
        <ele>985.5</ele>
        <time>2019-12-12T11:35:17Z</time>
      </trkpt>
      <trkpt lat="43.78872" lon="7.03443">
        <ele>985.5</ele>
        <time>2019-12-12T11:35:19Z</time>
      </trkpt>
      <trkpt lat="43.78869" lon="7.03441">
        <ele>986</ele>
        <time>2019-12-12T11:35:21Z</time>
      </trkpt>
      <trkpt lat="43.78867" lon="7.03438">
        <ele>986</ele>
        <time>2019-12-12T11:35:23Z</time>
      </trkpt>
      <trkpt lat="43.78865" lon="7.03435">
        <ele>986</ele>
        <time>2019-12-12T11:35:25Z</time>
      </trkpt>
      <trkpt lat="43.78861" lon="7.03433">
        <ele>985</ele>
        <time>2019-12-12T11:35:27Z</time>
      </trkpt>
      <trkpt lat="43.78859" lon="7.03431">
        <ele>984.5</ele>
        <time>2019-12-12T11:35:29Z</time>
      </trkpt>
      <trkpt lat="43.78856" lon="7.03428">
        <ele>984</ele>
        <time>2019-12-12T11:35:31Z</time>
      </trkpt>
      <trkpt lat="43.78853" lon="7.03427">
        <ele>983.1</ele>
        <time>2019-12-12T11:35:33Z</time>
      </trkpt>
      <trkpt lat="43.78851" lon="7.03426">
        <ele>982.6</ele>
        <time>2019-12-12T11:35:35Z</time>
      </trkpt>
      <trkpt lat="43.7885" lon="7.03427">
        <ele>982.1</ele>
        <time>2019-12-12T11:35:37Z</time>
      </trkpt>
      <trkpt lat="43.7885" lon="7.03426">
        <ele>981.6</ele>
        <time>2019-12-12T11:35:39Z</time>
      </trkpt>
      <trkpt lat="43.7885" lon="7.03426">
        <ele>981.6</ele>
        <time>2019-12-12T11:35:41Z</time>
      </trkpt>
      <trkpt lat="43.7885" lon="7.03426">
        <ele>981.6</ele>
        <time>2019-12-12T11:35:43Z</time>
      </trkpt>
      <trkpt lat="43.7885" lon="7.03426">
        <ele>981.2</ele>
        <time>2019-12-12T11:35:45Z</time>
      </trkpt>
      <trkpt lat="43.7885" lon="7.03425">
        <ele>981.2</ele>
        <time>2019-12-12T11:35:47Z</time>
      </trkpt>
      <trkpt lat="43.7885" lon="7.03425">
        <ele>981.2</ele>
        <time>2019-12-12T11:35:49Z</time>
      </trkpt>
      <trkpt lat="43.7885" lon="7.03425">
        <ele>981.2</ele>
        <time>2019-12-12T11:35:51Z</time>
      </trkpt>
      <trkpt lat="43.7885" lon="7.03425">
        <ele>981.2</ele>
        <time>2019-12-12T11:35:53Z</time>
      </trkpt>
      <trkpt lat="43.7885" lon="7.03424">
        <ele>981.2</ele>
        <time>2019-12-12T11:35:55Z</time>
      </trkpt>
      <trkpt lat="43.78849" lon="7.03424">
        <ele>981.2</ele>
        <time>2019-12-12T11:35:57Z</time>
      </trkpt>
      <trkpt lat="43.78849" lon="7.03423">
        <ele>981.2</ele>
        <time>2019-12-12T11:35:59Z</time>
      </trkpt>
      <trkpt lat="43.78849" lon="7.03423">
        <ele>981.2</ele>
        <time>2019-12-12T11:36:01Z</time>
      </trkpt>
      <trkpt lat="43.78849" lon="7.03422">
        <ele>981.2</ele>
        <time>2019-12-12T11:36:03Z</time>
      </trkpt>
      <trkpt lat="43.78849" lon="7.03422">
        <ele>981.2</ele>
        <time>2019-12-12T11:36:05Z</time>
      </trkpt>
      <trkpt lat="43.78849" lon="7.03423">
        <ele>981.2</ele>
        <time>2019-12-12T11:36:07Z</time>
      </trkpt>
      <trkpt lat="43.78849" lon="7.03424">
        <ele>981.2</ele>
        <time>2019-12-12T11:36:09Z</time>
      </trkpt>
      <trkpt lat="43.7885" lon="7.03424">
        <ele>980.7</ele>
        <time>2019-12-12T11:36:11Z</time>
      </trkpt>
      <trkpt lat="43.7885" lon="7.03424">
        <ele>980.2</ele>
        <time>2019-12-12T11:36:13Z</time>
      </trkpt>
      <trkpt lat="43.78847" lon="7.03426">
        <ele>980.2</ele>
        <time>2019-12-12T11:36:15Z</time>
      </trkpt>
      <trkpt lat="43.78841" lon="7.0343">
        <ele>980.2</ele>
        <time>2019-12-12T11:36:17Z</time>
      </trkpt>
      <trkpt lat="43.78839" lon="7.03428">
        <ele>980.2</ele>
        <time>2019-12-12T11:36:19Z</time>
      </trkpt>
      <trkpt lat="43.78838" lon="7.03426">
        <ele>979.7</ele>
        <time>2019-12-12T11:36:21Z</time>
      </trkpt>
      <trkpt lat="43.78835" lon="7.03425">
        <ele>978.8</ele>
        <time>2019-12-12T11:36:23Z</time>
      </trkpt>
      <trkpt lat="43.78832" lon="7.03424">
        <ele>978.3</ele>
        <time>2019-12-12T11:36:25Z</time>
      </trkpt>
      <trkpt lat="43.78828" lon="7.03422">
        <ele>977.3</ele>
        <time>2019-12-12T11:36:27Z</time>
      </trkpt>
      <trkpt lat="43.78825" lon="7.03421">
        <ele>976.8</ele>
        <time>2019-12-12T11:36:29Z</time>
      </trkpt>
      <trkpt lat="43.78821" lon="7.03418">
        <ele>975.9</ele>
        <time>2019-12-12T11:36:31Z</time>
      </trkpt>
      <trkpt lat="43.78818" lon="7.03416">
        <ele>974.9</ele>
        <time>2019-12-12T11:36:33Z</time>
      </trkpt>
      <trkpt lat="43.78814" lon="7.03412">
        <ele>974</ele>
        <time>2019-12-12T11:36:35Z</time>
      </trkpt>
      <trkpt lat="43.7881" lon="7.03409">
        <ele>972.5</ele>
        <time>2019-12-12T11:36:37Z</time>
      </trkpt>
      <trkpt lat="43.78806" lon="7.03406">
        <ele>971.1</ele>
        <time>2019-12-12T11:36:39Z</time>
      </trkpt>
      <trkpt lat="43.78802" lon="7.03404">
        <ele>969.1</ele>
        <time>2019-12-12T11:36:41Z</time>
      </trkpt>
      <trkpt lat="43.78798" lon="7.03402">
        <ele>967.2</ele>
        <time>2019-12-12T11:36:43Z</time>
      </trkpt>
      <trkpt lat="43.78794" lon="7.03399">
        <ele>965.3</ele>
        <time>2019-12-12T11:36:45Z</time>
      </trkpt>
      <trkpt lat="43.7879" lon="7.03396">
        <ele>962.4</ele>
        <time>2019-12-12T11:36:47Z</time>
      </trkpt>
      <trkpt lat="43.78786" lon="7.03394">
        <ele>962.4</ele>
        <time>2019-12-12T11:36:49Z</time>
      </trkpt>
      <trkpt lat="43.78781" lon="7.03393">
        <ele>961.5</ele>
        <time>2019-12-12T11:36:51Z</time>
      </trkpt>
      <trkpt lat="43.78778" lon="7.0339">
        <ele>960</ele>
        <time>2019-12-12T11:36:53Z</time>
      </trkpt>
      <trkpt lat="43.78775" lon="7.03388">
        <ele>960</ele>
        <time>2019-12-12T11:36:55Z</time>
      </trkpt>
      <trkpt lat="43.78771" lon="7.03386">
        <ele>959.1</ele>
        <time>2019-12-12T11:36:57Z</time>
      </trkpt>
      <trkpt lat="43.78767" lon="7.03384">
        <ele>958.1</ele>
        <time>2019-12-12T11:36:59Z</time>
      </trkpt>
      <trkpt lat="43.78763" lon="7.03382">
        <ele>956.6</ele>
        <time>2019-12-12T11:37:01Z</time>
      </trkpt>
      <trkpt lat="43.78758" lon="7.0338">
        <ele>955.7</ele>
        <time>2019-12-12T11:37:03Z</time>
      </trkpt>
      <trkpt lat="43.78755" lon="7.03378">
        <ele>954.2</ele>
        <time>2019-12-12T11:37:05Z</time>
      </trkpt>
      <trkpt lat="43.78752" lon="7.03376">
        <ele>953.3</ele>
        <time>2019-12-12T11:37:07Z</time>
      </trkpt>
      <trkpt lat="43.7875" lon="7.03374">
        <ele>954.2</ele>
        <time>2019-12-12T11:37:09Z</time>
      </trkpt>
      <trkpt lat="43.78748" lon="7.03372">
        <ele>953.8</ele>
        <time>2019-12-12T11:37:11Z</time>
      </trkpt>
      <trkpt lat="43.78746" lon="7.0337">
        <ele>953.3</ele>
        <time>2019-12-12T11:37:13Z</time>
      </trkpt>
      <trkpt lat="43.78744" lon="7.03367">
        <ele>953.3</ele>
        <time>2019-12-12T11:37:15Z</time>
      </trkpt>
      <trkpt lat="43.78741" lon="7.03365">
        <ele>951.8</ele>
        <time>2019-12-12T11:37:17Z</time>
      </trkpt>
      <trkpt lat="43.78738" lon="7.03363">
        <ele>950.4</ele>
        <time>2019-12-12T11:37:19Z</time>
      </trkpt>
      <trkpt lat="43.78734" lon="7.03361">
        <ele>950.4</ele>
        <time>2019-12-12T11:37:21Z</time>
      </trkpt>
      <trkpt lat="43.7873" lon="7.0336">
        <ele>949.4</ele>
        <time>2019-12-12T11:37:23Z</time>
      </trkpt>
      <trkpt lat="43.78725" lon="7.03358">
        <ele>948</ele>
        <time>2019-12-12T11:37:25Z</time>
      </trkpt>
      <trkpt lat="43.78722" lon="7.03357">
        <ele>946.6</ele>
        <time>2019-12-12T11:37:27Z</time>
      </trkpt>
      <trkpt lat="43.78718" lon="7.03356">
        <ele>947</ele>
        <time>2019-12-12T11:37:29Z</time>
      </trkpt>
      <trkpt lat="43.78715" lon="7.03354">
        <ele>946.1</ele>
        <time>2019-12-12T11:37:31Z</time>
      </trkpt>
      <trkpt lat="43.78711" lon="7.03352">
        <ele>945.1</ele>
        <time>2019-12-12T11:37:33Z</time>
      </trkpt>
      <trkpt lat="43.78708" lon="7.03353">
        <ele>944.6</ele>
        <time>2019-12-12T11:37:35Z</time>
      </trkpt>
      <trkpt lat="43.78705" lon="7.03352">
        <ele>943.7</ele>
        <time>2019-12-12T11:37:37Z</time>
      </trkpt>
      <trkpt lat="43.78701" lon="7.03351">
        <ele>943.2</ele>
        <time>2019-12-12T11:37:39Z</time>
      </trkpt>
      <trkpt lat="43.78699" lon="7.03351">
        <ele>942.7</ele>
        <time>2019-12-12T11:37:41Z</time>
      </trkpt>
      <trkpt lat="43.78696" lon="7.0335">
        <ele>942.7</ele>
        <time>2019-12-12T11:37:43Z</time>
      </trkpt>
      <trkpt lat="43.78692" lon="7.0335">
        <ele>942.2</ele>
        <time>2019-12-12T11:37:45Z</time>
      </trkpt>
      <trkpt lat="43.78689" lon="7.03348">
        <ele>940.8</ele>
        <time>2019-12-12T11:37:47Z</time>
      </trkpt>
      <trkpt lat="43.78685" lon="7.03346">
        <ele>940.3</ele>
        <time>2019-12-12T11:37:49Z</time>
      </trkpt>
      <trkpt lat="43.78682" lon="7.03344">
        <ele>939.3</ele>
        <time>2019-12-12T11:37:51Z</time>
      </trkpt>
      <trkpt lat="43.78679" lon="7.03344">
        <ele>939.3</ele>
        <time>2019-12-12T11:37:53Z</time>
      </trkpt>
      <trkpt lat="43.78676" lon="7.03343">
        <ele>940.3</ele>
        <time>2019-12-12T11:37:55Z</time>
      </trkpt>
      <trkpt lat="43.78676" lon="7.03342">
        <ele>941.3</ele>
        <time>2019-12-12T11:37:57Z</time>
      </trkpt>
      <trkpt lat="43.78675" lon="7.03339">
        <ele>941.7</ele>
        <time>2019-12-12T11:37:59Z</time>
      </trkpt>
      <trkpt lat="43.78676" lon="7.03338">
        <ele>942.7</ele>
        <time>2019-12-12T11:38:01Z</time>
      </trkpt>
      <trkpt lat="43.78676" lon="7.03337">
        <ele>944.2</ele>
        <time>2019-12-12T11:38:03Z</time>
      </trkpt>
      <trkpt lat="43.78676" lon="7.03336">
        <ele>946.6</ele>
        <time>2019-12-12T11:38:05Z</time>
      </trkpt>
      <trkpt lat="43.78676" lon="7.03337">
        <ele>947</ele>
        <time>2019-12-12T11:38:07Z</time>
      </trkpt>
      <trkpt lat="43.78674" lon="7.03338">
        <ele>947</ele>
        <time>2019-12-12T11:38:09Z</time>
      </trkpt>
      <trkpt lat="43.78673" lon="7.03339">
        <ele>947.5</ele>
        <time>2019-12-12T11:38:11Z</time>
      </trkpt>
      <trkpt lat="43.78669" lon="7.0334">
        <ele>949</ele>
        <time>2019-12-12T11:38:13Z</time>
      </trkpt>
      <trkpt lat="43.78671" lon="7.0334">
        <ele>949.9</ele>
        <time>2019-12-12T11:38:15Z</time>
      </trkpt>
      <trkpt lat="43.7867" lon="7.0334">
        <ele>951.4</ele>
        <time>2019-12-12T11:38:17Z</time>
      </trkpt>
      <trkpt lat="43.7867" lon="7.03341">
        <ele>951.8</ele>
        <time>2019-12-12T11:38:19Z</time>
      </trkpt>
      <trkpt lat="43.7867" lon="7.03341">
        <ele>951.8</ele>
        <time>2019-12-12T11:38:21Z</time>
      </trkpt>
      <trkpt lat="43.78669" lon="7.03341">
        <ele>951.8</ele>
        <time>2019-12-12T11:38:23Z</time>
      </trkpt>
      <trkpt lat="43.78669" lon="7.03341">
        <ele>951.8</ele>
        <time>2019-12-12T11:38:25Z</time>
      </trkpt>
      <trkpt lat="43.78671" lon="7.03342">
        <ele>952.3</ele>
        <time>2019-12-12T11:38:27Z</time>
      </trkpt>
      <trkpt lat="43.78671" lon="7.03342">
        <ele>952.8</ele>
        <time>2019-12-12T11:38:29Z</time>
      </trkpt>
      <trkpt lat="43.78671" lon="7.03342">
        <ele>952.8</ele>
        <time>2019-12-12T11:38:31Z</time>
      </trkpt>
      <trkpt lat="43.78671" lon="7.03342">
        <ele>952.8</ele>
        <time>2019-12-12T11:38:33Z</time>
      </trkpt>
      <trkpt lat="43.78671" lon="7.03342">
        <ele>952.8</ele>
        <time>2019-12-12T11:38:35Z</time>
      </trkpt>
      <trkpt lat="43.78671" lon="7.03341">
        <ele>952.8</ele>
        <time>2019-12-12T11:38:37Z</time>
      </trkpt>
      <trkpt lat="43.78671" lon="7.03341">
        <ele>952.8</ele>
        <time>2019-12-12T11:38:39Z</time>
      </trkpt>
      <trkpt lat="43.78671" lon="7.03341">
        <ele>952.8</ele>
        <time>2019-12-12T11:38:41Z</time>
      </trkpt>
      <trkpt lat="43.78671" lon="7.03341">
        <ele>952.8</ele>
        <time>2019-12-12T11:38:43Z</time>
      </trkpt>
      <trkpt lat="43.78671" lon="7.03341">
        <ele>952.8</ele>
        <time>2019-12-12T11:38:45Z</time>
      </trkpt>
      <trkpt lat="43.78671" lon="7.03341">
        <ele>952.8</ele>
        <time>2019-12-12T11:38:47Z</time>
      </trkpt>
      <trkpt lat="43.78671" lon="7.03341">
        <ele>953.3</ele>
        <time>2019-12-12T11:38:49Z</time>
      </trkpt>
      <trkpt lat="43.78671" lon="7.03342">
        <ele>953.3</ele>
        <time>2019-12-12T11:38:51Z</time>
      </trkpt>
      <trkpt lat="43.78671" lon="7.03342">
        <ele>953.3</ele>
        <time>2019-12-12T11:38:53Z</time>
      </trkpt>
      <trkpt lat="43.78671" lon="7.03342">
        <ele>953.3</ele>
        <time>2019-12-12T11:38:55Z</time>
      </trkpt>
      <trkpt lat="43.78671" lon="7.03342">
        <ele>953.3</ele>
        <time>2019-12-12T11:38:57Z</time>
      </trkpt>
      <trkpt lat="43.78672" lon="7.03342">
        <ele>953.3</ele>
        <time>2019-12-12T11:38:59Z</time>
      </trkpt>
      <trkpt lat="43.78672" lon="7.03342">
        <ele>953.3</ele>
        <time>2019-12-12T11:39:01Z</time>
      </trkpt>
      <trkpt lat="43.78672" lon="7.03342">
        <ele>953.3</ele>
        <time>2019-12-12T11:39:03Z</time>
      </trkpt>
      <trkpt lat="43.78672" lon="7.03342">
        <ele>953.3</ele>
        <time>2019-12-12T11:39:05Z</time>
      </trkpt>
      <trkpt lat="43.78673" lon="7.03342">
        <ele>953.3</ele>
        <time>2019-12-12T11:39:07Z</time>
      </trkpt>
      <trkpt lat="43.78673" lon="7.03342">
        <ele>953.3</ele>
        <time>2019-12-12T11:39:09Z</time>
      </trkpt>
      <trkpt lat="43.78673" lon="7.03342">
        <ele>953.3</ele>
        <time>2019-12-12T11:39:11Z</time>
      </trkpt>
      <trkpt lat="43.78672" lon="7.03342">
        <ele>953.8</ele>
        <time>2019-12-12T11:39:13Z</time>
      </trkpt>
      <trkpt lat="43.78669" lon="7.0334">
        <ele>954.7</ele>
        <time>2019-12-12T11:39:15Z</time>
      </trkpt>
      <trkpt lat="43.78668" lon="7.03341">
        <ele>954.7</ele>
        <time>2019-12-12T11:39:17Z</time>
      </trkpt>
      <trkpt lat="43.78668" lon="7.03338">
        <ele>955.7</ele>
        <time>2019-12-12T11:39:19Z</time>
      </trkpt>
      <trkpt lat="43.78669" lon="7.03332">
        <ele>956.2</ele>
        <time>2019-12-12T11:39:21Z</time>
      </trkpt>
      <trkpt lat="43.7867" lon="7.03326">
        <ele>956.6</ele>
        <time>2019-12-12T11:39:23Z</time>
      </trkpt>
      <trkpt lat="43.78671" lon="7.03319">
        <ele>957.1</ele>
        <time>2019-12-12T11:39:25Z</time>
      </trkpt>
      <trkpt lat="43.78671" lon="7.03315">
        <ele>957.1</ele>
        <time>2019-12-12T11:39:27Z</time>
      </trkpt>
      <trkpt lat="43.78672" lon="7.0331">
        <ele>957.6</ele>
        <time>2019-12-12T11:39:29Z</time>
      </trkpt>
      <trkpt lat="43.78673" lon="7.03307">
        <ele>958.1</ele>
        <time>2019-12-12T11:39:31Z</time>
      </trkpt>
      <trkpt lat="43.78675" lon="7.03302">
        <ele>958.6</ele>
        <time>2019-12-12T11:39:33Z</time>
      </trkpt>
      <trkpt lat="43.78676" lon="7.03297">
        <ele>959.1</ele>
        <time>2019-12-12T11:39:35Z</time>
      </trkpt>
      <trkpt lat="43.78677" lon="7.03291">
        <ele>959.1</ele>
        <time>2019-12-12T11:39:37Z</time>
      </trkpt>
      <trkpt lat="43.78676" lon="7.03284">
        <ele>959.1</ele>
        <time>2019-12-12T11:39:39Z</time>
      </trkpt>
      <trkpt lat="43.78676" lon="7.03278">
        <ele>960</ele>
        <time>2019-12-12T11:39:41Z</time>
      </trkpt>
      <trkpt lat="43.78676" lon="7.03273">
        <ele>960.5</ele>
        <time>2019-12-12T11:39:43Z</time>
      </trkpt>
      <trkpt lat="43.78676" lon="7.03266">
        <ele>961</ele>
        <time>2019-12-12T11:39:45Z</time>
      </trkpt>
      <trkpt lat="43.78676" lon="7.03259">
        <ele>961.5</ele>
        <time>2019-12-12T11:39:47Z</time>
      </trkpt>
      <trkpt lat="43.78675" lon="7.03249">
        <ele>962.4</ele>
        <time>2019-12-12T11:39:49Z</time>
      </trkpt>
      <trkpt lat="43.78673" lon="7.03242">
        <ele>963.4</ele>
        <time>2019-12-12T11:39:51Z</time>
      </trkpt>
      <trkpt lat="43.78672" lon="7.03235">
        <ele>964.3</ele>
        <time>2019-12-12T11:39:53Z</time>
      </trkpt>
      <trkpt lat="43.78673" lon="7.03229">
        <ele>964.8</ele>
        <time>2019-12-12T11:39:55Z</time>
      </trkpt>
      <trkpt lat="43.78674" lon="7.03224">
        <ele>965.3</ele>
        <time>2019-12-12T11:39:57Z</time>
      </trkpt>
      <trkpt lat="43.78675" lon="7.03218">
        <ele>965.3</ele>
        <time>2019-12-12T11:39:59Z</time>
      </trkpt>
      <trkpt lat="43.78676" lon="7.03211">
        <ele>964.8</ele>
        <time>2019-12-12T11:40:01Z</time>
      </trkpt>
      <trkpt lat="43.78675" lon="7.03205">
        <ele>965.3</ele>
        <time>2019-12-12T11:40:03Z</time>
      </trkpt>
      <trkpt lat="43.78675" lon="7.032">
        <ele>965.8</ele>
        <time>2019-12-12T11:40:05Z</time>
      </trkpt>
      <trkpt lat="43.78673" lon="7.03194">
        <ele>965.8</ele>
        <time>2019-12-12T11:40:07Z</time>
      </trkpt>
      <trkpt lat="43.7867" lon="7.03188">
        <ele>965.8</ele>
        <time>2019-12-12T11:40:09Z</time>
      </trkpt>
      <trkpt lat="43.78668" lon="7.03183">
        <ele>966.3</ele>
        <time>2019-12-12T11:40:11Z</time>
      </trkpt>
      <trkpt lat="43.78666" lon="7.03177">
        <ele>966.7</ele>
        <time>2019-12-12T11:40:13Z</time>
      </trkpt>
      <trkpt lat="43.78664" lon="7.03171">
        <ele>967.7</ele>
        <time>2019-12-12T11:40:15Z</time>
      </trkpt>
      <trkpt lat="43.78661" lon="7.03167">
        <ele>969.1</ele>
        <time>2019-12-12T11:40:17Z</time>
      </trkpt>
      <trkpt lat="43.78659" lon="7.03159">
        <ele>970.6</ele>
        <time>2019-12-12T11:40:19Z</time>
      </trkpt>
      <trkpt lat="43.78658" lon="7.03154">
        <ele>971.1</ele>
        <time>2019-12-12T11:40:21Z</time>
      </trkpt>
      <trkpt lat="43.78656" lon="7.03148">
        <ele>972</ele>
        <time>2019-12-12T11:40:23Z</time>
      </trkpt>
      <trkpt lat="43.78653" lon="7.03143">
        <ele>973</ele>
        <time>2019-12-12T11:40:25Z</time>
      </trkpt>
      <trkpt lat="43.78651" lon="7.03139">
        <ele>973.5</ele>
        <time>2019-12-12T11:40:27Z</time>
      </trkpt>
      <trkpt lat="43.78648" lon="7.03134">
        <ele>974.4</ele>
        <time>2019-12-12T11:40:29Z</time>
      </trkpt>
      <trkpt lat="43.78646" lon="7.0313">
        <ele>975.9</ele>
        <time>2019-12-12T11:40:31Z</time>
      </trkpt>
      <trkpt lat="43.78643" lon="7.03124">
        <ele>976.4</ele>
        <time>2019-12-12T11:40:33Z</time>
      </trkpt>
      <trkpt lat="43.78641" lon="7.0312">
        <ele>976.8</ele>
        <time>2019-12-12T11:40:35Z</time>
      </trkpt>
      <trkpt lat="43.78638" lon="7.03116">
        <ele>978.3</ele>
        <time>2019-12-12T11:40:37Z</time>
      </trkpt>
      <trkpt lat="43.78637" lon="7.03113">
        <ele>978.3</ele>
        <time>2019-12-12T11:40:39Z</time>
      </trkpt>
      <trkpt lat="43.78635" lon="7.0311">
        <ele>979.2</ele>
        <time>2019-12-12T11:40:41Z</time>
      </trkpt>
      <trkpt lat="43.78634" lon="7.03106">
        <ele>979.7</ele>
        <time>2019-12-12T11:40:43Z</time>
      </trkpt>
      <trkpt lat="43.78632" lon="7.03103">
        <ele>981.2</ele>
        <time>2019-12-12T11:40:45Z</time>
      </trkpt>
      <trkpt lat="43.7863" lon="7.031">
        <ele>982.1</ele>
        <time>2019-12-12T11:40:47Z</time>
      </trkpt>
      <trkpt lat="43.78629" lon="7.03097">
        <ele>983.6</ele>
        <time>2019-12-12T11:40:49Z</time>
      </trkpt>
      <trkpt lat="43.78627" lon="7.03093">
        <ele>985</ele>
        <time>2019-12-12T11:40:51Z</time>
      </trkpt>
      <trkpt lat="43.78625" lon="7.0309">
        <ele>986</ele>
        <time>2019-12-12T11:40:53Z</time>
      </trkpt>
      <trkpt lat="43.78623" lon="7.03089">
        <ele>986.9</ele>
        <time>2019-12-12T11:40:55Z</time>
      </trkpt>
      <trkpt lat="43.78622" lon="7.03087">
        <ele>988.4</ele>
        <time>2019-12-12T11:40:57Z</time>
      </trkpt>
      <trkpt lat="43.78621" lon="7.03085">
        <ele>989.3</ele>
        <time>2019-12-12T11:40:59Z</time>
      </trkpt>
      <trkpt lat="43.78619" lon="7.03082">
        <ele>991.3</ele>
        <time>2019-12-12T11:41:01Z</time>
      </trkpt>
      <trkpt lat="43.78617" lon="7.03081">
        <ele>992.2</ele>
        <time>2019-12-12T11:41:03Z</time>
      </trkpt>
      <trkpt lat="43.78615" lon="7.03079">
        <ele>993.7</ele>
        <time>2019-12-12T11:41:05Z</time>
      </trkpt>
      <trkpt lat="43.78613" lon="7.03076">
        <ele>995.1</ele>
        <time>2019-12-12T11:41:07Z</time>
      </trkpt>
      <trkpt lat="43.78611" lon="7.03074">
        <ele>996.5</ele>
        <time>2019-12-12T11:41:09Z</time>
      </trkpt>
      <trkpt lat="43.78609" lon="7.03073">
        <ele>997</ele>
        <time>2019-12-12T11:41:11Z</time>
      </trkpt>
      <trkpt lat="43.78607" lon="7.03071">
        <ele>998.5</ele>
        <time>2019-12-12T11:41:13Z</time>
      </trkpt>
      <trkpt lat="43.78606" lon="7.03068">
        <ele>999.4</ele>
        <time>2019-12-12T11:41:15Z</time>
      </trkpt>
      <trkpt lat="43.78604" lon="7.03067">
        <ele>1000.9</ele>
        <time>2019-12-12T11:41:17Z</time>
      </trkpt>
      <trkpt lat="43.78603" lon="7.03065">
        <ele>1002.3</ele>
        <time>2019-12-12T11:41:19Z</time>
      </trkpt>
      <trkpt lat="43.78601" lon="7.03062">
        <ele>1003.8</ele>
        <time>2019-12-12T11:41:21Z</time>
      </trkpt>
      <trkpt lat="43.78599" lon="7.03058">
        <ele>1004.7</ele>
        <time>2019-12-12T11:41:23Z</time>
      </trkpt>
      <trkpt lat="43.78597" lon="7.03055">
        <ele>1006.2</ele>
        <time>2019-12-12T11:41:25Z</time>
      </trkpt>
      <trkpt lat="43.78596" lon="7.03052">
        <ele>1007.6</ele>
        <time>2019-12-12T11:41:27Z</time>
      </trkpt>
      <trkpt lat="43.78594" lon="7.0305">
        <ele>1008.6</ele>
        <time>2019-12-12T11:41:29Z</time>
      </trkpt>
      <trkpt lat="43.78593" lon="7.03048">
        <ele>1008.6</ele>
        <time>2019-12-12T11:41:31Z</time>
      </trkpt>
      <trkpt lat="43.78591" lon="7.03047">
        <ele>1009.5</ele>
        <time>2019-12-12T11:41:33Z</time>
      </trkpt>
      <trkpt lat="43.78589" lon="7.03045">
        <ele>1010.5</ele>
        <time>2019-12-12T11:41:35Z</time>
      </trkpt>
      <trkpt lat="43.78587" lon="7.03042">
        <ele>1011.9</ele>
        <time>2019-12-12T11:41:37Z</time>
      </trkpt>
      <trkpt lat="43.78586" lon="7.03041">
        <ele>1013.4</ele>
        <time>2019-12-12T11:41:39Z</time>
      </trkpt>
      <trkpt lat="43.78584" lon="7.03041">
        <ele>1012.9</ele>
        <time>2019-12-12T11:41:41Z</time>
      </trkpt>
      <trkpt lat="43.78583" lon="7.03039">
        <ele>1012.4</ele>
        <time>2019-12-12T11:41:43Z</time>
      </trkpt>
      <trkpt lat="43.78582" lon="7.03037">
        <ele>1012.9</ele>
        <time>2019-12-12T11:41:45Z</time>
      </trkpt>
      <trkpt lat="43.78581" lon="7.03034">
        <ele>1012.9</ele>
        <time>2019-12-12T11:41:47Z</time>
      </trkpt>
      <trkpt lat="43.78579" lon="7.03031">
        <ele>1012.9</ele>
        <time>2019-12-12T11:41:49Z</time>
      </trkpt>
      <trkpt lat="43.78578" lon="7.03028">
        <ele>1012.9</ele>
        <time>2019-12-12T11:41:51Z</time>
      </trkpt>
      <trkpt lat="43.78576" lon="7.03026">
        <ele>1013.4</ele>
        <time>2019-12-12T11:41:53Z</time>
      </trkpt>
      <trkpt lat="43.78577" lon="7.03024">
        <ele>1013.4</ele>
        <time>2019-12-12T11:41:55Z</time>
      </trkpt>
      <trkpt lat="43.78578" lon="7.03024">
        <ele>1013.4</ele>
        <time>2019-12-12T11:41:57Z</time>
      </trkpt>
      <trkpt lat="43.78578" lon="7.03022">
        <ele>1013.4</ele>
        <time>2019-12-12T11:41:59Z</time>
      </trkpt>
      <trkpt lat="43.78577" lon="7.0302">
        <ele>1013.4</ele>
        <time>2019-12-12T11:42:01Z</time>
      </trkpt>
      <trkpt lat="43.78576" lon="7.03017">
        <ele>1013.4</ele>
        <time>2019-12-12T11:42:03Z</time>
      </trkpt>
      <trkpt lat="43.78575" lon="7.03015">
        <ele>1013.8</ele>
        <time>2019-12-12T11:42:05Z</time>
      </trkpt>
      <trkpt lat="43.78574" lon="7.03013">
        <ele>1014.3</ele>
        <time>2019-12-12T11:42:07Z</time>
      </trkpt>
      <trkpt lat="43.78573" lon="7.03012">
        <ele>1015.3</ele>
        <time>2019-12-12T11:42:09Z</time>
      </trkpt>
      <trkpt lat="43.78572" lon="7.03012">
        <ele>1015.3</ele>
        <time>2019-12-12T11:42:11Z</time>
      </trkpt>
      <trkpt lat="43.78572" lon="7.03011">
        <ele>1015.8</ele>
        <time>2019-12-12T11:42:13Z</time>
      </trkpt>
      <trkpt lat="43.7857" lon="7.03009">
        <ele>1016.3</ele>
        <time>2019-12-12T11:42:15Z</time>
      </trkpt>
      <trkpt lat="43.78569" lon="7.03007">
        <ele>1016.7</ele>
        <time>2019-12-12T11:42:17Z</time>
      </trkpt>
      <trkpt lat="43.78568" lon="7.03005">
        <ele>1017.2</ele>
        <time>2019-12-12T11:42:19Z</time>
      </trkpt>
      <trkpt lat="43.78567" lon="7.03004">
        <ele>1018.2</ele>
        <time>2019-12-12T11:42:21Z</time>
      </trkpt>
      <trkpt lat="43.78566" lon="7.03004">
        <ele>1018.7</ele>
        <time>2019-12-12T11:42:23Z</time>
      </trkpt>
      <trkpt lat="43.78565" lon="7.03003">
        <ele>1018.7</ele>
        <time>2019-12-12T11:42:25Z</time>
      </trkpt>
      <trkpt lat="43.78564" lon="7.03002">
        <ele>1019.1</ele>
        <time>2019-12-12T11:42:27Z</time>
      </trkpt>
      <trkpt lat="43.78563" lon="7.03001">
        <ele>1019.1</ele>
        <time>2019-12-12T11:42:29Z</time>
      </trkpt>
      <trkpt lat="43.78562" lon="7.03002">
        <ele>1019.1</ele>
        <time>2019-12-12T11:42:31Z</time>
      </trkpt>
      <trkpt lat="43.78561" lon="7.03002">
        <ele>1019.6</ele>
        <time>2019-12-12T11:42:33Z</time>
      </trkpt>
      <trkpt lat="43.7856" lon="7.03">
        <ele>1020.1</ele>
        <time>2019-12-12T11:42:35Z</time>
      </trkpt>
      <trkpt lat="43.7856" lon="7.02999">
        <ele>1020.1</ele>
        <time>2019-12-12T11:42:37Z</time>
      </trkpt>
      <trkpt lat="43.78559" lon="7.02999">
        <ele>1020.6</ele>
        <time>2019-12-12T11:42:39Z</time>
      </trkpt>
      <trkpt lat="43.78559" lon="7.02999">
        <ele>1020.6</ele>
        <time>2019-12-12T11:42:41Z</time>
      </trkpt>
      <trkpt lat="43.78557" lon="7.02998">
        <ele>1021.1</ele>
        <time>2019-12-12T11:42:43Z</time>
      </trkpt>
      <trkpt lat="43.78556" lon="7.02996">
        <ele>1021.5</ele>
        <time>2019-12-12T11:42:45Z</time>
      </trkpt>
      <trkpt lat="43.78555" lon="7.02994">
        <ele>1022</ele>
        <time>2019-12-12T11:42:47Z</time>
      </trkpt>
      <trkpt lat="43.78554" lon="7.02992">
        <ele>1022.5</ele>
        <time>2019-12-12T11:42:49Z</time>
      </trkpt>
      <trkpt lat="43.78552" lon="7.02989">
        <ele>1022.5</ele>
        <time>2019-12-12T11:42:51Z</time>
      </trkpt>
      <trkpt lat="43.78551" lon="7.02987">
        <ele>1023</ele>
        <time>2019-12-12T11:42:53Z</time>
      </trkpt>
      <trkpt lat="43.7855" lon="7.02984">
        <ele>1023.9</ele>
        <time>2019-12-12T11:42:55Z</time>
      </trkpt>
      <trkpt lat="43.7855" lon="7.02982">
        <ele>1024.4</ele>
        <time>2019-12-12T11:42:57Z</time>
      </trkpt>
      <trkpt lat="43.78549" lon="7.02979">
        <ele>1025.4</ele>
        <time>2019-12-12T11:42:59Z</time>
      </trkpt>
      <trkpt lat="43.78548" lon="7.02976">
        <ele>1026.3</ele>
        <time>2019-12-12T11:43:01Z</time>
      </trkpt>
      <trkpt lat="43.78549" lon="7.02973">
        <ele>1027.3</ele>
        <time>2019-12-12T11:43:03Z</time>
      </trkpt>
      <trkpt lat="43.78548" lon="7.02971">
        <ele>1028.3</ele>
        <time>2019-12-12T11:43:05Z</time>
      </trkpt>
      <trkpt lat="43.78546" lon="7.02969">
        <ele>1029.7</ele>
        <time>2019-12-12T11:43:07Z</time>
      </trkpt>
      <trkpt lat="43.78545" lon="7.02966">
        <ele>1030.7</ele>
        <time>2019-12-12T11:43:09Z</time>
      </trkpt>
      <trkpt lat="43.78545" lon="7.02964">
        <ele>1031.2</ele>
        <time>2019-12-12T11:43:11Z</time>
      </trkpt>
      <trkpt lat="43.78544" lon="7.02961">
        <ele>1032.1</ele>
        <time>2019-12-12T11:43:13Z</time>
      </trkpt>
      <trkpt lat="43.78544" lon="7.02959">
        <ele>1033.6</ele>
        <time>2019-12-12T11:43:15Z</time>
      </trkpt>
      <trkpt lat="43.78544" lon="7.02957">
        <ele>1033.1</ele>
        <time>2019-12-12T11:43:17Z</time>
      </trkpt>
      <trkpt lat="43.78544" lon="7.02955">
        <ele>1032.1</ele>
        <time>2019-12-12T11:43:19Z</time>
      </trkpt>
      <trkpt lat="43.78544" lon="7.02953">
        <ele>1032.6</ele>
        <time>2019-12-12T11:43:21Z</time>
      </trkpt>
      <trkpt lat="43.78543" lon="7.02951">
        <ele>1032.1</ele>
        <time>2019-12-12T11:43:23Z</time>
      </trkpt>
      <trkpt lat="43.78542" lon="7.02948">
        <ele>1032.1</ele>
        <time>2019-12-12T11:43:25Z</time>
      </trkpt>
      <trkpt lat="43.78541" lon="7.02945">
        <ele>1032.1</ele>
        <time>2019-12-12T11:43:27Z</time>
      </trkpt>
      <trkpt lat="43.78539" lon="7.02943">
        <ele>1032.1</ele>
        <time>2019-12-12T11:43:29Z</time>
      </trkpt>
      <trkpt lat="43.78538" lon="7.0294">
        <ele>1032.1</ele>
        <time>2019-12-12T11:43:31Z</time>
      </trkpt>
      <trkpt lat="43.78536" lon="7.02936">
        <ele>1032.1</ele>
        <time>2019-12-12T11:43:33Z</time>
      </trkpt>
      <trkpt lat="43.78534" lon="7.02932">
        <ele>1032.6</ele>
        <time>2019-12-12T11:43:35Z</time>
      </trkpt>
      <trkpt lat="43.78533" lon="7.02928">
        <ele>1032.6</ele>
        <time>2019-12-12T11:43:37Z</time>
      </trkpt>
      <trkpt lat="43.78532" lon="7.02925">
        <ele>1032.6</ele>
        <time>2019-12-12T11:43:39Z</time>
      </trkpt>
      <trkpt lat="43.7853" lon="7.02922">
        <ele>1033.1</ele>
        <time>2019-12-12T11:43:41Z</time>
      </trkpt>
      <trkpt lat="43.78528" lon="7.02919">
        <ele>1033.1</ele>
        <time>2019-12-12T11:43:43Z</time>
      </trkpt>
      <trkpt lat="43.78527" lon="7.02917">
        <ele>1033.6</ele>
        <time>2019-12-12T11:43:45Z</time>
      </trkpt>
      <trkpt lat="43.78528" lon="7.02917">
        <ele>1033.6</ele>
        <time>2019-12-12T11:43:47Z</time>
      </trkpt>
      <trkpt lat="43.78528" lon="7.02917">
        <ele>1033.6</ele>
        <time>2019-12-12T11:43:49Z</time>
      </trkpt>
      <trkpt lat="43.78527" lon="7.02916">
        <ele>1033.6</ele>
        <time>2019-12-12T11:43:51Z</time>
      </trkpt>
      <trkpt lat="43.78527" lon="7.02917">
        <ele>1032.6</ele>
        <time>2019-12-12T11:43:53Z</time>
      </trkpt>
      <trkpt lat="43.78526" lon="7.02915">
        <ele>1032.1</ele>
        <time>2019-12-12T11:43:55Z</time>
      </trkpt>
      <trkpt lat="43.78525" lon="7.02914">
        <ele>1032.1</ele>
        <time>2019-12-12T11:43:57Z</time>
      </trkpt>
      <trkpt lat="43.78524" lon="7.02912">
        <ele>1032.1</ele>
        <time>2019-12-12T11:43:59Z</time>
      </trkpt>
      <trkpt lat="43.78524" lon="7.02911">
        <ele>1032.1</ele>
        <time>2019-12-12T11:44:01Z</time>
      </trkpt>
      <trkpt lat="43.78524" lon="7.0291">
        <ele>1032.1</ele>
        <time>2019-12-12T11:44:03Z</time>
      </trkpt>
      <trkpt lat="43.78524" lon="7.0291">
        <ele>1032.1</ele>
        <time>2019-12-12T11:44:05Z</time>
      </trkpt>
      <trkpt lat="43.78522" lon="7.02909">
        <ele>1032.6</ele>
        <time>2019-12-12T11:44:07Z</time>
      </trkpt>
      <trkpt lat="43.78522" lon="7.02909">
        <ele>1032.6</ele>
        <time>2019-12-12T11:44:09Z</time>
      </trkpt>
      <trkpt lat="43.78521" lon="7.02908">
        <ele>1032.6</ele>
        <time>2019-12-12T11:44:11Z</time>
      </trkpt>
      <trkpt lat="43.7852" lon="7.02906">
        <ele>1032.6</ele>
        <time>2019-12-12T11:44:13Z</time>
      </trkpt>
      <trkpt lat="43.7852" lon="7.02903">
        <ele>1032.6</ele>
        <time>2019-12-12T11:44:15Z</time>
      </trkpt>
      <trkpt lat="43.7852" lon="7.02901">
        <ele>1032.6</ele>
        <time>2019-12-12T11:44:17Z</time>
      </trkpt>
      <trkpt lat="43.78519" lon="7.02899">
        <ele>1033.1</ele>
        <time>2019-12-12T11:44:19Z</time>
      </trkpt>
      <trkpt lat="43.78519" lon="7.02897">
        <ele>1033.6</ele>
        <time>2019-12-12T11:44:21Z</time>
      </trkpt>
      <trkpt lat="43.78517" lon="7.02896">
        <ele>1034</ele>
        <time>2019-12-12T11:44:23Z</time>
      </trkpt>
      <trkpt lat="43.78517" lon="7.02895">
        <ele>1034.5</ele>
        <time>2019-12-12T11:44:25Z</time>
      </trkpt>
      <trkpt lat="43.78515" lon="7.02894">
        <ele>1035</ele>
        <time>2019-12-12T11:44:27Z</time>
      </trkpt>
      <trkpt lat="43.78514" lon="7.02892">
        <ele>1036</ele>
        <time>2019-12-12T11:44:29Z</time>
      </trkpt>
      <trkpt lat="43.78514" lon="7.0289">
        <ele>1036.4</ele>
        <time>2019-12-12T11:44:31Z</time>
      </trkpt>
      <trkpt lat="43.78513" lon="7.02888">
        <ele>1037.4</ele>
        <time>2019-12-12T11:44:33Z</time>
      </trkpt>
      <trkpt lat="43.78514" lon="7.02888">
        <ele>1037.9</ele>
        <time>2019-12-12T11:44:35Z</time>
      </trkpt>
      <trkpt lat="43.78514" lon="7.02885">
        <ele>1037.4</ele>
        <time>2019-12-12T11:44:37Z</time>
      </trkpt>
      <trkpt lat="43.78514" lon="7.02883">
        <ele>1036.9</ele>
        <time>2019-12-12T11:44:39Z</time>
      </trkpt>
      <trkpt lat="43.78514" lon="7.02881">
        <ele>1037.4</ele>
        <time>2019-12-12T11:44:41Z</time>
      </trkpt>
      <trkpt lat="43.78513" lon="7.02879">
        <ele>1036.9</ele>
        <time>2019-12-12T11:44:43Z</time>
      </trkpt>
      <trkpt lat="43.78512" lon="7.02878">
        <ele>1037.4</ele>
        <time>2019-12-12T11:44:45Z</time>
      </trkpt>
      <trkpt lat="43.78512" lon="7.02876">
        <ele>1037.4</ele>
        <time>2019-12-12T11:44:47Z</time>
      </trkpt>
      <trkpt lat="43.78511" lon="7.02874">
        <ele>1037.9</ele>
        <time>2019-12-12T11:44:49Z</time>
      </trkpt>
      <trkpt lat="43.7851" lon="7.02872">
        <ele>1038.4</ele>
        <time>2019-12-12T11:44:51Z</time>
      </trkpt>
      <trkpt lat="43.78509" lon="7.02869">
        <ele>1038.8</ele>
        <time>2019-12-12T11:44:53Z</time>
      </trkpt>
      <trkpt lat="43.78509" lon="7.02867">
        <ele>1039.3</ele>
        <time>2019-12-12T11:44:55Z</time>
      </trkpt>
      <trkpt lat="43.78508" lon="7.02866">
        <ele>1039.3</ele>
        <time>2019-12-12T11:44:57Z</time>
      </trkpt>
      <trkpt lat="43.78507" lon="7.02864">
        <ele>1039.3</ele>
        <time>2019-12-12T11:44:59Z</time>
      </trkpt>
      <trkpt lat="43.78506" lon="7.02862">
        <ele>1039.8</ele>
        <time>2019-12-12T11:45:01Z</time>
      </trkpt>
      <trkpt lat="43.78506" lon="7.0286">
        <ele>1039.8</ele>
        <time>2019-12-12T11:45:03Z</time>
      </trkpt>
      <trkpt lat="43.78504" lon="7.02859">
        <ele>1039.8</ele>
        <time>2019-12-12T11:45:05Z</time>
      </trkpt>
      <trkpt lat="43.78503" lon="7.02857">
        <ele>1039.8</ele>
        <time>2019-12-12T11:45:07Z</time>
      </trkpt>
      <trkpt lat="43.78501" lon="7.02856">
        <ele>1040.3</ele>
        <time>2019-12-12T11:45:09Z</time>
      </trkpt>
      <trkpt lat="43.785" lon="7.02854">
        <ele>1040.8</ele>
        <time>2019-12-12T11:45:11Z</time>
      </trkpt>
      <trkpt lat="43.78499" lon="7.02852">
        <ele>1040.8</ele>
        <time>2019-12-12T11:45:13Z</time>
      </trkpt>
      <trkpt lat="43.78499" lon="7.0285">
        <ele>1040.8</ele>
        <time>2019-12-12T11:45:15Z</time>
      </trkpt>
      <trkpt lat="43.78498" lon="7.02848">
        <ele>1041.2</ele>
        <time>2019-12-12T11:45:17Z</time>
      </trkpt>
      <trkpt lat="43.78498" lon="7.02846">
        <ele>1041.7</ele>
        <time>2019-12-12T11:45:19Z</time>
      </trkpt>
      <trkpt lat="43.78499" lon="7.02845">
        <ele>1042.2</ele>
        <time>2019-12-12T11:45:21Z</time>
      </trkpt>
      <trkpt lat="43.78498" lon="7.02843">
        <ele>1042.2</ele>
        <time>2019-12-12T11:45:23Z</time>
      </trkpt>
      <trkpt lat="43.78497" lon="7.0284">
        <ele>1042.7</ele>
        <time>2019-12-12T11:45:25Z</time>
      </trkpt>
      <trkpt lat="43.78496" lon="7.02838">
        <ele>1043.2</ele>
        <time>2019-12-12T11:45:27Z</time>
      </trkpt>
      <trkpt lat="43.78495" lon="7.02836">
        <ele>1043.6</ele>
        <time>2019-12-12T11:45:29Z</time>
      </trkpt>
      <trkpt lat="43.78494" lon="7.02833">
        <ele>1044.1</ele>
        <time>2019-12-12T11:45:31Z</time>
      </trkpt>
      <trkpt lat="43.78493" lon="7.02832">
        <ele>1044.1</ele>
        <time>2019-12-12T11:45:33Z</time>
      </trkpt>
      <trkpt lat="43.78492" lon="7.0283">
        <ele>1044.6</ele>
        <time>2019-12-12T11:45:35Z</time>
      </trkpt>
      <trkpt lat="43.78492" lon="7.02827">
        <ele>1045.1</ele>
        <time>2019-12-12T11:45:37Z</time>
      </trkpt>
      <trkpt lat="43.78491" lon="7.02822">
        <ele>1045.6</ele>
        <time>2019-12-12T11:45:39Z</time>
      </trkpt>
      <trkpt lat="43.7849" lon="7.0282">
        <ele>1046.1</ele>
        <time>2019-12-12T11:45:41Z</time>
      </trkpt>
      <trkpt lat="43.78492" lon="7.02818">
        <ele>1046.5</ele>
        <time>2019-12-12T11:45:43Z</time>
      </trkpt>
      <trkpt lat="43.78491" lon="7.02818">
        <ele>1046.5</ele>
        <time>2019-12-12T11:45:45Z</time>
      </trkpt>
      <trkpt lat="43.78491" lon="7.02815">
        <ele>1047</ele>
        <time>2019-12-12T11:45:47Z</time>
      </trkpt>
      <trkpt lat="43.78491" lon="7.02814">
        <ele>1047.5</ele>
        <time>2019-12-12T11:45:49Z</time>
      </trkpt>
      <trkpt lat="43.78491" lon="7.02812">
        <ele>1048</ele>
        <time>2019-12-12T11:45:51Z</time>
      </trkpt>
      <trkpt lat="43.78491" lon="7.02812">
        <ele>1048</ele>
        <time>2019-12-12T11:45:53Z</time>
      </trkpt>
      <trkpt lat="43.78491" lon="7.02811">
        <ele>1048</ele>
        <time>2019-12-12T11:45:55Z</time>
      </trkpt>
      <trkpt lat="43.7849" lon="7.02807">
        <ele>1048.5</ele>
        <time>2019-12-12T11:45:57Z</time>
      </trkpt>
      <trkpt lat="43.7849" lon="7.02805">
        <ele>1048.9</ele>
        <time>2019-12-12T11:45:59Z</time>
      </trkpt>
      <trkpt lat="43.7849" lon="7.02803">
        <ele>1048.9</ele>
        <time>2019-12-12T11:46:01Z</time>
      </trkpt>
      <trkpt lat="43.7849" lon="7.02801">
        <ele>1049.4</ele>
        <time>2019-12-12T11:46:03Z</time>
      </trkpt>
      <trkpt lat="43.78489" lon="7.028">
        <ele>1049.9</ele>
        <time>2019-12-12T11:46:05Z</time>
      </trkpt>
      <trkpt lat="43.78489" lon="7.02798">
        <ele>1049.9</ele>
        <time>2019-12-12T11:46:07Z</time>
      </trkpt>
      <trkpt lat="43.78488" lon="7.02796">
        <ele>1049.9</ele>
        <time>2019-12-12T11:46:09Z</time>
      </trkpt>
      <trkpt lat="43.78488" lon="7.02794">
        <ele>1050.4</ele>
        <time>2019-12-12T11:46:11Z</time>
      </trkpt>
      <trkpt lat="43.78488" lon="7.02793">
        <ele>1050.9</ele>
        <time>2019-12-12T11:46:13Z</time>
      </trkpt>
      <trkpt lat="43.78487" lon="7.02792">
        <ele>1051.3</ele>
        <time>2019-12-12T11:46:15Z</time>
      </trkpt>
      <trkpt lat="43.78486" lon="7.02791">
        <ele>1051.8</ele>
        <time>2019-12-12T11:46:17Z</time>
      </trkpt>
      <trkpt lat="43.78486" lon="7.02789">
        <ele>1052.3</ele>
        <time>2019-12-12T11:46:19Z</time>
      </trkpt>
      <trkpt lat="43.78485" lon="7.02788">
        <ele>1052.8</ele>
        <time>2019-12-12T11:46:21Z</time>
      </trkpt>
      <trkpt lat="43.78484" lon="7.02786">
        <ele>1053.3</ele>
        <time>2019-12-12T11:46:23Z</time>
      </trkpt>
      <trkpt lat="43.78483" lon="7.02784">
        <ele>1053.7</ele>
        <time>2019-12-12T11:46:25Z</time>
      </trkpt>
      <trkpt lat="43.78483" lon="7.02782">
        <ele>1054.2</ele>
        <time>2019-12-12T11:46:27Z</time>
      </trkpt>
      <trkpt lat="43.78483" lon="7.02779">
        <ele>1054.2</ele>
        <time>2019-12-12T11:46:29Z</time>
      </trkpt>
      <trkpt lat="43.78481" lon="7.02776">
        <ele>1053.7</ele>
        <time>2019-12-12T11:46:31Z</time>
      </trkpt>
      <trkpt lat="43.7848" lon="7.02773">
        <ele>1053.3</ele>
        <time>2019-12-12T11:46:33Z</time>
      </trkpt>
      <trkpt lat="43.78479" lon="7.0277">
        <ele>1053.3</ele>
        <time>2019-12-12T11:46:35Z</time>
      </trkpt>
      <trkpt lat="43.78476" lon="7.02766">
        <ele>1052.3</ele>
        <time>2019-12-12T11:46:37Z</time>
      </trkpt>
      <trkpt lat="43.78476" lon="7.02764">
        <ele>1051.8</ele>
        <time>2019-12-12T11:46:39Z</time>
      </trkpt>
      <trkpt lat="43.78475" lon="7.02761">
        <ele>1051.8</ele>
        <time>2019-12-12T11:46:41Z</time>
      </trkpt>
      <trkpt lat="43.78473" lon="7.02758">
        <ele>1051.3</ele>
        <time>2019-12-12T11:46:43Z</time>
      </trkpt>
      <trkpt lat="43.78472" lon="7.02756">
        <ele>1051.3</ele>
        <time>2019-12-12T11:46:45Z</time>
      </trkpt>
      <trkpt lat="43.78472" lon="7.02755">
        <ele>1051.3</ele>
        <time>2019-12-12T11:46:47Z</time>
      </trkpt>
      <trkpt lat="43.78472" lon="7.02753">
        <ele>1051.3</ele>
        <time>2019-12-12T11:46:49Z</time>
      </trkpt>
      <trkpt lat="43.78473" lon="7.02754">
        <ele>1050.9</ele>
        <time>2019-12-12T11:46:51Z</time>
      </trkpt>
      <trkpt lat="43.78473" lon="7.02753">
        <ele>1049.9</ele>
        <time>2019-12-12T11:46:53Z</time>
      </trkpt>
      <trkpt lat="43.78473" lon="7.02751">
        <ele>1049.9</ele>
        <time>2019-12-12T11:46:55Z</time>
      </trkpt>
      <trkpt lat="43.78473" lon="7.0275">
        <ele>1049.4</ele>
        <time>2019-12-12T11:46:57Z</time>
      </trkpt>
      <trkpt lat="43.78473" lon="7.02747">
        <ele>1048.9</ele>
        <time>2019-12-12T11:46:59Z</time>
      </trkpt>
      <trkpt lat="43.78473" lon="7.02745">
        <ele>1048.9</ele>
        <time>2019-12-12T11:47:01Z</time>
      </trkpt>
      <trkpt lat="43.78472" lon="7.02743">
        <ele>1048.5</ele>
        <time>2019-12-12T11:47:03Z</time>
      </trkpt>
      <trkpt lat="43.78471" lon="7.02741">
        <ele>1048</ele>
        <time>2019-12-12T11:47:05Z</time>
      </trkpt>
      <trkpt lat="43.7847" lon="7.02737">
        <ele>1047.5</ele>
        <time>2019-12-12T11:47:07Z</time>
      </trkpt>
      <trkpt lat="43.7847" lon="7.02734">
        <ele>1047.5</ele>
        <time>2019-12-12T11:47:09Z</time>
      </trkpt>
      <trkpt lat="43.78469" lon="7.02731">
        <ele>1047.5</ele>
        <time>2019-12-12T11:47:11Z</time>
      </trkpt>
      <trkpt lat="43.78469" lon="7.02728">
        <ele>1047.5</ele>
        <time>2019-12-12T11:47:13Z</time>
      </trkpt>
      <trkpt lat="43.78469" lon="7.02725">
        <ele>1047.5</ele>
        <time>2019-12-12T11:47:15Z</time>
      </trkpt>
      <trkpt lat="43.78468" lon="7.02723">
        <ele>1047</ele>
        <time>2019-12-12T11:47:17Z</time>
      </trkpt>
      <trkpt lat="43.78467" lon="7.02721">
        <ele>1047</ele>
        <time>2019-12-12T11:47:19Z</time>
      </trkpt>
      <trkpt lat="43.78467" lon="7.02718">
        <ele>1047</ele>
        <time>2019-12-12T11:47:21Z</time>
      </trkpt>
      <trkpt lat="43.78465" lon="7.02716">
        <ele>1046.5</ele>
        <time>2019-12-12T11:47:23Z</time>
      </trkpt>
      <trkpt lat="43.78463" lon="7.02713">
        <ele>1046.5</ele>
        <time>2019-12-12T11:47:25Z</time>
      </trkpt>
      <trkpt lat="43.78463" lon="7.0271">
        <ele>1046.5</ele>
        <time>2019-12-12T11:47:27Z</time>
      </trkpt>
      <trkpt lat="43.78463" lon="7.02707">
        <ele>1046.5</ele>
        <time>2019-12-12T11:47:29Z</time>
      </trkpt>
      <trkpt lat="43.78463" lon="7.02704">
        <ele>1046.5</ele>
        <time>2019-12-12T11:47:31Z</time>
      </trkpt>
      <trkpt lat="43.78463" lon="7.02701">
        <ele>1047</ele>
        <time>2019-12-12T11:47:33Z</time>
      </trkpt>
      <trkpt lat="43.78462" lon="7.02698">
        <ele>1046.5</ele>
        <time>2019-12-12T11:47:35Z</time>
      </trkpt>
      <trkpt lat="43.78463" lon="7.02696">
        <ele>1046.5</ele>
        <time>2019-12-12T11:47:37Z</time>
      </trkpt>
      <trkpt lat="43.78464" lon="7.02693">
        <ele>1046.5</ele>
        <time>2019-12-12T11:47:39Z</time>
      </trkpt>
      <trkpt lat="43.78464" lon="7.0269">
        <ele>1046.5</ele>
        <time>2019-12-12T11:47:41Z</time>
      </trkpt>
      <trkpt lat="43.78463" lon="7.02686">
        <ele>1046.5</ele>
        <time>2019-12-12T11:47:43Z</time>
      </trkpt>
      <trkpt lat="43.78463" lon="7.02683">
        <ele>1046.5</ele>
        <time>2019-12-12T11:47:45Z</time>
      </trkpt>
      <trkpt lat="43.78463" lon="7.02681">
        <ele>1046.5</ele>
        <time>2019-12-12T11:47:47Z</time>
      </trkpt>
      <trkpt lat="43.78463" lon="7.02677">
        <ele>1047</ele>
        <time>2019-12-12T11:47:49Z</time>
      </trkpt>
      <trkpt lat="43.78462" lon="7.02674">
        <ele>1047.5</ele>
        <time>2019-12-12T11:47:51Z</time>
      </trkpt>
      <trkpt lat="43.7846" lon="7.02671">
        <ele>1048</ele>
        <time>2019-12-12T11:47:53Z</time>
      </trkpt>
      <trkpt lat="43.78459" lon="7.02668">
        <ele>1048.5</ele>
        <time>2019-12-12T11:47:55Z</time>
      </trkpt>
      <trkpt lat="43.78458" lon="7.02665">
        <ele>1049.4</ele>
        <time>2019-12-12T11:47:57Z</time>
      </trkpt>
      <trkpt lat="43.78458" lon="7.02662">
        <ele>1050.4</ele>
        <time>2019-12-12T11:47:59Z</time>
      </trkpt>
      <trkpt lat="43.78456" lon="7.02659">
        <ele>1051.3</ele>
        <time>2019-12-12T11:48:01Z</time>
      </trkpt>
      <trkpt lat="43.78454" lon="7.02655">
        <ele>1052.3</ele>
        <time>2019-12-12T11:48:03Z</time>
      </trkpt>
      <trkpt lat="43.78453" lon="7.02652">
        <ele>1053.7</ele>
        <time>2019-12-12T11:48:05Z</time>
      </trkpt>
      <trkpt lat="43.78452" lon="7.0265">
        <ele>1054.7</ele>
        <time>2019-12-12T11:48:07Z</time>
      </trkpt>
      <trkpt lat="43.78449" lon="7.02648">
        <ele>1054.2</ele>
        <time>2019-12-12T11:48:09Z</time>
      </trkpt>
      <trkpt lat="43.78447" lon="7.02644">
        <ele>1053.7</ele>
        <time>2019-12-12T11:48:11Z</time>
      </trkpt>
      <trkpt lat="43.78446" lon="7.02641">
        <ele>1054.2</ele>
        <time>2019-12-12T11:48:13Z</time>
      </trkpt>
      <trkpt lat="43.78445" lon="7.02638">
        <ele>1054.7</ele>
        <time>2019-12-12T11:48:15Z</time>
      </trkpt>
      <trkpt lat="43.78444" lon="7.02635">
        <ele>1055.7</ele>
        <time>2019-12-12T11:48:17Z</time>
      </trkpt>
      <trkpt lat="43.78443" lon="7.02631">
        <ele>1056.6</ele>
        <time>2019-12-12T11:48:19Z</time>
      </trkpt>
      <trkpt lat="43.78442" lon="7.02628">
        <ele>1057.6</ele>
        <time>2019-12-12T11:48:21Z</time>
      </trkpt>
      <trkpt lat="43.78442" lon="7.02625">
        <ele>1058.5</ele>
        <time>2019-12-12T11:48:23Z</time>
      </trkpt>
      <trkpt lat="43.78442" lon="7.02621">
        <ele>1059.5</ele>
        <time>2019-12-12T11:48:25Z</time>
      </trkpt>
      <trkpt lat="43.78443" lon="7.02619">
        <ele>1060.5</ele>
        <time>2019-12-12T11:48:27Z</time>
      </trkpt>
      <trkpt lat="43.78442" lon="7.02616">
        <ele>1061.9</ele>
        <time>2019-12-12T11:48:29Z</time>
      </trkpt>
      <trkpt lat="43.78442" lon="7.02612">
        <ele>1062.9</ele>
        <time>2019-12-12T11:48:31Z</time>
      </trkpt>
      <trkpt lat="43.7844" lon="7.0261">
        <ele>1063.8</ele>
        <time>2019-12-12T11:48:33Z</time>
      </trkpt>
      <trkpt lat="43.78439" lon="7.02608">
        <ele>1064.8</ele>
        <time>2019-12-12T11:48:35Z</time>
      </trkpt>
      <trkpt lat="43.78438" lon="7.02605">
        <ele>1065.8</ele>
        <time>2019-12-12T11:48:37Z</time>
      </trkpt>
      <trkpt lat="43.78437" lon="7.02602">
        <ele>1066.7</ele>
        <time>2019-12-12T11:48:39Z</time>
      </trkpt>
      <trkpt lat="43.78436" lon="7.02598">
        <ele>1067.7</ele>
        <time>2019-12-12T11:48:41Z</time>
      </trkpt>
      <trkpt lat="43.78435" lon="7.02593">
        <ele>1068.6</ele>
        <time>2019-12-12T11:48:43Z</time>
      </trkpt>
      <trkpt lat="43.78434" lon="7.0259">
        <ele>1069.6</ele>
        <time>2019-12-12T11:48:45Z</time>
      </trkpt>
      <trkpt lat="43.78433" lon="7.02588">
        <ele>1071</ele>
        <time>2019-12-12T11:48:47Z</time>
      </trkpt>
      <trkpt lat="43.78433" lon="7.02585">
        <ele>1072.5</ele>
        <time>2019-12-12T11:48:49Z</time>
      </trkpt>
      <trkpt lat="43.78434" lon="7.02582">
        <ele>1073.9</ele>
        <time>2019-12-12T11:48:51Z</time>
      </trkpt>
      <trkpt lat="43.78434" lon="7.02579">
        <ele>1075.4</ele>
        <time>2019-12-12T11:48:53Z</time>
      </trkpt>
      <trkpt lat="43.78434" lon="7.02575">
        <ele>1076.8</ele>
        <time>2019-12-12T11:48:55Z</time>
      </trkpt>
      <trkpt lat="43.78432" lon="7.02572">
        <ele>1077.8</ele>
        <time>2019-12-12T11:48:57Z</time>
      </trkpt>
      <trkpt lat="43.78432" lon="7.02569">
        <ele>1078.7</ele>
        <time>2019-12-12T11:48:59Z</time>
      </trkpt>
      <trkpt lat="43.78432" lon="7.02567">
        <ele>1079.7</ele>
        <time>2019-12-12T11:49:01Z</time>
      </trkpt>
      <trkpt lat="43.78432" lon="7.02565">
        <ele>1080.7</ele>
        <time>2019-12-12T11:49:03Z</time>
      </trkpt>
      <trkpt lat="43.78431" lon="7.02563">
        <ele>1081.6</ele>
        <time>2019-12-12T11:49:05Z</time>
      </trkpt>
      <trkpt lat="43.7843" lon="7.02559">
        <ele>1081.1</ele>
        <time>2019-12-12T11:49:07Z</time>
      </trkpt>
      <trkpt lat="43.78429" lon="7.02556">
        <ele>1080.2</ele>
        <time>2019-12-12T11:49:09Z</time>
      </trkpt>
      <trkpt lat="43.78427" lon="7.02551">
        <ele>1079.7</ele>
        <time>2019-12-12T11:49:11Z</time>
      </trkpt>
      <trkpt lat="43.78424" lon="7.02546">
        <ele>1078.7</ele>
        <time>2019-12-12T11:49:13Z</time>
      </trkpt>
      <trkpt lat="43.78423" lon="7.02544">
        <ele>1078.7</ele>
        <time>2019-12-12T11:49:15Z</time>
      </trkpt>
      <trkpt lat="43.78423" lon="7.0254">
        <ele>1078.3</ele>
        <time>2019-12-12T11:49:17Z</time>
      </trkpt>
      <trkpt lat="43.78423" lon="7.02536">
        <ele>1077.3</ele>
        <time>2019-12-12T11:49:19Z</time>
      </trkpt>
      <trkpt lat="43.78424" lon="7.02533">
        <ele>1077.3</ele>
        <time>2019-12-12T11:49:21Z</time>
      </trkpt>
      <trkpt lat="43.78423" lon="7.0253">
        <ele>1076.8</ele>
        <time>2019-12-12T11:49:23Z</time>
      </trkpt>
      <trkpt lat="43.78423" lon="7.02529">
        <ele>1075.9</ele>
        <time>2019-12-12T11:49:25Z</time>
      </trkpt>
      <trkpt lat="43.78423" lon="7.02529">
        <ele>1074.9</ele>
        <time>2019-12-12T11:49:27Z</time>
      </trkpt>
      <trkpt lat="43.78423" lon="7.02529">
        <ele>1074.4</ele>
        <time>2019-12-12T11:49:29Z</time>
      </trkpt>
      <trkpt lat="43.78422" lon="7.02528">
        <ele>1073.9</ele>
        <time>2019-12-12T11:49:31Z</time>
      </trkpt>
      <trkpt lat="43.78422" lon="7.02527">
        <ele>1073.4</ele>
        <time>2019-12-12T11:49:33Z</time>
      </trkpt>
      <trkpt lat="43.78421" lon="7.02527">
        <ele>1073</ele>
        <time>2019-12-12T11:49:35Z</time>
      </trkpt>
      <trkpt lat="43.7842" lon="7.02526">
        <ele>1072</ele>
        <time>2019-12-12T11:49:37Z</time>
      </trkpt>
      <trkpt lat="43.7842" lon="7.02526">
        <ele>1071</ele>
        <time>2019-12-12T11:49:39Z</time>
      </trkpt>
      <trkpt lat="43.7842" lon="7.02526">
        <ele>1069.6</ele>
        <time>2019-12-12T11:49:41Z</time>
      </trkpt>
      <trkpt lat="43.7842" lon="7.02526">
        <ele>1070.1</ele>
        <time>2019-12-12T11:49:43Z</time>
      </trkpt>
      <trkpt lat="43.7842" lon="7.02526">
        <ele>1070.1</ele>
        <time>2019-12-12T11:49:45Z</time>
      </trkpt>
      <trkpt lat="43.7842" lon="7.02525">
        <ele>1070.1</ele>
        <time>2019-12-12T11:49:47Z</time>
      </trkpt>
      <trkpt lat="43.7842" lon="7.02525">
        <ele>1070.1</ele>
        <time>2019-12-12T11:49:49Z</time>
      </trkpt>
      <trkpt lat="43.7842" lon="7.02525">
        <ele>1070.1</ele>
        <time>2019-12-12T11:49:51Z</time>
      </trkpt>
      <trkpt lat="43.7842" lon="7.02524">
        <ele>1070.1</ele>
        <time>2019-12-12T11:49:53Z</time>
      </trkpt>
      <trkpt lat="43.78419" lon="7.02524">
        <ele>1069.6</ele>
        <time>2019-12-12T11:49:55Z</time>
      </trkpt>
      <trkpt lat="43.78419" lon="7.02523">
        <ele>1069.1</ele>
        <time>2019-12-12T11:49:57Z</time>
      </trkpt>
      <trkpt lat="43.78418" lon="7.02522">
        <ele>1069.1</ele>
        <time>2019-12-12T11:49:59Z</time>
      </trkpt>
      <trkpt lat="43.78418" lon="7.02522">
        <ele>1068.6</ele>
        <time>2019-12-12T11:50:01Z</time>
      </trkpt>
      <trkpt lat="43.78419" lon="7.02521">
        <ele>1068.2</ele>
        <time>2019-12-12T11:50:03Z</time>
      </trkpt>
      <trkpt lat="43.78418" lon="7.02521">
        <ele>1068.2</ele>
        <time>2019-12-12T11:50:05Z</time>
      </trkpt>
      <trkpt lat="43.78419" lon="7.0252">
        <ele>1068.2</ele>
        <time>2019-12-12T11:50:07Z</time>
      </trkpt>
      <trkpt lat="43.78418" lon="7.02517">
        <ele>1067.7</ele>
        <time>2019-12-12T11:50:09Z</time>
      </trkpt>
      <trkpt lat="43.78419" lon="7.02515">
        <ele>1067.7</ele>
        <time>2019-12-12T11:50:11Z</time>
      </trkpt>
      <trkpt lat="43.78419" lon="7.02511">
        <ele>1067.2</ele>
        <time>2019-12-12T11:50:13Z</time>
      </trkpt>
      <trkpt lat="43.78418" lon="7.02509">
        <ele>1066.7</ele>
        <time>2019-12-12T11:50:15Z</time>
      </trkpt>
      <trkpt lat="43.78416" lon="7.02506">
        <ele>1066.7</ele>
        <time>2019-12-12T11:50:17Z</time>
      </trkpt>
      <trkpt lat="43.78414" lon="7.02503">
        <ele>1066.2</ele>
        <time>2019-12-12T11:50:19Z</time>
      </trkpt>
      <trkpt lat="43.78413" lon="7.025">
        <ele>1066.2</ele>
        <time>2019-12-12T11:50:21Z</time>
      </trkpt>
      <trkpt lat="43.78413" lon="7.02499">
        <ele>1065.3</ele>
        <time>2019-12-12T11:50:23Z</time>
      </trkpt>
      <trkpt lat="43.78412" lon="7.02499">
        <ele>1064.8</ele>
        <time>2019-12-12T11:50:25Z</time>
      </trkpt>
      <trkpt lat="43.78412" lon="7.02497">
        <ele>1064.3</ele>
        <time>2019-12-12T11:50:27Z</time>
      </trkpt>
      <trkpt lat="43.78412" lon="7.02497">
        <ele>1064.3</ele>
        <time>2019-12-12T11:50:29Z</time>
      </trkpt>
      <trkpt lat="43.78412" lon="7.02496">
        <ele>1064.3</ele>
        <time>2019-12-12T11:50:31Z</time>
      </trkpt>
      <trkpt lat="43.78411" lon="7.02495">
        <ele>1063.8</ele>
        <time>2019-12-12T11:50:33Z</time>
      </trkpt>
      <trkpt lat="43.7841" lon="7.02492">
        <ele>1063.8</ele>
        <time>2019-12-12T11:50:35Z</time>
      </trkpt>
      <trkpt lat="43.78409" lon="7.0249">
        <ele>1063.4</ele>
        <time>2019-12-12T11:50:37Z</time>
      </trkpt>
      <trkpt lat="43.78407" lon="7.02486">
        <ele>1062.9</ele>
        <time>2019-12-12T11:50:39Z</time>
      </trkpt>
      <trkpt lat="43.78406" lon="7.02483">
        <ele>1062.4</ele>
        <time>2019-12-12T11:50:41Z</time>
      </trkpt>
      <trkpt lat="43.78405" lon="7.0248">
        <ele>1061.9</ele>
        <time>2019-12-12T11:50:43Z</time>
      </trkpt>
      <trkpt lat="43.78403" lon="7.02477">
        <ele>1061.4</ele>
        <time>2019-12-12T11:50:45Z</time>
      </trkpt>
      <trkpt lat="43.78402" lon="7.02472">
        <ele>1060.5</ele>
        <time>2019-12-12T11:50:47Z</time>
      </trkpt>
      <trkpt lat="43.78401" lon="7.02469">
        <ele>1060</ele>
        <time>2019-12-12T11:50:49Z</time>
      </trkpt>
      <trkpt lat="43.784" lon="7.02465">
        <ele>1059.5</ele>
        <time>2019-12-12T11:50:51Z</time>
      </trkpt>
      <trkpt lat="43.784" lon="7.02461">
        <ele>1059</ele>
        <time>2019-12-12T11:50:53Z</time>
      </trkpt>
      <trkpt lat="43.784" lon="7.02457">
        <ele>1058.1</ele>
        <time>2019-12-12T11:50:55Z</time>
      </trkpt>
      <trkpt lat="43.784" lon="7.02454">
        <ele>1057.6</ele>
        <time>2019-12-12T11:50:57Z</time>
      </trkpt>
      <trkpt lat="43.78399" lon="7.02449">
        <ele>1056.6</ele>
        <time>2019-12-12T11:50:59Z</time>
      </trkpt>
      <trkpt lat="43.78399" lon="7.02444">
        <ele>1055.7</ele>
        <time>2019-12-12T11:51:01Z</time>
      </trkpt>
      <trkpt lat="43.784" lon="7.02439">
        <ele>1054.7</ele>
        <time>2019-12-12T11:51:03Z</time>
      </trkpt>
      <trkpt lat="43.784" lon="7.02435">
        <ele>1054.2</ele>
        <time>2019-12-12T11:51:05Z</time>
      </trkpt>
      <trkpt lat="43.784" lon="7.02429">
        <ele>1053.3</ele>
        <time>2019-12-12T11:51:07Z</time>
      </trkpt>
      <trkpt lat="43.784" lon="7.02423">
        <ele>1052.3</ele>
        <time>2019-12-12T11:51:09Z</time>
      </trkpt>
      <trkpt lat="43.784" lon="7.02417">
        <ele>1050.9</ele>
        <time>2019-12-12T11:51:11Z</time>
      </trkpt>
      <trkpt lat="43.78399" lon="7.0241">
        <ele>1049.9</ele>
        <time>2019-12-12T11:51:13Z</time>
      </trkpt>
      <trkpt lat="43.78397" lon="7.02403">
        <ele>1048.5</ele>
        <time>2019-12-12T11:51:15Z</time>
      </trkpt>
      <trkpt lat="43.78395" lon="7.02398">
        <ele>1048</ele>
        <time>2019-12-12T11:51:17Z</time>
      </trkpt>
      <trkpt lat="43.78394" lon="7.02393">
        <ele>1047</ele>
        <time>2019-12-12T11:51:19Z</time>
      </trkpt>
      <trkpt lat="43.78393" lon="7.02388">
        <ele>1046.1</ele>
        <time>2019-12-12T11:51:21Z</time>
      </trkpt>
      <trkpt lat="43.78392" lon="7.02383">
        <ele>1045.1</ele>
        <time>2019-12-12T11:51:23Z</time>
      </trkpt>
      <trkpt lat="43.78391" lon="7.02378">
        <ele>1044.1</ele>
        <time>2019-12-12T11:51:25Z</time>
      </trkpt>
      <trkpt lat="43.78391" lon="7.02372">
        <ele>1043.6</ele>
        <time>2019-12-12T11:51:27Z</time>
      </trkpt>
      <trkpt lat="43.78391" lon="7.02366">
        <ele>1043.6</ele>
        <time>2019-12-12T11:51:29Z</time>
      </trkpt>
      <trkpt lat="43.78392" lon="7.02361">
        <ele>1043.2</ele>
        <time>2019-12-12T11:51:31Z</time>
      </trkpt>
      <trkpt lat="43.78393" lon="7.02355">
        <ele>1043.6</ele>
        <time>2019-12-12T11:51:33Z</time>
      </trkpt>
      <trkpt lat="43.78393" lon="7.0235">
        <ele>1043.6</ele>
        <time>2019-12-12T11:51:35Z</time>
      </trkpt>
      <trkpt lat="43.78392" lon="7.02344">
        <ele>1043.6</ele>
        <time>2019-12-12T11:51:37Z</time>
      </trkpt>
      <trkpt lat="43.7839" lon="7.02338">
        <ele>1043.2</ele>
        <time>2019-12-12T11:51:39Z</time>
      </trkpt>
      <trkpt lat="43.7839" lon="7.0233">
        <ele>1044.6</ele>
        <time>2019-12-12T11:51:41Z</time>
      </trkpt>
      <trkpt lat="43.7839" lon="7.02323">
        <ele>1045.6</ele>
        <time>2019-12-12T11:51:43Z</time>
      </trkpt>
      <trkpt lat="43.78389" lon="7.02315">
        <ele>1045.6</ele>
        <time>2019-12-12T11:51:45Z</time>
      </trkpt>
      <trkpt lat="43.78387" lon="7.0231">
        <ele>1046.5</ele>
        <time>2019-12-12T11:51:47Z</time>
      </trkpt>
      <trkpt lat="43.78383" lon="7.02306">
        <ele>1047.5</ele>
        <time>2019-12-12T11:51:49Z</time>
      </trkpt>
      <trkpt lat="43.7838" lon="7.02301">
        <ele>1048.5</ele>
        <time>2019-12-12T11:51:51Z</time>
      </trkpt>
      <trkpt lat="43.78379" lon="7.02297">
        <ele>1048.9</ele>
        <time>2019-12-12T11:51:53Z</time>
      </trkpt>
      <trkpt lat="43.78377" lon="7.02292">
        <ele>1049.4</ele>
        <time>2019-12-12T11:51:55Z</time>
      </trkpt>
      <trkpt lat="43.78376" lon="7.02286">
        <ele>1050.4</ele>
        <time>2019-12-12T11:51:57Z</time>
      </trkpt>
      <trkpt lat="43.78376" lon="7.02282">
        <ele>1049.9</ele>
        <time>2019-12-12T11:51:59Z</time>
      </trkpt>
      <trkpt lat="43.78375" lon="7.02278">
        <ele>1050.4</ele>
        <time>2019-12-12T11:52:01Z</time>
      </trkpt>
      <trkpt lat="43.78375" lon="7.02275">
        <ele>1050.9</ele>
        <time>2019-12-12T11:52:03Z</time>
      </trkpt>
      <trkpt lat="43.78375" lon="7.02271">
        <ele>1050.9</ele>
        <time>2019-12-12T11:52:05Z</time>
      </trkpt>
      <trkpt lat="43.78374" lon="7.02267">
        <ele>1050.9</ele>
        <time>2019-12-12T11:52:07Z</time>
      </trkpt>
      <trkpt lat="43.78374" lon="7.02263">
        <ele>1051.3</ele>
        <time>2019-12-12T11:52:09Z</time>
      </trkpt>
      <trkpt lat="43.78372" lon="7.0226">
        <ele>1051.8</ele>
        <time>2019-12-12T11:52:11Z</time>
      </trkpt>
      <trkpt lat="43.7837" lon="7.02257">
        <ele>1052.3</ele>
        <time>2019-12-12T11:52:13Z</time>
      </trkpt>
      <trkpt lat="43.78368" lon="7.02253">
        <ele>1052.3</ele>
        <time>2019-12-12T11:52:15Z</time>
      </trkpt>
      <trkpt lat="43.78365" lon="7.02251">
        <ele>1052.8</ele>
        <time>2019-12-12T11:52:17Z</time>
      </trkpt>
      <trkpt lat="43.78363" lon="7.02249">
        <ele>1052.8</ele>
        <time>2019-12-12T11:52:19Z</time>
      </trkpt>
      <trkpt lat="43.78361" lon="7.02246">
        <ele>1053.3</ele>
        <time>2019-12-12T11:52:21Z</time>
      </trkpt>
      <trkpt lat="43.78358" lon="7.02243">
        <ele>1053.7</ele>
        <time>2019-12-12T11:52:23Z</time>
      </trkpt>
      <trkpt lat="43.78356" lon="7.0224">
        <ele>1054.2</ele>
        <time>2019-12-12T11:52:25Z</time>
      </trkpt>
      <trkpt lat="43.78354" lon="7.02237">
        <ele>1054.2</ele>
        <time>2019-12-12T11:52:27Z</time>
      </trkpt>
      <trkpt lat="43.78352" lon="7.02233">
        <ele>1054.2</ele>
        <time>2019-12-12T11:52:29Z</time>
      </trkpt>
      <trkpt lat="43.78349" lon="7.0223">
        <ele>1054.2</ele>
        <time>2019-12-12T11:52:31Z</time>
      </trkpt>
      <trkpt lat="43.78347" lon="7.02227">
        <ele>1054.2</ele>
        <time>2019-12-12T11:52:33Z</time>
      </trkpt>
      <trkpt lat="43.78344" lon="7.02225">
        <ele>1054.7</ele>
        <time>2019-12-12T11:52:35Z</time>
      </trkpt>
      <trkpt lat="43.78342" lon="7.02224">
        <ele>1054.2</ele>
        <time>2019-12-12T11:52:37Z</time>
      </trkpt>
      <trkpt lat="43.7834" lon="7.02222">
        <ele>1054.2</ele>
        <time>2019-12-12T11:52:39Z</time>
      </trkpt>
      <trkpt lat="43.78338" lon="7.0222">
        <ele>1053.7</ele>
        <time>2019-12-12T11:52:41Z</time>
      </trkpt>
      <trkpt lat="43.78335" lon="7.02218">
        <ele>1054.2</ele>
        <time>2019-12-12T11:52:43Z</time>
      </trkpt>
      <trkpt lat="43.78332" lon="7.02215">
        <ele>1054.2</ele>
        <time>2019-12-12T11:52:45Z</time>
      </trkpt>
      <trkpt lat="43.7833" lon="7.02211">
        <ele>1053.7</ele>
        <time>2019-12-12T11:52:47Z</time>
      </trkpt>
      <trkpt lat="43.78328" lon="7.02206">
        <ele>1053.7</ele>
        <time>2019-12-12T11:52:49Z</time>
      </trkpt>
      <trkpt lat="43.78327" lon="7.02203">
        <ele>1053.7</ele>
        <time>2019-12-12T11:52:51Z</time>
      </trkpt>
      <trkpt lat="43.78325" lon="7.022">
        <ele>1053.7</ele>
        <time>2019-12-12T11:52:53Z</time>
      </trkpt>
      <trkpt lat="43.78323" lon="7.02197">
        <ele>1053.7</ele>
        <time>2019-12-12T11:52:55Z</time>
      </trkpt>
      <trkpt lat="43.78321" lon="7.02195">
        <ele>1053.7</ele>
        <time>2019-12-12T11:52:57Z</time>
      </trkpt>
      <trkpt lat="43.78318" lon="7.02192">
        <ele>1053.7</ele>
        <time>2019-12-12T11:52:59Z</time>
      </trkpt>
      <trkpt lat="43.78316" lon="7.0219">
        <ele>1054.2</ele>
        <time>2019-12-12T11:53:01Z</time>
      </trkpt>
      <trkpt lat="43.78313" lon="7.02186">
        <ele>1054.2</ele>
        <time>2019-12-12T11:53:03Z</time>
      </trkpt>
      <trkpt lat="43.7831" lon="7.02182">
        <ele>1054.7</ele>
        <time>2019-12-12T11:53:05Z</time>
      </trkpt>
      <trkpt lat="43.78308" lon="7.02179">
        <ele>1054.7</ele>
        <time>2019-12-12T11:53:07Z</time>
      </trkpt>
      <trkpt lat="43.78306" lon="7.02176">
        <ele>1054.7</ele>
        <time>2019-12-12T11:53:09Z</time>
      </trkpt>
      <trkpt lat="43.78305" lon="7.02173">
        <ele>1054.2</ele>
        <time>2019-12-12T11:53:11Z</time>
      </trkpt>
      <trkpt lat="43.78303" lon="7.02168">
        <ele>1053.7</ele>
        <time>2019-12-12T11:53:13Z</time>
      </trkpt>
      <trkpt lat="43.783" lon="7.02163">
        <ele>1053.7</ele>
        <time>2019-12-12T11:53:15Z</time>
      </trkpt>
      <trkpt lat="43.78297" lon="7.02157">
        <ele>1053.3</ele>
        <time>2019-12-12T11:53:17Z</time>
      </trkpt>
      <trkpt lat="43.78295" lon="7.02147">
        <ele>1053.7</ele>
        <time>2019-12-12T11:53:19Z</time>
      </trkpt>
      <trkpt lat="43.78294" lon="7.0214">
        <ele>1053.3</ele>
        <time>2019-12-12T11:53:21Z</time>
      </trkpt>
      <trkpt lat="43.78293" lon="7.02133">
        <ele>1053.7</ele>
        <time>2019-12-12T11:53:23Z</time>
      </trkpt>
      <trkpt lat="43.78293" lon="7.02128">
        <ele>1053.3</ele>
        <time>2019-12-12T11:53:25Z</time>
      </trkpt>
      <trkpt lat="43.78293" lon="7.02125">
        <ele>1053.3</ele>
        <time>2019-12-12T11:53:27Z</time>
      </trkpt>
      <trkpt lat="43.78292" lon="7.0212">
        <ele>1053.3</ele>
        <time>2019-12-12T11:53:29Z</time>
      </trkpt>
      <trkpt lat="43.7829" lon="7.02116">
        <ele>1053.7</ele>
        <time>2019-12-12T11:53:31Z</time>
      </trkpt>
      <trkpt lat="43.78287" lon="7.02111">
        <ele>1054.2</ele>
        <time>2019-12-12T11:53:33Z</time>
      </trkpt>
      <trkpt lat="43.78285" lon="7.02106">
        <ele>1054.7</ele>
        <time>2019-12-12T11:53:35Z</time>
      </trkpt>
      <trkpt lat="43.78281" lon="7.02104">
        <ele>1054.7</ele>
        <time>2019-12-12T11:53:37Z</time>
      </trkpt>
      <trkpt lat="43.78279" lon="7.021">
        <ele>1054.7</ele>
        <time>2019-12-12T11:53:39Z</time>
      </trkpt>
      <trkpt lat="43.78275" lon="7.02097">
        <ele>1055.2</ele>
        <time>2019-12-12T11:53:41Z</time>
      </trkpt>
      <trkpt lat="43.78271" lon="7.02094">
        <ele>1056.1</ele>
        <time>2019-12-12T11:53:43Z</time>
      </trkpt>
      <trkpt lat="43.78268" lon="7.0209">
        <ele>1056.1</ele>
        <time>2019-12-12T11:53:45Z</time>
      </trkpt>
      <trkpt lat="43.78267" lon="7.02087">
        <ele>1056.6</ele>
        <time>2019-12-12T11:53:47Z</time>
      </trkpt>
      <trkpt lat="43.78265" lon="7.02081">
        <ele>1056.6</ele>
        <time>2019-12-12T11:53:49Z</time>
      </trkpt>
      <trkpt lat="43.78262" lon="7.02076">
        <ele>1057.1</ele>
        <time>2019-12-12T11:53:51Z</time>
      </trkpt>
      <trkpt lat="43.7826" lon="7.02072">
        <ele>1057.6</ele>
        <time>2019-12-12T11:53:53Z</time>
      </trkpt>
      <trkpt lat="43.78257" lon="7.02069">
        <ele>1058.1</ele>
        <time>2019-12-12T11:53:55Z</time>
      </trkpt>
      <trkpt lat="43.78255" lon="7.02066">
        <ele>1058.5</ele>
        <time>2019-12-12T11:53:57Z</time>
      </trkpt>
      <trkpt lat="43.78252" lon="7.02059">
        <ele>1059</ele>
        <time>2019-12-12T11:53:59Z</time>
      </trkpt>
      <trkpt lat="43.78248" lon="7.02054">
        <ele>1059.5</ele>
        <time>2019-12-12T11:54:01Z</time>
      </trkpt>
      <trkpt lat="43.78246" lon="7.0205">
        <ele>1059.5</ele>
        <time>2019-12-12T11:54:03Z</time>
      </trkpt>
      <trkpt lat="43.78246" lon="7.02045">
        <ele>1059.5</ele>
        <time>2019-12-12T11:54:05Z</time>
      </trkpt>
      <trkpt lat="43.78246" lon="7.0204">
        <ele>1059</ele>
        <time>2019-12-12T11:54:07Z</time>
      </trkpt>
      <trkpt lat="43.78247" lon="7.02034">
        <ele>1059.5</ele>
        <time>2019-12-12T11:54:09Z</time>
      </trkpt>
      <trkpt lat="43.78247" lon="7.02029">
        <ele>1060</ele>
        <time>2019-12-12T11:54:11Z</time>
      </trkpt>
      <trkpt lat="43.78246" lon="7.02023">
        <ele>1060.5</ele>
        <time>2019-12-12T11:54:13Z</time>
      </trkpt>
      <trkpt lat="43.78245" lon="7.02016">
        <ele>1060.5</ele>
        <time>2019-12-12T11:54:15Z</time>
      </trkpt>
      <trkpt lat="43.78245" lon="7.02009">
        <ele>1060.5</ele>
        <time>2019-12-12T11:54:17Z</time>
      </trkpt>
      <trkpt lat="43.78245" lon="7.02001">
        <ele>1060.5</ele>
        <time>2019-12-12T11:54:19Z</time>
      </trkpt>
      <trkpt lat="43.78245" lon="7.01994">
        <ele>1060</ele>
        <time>2019-12-12T11:54:21Z</time>
      </trkpt>
      <trkpt lat="43.78243" lon="7.01988">
        <ele>1059.5</ele>
        <time>2019-12-12T11:54:23Z</time>
      </trkpt>
      <trkpt lat="43.78239" lon="7.01984">
        <ele>1059</ele>
        <time>2019-12-12T11:54:25Z</time>
      </trkpt>
      <trkpt lat="43.78235" lon="7.0198">
        <ele>1059</ele>
        <time>2019-12-12T11:54:27Z</time>
      </trkpt>
      <trkpt lat="43.78234" lon="7.01977">
        <ele>1059</ele>
        <time>2019-12-12T11:54:29Z</time>
      </trkpt>
      <trkpt lat="43.78234" lon="7.01976">
        <ele>1059</ele>
        <time>2019-12-12T11:54:31Z</time>
      </trkpt>
      <trkpt lat="43.78232" lon="7.01976">
        <ele>1058.5</ele>
        <time>2019-12-12T11:54:33Z</time>
      </trkpt>
      <trkpt lat="43.78231" lon="7.01974">
        <ele>1058.5</ele>
        <time>2019-12-12T11:54:35Z</time>
      </trkpt>
      <trkpt lat="43.78229" lon="7.01971">
        <ele>1059</ele>
        <time>2019-12-12T11:54:37Z</time>
      </trkpt>
      <trkpt lat="43.78226" lon="7.01967">
        <ele>1059.5</ele>
        <time>2019-12-12T11:54:39Z</time>
      </trkpt>
      <trkpt lat="43.78223" lon="7.01963">
        <ele>1059.5</ele>
        <time>2019-12-12T11:54:41Z</time>
      </trkpt>
      <trkpt lat="43.7822" lon="7.01959">
        <ele>1060</ele>
        <time>2019-12-12T11:54:43Z</time>
      </trkpt>
      <trkpt lat="43.78217" lon="7.01954">
        <ele>1060.5</ele>
        <time>2019-12-12T11:54:45Z</time>
      </trkpt>
      <trkpt lat="43.78214" lon="7.01949">
        <ele>1061</ele>
        <time>2019-12-12T11:54:47Z</time>
      </trkpt>
      <trkpt lat="43.78212" lon="7.01945">
        <ele>1061</ele>
        <time>2019-12-12T11:54:49Z</time>
      </trkpt>
      <trkpt lat="43.78209" lon="7.0194">
        <ele>1061</ele>
        <time>2019-12-12T11:54:51Z</time>
      </trkpt>
      <trkpt lat="43.78207" lon="7.01936">
        <ele>1060.5</ele>
        <time>2019-12-12T11:54:53Z</time>
      </trkpt>
      <trkpt lat="43.78205" lon="7.0193">
        <ele>1060.5</ele>
        <time>2019-12-12T11:54:55Z</time>
      </trkpt>
      <trkpt lat="43.78203" lon="7.01924">
        <ele>1060.5</ele>
        <time>2019-12-12T11:54:57Z</time>
      </trkpt>
      <trkpt lat="43.78201" lon="7.01919">
        <ele>1060</ele>
        <time>2019-12-12T11:54:59Z</time>
      </trkpt>
      <trkpt lat="43.78199" lon="7.01914">
        <ele>1059.5</ele>
        <time>2019-12-12T11:55:01Z</time>
      </trkpt>
      <trkpt lat="43.78196" lon="7.01908">
        <ele>1059</ele>
        <time>2019-12-12T11:55:03Z</time>
      </trkpt>
      <trkpt lat="43.78193" lon="7.01903">
        <ele>1058.5</ele>
        <time>2019-12-12T11:55:05Z</time>
      </trkpt>
      <trkpt lat="43.78192" lon="7.01899">
        <ele>1058.1</ele>
        <time>2019-12-12T11:55:07Z</time>
      </trkpt>
      <trkpt lat="43.78192" lon="7.01895">
        <ele>1057.6</ele>
        <time>2019-12-12T11:55:09Z</time>
      </trkpt>
      <trkpt lat="43.78191" lon="7.0189">
        <ele>1056.6</ele>
        <time>2019-12-12T11:55:11Z</time>
      </trkpt>
      <trkpt lat="43.7819" lon="7.01885">
        <ele>1056.1</ele>
        <time>2019-12-12T11:55:13Z</time>
      </trkpt>
      <trkpt lat="43.78189" lon="7.01881">
        <ele>1055.7</ele>
        <time>2019-12-12T11:55:15Z</time>
      </trkpt>
      <trkpt lat="43.78188" lon="7.01875">
        <ele>1054.7</ele>
        <time>2019-12-12T11:55:17Z</time>
      </trkpt>
      <trkpt lat="43.78188" lon="7.01869">
        <ele>1054.7</ele>
        <time>2019-12-12T11:55:19Z</time>
      </trkpt>
      <trkpt lat="43.78187" lon="7.01864">
        <ele>1054.2</ele>
        <time>2019-12-12T11:55:21Z</time>
      </trkpt>
      <trkpt lat="43.78185" lon="7.01859">
        <ele>1054.7</ele>
        <time>2019-12-12T11:55:23Z</time>
      </trkpt>
      <trkpt lat="43.78184" lon="7.01856">
        <ele>1054.7</ele>
        <time>2019-12-12T11:55:25Z</time>
      </trkpt>
      <trkpt lat="43.78181" lon="7.01852">
        <ele>1054.7</ele>
        <time>2019-12-12T11:55:27Z</time>
      </trkpt>
      <trkpt lat="43.78178" lon="7.01847">
        <ele>1055.7</ele>
        <time>2019-12-12T11:55:29Z</time>
      </trkpt>
      <trkpt lat="43.78175" lon="7.01844">
        <ele>1056.1</ele>
        <time>2019-12-12T11:55:31Z</time>
      </trkpt>
      <trkpt lat="43.78173" lon="7.0184">
        <ele>1056.6</ele>
        <time>2019-12-12T11:55:33Z</time>
      </trkpt>
      <trkpt lat="43.78171" lon="7.01836">
        <ele>1057.1</ele>
        <time>2019-12-12T11:55:35Z</time>
      </trkpt>
      <trkpt lat="43.78168" lon="7.01831">
        <ele>1057.6</ele>
        <time>2019-12-12T11:55:37Z</time>
      </trkpt>
      <trkpt lat="43.78165" lon="7.01826">
        <ele>1058.5</ele>
        <time>2019-12-12T11:55:39Z</time>
      </trkpt>
      <trkpt lat="43.78163" lon="7.01822">
        <ele>1059</ele>
        <time>2019-12-12T11:55:41Z</time>
      </trkpt>
      <trkpt lat="43.7816" lon="7.01818">
        <ele>1059</ele>
        <time>2019-12-12T11:55:43Z</time>
      </trkpt>
      <trkpt lat="43.78159" lon="7.01813">
        <ele>1059</ele>
        <time>2019-12-12T11:55:45Z</time>
      </trkpt>
      <trkpt lat="43.78158" lon="7.01808">
        <ele>1059</ele>
        <time>2019-12-12T11:55:47Z</time>
      </trkpt>
      <trkpt lat="43.78156" lon="7.01803">
        <ele>1059.5</ele>
        <time>2019-12-12T11:55:49Z</time>
      </trkpt>
      <trkpt lat="43.78153" lon="7.01798">
        <ele>1059.5</ele>
        <time>2019-12-12T11:55:51Z</time>
      </trkpt>
      <trkpt lat="43.78151" lon="7.01794">
        <ele>1059.5</ele>
        <time>2019-12-12T11:55:53Z</time>
      </trkpt>
      <trkpt lat="43.7815" lon="7.0179">
        <ele>1060</ele>
        <time>2019-12-12T11:55:55Z</time>
      </trkpt>
      <trkpt lat="43.78148" lon="7.01785">
        <ele>1060</ele>
        <time>2019-12-12T11:55:57Z</time>
      </trkpt>
      <trkpt lat="43.78145" lon="7.01781">
        <ele>1060</ele>
        <time>2019-12-12T11:55:59Z</time>
      </trkpt>
      <trkpt lat="43.78144" lon="7.01778">
        <ele>1060</ele>
        <time>2019-12-12T11:56:01Z</time>
      </trkpt>
      <trkpt lat="43.78142" lon="7.01775">
        <ele>1060</ele>
        <time>2019-12-12T11:56:03Z</time>
      </trkpt>
      <trkpt lat="43.7814" lon="7.01772">
        <ele>1059.5</ele>
        <time>2019-12-12T11:56:05Z</time>
      </trkpt>
      <trkpt lat="43.78139" lon="7.01768">
        <ele>1059.5</ele>
        <time>2019-12-12T11:56:07Z</time>
      </trkpt>
      <trkpt lat="43.78138" lon="7.01764">
        <ele>1059</ele>
        <time>2019-12-12T11:56:09Z</time>
      </trkpt>
      <trkpt lat="43.78137" lon="7.01759">
        <ele>1058.5</ele>
        <time>2019-12-12T11:56:11Z</time>
      </trkpt>
      <trkpt lat="43.78135" lon="7.01752">
        <ele>1058.1</ele>
        <time>2019-12-12T11:56:13Z</time>
      </trkpt>
      <trkpt lat="43.78134" lon="7.01746">
        <ele>1057.6</ele>
        <time>2019-12-12T11:56:15Z</time>
      </trkpt>
      <trkpt lat="43.78133" lon="7.01741">
        <ele>1057.6</ele>
        <time>2019-12-12T11:56:17Z</time>
      </trkpt>
      <trkpt lat="43.78132" lon="7.01735">
        <ele>1057.6</ele>
        <time>2019-12-12T11:56:19Z</time>
      </trkpt>
      <trkpt lat="43.78131" lon="7.0173">
        <ele>1057.1</ele>
        <time>2019-12-12T11:56:21Z</time>
      </trkpt>
      <trkpt lat="43.78129" lon="7.01725">
        <ele>1057.1</ele>
        <time>2019-12-12T11:56:23Z</time>
      </trkpt>
      <trkpt lat="43.78129" lon="7.01723">
        <ele>1056.6</ele>
        <time>2019-12-12T11:56:25Z</time>
      </trkpt>
      <trkpt lat="43.78129" lon="7.0172">
        <ele>1056.1</ele>
        <time>2019-12-12T11:56:27Z</time>
      </trkpt>
      <trkpt lat="43.7813" lon="7.01715">
        <ele>1055.7</ele>
        <time>2019-12-12T11:56:29Z</time>
      </trkpt>
      <trkpt lat="43.78131" lon="7.0171">
        <ele>1055.2</ele>
        <time>2019-12-12T11:56:31Z</time>
      </trkpt>
      <trkpt lat="43.7813" lon="7.01705">
        <ele>1054.7</ele>
        <time>2019-12-12T11:56:33Z</time>
      </trkpt>
      <trkpt lat="43.7813" lon="7.017">
        <ele>1053.7</ele>
        <time>2019-12-12T11:56:35Z</time>
      </trkpt>
      <trkpt lat="43.78128" lon="7.01695">
        <ele>1052.8</ele>
        <time>2019-12-12T11:56:37Z</time>
      </trkpt>
      <trkpt lat="43.78126" lon="7.01689">
        <ele>1052.3</ele>
        <time>2019-12-12T11:56:39Z</time>
      </trkpt>
      <trkpt lat="43.78123" lon="7.01684">
        <ele>1051.8</ele>
        <time>2019-12-12T11:56:41Z</time>
      </trkpt>
      <trkpt lat="43.7812" lon="7.01679">
        <ele>1051.3</ele>
        <time>2019-12-12T11:56:43Z</time>
      </trkpt>
      <trkpt lat="43.78118" lon="7.01674">
        <ele>1051.3</ele>
        <time>2019-12-12T11:56:45Z</time>
      </trkpt>
      <trkpt lat="43.78116" lon="7.01669">
        <ele>1051.3</ele>
        <time>2019-12-12T11:56:47Z</time>
      </trkpt>
      <trkpt lat="43.78112" lon="7.01664">
        <ele>1051.3</ele>
        <time>2019-12-12T11:56:49Z</time>
      </trkpt>
      <trkpt lat="43.78109" lon="7.01659">
        <ele>1050.4</ele>
        <time>2019-12-12T11:56:51Z</time>
      </trkpt>
      <trkpt lat="43.78106" lon="7.01655">
        <ele>1049.4</ele>
        <time>2019-12-12T11:56:53Z</time>
      </trkpt>
      <trkpt lat="43.78103" lon="7.01649">
        <ele>1048.9</ele>
        <time>2019-12-12T11:56:55Z</time>
      </trkpt>
      <trkpt lat="43.78102" lon="7.01644">
        <ele>1048</ele>
        <time>2019-12-12T11:56:57Z</time>
      </trkpt>
      <trkpt lat="43.78099" lon="7.01638">
        <ele>1047</ele>
        <time>2019-12-12T11:56:59Z</time>
      </trkpt>
      <trkpt lat="43.78096" lon="7.0163">
        <ele>1047</ele>
        <time>2019-12-12T11:57:01Z</time>
      </trkpt>
      <trkpt lat="43.78093" lon="7.01622">
        <ele>1046.5</ele>
        <time>2019-12-12T11:57:03Z</time>
      </trkpt>
      <trkpt lat="43.78091" lon="7.01615">
        <ele>1045.6</ele>
        <time>2019-12-12T11:57:05Z</time>
      </trkpt>
      <trkpt lat="43.78089" lon="7.01609">
        <ele>1046.1</ele>
        <time>2019-12-12T11:57:07Z</time>
      </trkpt>
      <trkpt lat="43.78088" lon="7.01603">
        <ele>1045.6</ele>
        <time>2019-12-12T11:57:09Z</time>
      </trkpt>
      <trkpt lat="43.78087" lon="7.01596">
        <ele>1044.1</ele>
        <time>2019-12-12T11:57:11Z</time>
      </trkpt>
      <trkpt lat="43.78088" lon="7.01589">
        <ele>1044.1</ele>
        <time>2019-12-12T11:57:13Z</time>
      </trkpt>
      <trkpt lat="43.78087" lon="7.01582">
        <ele>1044.1</ele>
        <time>2019-12-12T11:57:15Z</time>
      </trkpt>
      <trkpt lat="43.78086" lon="7.01576">
        <ele>1043.2</ele>
        <time>2019-12-12T11:57:17Z</time>
      </trkpt>
      <trkpt lat="43.78084" lon="7.01571">
        <ele>1042.7</ele>
        <time>2019-12-12T11:57:19Z</time>
      </trkpt>
      <trkpt lat="43.78081" lon="7.01565">
        <ele>1043.2</ele>
        <time>2019-12-12T11:57:21Z</time>
      </trkpt>
      <trkpt lat="43.78079" lon="7.01559">
        <ele>1044.1</ele>
        <time>2019-12-12T11:57:23Z</time>
      </trkpt>
      <trkpt lat="43.78077" lon="7.01552">
        <ele>1044.6</ele>
        <time>2019-12-12T11:57:25Z</time>
      </trkpt>
      <trkpt lat="43.78075" lon="7.01546">
        <ele>1045.1</ele>
        <time>2019-12-12T11:57:27Z</time>
      </trkpt>
      <trkpt lat="43.78073" lon="7.01539">
        <ele>1045.1</ele>
        <time>2019-12-12T11:57:29Z</time>
      </trkpt>
      <trkpt lat="43.7807" lon="7.01533">
        <ele>1046.1</ele>
        <time>2019-12-12T11:57:31Z</time>
      </trkpt>
      <trkpt lat="43.78066" lon="7.01529">
        <ele>1046.1</ele>
        <time>2019-12-12T11:57:33Z</time>
      </trkpt>
      <trkpt lat="43.78062" lon="7.01523">
        <ele>1047</ele>
        <time>2019-12-12T11:57:35Z</time>
      </trkpt>
      <trkpt lat="43.78059" lon="7.01517">
        <ele>1047.5</ele>
        <time>2019-12-12T11:57:37Z</time>
      </trkpt>
      <trkpt lat="43.78055" lon="7.01511">
        <ele>1048</ele>
        <time>2019-12-12T11:57:39Z</time>
      </trkpt>
      <trkpt lat="43.78052" lon="7.01504">
        <ele>1048</ele>
        <time>2019-12-12T11:57:41Z</time>
      </trkpt>
      <trkpt lat="43.78048" lon="7.01499">
        <ele>1048</ele>
        <time>2019-12-12T11:57:43Z</time>
      </trkpt>
      <trkpt lat="43.78044" lon="7.01494">
        <ele>1048.5</ele>
        <time>2019-12-12T11:57:45Z</time>
      </trkpt>
      <trkpt lat="43.7804" lon="7.01488">
        <ele>1048.9</ele>
        <time>2019-12-12T11:57:47Z</time>
      </trkpt>
      <trkpt lat="43.78037" lon="7.01483">
        <ele>1049.4</ele>
        <time>2019-12-12T11:57:49Z</time>
      </trkpt>
      <trkpt lat="43.78033" lon="7.01477">
        <ele>1050.4</ele>
        <time>2019-12-12T11:57:51Z</time>
      </trkpt>
      <trkpt lat="43.7803" lon="7.0147">
        <ele>1051.3</ele>
        <time>2019-12-12T11:57:53Z</time>
      </trkpt>
      <trkpt lat="43.78027" lon="7.01464">
        <ele>1051.3</ele>
        <time>2019-12-12T11:57:55Z</time>
      </trkpt>
      <trkpt lat="43.78026" lon="7.01458">
        <ele>1051.3</ele>
        <time>2019-12-12T11:57:57Z</time>
      </trkpt>
      <trkpt lat="43.78025" lon="7.01453">
        <ele>1050.9</ele>
        <time>2019-12-12T11:57:59Z</time>
      </trkpt>
      <trkpt lat="43.78024" lon="7.01446">
        <ele>1049.9</ele>
        <time>2019-12-12T11:58:01Z</time>
      </trkpt>
      <trkpt lat="43.78021" lon="7.0144">
        <ele>1049.4</ele>
        <time>2019-12-12T11:58:03Z</time>
      </trkpt>
      <trkpt lat="43.78019" lon="7.01434">
        <ele>1048.9</ele>
        <time>2019-12-12T11:58:05Z</time>
      </trkpt>
      <trkpt lat="43.78016" lon="7.01428">
        <ele>1048.9</ele>
        <time>2019-12-12T11:58:07Z</time>
      </trkpt>
      <trkpt lat="43.78014" lon="7.01422">
        <ele>1048.5</ele>
        <time>2019-12-12T11:58:09Z</time>
      </trkpt>
      <trkpt lat="43.78012" lon="7.01416">
        <ele>1048.9</ele>
        <time>2019-12-12T11:58:11Z</time>
      </trkpt>
      <trkpt lat="43.78011" lon="7.01412">
        <ele>1048.9</ele>
        <time>2019-12-12T11:58:13Z</time>
      </trkpt>
      <trkpt lat="43.78008" lon="7.01406">
        <ele>1048.9</ele>
        <time>2019-12-12T11:58:15Z</time>
      </trkpt>
      <trkpt lat="43.78006" lon="7.014">
        <ele>1048.9</ele>
        <time>2019-12-12T11:58:17Z</time>
      </trkpt>
      <trkpt lat="43.78003" lon="7.01394">
        <ele>1049.4</ele>
        <time>2019-12-12T11:58:19Z</time>
      </trkpt>
      <trkpt lat="43.78002" lon="7.01388">
        <ele>1049.9</ele>
        <time>2019-12-12T11:58:21Z</time>
      </trkpt>
      <trkpt lat="43.78001" lon="7.01382">
        <ele>1049.9</ele>
        <time>2019-12-12T11:58:23Z</time>
      </trkpt>
      <trkpt lat="43.78001" lon="7.01376">
        <ele>1050.4</ele>
        <time>2019-12-12T11:58:25Z</time>
      </trkpt>
      <trkpt lat="43.78" lon="7.0137">
        <ele>1049.4</ele>
        <time>2019-12-12T11:58:27Z</time>
      </trkpt>
      <trkpt lat="43.77999" lon="7.01364">
        <ele>1048.5</ele>
        <time>2019-12-12T11:58:29Z</time>
      </trkpt>
      <trkpt lat="43.77997" lon="7.01358">
        <ele>1047.5</ele>
        <time>2019-12-12T11:58:31Z</time>
      </trkpt>
      <trkpt lat="43.77995" lon="7.01352">
        <ele>1047.5</ele>
        <time>2019-12-12T11:58:33Z</time>
      </trkpt>
      <trkpt lat="43.77993" lon="7.01346">
        <ele>1046.5</ele>
        <time>2019-12-12T11:58:35Z</time>
      </trkpt>
      <trkpt lat="43.7799" lon="7.0134">
        <ele>1046.5</ele>
        <time>2019-12-12T11:58:37Z</time>
      </trkpt>
      <trkpt lat="43.77987" lon="7.01334">
        <ele>1047</ele>
        <time>2019-12-12T11:58:39Z</time>
      </trkpt>
      <trkpt lat="43.77987" lon="7.01328">
        <ele>1046.5</ele>
        <time>2019-12-12T11:58:41Z</time>
      </trkpt>
      <trkpt lat="43.77987" lon="7.0132">
        <ele>1046.1</ele>
        <time>2019-12-12T11:58:43Z</time>
      </trkpt>
      <trkpt lat="43.77986" lon="7.01313">
        <ele>1047</ele>
        <time>2019-12-12T11:58:45Z</time>
      </trkpt>
      <trkpt lat="43.77987" lon="7.01307">
        <ele>1047</ele>
        <time>2019-12-12T11:58:47Z</time>
      </trkpt>
      <trkpt lat="43.77986" lon="7.01301">
        <ele>1047</ele>
        <time>2019-12-12T11:58:49Z</time>
      </trkpt>
      <trkpt lat="43.77986" lon="7.01295">
        <ele>1046.1</ele>
        <time>2019-12-12T11:58:51Z</time>
      </trkpt>
      <trkpt lat="43.77986" lon="7.01286">
        <ele>1045.6</ele>
        <time>2019-12-12T11:58:53Z</time>
      </trkpt>
      <trkpt lat="43.77985" lon="7.0128">
        <ele>1044.6</ele>
        <time>2019-12-12T11:58:55Z</time>
      </trkpt>
      <trkpt lat="43.77982" lon="7.01274">
        <ele>1044.6</ele>
        <time>2019-12-12T11:58:57Z</time>
      </trkpt>
      <trkpt lat="43.77978" lon="7.01268">
        <ele>1044.1</ele>
        <time>2019-12-12T11:58:59Z</time>
      </trkpt>
      <trkpt lat="43.77976" lon="7.01263">
        <ele>1043.6</ele>
        <time>2019-12-12T11:59:01Z</time>
      </trkpt>
      <trkpt lat="43.77974" lon="7.01259">
        <ele>1044.1</ele>
        <time>2019-12-12T11:59:03Z</time>
      </trkpt>
      <trkpt lat="43.77972" lon="7.01255">
        <ele>1044.1</ele>
        <time>2019-12-12T11:59:05Z</time>
      </trkpt>
      <trkpt lat="43.77969" lon="7.01249">
        <ele>1043.6</ele>
        <time>2019-12-12T11:59:07Z</time>
      </trkpt>
      <trkpt lat="43.77965" lon="7.01242">
        <ele>1043.2</ele>
        <time>2019-12-12T11:59:09Z</time>
      </trkpt>
      <trkpt lat="43.77959" lon="7.01237">
        <ele>1042.2</ele>
        <time>2019-12-12T11:59:11Z</time>
      </trkpt>
      <trkpt lat="43.77953" lon="7.01231">
        <ele>1042.2</ele>
        <time>2019-12-12T11:59:13Z</time>
      </trkpt>
      <trkpt lat="43.77949" lon="7.01223">
        <ele>1042.2</ele>
        <time>2019-12-12T11:59:15Z</time>
      </trkpt>
      <trkpt lat="43.77945" lon="7.01215">
        <ele>1043.2</ele>
        <time>2019-12-12T11:59:17Z</time>
      </trkpt>
      <trkpt lat="43.77941" lon="7.01208">
        <ele>1043.2</ele>
        <time>2019-12-12T11:59:19Z</time>
      </trkpt>
      <trkpt lat="43.77936" lon="7.01202">
        <ele>1044.1</ele>
        <time>2019-12-12T11:59:21Z</time>
      </trkpt>
      <trkpt lat="43.77931" lon="7.01198">
        <ele>1043.6</ele>
        <time>2019-12-12T11:59:23Z</time>
      </trkpt>
      <trkpt lat="43.77926" lon="7.01195">
        <ele>1042.2</ele>
        <time>2019-12-12T11:59:25Z</time>
      </trkpt>
      <trkpt lat="43.77923" lon="7.01192">
        <ele>1042.7</ele>
        <time>2019-12-12T11:59:27Z</time>
      </trkpt>
      <trkpt lat="43.7792" lon="7.01187">
        <ele>1042.7</ele>
        <time>2019-12-12T11:59:29Z</time>
      </trkpt>
      <trkpt lat="43.77915" lon="7.01181">
        <ele>1042.2</ele>
        <time>2019-12-12T11:59:31Z</time>
      </trkpt>
      <trkpt lat="43.77912" lon="7.01176">
        <ele>1041.7</ele>
        <time>2019-12-12T11:59:33Z</time>
      </trkpt>
      <trkpt lat="43.7791" lon="7.01172">
        <ele>1041.2</ele>
        <time>2019-12-12T11:59:35Z</time>
      </trkpt>
      <trkpt lat="43.77908" lon="7.01168">
        <ele>1040.3</ele>
        <time>2019-12-12T11:59:37Z</time>
      </trkpt>
      <trkpt lat="43.77907" lon="7.01164">
        <ele>1039.8</ele>
        <time>2019-12-12T11:59:39Z</time>
      </trkpt>
      <trkpt lat="43.77905" lon="7.0116">
        <ele>1039.3</ele>
        <time>2019-12-12T11:59:41Z</time>
      </trkpt>
      <trkpt lat="43.77903" lon="7.01154">
        <ele>1038.4</ele>
        <time>2019-12-12T11:59:43Z</time>
      </trkpt>
      <trkpt lat="43.77901" lon="7.01148">
        <ele>1037.4</ele>
        <time>2019-12-12T11:59:45Z</time>
      </trkpt>
      <trkpt lat="43.77899" lon="7.01142">
        <ele>1036.4</ele>
        <time>2019-12-12T11:59:47Z</time>
      </trkpt>
      <trkpt lat="43.77898" lon="7.01135">
        <ele>1035.5</ele>
        <time>2019-12-12T11:59:49Z</time>
      </trkpt>
      <trkpt lat="43.77897" lon="7.01129">
        <ele>1033.6</ele>
        <time>2019-12-12T11:59:51Z</time>
      </trkpt>
      <trkpt lat="43.77895" lon="7.01121">
        <ele>1032.1</ele>
        <time>2019-12-12T11:59:53Z</time>
      </trkpt>
      <trkpt lat="43.77892" lon="7.01113">
        <ele>1031.2</ele>
        <time>2019-12-12T11:59:55Z</time>
      </trkpt>
      <trkpt lat="43.77889" lon="7.01103">
        <ele>1031.2</ele>
        <time>2019-12-12T11:59:57Z</time>
      </trkpt>
      <trkpt lat="43.77886" lon="7.01094">
        <ele>1030.7</ele>
        <time>2019-12-12T11:59:59Z</time>
      </trkpt>
      <trkpt lat="43.77883" lon="7.01086">
        <ele>1030.7</ele>
        <time>2019-12-12T12:00:01Z</time>
      </trkpt>
      <trkpt lat="43.77881" lon="7.01081">
        <ele>1029.7</ele>
        <time>2019-12-12T12:00:03Z</time>
      </trkpt>
      <trkpt lat="43.77877" lon="7.01074">
        <ele>1029.7</ele>
        <time>2019-12-12T12:00:05Z</time>
      </trkpt>
      <trkpt lat="43.77873" lon="7.01068">
        <ele>1030.2</ele>
        <time>2019-12-12T12:00:07Z</time>
      </trkpt>
      <trkpt lat="43.7787" lon="7.01062">
        <ele>1028.7</ele>
        <time>2019-12-12T12:00:09Z</time>
      </trkpt>
      <trkpt lat="43.77867" lon="7.01057">
        <ele>1028.7</ele>
        <time>2019-12-12T12:00:11Z</time>
      </trkpt>
      <trkpt lat="43.77863" lon="7.0105">
        <ele>1028.3</ele>
        <time>2019-12-12T12:00:13Z</time>
      </trkpt>
      <trkpt lat="43.7786" lon="7.01042">
        <ele>1027.8</ele>
        <time>2019-12-12T12:00:15Z</time>
      </trkpt>
      <trkpt lat="43.77858" lon="7.01036">
        <ele>1027.3</ele>
        <time>2019-12-12T12:00:17Z</time>
      </trkpt>
      <trkpt lat="43.77855" lon="7.0103">
        <ele>1027.8</ele>
        <time>2019-12-12T12:00:19Z</time>
      </trkpt>
      <trkpt lat="43.77853" lon="7.01026">
        <ele>1026.8</ele>
        <time>2019-12-12T12:00:21Z</time>
      </trkpt>
      <trkpt lat="43.77851" lon="7.01022">
        <ele>1026.3</ele>
        <time>2019-12-12T12:00:23Z</time>
      </trkpt>
      <trkpt lat="43.7785" lon="7.01018">
        <ele>1025.4</ele>
        <time>2019-12-12T12:00:25Z</time>
      </trkpt>
      <trkpt lat="43.77848" lon="7.01014">
        <ele>1024.9</ele>
        <time>2019-12-12T12:00:27Z</time>
      </trkpt>
      <trkpt lat="43.77844" lon="7.01008">
        <ele>1024.9</ele>
        <time>2019-12-12T12:00:29Z</time>
      </trkpt>
      <trkpt lat="43.77839" lon="7.01003">
        <ele>1024.4</ele>
        <time>2019-12-12T12:00:31Z</time>
      </trkpt>
      <trkpt lat="43.77834" lon="7.00997">
        <ele>1023.9</ele>
        <time>2019-12-12T12:00:33Z</time>
      </trkpt>
      <trkpt lat="43.77829" lon="7.0099">
        <ele>1023.5</ele>
        <time>2019-12-12T12:00:35Z</time>
      </trkpt>
      <trkpt lat="43.77825" lon="7.00982">
        <ele>1023</ele>
        <time>2019-12-12T12:00:37Z</time>
      </trkpt>
      <trkpt lat="43.77822" lon="7.00974">
        <ele>1022</ele>
        <time>2019-12-12T12:00:39Z</time>
      </trkpt>
      <trkpt lat="43.7782" lon="7.0097">
        <ele>1021.1</ele>
        <time>2019-12-12T12:00:41Z</time>
      </trkpt>
      <trkpt lat="43.77818" lon="7.00965">
        <ele>1020.6</ele>
        <time>2019-12-12T12:00:43Z</time>
      </trkpt>
      <trkpt lat="43.77817" lon="7.00958">
        <ele>1020.6</ele>
        <time>2019-12-12T12:00:45Z</time>
      </trkpt>
      <trkpt lat="43.77815" lon="7.00951">
        <ele>1020.6</ele>
        <time>2019-12-12T12:00:47Z</time>
      </trkpt>
      <trkpt lat="43.77814" lon="7.00944">
        <ele>1020.1</ele>
        <time>2019-12-12T12:00:49Z</time>
      </trkpt>
      <trkpt lat="43.77812" lon="7.00939">
        <ele>1020.1</ele>
        <time>2019-12-12T12:00:51Z</time>
      </trkpt>
      <trkpt lat="43.77808" lon="7.00934">
        <ele>1021.1</ele>
        <time>2019-12-12T12:00:53Z</time>
      </trkpt>
      <trkpt lat="43.77804" lon="7.0093">
        <ele>1022.5</ele>
        <time>2019-12-12T12:00:55Z</time>
      </trkpt>
      <trkpt lat="43.778" lon="7.00926">
        <ele>1022.5</ele>
        <time>2019-12-12T12:00:57Z</time>
      </trkpt>
      <trkpt lat="43.77797" lon="7.00921">
        <ele>1022.5</ele>
        <time>2019-12-12T12:00:59Z</time>
      </trkpt>
      <trkpt lat="43.77793" lon="7.00915">
        <ele>1023.5</ele>
        <time>2019-12-12T12:01:01Z</time>
      </trkpt>
      <trkpt lat="43.77789" lon="7.00909">
        <ele>1023.9</ele>
        <time>2019-12-12T12:01:03Z</time>
      </trkpt>
      <trkpt lat="43.77785" lon="7.00903">
        <ele>1024.4</ele>
        <time>2019-12-12T12:01:05Z</time>
      </trkpt>
      <trkpt lat="43.7778" lon="7.00901">
        <ele>1025.9</ele>
        <time>2019-12-12T12:01:07Z</time>
      </trkpt>
      <trkpt lat="43.77774" lon="7.00899">
        <ele>1026.3</ele>
        <time>2019-12-12T12:01:09Z</time>
      </trkpt>
      <trkpt lat="43.77769" lon="7.00899">
        <ele>1027.3</ele>
        <time>2019-12-12T12:01:11Z</time>
      </trkpt>
      <trkpt lat="43.77764" lon="7.00896">
        <ele>1028.3</ele>
        <time>2019-12-12T12:01:13Z</time>
      </trkpt>
      <trkpt lat="43.7776" lon="7.00894">
        <ele>1029.2</ele>
        <time>2019-12-12T12:01:15Z</time>
      </trkpt>
      <trkpt lat="43.77755" lon="7.00893">
        <ele>1030.2</ele>
        <time>2019-12-12T12:01:17Z</time>
      </trkpt>
      <trkpt lat="43.7775" lon="7.00892">
        <ele>1030.7</ele>
        <time>2019-12-12T12:01:19Z</time>
      </trkpt>
      <trkpt lat="43.77746" lon="7.0089">
        <ele>1030.7</ele>
        <time>2019-12-12T12:01:21Z</time>
      </trkpt>
      <trkpt lat="43.77743" lon="7.00887">
        <ele>1030.2</ele>
        <time>2019-12-12T12:01:23Z</time>
      </trkpt>
      <trkpt lat="43.77738" lon="7.00883">
        <ele>1029.7</ele>
        <time>2019-12-12T12:01:25Z</time>
      </trkpt>
      <trkpt lat="43.77734" lon="7.00879">
        <ele>1029.2</ele>
        <time>2019-12-12T12:01:27Z</time>
      </trkpt>
      <trkpt lat="43.77732" lon="7.00875">
        <ele>1029.2</ele>
        <time>2019-12-12T12:01:29Z</time>
      </trkpt>
      <trkpt lat="43.77729" lon="7.0087">
        <ele>1028.3</ele>
        <time>2019-12-12T12:01:31Z</time>
      </trkpt>
      <trkpt lat="43.77726" lon="7.00867">
        <ele>1028.3</ele>
        <time>2019-12-12T12:01:33Z</time>
      </trkpt>
      <trkpt lat="43.77724" lon="7.00863">
        <ele>1027.8</ele>
        <time>2019-12-12T12:01:35Z</time>
      </trkpt>
      <trkpt lat="43.77721" lon="7.00858">
        <ele>1027.3</ele>
        <time>2019-12-12T12:01:37Z</time>
      </trkpt>
      <trkpt lat="43.77717" lon="7.00854">
        <ele>1027.8</ele>
        <time>2019-12-12T12:01:39Z</time>
      </trkpt>
      <trkpt lat="43.77713" lon="7.00849">
        <ele>1027.3</ele>
        <time>2019-12-12T12:01:41Z</time>
      </trkpt>
      <trkpt lat="43.77709" lon="7.00842">
        <ele>1026.8</ele>
        <time>2019-12-12T12:01:43Z</time>
      </trkpt>
      <trkpt lat="43.77706" lon="7.00834">
        <ele>1027.3</ele>
        <time>2019-12-12T12:01:45Z</time>
      </trkpt>
      <trkpt lat="43.77702" lon="7.00826">
        <ele>1027.3</ele>
        <time>2019-12-12T12:01:47Z</time>
      </trkpt>
      <trkpt lat="43.77697" lon="7.00821">
        <ele>1027.3</ele>
        <time>2019-12-12T12:01:49Z</time>
      </trkpt>
      <trkpt lat="43.77693" lon="7.00817">
        <ele>1027.3</ele>
        <time>2019-12-12T12:01:51Z</time>
      </trkpt>
      <trkpt lat="43.7769" lon="7.00813">
        <ele>1026.8</ele>
        <time>2019-12-12T12:01:53Z</time>
      </trkpt>
      <trkpt lat="43.77688" lon="7.00808">
        <ele>1027.3</ele>
        <time>2019-12-12T12:01:55Z</time>
      </trkpt>
      <trkpt lat="43.77685" lon="7.00801">
        <ele>1025.9</ele>
        <time>2019-12-12T12:01:57Z</time>
      </trkpt>
      <trkpt lat="43.7768" lon="7.00796">
        <ele>1025.9</ele>
        <time>2019-12-12T12:01:59Z</time>
      </trkpt>
      <trkpt lat="43.77675" lon="7.0079">
        <ele>1025.9</ele>
        <time>2019-12-12T12:02:01Z</time>
      </trkpt>
      <trkpt lat="43.7767" lon="7.00783">
        <ele>1025.9</ele>
        <time>2019-12-12T12:02:03Z</time>
      </trkpt>
      <trkpt lat="43.77665" lon="7.00775">
        <ele>1025.9</ele>
        <time>2019-12-12T12:02:05Z</time>
      </trkpt>
      <trkpt lat="43.77662" lon="7.00765">
        <ele>1026.3</ele>
        <time>2019-12-12T12:02:07Z</time>
      </trkpt>
      <trkpt lat="43.7766" lon="7.00757">
        <ele>1026.3</ele>
        <time>2019-12-12T12:02:09Z</time>
      </trkpt>
      <trkpt lat="43.77658" lon="7.0075">
        <ele>1026.8</ele>
        <time>2019-12-12T12:02:11Z</time>
      </trkpt>
      <trkpt lat="43.77658" lon="7.00743">
        <ele>1026.8</ele>
        <time>2019-12-12T12:02:13Z</time>
      </trkpt>
      <trkpt lat="43.7766" lon="7.00739">
        <ele>1026.8</ele>
        <time>2019-12-12T12:02:15Z</time>
      </trkpt>
      <trkpt lat="43.77663" lon="7.0074">
        <ele>1026.8</ele>
        <time>2019-12-12T12:02:17Z</time>
      </trkpt>
      <trkpt lat="43.77666" lon="7.0074">
        <ele>1026.8</ele>
        <time>2019-12-12T12:02:19Z</time>
      </trkpt>
      <trkpt lat="43.7767" lon="7.0074">
        <ele>1026.3</ele>
        <time>2019-12-12T12:02:21Z</time>
      </trkpt>
      <trkpt lat="43.77673" lon="7.00738">
        <ele>1025.9</ele>
        <time>2019-12-12T12:02:23Z</time>
      </trkpt>
      <trkpt lat="43.77676" lon="7.00736">
        <ele>1025.4</ele>
        <time>2019-12-12T12:02:25Z</time>
      </trkpt>
      <trkpt lat="43.77678" lon="7.00736">
        <ele>1025.9</ele>
        <time>2019-12-12T12:02:27Z</time>
      </trkpt>
      <trkpt lat="43.7768" lon="7.00736">
        <ele>1025.9</ele>
        <time>2019-12-12T12:02:29Z</time>
      </trkpt>
      <trkpt lat="43.77679" lon="7.00736">
        <ele>1024.9</ele>
        <time>2019-12-12T12:02:31Z</time>
      </trkpt>
      <trkpt lat="43.77679" lon="7.00737">
        <ele>1024.9</ele>
        <time>2019-12-12T12:02:33Z</time>
      </trkpt>
      <trkpt lat="43.77679" lon="7.00738">
        <ele>1024.9</ele>
        <time>2019-12-12T12:02:35Z</time>
      </trkpt>
      <trkpt lat="43.77679" lon="7.00738">
        <ele>1024.9</ele>
        <time>2019-12-12T12:02:37Z</time>
      </trkpt>
      <trkpt lat="43.77679" lon="7.00738">
        <ele>1024.9</ele>
        <time>2019-12-12T12:02:39Z</time>
      </trkpt>
      <trkpt lat="43.77679" lon="7.00738">
        <ele>1024.9</ele>
        <time>2019-12-12T12:02:41Z</time>
      </trkpt>
      <trkpt lat="43.77679" lon="7.00738">
        <ele>1024.9</ele>
        <time>2019-12-12T12:02:43Z</time>
      </trkpt>
      <trkpt lat="43.77679" lon="7.00738">
        <ele>1024.9</ele>
        <time>2019-12-12T12:02:45Z</time>
      </trkpt>
      <trkpt lat="43.77679" lon="7.00738">
        <ele>1024.9</ele>
        <time>2019-12-12T12:02:47Z</time>
      </trkpt>
      <trkpt lat="43.77679" lon="7.00738">
        <ele>1024.9</ele>
        <time>2019-12-12T12:02:49Z</time>
      </trkpt>
      <trkpt lat="43.77679" lon="7.00738">
        <ele>1024.9</ele>
        <time>2019-12-12T12:02:51Z</time>
      </trkpt>
      <trkpt lat="43.77679" lon="7.00737">
        <ele>1024.9</ele>
        <time>2019-12-12T12:02:53Z</time>
      </trkpt>
      <trkpt lat="43.77679" lon="7.00737">
        <ele>1024.9</ele>
        <time>2019-12-12T12:02:55Z</time>
      </trkpt>
      <trkpt lat="43.77679" lon="7.00737">
        <ele>1024.9</ele>
        <time>2019-12-12T12:02:57Z</time>
      </trkpt>
      <trkpt lat="43.77679" lon="7.00737">
        <ele>1024.9</ele>
        <time>2019-12-12T12:02:59Z</time>
      </trkpt>
      <trkpt lat="43.77679" lon="7.00737">
        <ele>1024.9</ele>
        <time>2019-12-12T12:03:01Z</time>
      </trkpt>
      <trkpt lat="43.77679" lon="7.00737">
        <ele>1024.9</ele>
        <time>2019-12-12T12:03:03Z</time>
      </trkpt>
      <trkpt lat="43.77679" lon="7.00737">
        <ele>1024.9</ele>
        <time>2019-12-12T12:03:05Z</time>
      </trkpt>
      <trkpt lat="43.77679" lon="7.00737">
        <ele>1024.9</ele>
        <time>2019-12-12T12:03:07Z</time>
      </trkpt>
      <trkpt lat="43.77679" lon="7.00737">
        <ele>1024.9</ele>
        <time>2019-12-12T12:03:09Z</time>
      </trkpt>
      <trkpt lat="43.77679" lon="7.00737">
        <ele>1024.9</ele>
        <time>2019-12-12T12:03:11Z</time>
      </trkpt>
      <trkpt lat="43.77679" lon="7.00737">
        <ele>1024.9</ele>
        <time>2019-12-12T12:03:13Z</time>
      </trkpt>
      <trkpt lat="43.77679" lon="7.00737">
        <ele>1024.9</ele>
        <time>2019-12-12T12:03:15Z</time>
      </trkpt>
      <trkpt lat="43.77679" lon="7.00737">
        <ele>1024.9</ele>
        <time>2019-12-12T12:03:17Z</time>
      </trkpt>
      <trkpt lat="43.77679" lon="7.00737">
        <ele>1024.9</ele>
        <time>2019-12-12T12:03:19Z</time>
      </trkpt>
      <trkpt lat="43.77679" lon="7.00737">
        <ele>1024.9</ele>
        <time>2019-12-12T12:03:21Z</time>
      </trkpt>
      <trkpt lat="43.77679" lon="7.00737">
        <ele>1024.9</ele>
        <time>2019-12-12T12:03:23Z</time>
      </trkpt>
      <trkpt lat="43.77679" lon="7.00737">
        <ele>1024.9</ele>
        <time>2019-12-12T12:03:25Z</time>
      </trkpt>
      <trkpt lat="43.77679" lon="7.00737">
        <ele>1024.9</ele>
        <time>2019-12-12T12:03:27Z</time>
      </trkpt>
      <trkpt lat="43.77679" lon="7.00737">
        <ele>1024.9</ele>
        <time>2019-12-12T12:03:29Z</time>
      </trkpt>
      <trkpt lat="43.77679" lon="7.00737">
        <ele>1024.9</ele>
        <time>2019-12-12T12:03:31Z</time>
      </trkpt>
      <trkpt lat="43.77679" lon="7.00737">
        <ele>1024.9</ele>
        <time>2019-12-12T12:03:33Z</time>
      </trkpt>
      <trkpt lat="43.77679" lon="7.00737">
        <ele>1024.9</ele>
        <time>2019-12-12T12:03:35Z</time>
      </trkpt>
      <trkpt lat="43.77679" lon="7.00737">
        <ele>1024.9</ele>
        <time>2019-12-12T12:03:37Z</time>
      </trkpt>
      <trkpt lat="43.77679" lon="7.00737">
        <ele>1024.9</ele>
        <time>2019-12-12T12:03:39Z</time>
      </trkpt>
      <trkpt lat="43.77679" lon="7.00737">
        <ele>1024.9</ele>
        <time>2019-12-12T12:03:41Z</time>
      </trkpt>
      <trkpt lat="43.77679" lon="7.00737">
        <ele>1024.9</ele>
        <time>2019-12-12T12:03:43Z</time>
      </trkpt>
      <trkpt lat="43.77679" lon="7.00737">
        <ele>1024.9</ele>
        <time>2019-12-12T12:03:45Z</time>
      </trkpt>
      <trkpt lat="43.77679" lon="7.00737">
        <ele>1024.9</ele>
        <time>2019-12-12T12:03:47Z</time>
      </trkpt>
      <trkpt lat="43.77679" lon="7.00737">
        <ele>1024.9</ele>
        <time>2019-12-12T12:03:49Z</time>
      </trkpt>
      <trkpt lat="43.77679" lon="7.00737">
        <ele>1024.9</ele>
        <time>2019-12-12T12:03:51Z</time>
      </trkpt>
      <trkpt lat="43.77679" lon="7.00737">
        <ele>1024.9</ele>
        <time>2019-12-12T12:03:53Z</time>
      </trkpt>
      <trkpt lat="43.77679" lon="7.00737">
        <ele>1024.9</ele>
        <time>2019-12-12T12:03:55Z</time>
      </trkpt>
      <trkpt lat="43.77679" lon="7.00737">
        <ele>1024.9</ele>
        <time>2019-12-12T12:03:57Z</time>
      </trkpt>
      <trkpt lat="43.77679" lon="7.00737">
        <ele>1024.9</ele>
        <time>2019-12-12T12:03:59Z</time>
      </trkpt>
      <trkpt lat="43.77679" lon="7.00737">
        <ele>1024.9</ele>
        <time>2019-12-12T12:04:01Z</time>
      </trkpt>
      <trkpt lat="43.77679" lon="7.00737">
        <ele>1024.9</ele>
        <time>2019-12-12T12:04:03Z</time>
      </trkpt>
      <trkpt lat="43.77679" lon="7.00737">
        <ele>1024.9</ele>
        <time>2019-12-12T12:04:05Z</time>
      </trkpt>
      <trkpt lat="43.77679" lon="7.00737">
        <ele>1024.9</ele>
        <time>2019-12-12T12:04:07Z</time>
      </trkpt>
      <trkpt lat="43.77679" lon="7.00737">
        <ele>1024.9</ele>
        <time>2019-12-12T12:04:09Z</time>
      </trkpt>
      <trkpt lat="43.77679" lon="7.00737">
        <ele>1024.9</ele>
        <time>2019-12-12T12:04:11Z</time>
      </trkpt>
      <trkpt lat="43.77679" lon="7.00737">
        <ele>1024.9</ele>
        <time>2019-12-12T12:04:13Z</time>
      </trkpt>
      <trkpt lat="43.77679" lon="7.00737">
        <ele>1024.9</ele>
        <time>2019-12-12T12:04:15Z</time>
      </trkpt>
      <trkpt lat="43.77679" lon="7.00737">
        <ele>1024.9</ele>
        <time>2019-12-12T12:04:17Z</time>
      </trkpt>
      <trkpt lat="43.77679" lon="7.00737">
        <ele>1024.9</ele>
        <time>2019-12-12T12:04:19Z</time>
      </trkpt>
      <trkpt lat="43.77679" lon="7.00737">
        <ele>1024.9</ele>
        <time>2019-12-12T12:04:21Z</time>
      </trkpt>
      <trkpt lat="43.77679" lon="7.00737">
        <ele>1024.9</ele>
        <time>2019-12-12T12:04:23Z</time>
      </trkpt>
      <trkpt lat="43.77679" lon="7.00737">
        <ele>1024.9</ele>
        <time>2019-12-12T12:04:25Z</time>
      </trkpt>
      <trkpt lat="43.77679" lon="7.00737">
        <ele>1024.9</ele>
        <time>2019-12-12T12:04:27Z</time>
      </trkpt>
      <trkpt lat="43.77679" lon="7.00737">
        <ele>1024.9</ele>
        <time>2019-12-12T12:04:29Z</time>
      </trkpt>
      <trkpt lat="43.77679" lon="7.00737">
        <ele>1024.9</ele>
        <time>2019-12-12T12:04:31Z</time>
      </trkpt>
      <trkpt lat="43.77679" lon="7.00737">
        <ele>1024.9</ele>
        <time>2019-12-12T12:04:33Z</time>
      </trkpt>
      <trkpt lat="43.77679" lon="7.00737">
        <ele>1024.9</ele>
        <time>2019-12-12T12:04:35Z</time>
      </trkpt>
      <trkpt lat="43.77679" lon="7.00737">
        <ele>1024.9</ele>
        <time>2019-12-12T12:04:37Z</time>
      </trkpt>
      <trkpt lat="43.77679" lon="7.00737">
        <ele>1024.9</ele>
        <time>2019-12-12T12:04:39Z</time>
      </trkpt>
      <trkpt lat="43.77679" lon="7.00737">
        <ele>1024.9</ele>
        <time>2019-12-12T12:04:41Z</time>
      </trkpt>
      <trkpt lat="43.77679" lon="7.00737">
        <ele>1024.9</ele>
        <time>2019-12-12T12:04:43Z</time>
      </trkpt>
      <trkpt lat="43.77679" lon="7.00737">
        <ele>1024.9</ele>
        <time>2019-12-12T12:04:45Z</time>
      </trkpt>
      <trkpt lat="43.77679" lon="7.00737">
        <ele>1024.9</ele>
        <time>2019-12-12T12:04:47Z</time>
      </trkpt>
      <trkpt lat="43.77679" lon="7.00737">
        <ele>1024.9</ele>
        <time>2019-12-12T12:04:49Z</time>
      </trkpt>
      <trkpt lat="43.77679" lon="7.00737">
        <ele>1024.9</ele>
        <time>2019-12-12T12:04:51Z</time>
      </trkpt>
      <trkpt lat="43.77679" lon="7.00737">
        <ele>1024.9</ele>
        <time>2019-12-12T12:04:53Z</time>
      </trkpt>
      <trkpt lat="43.77679" lon="7.00737">
        <ele>1024.9</ele>
        <time>2019-12-12T12:04:55Z</time>
      </trkpt>
      <trkpt lat="43.77679" lon="7.00737">
        <ele>1024.9</ele>
        <time>2019-12-12T12:04:57Z</time>
      </trkpt>
      <trkpt lat="43.77679" lon="7.00737">
        <ele>1024.9</ele>
        <time>2019-12-12T12:04:59Z</time>
      </trkpt>
      <trkpt lat="43.77679" lon="7.00737">
        <ele>1024.9</ele>
        <time>2019-12-12T12:05:01Z</time>
      </trkpt>
      <trkpt lat="43.77679" lon="7.00737">
        <ele>1024.9</ele>
        <time>2019-12-12T12:05:03Z</time>
      </trkpt>
      <trkpt lat="43.77679" lon="7.00737">
        <ele>1024.9</ele>
        <time>2019-12-12T12:05:05Z</time>
      </trkpt>
      <trkpt lat="43.77679" lon="7.00737">
        <ele>1024.9</ele>
        <time>2019-12-12T12:05:07Z</time>
      </trkpt>
      <trkpt lat="43.77679" lon="7.00737">
        <ele>1024.9</ele>
        <time>2019-12-12T12:05:09Z</time>
      </trkpt>
      <trkpt lat="43.77679" lon="7.00737">
        <ele>1024.9</ele>
        <time>2019-12-12T12:05:11Z</time>
      </trkpt>
      <trkpt lat="43.77679" lon="7.00737">
        <ele>1024.9</ele>
        <time>2019-12-12T12:05:13Z</time>
      </trkpt>
      <trkpt lat="43.77679" lon="7.00737">
        <ele>1024.9</ele>
        <time>2019-12-12T12:05:15Z</time>
      </trkpt>
      <trkpt lat="43.77679" lon="7.00737">
        <ele>1024.9</ele>
        <time>2019-12-12T12:05:17Z</time>
      </trkpt>
      <trkpt lat="43.77679" lon="7.00737">
        <ele>1024.9</ele>
        <time>2019-12-12T12:05:19Z</time>
      </trkpt>
      <trkpt lat="43.77679" lon="7.00737">
        <ele>1024.9</ele>
        <time>2019-12-12T12:05:21Z</time>
      </trkpt>
      <trkpt lat="43.77679" lon="7.00737">
        <ele>1024.9</ele>
        <time>2019-12-12T12:05:23Z</time>
      </trkpt>
      <trkpt lat="43.77679" lon="7.00737">
        <ele>1024.9</ele>
        <time>2019-12-12T12:05:25Z</time>
      </trkpt>
      <trkpt lat="43.77679" lon="7.00737">
        <ele>1024.9</ele>
        <time>2019-12-12T12:05:27Z</time>
      </trkpt>
      <trkpt lat="43.77679" lon="7.00737">
        <ele>1024.9</ele>
        <time>2019-12-12T12:05:29Z</time>
      </trkpt>
      <trkpt lat="43.77679" lon="7.00737">
        <ele>1024.9</ele>
        <time>2019-12-12T12:05:31Z</time>
      </trkpt>
      <trkpt lat="43.77679" lon="7.00737">
        <ele>1024.9</ele>
        <time>2019-12-12T12:05:33Z</time>
      </trkpt>
      <trkpt lat="43.77679" lon="7.00737">
        <ele>1024.9</ele>
        <time>2019-12-12T12:05:35Z</time>
      </trkpt>
      <trkpt lat="43.77679" lon="7.00737">
        <ele>1024.9</ele>
        <time>2019-12-12T12:05:37Z</time>
      </trkpt>
      <trkpt lat="43.77679" lon="7.00737">
        <ele>1024.9</ele>
        <time>2019-12-12T12:05:39Z</time>
      </trkpt>
      <trkpt lat="43.77679" lon="7.00737">
        <ele>1024.9</ele>
        <time>2019-12-12T12:05:41Z</time>
      </trkpt>
      <trkpt lat="43.77679" lon="7.00737">
        <ele>1024.9</ele>
        <time>2019-12-12T12:05:43Z</time>
      </trkpt>
      <trkpt lat="43.77679" lon="7.00737">
        <ele>1024.9</ele>
        <time>2019-12-12T12:05:45Z</time>
      </trkpt>
      <trkpt lat="43.77679" lon="7.00737">
        <ele>1024.9</ele>
        <time>2019-12-12T12:05:47Z</time>
      </trkpt>
      <trkpt lat="43.77679" lon="7.00737">
        <ele>1024.9</ele>
        <time>2019-12-12T12:05:49Z</time>
      </trkpt>
      <trkpt lat="43.77679" lon="7.00737">
        <ele>1024.9</ele>
        <time>2019-12-12T12:05:51Z</time>
      </trkpt>
      <trkpt lat="43.77679" lon="7.00737">
        <ele>1024.9</ele>
        <time>2019-12-12T12:05:53Z</time>
      </trkpt>
      <trkpt lat="43.77679" lon="7.00737">
        <ele>1024.9</ele>
        <time>2019-12-12T12:05:55Z</time>
      </trkpt>
      <trkpt lat="43.77679" lon="7.00737">
        <ele>1024.9</ele>
        <time>2019-12-12T12:05:57Z</time>
      </trkpt>
      <trkpt lat="43.77679" lon="7.00737">
        <ele>1024.9</ele>
        <time>2019-12-12T12:05:59Z</time>
      </trkpt>
      <trkpt lat="43.77679" lon="7.00737">
        <ele>1024.9</ele>
        <time>2019-12-12T12:06:01Z</time>
      </trkpt>
      <trkpt lat="43.77679" lon="7.00737">
        <ele>1024.9</ele>
        <time>2019-12-12T12:06:03Z</time>
      </trkpt>
      <trkpt lat="43.77679" lon="7.00737">
        <ele>1024.9</ele>
        <time>2019-12-12T12:06:05Z</time>
      </trkpt>
      <trkpt lat="43.77679" lon="7.00737">
        <ele>1024.9</ele>
        <time>2019-12-12T12:06:07Z</time>
      </trkpt>
      <trkpt lat="43.77679" lon="7.00737">
        <ele>1024.9</ele>
        <time>2019-12-12T12:06:09Z</time>
      </trkpt>
      <trkpt lat="43.77679" lon="7.00737">
        <ele>1024.9</ele>
        <time>2019-12-12T12:06:11Z</time>
      </trkpt>
      <trkpt lat="43.77679" lon="7.00737">
        <ele>1024.9</ele>
        <time>2019-12-12T12:06:13Z</time>
      </trkpt>
      <trkpt lat="43.77679" lon="7.00737">
        <ele>1024.9</ele>
        <time>2019-12-12T12:06:15Z</time>
      </trkpt>
      <trkpt lat="43.77679" lon="7.00737">
        <ele>1024.9</ele>
        <time>2019-12-12T12:06:17Z</time>
      </trkpt>
      <trkpt lat="43.77679" lon="7.00737">
        <ele>1024.9</ele>
        <time>2019-12-12T12:06:19Z</time>
      </trkpt>
      <trkpt lat="43.77679" lon="7.00737">
        <ele>1024.9</ele>
        <time>2019-12-12T12:06:21Z</time>
      </trkpt>
      <trkpt lat="43.77679" lon="7.00737">
        <ele>1024.9</ele>
        <time>2019-12-12T12:06:23Z</time>
      </trkpt>
      <trkpt lat="43.77679" lon="7.00737">
        <ele>1024.9</ele>
        <time>2019-12-12T12:06:25Z</time>
      </trkpt>
      <trkpt lat="43.77679" lon="7.00737">
        <ele>1024.9</ele>
        <time>2019-12-12T12:06:27Z</time>
      </trkpt>
      <trkpt lat="43.77679" lon="7.00737">
        <ele>1024.9</ele>
        <time>2019-12-12T12:06:29Z</time>
      </trkpt>
      <trkpt lat="43.77679" lon="7.00737">
        <ele>1024.9</ele>
        <time>2019-12-12T12:06:31Z</time>
      </trkpt>
      <trkpt lat="43.77679" lon="7.00737">
        <ele>1024.4</ele>
        <time>2019-12-12T12:06:33Z</time>
      </trkpt>
      <trkpt lat="43.77679" lon="7.00737">
        <ele>1024.4</ele>
        <time>2019-12-12T12:06:35Z</time>
      </trkpt>
      <trkpt lat="43.77679" lon="7.00737">
        <ele>1024.4</ele>
        <time>2019-12-12T12:06:37Z</time>
      </trkpt>
      <trkpt lat="43.77679" lon="7.00737">
        <ele>1024.4</ele>
        <time>2019-12-12T12:06:39Z</time>
      </trkpt>
      <trkpt lat="43.77679" lon="7.00737">
        <ele>1024.4</ele>
        <time>2019-12-12T12:06:41Z</time>
      </trkpt>
      <trkpt lat="43.77679" lon="7.00737">
        <ele>1024.4</ele>
        <time>2019-12-12T12:06:43Z</time>
      </trkpt>
      <trkpt lat="43.77679" lon="7.00737">
        <ele>1024.4</ele>
        <time>2019-12-12T12:06:45Z</time>
      </trkpt>
      <trkpt lat="43.77679" lon="7.00737">
        <ele>1024.4</ele>
        <time>2019-12-12T12:06:47Z</time>
      </trkpt>
      <trkpt lat="43.77679" lon="7.00738">
        <ele>1024.4</ele>
        <time>2019-12-12T12:06:49Z</time>
      </trkpt>
      <trkpt lat="43.77679" lon="7.00738">
        <ele>1024.4</ele>
        <time>2019-12-12T12:06:51Z</time>
      </trkpt>
      <trkpt lat="43.77679" lon="7.00738">
        <ele>1024.4</ele>
        <time>2019-12-12T12:06:53Z</time>
      </trkpt>
      <trkpt lat="43.77679" lon="7.00737">
        <ele>1024.9</ele>
        <time>2019-12-12T12:06:55Z</time>
      </trkpt>
      <trkpt lat="43.77679" lon="7.00737">
        <ele>1024.9</ele>
        <time>2019-12-12T12:06:57Z</time>
      </trkpt>
      <trkpt lat="43.7768" lon="7.00736">
        <ele>1024.9</ele>
        <time>2019-12-12T12:06:59Z</time>
      </trkpt>
      <trkpt lat="43.7768" lon="7.00736">
        <ele>1024.9</ele>
        <time>2019-12-12T12:07:01Z</time>
      </trkpt>
      <trkpt lat="43.7768" lon="7.00736">
        <ele>1025.4</ele>
        <time>2019-12-12T12:07:03Z</time>
      </trkpt>
      <trkpt lat="43.7768" lon="7.00736">
        <ele>1025.4</ele>
        <time>2019-12-12T12:07:05Z</time>
      </trkpt>
      <trkpt lat="43.7768" lon="7.00736">
        <ele>1025.9</ele>
        <time>2019-12-12T12:07:07Z</time>
      </trkpt>
      <trkpt lat="43.77681" lon="7.00736">
        <ele>1025.9</ele>
        <time>2019-12-12T12:07:09Z</time>
      </trkpt>
      <trkpt lat="43.77681" lon="7.00737">
        <ele>1026.3</ele>
        <time>2019-12-12T12:07:11Z</time>
      </trkpt>
      <trkpt lat="43.77681" lon="7.00737">
        <ele>1026.3</ele>
        <time>2019-12-12T12:07:13Z</time>
      </trkpt>
      <trkpt lat="43.77681" lon="7.00737">
        <ele>1026.8</ele>
        <time>2019-12-12T12:07:15Z</time>
      </trkpt>
      <trkpt lat="43.77681" lon="7.00738">
        <ele>1026.8</ele>
        <time>2019-12-12T12:07:17Z</time>
      </trkpt>
      <trkpt lat="43.77681" lon="7.00738">
        <ele>1027.3</ele>
        <time>2019-12-12T12:07:19Z</time>
      </trkpt>
      <trkpt lat="43.77681" lon="7.00738">
        <ele>1027.3</ele>
        <time>2019-12-12T12:07:21Z</time>
      </trkpt>
      <trkpt lat="43.77681" lon="7.00738">
        <ele>1027.3</ele>
        <time>2019-12-12T12:07:23Z</time>
      </trkpt>
      <trkpt lat="43.77681" lon="7.00738">
        <ele>1027.8</ele>
        <time>2019-12-12T12:07:25Z</time>
      </trkpt>
      <trkpt lat="43.7768" lon="7.00739">
        <ele>1027.8</ele>
        <time>2019-12-12T12:07:27Z</time>
      </trkpt>
      <trkpt lat="43.7768" lon="7.00739">
        <ele>1028.3</ele>
        <time>2019-12-12T12:07:29Z</time>
      </trkpt>
      <trkpt lat="43.7768" lon="7.00739">
        <ele>1028.3</ele>
        <time>2019-12-12T12:07:31Z</time>
      </trkpt>
      <trkpt lat="43.7768" lon="7.00739">
        <ele>1028.3</ele>
        <time>2019-12-12T12:07:33Z</time>
      </trkpt>
      <trkpt lat="43.77679" lon="7.0074">
        <ele>1028.7</ele>
        <time>2019-12-12T12:07:35Z</time>
      </trkpt>
      <trkpt lat="43.77679" lon="7.0074">
        <ele>1028.7</ele>
        <time>2019-12-12T12:07:37Z</time>
      </trkpt>
      <trkpt lat="43.77678" lon="7.0074">
        <ele>1028.7</ele>
        <time>2019-12-12T12:07:39Z</time>
      </trkpt>
      <trkpt lat="43.77678" lon="7.0074">
        <ele>1029.2</ele>
        <time>2019-12-12T12:07:41Z</time>
      </trkpt>
      <trkpt lat="43.77678" lon="7.0074">
        <ele>1029.2</ele>
        <time>2019-12-12T12:07:43Z</time>
      </trkpt>
      <trkpt lat="43.77677" lon="7.00741">
        <ele>1029.2</ele>
        <time>2019-12-12T12:07:45Z</time>
      </trkpt>
      <trkpt lat="43.77677" lon="7.00741">
        <ele>1029.2</ele>
        <time>2019-12-12T12:07:47Z</time>
      </trkpt>
      <trkpt lat="43.77677" lon="7.00741">
        <ele>1029.7</ele>
        <time>2019-12-12T12:07:49Z</time>
      </trkpt>
      <trkpt lat="43.77677" lon="7.00741">
        <ele>1029.7</ele>
        <time>2019-12-12T12:07:51Z</time>
      </trkpt>
      <trkpt lat="43.77677" lon="7.00741">
        <ele>1029.7</ele>
        <time>2019-12-12T12:07:53Z</time>
      </trkpt>
      <trkpt lat="43.77676" lon="7.00742">
        <ele>1029.7</ele>
        <time>2019-12-12T12:07:55Z</time>
      </trkpt>
      <trkpt lat="43.77676" lon="7.00742">
        <ele>1030.2</ele>
        <time>2019-12-12T12:07:57Z</time>
      </trkpt>
      <trkpt lat="43.77676" lon="7.00742">
        <ele>1030.2</ele>
        <time>2019-12-12T12:07:59Z</time>
      </trkpt>
      <trkpt lat="43.77676" lon="7.00742">
        <ele>1030.2</ele>
        <time>2019-12-12T12:08:01Z</time>
      </trkpt>
      <trkpt lat="43.77676" lon="7.00743">
        <ele>1030.2</ele>
        <time>2019-12-12T12:08:03Z</time>
      </trkpt>
      <trkpt lat="43.77676" lon="7.00743">
        <ele>1030.2</ele>
        <time>2019-12-12T12:08:05Z</time>
      </trkpt>
      <trkpt lat="43.77675" lon="7.00743">
        <ele>1030.7</ele>
        <time>2019-12-12T12:08:07Z</time>
      </trkpt>
      <trkpt lat="43.77675" lon="7.00744">
        <ele>1030.7</ele>
        <time>2019-12-12T12:08:09Z</time>
      </trkpt>
      <trkpt lat="43.77675" lon="7.00744">
        <ele>1030.7</ele>
        <time>2019-12-12T12:08:11Z</time>
      </trkpt>
      <trkpt lat="43.77675" lon="7.00745">
        <ele>1030.7</ele>
        <time>2019-12-12T12:08:13Z</time>
      </trkpt>
      <trkpt lat="43.77675" lon="7.00745">
        <ele>1030.7</ele>
        <time>2019-12-12T12:08:15Z</time>
      </trkpt>
      <trkpt lat="43.77674" lon="7.00745">
        <ele>1031.2</ele>
        <time>2019-12-12T12:08:17Z</time>
      </trkpt>
      <trkpt lat="43.77674" lon="7.00746">
        <ele>1031.2</ele>
        <time>2019-12-12T12:08:19Z</time>
      </trkpt>
      <trkpt lat="43.77674" lon="7.00746">
        <ele>1031.2</ele>
        <time>2019-12-12T12:08:21Z</time>
      </trkpt>
      <trkpt lat="43.77674" lon="7.00746">
        <ele>1031.2</ele>
        <time>2019-12-12T12:08:23Z</time>
      </trkpt>
      <trkpt lat="43.77674" lon="7.00746">
        <ele>1031.2</ele>
        <time>2019-12-12T12:08:25Z</time>
      </trkpt>
      <trkpt lat="43.77674" lon="7.00747">
        <ele>1031.2</ele>
        <time>2019-12-12T12:08:27Z</time>
      </trkpt>
      <trkpt lat="43.77673" lon="7.00747">
        <ele>1031.2</ele>
        <time>2019-12-12T12:08:29Z</time>
      </trkpt>
      <trkpt lat="43.77673" lon="7.00747">
        <ele>1031.2</ele>
        <time>2019-12-12T12:08:31Z</time>
      </trkpt>
      <trkpt lat="43.77675" lon="7.00749">
        <ele>1031.2</ele>
        <time>2019-12-12T12:08:33Z</time>
      </trkpt>
      <trkpt lat="43.77675" lon="7.0075">
        <ele>1030.7</ele>
        <time>2019-12-12T12:08:35Z</time>
      </trkpt>
      <trkpt lat="43.77678" lon="7.00749">
        <ele>1029.7</ele>
        <time>2019-12-12T12:08:37Z</time>
      </trkpt>
      <trkpt lat="43.77678" lon="7.00748">
        <ele>1028.7</ele>
        <time>2019-12-12T12:08:39Z</time>
      </trkpt>
      <trkpt lat="43.77678" lon="7.00746">
        <ele>1028.3</ele>
        <time>2019-12-12T12:08:41Z</time>
      </trkpt>
      <trkpt lat="43.77678" lon="7.00744">
        <ele>1027.8</ele>
        <time>2019-12-12T12:08:43Z</time>
      </trkpt>
      <trkpt lat="43.77678" lon="7.00744">
        <ele>1027.8</ele>
        <time>2019-12-12T12:08:45Z</time>
      </trkpt>
      <trkpt lat="43.77678" lon="7.00744">
        <ele>1027.8</ele>
        <time>2019-12-12T12:08:47Z</time>
      </trkpt>
      <trkpt lat="43.77677" lon="7.00743">
        <ele>1027.8</ele>
        <time>2019-12-12T12:08:49Z</time>
      </trkpt>
      <trkpt lat="43.77677" lon="7.00743">
        <ele>1027.8</ele>
        <time>2019-12-12T12:08:51Z</time>
      </trkpt>
      <trkpt lat="43.77677" lon="7.00742">
        <ele>1027.8</ele>
        <time>2019-12-12T12:08:53Z</time>
      </trkpt>
      <trkpt lat="43.77676" lon="7.00742">
        <ele>1027.8</ele>
        <time>2019-12-12T12:08:55Z</time>
      </trkpt>
      <trkpt lat="43.77676" lon="7.00741">
        <ele>1027.8</ele>
        <time>2019-12-12T12:08:57Z</time>
      </trkpt>
      <trkpt lat="43.77676" lon="7.00741">
        <ele>1027.8</ele>
        <time>2019-12-12T12:08:59Z</time>
      </trkpt>
      <trkpt lat="43.77676" lon="7.0074">
        <ele>1027.8</ele>
        <time>2019-12-12T12:09:01Z</time>
      </trkpt>
      <trkpt lat="43.77675" lon="7.00739">
        <ele>1027.8</ele>
        <time>2019-12-12T12:09:03Z</time>
      </trkpt>
      <trkpt lat="43.77675" lon="7.00739">
        <ele>1027.8</ele>
        <time>2019-12-12T12:09:05Z</time>
      </trkpt>
      <trkpt lat="43.77675" lon="7.00738">
        <ele>1027.8</ele>
        <time>2019-12-12T12:09:07Z</time>
      </trkpt>
      <trkpt lat="43.77675" lon="7.00737">
        <ele>1028.3</ele>
        <time>2019-12-12T12:09:09Z</time>
      </trkpt>
      <trkpt lat="43.77675" lon="7.00737">
        <ele>1028.3</ele>
        <time>2019-12-12T12:09:11Z</time>
      </trkpt>
      <trkpt lat="43.77675" lon="7.00736">
        <ele>1028.3</ele>
        <time>2019-12-12T12:09:13Z</time>
      </trkpt>
      <trkpt lat="43.77675" lon="7.00736">
        <ele>1028.7</ele>
        <time>2019-12-12T12:09:15Z</time>
      </trkpt>
      <trkpt lat="43.77674" lon="7.00735">
        <ele>1028.7</ele>
        <time>2019-12-12T12:09:17Z</time>
      </trkpt>
      <trkpt lat="43.77674" lon="7.00735">
        <ele>1029.2</ele>
        <time>2019-12-12T12:09:19Z</time>
      </trkpt>
      <trkpt lat="43.77674" lon="7.00735">
        <ele>1029.2</ele>
        <time>2019-12-12T12:09:21Z</time>
      </trkpt>
      <trkpt lat="43.77674" lon="7.00735">
        <ele>1029.7</ele>
        <time>2019-12-12T12:09:23Z</time>
      </trkpt>
      <trkpt lat="43.77674" lon="7.00734">
        <ele>1029.7</ele>
        <time>2019-12-12T12:09:25Z</time>
      </trkpt>
      <trkpt lat="43.77674" lon="7.00734">
        <ele>1030.2</ele>
        <time>2019-12-12T12:09:27Z</time>
      </trkpt>
      <trkpt lat="43.77674" lon="7.00734">
        <ele>1030.7</ele>
        <time>2019-12-12T12:09:29Z</time>
      </trkpt>
      <trkpt lat="43.77674" lon="7.00734">
        <ele>1030.7</ele>
        <time>2019-12-12T12:09:31Z</time>
      </trkpt>
      <trkpt lat="43.77674" lon="7.00734">
        <ele>1031.2</ele>
        <time>2019-12-12T12:09:33Z</time>
      </trkpt>
      <trkpt lat="43.77674" lon="7.00734">
        <ele>1031.2</ele>
        <time>2019-12-12T12:09:35Z</time>
      </trkpt>
      <trkpt lat="43.77674" lon="7.00734">
        <ele>1031.6</ele>
        <time>2019-12-12T12:09:37Z</time>
      </trkpt>
      <trkpt lat="43.77674" lon="7.00734">
        <ele>1032.1</ele>
        <time>2019-12-12T12:09:39Z</time>
      </trkpt>
      <trkpt lat="43.77674" lon="7.00733">
        <ele>1032.6</ele>
        <time>2019-12-12T12:09:41Z</time>
      </trkpt>
      <trkpt lat="43.77673" lon="7.00733">
        <ele>1032.6</ele>
        <time>2019-12-12T12:09:43Z</time>
      </trkpt>
      <trkpt lat="43.77673" lon="7.00733">
        <ele>1033.1</ele>
        <time>2019-12-12T12:09:45Z</time>
      </trkpt>
      <trkpt lat="43.77673" lon="7.00733">
        <ele>1033.6</ele>
        <time>2019-12-12T12:09:47Z</time>
      </trkpt>
      <trkpt lat="43.77673" lon="7.00733">
        <ele>1034</ele>
        <time>2019-12-12T12:09:49Z</time>
      </trkpt>
      <trkpt lat="43.77673" lon="7.00733">
        <ele>1034</ele>
        <time>2019-12-12T12:09:51Z</time>
      </trkpt>
      <trkpt lat="43.77674" lon="7.00733">
        <ele>1034.5</ele>
        <time>2019-12-12T12:09:53Z</time>
      </trkpt>
      <trkpt lat="43.77674" lon="7.00733">
        <ele>1035</ele>
        <time>2019-12-12T12:09:55Z</time>
      </trkpt>
      <trkpt lat="43.77674" lon="7.00735">
        <ele>1035.5</ele>
        <time>2019-12-12T12:09:57Z</time>
      </trkpt>
      <trkpt lat="43.77672" lon="7.00735">
        <ele>1036.4</ele>
        <time>2019-12-12T12:09:59Z</time>
      </trkpt>
      <trkpt lat="43.77674" lon="7.00732">
        <ele>1036.4</ele>
        <time>2019-12-12T12:10:01Z</time>
      </trkpt>
      <trkpt lat="43.77676" lon="7.00731">
        <ele>1036.9</ele>
        <time>2019-12-12T12:10:03Z</time>
      </trkpt>
      <trkpt lat="43.77675" lon="7.00733">
        <ele>1036.9</ele>
        <time>2019-12-12T12:10:05Z</time>
      </trkpt>
      <trkpt lat="43.7767" lon="7.00731">
        <ele>1035.5</ele>
        <time>2019-12-12T12:10:07Z</time>
      </trkpt>
      <trkpt lat="43.77674" lon="7.00731">
        <ele>1035.5</ele>
        <time>2019-12-12T12:10:09Z</time>
      </trkpt>
      <trkpt lat="43.77673" lon="7.00733">
        <ele>1035.5</ele>
        <time>2019-12-12T12:10:11Z</time>
      </trkpt>
      <trkpt lat="43.77673" lon="7.00734">
        <ele>1035.5</ele>
        <time>2019-12-12T12:10:13Z</time>
      </trkpt>
      <trkpt lat="43.77673" lon="7.00734">
        <ele>1035.5</ele>
        <time>2019-12-12T12:10:15Z</time>
      </trkpt>
      <trkpt lat="43.77674" lon="7.00734">
        <ele>1035</ele>
        <time>2019-12-12T12:10:17Z</time>
      </trkpt>
      <trkpt lat="43.77674" lon="7.00733">
        <ele>1035</ele>
        <time>2019-12-12T12:10:19Z</time>
      </trkpt>
      <trkpt lat="43.77674" lon="7.00733">
        <ele>1035</ele>
        <time>2019-12-12T12:10:21Z</time>
      </trkpt>
      <trkpt lat="43.77674" lon="7.00733">
        <ele>1035</ele>
        <time>2019-12-12T12:10:23Z</time>
      </trkpt>
      <trkpt lat="43.77673" lon="7.00733">
        <ele>1035</ele>
        <time>2019-12-12T12:10:25Z</time>
      </trkpt>
      <trkpt lat="43.77673" lon="7.00733">
        <ele>1035</ele>
        <time>2019-12-12T12:10:27Z</time>
      </trkpt>
      <trkpt lat="43.77673" lon="7.00732">
        <ele>1034.5</ele>
        <time>2019-12-12T12:10:29Z</time>
      </trkpt>
      <trkpt lat="43.77675" lon="7.00733">
        <ele>1034.5</ele>
        <time>2019-12-12T12:10:31Z</time>
      </trkpt>
      <trkpt lat="43.77678" lon="7.00734">
        <ele>1033.1</ele>
        <time>2019-12-12T12:10:33Z</time>
      </trkpt>
      <trkpt lat="43.77678" lon="7.00734">
        <ele>1033.1</ele>
        <time>2019-12-12T12:10:35Z</time>
      </trkpt>
      <trkpt lat="43.77677" lon="7.00732">
        <ele>1033.1</ele>
        <time>2019-12-12T12:10:37Z</time>
      </trkpt>
      <trkpt lat="43.77673" lon="7.00731">
        <ele>1033.1</ele>
        <time>2019-12-12T12:10:39Z</time>
      </trkpt>
      <trkpt lat="43.77668" lon="7.00733">
        <ele>1033.1</ele>
        <time>2019-12-12T12:10:41Z</time>
      </trkpt>
      <trkpt lat="43.77663" lon="7.0073">
        <ele>1033.1</ele>
        <time>2019-12-12T12:10:43Z</time>
      </trkpt>
      <trkpt lat="43.77658" lon="7.00724">
        <ele>1033.1</ele>
        <time>2019-12-12T12:10:45Z</time>
      </trkpt>
      <trkpt lat="43.77655" lon="7.00717">
        <ele>1032.6</ele>
        <time>2019-12-12T12:10:47Z</time>
      </trkpt>
      <trkpt lat="43.77653" lon="7.00709">
        <ele>1032.6</ele>
        <time>2019-12-12T12:10:49Z</time>
      </trkpt>
      <trkpt lat="43.7765" lon="7.00698">
        <ele>1032.6</ele>
        <time>2019-12-12T12:10:51Z</time>
      </trkpt>
      <trkpt lat="43.77646" lon="7.00688">
        <ele>1032.6</ele>
        <time>2019-12-12T12:10:53Z</time>
      </trkpt>
      <trkpt lat="43.77642" lon="7.00679">
        <ele>1032.1</ele>
        <time>2019-12-12T12:10:55Z</time>
      </trkpt>
      <trkpt lat="43.77637" lon="7.00674">
        <ele>1031.6</ele>
        <time>2019-12-12T12:10:57Z</time>
      </trkpt>
      <trkpt lat="43.77631" lon="7.00673">
        <ele>1031.2</ele>
        <time>2019-12-12T12:10:59Z</time>
      </trkpt>
      <trkpt lat="43.77624" lon="7.00671">
        <ele>1030.2</ele>
        <time>2019-12-12T12:11:01Z</time>
      </trkpt>
      <trkpt lat="43.77617" lon="7.0067">
        <ele>1029.7</ele>
        <time>2019-12-12T12:11:03Z</time>
      </trkpt>
      <trkpt lat="43.7761" lon="7.00669">
        <ele>1029.2</ele>
        <time>2019-12-12T12:11:05Z</time>
      </trkpt>
      <trkpt lat="43.77605" lon="7.0067">
        <ele>1029.2</ele>
        <time>2019-12-12T12:11:07Z</time>
      </trkpt>
      <trkpt lat="43.776" lon="7.0067">
        <ele>1029.2</ele>
        <time>2019-12-12T12:11:09Z</time>
      </trkpt>
      <trkpt lat="43.77597" lon="7.00671">
        <ele>1028.7</ele>
        <time>2019-12-12T12:11:11Z</time>
      </trkpt>
      <trkpt lat="43.77594" lon="7.00674">
        <ele>1028.7</ele>
        <time>2019-12-12T12:11:13Z</time>
      </trkpt>
      <trkpt lat="43.77591" lon="7.00677">
        <ele>1028.7</ele>
        <time>2019-12-12T12:11:15Z</time>
      </trkpt>
      <trkpt lat="43.77588" lon="7.0068">
        <ele>1028.3</ele>
        <time>2019-12-12T12:11:17Z</time>
      </trkpt>
      <trkpt lat="43.77585" lon="7.00684">
        <ele>1027.8</ele>
        <time>2019-12-12T12:11:19Z</time>
      </trkpt>
      <trkpt lat="43.77582" lon="7.00691">
        <ele>1027.8</ele>
        <time>2019-12-12T12:11:21Z</time>
      </trkpt>
      <trkpt lat="43.77582" lon="7.00698">
        <ele>1027.3</ele>
        <time>2019-12-12T12:11:23Z</time>
      </trkpt>
      <trkpt lat="43.7758" lon="7.00702">
        <ele>1027.3</ele>
        <time>2019-12-12T12:11:25Z</time>
      </trkpt>
      <trkpt lat="43.77577" lon="7.00708">
        <ele>1027.3</ele>
        <time>2019-12-12T12:11:27Z</time>
      </trkpt>
      <trkpt lat="43.77575" lon="7.00715">
        <ele>1027.3</ele>
        <time>2019-12-12T12:11:29Z</time>
      </trkpt>
      <trkpt lat="43.77572" lon="7.00722">
        <ele>1027.3</ele>
        <time>2019-12-12T12:11:31Z</time>
      </trkpt>
      <trkpt lat="43.77569" lon="7.00728">
        <ele>1027.8</ele>
        <time>2019-12-12T12:11:33Z</time>
      </trkpt>
      <trkpt lat="43.77566" lon="7.00733">
        <ele>1027.3</ele>
        <time>2019-12-12T12:11:35Z</time>
      </trkpt>
      <trkpt lat="43.77562" lon="7.00739">
        <ele>1027.3</ele>
        <time>2019-12-12T12:11:37Z</time>
      </trkpt>
      <trkpt lat="43.77559" lon="7.00743">
        <ele>1027.3</ele>
        <time>2019-12-12T12:11:39Z</time>
      </trkpt>
      <trkpt lat="43.77558" lon="7.00751">
        <ele>1027.3</ele>
        <time>2019-12-12T12:11:41Z</time>
      </trkpt>
      <trkpt lat="43.77556" lon="7.00757">
        <ele>1027.3</ele>
        <time>2019-12-12T12:11:43Z</time>
      </trkpt>
      <trkpt lat="43.77552" lon="7.00764">
        <ele>1026.8</ele>
        <time>2019-12-12T12:11:45Z</time>
      </trkpt>
      <trkpt lat="43.77548" lon="7.00771">
        <ele>1027.3</ele>
        <time>2019-12-12T12:11:47Z</time>
      </trkpt>
      <trkpt lat="43.77542" lon="7.00777">
        <ele>1027.3</ele>
        <time>2019-12-12T12:11:49Z</time>
      </trkpt>
      <trkpt lat="43.77538" lon="7.00786">
        <ele>1027.8</ele>
        <time>2019-12-12T12:11:51Z</time>
      </trkpt>
      <trkpt lat="43.77534" lon="7.00795">
        <ele>1028.3</ele>
        <time>2019-12-12T12:11:53Z</time>
      </trkpt>
      <trkpt lat="43.77526" lon="7.00806">
        <ele>1029.2</ele>
        <time>2019-12-12T12:11:55Z</time>
      </trkpt>
      <trkpt lat="43.77518" lon="7.00818">
        <ele>1029.2</ele>
        <time>2019-12-12T12:11:57Z</time>
      </trkpt>
      <trkpt lat="43.77511" lon="7.00827">
        <ele>1029.2</ele>
        <time>2019-12-12T12:11:59Z</time>
      </trkpt>
      <trkpt lat="43.77504" lon="7.00835">
        <ele>1029.2</ele>
        <time>2019-12-12T12:12:01Z</time>
      </trkpt>
      <trkpt lat="43.77498" lon="7.00843">
        <ele>1029.7</ele>
        <time>2019-12-12T12:12:03Z</time>
      </trkpt>
      <trkpt lat="43.77493" lon="7.00851">
        <ele>1029.7</ele>
        <time>2019-12-12T12:12:05Z</time>
      </trkpt>
      <trkpt lat="43.77489" lon="7.00856">
        <ele>1030.2</ele>
        <time>2019-12-12T12:12:07Z</time>
      </trkpt>
      <trkpt lat="43.77486" lon="7.00863">
        <ele>1030.7</ele>
        <time>2019-12-12T12:12:09Z</time>
      </trkpt>
      <trkpt lat="43.77484" lon="7.00872">
        <ele>1030.7</ele>
        <time>2019-12-12T12:12:11Z</time>
      </trkpt>
      <trkpt lat="43.77479" lon="7.0088">
        <ele>1030.7</ele>
        <time>2019-12-12T12:12:13Z</time>
      </trkpt>
      <trkpt lat="43.77476" lon="7.00886">
        <ele>1031.2</ele>
        <time>2019-12-12T12:12:15Z</time>
      </trkpt>
      <trkpt lat="43.77473" lon="7.0089">
        <ele>1031.2</ele>
        <time>2019-12-12T12:12:17Z</time>
      </trkpt>
      <trkpt lat="43.7747" lon="7.00895">
        <ele>1031.2</ele>
        <time>2019-12-12T12:12:19Z</time>
      </trkpt>
      <trkpt lat="43.77467" lon="7.00903">
        <ele>1031.2</ele>
        <time>2019-12-12T12:12:21Z</time>
      </trkpt>
      <trkpt lat="43.77466" lon="7.00909">
        <ele>1032.1</ele>
        <time>2019-12-12T12:12:23Z</time>
      </trkpt>
      <trkpt lat="43.77462" lon="7.00915">
        <ele>1032.6</ele>
        <time>2019-12-12T12:12:25Z</time>
      </trkpt>
      <trkpt lat="43.77458" lon="7.0092">
        <ele>1033.1</ele>
        <time>2019-12-12T12:12:27Z</time>
      </trkpt>
      <trkpt lat="43.77453" lon="7.00923">
        <ele>1033.1</ele>
        <time>2019-12-12T12:12:29Z</time>
      </trkpt>
      <trkpt lat="43.77446" lon="7.00926">
        <ele>1032.6</ele>
        <time>2019-12-12T12:12:31Z</time>
      </trkpt>
      <trkpt lat="43.77442" lon="7.00932">
        <ele>1032.1</ele>
        <time>2019-12-12T12:12:33Z</time>
      </trkpt>
      <trkpt lat="43.77436" lon="7.00939">
        <ele>1032.6</ele>
        <time>2019-12-12T12:12:35Z</time>
      </trkpt>
      <trkpt lat="43.77431" lon="7.00944">
        <ele>1032.1</ele>
        <time>2019-12-12T12:12:37Z</time>
      </trkpt>
      <trkpt lat="43.77424" lon="7.00944">
        <ele>1032.1</ele>
        <time>2019-12-12T12:12:39Z</time>
      </trkpt>
      <trkpt lat="43.77418" lon="7.00946">
        <ele>1032.1</ele>
        <time>2019-12-12T12:12:41Z</time>
      </trkpt>
      <trkpt lat="43.77412" lon="7.00948">
        <ele>1032.6</ele>
        <time>2019-12-12T12:12:43Z</time>
      </trkpt>
      <trkpt lat="43.77408" lon="7.0095">
        <ele>1032.6</ele>
        <time>2019-12-12T12:12:45Z</time>
      </trkpt>
      <trkpt lat="43.77407" lon="7.00952">
        <ele>1031.2</ele>
        <time>2019-12-12T12:12:47Z</time>
      </trkpt>
      <trkpt lat="43.77407" lon="7.00951">
        <ele>1031.2</ele>
        <time>2019-12-12T12:12:49Z</time>
      </trkpt>
      <trkpt lat="43.77406" lon="7.00953">
        <ele>1032.1</ele>
        <time>2019-12-12T12:12:51Z</time>
      </trkpt>
      <trkpt lat="43.77405" lon="7.00953">
        <ele>1032.6</ele>
        <time>2019-12-12T12:12:53Z</time>
      </trkpt>
      <trkpt lat="43.77405" lon="7.00954">
        <ele>1032.6</ele>
        <time>2019-12-12T12:12:55Z</time>
      </trkpt>
      <trkpt lat="43.77405" lon="7.00954">
        <ele>1032.6</ele>
        <time>2019-12-12T12:12:57Z</time>
      </trkpt>
      <trkpt lat="43.77405" lon="7.00954">
        <ele>1032.6</ele>
        <time>2019-12-12T12:12:59Z</time>
      </trkpt>
      <trkpt lat="43.77405" lon="7.00954">
        <ele>1032.6</ele>
        <time>2019-12-12T12:13:01Z</time>
      </trkpt>
      <trkpt lat="43.77405" lon="7.00954">
        <ele>1032.6</ele>
        <time>2019-12-12T12:13:03Z</time>
      </trkpt>
      <trkpt lat="43.77405" lon="7.00954">
        <ele>1032.6</ele>
        <time>2019-12-12T12:13:05Z</time>
      </trkpt>
      <trkpt lat="43.77405" lon="7.00954">
        <ele>1032.6</ele>
        <time>2019-12-12T12:13:07Z</time>
      </trkpt>
      <trkpt lat="43.77405" lon="7.00954">
        <ele>1032.6</ele>
        <time>2019-12-12T12:13:09Z</time>
      </trkpt>
      <trkpt lat="43.77405" lon="7.00954">
        <ele>1032.6</ele>
        <time>2019-12-12T12:13:11Z</time>
      </trkpt>
      <trkpt lat="43.77405" lon="7.00954">
        <ele>1032.6</ele>
        <time>2019-12-12T12:13:13Z</time>
      </trkpt>
      <trkpt lat="43.77405" lon="7.00954">
        <ele>1032.6</ele>
        <time>2019-12-12T12:13:15Z</time>
      </trkpt>
      <trkpt lat="43.77405" lon="7.00954">
        <ele>1032.6</ele>
        <time>2019-12-12T12:13:17Z</time>
      </trkpt>
      <trkpt lat="43.77405" lon="7.00954">
        <ele>1032.6</ele>
        <time>2019-12-12T12:13:19Z</time>
      </trkpt>
      <trkpt lat="43.77405" lon="7.00954">
        <ele>1032.6</ele>
        <time>2019-12-12T12:13:21Z</time>
      </trkpt>
      <trkpt lat="43.77405" lon="7.00954">
        <ele>1032.6</ele>
        <time>2019-12-12T12:13:23Z</time>
      </trkpt>
      <trkpt lat="43.77405" lon="7.00954">
        <ele>1032.6</ele>
        <time>2019-12-12T12:13:25Z</time>
      </trkpt>
      <trkpt lat="43.77405" lon="7.00954">
        <ele>1032.6</ele>
        <time>2019-12-12T12:13:27Z</time>
      </trkpt>
      <trkpt lat="43.77405" lon="7.00954">
        <ele>1032.6</ele>
        <time>2019-12-12T12:13:29Z</time>
      </trkpt>
      <trkpt lat="43.77405" lon="7.00954">
        <ele>1032.6</ele>
        <time>2019-12-12T12:13:31Z</time>
      </trkpt>
      <trkpt lat="43.77405" lon="7.00954">
        <ele>1032.6</ele>
        <time>2019-12-12T12:13:33Z</time>
      </trkpt>
      <trkpt lat="43.77405" lon="7.00954">
        <ele>1032.6</ele>
        <time>2019-12-12T12:13:35Z</time>
      </trkpt>
      <trkpt lat="43.77405" lon="7.00954">
        <ele>1032.6</ele>
        <time>2019-12-12T12:13:37Z</time>
      </trkpt>
      <trkpt lat="43.77405" lon="7.00954">
        <ele>1032.6</ele>
        <time>2019-12-12T12:13:39Z</time>
      </trkpt>
      <trkpt lat="43.77405" lon="7.00954">
        <ele>1032.6</ele>
        <time>2019-12-12T12:13:41Z</time>
      </trkpt>
      <trkpt lat="43.77404" lon="7.00953">
        <ele>1032.6</ele>
        <time>2019-12-12T12:13:43Z</time>
      </trkpt>
      <trkpt lat="43.77404" lon="7.00953">
        <ele>1032.6</ele>
        <time>2019-12-12T12:13:45Z</time>
      </trkpt>
      <trkpt lat="43.77404" lon="7.00951">
        <ele>1032.1</ele>
        <time>2019-12-12T12:13:47Z</time>
      </trkpt>
      <trkpt lat="43.77402" lon="7.00947">
        <ele>1031.2</ele>
        <time>2019-12-12T12:13:49Z</time>
      </trkpt>
      <trkpt lat="43.77399" lon="7.00933">
        <ele>1030.2</ele>
        <time>2019-12-12T12:13:51Z</time>
      </trkpt>
      <trkpt lat="43.77397" lon="7.00926">
        <ele>1029.7</ele>
        <time>2019-12-12T12:13:53Z</time>
      </trkpt>
      <trkpt lat="43.77393" lon="7.00918">
        <ele>1029.2</ele>
        <time>2019-12-12T12:13:55Z</time>
      </trkpt>
      <trkpt lat="43.77391" lon="7.00911">
        <ele>1029.2</ele>
        <time>2019-12-12T12:13:57Z</time>
      </trkpt>
      <trkpt lat="43.77389" lon="7.00905">
        <ele>1029.2</ele>
        <time>2019-12-12T12:13:59Z</time>
      </trkpt>
      <trkpt lat="43.77386" lon="7.00898">
        <ele>1028.7</ele>
        <time>2019-12-12T12:14:01Z</time>
      </trkpt>
      <trkpt lat="43.77383" lon="7.00892">
        <ele>1028.3</ele>
        <time>2019-12-12T12:14:03Z</time>
      </trkpt>
      <trkpt lat="43.77381" lon="7.00888">
        <ele>1026.8</ele>
        <time>2019-12-12T12:14:05Z</time>
      </trkpt>
      <trkpt lat="43.77379" lon="7.00884">
        <ele>1026.8</ele>
        <time>2019-12-12T12:14:07Z</time>
      </trkpt>
      <trkpt lat="43.77379" lon="7.00881">
        <ele>1026.3</ele>
        <time>2019-12-12T12:14:09Z</time>
      </trkpt>
      <trkpt lat="43.77379" lon="7.00881">
        <ele>1025.4</ele>
        <time>2019-12-12T12:14:11Z</time>
      </trkpt>
      <trkpt lat="43.7738" lon="7.0088">
        <ele>1024.9</ele>
        <time>2019-12-12T12:14:13Z</time>
      </trkpt>
      <trkpt lat="43.77379" lon="7.00879">
        <ele>1023.5</ele>
        <time>2019-12-12T12:14:15Z</time>
      </trkpt>
      <trkpt lat="43.77379" lon="7.00879">
        <ele>1023.5</ele>
        <time>2019-12-12T12:14:17Z</time>
      </trkpt>
      <trkpt lat="43.77379" lon="7.00878">
        <ele>1023.5</ele>
        <time>2019-12-12T12:14:19Z</time>
      </trkpt>
      <trkpt lat="43.77379" lon="7.00878">
        <ele>1023.5</ele>
        <time>2019-12-12T12:14:21Z</time>
      </trkpt>
      <trkpt lat="43.77378" lon="7.00877">
        <ele>1023.5</ele>
        <time>2019-12-12T12:14:23Z</time>
      </trkpt>
      <trkpt lat="43.77378" lon="7.00877">
        <ele>1023.5</ele>
        <time>2019-12-12T12:14:25Z</time>
      </trkpt>
      <trkpt lat="43.77378" lon="7.00876">
        <ele>1023.5</ele>
        <time>2019-12-12T12:14:27Z</time>
      </trkpt>
      <trkpt lat="43.77378" lon="7.00875">
        <ele>1023.5</ele>
        <time>2019-12-12T12:14:29Z</time>
      </trkpt>
      <trkpt lat="43.77379" lon="7.00874">
        <ele>1023.5</ele>
        <time>2019-12-12T12:14:31Z</time>
      </trkpt>
      <trkpt lat="43.77379" lon="7.00874">
        <ele>1023.9</ele>
        <time>2019-12-12T12:14:33Z</time>
      </trkpt>
      <trkpt lat="43.77379" lon="7.00874">
        <ele>1023.9</ele>
        <time>2019-12-12T12:14:35Z</time>
      </trkpt>
      <trkpt lat="43.77379" lon="7.00874">
        <ele>1023.9</ele>
        <time>2019-12-12T12:14:37Z</time>
      </trkpt>
      <trkpt lat="43.77378" lon="7.00873">
        <ele>1023.9</ele>
        <time>2019-12-12T12:14:39Z</time>
      </trkpt>
      <trkpt lat="43.77378" lon="7.00873">
        <ele>1023.9</ele>
        <time>2019-12-12T12:14:41Z</time>
      </trkpt>
      <trkpt lat="43.77378" lon="7.00873">
        <ele>1023.9</ele>
        <time>2019-12-12T12:14:43Z</time>
      </trkpt>
      <trkpt lat="43.77378" lon="7.00873">
        <ele>1023.9</ele>
        <time>2019-12-12T12:14:45Z</time>
      </trkpt>
      <trkpt lat="43.77378" lon="7.00873">
        <ele>1023.9</ele>
        <time>2019-12-12T12:14:47Z</time>
      </trkpt>
      <trkpt lat="43.77378" lon="7.00873">
        <ele>1023.9</ele>
        <time>2019-12-12T12:14:49Z</time>
      </trkpt>
      <trkpt lat="43.77378" lon="7.00873">
        <ele>1023.9</ele>
        <time>2019-12-12T12:14:51Z</time>
      </trkpt>
      <trkpt lat="43.77378" lon="7.00874">
        <ele>1023.9</ele>
        <time>2019-12-12T12:14:53Z</time>
      </trkpt>
      <trkpt lat="43.77378" lon="7.00874">
        <ele>1023.9</ele>
        <time>2019-12-12T12:14:55Z</time>
      </trkpt>
      <trkpt lat="43.77378" lon="7.00874">
        <ele>1023.9</ele>
        <time>2019-12-12T12:14:57Z</time>
      </trkpt>
      <trkpt lat="43.77378" lon="7.00874">
        <ele>1023.9</ele>
        <time>2019-12-12T12:14:59Z</time>
      </trkpt>
      <trkpt lat="43.77378" lon="7.00874">
        <ele>1023.9</ele>
        <time>2019-12-12T12:15:01Z</time>
      </trkpt>
      <trkpt lat="43.77378" lon="7.00874">
        <ele>1023.9</ele>
        <time>2019-12-12T12:15:03Z</time>
      </trkpt>
      <trkpt lat="43.77378" lon="7.00875">
        <ele>1023.9</ele>
        <time>2019-12-12T12:15:05Z</time>
      </trkpt>
      <trkpt lat="43.77378" lon="7.00875">
        <ele>1023.9</ele>
        <time>2019-12-12T12:15:07Z</time>
      </trkpt>
      <trkpt lat="43.77378" lon="7.00875">
        <ele>1023.9</ele>
        <time>2019-12-12T12:15:09Z</time>
      </trkpt>
      <trkpt lat="43.77378" lon="7.00875">
        <ele>1023.9</ele>
        <time>2019-12-12T12:15:11Z</time>
      </trkpt>
      <trkpt lat="43.77379" lon="7.00877">
        <ele>1023.5</ele>
        <time>2019-12-12T12:15:13Z</time>
      </trkpt>
      <trkpt lat="43.77379" lon="7.00882">
        <ele>1022.5</ele>
        <time>2019-12-12T12:15:15Z</time>
      </trkpt>
      <trkpt lat="43.7738" lon="7.00887">
        <ele>1022</ele>
        <time>2019-12-12T12:15:17Z</time>
      </trkpt>
      <trkpt lat="43.77381" lon="7.00894">
        <ele>1022</ele>
        <time>2019-12-12T12:15:19Z</time>
      </trkpt>
      <trkpt lat="43.77381" lon="7.00901">
        <ele>1021.5</ele>
        <time>2019-12-12T12:15:21Z</time>
      </trkpt>
      <trkpt lat="43.77382" lon="7.00908">
        <ele>1021.1</ele>
        <time>2019-12-12T12:15:23Z</time>
      </trkpt>
      <trkpt lat="43.77384" lon="7.00913">
        <ele>1020.1</ele>
        <time>2019-12-12T12:15:25Z</time>
      </trkpt>
      <trkpt lat="43.77387" lon="7.00918">
        <ele>1019.1</ele>
        <time>2019-12-12T12:15:27Z</time>
      </trkpt>
      <trkpt lat="43.77388" lon="7.00924">
        <ele>1018.2</ele>
        <time>2019-12-12T12:15:29Z</time>
      </trkpt>
      <trkpt lat="43.7739" lon="7.00929">
        <ele>1017.2</ele>
        <time>2019-12-12T12:15:31Z</time>
      </trkpt>
      <trkpt lat="43.77392" lon="7.00935">
        <ele>1015.3</ele>
        <time>2019-12-12T12:15:33Z</time>
      </trkpt>
      <trkpt lat="43.77396" lon="7.00942">
        <ele>1013.8</ele>
        <time>2019-12-12T12:15:35Z</time>
      </trkpt>
      <trkpt lat="43.77398" lon="7.00946">
        <ele>1013.4</ele>
        <time>2019-12-12T12:15:37Z</time>
      </trkpt>
      <trkpt lat="43.77399" lon="7.00949">
        <ele>1012.4</ele>
        <time>2019-12-12T12:15:39Z</time>
      </trkpt>
      <trkpt lat="43.77399" lon="7.00952">
        <ele>1011.4</ele>
        <time>2019-12-12T12:15:41Z</time>
      </trkpt>
      <trkpt lat="43.77398" lon="7.00955">
        <ele>1010.5</ele>
        <time>2019-12-12T12:15:43Z</time>
      </trkpt>
      <trkpt lat="43.77397" lon="7.00958">
        <ele>1010</ele>
        <time>2019-12-12T12:15:45Z</time>
      </trkpt>
      <trkpt lat="43.77395" lon="7.0096">
        <ele>1008.6</ele>
        <time>2019-12-12T12:15:47Z</time>
      </trkpt>
      <trkpt lat="43.77395" lon="7.00963">
        <ele>1007.6</ele>
        <time>2019-12-12T12:15:49Z</time>
      </trkpt>
      <trkpt lat="43.77396" lon="7.00966">
        <ele>1007.1</ele>
        <time>2019-12-12T12:15:51Z</time>
      </trkpt>
      <trkpt lat="43.77397" lon="7.00967">
        <ele>1006.2</ele>
        <time>2019-12-12T12:15:53Z</time>
      </trkpt>
      <trkpt lat="43.77397" lon="7.00968">
        <ele>1007.6</ele>
        <time>2019-12-12T12:15:55Z</time>
      </trkpt>
      <trkpt lat="43.77396" lon="7.00969">
        <ele>1007.6</ele>
        <time>2019-12-12T12:15:57Z</time>
      </trkpt>
      <trkpt lat="43.77396" lon="7.00969">
        <ele>1007.1</ele>
        <time>2019-12-12T12:15:59Z</time>
      </trkpt>
      <trkpt lat="43.77395" lon="7.00969">
        <ele>1007.1</ele>
        <time>2019-12-12T12:16:01Z</time>
      </trkpt>
      <trkpt lat="43.77395" lon="7.00969">
        <ele>1007.1</ele>
        <time>2019-12-12T12:16:03Z</time>
      </trkpt>
      <trkpt lat="43.77395" lon="7.0097">
        <ele>1007.1</ele>
        <time>2019-12-12T12:16:05Z</time>
      </trkpt>
      <trkpt lat="43.77395" lon="7.0097">
        <ele>1006.6</ele>
        <time>2019-12-12T12:16:07Z</time>
      </trkpt>
      <trkpt lat="43.77393" lon="7.00974">
        <ele>1006.6</ele>
        <time>2019-12-12T12:16:09Z</time>
      </trkpt>
      <trkpt lat="43.77392" lon="7.00979">
        <ele>1006.6</ele>
        <time>2019-12-12T12:16:11Z</time>
      </trkpt>
      <trkpt lat="43.77391" lon="7.00982">
        <ele>1007.1</ele>
        <time>2019-12-12T12:16:13Z</time>
      </trkpt>
      <trkpt lat="43.7739" lon="7.00984">
        <ele>1007.1</ele>
        <time>2019-12-12T12:16:15Z</time>
      </trkpt>
      <trkpt lat="43.7739" lon="7.00987">
        <ele>1007.6</ele>
        <time>2019-12-12T12:16:17Z</time>
      </trkpt>
      <trkpt lat="43.77389" lon="7.0099">
        <ele>1008.1</ele>
        <time>2019-12-12T12:16:19Z</time>
      </trkpt>
      <trkpt lat="43.77389" lon="7.00992">
        <ele>1008.1</ele>
        <time>2019-12-12T12:16:21Z</time>
      </trkpt>
      <trkpt lat="43.77389" lon="7.00993">
        <ele>1008.1</ele>
        <time>2019-12-12T12:16:23Z</time>
      </trkpt>
      <trkpt lat="43.77389" lon="7.00994">
        <ele>1008.6</ele>
        <time>2019-12-12T12:16:25Z</time>
      </trkpt>
      <trkpt lat="43.77388" lon="7.00995">
        <ele>1008.6</ele>
        <time>2019-12-12T12:16:27Z</time>
      </trkpt>
      <trkpt lat="43.77388" lon="7.00995">
        <ele>1008.6</ele>
        <time>2019-12-12T12:16:29Z</time>
      </trkpt>
      <trkpt lat="43.77388" lon="7.00995">
        <ele>1009</ele>
        <time>2019-12-12T12:16:31Z</time>
      </trkpt>
      <trkpt lat="43.77388" lon="7.00995">
        <ele>1009</ele>
        <time>2019-12-12T12:16:33Z</time>
      </trkpt>
      <trkpt lat="43.77388" lon="7.00995">
        <ele>1009</ele>
        <time>2019-12-12T12:16:35Z</time>
      </trkpt>
      <trkpt lat="43.77387" lon="7.00996">
        <ele>1009</ele>
        <time>2019-12-12T12:16:37Z</time>
      </trkpt>
      <trkpt lat="43.77387" lon="7.00996">
        <ele>1009</ele>
        <time>2019-12-12T12:16:39Z</time>
      </trkpt>
      <trkpt lat="43.77387" lon="7.00996">
        <ele>1009</ele>
        <time>2019-12-12T12:16:41Z</time>
      </trkpt>
      <trkpt lat="43.77386" lon="7.00996">
        <ele>1009</ele>
        <time>2019-12-12T12:16:43Z</time>
      </trkpt>
      <trkpt lat="43.77386" lon="7.00997">
        <ele>1009</ele>
        <time>2019-12-12T12:16:45Z</time>
      </trkpt>
      <trkpt lat="43.77386" lon="7.00996">
        <ele>1009</ele>
        <time>2019-12-12T12:16:47Z</time>
      </trkpt>
      <trkpt lat="43.77384" lon="7.00998">
        <ele>1009.5</ele>
        <time>2019-12-12T12:16:49Z</time>
      </trkpt>
      <trkpt lat="43.77384" lon="7.00998">
        <ele>1010</ele>
        <time>2019-12-12T12:16:51Z</time>
      </trkpt>
      <trkpt lat="43.77384" lon="7.00998">
        <ele>1010</ele>
        <time>2019-12-12T12:16:53Z</time>
      </trkpt>
      <trkpt lat="43.77383" lon="7.00998">
        <ele>1010</ele>
        <time>2019-12-12T12:16:55Z</time>
      </trkpt>
      <trkpt lat="43.77383" lon="7.00999">
        <ele>1010</ele>
        <time>2019-12-12T12:16:57Z</time>
      </trkpt>
      <trkpt lat="43.77383" lon="7.00999">
        <ele>1010</ele>
        <time>2019-12-12T12:16:59Z</time>
      </trkpt>
      <trkpt lat="43.77381" lon="7.01">
        <ele>1010</ele>
        <time>2019-12-12T12:17:01Z</time>
      </trkpt>
      <trkpt lat="43.7738" lon="7.01001">
        <ele>1010.5</ele>
        <time>2019-12-12T12:17:03Z</time>
      </trkpt>
      <trkpt lat="43.7738" lon="7.01001">
        <ele>1010.5</ele>
        <time>2019-12-12T12:17:05Z</time>
      </trkpt>
      <trkpt lat="43.77381" lon="7.00998">
        <ele>1010.5</ele>
        <time>2019-12-12T12:17:07Z</time>
      </trkpt>
      <trkpt lat="43.77383" lon="7.00996">
        <ele>1011</ele>
        <time>2019-12-12T12:17:09Z</time>
      </trkpt>
      <trkpt lat="43.77385" lon="7.00993">
        <ele>1011</ele>
        <time>2019-12-12T12:17:11Z</time>
      </trkpt>
      <trkpt lat="43.77386" lon="7.00992">
        <ele>1011</ele>
        <time>2019-12-12T12:17:13Z</time>
      </trkpt>
      <trkpt lat="43.77387" lon="7.0099">
        <ele>1010.5</ele>
        <time>2019-12-12T12:17:15Z</time>
      </trkpt>
      <trkpt lat="43.77388" lon="7.00987">
        <ele>1010.5</ele>
        <time>2019-12-12T12:17:17Z</time>
      </trkpt>
      <trkpt lat="43.77389" lon="7.00985">
        <ele>1010</ele>
        <time>2019-12-12T12:17:19Z</time>
      </trkpt>
      <trkpt lat="43.7739" lon="7.00983">
        <ele>1010</ele>
        <time>2019-12-12T12:17:21Z</time>
      </trkpt>
      <trkpt lat="43.77391" lon="7.00981">
        <ele>1010</ele>
        <time>2019-12-12T12:17:23Z</time>
      </trkpt>
      <trkpt lat="43.77393" lon="7.00978">
        <ele>1010</ele>
        <time>2019-12-12T12:17:25Z</time>
      </trkpt>
      <trkpt lat="43.77395" lon="7.00976">
        <ele>1010</ele>
        <time>2019-12-12T12:17:27Z</time>
      </trkpt>
      <trkpt lat="43.77396" lon="7.00974">
        <ele>1010</ele>
        <time>2019-12-12T12:17:29Z</time>
      </trkpt>
      <trkpt lat="43.77397" lon="7.00972">
        <ele>1009.5</ele>
        <time>2019-12-12T12:17:31Z</time>
      </trkpt>
      <trkpt lat="43.77397" lon="7.00969">
        <ele>1009.5</ele>
        <time>2019-12-12T12:17:33Z</time>
      </trkpt>
      <trkpt lat="43.77398" lon="7.00967">
        <ele>1009.5</ele>
        <time>2019-12-12T12:17:35Z</time>
      </trkpt>
      <trkpt lat="43.774" lon="7.00965">
        <ele>1009.5</ele>
        <time>2019-12-12T12:17:37Z</time>
      </trkpt>
      <trkpt lat="43.774" lon="7.00964">
        <ele>1010</ele>
        <time>2019-12-12T12:17:39Z</time>
      </trkpt>
      <trkpt lat="43.77402" lon="7.00961">
        <ele>1010</ele>
        <time>2019-12-12T12:17:41Z</time>
      </trkpt>
      <trkpt lat="43.77403" lon="7.00961">
        <ele>1010</ele>
        <time>2019-12-12T12:17:43Z</time>
      </trkpt>
      <trkpt lat="43.77404" lon="7.00962">
        <ele>1010</ele>
        <time>2019-12-12T12:17:45Z</time>
      </trkpt>
      <trkpt lat="43.77405" lon="7.00963">
        <ele>1010</ele>
        <time>2019-12-12T12:17:47Z</time>
      </trkpt>
      <trkpt lat="43.77406" lon="7.00966">
        <ele>1010</ele>
        <time>2019-12-12T12:17:49Z</time>
      </trkpt>
      <trkpt lat="43.77406" lon="7.00968">
        <ele>1010</ele>
        <time>2019-12-12T12:17:51Z</time>
      </trkpt>
      <trkpt lat="43.77408" lon="7.0097">
        <ele>1009.5</ele>
        <time>2019-12-12T12:17:53Z</time>
      </trkpt>
      <trkpt lat="43.77409" lon="7.00971">
        <ele>1009.5</ele>
        <time>2019-12-12T12:17:55Z</time>
      </trkpt>
      <trkpt lat="43.77412" lon="7.00974">
        <ele>1009.5</ele>
        <time>2019-12-12T12:17:57Z</time>
      </trkpt>
      <trkpt lat="43.77412" lon="7.00976">
        <ele>1009.5</ele>
        <time>2019-12-12T12:17:59Z</time>
      </trkpt>
      <trkpt lat="43.77412" lon="7.00978">
        <ele>1009.5</ele>
        <time>2019-12-12T12:18:01Z</time>
      </trkpt>
      <trkpt lat="43.77414" lon="7.0098">
        <ele>1009</ele>
        <time>2019-12-12T12:18:03Z</time>
      </trkpt>
      <trkpt lat="43.77417" lon="7.00981">
        <ele>1009</ele>
        <time>2019-12-12T12:18:05Z</time>
      </trkpt>
      <trkpt lat="43.77418" lon="7.00981">
        <ele>1008.6</ele>
        <time>2019-12-12T12:18:07Z</time>
      </trkpt>
      <trkpt lat="43.77419" lon="7.00982">
        <ele>1008.6</ele>
        <time>2019-12-12T12:18:09Z</time>
      </trkpt>
      <trkpt lat="43.77419" lon="7.00982">
        <ele>1008.6</ele>
        <time>2019-12-12T12:18:11Z</time>
      </trkpt>
      <trkpt lat="43.77419" lon="7.00983">
        <ele>1008.6</ele>
        <time>2019-12-12T12:18:13Z</time>
      </trkpt>
      <trkpt lat="43.77419" lon="7.00983">
        <ele>1008.6</ele>
        <time>2019-12-12T12:18:15Z</time>
      </trkpt>
      <trkpt lat="43.77419" lon="7.00983">
        <ele>1008.6</ele>
        <time>2019-12-12T12:18:17Z</time>
      </trkpt>
      <trkpt lat="43.77419" lon="7.00983">
        <ele>1008.6</ele>
        <time>2019-12-12T12:18:19Z</time>
      </trkpt>
      <trkpt lat="43.77419" lon="7.00983">
        <ele>1008.6</ele>
        <time>2019-12-12T12:18:21Z</time>
      </trkpt>
      <trkpt lat="43.77419" lon="7.00983">
        <ele>1008.6</ele>
        <time>2019-12-12T12:18:23Z</time>
      </trkpt>
      <trkpt lat="43.77419" lon="7.00984">
        <ele>1008.6</ele>
        <time>2019-12-12T12:18:25Z</time>
      </trkpt>
      <trkpt lat="43.77418" lon="7.00985">
        <ele>1008.6</ele>
        <time>2019-12-12T12:18:27Z</time>
      </trkpt>
      <trkpt lat="43.77419" lon="7.00988">
        <ele>1009</ele>
        <time>2019-12-12T12:18:29Z</time>
      </trkpt>
      <trkpt lat="43.77418" lon="7.0099">
        <ele>1009</ele>
        <time>2019-12-12T12:18:31Z</time>
      </trkpt>
      <trkpt lat="43.77419" lon="7.00993">
        <ele>1009</ele>
        <time>2019-12-12T12:18:33Z</time>
      </trkpt>
      <trkpt lat="43.77421" lon="7.00996">
        <ele>1009</ele>
        <time>2019-12-12T12:18:35Z</time>
      </trkpt>
      <trkpt lat="43.77422" lon="7.00998">
        <ele>1009</ele>
        <time>2019-12-12T12:18:37Z</time>
      </trkpt>
      <trkpt lat="43.77421" lon="7.01">
        <ele>1009</ele>
        <time>2019-12-12T12:18:39Z</time>
      </trkpt>
      <trkpt lat="43.7742" lon="7.01002">
        <ele>1009</ele>
        <time>2019-12-12T12:18:41Z</time>
      </trkpt>
      <trkpt lat="43.77419" lon="7.01005">
        <ele>1009</ele>
        <time>2019-12-12T12:18:43Z</time>
      </trkpt>
      <trkpt lat="43.77419" lon="7.01007">
        <ele>1008.6</ele>
        <time>2019-12-12T12:18:45Z</time>
      </trkpt>
      <trkpt lat="43.77417" lon="7.0101">
        <ele>1008.6</ele>
        <time>2019-12-12T12:18:47Z</time>
      </trkpt>
      <trkpt lat="43.77417" lon="7.01013">
        <ele>1008.1</ele>
        <time>2019-12-12T12:18:49Z</time>
      </trkpt>
      <trkpt lat="43.77417" lon="7.01016">
        <ele>1008.1</ele>
        <time>2019-12-12T12:18:51Z</time>
      </trkpt>
      <trkpt lat="43.77418" lon="7.01019">
        <ele>1007.6</ele>
        <time>2019-12-12T12:18:53Z</time>
      </trkpt>
      <trkpt lat="43.77419" lon="7.01022">
        <ele>1007.6</ele>
        <time>2019-12-12T12:18:55Z</time>
      </trkpt>
      <trkpt lat="43.77419" lon="7.01024">
        <ele>1007.1</ele>
        <time>2019-12-12T12:18:57Z</time>
      </trkpt>
      <trkpt lat="43.7742" lon="7.01027">
        <ele>1007.1</ele>
        <time>2019-12-12T12:18:59Z</time>
      </trkpt>
      <trkpt lat="43.77421" lon="7.01029">
        <ele>1006.6</ele>
        <time>2019-12-12T12:19:01Z</time>
      </trkpt>
      <trkpt lat="43.77421" lon="7.01032">
        <ele>1006.6</ele>
        <time>2019-12-12T12:19:03Z</time>
      </trkpt>
      <trkpt lat="43.77421" lon="7.01034">
        <ele>1006.2</ele>
        <time>2019-12-12T12:19:05Z</time>
      </trkpt>
      <trkpt lat="43.7742" lon="7.01038">
        <ele>1006.2</ele>
        <time>2019-12-12T12:19:07Z</time>
      </trkpt>
      <trkpt lat="43.7742" lon="7.01041">
        <ele>1006.2</ele>
        <time>2019-12-12T12:19:09Z</time>
      </trkpt>
      <trkpt lat="43.77423" lon="7.01044">
        <ele>1005.2</ele>
        <time>2019-12-12T12:19:11Z</time>
      </trkpt>
      <trkpt lat="43.77422" lon="7.01046">
        <ele>1005.2</ele>
        <time>2019-12-12T12:19:13Z</time>
      </trkpt>
      <trkpt lat="43.77423" lon="7.01047">
        <ele>1004.7</ele>
        <time>2019-12-12T12:19:15Z</time>
      </trkpt>
      <trkpt lat="43.77423" lon="7.01047">
        <ele>1004.7</ele>
        <time>2019-12-12T12:19:17Z</time>
      </trkpt>
      <trkpt lat="43.77422" lon="7.01048">
        <ele>1004.7</ele>
        <time>2019-12-12T12:19:19Z</time>
      </trkpt>
      <trkpt lat="43.77423" lon="7.01049">
        <ele>1004.7</ele>
        <time>2019-12-12T12:19:21Z</time>
      </trkpt>
      <trkpt lat="43.77423" lon="7.01051">
        <ele>1004.7</ele>
        <time>2019-12-12T12:19:23Z</time>
      </trkpt>
      <trkpt lat="43.77427" lon="7.01053">
        <ele>1004.2</ele>
        <time>2019-12-12T12:19:25Z</time>
      </trkpt>
      <trkpt lat="43.77427" lon="7.01055">
        <ele>1004.2</ele>
        <time>2019-12-12T12:19:27Z</time>
      </trkpt>
      <trkpt lat="43.77428" lon="7.01056">
        <ele>1004.2</ele>
        <time>2019-12-12T12:19:29Z</time>
      </trkpt>
      <trkpt lat="43.77427" lon="7.01057">
        <ele>1004.2</ele>
        <time>2019-12-12T12:19:31Z</time>
      </trkpt>
      <trkpt lat="43.77425" lon="7.01058">
        <ele>1004.2</ele>
        <time>2019-12-12T12:19:33Z</time>
      </trkpt>
      <trkpt lat="43.77424" lon="7.01059">
        <ele>1004.2</ele>
        <time>2019-12-12T12:19:35Z</time>
      </trkpt>
      <trkpt lat="43.77423" lon="7.01061">
        <ele>1004.2</ele>
        <time>2019-12-12T12:19:37Z</time>
      </trkpt>
      <trkpt lat="43.77421" lon="7.01062">
        <ele>1004.2</ele>
        <time>2019-12-12T12:19:39Z</time>
      </trkpt>
      <trkpt lat="43.77419" lon="7.01063">
        <ele>1004.2</ele>
        <time>2019-12-12T12:19:41Z</time>
      </trkpt>
      <trkpt lat="43.77418" lon="7.01063">
        <ele>1004.2</ele>
        <time>2019-12-12T12:19:43Z</time>
      </trkpt>
      <trkpt lat="43.77416" lon="7.01063">
        <ele>1004.2</ele>
        <time>2019-12-12T12:19:45Z</time>
      </trkpt>
      <trkpt lat="43.77415" lon="7.01063">
        <ele>1004.7</ele>
        <time>2019-12-12T12:19:47Z</time>
      </trkpt>
      <trkpt lat="43.77415" lon="7.01063">
        <ele>1004.7</ele>
        <time>2019-12-12T12:19:49Z</time>
      </trkpt>
      <trkpt lat="43.77414" lon="7.01062">
        <ele>1004.7</ele>
        <time>2019-12-12T12:19:51Z</time>
      </trkpt>
      <trkpt lat="43.77414" lon="7.01062">
        <ele>1004.7</ele>
        <time>2019-12-12T12:19:53Z</time>
      </trkpt>
      <trkpt lat="43.77413" lon="7.01062">
        <ele>1005.2</ele>
        <time>2019-12-12T12:19:55Z</time>
      </trkpt>
      <trkpt lat="43.77412" lon="7.01061">
        <ele>1005.2</ele>
        <time>2019-12-12T12:19:57Z</time>
      </trkpt>
      <trkpt lat="43.77412" lon="7.0106">
        <ele>1005.7</ele>
        <time>2019-12-12T12:19:59Z</time>
      </trkpt>
      <trkpt lat="43.77412" lon="7.0106">
        <ele>1005.7</ele>
        <time>2019-12-12T12:20:01Z</time>
      </trkpt>
      <trkpt lat="43.77413" lon="7.01059">
        <ele>1005.7</ele>
        <time>2019-12-12T12:20:03Z</time>
      </trkpt>
      <trkpt lat="43.77413" lon="7.01059">
        <ele>1005.7</ele>
        <time>2019-12-12T12:20:05Z</time>
      </trkpt>
      <trkpt lat="43.77412" lon="7.01059">
        <ele>1005.7</ele>
        <time>2019-12-12T12:20:07Z</time>
      </trkpt>
      <trkpt lat="43.77412" lon="7.0106">
        <ele>1005.7</ele>
        <time>2019-12-12T12:20:09Z</time>
      </trkpt>
      <trkpt lat="43.77412" lon="7.0106">
        <ele>1006.2</ele>
        <time>2019-12-12T12:20:11Z</time>
      </trkpt>
      <trkpt lat="43.77412" lon="7.0106">
        <ele>1006.2</ele>
        <time>2019-12-12T12:20:13Z</time>
      </trkpt>
      <trkpt lat="43.77412" lon="7.0106">
        <ele>1006.2</ele>
        <time>2019-12-12T12:20:15Z</time>
      </trkpt>
      <trkpt lat="43.77417" lon="7.01056">
        <ele>1005.7</ele>
        <time>2019-12-12T12:20:17Z</time>
      </trkpt>
      <trkpt lat="43.77419" lon="7.01054">
        <ele>1005.7</ele>
        <time>2019-12-12T12:20:19Z</time>
      </trkpt>
      <trkpt lat="43.7742" lon="7.01053">
        <ele>1005.2</ele>
        <time>2019-12-12T12:20:21Z</time>
      </trkpt>
      <trkpt lat="43.77421" lon="7.01053">
        <ele>1005.2</ele>
        <time>2019-12-12T12:20:23Z</time>
      </trkpt>
      <trkpt lat="43.77421" lon="7.01053">
        <ele>1005.2</ele>
        <time>2019-12-12T12:20:25Z</time>
      </trkpt>
      <trkpt lat="43.77421" lon="7.01053">
        <ele>1005.2</ele>
        <time>2019-12-12T12:20:27Z</time>
      </trkpt>
      <trkpt lat="43.77423" lon="7.01052">
        <ele>1005.2</ele>
        <time>2019-12-12T12:20:29Z</time>
      </trkpt>
      <trkpt lat="43.77425" lon="7.01051">
        <ele>1005.2</ele>
        <time>2019-12-12T12:20:31Z</time>
      </trkpt>
      <trkpt lat="43.77429" lon="7.0105">
        <ele>1005.7</ele>
        <time>2019-12-12T12:20:33Z</time>
      </trkpt>
      <trkpt lat="43.77431" lon="7.0105">
        <ele>1005.7</ele>
        <time>2019-12-12T12:20:35Z</time>
      </trkpt>
      <trkpt lat="43.77433" lon="7.01049">
        <ele>1005.7</ele>
        <time>2019-12-12T12:20:37Z</time>
      </trkpt>
      <trkpt lat="43.77434" lon="7.0105">
        <ele>1005.2</ele>
        <time>2019-12-12T12:20:39Z</time>
      </trkpt>
      <trkpt lat="43.77436" lon="7.01051">
        <ele>1004.7</ele>
        <time>2019-12-12T12:20:41Z</time>
      </trkpt>
      <trkpt lat="43.77438" lon="7.01052">
        <ele>1004.7</ele>
        <time>2019-12-12T12:20:43Z</time>
      </trkpt>
      <trkpt lat="43.77441" lon="7.01053">
        <ele>1004.2</ele>
        <time>2019-12-12T12:20:45Z</time>
      </trkpt>
      <trkpt lat="43.77441" lon="7.01055">
        <ele>1003.8</ele>
        <time>2019-12-12T12:20:47Z</time>
      </trkpt>
      <trkpt lat="43.77442" lon="7.01056">
        <ele>1003.8</ele>
        <time>2019-12-12T12:20:49Z</time>
      </trkpt>
      <trkpt lat="43.7744" lon="7.01058">
        <ele>1003.8</ele>
        <time>2019-12-12T12:20:51Z</time>
      </trkpt>
      <trkpt lat="43.7744" lon="7.01059">
        <ele>1004.2</ele>
        <time>2019-12-12T12:20:53Z</time>
      </trkpt>
      <trkpt lat="43.77439" lon="7.01061">
        <ele>1004.2</ele>
        <time>2019-12-12T12:20:55Z</time>
      </trkpt>
      <trkpt lat="43.77437" lon="7.01062">
        <ele>1004.2</ele>
        <time>2019-12-12T12:20:57Z</time>
      </trkpt>
      <trkpt lat="43.77436" lon="7.01063">
        <ele>1004.7</ele>
        <time>2019-12-12T12:20:59Z</time>
      </trkpt>
      <trkpt lat="43.77437" lon="7.01064">
        <ele>1004.7</ele>
        <time>2019-12-12T12:21:01Z</time>
      </trkpt>
      <trkpt lat="43.77438" lon="7.01063">
        <ele>1004.7</ele>
        <time>2019-12-12T12:21:03Z</time>
      </trkpt>
      <trkpt lat="43.77437" lon="7.01063">
        <ele>1005.2</ele>
        <time>2019-12-12T12:21:05Z</time>
      </trkpt>
      <trkpt lat="43.77437" lon="7.01063">
        <ele>1005.2</ele>
        <time>2019-12-12T12:21:07Z</time>
      </trkpt>
      <trkpt lat="43.77437" lon="7.01063">
        <ele>1005.2</ele>
        <time>2019-12-12T12:21:09Z</time>
      </trkpt>
      <trkpt lat="43.7744" lon="7.01064">
        <ele>1004.7</ele>
        <time>2019-12-12T12:21:11Z</time>
      </trkpt>
      <trkpt lat="43.7744" lon="7.01064">
        <ele>1004.7</ele>
        <time>2019-12-12T12:21:13Z</time>
      </trkpt>
      <trkpt lat="43.77439" lon="7.01066">
        <ele>1004.7</ele>
        <time>2019-12-12T12:21:15Z</time>
      </trkpt>
      <trkpt lat="43.77438" lon="7.01068">
        <ele>1004.7</ele>
        <time>2019-12-12T12:21:17Z</time>
      </trkpt>
      <trkpt lat="43.77436" lon="7.0107">
        <ele>1005.2</ele>
        <time>2019-12-12T12:21:19Z</time>
      </trkpt>
      <trkpt lat="43.77434" lon="7.01071">
        <ele>1005.2</ele>
        <time>2019-12-12T12:21:21Z</time>
      </trkpt>
      <trkpt lat="43.77432" lon="7.01072">
        <ele>1005.2</ele>
        <time>2019-12-12T12:21:23Z</time>
      </trkpt>
      <trkpt lat="43.77428" lon="7.01074">
        <ele>1005.2</ele>
        <time>2019-12-12T12:21:25Z</time>
      </trkpt>
      <trkpt lat="43.77426" lon="7.01079">
        <ele>1005.2</ele>
        <time>2019-12-12T12:21:27Z</time>
      </trkpt>
      <trkpt lat="43.77424" lon="7.01084">
        <ele>1005.7</ele>
        <time>2019-12-12T12:21:29Z</time>
      </trkpt>
      <trkpt lat="43.77423" lon="7.01089">
        <ele>1005.7</ele>
        <time>2019-12-12T12:21:31Z</time>
      </trkpt>
      <trkpt lat="43.77421" lon="7.01095">
        <ele>1006.2</ele>
        <time>2019-12-12T12:21:33Z</time>
      </trkpt>
      <trkpt lat="43.77417" lon="7.01102">
        <ele>1006.6</ele>
        <time>2019-12-12T12:21:35Z</time>
      </trkpt>
      <trkpt lat="43.77414" lon="7.0111">
        <ele>1007.1</ele>
        <time>2019-12-12T12:21:37Z</time>
      </trkpt>
      <trkpt lat="43.77409" lon="7.01117">
        <ele>1007.6</ele>
        <time>2019-12-12T12:21:39Z</time>
      </trkpt>
      <trkpt lat="43.77406" lon="7.01122">
        <ele>1008.1</ele>
        <time>2019-12-12T12:21:41Z</time>
      </trkpt>
      <trkpt lat="43.77402" lon="7.01128">
        <ele>1009</ele>
        <time>2019-12-12T12:21:43Z</time>
      </trkpt>
      <trkpt lat="43.77401" lon="7.01134">
        <ele>1009</ele>
        <time>2019-12-12T12:21:45Z</time>
      </trkpt>
      <trkpt lat="43.77399" lon="7.01139">
        <ele>1009.5</ele>
        <time>2019-12-12T12:21:47Z</time>
      </trkpt>
      <trkpt lat="43.77398" lon="7.01145">
        <ele>1010</ele>
        <time>2019-12-12T12:21:49Z</time>
      </trkpt>
      <trkpt lat="43.77397" lon="7.01152">
        <ele>1010.5</ele>
        <time>2019-12-12T12:21:51Z</time>
      </trkpt>
      <trkpt lat="43.77396" lon="7.0116">
        <ele>1010.5</ele>
        <time>2019-12-12T12:21:53Z</time>
      </trkpt>
      <trkpt lat="43.77391" lon="7.0117">
        <ele>1010.5</ele>
        <time>2019-12-12T12:21:55Z</time>
      </trkpt>
      <trkpt lat="43.77389" lon="7.01178">
        <ele>1011</ele>
        <time>2019-12-12T12:21:57Z</time>
      </trkpt>
      <trkpt lat="43.77387" lon="7.01189">
        <ele>1011.4</ele>
        <time>2019-12-12T12:21:59Z</time>
      </trkpt>
      <trkpt lat="43.77382" lon="7.01202">
        <ele>1011.4</ele>
        <time>2019-12-12T12:22:01Z</time>
      </trkpt>
      <trkpt lat="43.77378" lon="7.01214">
        <ele>1011.9</ele>
        <time>2019-12-12T12:22:03Z</time>
      </trkpt>
      <trkpt lat="43.77377" lon="7.01224">
        <ele>1012.4</ele>
        <time>2019-12-12T12:22:05Z</time>
      </trkpt>
      <trkpt lat="43.77374" lon="7.01232">
        <ele>1012.9</ele>
        <time>2019-12-12T12:22:07Z</time>
      </trkpt>
      <trkpt lat="43.77373" lon="7.0124">
        <ele>1012.9</ele>
        <time>2019-12-12T12:22:09Z</time>
      </trkpt>
      <trkpt lat="43.77371" lon="7.01248">
        <ele>1013.4</ele>
        <time>2019-12-12T12:22:11Z</time>
      </trkpt>
      <trkpt lat="43.77369" lon="7.01253">
        <ele>1013.8</ele>
        <time>2019-12-12T12:22:13Z</time>
      </trkpt>
      <trkpt lat="43.77367" lon="7.01259">
        <ele>1013.8</ele>
        <time>2019-12-12T12:22:15Z</time>
      </trkpt>
      <trkpt lat="43.77366" lon="7.01265">
        <ele>1013.8</ele>
        <time>2019-12-12T12:22:17Z</time>
      </trkpt>
      <trkpt lat="43.77367" lon="7.01265">
        <ele>1014.3</ele>
        <time>2019-12-12T12:22:19Z</time>
      </trkpt>
      <trkpt lat="43.77368" lon="7.01265">
        <ele>1014.8</ele>
        <time>2019-12-12T12:22:21Z</time>
      </trkpt>
      <trkpt lat="43.77368" lon="7.01266">
        <ele>1014.8</ele>
        <time>2019-12-12T12:22:23Z</time>
      </trkpt>
      <trkpt lat="43.77367" lon="7.01266">
        <ele>1015.3</ele>
        <time>2019-12-12T12:22:25Z</time>
      </trkpt>
      <trkpt lat="43.77367" lon="7.01266">
        <ele>1015.3</ele>
        <time>2019-12-12T12:22:27Z</time>
      </trkpt>
      <trkpt lat="43.77367" lon="7.01266">
        <ele>1015.3</ele>
        <time>2019-12-12T12:22:29Z</time>
      </trkpt>
      <trkpt lat="43.77367" lon="7.01266">
        <ele>1015.3</ele>
        <time>2019-12-12T12:22:31Z</time>
      </trkpt>
      <trkpt lat="43.77367" lon="7.01266">
        <ele>1015.3</ele>
        <time>2019-12-12T12:22:33Z</time>
      </trkpt>
      <trkpt lat="43.77367" lon="7.01266">
        <ele>1015.3</ele>
        <time>2019-12-12T12:22:35Z</time>
      </trkpt>
      <trkpt lat="43.77367" lon="7.01266">
        <ele>1015.3</ele>
        <time>2019-12-12T12:22:37Z</time>
      </trkpt>
      <trkpt lat="43.77367" lon="7.01266">
        <ele>1015.3</ele>
        <time>2019-12-12T12:22:39Z</time>
      </trkpt>
      <trkpt lat="43.77367" lon="7.01266">
        <ele>1015.3</ele>
        <time>2019-12-12T12:22:41Z</time>
      </trkpt>
      <trkpt lat="43.77367" lon="7.01266">
        <ele>1015.3</ele>
        <time>2019-12-12T12:22:43Z</time>
      </trkpt>
      <trkpt lat="43.77367" lon="7.01266">
        <ele>1015.3</ele>
        <time>2019-12-12T12:22:45Z</time>
      </trkpt>
      <trkpt lat="43.77367" lon="7.01266">
        <ele>1015.3</ele>
        <time>2019-12-12T12:22:47Z</time>
      </trkpt>
      <trkpt lat="43.77367" lon="7.01266">
        <ele>1015.3</ele>
        <time>2019-12-12T12:22:49Z</time>
      </trkpt>
      <trkpt lat="43.77367" lon="7.01266">
        <ele>1015.3</ele>
        <time>2019-12-12T12:22:51Z</time>
      </trkpt>
      <trkpt lat="43.77367" lon="7.01266">
        <ele>1015.3</ele>
        <time>2019-12-12T12:22:53Z</time>
      </trkpt>
      <trkpt lat="43.77367" lon="7.01266">
        <ele>1015.3</ele>
        <time>2019-12-12T12:22:55Z</time>
      </trkpt>
      <trkpt lat="43.77367" lon="7.01266">
        <ele>1015.3</ele>
        <time>2019-12-12T12:22:57Z</time>
      </trkpt>
      <trkpt lat="43.77367" lon="7.01266">
        <ele>1015.3</ele>
        <time>2019-12-12T12:22:59Z</time>
      </trkpt>
      <trkpt lat="43.77367" lon="7.01266">
        <ele>1015.3</ele>
        <time>2019-12-12T12:23:01Z</time>
      </trkpt>
      <trkpt lat="43.77367" lon="7.01266">
        <ele>1015.3</ele>
        <time>2019-12-12T12:23:03Z</time>
      </trkpt>
      <trkpt lat="43.77367" lon="7.01266">
        <ele>1015.3</ele>
        <time>2019-12-12T12:23:05Z</time>
      </trkpt>
      <trkpt lat="43.77367" lon="7.01266">
        <ele>1015.3</ele>
        <time>2019-12-12T12:23:07Z</time>
      </trkpt>
      <trkpt lat="43.77367" lon="7.01266">
        <ele>1015.3</ele>
        <time>2019-12-12T12:23:09Z</time>
      </trkpt>
      <trkpt lat="43.77367" lon="7.01266">
        <ele>1015.3</ele>
        <time>2019-12-12T12:23:11Z</time>
      </trkpt>
      <trkpt lat="43.77367" lon="7.01266">
        <ele>1015.3</ele>
        <time>2019-12-12T12:23:13Z</time>
      </trkpt>
      <trkpt lat="43.77367" lon="7.01266">
        <ele>1015.3</ele>
        <time>2019-12-12T12:23:15Z</time>
      </trkpt>
      <trkpt lat="43.77367" lon="7.01266">
        <ele>1015.3</ele>
        <time>2019-12-12T12:23:17Z</time>
      </trkpt>
      <trkpt lat="43.77367" lon="7.01266">
        <ele>1015.3</ele>
        <time>2019-12-12T12:23:19Z</time>
      </trkpt>
      <trkpt lat="43.77367" lon="7.01266">
        <ele>1015.3</ele>
        <time>2019-12-12T12:23:21Z</time>
      </trkpt>
      <trkpt lat="43.77367" lon="7.01266">
        <ele>1015.3</ele>
        <time>2019-12-12T12:23:23Z</time>
      </trkpt>
      <trkpt lat="43.77367" lon="7.01266">
        <ele>1015.3</ele>
        <time>2019-12-12T12:23:25Z</time>
      </trkpt>
      <trkpt lat="43.77367" lon="7.01266">
        <ele>1015.3</ele>
        <time>2019-12-12T12:23:27Z</time>
      </trkpt>
      <trkpt lat="43.77367" lon="7.01266">
        <ele>1015.3</ele>
        <time>2019-12-12T12:23:29Z</time>
      </trkpt>
      <trkpt lat="43.77367" lon="7.01266">
        <ele>1015.3</ele>
        <time>2019-12-12T12:23:31Z</time>
      </trkpt>
      <trkpt lat="43.77367" lon="7.01266">
        <ele>1015.3</ele>
        <time>2019-12-12T12:23:33Z</time>
      </trkpt>
      <trkpt lat="43.77367" lon="7.01266">
        <ele>1015.3</ele>
        <time>2019-12-12T12:23:35Z</time>
      </trkpt>
      <trkpt lat="43.77367" lon="7.01266">
        <ele>1015.3</ele>
        <time>2019-12-12T12:23:37Z</time>
      </trkpt>
      <trkpt lat="43.77367" lon="7.01266">
        <ele>1015.3</ele>
        <time>2019-12-12T12:23:39Z</time>
      </trkpt>
      <trkpt lat="43.77367" lon="7.01266">
        <ele>1015.3</ele>
        <time>2019-12-12T12:23:41Z</time>
      </trkpt>
      <trkpt lat="43.77367" lon="7.01267">
        <ele>1015.3</ele>
        <time>2019-12-12T12:23:43Z</time>
      </trkpt>
      <trkpt lat="43.77367" lon="7.01267">
        <ele>1015.3</ele>
        <time>2019-12-12T12:23:45Z</time>
      </trkpt>
      <trkpt lat="43.77367" lon="7.01267">
        <ele>1015.3</ele>
        <time>2019-12-12T12:23:47Z</time>
      </trkpt>
      <trkpt lat="43.77367" lon="7.01267">
        <ele>1015.3</ele>
        <time>2019-12-12T12:23:49Z</time>
      </trkpt>
      <trkpt lat="43.77367" lon="7.01267">
        <ele>1015.3</ele>
        <time>2019-12-12T12:23:51Z</time>
      </trkpt>
      <trkpt lat="43.77367" lon="7.01268">
        <ele>1015.3</ele>
        <time>2019-12-12T12:23:53Z</time>
      </trkpt>
      <trkpt lat="43.77367" lon="7.0127">
        <ele>1015.3</ele>
        <time>2019-12-12T12:23:55Z</time>
      </trkpt>
      <trkpt lat="43.77366" lon="7.01275">
        <ele>1015.8</ele>
        <time>2019-12-12T12:23:57Z</time>
      </trkpt>
      <trkpt lat="43.77365" lon="7.01283">
        <ele>1015.3</ele>
        <time>2019-12-12T12:23:59Z</time>
      </trkpt>
      <trkpt lat="43.77364" lon="7.01291">
        <ele>1013.4</ele>
        <time>2019-12-12T12:24:01Z</time>
      </trkpt>
      <trkpt lat="43.77363" lon="7.01298">
        <ele>1011.9</ele>
        <time>2019-12-12T12:24:03Z</time>
      </trkpt>
      <trkpt lat="43.77364" lon="7.01308">
        <ele>1011.9</ele>
        <time>2019-12-12T12:24:05Z</time>
      </trkpt>
      <trkpt lat="43.77365" lon="7.01316">
        <ele>1010.5</ele>
        <time>2019-12-12T12:24:07Z</time>
      </trkpt>
      <trkpt lat="43.77364" lon="7.01321">
        <ele>1010</ele>
        <time>2019-12-12T12:24:09Z</time>
      </trkpt>
      <trkpt lat="43.77364" lon="7.01326">
        <ele>1009</ele>
        <time>2019-12-12T12:24:11Z</time>
      </trkpt>
      <trkpt lat="43.77363" lon="7.0133">
        <ele>1008.1</ele>
        <time>2019-12-12T12:24:13Z</time>
      </trkpt>
      <trkpt lat="43.77362" lon="7.01334">
        <ele>1007.6</ele>
        <time>2019-12-12T12:24:15Z</time>
      </trkpt>
      <trkpt lat="43.77359" lon="7.01338">
        <ele>1007.1</ele>
        <time>2019-12-12T12:24:17Z</time>
      </trkpt>
      <trkpt lat="43.77357" lon="7.01342">
        <ele>1006.6</ele>
        <time>2019-12-12T12:24:19Z</time>
      </trkpt>
      <trkpt lat="43.77355" lon="7.01344">
        <ele>1006.2</ele>
        <time>2019-12-12T12:24:21Z</time>
      </trkpt>
      <trkpt lat="43.77354" lon="7.01346">
        <ele>1005.2</ele>
        <time>2019-12-12T12:24:23Z</time>
      </trkpt>
      <trkpt lat="43.77352" lon="7.01348">
        <ele>1004.7</ele>
        <time>2019-12-12T12:24:25Z</time>
      </trkpt>
      <trkpt lat="43.77349" lon="7.0135">
        <ele>1004.2</ele>
        <time>2019-12-12T12:24:27Z</time>
      </trkpt>
      <trkpt lat="43.77346" lon="7.01351">
        <ele>1003.8</ele>
        <time>2019-12-12T12:24:29Z</time>
      </trkpt>
      <trkpt lat="43.77344" lon="7.01352">
        <ele>1003.3</ele>
        <time>2019-12-12T12:24:31Z</time>
      </trkpt>
      <trkpt lat="43.77342" lon="7.01354">
        <ele>1002.8</ele>
        <time>2019-12-12T12:24:33Z</time>
      </trkpt>
      <trkpt lat="43.77341" lon="7.01357">
        <ele>1001.8</ele>
        <time>2019-12-12T12:24:35Z</time>
      </trkpt>
      <trkpt lat="43.77341" lon="7.0136">
        <ele>1001.4</ele>
        <time>2019-12-12T12:24:37Z</time>
      </trkpt>
      <trkpt lat="43.77341" lon="7.01363">
        <ele>1000.4</ele>
        <time>2019-12-12T12:24:39Z</time>
      </trkpt>
      <trkpt lat="43.77341" lon="7.01366">
        <ele>999.9</ele>
        <time>2019-12-12T12:24:41Z</time>
      </trkpt>
      <trkpt lat="43.77339" lon="7.01369">
        <ele>999.9</ele>
        <time>2019-12-12T12:24:43Z</time>
      </trkpt>
      <trkpt lat="43.77339" lon="7.01371">
        <ele>998.9</ele>
        <time>2019-12-12T12:24:45Z</time>
      </trkpt>
      <trkpt lat="43.7734" lon="7.01374">
        <ele>998.5</ele>
        <time>2019-12-12T12:24:47Z</time>
      </trkpt>
      <trkpt lat="43.77339" lon="7.01376">
        <ele>997.5</ele>
        <time>2019-12-12T12:24:49Z</time>
      </trkpt>
      <trkpt lat="43.77338" lon="7.01379">
        <ele>997</ele>
        <time>2019-12-12T12:24:51Z</time>
      </trkpt>
      <trkpt lat="43.77339" lon="7.01381">
        <ele>996.5</ele>
        <time>2019-12-12T12:24:53Z</time>
      </trkpt>
      <trkpt lat="43.77339" lon="7.01384">
        <ele>996.5</ele>
        <time>2019-12-12T12:24:55Z</time>
      </trkpt>
      <trkpt lat="43.77339" lon="7.01386">
        <ele>996.1</ele>
        <time>2019-12-12T12:24:57Z</time>
      </trkpt>
      <trkpt lat="43.77341" lon="7.01388">
        <ele>996.1</ele>
        <time>2019-12-12T12:24:59Z</time>
      </trkpt>
      <trkpt lat="43.77341" lon="7.01392">
        <ele>995.6</ele>
        <time>2019-12-12T12:25:01Z</time>
      </trkpt>
      <trkpt lat="43.77342" lon="7.01394">
        <ele>995.1</ele>
        <time>2019-12-12T12:25:03Z</time>
      </trkpt>
      <trkpt lat="43.77343" lon="7.01396">
        <ele>995.1</ele>
        <time>2019-12-12T12:25:05Z</time>
      </trkpt>
      <trkpt lat="43.77343" lon="7.01398">
        <ele>994.6</ele>
        <time>2019-12-12T12:25:07Z</time>
      </trkpt>
      <trkpt lat="43.77345" lon="7.01401">
        <ele>994.1</ele>
        <time>2019-12-12T12:25:09Z</time>
      </trkpt>
      <trkpt lat="43.77346" lon="7.01403">
        <ele>994.1</ele>
        <time>2019-12-12T12:25:11Z</time>
      </trkpt>
      <trkpt lat="43.77347" lon="7.01406">
        <ele>994.1</ele>
        <time>2019-12-12T12:25:13Z</time>
      </trkpt>
      <trkpt lat="43.77348" lon="7.01408">
        <ele>993.7</ele>
        <time>2019-12-12T12:25:15Z</time>
      </trkpt>
      <trkpt lat="43.77349" lon="7.0141">
        <ele>993.7</ele>
        <time>2019-12-12T12:25:17Z</time>
      </trkpt>
      <trkpt lat="43.77351" lon="7.01411">
        <ele>993.7</ele>
        <time>2019-12-12T12:25:19Z</time>
      </trkpt>
      <trkpt lat="43.77352" lon="7.01412">
        <ele>993.7</ele>
        <time>2019-12-12T12:25:21Z</time>
      </trkpt>
      <trkpt lat="43.77353" lon="7.01414">
        <ele>993.2</ele>
        <time>2019-12-12T12:25:23Z</time>
      </trkpt>
      <trkpt lat="43.77354" lon="7.01416">
        <ele>993.7</ele>
        <time>2019-12-12T12:25:25Z</time>
      </trkpt>
      <trkpt lat="43.77354" lon="7.01418">
        <ele>993.2</ele>
        <time>2019-12-12T12:25:27Z</time>
      </trkpt>
      <trkpt lat="43.77353" lon="7.0142">
        <ele>993.2</ele>
        <time>2019-12-12T12:25:29Z</time>
      </trkpt>
      <trkpt lat="43.77352" lon="7.01422">
        <ele>993.2</ele>
        <time>2019-12-12T12:25:31Z</time>
      </trkpt>
      <trkpt lat="43.77352" lon="7.01423">
        <ele>993.2</ele>
        <time>2019-12-12T12:25:33Z</time>
      </trkpt>
      <trkpt lat="43.77351" lon="7.01424">
        <ele>993.2</ele>
        <time>2019-12-12T12:25:35Z</time>
      </trkpt>
      <trkpt lat="43.7735" lon="7.01425">
        <ele>993.2</ele>
        <time>2019-12-12T12:25:37Z</time>
      </trkpt>
      <trkpt lat="43.77349" lon="7.01426">
        <ele>993.2</ele>
        <time>2019-12-12T12:25:39Z</time>
      </trkpt>
      <trkpt lat="43.77348" lon="7.01427">
        <ele>993.2</ele>
        <time>2019-12-12T12:25:41Z</time>
      </trkpt>
      <trkpt lat="43.77345" lon="7.01427">
        <ele>993.7</ele>
        <time>2019-12-12T12:25:43Z</time>
      </trkpt>
      <trkpt lat="43.77344" lon="7.01428">
        <ele>993.7</ele>
        <time>2019-12-12T12:25:45Z</time>
      </trkpt>
      <trkpt lat="43.77343" lon="7.01428">
        <ele>993.7</ele>
        <time>2019-12-12T12:25:47Z</time>
      </trkpt>
      <trkpt lat="43.77342" lon="7.01428">
        <ele>993.7</ele>
        <time>2019-12-12T12:25:49Z</time>
      </trkpt>
      <trkpt lat="43.7734" lon="7.01429">
        <ele>993.7</ele>
        <time>2019-12-12T12:25:51Z</time>
      </trkpt>
      <trkpt lat="43.77338" lon="7.01429">
        <ele>994.1</ele>
        <time>2019-12-12T12:25:53Z</time>
      </trkpt>
      <trkpt lat="43.77336" lon="7.01431">
        <ele>994.1</ele>
        <time>2019-12-12T12:25:55Z</time>
      </trkpt>
      <trkpt lat="43.77335" lon="7.01432">
        <ele>994.6</ele>
        <time>2019-12-12T12:25:57Z</time>
      </trkpt>
      <trkpt lat="43.77334" lon="7.01433">
        <ele>994.6</ele>
        <time>2019-12-12T12:25:59Z</time>
      </trkpt>
      <trkpt lat="43.77332" lon="7.01435">
        <ele>995.1</ele>
        <time>2019-12-12T12:26:01Z</time>
      </trkpt>
      <trkpt lat="43.77331" lon="7.01437">
        <ele>995.6</ele>
        <time>2019-12-12T12:26:03Z</time>
      </trkpt>
      <trkpt lat="43.7733" lon="7.01438">
        <ele>996.1</ele>
        <time>2019-12-12T12:26:05Z</time>
      </trkpt>
      <trkpt lat="43.77329" lon="7.01438">
        <ele>996.1</ele>
        <time>2019-12-12T12:26:07Z</time>
      </trkpt>
      <trkpt lat="43.77328" lon="7.01438">
        <ele>997</ele>
        <time>2019-12-12T12:26:09Z</time>
      </trkpt>
      <trkpt lat="43.77328" lon="7.0144">
        <ele>997.5</ele>
        <time>2019-12-12T12:26:11Z</time>
      </trkpt>
      <trkpt lat="43.77328" lon="7.01441">
        <ele>998</ele>
        <time>2019-12-12T12:26:13Z</time>
      </trkpt>
      <trkpt lat="43.77328" lon="7.01443">
        <ele>998.5</ele>
        <time>2019-12-12T12:26:15Z</time>
      </trkpt>
      <trkpt lat="43.77327" lon="7.01445">
        <ele>998.5</ele>
        <time>2019-12-12T12:26:17Z</time>
      </trkpt>
      <trkpt lat="43.77327" lon="7.01448">
        <ele>998.9</ele>
        <time>2019-12-12T12:26:19Z</time>
      </trkpt>
      <trkpt lat="43.77327" lon="7.01449">
        <ele>999.4</ele>
        <time>2019-12-12T12:26:21Z</time>
      </trkpt>
      <trkpt lat="43.77327" lon="7.01451">
        <ele>999.4</ele>
        <time>2019-12-12T12:26:23Z</time>
      </trkpt>
      <trkpt lat="43.77327" lon="7.01453">
        <ele>999.9</ele>
        <time>2019-12-12T12:26:25Z</time>
      </trkpt>
      <trkpt lat="43.77328" lon="7.01455">
        <ele>1000.4</ele>
        <time>2019-12-12T12:26:27Z</time>
      </trkpt>
      <trkpt lat="43.77329" lon="7.01457">
        <ele>1000.9</ele>
        <time>2019-12-12T12:26:29Z</time>
      </trkpt>
      <trkpt lat="43.77328" lon="7.01459">
        <ele>1000.9</ele>
        <time>2019-12-12T12:26:31Z</time>
      </trkpt>
      <trkpt lat="43.77329" lon="7.01461">
        <ele>1001.4</ele>
        <time>2019-12-12T12:26:33Z</time>
      </trkpt>
      <trkpt lat="43.77328" lon="7.01463">
        <ele>1001.8</ele>
        <time>2019-12-12T12:26:35Z</time>
      </trkpt>
      <trkpt lat="43.77329" lon="7.01465">
        <ele>1002.3</ele>
        <time>2019-12-12T12:26:37Z</time>
      </trkpt>
      <trkpt lat="43.77329" lon="7.01466">
        <ele>1002.8</ele>
        <time>2019-12-12T12:26:39Z</time>
      </trkpt>
      <trkpt lat="43.7733" lon="7.01467">
        <ele>1003.3</ele>
        <time>2019-12-12T12:26:41Z</time>
      </trkpt>
      <trkpt lat="43.77331" lon="7.01469">
        <ele>1003.8</ele>
        <time>2019-12-12T12:26:43Z</time>
      </trkpt>
      <trkpt lat="43.77332" lon="7.0147">
        <ele>1004.2</ele>
        <time>2019-12-12T12:26:45Z</time>
      </trkpt>
      <trkpt lat="43.77332" lon="7.01473">
        <ele>1004.7</ele>
        <time>2019-12-12T12:26:47Z</time>
      </trkpt>
      <trkpt lat="43.77331" lon="7.01475">
        <ele>1004.7</ele>
        <time>2019-12-12T12:26:49Z</time>
      </trkpt>
      <trkpt lat="43.7733" lon="7.01477">
        <ele>1005.2</ele>
        <time>2019-12-12T12:26:51Z</time>
      </trkpt>
      <trkpt lat="43.7733" lon="7.0148">
        <ele>1005.7</ele>
        <time>2019-12-12T12:26:53Z</time>
      </trkpt>
      <trkpt lat="43.77328" lon="7.01482">
        <ele>1006.2</ele>
        <time>2019-12-12T12:26:55Z</time>
      </trkpt>
      <trkpt lat="43.77328" lon="7.01484">
        <ele>1006.6</ele>
        <time>2019-12-12T12:26:57Z</time>
      </trkpt>
      <trkpt lat="43.77329" lon="7.01485">
        <ele>1007.1</ele>
        <time>2019-12-12T12:26:59Z</time>
      </trkpt>
      <trkpt lat="43.77329" lon="7.01486">
        <ele>1007.6</ele>
        <time>2019-12-12T12:27:01Z</time>
      </trkpt>
      <trkpt lat="43.77328" lon="7.01487">
        <ele>1008.1</ele>
        <time>2019-12-12T12:27:03Z</time>
      </trkpt>
      <trkpt lat="43.77328" lon="7.01488">
        <ele>1008.6</ele>
        <time>2019-12-12T12:27:05Z</time>
      </trkpt>
      <trkpt lat="43.77327" lon="7.0149">
        <ele>1009.5</ele>
        <time>2019-12-12T12:27:07Z</time>
      </trkpt>
      <trkpt lat="43.77326" lon="7.01491">
        <ele>1010</ele>
        <time>2019-12-12T12:27:09Z</time>
      </trkpt>
      <trkpt lat="43.77325" lon="7.01492">
        <ele>1010.5</ele>
        <time>2019-12-12T12:27:11Z</time>
      </trkpt>
      <trkpt lat="43.77326" lon="7.01493">
        <ele>1011</ele>
        <time>2019-12-12T12:27:13Z</time>
      </trkpt>
      <trkpt lat="43.77326" lon="7.01494">
        <ele>1011.9</ele>
        <time>2019-12-12T12:27:15Z</time>
      </trkpt>
      <trkpt lat="43.77325" lon="7.01495">
        <ele>1012.9</ele>
        <time>2019-12-12T12:27:17Z</time>
      </trkpt>
      <trkpt lat="43.77324" lon="7.01496">
        <ele>1013.4</ele>
        <time>2019-12-12T12:27:19Z</time>
      </trkpt>
      <trkpt lat="43.77323" lon="7.01498">
        <ele>1013.8</ele>
        <time>2019-12-12T12:27:21Z</time>
      </trkpt>
      <trkpt lat="43.77321" lon="7.01499">
        <ele>1014.8</ele>
        <time>2019-12-12T12:27:23Z</time>
      </trkpt>
      <trkpt lat="43.7732" lon="7.01501">
        <ele>1015.3</ele>
        <time>2019-12-12T12:27:25Z</time>
      </trkpt>
      <trkpt lat="43.7732" lon="7.01503">
        <ele>1015.8</ele>
        <time>2019-12-12T12:27:27Z</time>
      </trkpt>
      <trkpt lat="43.77321" lon="7.01504">
        <ele>1016.3</ele>
        <time>2019-12-12T12:27:29Z</time>
      </trkpt>
      <trkpt lat="43.7732" lon="7.01505">
        <ele>1016.7</ele>
        <time>2019-12-12T12:27:31Z</time>
      </trkpt>
      <trkpt lat="43.7732" lon="7.01507">
        <ele>1017.2</ele>
        <time>2019-12-12T12:27:33Z</time>
      </trkpt>
      <trkpt lat="43.7732" lon="7.01508">
        <ele>1017.7</ele>
        <time>2019-12-12T12:27:35Z</time>
      </trkpt>
      <trkpt lat="43.7732" lon="7.01509">
        <ele>1018.2</ele>
        <time>2019-12-12T12:27:37Z</time>
      </trkpt>
      <trkpt lat="43.77319" lon="7.01511">
        <ele>1019.1</ele>
        <time>2019-12-12T12:27:39Z</time>
      </trkpt>
      <trkpt lat="43.77318" lon="7.01512">
        <ele>1019.6</ele>
        <time>2019-12-12T12:27:41Z</time>
      </trkpt>
      <trkpt lat="43.77317" lon="7.01514">
        <ele>1020.1</ele>
        <time>2019-12-12T12:27:43Z</time>
      </trkpt>
      <trkpt lat="43.77317" lon="7.01515">
        <ele>1021.1</ele>
        <time>2019-12-12T12:27:45Z</time>
      </trkpt>
      <trkpt lat="43.77316" lon="7.01515">
        <ele>1021.5</ele>
        <time>2019-12-12T12:27:47Z</time>
      </trkpt>
      <trkpt lat="43.77315" lon="7.01516">
        <ele>1022.5</ele>
        <time>2019-12-12T12:27:49Z</time>
      </trkpt>
      <trkpt lat="43.77315" lon="7.01516">
        <ele>1023</ele>
        <time>2019-12-12T12:27:51Z</time>
      </trkpt>
      <trkpt lat="43.77313" lon="7.01517">
        <ele>1023.5</ele>
        <time>2019-12-12T12:27:53Z</time>
      </trkpt>
      <trkpt lat="43.77312" lon="7.01518">
        <ele>1023.9</ele>
        <time>2019-12-12T12:27:55Z</time>
      </trkpt>
      <trkpt lat="43.7731" lon="7.01519">
        <ele>1024.4</ele>
        <time>2019-12-12T12:27:57Z</time>
      </trkpt>
      <trkpt lat="43.77309" lon="7.0152">
        <ele>1024.4</ele>
        <time>2019-12-12T12:27:59Z</time>
      </trkpt>
      <trkpt lat="43.77309" lon="7.0152">
        <ele>1024.4</ele>
        <time>2019-12-12T12:28:01Z</time>
      </trkpt>
      <trkpt lat="43.77309" lon="7.01519">
        <ele>1024.9</ele>
        <time>2019-12-12T12:28:03Z</time>
      </trkpt>
      <trkpt lat="43.77309" lon="7.01519">
        <ele>1024.9</ele>
        <time>2019-12-12T12:28:05Z</time>
      </trkpt>
      <trkpt lat="43.77309" lon="7.01519">
        <ele>1024.9</ele>
        <time>2019-12-12T12:28:07Z</time>
      </trkpt>
      <trkpt lat="43.77309" lon="7.01519">
        <ele>1024.9</ele>
        <time>2019-12-12T12:28:09Z</time>
      </trkpt>
      <trkpt lat="43.77309" lon="7.01519">
        <ele>1025.4</ele>
        <time>2019-12-12T12:28:11Z</time>
      </trkpt>
      <trkpt lat="43.77309" lon="7.01519">
        <ele>1025.4</ele>
        <time>2019-12-12T12:28:13Z</time>
      </trkpt>
      <trkpt lat="43.77309" lon="7.01519">
        <ele>1025.4</ele>
        <time>2019-12-12T12:28:15Z</time>
      </trkpt>
      <trkpt lat="43.77309" lon="7.01519">
        <ele>1025.4</ele>
        <time>2019-12-12T12:28:17Z</time>
      </trkpt>
      <trkpt lat="43.77309" lon="7.01519">
        <ele>1025.4</ele>
        <time>2019-12-12T12:28:19Z</time>
      </trkpt>
      <trkpt lat="43.77309" lon="7.01519">
        <ele>1025.4</ele>
        <time>2019-12-12T12:28:21Z</time>
      </trkpt>
      <trkpt lat="43.77309" lon="7.0152">
        <ele>1025.4</ele>
        <time>2019-12-12T12:28:23Z</time>
      </trkpt>
      <trkpt lat="43.77309" lon="7.0152">
        <ele>1025.4</ele>
        <time>2019-12-12T12:28:25Z</time>
      </trkpt>
      <trkpt lat="43.77309" lon="7.0152">
        <ele>1025.4</ele>
        <time>2019-12-12T12:28:27Z</time>
      </trkpt>
      <trkpt lat="43.77309" lon="7.0152">
        <ele>1025.4</ele>
        <time>2019-12-12T12:28:29Z</time>
      </trkpt>
      <trkpt lat="43.77309" lon="7.0152">
        <ele>1025.4</ele>
        <time>2019-12-12T12:28:31Z</time>
      </trkpt>
      <trkpt lat="43.77308" lon="7.0152">
        <ele>1025.4</ele>
        <time>2019-12-12T12:28:33Z</time>
      </trkpt>
      <trkpt lat="43.77309" lon="7.0152">
        <ele>1025.4</ele>
        <time>2019-12-12T12:28:35Z</time>
      </trkpt>
      <trkpt lat="43.77309" lon="7.0152">
        <ele>1025.4</ele>
        <time>2019-12-12T12:28:37Z</time>
      </trkpt>
      <trkpt lat="43.77309" lon="7.0152">
        <ele>1025.4</ele>
        <time>2019-12-12T12:28:39Z</time>
      </trkpt>
      <trkpt lat="43.77309" lon="7.0152">
        <ele>1025.4</ele>
        <time>2019-12-12T12:28:41Z</time>
      </trkpt>
      <trkpt lat="43.77309" lon="7.0152">
        <ele>1025.4</ele>
        <time>2019-12-12T12:28:43Z</time>
      </trkpt>
      <trkpt lat="43.77309" lon="7.0152">
        <ele>1025.4</ele>
        <time>2019-12-12T12:28:45Z</time>
      </trkpt>
      <trkpt lat="43.7731" lon="7.0152">
        <ele>1024.9</ele>
        <time>2019-12-12T12:28:47Z</time>
      </trkpt>
      <trkpt lat="43.77309" lon="7.0152">
        <ele>1024.9</ele>
        <time>2019-12-12T12:28:49Z</time>
      </trkpt>
      <trkpt lat="43.77308" lon="7.0152">
        <ele>1024.9</ele>
        <time>2019-12-12T12:28:51Z</time>
      </trkpt>
      <trkpt lat="43.77307" lon="7.0152">
        <ele>1024.9</ele>
        <time>2019-12-12T12:28:53Z</time>
      </trkpt>
      <trkpt lat="43.77305" lon="7.0152">
        <ele>1024.9</ele>
        <time>2019-12-12T12:28:55Z</time>
      </trkpt>
      <trkpt lat="43.77304" lon="7.01521">
        <ele>1024.9</ele>
        <time>2019-12-12T12:28:57Z</time>
      </trkpt>
      <trkpt lat="43.77302" lon="7.01521">
        <ele>1024.9</ele>
        <time>2019-12-12T12:28:59Z</time>
      </trkpt>
      <trkpt lat="43.77301" lon="7.01521">
        <ele>1024.9</ele>
        <time>2019-12-12T12:29:01Z</time>
      </trkpt>
      <trkpt lat="43.773" lon="7.01521">
        <ele>1025.4</ele>
        <time>2019-12-12T12:29:03Z</time>
      </trkpt>
      <trkpt lat="43.77299" lon="7.01522">
        <ele>1025.4</ele>
        <time>2019-12-12T12:29:05Z</time>
      </trkpt>
      <trkpt lat="43.77297" lon="7.01522">
        <ele>1025.4</ele>
        <time>2019-12-12T12:29:07Z</time>
      </trkpt>
      <trkpt lat="43.77294" lon="7.01522">
        <ele>1025.4</ele>
        <time>2019-12-12T12:29:09Z</time>
      </trkpt>
      <trkpt lat="43.77292" lon="7.01522">
        <ele>1025.4</ele>
        <time>2019-12-12T12:29:11Z</time>
      </trkpt>
      <trkpt lat="43.77289" lon="7.01524">
        <ele>1025.4</ele>
        <time>2019-12-12T12:29:13Z</time>
      </trkpt>
      <trkpt lat="43.77287" lon="7.01526">
        <ele>1025.4</ele>
        <time>2019-12-12T12:29:15Z</time>
      </trkpt>
      <trkpt lat="43.77286" lon="7.01528">
        <ele>1025.4</ele>
        <time>2019-12-12T12:29:17Z</time>
      </trkpt>
      <trkpt lat="43.77287" lon="7.01531">
        <ele>1025.4</ele>
        <time>2019-12-12T12:29:19Z</time>
      </trkpt>
      <trkpt lat="43.77289" lon="7.01533">
        <ele>1025.4</ele>
        <time>2019-12-12T12:29:21Z</time>
      </trkpt>
      <trkpt lat="43.7729" lon="7.01535">
        <ele>1025.4</ele>
        <time>2019-12-12T12:29:23Z</time>
      </trkpt>
      <trkpt lat="43.77291" lon="7.01538">
        <ele>1025.4</ele>
        <time>2019-12-12T12:29:25Z</time>
      </trkpt>
      <trkpt lat="43.77292" lon="7.0154">
        <ele>1024.9</ele>
        <time>2019-12-12T12:29:27Z</time>
      </trkpt>
      <trkpt lat="43.77293" lon="7.01543">
        <ele>1024.9</ele>
        <time>2019-12-12T12:29:29Z</time>
      </trkpt>
      <trkpt lat="43.77293" lon="7.01547">
        <ele>1024.9</ele>
        <time>2019-12-12T12:29:31Z</time>
      </trkpt>
      <trkpt lat="43.77292" lon="7.01552">
        <ele>1024.4</ele>
        <time>2019-12-12T12:29:33Z</time>
      </trkpt>
      <trkpt lat="43.77291" lon="7.01556">
        <ele>1023.9</ele>
        <time>2019-12-12T12:29:35Z</time>
      </trkpt>
      <trkpt lat="43.7729" lon="7.0156">
        <ele>1023.5</ele>
        <time>2019-12-12T12:29:37Z</time>
      </trkpt>
      <trkpt lat="43.77289" lon="7.01564">
        <ele>1023</ele>
        <time>2019-12-12T12:29:39Z</time>
      </trkpt>
      <trkpt lat="43.77289" lon="7.01567">
        <ele>1022.5</ele>
        <time>2019-12-12T12:29:41Z</time>
      </trkpt>
      <trkpt lat="43.77288" lon="7.01571">
        <ele>1022</ele>
        <time>2019-12-12T12:29:43Z</time>
      </trkpt>
      <trkpt lat="43.77286" lon="7.01575">
        <ele>1021.5</ele>
        <time>2019-12-12T12:29:45Z</time>
      </trkpt>
      <trkpt lat="43.77285" lon="7.01578">
        <ele>1020.6</ele>
        <time>2019-12-12T12:29:47Z</time>
      </trkpt>
      <trkpt lat="43.77284" lon="7.0158">
        <ele>1020.1</ele>
        <time>2019-12-12T12:29:49Z</time>
      </trkpt>
      <trkpt lat="43.77282" lon="7.01581">
        <ele>1019.6</ele>
        <time>2019-12-12T12:29:51Z</time>
      </trkpt>
      <trkpt lat="43.77283" lon="7.01584">
        <ele>1019.1</ele>
        <time>2019-12-12T12:29:53Z</time>
      </trkpt>
      <trkpt lat="43.77282" lon="7.01586">
        <ele>1019.6</ele>
        <time>2019-12-12T12:29:55Z</time>
      </trkpt>
      <trkpt lat="43.77281" lon="7.01588">
        <ele>1019.1</ele>
        <time>2019-12-12T12:29:57Z</time>
      </trkpt>
      <trkpt lat="43.77278" lon="7.01592">
        <ele>1018.7</ele>
        <time>2019-12-12T12:29:59Z</time>
      </trkpt>
      <trkpt lat="43.77276" lon="7.01595">
        <ele>1018.7</ele>
        <time>2019-12-12T12:30:01Z</time>
      </trkpt>
      <trkpt lat="43.77274" lon="7.01598">
        <ele>1018.7</ele>
        <time>2019-12-12T12:30:03Z</time>
      </trkpt>
      <trkpt lat="43.77272" lon="7.01601">
        <ele>1018.2</ele>
        <time>2019-12-12T12:30:05Z</time>
      </trkpt>
      <trkpt lat="43.7727" lon="7.01606">
        <ele>1017.7</ele>
        <time>2019-12-12T12:30:07Z</time>
      </trkpt>
      <trkpt lat="43.77268" lon="7.0161">
        <ele>1017.7</ele>
        <time>2019-12-12T12:30:09Z</time>
      </trkpt>
      <trkpt lat="43.77266" lon="7.01615">
        <ele>1017.7</ele>
        <time>2019-12-12T12:30:11Z</time>
      </trkpt>
      <trkpt lat="43.77264" lon="7.01623">
        <ele>1017.7</ele>
        <time>2019-12-12T12:30:13Z</time>
      </trkpt>
      <trkpt lat="43.77262" lon="7.01631">
        <ele>1017.7</ele>
        <time>2019-12-12T12:30:15Z</time>
      </trkpt>
      <trkpt lat="43.77259" lon="7.01639">
        <ele>1018.2</ele>
        <time>2019-12-12T12:30:17Z</time>
      </trkpt>
      <trkpt lat="43.77255" lon="7.01647">
        <ele>1018.2</ele>
        <time>2019-12-12T12:30:19Z</time>
      </trkpt>
      <trkpt lat="43.77252" lon="7.01654">
        <ele>1017.7</ele>
        <time>2019-12-12T12:30:21Z</time>
      </trkpt>
      <trkpt lat="43.7725" lon="7.01662">
        <ele>1017.7</ele>
        <time>2019-12-12T12:30:23Z</time>
      </trkpt>
      <trkpt lat="43.77247" lon="7.01666">
        <ele>1018.2</ele>
        <time>2019-12-12T12:30:25Z</time>
      </trkpt>
      <trkpt lat="43.77243" lon="7.0167">
        <ele>1018.7</ele>
        <time>2019-12-12T12:30:27Z</time>
      </trkpt>
      <trkpt lat="43.77238" lon="7.01672">
        <ele>1019.1</ele>
        <time>2019-12-12T12:30:29Z</time>
      </trkpt>
      <trkpt lat="43.77234" lon="7.01674">
        <ele>1019.6</ele>
        <time>2019-12-12T12:30:31Z</time>
      </trkpt>
      <trkpt lat="43.77229" lon="7.01678">
        <ele>1019.1</ele>
        <time>2019-12-12T12:30:33Z</time>
      </trkpt>
      <trkpt lat="43.77222" lon="7.01686">
        <ele>1019.1</ele>
        <time>2019-12-12T12:30:35Z</time>
      </trkpt>
      <trkpt lat="43.77215" lon="7.01692">
        <ele>1019.1</ele>
        <time>2019-12-12T12:30:37Z</time>
      </trkpt>
      <trkpt lat="43.77211" lon="7.01695">
        <ele>1018.2</ele>
        <time>2019-12-12T12:30:39Z</time>
      </trkpt>
      <trkpt lat="43.77208" lon="7.01699">
        <ele>1018.2</ele>
        <time>2019-12-12T12:30:41Z</time>
      </trkpt>
      <trkpt lat="43.77206" lon="7.01704">
        <ele>1018.2</ele>
        <time>2019-12-12T12:30:43Z</time>
      </trkpt>
      <trkpt lat="43.77204" lon="7.0171">
        <ele>1017.7</ele>
        <time>2019-12-12T12:30:45Z</time>
      </trkpt>
      <trkpt lat="43.77203" lon="7.01716">
        <ele>1017.2</ele>
        <time>2019-12-12T12:30:47Z</time>
      </trkpt>
      <trkpt lat="43.77203" lon="7.01721">
        <ele>1016.3</ele>
        <time>2019-12-12T12:30:49Z</time>
      </trkpt>
      <trkpt lat="43.772" lon="7.01727">
        <ele>1015.3</ele>
        <time>2019-12-12T12:30:51Z</time>
      </trkpt>
      <trkpt lat="43.77194" lon="7.01736">
        <ele>1014.3</ele>
        <time>2019-12-12T12:30:53Z</time>
      </trkpt>
      <trkpt lat="43.77188" lon="7.01746">
        <ele>1012.9</ele>
        <time>2019-12-12T12:30:55Z</time>
      </trkpt>
      <trkpt lat="43.77185" lon="7.01758">
        <ele>1011.9</ele>
        <time>2019-12-12T12:30:57Z</time>
      </trkpt>
      <trkpt lat="43.77184" lon="7.01772">
        <ele>1010.5</ele>
        <time>2019-12-12T12:30:59Z</time>
      </trkpt>
      <trkpt lat="43.77183" lon="7.01787">
        <ele>1008.6</ele>
        <time>2019-12-12T12:31:01Z</time>
      </trkpt>
      <trkpt lat="43.77182" lon="7.01798">
        <ele>1007.1</ele>
        <time>2019-12-12T12:31:03Z</time>
      </trkpt>
      <trkpt lat="43.77182" lon="7.01809">
        <ele>1005.2</ele>
        <time>2019-12-12T12:31:05Z</time>
      </trkpt>
      <trkpt lat="43.77182" lon="7.0182">
        <ele>1003.3</ele>
        <time>2019-12-12T12:31:07Z</time>
      </trkpt>
      <trkpt lat="43.77182" lon="7.0183">
        <ele>1001.8</ele>
        <time>2019-12-12T12:31:09Z</time>
      </trkpt>
      <trkpt lat="43.7718" lon="7.01842">
        <ele>1000.9</ele>
        <time>2019-12-12T12:31:11Z</time>
      </trkpt>
      <trkpt lat="43.77176" lon="7.01853">
        <ele>1000.9</ele>
        <time>2019-12-12T12:31:13Z</time>
      </trkpt>
      <trkpt lat="43.77171" lon="7.01862">
        <ele>1000.4</ele>
        <time>2019-12-12T12:31:15Z</time>
      </trkpt>
      <trkpt lat="43.77166" lon="7.01871">
        <ele>999.4</ele>
        <time>2019-12-12T12:31:17Z</time>
      </trkpt>
      <trkpt lat="43.77161" lon="7.01881">
        <ele>998.9</ele>
        <time>2019-12-12T12:31:19Z</time>
      </trkpt>
      <trkpt lat="43.77156" lon="7.01892">
        <ele>998.9</ele>
        <time>2019-12-12T12:31:21Z</time>
      </trkpt>
      <trkpt lat="43.77151" lon="7.01902">
        <ele>998.9</ele>
        <time>2019-12-12T12:31:23Z</time>
      </trkpt>
      <trkpt lat="43.77146" lon="7.01912">
        <ele>998.5</ele>
        <time>2019-12-12T12:31:25Z</time>
      </trkpt>
      <trkpt lat="43.77144" lon="7.01924">
        <ele>998</ele>
        <time>2019-12-12T12:31:27Z</time>
      </trkpt>
      <trkpt lat="43.77142" lon="7.01936">
        <ele>997.5</ele>
        <time>2019-12-12T12:31:29Z</time>
      </trkpt>
      <trkpt lat="43.77141" lon="7.01949">
        <ele>996.5</ele>
        <time>2019-12-12T12:31:31Z</time>
      </trkpt>
      <trkpt lat="43.77142" lon="7.01963">
        <ele>995.6</ele>
        <time>2019-12-12T12:31:33Z</time>
      </trkpt>
      <trkpt lat="43.77139" lon="7.01978">
        <ele>996.5</ele>
        <time>2019-12-12T12:31:35Z</time>
      </trkpt>
      <trkpt lat="43.77133" lon="7.01991">
        <ele>997.5</ele>
        <time>2019-12-12T12:31:37Z</time>
      </trkpt>
      <trkpt lat="43.77126" lon="7.01996">
        <ele>997.5</ele>
        <time>2019-12-12T12:31:39Z</time>
      </trkpt>
      <trkpt lat="43.77119" lon="7.02">
        <ele>998</ele>
        <time>2019-12-12T12:31:41Z</time>
      </trkpt>
      <trkpt lat="43.77114" lon="7.02004">
        <ele>997.5</ele>
        <time>2019-12-12T12:31:43Z</time>
      </trkpt>
      <trkpt lat="43.77109" lon="7.02008">
        <ele>998.5</ele>
        <time>2019-12-12T12:31:45Z</time>
      </trkpt>
      <trkpt lat="43.77104" lon="7.02013">
        <ele>998</ele>
        <time>2019-12-12T12:31:47Z</time>
      </trkpt>
      <trkpt lat="43.77098" lon="7.02019">
        <ele>998.9</ele>
        <time>2019-12-12T12:31:49Z</time>
      </trkpt>
      <trkpt lat="43.77092" lon="7.02025">
        <ele>999.4</ele>
        <time>2019-12-12T12:31:51Z</time>
      </trkpt>
      <trkpt lat="43.77089" lon="7.02032">
        <ele>1000.4</ele>
        <time>2019-12-12T12:31:53Z</time>
      </trkpt>
      <trkpt lat="43.77086" lon="7.02039">
        <ele>1000.9</ele>
        <time>2019-12-12T12:31:55Z</time>
      </trkpt>
      <trkpt lat="43.77083" lon="7.02047">
        <ele>1001.4</ele>
        <time>2019-12-12T12:31:57Z</time>
      </trkpt>
      <trkpt lat="43.77081" lon="7.02055">
        <ele>1001.4</ele>
        <time>2019-12-12T12:31:59Z</time>
      </trkpt>
      <trkpt lat="43.7708" lon="7.02063">
        <ele>1001.8</ele>
        <time>2019-12-12T12:32:01Z</time>
      </trkpt>
      <trkpt lat="43.77079" lon="7.02072">
        <ele>1001.8</ele>
        <time>2019-12-12T12:32:03Z</time>
      </trkpt>
      <trkpt lat="43.77078" lon="7.02082">
        <ele>1001.8</ele>
        <time>2019-12-12T12:32:05Z</time>
      </trkpt>
      <trkpt lat="43.77078" lon="7.02092">
        <ele>1001.8</ele>
        <time>2019-12-12T12:32:07Z</time>
      </trkpt>
      <trkpt lat="43.77079" lon="7.02103">
        <ele>1001.8</ele>
        <time>2019-12-12T12:32:09Z</time>
      </trkpt>
      <trkpt lat="43.77081" lon="7.02115">
        <ele>1001.8</ele>
        <time>2019-12-12T12:32:11Z</time>
      </trkpt>
      <trkpt lat="43.77082" lon="7.02128">
        <ele>1001.4</ele>
        <time>2019-12-12T12:32:13Z</time>
      </trkpt>
      <trkpt lat="43.77082" lon="7.02143">
        <ele>1000.9</ele>
        <time>2019-12-12T12:32:15Z</time>
      </trkpt>
      <trkpt lat="43.77079" lon="7.02155">
        <ele>1001.4</ele>
        <time>2019-12-12T12:32:17Z</time>
      </trkpt>
      <trkpt lat="43.77073" lon="7.02163">
        <ele>1002.3</ele>
        <time>2019-12-12T12:32:19Z</time>
      </trkpt>
      <trkpt lat="43.77068" lon="7.02168">
        <ele>1002.8</ele>
        <time>2019-12-12T12:32:21Z</time>
      </trkpt>
      <trkpt lat="43.77062" lon="7.02171">
        <ele>1003.8</ele>
        <time>2019-12-12T12:32:23Z</time>
      </trkpt>
      <trkpt lat="43.77056" lon="7.02174">
        <ele>1004.2</ele>
        <time>2019-12-12T12:32:25Z</time>
      </trkpt>
      <trkpt lat="43.7705" lon="7.02176">
        <ele>1003.8</ele>
        <time>2019-12-12T12:32:27Z</time>
      </trkpt>
      <trkpt lat="43.77044" lon="7.0218">
        <ele>1004.2</ele>
        <time>2019-12-12T12:32:29Z</time>
      </trkpt>
      <trkpt lat="43.77037" lon="7.02185">
        <ele>1004.7</ele>
        <time>2019-12-12T12:32:31Z</time>
      </trkpt>
      <trkpt lat="43.7703" lon="7.02193">
        <ele>1004.7</ele>
        <time>2019-12-12T12:32:33Z</time>
      </trkpt>
      <trkpt lat="43.77026" lon="7.02205">
        <ele>1004.7</ele>
        <time>2019-12-12T12:32:35Z</time>
      </trkpt>
      <trkpt lat="43.77022" lon="7.0222">
        <ele>1004.7</ele>
        <time>2019-12-12T12:32:37Z</time>
      </trkpt>
      <trkpt lat="43.77019" lon="7.02236">
        <ele>1004.7</ele>
        <time>2019-12-12T12:32:39Z</time>
      </trkpt>
      <trkpt lat="43.77015" lon="7.02249">
        <ele>1005.2</ele>
        <time>2019-12-12T12:32:41Z</time>
      </trkpt>
      <trkpt lat="43.77013" lon="7.0226">
        <ele>1005.2</ele>
        <time>2019-12-12T12:32:43Z</time>
      </trkpt>
      <trkpt lat="43.77009" lon="7.02269">
        <ele>1005.7</ele>
        <time>2019-12-12T12:32:45Z</time>
      </trkpt>
      <trkpt lat="43.77006" lon="7.02276">
        <ele>1006.6</ele>
        <time>2019-12-12T12:32:47Z</time>
      </trkpt>
      <trkpt lat="43.77003" lon="7.0228">
        <ele>1007.1</ele>
        <time>2019-12-12T12:32:49Z</time>
      </trkpt>
      <trkpt lat="43.76999" lon="7.02284">
        <ele>1007.6</ele>
        <time>2019-12-12T12:32:51Z</time>
      </trkpt>
      <trkpt lat="43.76995" lon="7.02289">
        <ele>1008.1</ele>
        <time>2019-12-12T12:32:53Z</time>
      </trkpt>
      <trkpt lat="43.76992" lon="7.02295">
        <ele>1008.1</ele>
        <time>2019-12-12T12:32:55Z</time>
      </trkpt>
      <trkpt lat="43.7699" lon="7.02299">
        <ele>1008.6</ele>
        <time>2019-12-12T12:32:57Z</time>
      </trkpt>
      <trkpt lat="43.76987" lon="7.02304">
        <ele>1009</ele>
        <time>2019-12-12T12:32:59Z</time>
      </trkpt>
      <trkpt lat="43.76985" lon="7.02309">
        <ele>1010</ele>
        <time>2019-12-12T12:33:01Z</time>
      </trkpt>
      <trkpt lat="43.76981" lon="7.02314">
        <ele>1010.5</ele>
        <time>2019-12-12T12:33:03Z</time>
      </trkpt>
      <trkpt lat="43.76979" lon="7.02322">
        <ele>1011</ele>
        <time>2019-12-12T12:33:05Z</time>
      </trkpt>
      <trkpt lat="43.76978" lon="7.02328">
        <ele>1011.9</ele>
        <time>2019-12-12T12:33:07Z</time>
      </trkpt>
      <trkpt lat="43.76977" lon="7.02334">
        <ele>1012.9</ele>
        <time>2019-12-12T12:33:09Z</time>
      </trkpt>
      <trkpt lat="43.76977" lon="7.0234">
        <ele>1013.4</ele>
        <time>2019-12-12T12:33:11Z</time>
      </trkpt>
      <trkpt lat="43.76975" lon="7.02346">
        <ele>1014.8</ele>
        <time>2019-12-12T12:33:13Z</time>
      </trkpt>
      <trkpt lat="43.76973" lon="7.02352">
        <ele>1015.8</ele>
        <time>2019-12-12T12:33:15Z</time>
      </trkpt>
      <trkpt lat="43.76971" lon="7.02356">
        <ele>1016.3</ele>
        <time>2019-12-12T12:33:17Z</time>
      </trkpt>
      <trkpt lat="43.76969" lon="7.02361">
        <ele>1017.2</ele>
        <time>2019-12-12T12:33:19Z</time>
      </trkpt>
      <trkpt lat="43.76967" lon="7.02366">
        <ele>1017.7</ele>
        <time>2019-12-12T12:33:21Z</time>
      </trkpt>
      <trkpt lat="43.76964" lon="7.02371">
        <ele>1018.7</ele>
        <time>2019-12-12T12:33:23Z</time>
      </trkpt>
      <trkpt lat="43.76964" lon="7.02375">
        <ele>1018.2</ele>
        <time>2019-12-12T12:33:25Z</time>
      </trkpt>
      <trkpt lat="43.76962" lon="7.02379">
        <ele>1019.1</ele>
        <time>2019-12-12T12:33:27Z</time>
      </trkpt>
      <trkpt lat="43.7696" lon="7.02384">
        <ele>1019.6</ele>
        <time>2019-12-12T12:33:29Z</time>
      </trkpt>
      <trkpt lat="43.76957" lon="7.02387">
        <ele>1020.6</ele>
        <time>2019-12-12T12:33:31Z</time>
      </trkpt>
      <trkpt lat="43.76956" lon="7.02391">
        <ele>1021.1</ele>
        <time>2019-12-12T12:33:33Z</time>
      </trkpt>
      <trkpt lat="43.76954" lon="7.02395">
        <ele>1021.1</ele>
        <time>2019-12-12T12:33:35Z</time>
      </trkpt>
      <trkpt lat="43.76954" lon="7.02398">
        <ele>1021.1</ele>
        <time>2019-12-12T12:33:37Z</time>
      </trkpt>
      <trkpt lat="43.76952" lon="7.02402">
        <ele>1020.6</ele>
        <time>2019-12-12T12:33:39Z</time>
      </trkpt>
      <trkpt lat="43.7695" lon="7.02407">
        <ele>1020.6</ele>
        <time>2019-12-12T12:33:41Z</time>
      </trkpt>
      <trkpt lat="43.76948" lon="7.02411">
        <ele>1021.1</ele>
        <time>2019-12-12T12:33:43Z</time>
      </trkpt>
      <trkpt lat="43.76945" lon="7.02413">
        <ele>1022</ele>
        <time>2019-12-12T12:33:45Z</time>
      </trkpt>
      <trkpt lat="43.76943" lon="7.02417">
        <ele>1022.5</ele>
        <time>2019-12-12T12:33:47Z</time>
      </trkpt>
      <trkpt lat="43.76941" lon="7.0242">
        <ele>1023</ele>
        <time>2019-12-12T12:33:49Z</time>
      </trkpt>
      <trkpt lat="43.76939" lon="7.02424">
        <ele>1023.9</ele>
        <time>2019-12-12T12:33:51Z</time>
      </trkpt>
      <trkpt lat="43.76936" lon="7.02427">
        <ele>1024.4</ele>
        <time>2019-12-12T12:33:53Z</time>
      </trkpt>
      <trkpt lat="43.76934" lon="7.0243">
        <ele>1025.4</ele>
        <time>2019-12-12T12:33:55Z</time>
      </trkpt>
      <trkpt lat="43.76931" lon="7.02432">
        <ele>1025.9</ele>
        <time>2019-12-12T12:33:57Z</time>
      </trkpt>
      <trkpt lat="43.76928" lon="7.02436">
        <ele>1026.3</ele>
        <time>2019-12-12T12:33:59Z</time>
      </trkpt>
      <trkpt lat="43.76927" lon="7.0244">
        <ele>1026.3</ele>
        <time>2019-12-12T12:34:01Z</time>
      </trkpt>
      <trkpt lat="43.76925" lon="7.02442">
        <ele>1026.8</ele>
        <time>2019-12-12T12:34:03Z</time>
      </trkpt>
      <trkpt lat="43.76923" lon="7.02445">
        <ele>1027.8</ele>
        <time>2019-12-12T12:34:05Z</time>
      </trkpt>
      <trkpt lat="43.76921" lon="7.02448">
        <ele>1028.3</ele>
        <time>2019-12-12T12:34:07Z</time>
      </trkpt>
      <trkpt lat="43.76919" lon="7.02452">
        <ele>1028.3</ele>
        <time>2019-12-12T12:34:09Z</time>
      </trkpt>
      <trkpt lat="43.76919" lon="7.02457">
        <ele>1028.7</ele>
        <time>2019-12-12T12:34:11Z</time>
      </trkpt>
      <trkpt lat="43.76918" lon="7.02462">
        <ele>1029.2</ele>
        <time>2019-12-12T12:34:13Z</time>
      </trkpt>
      <trkpt lat="43.76915" lon="7.02466">
        <ele>1029.2</ele>
        <time>2019-12-12T12:34:15Z</time>
      </trkpt>
      <trkpt lat="43.76914" lon="7.02469">
        <ele>1030.2</ele>
        <time>2019-12-12T12:34:17Z</time>
      </trkpt>
      <trkpt lat="43.76913" lon="7.02474">
        <ele>1030.2</ele>
        <time>2019-12-12T12:34:19Z</time>
      </trkpt>
      <trkpt lat="43.76912" lon="7.02478">
        <ele>1031.2</ele>
        <time>2019-12-12T12:34:21Z</time>
      </trkpt>
      <trkpt lat="43.76912" lon="7.02482">
        <ele>1031.2</ele>
        <time>2019-12-12T12:34:23Z</time>
      </trkpt>
      <trkpt lat="43.76911" lon="7.02486">
        <ele>1031.6</ele>
        <time>2019-12-12T12:34:25Z</time>
      </trkpt>
      <trkpt lat="43.76912" lon="7.02491">
        <ele>1032.1</ele>
        <time>2019-12-12T12:34:27Z</time>
      </trkpt>
      <trkpt lat="43.76911" lon="7.02496">
        <ele>1032.6</ele>
        <time>2019-12-12T12:34:29Z</time>
      </trkpt>
      <trkpt lat="43.76912" lon="7.025">
        <ele>1033.6</ele>
        <time>2019-12-12T12:34:31Z</time>
      </trkpt>
      <trkpt lat="43.76913" lon="7.02503">
        <ele>1033.6</ele>
        <time>2019-12-12T12:34:33Z</time>
      </trkpt>
      <trkpt lat="43.76914" lon="7.02504">
        <ele>1033.6</ele>
        <time>2019-12-12T12:34:35Z</time>
      </trkpt>
      <trkpt lat="43.76913" lon="7.02505">
        <ele>1032.6</ele>
        <time>2019-12-12T12:34:37Z</time>
      </trkpt>
      <trkpt lat="43.76913" lon="7.02505">
        <ele>1032.6</ele>
        <time>2019-12-12T12:34:39Z</time>
      </trkpt>
      <trkpt lat="43.76913" lon="7.02505">
        <ele>1032.6</ele>
        <time>2019-12-12T12:34:41Z</time>
      </trkpt>
      <trkpt lat="43.76913" lon="7.02505">
        <ele>1032.6</ele>
        <time>2019-12-12T12:34:43Z</time>
      </trkpt>
      <trkpt lat="43.76913" lon="7.02505">
        <ele>1032.6</ele>
        <time>2019-12-12T12:34:45Z</time>
      </trkpt>
      <trkpt lat="43.76913" lon="7.02505">
        <ele>1032.6</ele>
        <time>2019-12-12T12:34:47Z</time>
      </trkpt>
      <trkpt lat="43.76913" lon="7.02505">
        <ele>1032.6</ele>
        <time>2019-12-12T12:34:49Z</time>
      </trkpt>
      <trkpt lat="43.76913" lon="7.02505">
        <ele>1032.6</ele>
        <time>2019-12-12T12:34:51Z</time>
      </trkpt>
      <trkpt lat="43.76913" lon="7.02505">
        <ele>1032.6</ele>
        <time>2019-12-12T12:34:53Z</time>
      </trkpt>
      <trkpt lat="43.76913" lon="7.02505">
        <ele>1032.6</ele>
        <time>2019-12-12T12:34:55Z</time>
      </trkpt>
      <trkpt lat="43.76913" lon="7.02505">
        <ele>1032.6</ele>
        <time>2019-12-12T12:34:57Z</time>
      </trkpt>
      <trkpt lat="43.76913" lon="7.02505">
        <ele>1032.6</ele>
        <time>2019-12-12T12:34:59Z</time>
      </trkpt>
      <trkpt lat="43.76913" lon="7.02505">
        <ele>1032.6</ele>
        <time>2019-12-12T12:35:01Z</time>
      </trkpt>
      <trkpt lat="43.76913" lon="7.02505">
        <ele>1032.6</ele>
        <time>2019-12-12T12:35:03Z</time>
      </trkpt>
      <trkpt lat="43.76913" lon="7.02505">
        <ele>1032.6</ele>
        <time>2019-12-12T12:35:05Z</time>
      </trkpt>
      <trkpt lat="43.76913" lon="7.02505">
        <ele>1032.6</ele>
        <time>2019-12-12T12:35:07Z</time>
      </trkpt>
      <trkpt lat="43.76913" lon="7.02505">
        <ele>1032.6</ele>
        <time>2019-12-12T12:35:09Z</time>
      </trkpt>
      <trkpt lat="43.76913" lon="7.02505">
        <ele>1032.6</ele>
        <time>2019-12-12T12:35:11Z</time>
      </trkpt>
      <trkpt lat="43.76913" lon="7.02505">
        <ele>1032.6</ele>
        <time>2019-12-12T12:35:13Z</time>
      </trkpt>
      <trkpt lat="43.76913" lon="7.02505">
        <ele>1032.6</ele>
        <time>2019-12-12T12:35:15Z</time>
      </trkpt>
      <trkpt lat="43.76913" lon="7.02505">
        <ele>1032.6</ele>
        <time>2019-12-12T12:35:17Z</time>
      </trkpt>
      <trkpt lat="43.76913" lon="7.02505">
        <ele>1032.6</ele>
        <time>2019-12-12T12:35:19Z</time>
      </trkpt>
      <trkpt lat="43.76913" lon="7.02505">
        <ele>1032.6</ele>
        <time>2019-12-12T12:35:21Z</time>
      </trkpt>
      <trkpt lat="43.76913" lon="7.02505">
        <ele>1032.6</ele>
        <time>2019-12-12T12:35:23Z</time>
      </trkpt>
      <trkpt lat="43.76913" lon="7.02505">
        <ele>1032.6</ele>
        <time>2019-12-12T12:35:25Z</time>
      </trkpt>
      <trkpt lat="43.76913" lon="7.02505">
        <ele>1032.6</ele>
        <time>2019-12-12T12:35:27Z</time>
      </trkpt>
      <trkpt lat="43.76913" lon="7.02505">
        <ele>1032.6</ele>
        <time>2019-12-12T12:35:29Z</time>
      </trkpt>
      <trkpt lat="43.76913" lon="7.02505">
        <ele>1032.6</ele>
        <time>2019-12-12T12:35:31Z</time>
      </trkpt>
      <trkpt lat="43.76913" lon="7.02505">
        <ele>1032.6</ele>
        <time>2019-12-12T12:35:33Z</time>
      </trkpt>
      <trkpt lat="43.76913" lon="7.02505">
        <ele>1032.6</ele>
        <time>2019-12-12T12:35:35Z</time>
      </trkpt>
      <trkpt lat="43.76913" lon="7.02505">
        <ele>1032.6</ele>
        <time>2019-12-12T12:35:37Z</time>
      </trkpt>
      <trkpt lat="43.76913" lon="7.02505">
        <ele>1032.6</ele>
        <time>2019-12-12T12:35:39Z</time>
      </trkpt>
      <trkpt lat="43.76913" lon="7.02505">
        <ele>1032.6</ele>
        <time>2019-12-12T12:35:41Z</time>
      </trkpt>
      <trkpt lat="43.76913" lon="7.02505">
        <ele>1032.6</ele>
        <time>2019-12-12T12:35:43Z</time>
      </trkpt>
      <trkpt lat="43.76913" lon="7.02505">
        <ele>1032.6</ele>
        <time>2019-12-12T12:35:45Z</time>
      </trkpt>
      <trkpt lat="43.76913" lon="7.02505">
        <ele>1032.6</ele>
        <time>2019-12-12T12:35:47Z</time>
      </trkpt>
      <trkpt lat="43.76913" lon="7.02505">
        <ele>1032.6</ele>
        <time>2019-12-12T12:35:49Z</time>
      </trkpt>
      <trkpt lat="43.76912" lon="7.02505">
        <ele>1032.6</ele>
        <time>2019-12-12T12:35:51Z</time>
      </trkpt>
      <trkpt lat="43.76912" lon="7.02505">
        <ele>1032.6</ele>
        <time>2019-12-12T12:35:53Z</time>
      </trkpt>
      <trkpt lat="43.76912" lon="7.02505">
        <ele>1032.6</ele>
        <time>2019-12-12T12:35:55Z</time>
      </trkpt>
      <trkpt lat="43.76912" lon="7.02505">
        <ele>1032.6</ele>
        <time>2019-12-12T12:35:57Z</time>
      </trkpt>
      <trkpt lat="43.76912" lon="7.02505">
        <ele>1032.6</ele>
        <time>2019-12-12T12:35:59Z</time>
      </trkpt>
      <trkpt lat="43.76912" lon="7.02505">
        <ele>1032.6</ele>
        <time>2019-12-12T12:36:01Z</time>
      </trkpt>
      <trkpt lat="43.76912" lon="7.02505">
        <ele>1032.6</ele>
        <time>2019-12-12T12:36:03Z</time>
      </trkpt>
      <trkpt lat="43.76912" lon="7.02505">
        <ele>1032.6</ele>
        <time>2019-12-12T12:36:05Z</time>
      </trkpt>
      <trkpt lat="43.76912" lon="7.02505">
        <ele>1032.6</ele>
        <time>2019-12-12T12:36:07Z</time>
      </trkpt>
      <trkpt lat="43.76912" lon="7.02505">
        <ele>1032.6</ele>
        <time>2019-12-12T12:36:09Z</time>
      </trkpt>
      <trkpt lat="43.76912" lon="7.02505">
        <ele>1032.6</ele>
        <time>2019-12-12T12:36:11Z</time>
      </trkpt>
      <trkpt lat="43.76912" lon="7.02505">
        <ele>1032.6</ele>
        <time>2019-12-12T12:36:13Z</time>
      </trkpt>
      <trkpt lat="43.76912" lon="7.02505">
        <ele>1032.6</ele>
        <time>2019-12-12T12:36:15Z</time>
      </trkpt>
      <trkpt lat="43.76912" lon="7.02505">
        <ele>1032.6</ele>
        <time>2019-12-12T12:36:17Z</time>
      </trkpt>
      <trkpt lat="43.76912" lon="7.02506">
        <ele>1032.6</ele>
        <time>2019-12-12T12:36:19Z</time>
      </trkpt>
      <trkpt lat="43.76912" lon="7.02507">
        <ele>1032.6</ele>
        <time>2019-12-12T12:36:21Z</time>
      </trkpt>
      <trkpt lat="43.76912" lon="7.02507">
        <ele>1032.6</ele>
        <time>2019-12-12T12:36:23Z</time>
      </trkpt>
      <trkpt lat="43.76912" lon="7.02508">
        <ele>1032.6</ele>
        <time>2019-12-12T12:36:25Z</time>
      </trkpt>
      <trkpt lat="43.76912" lon="7.02509">
        <ele>1032.6</ele>
        <time>2019-12-12T12:36:27Z</time>
      </trkpt>
      <trkpt lat="43.76912" lon="7.02509">
        <ele>1032.6</ele>
        <time>2019-12-12T12:36:29Z</time>
      </trkpt>
      <trkpt lat="43.76912" lon="7.02509">
        <ele>1032.6</ele>
        <time>2019-12-12T12:36:31Z</time>
      </trkpt>
      <trkpt lat="43.76912" lon="7.0251">
        <ele>1032.6</ele>
        <time>2019-12-12T12:36:33Z</time>
      </trkpt>
      <trkpt lat="43.76912" lon="7.0251">
        <ele>1032.6</ele>
        <time>2019-12-12T12:36:35Z</time>
      </trkpt>
      <trkpt lat="43.76912" lon="7.0251">
        <ele>1032.6</ele>
        <time>2019-12-12T12:36:37Z</time>
      </trkpt>
      <trkpt lat="43.76912" lon="7.0251">
        <ele>1032.6</ele>
        <time>2019-12-12T12:36:39Z</time>
      </trkpt>
      <trkpt lat="43.76912" lon="7.02511">
        <ele>1032.6</ele>
        <time>2019-12-12T12:36:41Z</time>
      </trkpt>
      <trkpt lat="43.76912" lon="7.02511">
        <ele>1032.6</ele>
        <time>2019-12-12T12:36:43Z</time>
      </trkpt>
      <trkpt lat="43.76912" lon="7.02511">
        <ele>1032.6</ele>
        <time>2019-12-12T12:36:45Z</time>
      </trkpt>
      <trkpt lat="43.76912" lon="7.02513">
        <ele>1032.6</ele>
        <time>2019-12-12T12:36:47Z</time>
      </trkpt>
      <trkpt lat="43.76912" lon="7.02513">
        <ele>1032.1</ele>
        <time>2019-12-12T12:36:49Z</time>
      </trkpt>
      <trkpt lat="43.76912" lon="7.02517">
        <ele>1031.6</ele>
        <time>2019-12-12T12:36:51Z</time>
      </trkpt>
      <trkpt lat="43.76913" lon="7.02523">
        <ele>1030.2</ele>
        <time>2019-12-12T12:36:53Z</time>
      </trkpt>
      <trkpt lat="43.76915" lon="7.0253">
        <ele>1028.3</ele>
        <time>2019-12-12T12:36:55Z</time>
      </trkpt>
      <trkpt lat="43.76914" lon="7.02538">
        <ele>1027.8</ele>
        <time>2019-12-12T12:36:57Z</time>
      </trkpt>
      <trkpt lat="43.76915" lon="7.02546">
        <ele>1026.3</ele>
        <time>2019-12-12T12:36:59Z</time>
      </trkpt>
      <trkpt lat="43.76916" lon="7.02554">
        <ele>1024.9</ele>
        <time>2019-12-12T12:37:01Z</time>
      </trkpt>
      <trkpt lat="43.76916" lon="7.02561">
        <ele>1023.5</ele>
        <time>2019-12-12T12:37:03Z</time>
      </trkpt>
      <trkpt lat="43.76915" lon="7.02566">
        <ele>1023</ele>
        <time>2019-12-12T12:37:05Z</time>
      </trkpt>
      <trkpt lat="43.76914" lon="7.02572">
        <ele>1022</ele>
        <time>2019-12-12T12:37:07Z</time>
      </trkpt>
      <trkpt lat="43.76912" lon="7.02576">
        <ele>1021.1</ele>
        <time>2019-12-12T12:37:09Z</time>
      </trkpt>
      <trkpt lat="43.76911" lon="7.02581">
        <ele>1020.1</ele>
        <time>2019-12-12T12:37:11Z</time>
      </trkpt>
      <trkpt lat="43.76909" lon="7.02589">
        <ele>1020.1</ele>
        <time>2019-12-12T12:37:13Z</time>
      </trkpt>
      <trkpt lat="43.76908" lon="7.02601">
        <ele>1019.1</ele>
        <time>2019-12-12T12:37:15Z</time>
      </trkpt>
      <trkpt lat="43.76904" lon="7.02613">
        <ele>1019.1</ele>
        <time>2019-12-12T12:37:17Z</time>
      </trkpt>
      <trkpt lat="43.76902" lon="7.02619">
        <ele>1018.2</ele>
        <time>2019-12-12T12:37:19Z</time>
      </trkpt>
      <trkpt lat="43.769" lon="7.02624">
        <ele>1018.2</ele>
        <time>2019-12-12T12:37:21Z</time>
      </trkpt>
      <trkpt lat="43.76897" lon="7.02626">
        <ele>1017.7</ele>
        <time>2019-12-12T12:37:23Z</time>
      </trkpt>
      <trkpt lat="43.76895" lon="7.0263">
        <ele>1017.2</ele>
        <time>2019-12-12T12:37:25Z</time>
      </trkpt>
      <trkpt lat="43.76894" lon="7.02634">
        <ele>1016.7</ele>
        <time>2019-12-12T12:37:27Z</time>
      </trkpt>
      <trkpt lat="43.76892" lon="7.02638">
        <ele>1016.3</ele>
        <time>2019-12-12T12:37:29Z</time>
      </trkpt>
      <trkpt lat="43.76891" lon="7.02641">
        <ele>1015.8</ele>
        <time>2019-12-12T12:37:31Z</time>
      </trkpt>
      <trkpt lat="43.7689" lon="7.02645">
        <ele>1015.3</ele>
        <time>2019-12-12T12:37:33Z</time>
      </trkpt>
      <trkpt lat="43.76889" lon="7.02649">
        <ele>1014.8</ele>
        <time>2019-12-12T12:37:35Z</time>
      </trkpt>
      <trkpt lat="43.76888" lon="7.02653">
        <ele>1014.3</ele>
        <time>2019-12-12T12:37:37Z</time>
      </trkpt>
      <trkpt lat="43.76885" lon="7.02656">
        <ele>1013.4</ele>
        <time>2019-12-12T12:37:39Z</time>
      </trkpt>
      <trkpt lat="43.76884" lon="7.02659">
        <ele>1012.9</ele>
        <time>2019-12-12T12:37:41Z</time>
      </trkpt>
      <trkpt lat="43.76882" lon="7.02662">
        <ele>1012.4</ele>
        <time>2019-12-12T12:37:43Z</time>
      </trkpt>
      <trkpt lat="43.7688" lon="7.02666">
        <ele>1012.4</ele>
        <time>2019-12-12T12:37:45Z</time>
      </trkpt>
      <trkpt lat="43.76879" lon="7.02671">
        <ele>1011.9</ele>
        <time>2019-12-12T12:37:47Z</time>
      </trkpt>
      <trkpt lat="43.76878" lon="7.02675">
        <ele>1011</ele>
        <time>2019-12-12T12:37:49Z</time>
      </trkpt>
      <trkpt lat="43.76878" lon="7.02678">
        <ele>1011</ele>
        <time>2019-12-12T12:37:51Z</time>
      </trkpt>
      <trkpt lat="43.76876" lon="7.0268">
        <ele>1010.5</ele>
        <time>2019-12-12T12:37:53Z</time>
      </trkpt>
      <trkpt lat="43.76874" lon="7.02683">
        <ele>1009.5</ele>
        <time>2019-12-12T12:37:55Z</time>
      </trkpt>
      <trkpt lat="43.76873" lon="7.02685">
        <ele>1009</ele>
        <time>2019-12-12T12:37:57Z</time>
      </trkpt>
      <trkpt lat="43.76871" lon="7.02686">
        <ele>1009</ele>
        <time>2019-12-12T12:37:59Z</time>
      </trkpt>
      <trkpt lat="43.76869" lon="7.02686">
        <ele>1009</ele>
        <time>2019-12-12T12:38:01Z</time>
      </trkpt>
      <trkpt lat="43.76867" lon="7.02684">
        <ele>1009</ele>
        <time>2019-12-12T12:38:03Z</time>
      </trkpt>
      <trkpt lat="43.76865" lon="7.02683">
        <ele>1009</ele>
        <time>2019-12-12T12:38:05Z</time>
      </trkpt>
      <trkpt lat="43.76864" lon="7.02682">
        <ele>1010</ele>
        <time>2019-12-12T12:38:07Z</time>
      </trkpt>
      <trkpt lat="43.76861" lon="7.02683">
        <ele>1011</ele>
        <time>2019-12-12T12:38:09Z</time>
      </trkpt>
      <trkpt lat="43.7686" lon="7.02684">
        <ele>1011</ele>
        <time>2019-12-12T12:38:11Z</time>
      </trkpt>
      <trkpt lat="43.76859" lon="7.02685">
        <ele>1011</ele>
        <time>2019-12-12T12:38:13Z</time>
      </trkpt>
      <trkpt lat="43.76858" lon="7.02686">
        <ele>1011</ele>
        <time>2019-12-12T12:38:15Z</time>
      </trkpt>
      <trkpt lat="43.76855" lon="7.02687">
        <ele>1011</ele>
        <time>2019-12-12T12:38:17Z</time>
      </trkpt>
      <trkpt lat="43.76852" lon="7.02686">
        <ele>1011</ele>
        <time>2019-12-12T12:38:19Z</time>
      </trkpt>
      <trkpt lat="43.76848" lon="7.02684">
        <ele>1010.5</ele>
        <time>2019-12-12T12:38:21Z</time>
      </trkpt>
      <trkpt lat="43.76843" lon="7.02681">
        <ele>1010.5</ele>
        <time>2019-12-12T12:38:23Z</time>
      </trkpt>
      <trkpt lat="43.76837" lon="7.02679">
        <ele>1010</ele>
        <time>2019-12-12T12:38:25Z</time>
      </trkpt>
      <trkpt lat="43.7683" lon="7.02674">
        <ele>1009.5</ele>
        <time>2019-12-12T12:38:27Z</time>
      </trkpt>
      <trkpt lat="43.76823" lon="7.02671">
        <ele>1009.5</ele>
        <time>2019-12-12T12:38:29Z</time>
      </trkpt>
      <trkpt lat="43.76816" lon="7.02667">
        <ele>1008.6</ele>
        <time>2019-12-12T12:38:31Z</time>
      </trkpt>
      <trkpt lat="43.76811" lon="7.02664">
        <ele>1008.1</ele>
        <time>2019-12-12T12:38:33Z</time>
      </trkpt>
      <trkpt lat="43.76806" lon="7.02661">
        <ele>1008.1</ele>
        <time>2019-12-12T12:38:35Z</time>
      </trkpt>
      <trkpt lat="43.76801" lon="7.02658">
        <ele>1009</ele>
        <time>2019-12-12T12:38:37Z</time>
      </trkpt>
      <trkpt lat="43.76797" lon="7.02654">
        <ele>1009.5</ele>
        <time>2019-12-12T12:38:39Z</time>
      </trkpt>
      <trkpt lat="43.76791" lon="7.0265">
        <ele>1009.5</ele>
        <time>2019-12-12T12:38:41Z</time>
      </trkpt>
      <trkpt lat="43.76785" lon="7.02647">
        <ele>1009.5</ele>
        <time>2019-12-12T12:38:43Z</time>
      </trkpt>
      <trkpt lat="43.7678" lon="7.02643">
        <ele>1010.5</ele>
        <time>2019-12-12T12:38:45Z</time>
      </trkpt>
      <trkpt lat="43.76777" lon="7.02639">
        <ele>1011</ele>
        <time>2019-12-12T12:38:47Z</time>
      </trkpt>
      <trkpt lat="43.76771" lon="7.02633">
        <ele>1010.5</ele>
        <time>2019-12-12T12:38:49Z</time>
      </trkpt>
      <trkpt lat="43.76764" lon="7.02629">
        <ele>1011.4</ele>
        <time>2019-12-12T12:38:51Z</time>
      </trkpt>
      <trkpt lat="43.76758" lon="7.02626">
        <ele>1011.9</ele>
        <time>2019-12-12T12:38:53Z</time>
      </trkpt>
      <trkpt lat="43.76753" lon="7.02622">
        <ele>1012.4</ele>
        <time>2019-12-12T12:38:55Z</time>
      </trkpt>
      <trkpt lat="43.76746" lon="7.02617">
        <ele>1013.4</ele>
        <time>2019-12-12T12:38:57Z</time>
      </trkpt>
      <trkpt lat="43.7674" lon="7.02613">
        <ele>1013.4</ele>
        <time>2019-12-12T12:38:59Z</time>
      </trkpt>
      <trkpt lat="43.76735" lon="7.0261">
        <ele>1013.8</ele>
        <time>2019-12-12T12:39:01Z</time>
      </trkpt>
      <trkpt lat="43.76729" lon="7.02606">
        <ele>1014.3</ele>
        <time>2019-12-12T12:39:03Z</time>
      </trkpt>
      <trkpt lat="43.76725" lon="7.02603">
        <ele>1013.8</ele>
        <time>2019-12-12T12:39:05Z</time>
      </trkpt>
      <trkpt lat="43.7672" lon="7.026">
        <ele>1013.4</ele>
        <time>2019-12-12T12:39:07Z</time>
      </trkpt>
      <trkpt lat="43.76715" lon="7.02596">
        <ele>1011.9</ele>
        <time>2019-12-12T12:39:09Z</time>
      </trkpt>
      <trkpt lat="43.76709" lon="7.02592">
        <ele>1011.9</ele>
        <time>2019-12-12T12:39:11Z</time>
      </trkpt>
      <trkpt lat="43.76703" lon="7.02588">
        <ele>1012.4</ele>
        <time>2019-12-12T12:39:13Z</time>
      </trkpt>
      <trkpt lat="43.76698" lon="7.02585">
        <ele>1012.4</ele>
        <time>2019-12-12T12:39:15Z</time>
      </trkpt>
      <trkpt lat="43.76693" lon="7.02582">
        <ele>1012.4</ele>
        <time>2019-12-12T12:39:17Z</time>
      </trkpt>
      <trkpt lat="43.76688" lon="7.02578">
        <ele>1012.9</ele>
        <time>2019-12-12T12:39:19Z</time>
      </trkpt>
      <trkpt lat="43.76683" lon="7.02572">
        <ele>1012.9</ele>
        <time>2019-12-12T12:39:21Z</time>
      </trkpt>
      <trkpt lat="43.76677" lon="7.02568">
        <ele>1012.9</ele>
        <time>2019-12-12T12:39:23Z</time>
      </trkpt>
      <trkpt lat="43.76671" lon="7.02565">
        <ele>1013.8</ele>
        <time>2019-12-12T12:39:25Z</time>
      </trkpt>
      <trkpt lat="43.76665" lon="7.02562">
        <ele>1014.3</ele>
        <time>2019-12-12T12:39:27Z</time>
      </trkpt>
      <trkpt lat="43.7666" lon="7.02559">
        <ele>1014.8</ele>
        <time>2019-12-12T12:39:29Z</time>
      </trkpt>
      <trkpt lat="43.76655" lon="7.02555">
        <ele>1015.3</ele>
        <time>2019-12-12T12:39:31Z</time>
      </trkpt>
      <trkpt lat="43.7665" lon="7.02551">
        <ele>1015.8</ele>
        <time>2019-12-12T12:39:33Z</time>
      </trkpt>
      <trkpt lat="43.76645" lon="7.02546">
        <ele>1016.3</ele>
        <time>2019-12-12T12:39:35Z</time>
      </trkpt>
      <trkpt lat="43.7664" lon="7.02543">
        <ele>1015.8</ele>
        <time>2019-12-12T12:39:37Z</time>
      </trkpt>
      <trkpt lat="43.76635" lon="7.02538">
        <ele>1015.8</ele>
        <time>2019-12-12T12:39:39Z</time>
      </trkpt>
      <trkpt lat="43.7663" lon="7.02534">
        <ele>1014.8</ele>
        <time>2019-12-12T12:39:41Z</time>
      </trkpt>
      <trkpt lat="43.76626" lon="7.0253">
        <ele>1014.8</ele>
        <time>2019-12-12T12:39:43Z</time>
      </trkpt>
      <trkpt lat="43.7662" lon="7.02526">
        <ele>1015.3</ele>
        <time>2019-12-12T12:39:45Z</time>
      </trkpt>
      <trkpt lat="43.76615" lon="7.02522">
        <ele>1014.8</ele>
        <time>2019-12-12T12:39:47Z</time>
      </trkpt>
      <trkpt lat="43.76609" lon="7.02517">
        <ele>1014.3</ele>
        <time>2019-12-12T12:39:49Z</time>
      </trkpt>
      <trkpt lat="43.76602" lon="7.02513">
        <ele>1014.3</ele>
        <time>2019-12-12T12:39:51Z</time>
      </trkpt>
      <trkpt lat="43.76596" lon="7.02508">
        <ele>1014.3</ele>
        <time>2019-12-12T12:39:53Z</time>
      </trkpt>
      <trkpt lat="43.7659" lon="7.02504">
        <ele>1015.3</ele>
        <time>2019-12-12T12:39:55Z</time>
      </trkpt>
      <trkpt lat="43.76583" lon="7.02499">
        <ele>1014.8</ele>
        <time>2019-12-12T12:39:57Z</time>
      </trkpt>
      <trkpt lat="43.76577" lon="7.02494">
        <ele>1014.3</ele>
        <time>2019-12-12T12:39:59Z</time>
      </trkpt>
      <trkpt lat="43.76571" lon="7.02489">
        <ele>1013.8</ele>
        <time>2019-12-12T12:40:01Z</time>
      </trkpt>
      <trkpt lat="43.76565" lon="7.02484">
        <ele>1014.3</ele>
        <time>2019-12-12T12:40:03Z</time>
      </trkpt>
      <trkpt lat="43.76559" lon="7.02479">
        <ele>1014.8</ele>
        <time>2019-12-12T12:40:05Z</time>
      </trkpt>
      <trkpt lat="43.76552" lon="7.02474">
        <ele>1014.8</ele>
        <time>2019-12-12T12:40:07Z</time>
      </trkpt>
      <trkpt lat="43.76544" lon="7.02471">
        <ele>1015.3</ele>
        <time>2019-12-12T12:40:09Z</time>
      </trkpt>
      <trkpt lat="43.76537" lon="7.0247">
        <ele>1015.3</ele>
        <time>2019-12-12T12:40:11Z</time>
      </trkpt>
      <trkpt lat="43.76531" lon="7.0247">
        <ele>1014.8</ele>
        <time>2019-12-12T12:40:13Z</time>
      </trkpt>
      <trkpt lat="43.76524" lon="7.02471">
        <ele>1014.3</ele>
        <time>2019-12-12T12:40:15Z</time>
      </trkpt>
      <trkpt lat="43.76517" lon="7.0247">
        <ele>1013.8</ele>
        <time>2019-12-12T12:40:17Z</time>
      </trkpt>
      <trkpt lat="43.7651" lon="7.02469">
        <ele>1013.4</ele>
        <time>2019-12-12T12:40:19Z</time>
      </trkpt>
      <trkpt lat="43.76503" lon="7.0247">
        <ele>1013.4</ele>
        <time>2019-12-12T12:40:21Z</time>
      </trkpt>
      <trkpt lat="43.76498" lon="7.02471">
        <ele>1013.8</ele>
        <time>2019-12-12T12:40:23Z</time>
      </trkpt>
      <trkpt lat="43.76493" lon="7.02471">
        <ele>1013.8</ele>
        <time>2019-12-12T12:40:25Z</time>
      </trkpt>
      <trkpt lat="43.76487" lon="7.0247">
        <ele>1013.8</ele>
        <time>2019-12-12T12:40:27Z</time>
      </trkpt>
      <trkpt lat="43.76481" lon="7.0247">
        <ele>1014.3</ele>
        <time>2019-12-12T12:40:29Z</time>
      </trkpt>
      <trkpt lat="43.76474" lon="7.02467">
        <ele>1014.8</ele>
        <time>2019-12-12T12:40:31Z</time>
      </trkpt>
      <trkpt lat="43.76466" lon="7.02463">
        <ele>1014.8</ele>
        <time>2019-12-12T12:40:33Z</time>
      </trkpt>
      <trkpt lat="43.76456" lon="7.0246">
        <ele>1014.8</ele>
        <time>2019-12-12T12:40:35Z</time>
      </trkpt>
      <trkpt lat="43.76448" lon="7.02457">
        <ele>1014.8</ele>
        <time>2019-12-12T12:40:37Z</time>
      </trkpt>
      <trkpt lat="43.76441" lon="7.02456">
        <ele>1012.4</ele>
        <time>2019-12-12T12:40:39Z</time>
      </trkpt>
      <trkpt lat="43.76434" lon="7.02454">
        <ele>1012.4</ele>
        <time>2019-12-12T12:40:41Z</time>
      </trkpt>
      <trkpt lat="43.76428" lon="7.0245">
        <ele>1011.9</ele>
        <time>2019-12-12T12:40:43Z</time>
      </trkpt>
      <trkpt lat="43.76422" lon="7.02446">
        <ele>1011.9</ele>
        <time>2019-12-12T12:40:45Z</time>
      </trkpt>
      <trkpt lat="43.76416" lon="7.02441">
        <ele>1011.9</ele>
        <time>2019-12-12T12:40:47Z</time>
      </trkpt>
      <trkpt lat="43.7641" lon="7.02436">
        <ele>1011.4</ele>
        <time>2019-12-12T12:40:49Z</time>
      </trkpt>
      <trkpt lat="43.76404" lon="7.0243">
        <ele>1011</ele>
        <time>2019-12-12T12:40:51Z</time>
      </trkpt>
      <trkpt lat="43.76396" lon="7.02425">
        <ele>1009.5</ele>
        <time>2019-12-12T12:40:53Z</time>
      </trkpt>
      <trkpt lat="43.76386" lon="7.02417">
        <ele>1008.6</ele>
        <time>2019-12-12T12:40:55Z</time>
      </trkpt>
      <trkpt lat="43.76376" lon="7.02409">
        <ele>1008.1</ele>
        <time>2019-12-12T12:40:57Z</time>
      </trkpt>
      <trkpt lat="43.76366" lon="7.024">
        <ele>1006.6</ele>
        <time>2019-12-12T12:40:59Z</time>
      </trkpt>
      <trkpt lat="43.76357" lon="7.02395">
        <ele>1005.2</ele>
        <time>2019-12-12T12:41:01Z</time>
      </trkpt>
      <trkpt lat="43.7635" lon="7.0239">
        <ele>1004.2</ele>
        <time>2019-12-12T12:41:03Z</time>
      </trkpt>
      <trkpt lat="43.76344" lon="7.02385">
        <ele>1004.7</ele>
        <time>2019-12-12T12:41:05Z</time>
      </trkpt>
      <trkpt lat="43.76338" lon="7.02379">
        <ele>1004.2</ele>
        <time>2019-12-12T12:41:07Z</time>
      </trkpt>
      <trkpt lat="43.76331" lon="7.02373">
        <ele>1004.2</ele>
        <time>2019-12-12T12:41:09Z</time>
      </trkpt>
      <trkpt lat="43.76323" lon="7.02366">
        <ele>1004.2</ele>
        <time>2019-12-12T12:41:11Z</time>
      </trkpt>
      <trkpt lat="43.76316" lon="7.02361">
        <ele>1004.2</ele>
        <time>2019-12-12T12:41:13Z</time>
      </trkpt>
      <trkpt lat="43.7631" lon="7.02354">
        <ele>1004.2</ele>
        <time>2019-12-12T12:41:15Z</time>
      </trkpt>
      <trkpt lat="43.76306" lon="7.02345">
        <ele>1003.8</ele>
        <time>2019-12-12T12:41:17Z</time>
      </trkpt>
      <trkpt lat="43.76303" lon="7.02335">
        <ele>1003.3</ele>
        <time>2019-12-12T12:41:19Z</time>
      </trkpt>
      <trkpt lat="43.763" lon="7.02327">
        <ele>1002.8</ele>
        <time>2019-12-12T12:41:21Z</time>
      </trkpt>
      <trkpt lat="43.76298" lon="7.0232">
        <ele>1003.3</ele>
        <time>2019-12-12T12:41:23Z</time>
      </trkpt>
      <trkpt lat="43.76296" lon="7.02312">
        <ele>1003.8</ele>
        <time>2019-12-12T12:41:25Z</time>
      </trkpt>
      <trkpt lat="43.76294" lon="7.02304">
        <ele>1004.2</ele>
        <time>2019-12-12T12:41:27Z</time>
      </trkpt>
      <trkpt lat="43.76291" lon="7.02296">
        <ele>1003.8</ele>
        <time>2019-12-12T12:41:29Z</time>
      </trkpt>
      <trkpt lat="43.76287" lon="7.0229">
        <ele>1003.8</ele>
        <time>2019-12-12T12:41:31Z</time>
      </trkpt>
      <trkpt lat="43.76283" lon="7.02284">
        <ele>1004.7</ele>
        <time>2019-12-12T12:41:33Z</time>
      </trkpt>
      <trkpt lat="43.7628" lon="7.02278">
        <ele>1005.2</ele>
        <time>2019-12-12T12:41:35Z</time>
      </trkpt>
      <trkpt lat="43.76276" lon="7.02272">
        <ele>1006.2</ele>
        <time>2019-12-12T12:41:37Z</time>
      </trkpt>
      <trkpt lat="43.76272" lon="7.02266">
        <ele>1007.6</ele>
        <time>2019-12-12T12:41:39Z</time>
      </trkpt>
      <trkpt lat="43.7627" lon="7.0226">
        <ele>1008.1</ele>
        <time>2019-12-12T12:41:41Z</time>
      </trkpt>
      <trkpt lat="43.76268" lon="7.02256">
        <ele>1008.6</ele>
        <time>2019-12-12T12:41:43Z</time>
      </trkpt>
      <trkpt lat="43.76266" lon="7.02249">
        <ele>1006.6</ele>
        <time>2019-12-12T12:41:45Z</time>
      </trkpt>
      <trkpt lat="43.76263" lon="7.02242">
        <ele>1005.2</ele>
        <time>2019-12-12T12:41:47Z</time>
      </trkpt>
      <trkpt lat="43.76259" lon="7.02233">
        <ele>1004.2</ele>
        <time>2019-12-12T12:41:49Z</time>
      </trkpt>
      <trkpt lat="43.76256" lon="7.02225">
        <ele>1002.3</ele>
        <time>2019-12-12T12:41:51Z</time>
      </trkpt>
      <trkpt lat="43.76253" lon="7.02218">
        <ele>1002.3</ele>
        <time>2019-12-12T12:41:53Z</time>
      </trkpt>
      <trkpt lat="43.76251" lon="7.0221">
        <ele>1002.3</ele>
        <time>2019-12-12T12:41:55Z</time>
      </trkpt>
      <trkpt lat="43.76248" lon="7.02203">
        <ele>1002.8</ele>
        <time>2019-12-12T12:41:57Z</time>
      </trkpt>
      <trkpt lat="43.76247" lon="7.02197">
        <ele>1001.8</ele>
        <time>2019-12-12T12:41:59Z</time>
      </trkpt>
      <trkpt lat="43.76245" lon="7.02191">
        <ele>1001.4</ele>
        <time>2019-12-12T12:42:01Z</time>
      </trkpt>
      <trkpt lat="43.76242" lon="7.02186">
        <ele>1000.9</ele>
        <time>2019-12-12T12:42:03Z</time>
      </trkpt>
      <trkpt lat="43.76238" lon="7.02184">
        <ele>1001.4</ele>
        <time>2019-12-12T12:42:05Z</time>
      </trkpt>
      <trkpt lat="43.76233" lon="7.02184">
        <ele>999.4</ele>
        <time>2019-12-12T12:42:07Z</time>
      </trkpt>
      <trkpt lat="43.76228" lon="7.02185">
        <ele>998</ele>
        <time>2019-12-12T12:42:09Z</time>
      </trkpt>
      <trkpt lat="43.76224" lon="7.02186">
        <ele>998</ele>
        <time>2019-12-12T12:42:11Z</time>
      </trkpt>
      <trkpt lat="43.76219" lon="7.02188">
        <ele>997</ele>
        <time>2019-12-12T12:42:13Z</time>
      </trkpt>
      <trkpt lat="43.76215" lon="7.02189">
        <ele>997</ele>
        <time>2019-12-12T12:42:15Z</time>
      </trkpt>
      <trkpt lat="43.76211" lon="7.0219">
        <ele>995.6</ele>
        <time>2019-12-12T12:42:17Z</time>
      </trkpt>
      <trkpt lat="43.76207" lon="7.0219">
        <ele>995.1</ele>
        <time>2019-12-12T12:42:19Z</time>
      </trkpt>
      <trkpt lat="43.76202" lon="7.0219">
        <ele>993.7</ele>
        <time>2019-12-12T12:42:21Z</time>
      </trkpt>
      <trkpt lat="43.76199" lon="7.02188">
        <ele>993.7</ele>
        <time>2019-12-12T12:42:23Z</time>
      </trkpt>
      <trkpt lat="43.76195" lon="7.02186">
        <ele>991.7</ele>
        <time>2019-12-12T12:42:25Z</time>
      </trkpt>
      <trkpt lat="43.76192" lon="7.02182">
        <ele>989.8</ele>
        <time>2019-12-12T12:42:27Z</time>
      </trkpt>
      <trkpt lat="43.76188" lon="7.02177">
        <ele>988.4</ele>
        <time>2019-12-12T12:42:29Z</time>
      </trkpt>
      <trkpt lat="43.76183" lon="7.02173">
        <ele>986.4</ele>
        <time>2019-12-12T12:42:31Z</time>
      </trkpt>
      <trkpt lat="43.76178" lon="7.0217">
        <ele>985.5</ele>
        <time>2019-12-12T12:42:33Z</time>
      </trkpt>
      <trkpt lat="43.76174" lon="7.02168">
        <ele>983.6</ele>
        <time>2019-12-12T12:42:35Z</time>
      </trkpt>
      <trkpt lat="43.7617" lon="7.02166">
        <ele>982.6</ele>
        <time>2019-12-12T12:42:37Z</time>
      </trkpt>
      <trkpt lat="43.76167" lon="7.02163">
        <ele>980.7</ele>
        <time>2019-12-12T12:42:39Z</time>
      </trkpt>
      <trkpt lat="43.76163" lon="7.02161">
        <ele>979.2</ele>
        <time>2019-12-12T12:42:41Z</time>
      </trkpt>
      <trkpt lat="43.76159" lon="7.02158">
        <ele>978.8</ele>
        <time>2019-12-12T12:42:43Z</time>
      </trkpt>
      <trkpt lat="43.76155" lon="7.02155">
        <ele>977.8</ele>
        <time>2019-12-12T12:42:45Z</time>
      </trkpt>
      <trkpt lat="43.76152" lon="7.02151">
        <ele>976.4</ele>
        <time>2019-12-12T12:42:47Z</time>
      </trkpt>
      <trkpt lat="43.76148" lon="7.02148">
        <ele>975.9</ele>
        <time>2019-12-12T12:42:49Z</time>
      </trkpt>
      <trkpt lat="43.76144" lon="7.02146">
        <ele>974.4</ele>
        <time>2019-12-12T12:42:51Z</time>
      </trkpt>
      <trkpt lat="43.7614" lon="7.02142">
        <ele>973.5</ele>
        <time>2019-12-12T12:42:53Z</time>
      </trkpt>
      <trkpt lat="43.76136" lon="7.02138">
        <ele>973</ele>
        <time>2019-12-12T12:42:55Z</time>
      </trkpt>
      <trkpt lat="43.7613" lon="7.02133">
        <ele>973</ele>
        <time>2019-12-12T12:42:57Z</time>
      </trkpt>
      <trkpt lat="43.76125" lon="7.02129">
        <ele>972.5</ele>
        <time>2019-12-12T12:42:59Z</time>
      </trkpt>
      <trkpt lat="43.76121" lon="7.02126">
        <ele>972</ele>
        <time>2019-12-12T12:43:01Z</time>
      </trkpt>
      <trkpt lat="43.76117" lon="7.02122">
        <ele>971.5</ele>
        <time>2019-12-12T12:43:03Z</time>
      </trkpt>
      <trkpt lat="43.76112" lon="7.02117">
        <ele>970.6</ele>
        <time>2019-12-12T12:43:05Z</time>
      </trkpt>
      <trkpt lat="43.76107" lon="7.02111">
        <ele>970.6</ele>
        <time>2019-12-12T12:43:07Z</time>
      </trkpt>
      <trkpt lat="43.761" lon="7.02106">
        <ele>970.1</ele>
        <time>2019-12-12T12:43:09Z</time>
      </trkpt>
      <trkpt lat="43.76095" lon="7.02101">
        <ele>968.7</ele>
        <time>2019-12-12T12:43:11Z</time>
      </trkpt>
      <trkpt lat="43.7609" lon="7.02096">
        <ele>967.7</ele>
        <time>2019-12-12T12:43:13Z</time>
      </trkpt>
      <trkpt lat="43.76086" lon="7.02092">
        <ele>966.7</ele>
        <time>2019-12-12T12:43:15Z</time>
      </trkpt>
      <trkpt lat="43.76082" lon="7.02089">
        <ele>966.3</ele>
        <time>2019-12-12T12:43:17Z</time>
      </trkpt>
      <trkpt lat="43.76077" lon="7.02084">
        <ele>965.3</ele>
        <time>2019-12-12T12:43:19Z</time>
      </trkpt>
      <trkpt lat="43.7607" lon="7.02077">
        <ele>964.8</ele>
        <time>2019-12-12T12:43:21Z</time>
      </trkpt>
      <trkpt lat="43.76064" lon="7.02071">
        <ele>963.9</ele>
        <time>2019-12-12T12:43:23Z</time>
      </trkpt>
      <trkpt lat="43.76058" lon="7.02066">
        <ele>962.9</ele>
        <time>2019-12-12T12:43:25Z</time>
      </trkpt>
      <trkpt lat="43.76053" lon="7.02061">
        <ele>961.5</ele>
        <time>2019-12-12T12:43:27Z</time>
      </trkpt>
      <trkpt lat="43.76046" lon="7.02058">
        <ele>961</ele>
        <time>2019-12-12T12:43:29Z</time>
      </trkpt>
      <trkpt lat="43.76043" lon="7.02056">
        <ele>961</ele>
        <time>2019-12-12T12:43:31Z</time>
      </trkpt>
      <trkpt lat="43.76041" lon="7.02052">
        <ele>961</ele>
        <time>2019-12-12T12:43:33Z</time>
      </trkpt>
      <trkpt lat="43.76036" lon="7.02048">
        <ele>960</ele>
        <time>2019-12-12T12:43:35Z</time>
      </trkpt>
      <trkpt lat="43.76031" lon="7.02043">
        <ele>959.5</ele>
        <time>2019-12-12T12:43:37Z</time>
      </trkpt>
      <trkpt lat="43.76027" lon="7.02038">
        <ele>959.1</ele>
        <time>2019-12-12T12:43:39Z</time>
      </trkpt>
      <trkpt lat="43.76023" lon="7.02035">
        <ele>958.1</ele>
        <time>2019-12-12T12:43:41Z</time>
      </trkpt>
      <trkpt lat="43.7602" lon="7.02031">
        <ele>957.1</ele>
        <time>2019-12-12T12:43:43Z</time>
      </trkpt>
      <trkpt lat="43.76016" lon="7.02029">
        <ele>956.6</ele>
        <time>2019-12-12T12:43:45Z</time>
      </trkpt>
      <trkpt lat="43.7601" lon="7.02025">
        <ele>956.6</ele>
        <time>2019-12-12T12:43:47Z</time>
      </trkpt>
      <trkpt lat="43.76004" lon="7.0202">
        <ele>955.7</ele>
        <time>2019-12-12T12:43:49Z</time>
      </trkpt>
      <trkpt lat="43.75997" lon="7.02016">
        <ele>955.2</ele>
        <time>2019-12-12T12:43:51Z</time>
      </trkpt>
      <trkpt lat="43.75992" lon="7.02013">
        <ele>954.2</ele>
        <time>2019-12-12T12:43:53Z</time>
      </trkpt>
      <trkpt lat="43.75987" lon="7.0201">
        <ele>953.8</ele>
        <time>2019-12-12T12:43:55Z</time>
      </trkpt>
      <trkpt lat="43.75982" lon="7.02007">
        <ele>953.3</ele>
        <time>2019-12-12T12:43:57Z</time>
      </trkpt>
      <trkpt lat="43.75977" lon="7.02002">
        <ele>952.8</ele>
        <time>2019-12-12T12:43:59Z</time>
      </trkpt>
      <trkpt lat="43.75971" lon="7.01998">
        <ele>952.3</ele>
        <time>2019-12-12T12:44:01Z</time>
      </trkpt>
      <trkpt lat="43.75965" lon="7.01994">
        <ele>952.3</ele>
        <time>2019-12-12T12:44:03Z</time>
      </trkpt>
      <trkpt lat="43.75958" lon="7.0199">
        <ele>952.8</ele>
        <time>2019-12-12T12:44:05Z</time>
      </trkpt>
      <trkpt lat="43.75953" lon="7.01986">
        <ele>952.8</ele>
        <time>2019-12-12T12:44:07Z</time>
      </trkpt>
      <trkpt lat="43.75947" lon="7.01983">
        <ele>952.8</ele>
        <time>2019-12-12T12:44:09Z</time>
      </trkpt>
      <trkpt lat="43.7594" lon="7.0198">
        <ele>952.8</ele>
        <time>2019-12-12T12:44:11Z</time>
      </trkpt>
      <trkpt lat="43.75936" lon="7.01977">
        <ele>952.8</ele>
        <time>2019-12-12T12:44:13Z</time>
      </trkpt>
      <trkpt lat="43.75932" lon="7.01976">
        <ele>953.3</ele>
        <time>2019-12-12T12:44:15Z</time>
      </trkpt>
      <trkpt lat="43.75929" lon="7.01974">
        <ele>953.8</ele>
        <time>2019-12-12T12:44:17Z</time>
      </trkpt>
      <trkpt lat="43.75927" lon="7.01973">
        <ele>954.2</ele>
        <time>2019-12-12T12:44:19Z</time>
      </trkpt>
      <trkpt lat="43.75926" lon="7.01973">
        <ele>954.2</ele>
        <time>2019-12-12T12:44:21Z</time>
      </trkpt>
      <trkpt lat="43.75926" lon="7.01973">
        <ele>953.8</ele>
        <time>2019-12-12T12:44:23Z</time>
      </trkpt>
      <trkpt lat="43.75926" lon="7.01973">
        <ele>953.8</ele>
        <time>2019-12-12T12:44:25Z</time>
      </trkpt>
      <trkpt lat="43.75926" lon="7.01973">
        <ele>953.8</ele>
        <time>2019-12-12T12:44:27Z</time>
      </trkpt>
      <trkpt lat="43.75926" lon="7.01973">
        <ele>953.8</ele>
        <time>2019-12-12T12:44:29Z</time>
      </trkpt>
      <trkpt lat="43.75926" lon="7.01973">
        <ele>953.8</ele>
        <time>2019-12-12T12:44:31Z</time>
      </trkpt>
      <trkpt lat="43.75926" lon="7.01973">
        <ele>953.8</ele>
        <time>2019-12-12T12:44:33Z</time>
      </trkpt>
      <trkpt lat="43.75926" lon="7.01973">
        <ele>953.8</ele>
        <time>2019-12-12T12:44:35Z</time>
      </trkpt>
      <trkpt lat="43.75926" lon="7.01973">
        <ele>953.8</ele>
        <time>2019-12-12T12:44:37Z</time>
      </trkpt>
      <trkpt lat="43.75926" lon="7.01973">
        <ele>953.8</ele>
        <time>2019-12-12T12:44:39Z</time>
      </trkpt>
      <trkpt lat="43.75926" lon="7.01973">
        <ele>953.8</ele>
        <time>2019-12-12T12:44:41Z</time>
      </trkpt>
      <trkpt lat="43.75926" lon="7.01973">
        <ele>953.8</ele>
        <time>2019-12-12T12:44:43Z</time>
      </trkpt>
      <trkpt lat="43.75926" lon="7.01973">
        <ele>953.8</ele>
        <time>2019-12-12T12:44:45Z</time>
      </trkpt>
      <trkpt lat="43.75926" lon="7.01973">
        <ele>953.8</ele>
        <time>2019-12-12T12:44:47Z</time>
      </trkpt>
      <trkpt lat="43.75926" lon="7.01973">
        <ele>953.8</ele>
        <time>2019-12-12T12:44:49Z</time>
      </trkpt>
      <trkpt lat="43.75926" lon="7.01973">
        <ele>953.8</ele>
        <time>2019-12-12T12:44:51Z</time>
      </trkpt>
      <trkpt lat="43.75926" lon="7.01973">
        <ele>953.8</ele>
        <time>2019-12-12T12:44:53Z</time>
      </trkpt>
      <trkpt lat="43.75926" lon="7.01973">
        <ele>953.8</ele>
        <time>2019-12-12T12:44:55Z</time>
      </trkpt>
      <trkpt lat="43.75926" lon="7.01973">
        <ele>953.8</ele>
        <time>2019-12-12T12:44:57Z</time>
      </trkpt>
      <trkpt lat="43.75926" lon="7.01973">
        <ele>953.8</ele>
        <time>2019-12-12T12:44:59Z</time>
      </trkpt>
      <trkpt lat="43.75926" lon="7.01973">
        <ele>953.8</ele>
        <time>2019-12-12T12:45:01Z</time>
      </trkpt>
      <trkpt lat="43.75926" lon="7.01973">
        <ele>953.8</ele>
        <time>2019-12-12T12:45:03Z</time>
      </trkpt>
      <trkpt lat="43.75926" lon="7.01973">
        <ele>953.8</ele>
        <time>2019-12-12T12:45:05Z</time>
      </trkpt>
      <trkpt lat="43.75926" lon="7.01973">
        <ele>953.8</ele>
        <time>2019-12-12T12:45:07Z</time>
      </trkpt>
      <trkpt lat="43.75926" lon="7.01973">
        <ele>953.8</ele>
        <time>2019-12-12T12:45:09Z</time>
      </trkpt>
      <trkpt lat="43.75926" lon="7.01973">
        <ele>953.8</ele>
        <time>2019-12-12T12:45:11Z</time>
      </trkpt>
      <trkpt lat="43.75926" lon="7.01973">
        <ele>953.8</ele>
        <time>2019-12-12T12:45:13Z</time>
      </trkpt>
      <trkpt lat="43.75926" lon="7.01973">
        <ele>953.8</ele>
        <time>2019-12-12T12:45:15Z</time>
      </trkpt>
      <trkpt lat="43.75926" lon="7.01973">
        <ele>953.8</ele>
        <time>2019-12-12T12:45:17Z</time>
      </trkpt>
      <trkpt lat="43.75926" lon="7.01973">
        <ele>953.8</ele>
        <time>2019-12-12T12:45:19Z</time>
      </trkpt>
      <trkpt lat="43.75926" lon="7.01973">
        <ele>953.8</ele>
        <time>2019-12-12T12:45:21Z</time>
      </trkpt>
      <trkpt lat="43.75926" lon="7.01973">
        <ele>953.8</ele>
        <time>2019-12-12T12:45:23Z</time>
      </trkpt>
      <trkpt lat="43.75926" lon="7.01973">
        <ele>953.8</ele>
        <time>2019-12-12T12:45:25Z</time>
      </trkpt>
      <trkpt lat="43.75926" lon="7.01973">
        <ele>953.8</ele>
        <time>2019-12-12T12:45:27Z</time>
      </trkpt>
      <trkpt lat="43.75926" lon="7.01973">
        <ele>953.8</ele>
        <time>2019-12-12T12:45:29Z</time>
      </trkpt>
      <trkpt lat="43.75926" lon="7.01973">
        <ele>953.8</ele>
        <time>2019-12-12T12:45:31Z</time>
      </trkpt>
      <trkpt lat="43.75924" lon="7.01972">
        <ele>954.2</ele>
        <time>2019-12-12T12:45:33Z</time>
      </trkpt>
      <trkpt lat="43.75921" lon="7.01968">
        <ele>954.7</ele>
        <time>2019-12-12T12:45:35Z</time>
      </trkpt>
      <trkpt lat="43.75917" lon="7.01966">
        <ele>954.7</ele>
        <time>2019-12-12T12:45:37Z</time>
      </trkpt>
      <trkpt lat="43.75913" lon="7.01963">
        <ele>954.7</ele>
        <time>2019-12-12T12:45:39Z</time>
      </trkpt>
      <trkpt lat="43.75909" lon="7.01961">
        <ele>954.2</ele>
        <time>2019-12-12T12:45:41Z</time>
      </trkpt>
      <trkpt lat="43.75903" lon="7.01958">
        <ele>954.2</ele>
        <time>2019-12-12T12:45:43Z</time>
      </trkpt>
      <trkpt lat="43.75896" lon="7.01955">
        <ele>953.8</ele>
        <time>2019-12-12T12:45:45Z</time>
      </trkpt>
      <trkpt lat="43.75889" lon="7.01952">
        <ele>953.8</ele>
        <time>2019-12-12T12:45:47Z</time>
      </trkpt>
      <trkpt lat="43.75882" lon="7.01949">
        <ele>953.8</ele>
        <time>2019-12-12T12:45:49Z</time>
      </trkpt>
      <trkpt lat="43.75875" lon="7.01947">
        <ele>952.8</ele>
        <time>2019-12-12T12:45:51Z</time>
      </trkpt>
      <trkpt lat="43.75866" lon="7.01944">
        <ele>953.3</ele>
        <time>2019-12-12T12:45:53Z</time>
      </trkpt>
      <trkpt lat="43.75859" lon="7.01941">
        <ele>952.3</ele>
        <time>2019-12-12T12:45:55Z</time>
      </trkpt>
      <trkpt lat="43.75853" lon="7.01935">
        <ele>951.8</ele>
        <time>2019-12-12T12:45:57Z</time>
      </trkpt>
      <trkpt lat="43.75847" lon="7.0193">
        <ele>950.4</ele>
        <time>2019-12-12T12:45:59Z</time>
      </trkpt>
      <trkpt lat="43.7584" lon="7.01925">
        <ele>949.4</ele>
        <time>2019-12-12T12:46:01Z</time>
      </trkpt>
      <trkpt lat="43.75832" lon="7.01921">
        <ele>948</ele>
        <time>2019-12-12T12:46:03Z</time>
      </trkpt>
      <trkpt lat="43.75824" lon="7.01914">
        <ele>947.5</ele>
        <time>2019-12-12T12:46:05Z</time>
      </trkpt>
      <trkpt lat="43.75816" lon="7.01908">
        <ele>947.5</ele>
        <time>2019-12-12T12:46:07Z</time>
      </trkpt>
      <trkpt lat="43.75807" lon="7.01904">
        <ele>947.5</ele>
        <time>2019-12-12T12:46:09Z</time>
      </trkpt>
      <trkpt lat="43.758" lon="7.01899">
        <ele>947</ele>
        <time>2019-12-12T12:46:11Z</time>
      </trkpt>
      <trkpt lat="43.75793" lon="7.01895">
        <ele>946.6</ele>
        <time>2019-12-12T12:46:13Z</time>
      </trkpt>
      <trkpt lat="43.75786" lon="7.01892">
        <ele>945.6</ele>
        <time>2019-12-12T12:46:15Z</time>
      </trkpt>
      <trkpt lat="43.75778" lon="7.01889">
        <ele>944.6</ele>
        <time>2019-12-12T12:46:17Z</time>
      </trkpt>
      <trkpt lat="43.75771" lon="7.01886">
        <ele>943.2</ele>
        <time>2019-12-12T12:46:19Z</time>
      </trkpt>
      <trkpt lat="43.75765" lon="7.01883">
        <ele>942.2</ele>
        <time>2019-12-12T12:46:21Z</time>
      </trkpt>
      <trkpt lat="43.75758" lon="7.01879">
        <ele>941.3</ele>
        <time>2019-12-12T12:46:23Z</time>
      </trkpt>
      <trkpt lat="43.75752" lon="7.01877">
        <ele>941.3</ele>
        <time>2019-12-12T12:46:25Z</time>
      </trkpt>
      <trkpt lat="43.75745" lon="7.01875">
        <ele>940.8</ele>
        <time>2019-12-12T12:46:27Z</time>
      </trkpt>
      <trkpt lat="43.75738" lon="7.01873">
        <ele>940.3</ele>
        <time>2019-12-12T12:46:29Z</time>
      </trkpt>
      <trkpt lat="43.75732" lon="7.01869">
        <ele>939.3</ele>
        <time>2019-12-12T12:46:31Z</time>
      </trkpt>
      <trkpt lat="43.75725" lon="7.01866">
        <ele>939.3</ele>
        <time>2019-12-12T12:46:33Z</time>
      </trkpt>
      <trkpt lat="43.75719" lon="7.01864">
        <ele>939.3</ele>
        <time>2019-12-12T12:46:35Z</time>
      </trkpt>
      <trkpt lat="43.75711" lon="7.01864">
        <ele>938.9</ele>
        <time>2019-12-12T12:46:37Z</time>
      </trkpt>
      <trkpt lat="43.75702" lon="7.01862">
        <ele>938.4</ele>
        <time>2019-12-12T12:46:39Z</time>
      </trkpt>
      <trkpt lat="43.75694" lon="7.01859">
        <ele>938.4</ele>
        <time>2019-12-12T12:46:41Z</time>
      </trkpt>
      <trkpt lat="43.75686" lon="7.01856">
        <ele>938.4</ele>
        <time>2019-12-12T12:46:43Z</time>
      </trkpt>
      <trkpt lat="43.75678" lon="7.01853">
        <ele>938.9</ele>
        <time>2019-12-12T12:46:45Z</time>
      </trkpt>
      <trkpt lat="43.75671" lon="7.0185">
        <ele>938.9</ele>
        <time>2019-12-12T12:46:47Z</time>
      </trkpt>
      <trkpt lat="43.75664" lon="7.01848">
        <ele>939.3</ele>
        <time>2019-12-12T12:46:49Z</time>
      </trkpt>
      <trkpt lat="43.75657" lon="7.01846">
        <ele>939.8</ele>
        <time>2019-12-12T12:46:51Z</time>
      </trkpt>
      <trkpt lat="43.7565" lon="7.01843">
        <ele>939.3</ele>
        <time>2019-12-12T12:46:53Z</time>
      </trkpt>
      <trkpt lat="43.75644" lon="7.01841">
        <ele>939.3</ele>
        <time>2019-12-12T12:46:55Z</time>
      </trkpt>
      <trkpt lat="43.75638" lon="7.01839">
        <ele>939.3</ele>
        <time>2019-12-12T12:46:57Z</time>
      </trkpt>
      <trkpt lat="43.75632" lon="7.01836">
        <ele>939.3</ele>
        <time>2019-12-12T12:46:59Z</time>
      </trkpt>
      <trkpt lat="43.75625" lon="7.01835">
        <ele>939.8</ele>
        <time>2019-12-12T12:47:01Z</time>
      </trkpt>
      <trkpt lat="43.75618" lon="7.01832">
        <ele>939.3</ele>
        <time>2019-12-12T12:47:03Z</time>
      </trkpt>
      <trkpt lat="43.75611" lon="7.01831">
        <ele>938.9</ele>
        <time>2019-12-12T12:47:05Z</time>
      </trkpt>
      <trkpt lat="43.75605" lon="7.01831">
        <ele>939.3</ele>
        <time>2019-12-12T12:47:07Z</time>
      </trkpt>
      <trkpt lat="43.75598" lon="7.01831">
        <ele>938.9</ele>
        <time>2019-12-12T12:47:09Z</time>
      </trkpt>
      <trkpt lat="43.75592" lon="7.0183">
        <ele>938.9</ele>
        <time>2019-12-12T12:47:11Z</time>
      </trkpt>
      <trkpt lat="43.75585" lon="7.01829">
        <ele>938.9</ele>
        <time>2019-12-12T12:47:13Z</time>
      </trkpt>
      <trkpt lat="43.75579" lon="7.01828">
        <ele>938.9</ele>
        <time>2019-12-12T12:47:15Z</time>
      </trkpt>
      <trkpt lat="43.75572" lon="7.01827">
        <ele>938.9</ele>
        <time>2019-12-12T12:47:17Z</time>
      </trkpt>
      <trkpt lat="43.75565" lon="7.01827">
        <ele>939.3</ele>
        <time>2019-12-12T12:47:19Z</time>
      </trkpt>
      <trkpt lat="43.75559" lon="7.01826">
        <ele>939.8</ele>
        <time>2019-12-12T12:47:21Z</time>
      </trkpt>
      <trkpt lat="43.75554" lon="7.01825">
        <ele>940.3</ele>
        <time>2019-12-12T12:47:23Z</time>
      </trkpt>
      <trkpt lat="43.75551" lon="7.01826">
        <ele>940.3</ele>
        <time>2019-12-12T12:47:25Z</time>
      </trkpt>
      <trkpt lat="43.75548" lon="7.01826">
        <ele>940.3</ele>
        <time>2019-12-12T12:47:27Z</time>
      </trkpt>
      <trkpt lat="43.75543" lon="7.01825">
        <ele>939.8</ele>
        <time>2019-12-12T12:47:29Z</time>
      </trkpt>
      <trkpt lat="43.7554" lon="7.01824">
        <ele>940.3</ele>
        <time>2019-12-12T12:47:31Z</time>
      </trkpt>
      <trkpt lat="43.75535" lon="7.01822">
        <ele>941.3</ele>
        <time>2019-12-12T12:47:33Z</time>
      </trkpt>
      <trkpt lat="43.75531" lon="7.01821">
        <ele>942.2</ele>
        <time>2019-12-12T12:47:35Z</time>
      </trkpt>
      <trkpt lat="43.75527" lon="7.0182">
        <ele>942.2</ele>
        <time>2019-12-12T12:47:37Z</time>
      </trkpt>
      <trkpt lat="43.75523" lon="7.01819">
        <ele>942.7</ele>
        <time>2019-12-12T12:47:39Z</time>
      </trkpt>
      <trkpt lat="43.75519" lon="7.01818">
        <ele>942.7</ele>
        <time>2019-12-12T12:47:41Z</time>
      </trkpt>
      <trkpt lat="43.75515" lon="7.01816">
        <ele>943.2</ele>
        <time>2019-12-12T12:47:43Z</time>
      </trkpt>
      <trkpt lat="43.75512" lon="7.01815">
        <ele>943.2</ele>
        <time>2019-12-12T12:47:45Z</time>
      </trkpt>
      <trkpt lat="43.75508" lon="7.01813">
        <ele>943.2</ele>
        <time>2019-12-12T12:47:47Z</time>
      </trkpt>
      <trkpt lat="43.75503" lon="7.01812">
        <ele>942.2</ele>
        <time>2019-12-12T12:47:49Z</time>
      </trkpt>
      <trkpt lat="43.755" lon="7.01811">
        <ele>941.3</ele>
        <time>2019-12-12T12:47:51Z</time>
      </trkpt>
      <trkpt lat="43.75496" lon="7.0181">
        <ele>940.8</ele>
        <time>2019-12-12T12:47:53Z</time>
      </trkpt>
      <trkpt lat="43.75492" lon="7.01808">
        <ele>939.8</ele>
        <time>2019-12-12T12:47:55Z</time>
      </trkpt>
      <trkpt lat="43.75488" lon="7.01807">
        <ele>939.8</ele>
        <time>2019-12-12T12:47:57Z</time>
      </trkpt>
      <trkpt lat="43.75484" lon="7.01807">
        <ele>939.3</ele>
        <time>2019-12-12T12:47:59Z</time>
      </trkpt>
      <trkpt lat="43.75478" lon="7.01806">
        <ele>939.3</ele>
        <time>2019-12-12T12:48:01Z</time>
      </trkpt>
      <trkpt lat="43.75473" lon="7.01804">
        <ele>940.3</ele>
        <time>2019-12-12T12:48:03Z</time>
      </trkpt>
      <trkpt lat="43.75467" lon="7.01803">
        <ele>940.8</ele>
        <time>2019-12-12T12:48:05Z</time>
      </trkpt>
      <trkpt lat="43.75462" lon="7.01801">
        <ele>941.3</ele>
        <time>2019-12-12T12:48:07Z</time>
      </trkpt>
      <trkpt lat="43.75455" lon="7.01803">
        <ele>941.7</ele>
        <time>2019-12-12T12:48:09Z</time>
      </trkpt>
      <trkpt lat="43.75449" lon="7.01804">
        <ele>942.2</ele>
        <time>2019-12-12T12:48:11Z</time>
      </trkpt>
      <trkpt lat="43.75443" lon="7.01806">
        <ele>941.3</ele>
        <time>2019-12-12T12:48:13Z</time>
      </trkpt>
      <trkpt lat="43.7544" lon="7.01807">
        <ele>939.8</ele>
        <time>2019-12-12T12:48:15Z</time>
      </trkpt>
      <trkpt lat="43.75436" lon="7.01808">
        <ele>938.9</ele>
        <time>2019-12-12T12:48:17Z</time>
      </trkpt>
      <trkpt lat="43.7543" lon="7.01809">
        <ele>939.3</ele>
        <time>2019-12-12T12:48:19Z</time>
      </trkpt>
      <trkpt lat="43.75425" lon="7.01811">
        <ele>938.9</ele>
        <time>2019-12-12T12:48:21Z</time>
      </trkpt>
      <trkpt lat="43.75419" lon="7.01811">
        <ele>939.8</ele>
        <time>2019-12-12T12:48:23Z</time>
      </trkpt>
      <trkpt lat="43.75415" lon="7.01811">
        <ele>939.8</ele>
        <time>2019-12-12T12:48:25Z</time>
      </trkpt>
      <trkpt lat="43.7541" lon="7.01811">
        <ele>939.8</ele>
        <time>2019-12-12T12:48:27Z</time>
      </trkpt>
      <trkpt lat="43.75405" lon="7.01812">
        <ele>939.8</ele>
        <time>2019-12-12T12:48:29Z</time>
      </trkpt>
      <trkpt lat="43.75401" lon="7.01814">
        <ele>939.8</ele>
        <time>2019-12-12T12:48:31Z</time>
      </trkpt>
      <trkpt lat="43.75397" lon="7.01815">
        <ele>940.3</ele>
        <time>2019-12-12T12:48:33Z</time>
      </trkpt>
      <trkpt lat="43.75393" lon="7.01818">
        <ele>940.3</ele>
        <time>2019-12-12T12:48:35Z</time>
      </trkpt>
      <trkpt lat="43.75389" lon="7.01821">
        <ele>940.3</ele>
        <time>2019-12-12T12:48:37Z</time>
      </trkpt>
      <trkpt lat="43.75384" lon="7.01824">
        <ele>940.3</ele>
        <time>2019-12-12T12:48:39Z</time>
      </trkpt>
      <trkpt lat="43.7538" lon="7.01825">
        <ele>940.8</ele>
        <time>2019-12-12T12:48:41Z</time>
      </trkpt>
      <trkpt lat="43.75376" lon="7.01828">
        <ele>941.3</ele>
        <time>2019-12-12T12:48:43Z</time>
      </trkpt>
      <trkpt lat="43.75372" lon="7.01829">
        <ele>942.2</ele>
        <time>2019-12-12T12:48:45Z</time>
      </trkpt>
      <trkpt lat="43.75367" lon="7.0183">
        <ele>942.2</ele>
        <time>2019-12-12T12:48:47Z</time>
      </trkpt>
      <trkpt lat="43.75362" lon="7.01831">
        <ele>942.2</ele>
        <time>2019-12-12T12:48:49Z</time>
      </trkpt>
      <trkpt lat="43.75358" lon="7.01833">
        <ele>941.7</ele>
        <time>2019-12-12T12:48:51Z</time>
      </trkpt>
      <trkpt lat="43.75355" lon="7.01837">
        <ele>941.7</ele>
        <time>2019-12-12T12:48:53Z</time>
      </trkpt>
      <trkpt lat="43.75353" lon="7.01841">
        <ele>941.7</ele>
        <time>2019-12-12T12:48:55Z</time>
      </trkpt>
      <trkpt lat="43.75352" lon="7.01843">
        <ele>941.7</ele>
        <time>2019-12-12T12:48:57Z</time>
      </trkpt>
      <trkpt lat="43.75351" lon="7.01848">
        <ele>940.8</ele>
        <time>2019-12-12T12:48:59Z</time>
      </trkpt>
      <trkpt lat="43.7535" lon="7.01855">
        <ele>940.3</ele>
        <time>2019-12-12T12:49:01Z</time>
      </trkpt>
      <trkpt lat="43.7535" lon="7.0186">
        <ele>940.3</ele>
        <time>2019-12-12T12:49:03Z</time>
      </trkpt>
      <trkpt lat="43.7535" lon="7.01866">
        <ele>941.3</ele>
        <time>2019-12-12T12:49:05Z</time>
      </trkpt>
      <trkpt lat="43.7535" lon="7.01874">
        <ele>941.7</ele>
        <time>2019-12-12T12:49:07Z</time>
      </trkpt>
      <trkpt lat="43.75348" lon="7.01883">
        <ele>941.7</ele>
        <time>2019-12-12T12:49:09Z</time>
      </trkpt>
      <trkpt lat="43.75344" lon="7.01891">
        <ele>942.2</ele>
        <time>2019-12-12T12:49:11Z</time>
      </trkpt>
      <trkpt lat="43.7534" lon="7.019">
        <ele>942.2</ele>
        <time>2019-12-12T12:49:13Z</time>
      </trkpt>
      <trkpt lat="43.75338" lon="7.01908">
        <ele>941.3</ele>
        <time>2019-12-12T12:49:15Z</time>
      </trkpt>
      <trkpt lat="43.75337" lon="7.01916">
        <ele>940.8</ele>
        <time>2019-12-12T12:49:17Z</time>
      </trkpt>
      <trkpt lat="43.75337" lon="7.01924">
        <ele>939.8</ele>
        <time>2019-12-12T12:49:19Z</time>
      </trkpt>
      <trkpt lat="43.75336" lon="7.01931">
        <ele>939.8</ele>
        <time>2019-12-12T12:49:21Z</time>
      </trkpt>
      <trkpt lat="43.75336" lon="7.01939">
        <ele>939.8</ele>
        <time>2019-12-12T12:49:23Z</time>
      </trkpt>
      <trkpt lat="43.75336" lon="7.01949">
        <ele>940.3</ele>
        <time>2019-12-12T12:49:25Z</time>
      </trkpt>
      <trkpt lat="43.75337" lon="7.01959">
        <ele>941.3</ele>
        <time>2019-12-12T12:49:27Z</time>
      </trkpt>
      <trkpt lat="43.75337" lon="7.01969">
        <ele>941.7</ele>
        <time>2019-12-12T12:49:29Z</time>
      </trkpt>
      <trkpt lat="43.75339" lon="7.01978">
        <ele>942.2</ele>
        <time>2019-12-12T12:49:31Z</time>
      </trkpt>
      <trkpt lat="43.7534" lon="7.01987">
        <ele>942.2</ele>
        <time>2019-12-12T12:49:33Z</time>
      </trkpt>
      <trkpt lat="43.7534" lon="7.01996">
        <ele>942.7</ele>
        <time>2019-12-12T12:49:35Z</time>
      </trkpt>
      <trkpt lat="43.75341" lon="7.02006">
        <ele>942.7</ele>
        <time>2019-12-12T12:49:37Z</time>
      </trkpt>
      <trkpt lat="43.75342" lon="7.02018">
        <ele>943.7</ele>
        <time>2019-12-12T12:49:39Z</time>
      </trkpt>
      <trkpt lat="43.75342" lon="7.0203">
        <ele>944.6</ele>
        <time>2019-12-12T12:49:41Z</time>
      </trkpt>
      <trkpt lat="43.75343" lon="7.02042">
        <ele>945.1</ele>
        <time>2019-12-12T12:49:43Z</time>
      </trkpt>
      <trkpt lat="43.75344" lon="7.02055">
        <ele>945.6</ele>
        <time>2019-12-12T12:49:45Z</time>
      </trkpt>
      <trkpt lat="43.75345" lon="7.02067">
        <ele>946.6</ele>
        <time>2019-12-12T12:49:47Z</time>
      </trkpt>
      <trkpt lat="43.75347" lon="7.02081">
        <ele>947</ele>
        <time>2019-12-12T12:49:49Z</time>
      </trkpt>
      <trkpt lat="43.75348" lon="7.02094">
        <ele>947.5</ele>
        <time>2019-12-12T12:49:51Z</time>
      </trkpt>
      <trkpt lat="43.75351" lon="7.02106">
        <ele>948</ele>
        <time>2019-12-12T12:49:53Z</time>
      </trkpt>
      <trkpt lat="43.75352" lon="7.02119">
        <ele>949</ele>
        <time>2019-12-12T12:49:55Z</time>
      </trkpt>
      <trkpt lat="43.75354" lon="7.02132">
        <ele>949.9</ele>
        <time>2019-12-12T12:49:57Z</time>
      </trkpt>
      <trkpt lat="43.75358" lon="7.02143">
        <ele>951.4</ele>
        <time>2019-12-12T12:49:59Z</time>
      </trkpt>
      <trkpt lat="43.75363" lon="7.02154">
        <ele>952.8</ele>
        <time>2019-12-12T12:50:01Z</time>
      </trkpt>
      <trkpt lat="43.75366" lon="7.02167">
        <ele>953.3</ele>
        <time>2019-12-12T12:50:03Z</time>
      </trkpt>
      <trkpt lat="43.75367" lon="7.02178">
        <ele>953.8</ele>
        <time>2019-12-12T12:50:05Z</time>
      </trkpt>
      <trkpt lat="43.75367" lon="7.02187">
        <ele>954.2</ele>
        <time>2019-12-12T12:50:07Z</time>
      </trkpt>
      <trkpt lat="43.75366" lon="7.02192">
        <ele>955.2</ele>
        <time>2019-12-12T12:50:09Z</time>
      </trkpt>
      <trkpt lat="43.75367" lon="7.02198">
        <ele>955.7</ele>
        <time>2019-12-12T12:50:11Z</time>
      </trkpt>
      <trkpt lat="43.75368" lon="7.02205">
        <ele>956.2</ele>
        <time>2019-12-12T12:50:13Z</time>
      </trkpt>
      <trkpt lat="43.75369" lon="7.02211">
        <ele>956.6</ele>
        <time>2019-12-12T12:50:15Z</time>
      </trkpt>
      <trkpt lat="43.75369" lon="7.02217">
        <ele>957.1</ele>
        <time>2019-12-12T12:50:17Z</time>
      </trkpt>
      <trkpt lat="43.75371" lon="7.02222">
        <ele>956.2</ele>
        <time>2019-12-12T12:50:19Z</time>
      </trkpt>
      <trkpt lat="43.7537" lon="7.02227">
        <ele>956.6</ele>
        <time>2019-12-12T12:50:21Z</time>
      </trkpt>
      <trkpt lat="43.75368" lon="7.02233">
        <ele>957.1</ele>
        <time>2019-12-12T12:50:23Z</time>
      </trkpt>
      <trkpt lat="43.75367" lon="7.02239">
        <ele>956.6</ele>
        <time>2019-12-12T12:50:25Z</time>
      </trkpt>
      <trkpt lat="43.75367" lon="7.02245">
        <ele>957.6</ele>
        <time>2019-12-12T12:50:27Z</time>
      </trkpt>
      <trkpt lat="43.75367" lon="7.02252">
        <ele>957.6</ele>
        <time>2019-12-12T12:50:29Z</time>
      </trkpt>
      <trkpt lat="43.75368" lon="7.02258">
        <ele>958.6</ele>
        <time>2019-12-12T12:50:31Z</time>
      </trkpt>
      <trkpt lat="43.7537" lon="7.02264">
        <ele>959.5</ele>
        <time>2019-12-12T12:50:33Z</time>
      </trkpt>
      <trkpt lat="43.75371" lon="7.0227">
        <ele>960.5</ele>
        <time>2019-12-12T12:50:35Z</time>
      </trkpt>
      <trkpt lat="43.75372" lon="7.02276">
        <ele>961.9</ele>
        <time>2019-12-12T12:50:37Z</time>
      </trkpt>
      <trkpt lat="43.75374" lon="7.02282">
        <ele>962.4</ele>
        <time>2019-12-12T12:50:39Z</time>
      </trkpt>
      <trkpt lat="43.75375" lon="7.02289">
        <ele>963.4</ele>
        <time>2019-12-12T12:50:41Z</time>
      </trkpt>
      <trkpt lat="43.75377" lon="7.02294">
        <ele>964.3</ele>
        <time>2019-12-12T12:50:43Z</time>
      </trkpt>
      <trkpt lat="43.75378" lon="7.02301">
        <ele>965.3</ele>
        <time>2019-12-12T12:50:45Z</time>
      </trkpt>
      <trkpt lat="43.7538" lon="7.02307">
        <ele>965.8</ele>
        <time>2019-12-12T12:50:47Z</time>
      </trkpt>
      <trkpt lat="43.7538" lon="7.02309">
        <ele>967.2</ele>
        <time>2019-12-12T12:50:49Z</time>
      </trkpt>
      <trkpt lat="43.75381" lon="7.02313">
        <ele>967.7</ele>
        <time>2019-12-12T12:50:51Z</time>
      </trkpt>
      <trkpt lat="43.75381" lon="7.02318">
        <ele>968.2</ele>
        <time>2019-12-12T12:50:53Z</time>
      </trkpt>
      <trkpt lat="43.75382" lon="7.02324">
        <ele>968.7</ele>
        <time>2019-12-12T12:50:55Z</time>
      </trkpt>
      <trkpt lat="43.75385" lon="7.0233">
        <ele>969.1</ele>
        <time>2019-12-12T12:50:57Z</time>
      </trkpt>
      <trkpt lat="43.75387" lon="7.02336">
        <ele>969.6</ele>
        <time>2019-12-12T12:50:59Z</time>
      </trkpt>
      <trkpt lat="43.7539" lon="7.02341">
        <ele>970.6</ele>
        <time>2019-12-12T12:51:01Z</time>
      </trkpt>
      <trkpt lat="43.75394" lon="7.02347">
        <ele>971.1</ele>
        <time>2019-12-12T12:51:03Z</time>
      </trkpt>
      <trkpt lat="43.75398" lon="7.02352">
        <ele>972</ele>
        <time>2019-12-12T12:51:05Z</time>
      </trkpt>
      <trkpt lat="43.75401" lon="7.02356">
        <ele>972.5</ele>
        <time>2019-12-12T12:51:07Z</time>
      </trkpt>
      <trkpt lat="43.75404" lon="7.02362">
        <ele>972.5</ele>
        <time>2019-12-12T12:51:09Z</time>
      </trkpt>
      <trkpt lat="43.75407" lon="7.02367">
        <ele>973</ele>
        <time>2019-12-12T12:51:11Z</time>
      </trkpt>
      <trkpt lat="43.7541" lon="7.02371">
        <ele>973</ele>
        <time>2019-12-12T12:51:13Z</time>
      </trkpt>
      <trkpt lat="43.75413" lon="7.02377">
        <ele>973.5</ele>
        <time>2019-12-12T12:51:15Z</time>
      </trkpt>
      <trkpt lat="43.75415" lon="7.02383">
        <ele>974</ele>
        <time>2019-12-12T12:51:17Z</time>
      </trkpt>
      <trkpt lat="43.75418" lon="7.02389">
        <ele>974.4</ele>
        <time>2019-12-12T12:51:19Z</time>
      </trkpt>
      <trkpt lat="43.75422" lon="7.02395">
        <ele>974.4</ele>
        <time>2019-12-12T12:51:21Z</time>
      </trkpt>
      <trkpt lat="43.75425" lon="7.02399">
        <ele>974.4</ele>
        <time>2019-12-12T12:51:23Z</time>
      </trkpt>
      <trkpt lat="43.75428" lon="7.02403">
        <ele>974.9</ele>
        <time>2019-12-12T12:51:25Z</time>
      </trkpt>
      <trkpt lat="43.75431" lon="7.02407">
        <ele>974.9</ele>
        <time>2019-12-12T12:51:27Z</time>
      </trkpt>
      <trkpt lat="43.75434" lon="7.02411">
        <ele>974.9</ele>
        <time>2019-12-12T12:51:29Z</time>
      </trkpt>
      <trkpt lat="43.75437" lon="7.02416">
        <ele>975.9</ele>
        <time>2019-12-12T12:51:31Z</time>
      </trkpt>
      <trkpt lat="43.75441" lon="7.02421">
        <ele>976.4</ele>
        <time>2019-12-12T12:51:33Z</time>
      </trkpt>
      <trkpt lat="43.75444" lon="7.02425">
        <ele>976.8</ele>
        <time>2019-12-12T12:51:35Z</time>
      </trkpt>
      <trkpt lat="43.75448" lon="7.02428">
        <ele>977.3</ele>
        <time>2019-12-12T12:51:37Z</time>
      </trkpt>
      <trkpt lat="43.75452" lon="7.02431">
        <ele>977.8</ele>
        <time>2019-12-12T12:51:39Z</time>
      </trkpt>
      <trkpt lat="43.75456" lon="7.02433">
        <ele>978.8</ele>
        <time>2019-12-12T12:51:41Z</time>
      </trkpt>
      <trkpt lat="43.7546" lon="7.02435">
        <ele>979.2</ele>
        <time>2019-12-12T12:51:43Z</time>
      </trkpt>
      <trkpt lat="43.75463" lon="7.02439">
        <ele>979.7</ele>
        <time>2019-12-12T12:51:45Z</time>
      </trkpt>
      <trkpt lat="43.75467" lon="7.02444">
        <ele>979.7</ele>
        <time>2019-12-12T12:51:47Z</time>
      </trkpt>
      <trkpt lat="43.7547" lon="7.02448">
        <ele>980.2</ele>
        <time>2019-12-12T12:51:49Z</time>
      </trkpt>
      <trkpt lat="43.75474" lon="7.02451">
        <ele>981.2</ele>
        <time>2019-12-12T12:51:51Z</time>
      </trkpt>
      <trkpt lat="43.7548" lon="7.02453">
        <ele>981.2</ele>
        <time>2019-12-12T12:51:53Z</time>
      </trkpt>
      <trkpt lat="43.75484" lon="7.02455">
        <ele>981.6</ele>
        <time>2019-12-12T12:51:55Z</time>
      </trkpt>
      <trkpt lat="43.75488" lon="7.02459">
        <ele>981.6</ele>
        <time>2019-12-12T12:51:57Z</time>
      </trkpt>
      <trkpt lat="43.75491" lon="7.0246">
        <ele>981.6</ele>
        <time>2019-12-12T12:51:59Z</time>
      </trkpt>
      <trkpt lat="43.75494" lon="7.02461">
        <ele>981.2</ele>
        <time>2019-12-12T12:52:01Z</time>
      </trkpt>
      <trkpt lat="43.75498" lon="7.02461">
        <ele>981.2</ele>
        <time>2019-12-12T12:52:03Z</time>
      </trkpt>
      <trkpt lat="43.75502" lon="7.02464">
        <ele>980.7</ele>
        <time>2019-12-12T12:52:05Z</time>
      </trkpt>
      <trkpt lat="43.75505" lon="7.02468">
        <ele>981.2</ele>
        <time>2019-12-12T12:52:07Z</time>
      </trkpt>
      <trkpt lat="43.75509" lon="7.02471">
        <ele>980.7</ele>
        <time>2019-12-12T12:52:09Z</time>
      </trkpt>
      <trkpt lat="43.75514" lon="7.02475">
        <ele>979.7</ele>
        <time>2019-12-12T12:52:11Z</time>
      </trkpt>
      <trkpt lat="43.75517" lon="7.02479">
        <ele>979.2</ele>
        <time>2019-12-12T12:52:13Z</time>
      </trkpt>
      <trkpt lat="43.7552" lon="7.02483">
        <ele>979.2</ele>
        <time>2019-12-12T12:52:15Z</time>
      </trkpt>
      <trkpt lat="43.75523" lon="7.02487">
        <ele>979.7</ele>
        <time>2019-12-12T12:52:17Z</time>
      </trkpt>
      <trkpt lat="43.75527" lon="7.02486">
        <ele>979.7</ele>
        <time>2019-12-12T12:52:19Z</time>
      </trkpt>
      <trkpt lat="43.75532" lon="7.02486">
        <ele>979.7</ele>
        <time>2019-12-12T12:52:21Z</time>
      </trkpt>
      <trkpt lat="43.7554" lon="7.02486">
        <ele>979.2</ele>
        <time>2019-12-12T12:52:23Z</time>
      </trkpt>
      <trkpt lat="43.75548" lon="7.02489">
        <ele>978.8</ele>
        <time>2019-12-12T12:52:25Z</time>
      </trkpt>
      <trkpt lat="43.75555" lon="7.02492">
        <ele>978.3</ele>
        <time>2019-12-12T12:52:27Z</time>
      </trkpt>
      <trkpt lat="43.75561" lon="7.02495">
        <ele>977.3</ele>
        <time>2019-12-12T12:52:29Z</time>
      </trkpt>
      <trkpt lat="43.75566" lon="7.02499">
        <ele>977.3</ele>
        <time>2019-12-12T12:52:31Z</time>
      </trkpt>
      <trkpt lat="43.7557" lon="7.02502">
        <ele>977.3</ele>
        <time>2019-12-12T12:52:33Z</time>
      </trkpt>
      <trkpt lat="43.75573" lon="7.02506">
        <ele>977.3</ele>
        <time>2019-12-12T12:52:35Z</time>
      </trkpt>
      <trkpt lat="43.75576" lon="7.0251">
        <ele>977.8</ele>
        <time>2019-12-12T12:52:37Z</time>
      </trkpt>
      <trkpt lat="43.7558" lon="7.02514">
        <ele>976.8</ele>
        <time>2019-12-12T12:52:39Z</time>
      </trkpt>
      <trkpt lat="43.75584" lon="7.02519">
        <ele>975.9</ele>
        <time>2019-12-12T12:52:41Z</time>
      </trkpt>
      <trkpt lat="43.75588" lon="7.02523">
        <ele>975.9</ele>
        <time>2019-12-12T12:52:43Z</time>
      </trkpt>
      <trkpt lat="43.75593" lon="7.02528">
        <ele>975.4</ele>
        <time>2019-12-12T12:52:45Z</time>
      </trkpt>
      <trkpt lat="43.75598" lon="7.02532">
        <ele>975.4</ele>
        <time>2019-12-12T12:52:47Z</time>
      </trkpt>
      <trkpt lat="43.75603" lon="7.02538">
        <ele>975.4</ele>
        <time>2019-12-12T12:52:49Z</time>
      </trkpt>
      <trkpt lat="43.7561" lon="7.02541">
        <ele>974.4</ele>
        <time>2019-12-12T12:52:51Z</time>
      </trkpt>
      <trkpt lat="43.75616" lon="7.02545">
        <ele>974</ele>
        <time>2019-12-12T12:52:53Z</time>
      </trkpt>
      <trkpt lat="43.75622" lon="7.02549">
        <ele>973.5</ele>
        <time>2019-12-12T12:52:55Z</time>
      </trkpt>
      <trkpt lat="43.7563" lon="7.02552">
        <ele>971.5</ele>
        <time>2019-12-12T12:52:57Z</time>
      </trkpt>
      <trkpt lat="43.75637" lon="7.02555">
        <ele>969.6</ele>
        <time>2019-12-12T12:52:59Z</time>
      </trkpt>
      <trkpt lat="43.75645" lon="7.02559">
        <ele>967.7</ele>
        <time>2019-12-12T12:53:01Z</time>
      </trkpt>
      <trkpt lat="43.75652" lon="7.02562">
        <ele>966.7</ele>
        <time>2019-12-12T12:53:03Z</time>
      </trkpt>
      <trkpt lat="43.75658" lon="7.02568">
        <ele>965.8</ele>
        <time>2019-12-12T12:53:05Z</time>
      </trkpt>
      <trkpt lat="43.75664" lon="7.02576">
        <ele>965.3</ele>
        <time>2019-12-12T12:53:07Z</time>
      </trkpt>
      <trkpt lat="43.75671" lon="7.02583">
        <ele>965.3</ele>
        <time>2019-12-12T12:53:09Z</time>
      </trkpt>
      <trkpt lat="43.75677" lon="7.02588">
        <ele>964.3</ele>
        <time>2019-12-12T12:53:11Z</time>
      </trkpt>
      <trkpt lat="43.75682" lon="7.02593">
        <ele>963.4</ele>
        <time>2019-12-12T12:53:13Z</time>
      </trkpt>
      <trkpt lat="43.75688" lon="7.02598">
        <ele>962.4</ele>
        <time>2019-12-12T12:53:15Z</time>
      </trkpt>
      <trkpt lat="43.75694" lon="7.02604">
        <ele>961.5</ele>
        <time>2019-12-12T12:53:17Z</time>
      </trkpt>
      <trkpt lat="43.75702" lon="7.0261">
        <ele>960.5</ele>
        <time>2019-12-12T12:53:19Z</time>
      </trkpt>
      <trkpt lat="43.75707" lon="7.02618">
        <ele>960.5</ele>
        <time>2019-12-12T12:53:21Z</time>
      </trkpt>
      <trkpt lat="43.75712" lon="7.02623">
        <ele>959.1</ele>
        <time>2019-12-12T12:53:23Z</time>
      </trkpt>
      <trkpt lat="43.75716" lon="7.02629">
        <ele>959.1</ele>
        <time>2019-12-12T12:53:25Z</time>
      </trkpt>
      <trkpt lat="43.75719" lon="7.02634">
        <ele>959.5</ele>
        <time>2019-12-12T12:53:27Z</time>
      </trkpt>
      <trkpt lat="43.75723" lon="7.02638">
        <ele>959.5</ele>
        <time>2019-12-12T12:53:29Z</time>
      </trkpt>
      <trkpt lat="43.75727" lon="7.02643">
        <ele>960</ele>
        <time>2019-12-12T12:53:31Z</time>
      </trkpt>
      <trkpt lat="43.75731" lon="7.02649">
        <ele>959.5</ele>
        <time>2019-12-12T12:53:33Z</time>
      </trkpt>
      <trkpt lat="43.75734" lon="7.02655">
        <ele>960</ele>
        <time>2019-12-12T12:53:35Z</time>
      </trkpt>
      <trkpt lat="43.75736" lon="7.02661">
        <ele>960</ele>
        <time>2019-12-12T12:53:37Z</time>
      </trkpt>
      <trkpt lat="43.75738" lon="7.02667">
        <ele>959.5</ele>
        <time>2019-12-12T12:53:39Z</time>
      </trkpt>
      <trkpt lat="43.75738" lon="7.02674">
        <ele>959.5</ele>
        <time>2019-12-12T12:53:41Z</time>
      </trkpt>
      <trkpt lat="43.75738" lon="7.02683">
        <ele>960</ele>
        <time>2019-12-12T12:53:43Z</time>
      </trkpt>
      <trkpt lat="43.7574" lon="7.02692">
        <ele>959.5</ele>
        <time>2019-12-12T12:53:45Z</time>
      </trkpt>
      <trkpt lat="43.75745" lon="7.02698">
        <ele>959.5</ele>
        <time>2019-12-12T12:53:47Z</time>
      </trkpt>
      <trkpt lat="43.7575" lon="7.02703">
        <ele>959.5</ele>
        <time>2019-12-12T12:53:49Z</time>
      </trkpt>
      <trkpt lat="43.75754" lon="7.02708">
        <ele>959.1</ele>
        <time>2019-12-12T12:53:51Z</time>
      </trkpt>
      <trkpt lat="43.75758" lon="7.02713">
        <ele>958.1</ele>
        <time>2019-12-12T12:53:53Z</time>
      </trkpt>
      <trkpt lat="43.75762" lon="7.0272">
        <ele>957.6</ele>
        <time>2019-12-12T12:53:55Z</time>
      </trkpt>
      <trkpt lat="43.75765" lon="7.02728">
        <ele>957.6</ele>
        <time>2019-12-12T12:53:57Z</time>
      </trkpt>
      <trkpt lat="43.75768" lon="7.02735">
        <ele>956.6</ele>
        <time>2019-12-12T12:53:59Z</time>
      </trkpt>
      <trkpt lat="43.75773" lon="7.02742">
        <ele>956.2</ele>
        <time>2019-12-12T12:54:01Z</time>
      </trkpt>
      <trkpt lat="43.75778" lon="7.02747">
        <ele>956.2</ele>
        <time>2019-12-12T12:54:03Z</time>
      </trkpt>
      <trkpt lat="43.75783" lon="7.02752">
        <ele>956.2</ele>
        <time>2019-12-12T12:54:05Z</time>
      </trkpt>
      <trkpt lat="43.75786" lon="7.0276">
        <ele>955.7</ele>
        <time>2019-12-12T12:54:07Z</time>
      </trkpt>
      <trkpt lat="43.75789" lon="7.02769">
        <ele>955.2</ele>
        <time>2019-12-12T12:54:09Z</time>
      </trkpt>
      <trkpt lat="43.75795" lon="7.02778">
        <ele>953.8</ele>
        <time>2019-12-12T12:54:11Z</time>
      </trkpt>
      <trkpt lat="43.75799" lon="7.02788">
        <ele>953.3</ele>
        <time>2019-12-12T12:54:13Z</time>
      </trkpt>
      <trkpt lat="43.75802" lon="7.02798">
        <ele>952.8</ele>
        <time>2019-12-12T12:54:15Z</time>
      </trkpt>
      <trkpt lat="43.75805" lon="7.02808">
        <ele>952.8</ele>
        <time>2019-12-12T12:54:17Z</time>
      </trkpt>
      <trkpt lat="43.75809" lon="7.02816">
        <ele>952.3</ele>
        <time>2019-12-12T12:54:19Z</time>
      </trkpt>
      <trkpt lat="43.75812" lon="7.02824">
        <ele>950.9</ele>
        <time>2019-12-12T12:54:21Z</time>
      </trkpt>
      <trkpt lat="43.75815" lon="7.02831">
        <ele>949.9</ele>
        <time>2019-12-12T12:54:23Z</time>
      </trkpt>
      <trkpt lat="43.75818" lon="7.02835">
        <ele>949.4</ele>
        <time>2019-12-12T12:54:25Z</time>
      </trkpt>
      <trkpt lat="43.75822" lon="7.02842">
        <ele>948</ele>
        <time>2019-12-12T12:54:27Z</time>
      </trkpt>
      <trkpt lat="43.75827" lon="7.02849">
        <ele>947</ele>
        <time>2019-12-12T12:54:29Z</time>
      </trkpt>
      <trkpt lat="43.75832" lon="7.02856">
        <ele>946.1</ele>
        <time>2019-12-12T12:54:31Z</time>
      </trkpt>
      <trkpt lat="43.75837" lon="7.02863">
        <ele>945.6</ele>
        <time>2019-12-12T12:54:33Z</time>
      </trkpt>
      <trkpt lat="43.75841" lon="7.02869">
        <ele>944.6</ele>
        <time>2019-12-12T12:54:35Z</time>
      </trkpt>
      <trkpt lat="43.75844" lon="7.02875">
        <ele>944.2</ele>
        <time>2019-12-12T12:54:37Z</time>
      </trkpt>
      <trkpt lat="43.75846" lon="7.02881">
        <ele>943.2</ele>
        <time>2019-12-12T12:54:39Z</time>
      </trkpt>
      <trkpt lat="43.75848" lon="7.02887">
        <ele>942.7</ele>
        <time>2019-12-12T12:54:41Z</time>
      </trkpt>
      <trkpt lat="43.75853" lon="7.02892">
        <ele>941.7</ele>
        <time>2019-12-12T12:54:43Z</time>
      </trkpt>
      <trkpt lat="43.7586" lon="7.02898">
        <ele>941.3</ele>
        <time>2019-12-12T12:54:45Z</time>
      </trkpt>
      <trkpt lat="43.75865" lon="7.02906">
        <ele>940.8</ele>
        <time>2019-12-12T12:54:47Z</time>
      </trkpt>
      <trkpt lat="43.7587" lon="7.02913">
        <ele>940.8</ele>
        <time>2019-12-12T12:54:49Z</time>
      </trkpt>
      <trkpt lat="43.75875" lon="7.02919">
        <ele>940.3</ele>
        <time>2019-12-12T12:54:51Z</time>
      </trkpt>
      <trkpt lat="43.7588" lon="7.02927">
        <ele>940.8</ele>
        <time>2019-12-12T12:54:53Z</time>
      </trkpt>
      <trkpt lat="43.75885" lon="7.02937">
        <ele>941.3</ele>
        <time>2019-12-12T12:54:55Z</time>
      </trkpt>
      <trkpt lat="43.75888" lon="7.02946">
        <ele>941.3</ele>
        <time>2019-12-12T12:54:57Z</time>
      </trkpt>
      <trkpt lat="43.75891" lon="7.02954">
        <ele>941.3</ele>
        <time>2019-12-12T12:54:59Z</time>
      </trkpt>
      <trkpt lat="43.75893" lon="7.02962">
        <ele>940.8</ele>
        <time>2019-12-12T12:55:01Z</time>
      </trkpt>
      <trkpt lat="43.75895" lon="7.0297">
        <ele>939.8</ele>
        <time>2019-12-12T12:55:03Z</time>
      </trkpt>
      <trkpt lat="43.75897" lon="7.02977">
        <ele>939.8</ele>
        <time>2019-12-12T12:55:05Z</time>
      </trkpt>
      <trkpt lat="43.75899" lon="7.02984">
        <ele>939.8</ele>
        <time>2019-12-12T12:55:07Z</time>
      </trkpt>
      <trkpt lat="43.75902" lon="7.0299">
        <ele>939.3</ele>
        <time>2019-12-12T12:55:09Z</time>
      </trkpt>
      <trkpt lat="43.75907" lon="7.02994">
        <ele>939.3</ele>
        <time>2019-12-12T12:55:11Z</time>
      </trkpt>
      <trkpt lat="43.7591" lon="7.03001">
        <ele>938.9</ele>
        <time>2019-12-12T12:55:13Z</time>
      </trkpt>
      <trkpt lat="43.75914" lon="7.03008">
        <ele>938.4</ele>
        <time>2019-12-12T12:55:15Z</time>
      </trkpt>
      <trkpt lat="43.75917" lon="7.03015">
        <ele>937.9</ele>
        <time>2019-12-12T12:55:17Z</time>
      </trkpt>
      <trkpt lat="43.75921" lon="7.03023">
        <ele>936.9</ele>
        <time>2019-12-12T12:55:19Z</time>
      </trkpt>
      <trkpt lat="43.75925" lon="7.0303">
        <ele>936.9</ele>
        <time>2019-12-12T12:55:21Z</time>
      </trkpt>
      <trkpt lat="43.75928" lon="7.03037">
        <ele>936.9</ele>
        <time>2019-12-12T12:55:23Z</time>
      </trkpt>
      <trkpt lat="43.75933" lon="7.03043">
        <ele>936.9</ele>
        <time>2019-12-12T12:55:25Z</time>
      </trkpt>
      <trkpt lat="43.75938" lon="7.03047">
        <ele>936.5</ele>
        <time>2019-12-12T12:55:27Z</time>
      </trkpt>
      <trkpt lat="43.75943" lon="7.03049">
        <ele>936.5</ele>
        <time>2019-12-12T12:55:29Z</time>
      </trkpt>
      <trkpt lat="43.75948" lon="7.03054">
        <ele>936.5</ele>
        <time>2019-12-12T12:55:31Z</time>
      </trkpt>
      <trkpt lat="43.75952" lon="7.03059">
        <ele>936.5</ele>
        <time>2019-12-12T12:55:33Z</time>
      </trkpt>
      <trkpt lat="43.75954" lon="7.03065">
        <ele>936.5</ele>
        <time>2019-12-12T12:55:35Z</time>
      </trkpt>
      <trkpt lat="43.75955" lon="7.0307">
        <ele>936.5</ele>
        <time>2019-12-12T12:55:37Z</time>
      </trkpt>
      <trkpt lat="43.75957" lon="7.03076">
        <ele>936.9</ele>
        <time>2019-12-12T12:55:39Z</time>
      </trkpt>
      <trkpt lat="43.75957" lon="7.03082">
        <ele>936.9</ele>
        <time>2019-12-12T12:55:41Z</time>
      </trkpt>
      <trkpt lat="43.75959" lon="7.03087">
        <ele>936.9</ele>
        <time>2019-12-12T12:55:43Z</time>
      </trkpt>
      <trkpt lat="43.75961" lon="7.03092">
        <ele>937.4</ele>
        <time>2019-12-12T12:55:45Z</time>
      </trkpt>
      <trkpt lat="43.75963" lon="7.03097">
        <ele>937.9</ele>
        <time>2019-12-12T12:55:47Z</time>
      </trkpt>
      <trkpt lat="43.75966" lon="7.03101">
        <ele>937.9</ele>
        <time>2019-12-12T12:55:49Z</time>
      </trkpt>
      <trkpt lat="43.75969" lon="7.03105">
        <ele>937.9</ele>
        <time>2019-12-12T12:55:51Z</time>
      </trkpt>
      <trkpt lat="43.75972" lon="7.03108">
        <ele>937.9</ele>
        <time>2019-12-12T12:55:53Z</time>
      </trkpt>
      <trkpt lat="43.75974" lon="7.03113">
        <ele>937.9</ele>
        <time>2019-12-12T12:55:55Z</time>
      </trkpt>
      <trkpt lat="43.75976" lon="7.03118">
        <ele>937.9</ele>
        <time>2019-12-12T12:55:57Z</time>
      </trkpt>
      <trkpt lat="43.75979" lon="7.03122">
        <ele>937.9</ele>
        <time>2019-12-12T12:55:59Z</time>
      </trkpt>
      <trkpt lat="43.75982" lon="7.03126">
        <ele>937.9</ele>
        <time>2019-12-12T12:56:01Z</time>
      </trkpt>
      <trkpt lat="43.75985" lon="7.03131">
        <ele>937.9</ele>
        <time>2019-12-12T12:56:03Z</time>
      </trkpt>
      <trkpt lat="43.75989" lon="7.03136">
        <ele>937.9</ele>
        <time>2019-12-12T12:56:05Z</time>
      </trkpt>
      <trkpt lat="43.75993" lon="7.03141">
        <ele>936.9</ele>
        <time>2019-12-12T12:56:07Z</time>
      </trkpt>
      <trkpt lat="43.75996" lon="7.03147">
        <ele>936.9</ele>
        <time>2019-12-12T12:56:09Z</time>
      </trkpt>
      <trkpt lat="43.75999" lon="7.03154">
        <ele>936.5</ele>
        <time>2019-12-12T12:56:11Z</time>
      </trkpt>
      <trkpt lat="43.76002" lon="7.0316">
        <ele>936.5</ele>
        <time>2019-12-12T12:56:13Z</time>
      </trkpt>
      <trkpt lat="43.76004" lon="7.03166">
        <ele>936</ele>
        <time>2019-12-12T12:56:15Z</time>
      </trkpt>
      <trkpt lat="43.76005" lon="7.03173">
        <ele>935</ele>
        <time>2019-12-12T12:56:17Z</time>
      </trkpt>
      <trkpt lat="43.76006" lon="7.03179">
        <ele>934.5</ele>
        <time>2019-12-12T12:56:19Z</time>
      </trkpt>
      <trkpt lat="43.76007" lon="7.03185">
        <ele>934.1</ele>
        <time>2019-12-12T12:56:21Z</time>
      </trkpt>
      <trkpt lat="43.76009" lon="7.03191">
        <ele>934.1</ele>
        <time>2019-12-12T12:56:23Z</time>
      </trkpt>
      <trkpt lat="43.76012" lon="7.03197">
        <ele>934.1</ele>
        <time>2019-12-12T12:56:25Z</time>
      </trkpt>
      <trkpt lat="43.76013" lon="7.03205">
        <ele>934.1</ele>
        <time>2019-12-12T12:56:27Z</time>
      </trkpt>
      <trkpt lat="43.76015" lon="7.03211">
        <ele>934.5</ele>
        <time>2019-12-12T12:56:29Z</time>
      </trkpt>
      <trkpt lat="43.76018" lon="7.03215">
        <ele>934.5</ele>
        <time>2019-12-12T12:56:31Z</time>
      </trkpt>
      <trkpt lat="43.7602" lon="7.03221">
        <ele>934.5</ele>
        <time>2019-12-12T12:56:33Z</time>
      </trkpt>
      <trkpt lat="43.76021" lon="7.03224">
        <ele>934.5</ele>
        <time>2019-12-12T12:56:35Z</time>
      </trkpt>
      <trkpt lat="43.76025" lon="7.03228">
        <ele>934.5</ele>
        <time>2019-12-12T12:56:37Z</time>
      </trkpt>
      <trkpt lat="43.76027" lon="7.03233">
        <ele>934.1</ele>
        <time>2019-12-12T12:56:39Z</time>
      </trkpt>
      <trkpt lat="43.76029" lon="7.03237">
        <ele>934.1</ele>
        <time>2019-12-12T12:56:41Z</time>
      </trkpt>
      <trkpt lat="43.76031" lon="7.03242">
        <ele>934.1</ele>
        <time>2019-12-12T12:56:43Z</time>
      </trkpt>
      <trkpt lat="43.76035" lon="7.03246">
        <ele>934.1</ele>
        <time>2019-12-12T12:56:45Z</time>
      </trkpt>
      <trkpt lat="43.76037" lon="7.0325">
        <ele>934.5</ele>
        <time>2019-12-12T12:56:47Z</time>
      </trkpt>
      <trkpt lat="43.76041" lon="7.03255">
        <ele>935</ele>
        <time>2019-12-12T12:56:49Z</time>
      </trkpt>
      <trkpt lat="43.76044" lon="7.03261">
        <ele>935.5</ele>
        <time>2019-12-12T12:56:51Z</time>
      </trkpt>
      <trkpt lat="43.76047" lon="7.03265">
        <ele>935.5</ele>
        <time>2019-12-12T12:56:53Z</time>
      </trkpt>
      <trkpt lat="43.76049" lon="7.03269">
        <ele>935.5</ele>
        <time>2019-12-12T12:56:55Z</time>
      </trkpt>
      <trkpt lat="43.76053" lon="7.03274">
        <ele>935.5</ele>
        <time>2019-12-12T12:56:57Z</time>
      </trkpt>
      <trkpt lat="43.76055" lon="7.03278">
        <ele>935.5</ele>
        <time>2019-12-12T12:56:59Z</time>
      </trkpt>
      <trkpt lat="43.7606" lon="7.03281">
        <ele>935</ele>
        <time>2019-12-12T12:57:01Z</time>
      </trkpt>
      <trkpt lat="43.76065" lon="7.03284">
        <ele>934.5</ele>
        <time>2019-12-12T12:57:03Z</time>
      </trkpt>
      <trkpt lat="43.76069" lon="7.03287">
        <ele>935</ele>
        <time>2019-12-12T12:57:05Z</time>
      </trkpt>
      <trkpt lat="43.76072" lon="7.0329">
        <ele>935</ele>
        <time>2019-12-12T12:57:07Z</time>
      </trkpt>
      <trkpt lat="43.76076" lon="7.03292">
        <ele>935.5</ele>
        <time>2019-12-12T12:57:09Z</time>
      </trkpt>
      <trkpt lat="43.7608" lon="7.03295">
        <ele>935.5</ele>
        <time>2019-12-12T12:57:11Z</time>
      </trkpt>
      <trkpt lat="43.76084" lon="7.033">
        <ele>935.5</ele>
        <time>2019-12-12T12:57:13Z</time>
      </trkpt>
      <trkpt lat="43.76086" lon="7.03304">
        <ele>935</ele>
        <time>2019-12-12T12:57:15Z</time>
      </trkpt>
      <trkpt lat="43.7609" lon="7.03309">
        <ele>935</ele>
        <time>2019-12-12T12:57:17Z</time>
      </trkpt>
      <trkpt lat="43.76093" lon="7.03313">
        <ele>935</ele>
        <time>2019-12-12T12:57:19Z</time>
      </trkpt>
      <trkpt lat="43.76095" lon="7.03317">
        <ele>935</ele>
        <time>2019-12-12T12:57:21Z</time>
      </trkpt>
      <trkpt lat="43.76097" lon="7.03321">
        <ele>935.5</ele>
        <time>2019-12-12T12:57:23Z</time>
      </trkpt>
      <trkpt lat="43.76099" lon="7.03325">
        <ele>936.5</ele>
        <time>2019-12-12T12:57:25Z</time>
      </trkpt>
      <trkpt lat="43.76103" lon="7.0333">
        <ele>936</ele>
        <time>2019-12-12T12:57:27Z</time>
      </trkpt>
      <trkpt lat="43.76106" lon="7.03335">
        <ele>935.5</ele>
        <time>2019-12-12T12:57:29Z</time>
      </trkpt>
      <trkpt lat="43.7611" lon="7.03343">
        <ele>936</ele>
        <time>2019-12-12T12:57:31Z</time>
      </trkpt>
      <trkpt lat="43.76113" lon="7.03352">
        <ele>936.5</ele>
        <time>2019-12-12T12:57:33Z</time>
      </trkpt>
      <trkpt lat="43.76117" lon="7.03362">
        <ele>936.5</ele>
        <time>2019-12-12T12:57:35Z</time>
      </trkpt>
      <trkpt lat="43.7612" lon="7.0337">
        <ele>936.5</ele>
        <time>2019-12-12T12:57:37Z</time>
      </trkpt>
      <trkpt lat="43.76122" lon="7.03377">
        <ele>936</ele>
        <time>2019-12-12T12:57:39Z</time>
      </trkpt>
      <trkpt lat="43.76124" lon="7.03382">
        <ele>935.5</ele>
        <time>2019-12-12T12:57:41Z</time>
      </trkpt>
      <trkpt lat="43.76126" lon="7.03387">
        <ele>935</ele>
        <time>2019-12-12T12:57:43Z</time>
      </trkpt>
      <trkpt lat="43.76127" lon="7.03393">
        <ele>935</ele>
        <time>2019-12-12T12:57:45Z</time>
      </trkpt>
      <trkpt lat="43.7613" lon="7.03399">
        <ele>934.5</ele>
        <time>2019-12-12T12:57:47Z</time>
      </trkpt>
      <trkpt lat="43.76132" lon="7.03405">
        <ele>934.5</ele>
        <time>2019-12-12T12:57:49Z</time>
      </trkpt>
      <trkpt lat="43.76135" lon="7.03411">
        <ele>935</ele>
        <time>2019-12-12T12:57:51Z</time>
      </trkpt>
      <trkpt lat="43.76137" lon="7.03416">
        <ele>935.5</ele>
        <time>2019-12-12T12:57:53Z</time>
      </trkpt>
      <trkpt lat="43.7614" lon="7.03422">
        <ele>936</ele>
        <time>2019-12-12T12:57:55Z</time>
      </trkpt>
      <trkpt lat="43.76142" lon="7.03428">
        <ele>936.9</ele>
        <time>2019-12-12T12:57:57Z</time>
      </trkpt>
      <trkpt lat="43.76146" lon="7.03439">
        <ele>937.9</ele>
        <time>2019-12-12T12:57:59Z</time>
      </trkpt>
      <trkpt lat="43.76149" lon="7.03446">
        <ele>937.9</ele>
        <time>2019-12-12T12:58:01Z</time>
      </trkpt>
      <trkpt lat="43.76154" lon="7.0345">
        <ele>937.4</ele>
        <time>2019-12-12T12:58:03Z</time>
      </trkpt>
      <trkpt lat="43.76156" lon="7.03455">
        <ele>937.4</ele>
        <time>2019-12-12T12:58:05Z</time>
      </trkpt>
      <trkpt lat="43.7616" lon="7.03459">
        <ele>938.4</ele>
        <time>2019-12-12T12:58:07Z</time>
      </trkpt>
      <trkpt lat="43.76163" lon="7.03463">
        <ele>939.3</ele>
        <time>2019-12-12T12:58:09Z</time>
      </trkpt>
      <trkpt lat="43.76166" lon="7.03466">
        <ele>939.8</ele>
        <time>2019-12-12T12:58:11Z</time>
      </trkpt>
      <trkpt lat="43.7617" lon="7.03468">
        <ele>940.3</ele>
        <time>2019-12-12T12:58:13Z</time>
      </trkpt>
      <trkpt lat="43.76172" lon="7.0347">
        <ele>940.8</ele>
        <time>2019-12-12T12:58:15Z</time>
      </trkpt>
      <trkpt lat="43.76174" lon="7.03473">
        <ele>941.7</ele>
        <time>2019-12-12T12:58:17Z</time>
      </trkpt>
      <trkpt lat="43.76176" lon="7.03475">
        <ele>942.2</ele>
        <time>2019-12-12T12:58:19Z</time>
      </trkpt>
      <trkpt lat="43.76177" lon="7.03477">
        <ele>943.2</ele>
        <time>2019-12-12T12:58:21Z</time>
      </trkpt>
      <trkpt lat="43.76178" lon="7.03478">
        <ele>943.2</ele>
        <time>2019-12-12T12:58:23Z</time>
      </trkpt>
      <trkpt lat="43.76179" lon="7.03478">
        <ele>943.7</ele>
        <time>2019-12-12T12:58:25Z</time>
      </trkpt>
      <trkpt lat="43.76179" lon="7.03478">
        <ele>943.7</ele>
        <time>2019-12-12T12:58:27Z</time>
      </trkpt>
      <trkpt lat="43.76179" lon="7.03478">
        <ele>943.7</ele>
        <time>2019-12-12T12:58:29Z</time>
      </trkpt>
      <trkpt lat="43.76179" lon="7.03478">
        <ele>943.7</ele>
        <time>2019-12-12T12:58:31Z</time>
      </trkpt>
      <trkpt lat="43.76179" lon="7.03478">
        <ele>943.7</ele>
        <time>2019-12-12T12:58:33Z</time>
      </trkpt>
      <trkpt lat="43.76179" lon="7.03478">
        <ele>943.7</ele>
        <time>2019-12-12T12:58:35Z</time>
      </trkpt>
      <trkpt lat="43.76179" lon="7.03478">
        <ele>943.7</ele>
        <time>2019-12-12T12:58:37Z</time>
      </trkpt>
      <trkpt lat="43.76179" lon="7.03478">
        <ele>943.7</ele>
        <time>2019-12-12T12:58:39Z</time>
      </trkpt>
      <trkpt lat="43.76178" lon="7.03479">
        <ele>943.7</ele>
        <time>2019-12-12T12:58:41Z</time>
      </trkpt>
      <trkpt lat="43.76178" lon="7.03479">
        <ele>943.7</ele>
        <time>2019-12-12T12:58:43Z</time>
      </trkpt>
      <trkpt lat="43.76179" lon="7.0348">
        <ele>943.7</ele>
        <time>2019-12-12T12:58:45Z</time>
      </trkpt>
      <trkpt lat="43.76179" lon="7.0348">
        <ele>943.7</ele>
        <time>2019-12-12T12:58:47Z</time>
      </trkpt>
      <trkpt lat="43.76179" lon="7.0348">
        <ele>943.7</ele>
        <time>2019-12-12T12:58:49Z</time>
      </trkpt>
      <trkpt lat="43.76179" lon="7.0348">
        <ele>943.7</ele>
        <time>2019-12-12T12:58:51Z</time>
      </trkpt>
      <trkpt lat="43.76179" lon="7.0348">
        <ele>943.7</ele>
        <time>2019-12-12T12:58:53Z</time>
      </trkpt>
      <trkpt lat="43.76179" lon="7.03481">
        <ele>943.7</ele>
        <time>2019-12-12T12:58:55Z</time>
      </trkpt>
      <trkpt lat="43.76179" lon="7.03481">
        <ele>943.7</ele>
        <time>2019-12-12T12:58:57Z</time>
      </trkpt>
      <trkpt lat="43.76179" lon="7.03481">
        <ele>943.7</ele>
        <time>2019-12-12T12:58:59Z</time>
      </trkpt>
      <trkpt lat="43.76179" lon="7.03482">
        <ele>943.7</ele>
        <time>2019-12-12T12:59:01Z</time>
      </trkpt>
      <trkpt lat="43.76179" lon="7.03482">
        <ele>943.7</ele>
        <time>2019-12-12T12:59:03Z</time>
      </trkpt>
      <trkpt lat="43.76179" lon="7.03482">
        <ele>943.7</ele>
        <time>2019-12-12T12:59:05Z</time>
      </trkpt>
      <trkpt lat="43.76179" lon="7.03482">
        <ele>943.7</ele>
        <time>2019-12-12T12:59:07Z</time>
      </trkpt>
      <trkpt lat="43.7618" lon="7.03482">
        <ele>943.7</ele>
        <time>2019-12-12T12:59:09Z</time>
      </trkpt>
      <trkpt lat="43.7618" lon="7.03482">
        <ele>943.7</ele>
        <time>2019-12-12T12:59:11Z</time>
      </trkpt>
      <trkpt lat="43.7618" lon="7.03482">
        <ele>943.7</ele>
        <time>2019-12-12T12:59:13Z</time>
      </trkpt>
      <trkpt lat="43.7618" lon="7.03482">
        <ele>943.7</ele>
        <time>2019-12-12T12:59:15Z</time>
      </trkpt>
      <trkpt lat="43.7618" lon="7.03482">
        <ele>943.7</ele>
        <time>2019-12-12T12:59:17Z</time>
      </trkpt>
      <trkpt lat="43.7618" lon="7.03482">
        <ele>943.7</ele>
        <time>2019-12-12T12:59:19Z</time>
      </trkpt>
      <trkpt lat="43.7618" lon="7.03482">
        <ele>943.7</ele>
        <time>2019-12-12T12:59:21Z</time>
      </trkpt>
      <trkpt lat="43.7618" lon="7.03482">
        <ele>943.7</ele>
        <time>2019-12-12T12:59:23Z</time>
      </trkpt>
      <trkpt lat="43.7618" lon="7.03482">
        <ele>943.7</ele>
        <time>2019-12-12T12:59:25Z</time>
      </trkpt>
      <trkpt lat="43.7618" lon="7.03482">
        <ele>943.7</ele>
        <time>2019-12-12T12:59:27Z</time>
      </trkpt>
      <trkpt lat="43.7618" lon="7.03482">
        <ele>943.7</ele>
        <time>2019-12-12T12:59:29Z</time>
      </trkpt>
      <trkpt lat="43.7618" lon="7.03482">
        <ele>943.7</ele>
        <time>2019-12-12T12:59:31Z</time>
      </trkpt>
      <trkpt lat="43.7618" lon="7.03482">
        <ele>943.7</ele>
        <time>2019-12-12T12:59:33Z</time>
      </trkpt>
      <trkpt lat="43.7618" lon="7.03482">
        <ele>943.7</ele>
        <time>2019-12-12T12:59:35Z</time>
      </trkpt>
      <trkpt lat="43.7618" lon="7.03482">
        <ele>943.7</ele>
        <time>2019-12-12T12:59:37Z</time>
      </trkpt>
      <trkpt lat="43.7618" lon="7.03482">
        <ele>943.7</ele>
        <time>2019-12-12T12:59:39Z</time>
      </trkpt>
      <trkpt lat="43.7618" lon="7.03482">
        <ele>943.7</ele>
        <time>2019-12-12T12:59:41Z</time>
      </trkpt>
      <trkpt lat="43.7618" lon="7.03482">
        <ele>943.7</ele>
        <time>2019-12-12T12:59:43Z</time>
      </trkpt>
      <trkpt lat="43.7618" lon="7.03482">
        <ele>943.7</ele>
        <time>2019-12-12T12:59:45Z</time>
      </trkpt>
      <trkpt lat="43.7618" lon="7.03483">
        <ele>943.7</ele>
        <time>2019-12-12T12:59:47Z</time>
      </trkpt>
      <trkpt lat="43.7618" lon="7.03483">
        <ele>943.7</ele>
        <time>2019-12-12T12:59:49Z</time>
      </trkpt>
      <trkpt lat="43.7618" lon="7.03483">
        <ele>943.7</ele>
        <time>2019-12-12T12:59:51Z</time>
      </trkpt>
      <trkpt lat="43.7618" lon="7.03483">
        <ele>943.7</ele>
        <time>2019-12-12T12:59:53Z</time>
      </trkpt>
      <trkpt lat="43.7618" lon="7.03483">
        <ele>943.7</ele>
        <time>2019-12-12T12:59:55Z</time>
      </trkpt>
      <trkpt lat="43.7618" lon="7.03483">
        <ele>943.7</ele>
        <time>2019-12-12T12:59:57Z</time>
      </trkpt>
      <trkpt lat="43.7618" lon="7.03483">
        <ele>943.7</ele>
        <time>2019-12-12T12:59:59Z</time>
      </trkpt>
      <trkpt lat="43.7618" lon="7.03483">
        <ele>943.7</ele>
        <time>2019-12-12T13:00:01Z</time>
      </trkpt>
      <trkpt lat="43.7618" lon="7.03483">
        <ele>943.7</ele>
        <time>2019-12-12T13:00:03Z</time>
      </trkpt>
      <trkpt lat="43.7618" lon="7.03483">
        <ele>943.7</ele>
        <time>2019-12-12T13:00:05Z</time>
      </trkpt>
      <trkpt lat="43.7618" lon="7.03483">
        <ele>943.7</ele>
        <time>2019-12-12T13:00:07Z</time>
      </trkpt>
      <trkpt lat="43.7618" lon="7.03483">
        <ele>943.7</ele>
        <time>2019-12-12T13:00:09Z</time>
      </trkpt>
      <trkpt lat="43.7618" lon="7.03483">
        <ele>943.7</ele>
        <time>2019-12-12T13:00:11Z</time>
      </trkpt>
      <trkpt lat="43.7618" lon="7.03483">
        <ele>943.7</ele>
        <time>2019-12-12T13:00:13Z</time>
      </trkpt>
      <trkpt lat="43.7618" lon="7.03483">
        <ele>943.7</ele>
        <time>2019-12-12T13:00:15Z</time>
      </trkpt>
      <trkpt lat="43.7618" lon="7.03483">
        <ele>943.7</ele>
        <time>2019-12-12T13:00:17Z</time>
      </trkpt>
      <trkpt lat="43.7618" lon="7.03483">
        <ele>943.7</ele>
        <time>2019-12-12T13:00:19Z</time>
      </trkpt>
      <trkpt lat="43.7618" lon="7.03483">
        <ele>943.7</ele>
        <time>2019-12-12T13:00:21Z</time>
      </trkpt>
      <trkpt lat="43.7618" lon="7.03483">
        <ele>943.7</ele>
        <time>2019-12-12T13:00:23Z</time>
      </trkpt>
      <trkpt lat="43.7618" lon="7.03483">
        <ele>943.7</ele>
        <time>2019-12-12T13:00:25Z</time>
      </trkpt>
      <trkpt lat="43.7618" lon="7.03483">
        <ele>943.7</ele>
        <time>2019-12-12T13:00:27Z</time>
      </trkpt>
      <trkpt lat="43.7618" lon="7.03483">
        <ele>943.7</ele>
        <time>2019-12-12T13:00:29Z</time>
      </trkpt>
      <trkpt lat="43.7618" lon="7.03483">
        <ele>943.7</ele>
        <time>2019-12-12T13:00:31Z</time>
      </trkpt>
      <trkpt lat="43.7618" lon="7.03483">
        <ele>943.7</ele>
        <time>2019-12-12T13:00:33Z</time>
      </trkpt>
      <trkpt lat="43.7618" lon="7.03483">
        <ele>943.7</ele>
        <time>2019-12-12T13:00:35Z</time>
      </trkpt>
      <trkpt lat="43.7618" lon="7.03483">
        <ele>943.7</ele>
        <time>2019-12-12T13:00:37Z</time>
      </trkpt>
      <trkpt lat="43.7618" lon="7.03483">
        <ele>943.7</ele>
        <time>2019-12-12T13:00:39Z</time>
      </trkpt>
      <trkpt lat="43.7618" lon="7.03483">
        <ele>943.7</ele>
        <time>2019-12-12T13:00:41Z</time>
      </trkpt>
      <trkpt lat="43.7618" lon="7.03483">
        <ele>943.7</ele>
        <time>2019-12-12T13:00:43Z</time>
      </trkpt>
      <trkpt lat="43.7618" lon="7.03483">
        <ele>943.7</ele>
        <time>2019-12-12T13:00:45Z</time>
      </trkpt>
      <trkpt lat="43.7618" lon="7.03483">
        <ele>943.7</ele>
        <time>2019-12-12T13:00:47Z</time>
      </trkpt>
      <trkpt lat="43.7618" lon="7.03483">
        <ele>943.7</ele>
        <time>2019-12-12T13:00:49Z</time>
      </trkpt>
      <trkpt lat="43.7618" lon="7.03483">
        <ele>943.7</ele>
        <time>2019-12-12T13:00:51Z</time>
      </trkpt>
      <trkpt lat="43.7618" lon="7.03483">
        <ele>943.7</ele>
        <time>2019-12-12T13:00:53Z</time>
      </trkpt>
      <trkpt lat="43.7618" lon="7.03483">
        <ele>943.7</ele>
        <time>2019-12-12T13:00:55Z</time>
      </trkpt>
      <trkpt lat="43.7618" lon="7.03483">
        <ele>943.7</ele>
        <time>2019-12-12T13:00:57Z</time>
      </trkpt>
      <trkpt lat="43.7618" lon="7.03483">
        <ele>943.7</ele>
        <time>2019-12-12T13:00:59Z</time>
      </trkpt>
      <trkpt lat="43.7618" lon="7.03483">
        <ele>943.7</ele>
        <time>2019-12-12T13:01:01Z</time>
      </trkpt>
      <trkpt lat="43.7618" lon="7.03483">
        <ele>943.7</ele>
        <time>2019-12-12T13:01:03Z</time>
      </trkpt>
      <trkpt lat="43.7618" lon="7.03483">
        <ele>943.7</ele>
        <time>2019-12-12T13:01:05Z</time>
      </trkpt>
      <trkpt lat="43.7618" lon="7.03483">
        <ele>943.7</ele>
        <time>2019-12-12T13:01:07Z</time>
      </trkpt>
      <trkpt lat="43.7618" lon="7.03483">
        <ele>943.7</ele>
        <time>2019-12-12T13:01:09Z</time>
      </trkpt>
      <trkpt lat="43.7618" lon="7.03483">
        <ele>943.7</ele>
        <time>2019-12-12T13:01:11Z</time>
      </trkpt>
      <trkpt lat="43.7618" lon="7.03483">
        <ele>943.7</ele>
        <time>2019-12-12T13:01:13Z</time>
      </trkpt>
      <trkpt lat="43.7618" lon="7.03483">
        <ele>943.7</ele>
        <time>2019-12-12T13:01:15Z</time>
      </trkpt>
      <trkpt lat="43.7618" lon="7.03483">
        <ele>943.7</ele>
        <time>2019-12-12T13:01:17Z</time>
      </trkpt>
      <trkpt lat="43.7618" lon="7.03483">
        <ele>943.7</ele>
        <time>2019-12-12T13:01:19Z</time>
      </trkpt>
      <trkpt lat="43.7618" lon="7.03483">
        <ele>943.7</ele>
        <time>2019-12-12T13:01:21Z</time>
      </trkpt>
      <trkpt lat="43.7618" lon="7.03483">
        <ele>943.7</ele>
        <time>2019-12-12T13:01:23Z</time>
      </trkpt>
      <trkpt lat="43.7618" lon="7.03483">
        <ele>943.7</ele>
        <time>2019-12-12T13:01:25Z</time>
      </trkpt>
      <trkpt lat="43.7618" lon="7.03483">
        <ele>943.7</ele>
        <time>2019-12-12T13:01:27Z</time>
      </trkpt>
      <trkpt lat="43.7618" lon="7.03483">
        <ele>943.7</ele>
        <time>2019-12-12T13:01:29Z</time>
      </trkpt>
      <trkpt lat="43.7618" lon="7.03483">
        <ele>943.7</ele>
        <time>2019-12-12T13:01:31Z</time>
      </trkpt>
      <trkpt lat="43.7618" lon="7.03483">
        <ele>943.7</ele>
        <time>2019-12-12T13:01:33Z</time>
      </trkpt>
      <trkpt lat="43.7618" lon="7.03483">
        <ele>943.7</ele>
        <time>2019-12-12T13:01:35Z</time>
      </trkpt>
      <trkpt lat="43.7618" lon="7.03483">
        <ele>943.7</ele>
        <time>2019-12-12T13:01:37Z</time>
      </trkpt>
      <trkpt lat="43.7618" lon="7.03483">
        <ele>943.7</ele>
        <time>2019-12-12T13:01:39Z</time>
      </trkpt>
      <trkpt lat="43.7618" lon="7.03483">
        <ele>943.7</ele>
        <time>2019-12-12T13:01:41Z</time>
      </trkpt>
      <trkpt lat="43.7618" lon="7.03483">
        <ele>943.7</ele>
        <time>2019-12-12T13:01:43Z</time>
      </trkpt>
      <trkpt lat="43.7618" lon="7.03483">
        <ele>943.7</ele>
        <time>2019-12-12T13:01:45Z</time>
      </trkpt>
      <trkpt lat="43.7618" lon="7.03483">
        <ele>943.7</ele>
        <time>2019-12-12T13:01:47Z</time>
      </trkpt>
      <trkpt lat="43.76181" lon="7.03483">
        <ele>943.7</ele>
        <time>2019-12-12T13:01:49Z</time>
      </trkpt>
      <trkpt lat="43.76181" lon="7.03483">
        <ele>943.7</ele>
        <time>2019-12-12T13:01:51Z</time>
      </trkpt>
      <trkpt lat="43.76181" lon="7.03483">
        <ele>943.7</ele>
        <time>2019-12-12T13:01:53Z</time>
      </trkpt>
      <trkpt lat="43.76181" lon="7.03483">
        <ele>943.7</ele>
        <time>2019-12-12T13:01:55Z</time>
      </trkpt>
      <trkpt lat="43.76181" lon="7.03483">
        <ele>943.7</ele>
        <time>2019-12-12T13:01:57Z</time>
      </trkpt>
      <trkpt lat="43.76181" lon="7.03483">
        <ele>943.7</ele>
        <time>2019-12-12T13:01:59Z</time>
      </trkpt>
      <trkpt lat="43.76181" lon="7.03483">
        <ele>943.7</ele>
        <time>2019-12-12T13:02:01Z</time>
      </trkpt>
      <trkpt lat="43.76181" lon="7.03483">
        <ele>943.7</ele>
        <time>2019-12-12T13:02:03Z</time>
      </trkpt>
      <trkpt lat="43.76181" lon="7.03483">
        <ele>943.7</ele>
        <time>2019-12-12T13:02:05Z</time>
      </trkpt>
      <trkpt lat="43.76181" lon="7.03483">
        <ele>943.7</ele>
        <time>2019-12-12T13:02:07Z</time>
      </trkpt>
      <trkpt lat="43.76181" lon="7.03483">
        <ele>943.7</ele>
        <time>2019-12-12T13:02:09Z</time>
      </trkpt>
      <trkpt lat="43.76181" lon="7.03483">
        <ele>943.7</ele>
        <time>2019-12-12T13:02:11Z</time>
      </trkpt>
      <trkpt lat="43.76181" lon="7.03483">
        <ele>943.7</ele>
        <time>2019-12-12T13:02:13Z</time>
      </trkpt>
      <trkpt lat="43.76181" lon="7.03483">
        <ele>943.7</ele>
        <time>2019-12-12T13:02:15Z</time>
      </trkpt>
      <trkpt lat="43.76181" lon="7.03483">
        <ele>943.7</ele>
        <time>2019-12-12T13:02:17Z</time>
      </trkpt>
      <trkpt lat="43.76181" lon="7.03483">
        <ele>943.7</ele>
        <time>2019-12-12T13:02:19Z</time>
      </trkpt>
      <trkpt lat="43.76181" lon="7.03483">
        <ele>943.7</ele>
        <time>2019-12-12T13:02:21Z</time>
      </trkpt>
      <trkpt lat="43.76181" lon="7.03483">
        <ele>943.7</ele>
        <time>2019-12-12T13:02:23Z</time>
      </trkpt>
      <trkpt lat="43.76181" lon="7.03483">
        <ele>943.7</ele>
        <time>2019-12-12T13:02:25Z</time>
      </trkpt>
      <trkpt lat="43.76181" lon="7.03483">
        <ele>943.7</ele>
        <time>2019-12-12T13:02:27Z</time>
      </trkpt>
      <trkpt lat="43.76181" lon="7.03483">
        <ele>943.7</ele>
        <time>2019-12-12T13:02:29Z</time>
      </trkpt>
      <trkpt lat="43.76181" lon="7.03483">
        <ele>943.7</ele>
        <time>2019-12-12T13:02:31Z</time>
      </trkpt>
      <trkpt lat="43.76181" lon="7.03483">
        <ele>943.7</ele>
        <time>2019-12-12T13:02:33Z</time>
      </trkpt>
      <trkpt lat="43.76181" lon="7.03483">
        <ele>943.7</ele>
        <time>2019-12-12T13:02:35Z</time>
      </trkpt>
      <trkpt lat="43.76181" lon="7.03483">
        <ele>943.7</ele>
        <time>2019-12-12T13:02:37Z</time>
      </trkpt>
      <trkpt lat="43.76181" lon="7.03483">
        <ele>943.7</ele>
        <time>2019-12-12T13:02:39Z</time>
      </trkpt>
      <trkpt lat="43.76181" lon="7.03483">
        <ele>943.7</ele>
        <time>2019-12-12T13:02:41Z</time>
      </trkpt>
      <trkpt lat="43.76181" lon="7.03483">
        <ele>943.7</ele>
        <time>2019-12-12T13:02:43Z</time>
      </trkpt>
      <trkpt lat="43.76181" lon="7.03483">
        <ele>943.7</ele>
        <time>2019-12-12T13:02:45Z</time>
      </trkpt>
      <trkpt lat="43.76181" lon="7.03483">
        <ele>944.2</ele>
        <time>2019-12-12T13:02:47Z</time>
      </trkpt>
      <trkpt lat="43.76181" lon="7.03483">
        <ele>944.2</ele>
        <time>2019-12-12T13:02:49Z</time>
      </trkpt>
      <trkpt lat="43.76181" lon="7.03483">
        <ele>944.2</ele>
        <time>2019-12-12T13:02:51Z</time>
      </trkpt>
      <trkpt lat="43.76181" lon="7.03483">
        <ele>944.2</ele>
        <time>2019-12-12T13:02:53Z</time>
      </trkpt>
      <trkpt lat="43.76181" lon="7.03483">
        <ele>944.2</ele>
        <time>2019-12-12T13:02:55Z</time>
      </trkpt>
      <trkpt lat="43.76181" lon="7.03484">
        <ele>944.2</ele>
        <time>2019-12-12T13:02:57Z</time>
      </trkpt>
      <trkpt lat="43.76181" lon="7.03484">
        <ele>944.2</ele>
        <time>2019-12-12T13:02:59Z</time>
      </trkpt>
      <trkpt lat="43.7618" lon="7.03484">
        <ele>944.2</ele>
        <time>2019-12-12T13:03:01Z</time>
      </trkpt>
      <trkpt lat="43.7618" lon="7.03485">
        <ele>944.2</ele>
        <time>2019-12-12T13:03:03Z</time>
      </trkpt>
      <trkpt lat="43.7618" lon="7.03485">
        <ele>944.2</ele>
        <time>2019-12-12T13:03:05Z</time>
      </trkpt>
      <trkpt lat="43.7618" lon="7.03485">
        <ele>944.2</ele>
        <time>2019-12-12T13:03:07Z</time>
      </trkpt>
      <trkpt lat="43.7618" lon="7.03485">
        <ele>944.2</ele>
        <time>2019-12-12T13:03:09Z</time>
      </trkpt>
      <trkpt lat="43.7618" lon="7.03485">
        <ele>944.2</ele>
        <time>2019-12-12T13:03:11Z</time>
      </trkpt>
      <trkpt lat="43.7618" lon="7.03486">
        <ele>944.2</ele>
        <time>2019-12-12T13:03:13Z</time>
      </trkpt>
      <trkpt lat="43.7618" lon="7.03486">
        <ele>944.2</ele>
        <time>2019-12-12T13:03:15Z</time>
      </trkpt>
      <trkpt lat="43.7618" lon="7.03486">
        <ele>944.2</ele>
        <time>2019-12-12T13:03:17Z</time>
      </trkpt>
      <trkpt lat="43.76179" lon="7.03487">
        <ele>944.2</ele>
        <time>2019-12-12T13:03:19Z</time>
      </trkpt>
      <trkpt lat="43.76179" lon="7.03487">
        <ele>944.2</ele>
        <time>2019-12-12T13:03:21Z</time>
      </trkpt>
      <trkpt lat="43.76179" lon="7.03487">
        <ele>944.2</ele>
        <time>2019-12-12T13:03:23Z</time>
      </trkpt>
      <trkpt lat="43.76179" lon="7.03487">
        <ele>944.2</ele>
        <time>2019-12-12T13:03:25Z</time>
      </trkpt>
      <trkpt lat="43.76179" lon="7.03487">
        <ele>944.2</ele>
        <time>2019-12-12T13:03:27Z</time>
      </trkpt>
      <trkpt lat="43.76179" lon="7.03487">
        <ele>944.2</ele>
        <time>2019-12-12T13:03:29Z</time>
      </trkpt>
      <trkpt lat="43.76179" lon="7.03487">
        <ele>944.2</ele>
        <time>2019-12-12T13:03:31Z</time>
      </trkpt>
      <trkpt lat="43.76179" lon="7.03486">
        <ele>944.2</ele>
        <time>2019-12-12T13:03:33Z</time>
      </trkpt>
      <trkpt lat="43.76179" lon="7.03486">
        <ele>944.2</ele>
        <time>2019-12-12T13:03:35Z</time>
      </trkpt>
      <trkpt lat="43.76179" lon="7.03486">
        <ele>944.2</ele>
        <time>2019-12-12T13:03:37Z</time>
      </trkpt>
      <trkpt lat="43.76179" lon="7.03486">
        <ele>944.2</ele>
        <time>2019-12-12T13:03:39Z</time>
      </trkpt>
      <trkpt lat="43.76179" lon="7.03487">
        <ele>944.2</ele>
        <time>2019-12-12T13:03:41Z</time>
      </trkpt>
      <trkpt lat="43.76179" lon="7.03487">
        <ele>944.2</ele>
        <time>2019-12-12T13:03:43Z</time>
      </trkpt>
      <trkpt lat="43.76179" lon="7.03487">
        <ele>944.2</ele>
        <time>2019-12-12T13:03:45Z</time>
      </trkpt>
      <trkpt lat="43.76179" lon="7.03488">
        <ele>944.2</ele>
        <time>2019-12-12T13:03:47Z</time>
      </trkpt>
      <trkpt lat="43.76179" lon="7.03488">
        <ele>944.2</ele>
        <time>2019-12-12T13:03:49Z</time>
      </trkpt>
      <trkpt lat="43.76179" lon="7.03488">
        <ele>944.2</ele>
        <time>2019-12-12T13:03:51Z</time>
      </trkpt>
      <trkpt lat="43.76178" lon="7.03489">
        <ele>944.2</ele>
        <time>2019-12-12T13:03:53Z</time>
      </trkpt>
      <trkpt lat="43.76178" lon="7.03489">
        <ele>944.2</ele>
        <time>2019-12-12T13:03:55Z</time>
      </trkpt>
      <trkpt lat="43.76178" lon="7.03489">
        <ele>944.2</ele>
        <time>2019-12-12T13:03:57Z</time>
      </trkpt>
      <trkpt lat="43.76177" lon="7.0349">
        <ele>944.2</ele>
        <time>2019-12-12T13:03:59Z</time>
      </trkpt>
      <trkpt lat="43.76177" lon="7.0349">
        <ele>944.2</ele>
        <time>2019-12-12T13:04:01Z</time>
      </trkpt>
      <trkpt lat="43.76177" lon="7.03491">
        <ele>944.2</ele>
        <time>2019-12-12T13:04:03Z</time>
      </trkpt>
      <trkpt lat="43.76177" lon="7.03491">
        <ele>944.2</ele>
        <time>2019-12-12T13:04:05Z</time>
      </trkpt>
      <trkpt lat="43.76176" lon="7.03491">
        <ele>944.2</ele>
        <time>2019-12-12T13:04:07Z</time>
      </trkpt>
      <trkpt lat="43.76176" lon="7.03491">
        <ele>944.2</ele>
        <time>2019-12-12T13:04:09Z</time>
      </trkpt>
      <trkpt lat="43.76176" lon="7.03492">
        <ele>944.2</ele>
        <time>2019-12-12T13:04:11Z</time>
      </trkpt>
      <trkpt lat="43.76176" lon="7.03493">
        <ele>944.2</ele>
        <time>2019-12-12T13:04:13Z</time>
      </trkpt>
      <trkpt lat="43.76176" lon="7.03493">
        <ele>944.2</ele>
        <time>2019-12-12T13:04:15Z</time>
      </trkpt>
      <trkpt lat="43.76176" lon="7.03493">
        <ele>944.2</ele>
        <time>2019-12-12T13:04:17Z</time>
      </trkpt>
      <trkpt lat="43.76175" lon="7.03494">
        <ele>944.2</ele>
        <time>2019-12-12T13:04:19Z</time>
      </trkpt>
      <trkpt lat="43.76175" lon="7.03494">
        <ele>944.2</ele>
        <time>2019-12-12T13:04:21Z</time>
      </trkpt>
      <trkpt lat="43.76175" lon="7.03494">
        <ele>944.2</ele>
        <time>2019-12-12T13:04:23Z</time>
      </trkpt>
      <trkpt lat="43.76175" lon="7.03495">
        <ele>944.2</ele>
        <time>2019-12-12T13:04:25Z</time>
      </trkpt>
      <trkpt lat="43.76174" lon="7.03495">
        <ele>944.2</ele>
        <time>2019-12-12T13:04:27Z</time>
      </trkpt>
      <trkpt lat="43.76174" lon="7.03496">
        <ele>944.2</ele>
        <time>2019-12-12T13:04:29Z</time>
      </trkpt>
      <trkpt lat="43.76174" lon="7.03496">
        <ele>944.2</ele>
        <time>2019-12-12T13:04:31Z</time>
      </trkpt>
      <trkpt lat="43.76174" lon="7.03498">
        <ele>944.2</ele>
        <time>2019-12-12T13:04:33Z</time>
      </trkpt>
      <trkpt lat="43.76174" lon="7.035">
        <ele>944.2</ele>
        <time>2019-12-12T13:04:35Z</time>
      </trkpt>
      <trkpt lat="43.76174" lon="7.03503">
        <ele>943.7</ele>
        <time>2019-12-12T13:04:37Z</time>
      </trkpt>
      <trkpt lat="43.76173" lon="7.03506">
        <ele>943.7</ele>
        <time>2019-12-12T13:04:39Z</time>
      </trkpt>
      <trkpt lat="43.76173" lon="7.03509">
        <ele>944.2</ele>
        <time>2019-12-12T13:04:41Z</time>
      </trkpt>
      <trkpt lat="43.76172" lon="7.03511">
        <ele>944.6</ele>
        <time>2019-12-12T13:04:43Z</time>
      </trkpt>
      <trkpt lat="43.76171" lon="7.03514">
        <ele>945.1</ele>
        <time>2019-12-12T13:04:45Z</time>
      </trkpt>
      <trkpt lat="43.76171" lon="7.03517">
        <ele>945.6</ele>
        <time>2019-12-12T13:04:47Z</time>
      </trkpt>
      <trkpt lat="43.76172" lon="7.03519">
        <ele>946.1</ele>
        <time>2019-12-12T13:04:49Z</time>
      </trkpt>
      <trkpt lat="43.76172" lon="7.03521">
        <ele>946.6</ele>
        <time>2019-12-12T13:04:51Z</time>
      </trkpt>
      <trkpt lat="43.76175" lon="7.03522">
        <ele>946.6</ele>
        <time>2019-12-12T13:04:53Z</time>
      </trkpt>
      <trkpt lat="43.76175" lon="7.03522">
        <ele>946.6</ele>
        <time>2019-12-12T13:04:55Z</time>
      </trkpt>
      <trkpt lat="43.76175" lon="7.03522">
        <ele>946.6</ele>
        <time>2019-12-12T13:04:57Z</time>
      </trkpt>
      <trkpt lat="43.76174" lon="7.03523">
        <ele>946.6</ele>
        <time>2019-12-12T13:04:59Z</time>
      </trkpt>
      <trkpt lat="43.76174" lon="7.03523">
        <ele>946.6</ele>
        <time>2019-12-12T13:05:01Z</time>
      </trkpt>
      <trkpt lat="43.76174" lon="7.03523">
        <ele>946.6</ele>
        <time>2019-12-12T13:05:03Z</time>
      </trkpt>
      <trkpt lat="43.76174" lon="7.03523">
        <ele>946.6</ele>
        <time>2019-12-12T13:05:05Z</time>
      </trkpt>
      <trkpt lat="43.76174" lon="7.03523">
        <ele>946.6</ele>
        <time>2019-12-12T13:05:07Z</time>
      </trkpt>
      <trkpt lat="43.76174" lon="7.03523">
        <ele>946.6</ele>
        <time>2019-12-12T13:05:09Z</time>
      </trkpt>
      <trkpt lat="43.76174" lon="7.03524">
        <ele>946.6</ele>
        <time>2019-12-12T13:05:11Z</time>
      </trkpt>
      <trkpt lat="43.76174" lon="7.03524">
        <ele>946.6</ele>
        <time>2019-12-12T13:05:13Z</time>
      </trkpt>
      <trkpt lat="43.76174" lon="7.03524">
        <ele>946.6</ele>
        <time>2019-12-12T13:05:15Z</time>
      </trkpt>
      <trkpt lat="43.76174" lon="7.03524">
        <ele>947</ele>
        <time>2019-12-12T13:05:17Z</time>
      </trkpt>
      <trkpt lat="43.76174" lon="7.03524">
        <ele>947</ele>
        <time>2019-12-12T13:05:19Z</time>
      </trkpt>
      <trkpt lat="43.76174" lon="7.03524">
        <ele>947</ele>
        <time>2019-12-12T13:05:21Z</time>
      </trkpt>
      <trkpt lat="43.76174" lon="7.03524">
        <ele>947</ele>
        <time>2019-12-12T13:05:23Z</time>
      </trkpt>
      <trkpt lat="43.76174" lon="7.03525">
        <ele>947</ele>
        <time>2019-12-12T13:05:25Z</time>
      </trkpt>
      <trkpt lat="43.76174" lon="7.03526">
        <ele>947</ele>
        <time>2019-12-12T13:05:27Z</time>
      </trkpt>
      <trkpt lat="43.76173" lon="7.03533">
        <ele>950.9</ele>
        <time>2019-12-12T13:05:29Z</time>
      </trkpt>
      <trkpt lat="43.76174" lon="7.03535">
        <ele>951.4</ele>
        <time>2019-12-12T13:05:31Z</time>
      </trkpt>
      <trkpt lat="43.76176" lon="7.03538">
        <ele>953.3</ele>
        <time>2019-12-12T13:05:33Z</time>
      </trkpt>
      <trkpt lat="43.76178" lon="7.0354">
        <ele>953.8</ele>
        <time>2019-12-12T13:05:35Z</time>
      </trkpt>
      <trkpt lat="43.76178" lon="7.0354">
        <ele>953.8</ele>
        <time>2019-12-12T13:05:37Z</time>
      </trkpt>
      <trkpt lat="43.76178" lon="7.03541">
        <ele>954.2</ele>
        <time>2019-12-12T13:05:39Z</time>
      </trkpt>
      <trkpt lat="43.76178" lon="7.03541">
        <ele>954.2</ele>
        <time>2019-12-12T13:05:41Z</time>
      </trkpt>
      <trkpt lat="43.76179" lon="7.03541">
        <ele>954.2</ele>
        <time>2019-12-12T13:05:43Z</time>
      </trkpt>
      <trkpt lat="43.76185" lon="7.03544">
        <ele>954.7</ele>
        <time>2019-12-12T13:05:45Z</time>
      </trkpt>
      <trkpt lat="43.7619" lon="7.03545">
        <ele>954.7</ele>
        <time>2019-12-12T13:05:47Z</time>
      </trkpt>
      <trkpt lat="43.76192" lon="7.03546">
        <ele>953.8</ele>
        <time>2019-12-12T13:05:49Z</time>
      </trkpt>
      <trkpt lat="43.76194" lon="7.03548">
        <ele>953.3</ele>
        <time>2019-12-12T13:05:51Z</time>
      </trkpt>
      <trkpt lat="43.76195" lon="7.03548">
        <ele>952.3</ele>
        <time>2019-12-12T13:05:53Z</time>
      </trkpt>
      <trkpt lat="43.76195" lon="7.03548">
        <ele>952.3</ele>
        <time>2019-12-12T13:05:55Z</time>
      </trkpt>
      <trkpt lat="43.76195" lon="7.03548">
        <ele>952.3</ele>
        <time>2019-12-12T13:05:57Z</time>
      </trkpt>
      <trkpt lat="43.76195" lon="7.03548">
        <ele>952.3</ele>
        <time>2019-12-12T13:05:59Z</time>
      </trkpt>
      <trkpt lat="43.76195" lon="7.03548">
        <ele>952.3</ele>
        <time>2019-12-12T13:06:01Z</time>
      </trkpt>
      <trkpt lat="43.76195" lon="7.03548">
        <ele>952.3</ele>
        <time>2019-12-12T13:06:03Z</time>
      </trkpt>
      <trkpt lat="43.76195" lon="7.03548">
        <ele>952.3</ele>
        <time>2019-12-12T13:06:05Z</time>
      </trkpt>
      <trkpt lat="43.76195" lon="7.03548">
        <ele>952.8</ele>
        <time>2019-12-12T13:06:07Z</time>
      </trkpt>
      <trkpt lat="43.76196" lon="7.03549">
        <ele>952.8</ele>
        <time>2019-12-12T13:06:09Z</time>
      </trkpt>
      <trkpt lat="43.76198" lon="7.03549">
        <ele>952.8</ele>
        <time>2019-12-12T13:06:11Z</time>
      </trkpt>
      <trkpt lat="43.76198" lon="7.03549">
        <ele>952.8</ele>
        <time>2019-12-12T13:06:13Z</time>
      </trkpt>
      <trkpt lat="43.76198" lon="7.0355">
        <ele>952.8</ele>
        <time>2019-12-12T13:06:15Z</time>
      </trkpt>
      <trkpt lat="43.76198" lon="7.0355">
        <ele>952.8</ele>
        <time>2019-12-12T13:06:17Z</time>
      </trkpt>
      <trkpt lat="43.76198" lon="7.0355">
        <ele>952.8</ele>
        <time>2019-12-12T13:06:19Z</time>
      </trkpt>
      <trkpt lat="43.76198" lon="7.0355">
        <ele>952.8</ele>
        <time>2019-12-12T13:06:21Z</time>
      </trkpt>
      <trkpt lat="43.76199" lon="7.03551">
        <ele>952.8</ele>
        <time>2019-12-12T13:06:23Z</time>
      </trkpt>
      <trkpt lat="43.76199" lon="7.03551">
        <ele>952.8</ele>
        <time>2019-12-12T13:06:25Z</time>
      </trkpt>
      <trkpt lat="43.76199" lon="7.03551">
        <ele>952.8</ele>
        <time>2019-12-12T13:06:27Z</time>
      </trkpt>
      <trkpt lat="43.762" lon="7.03551">
        <ele>952.8</ele>
        <time>2019-12-12T13:06:29Z</time>
      </trkpt>
      <trkpt lat="43.762" lon="7.03551">
        <ele>952.8</ele>
        <time>2019-12-12T13:06:31Z</time>
      </trkpt>
      <trkpt lat="43.76204" lon="7.03552">
        <ele>952.8</ele>
        <time>2019-12-12T13:06:33Z</time>
      </trkpt>
      <trkpt lat="43.76208" lon="7.03553">
        <ele>952.8</ele>
        <time>2019-12-12T13:06:35Z</time>
      </trkpt>
      <trkpt lat="43.7621" lon="7.03555">
        <ele>953.3</ele>
        <time>2019-12-12T13:06:37Z</time>
      </trkpt>
      <trkpt lat="43.76216" lon="7.03556">
        <ele>953.3</ele>
        <time>2019-12-12T13:06:39Z</time>
      </trkpt>
      <trkpt lat="43.76221" lon="7.03558">
        <ele>953.8</ele>
        <time>2019-12-12T13:06:41Z</time>
      </trkpt>
      <trkpt lat="43.76227" lon="7.03561">
        <ele>953.8</ele>
        <time>2019-12-12T13:06:43Z</time>
      </trkpt>
      <trkpt lat="43.7623" lon="7.03564">
        <ele>954.2</ele>
        <time>2019-12-12T13:06:45Z</time>
      </trkpt>
      <trkpt lat="43.76235" lon="7.03567">
        <ele>954.2</ele>
        <time>2019-12-12T13:06:47Z</time>
      </trkpt>
      <trkpt lat="43.76239" lon="7.03571">
        <ele>953.8</ele>
        <time>2019-12-12T13:06:49Z</time>
      </trkpt>
      <trkpt lat="43.76246" lon="7.03574">
        <ele>953.8</ele>
        <time>2019-12-12T13:06:51Z</time>
      </trkpt>
      <trkpt lat="43.76265" lon="7.0358">
        <ele>953.8</ele>
        <time>2019-12-12T13:06:53Z</time>
      </trkpt>
      <trkpt lat="43.76276" lon="7.03585">
        <ele>953.8</ele>
        <time>2019-12-12T13:06:55Z</time>
      </trkpt>
      <trkpt lat="43.76283" lon="7.03589">
        <ele>953.3</ele>
        <time>2019-12-12T13:06:57Z</time>
      </trkpt>
      <trkpt lat="43.76287" lon="7.03593">
        <ele>952.8</ele>
        <time>2019-12-12T13:06:59Z</time>
      </trkpt>
      <trkpt lat="43.76291" lon="7.03598">
        <ele>952.8</ele>
        <time>2019-12-12T13:07:01Z</time>
      </trkpt>
      <trkpt lat="43.76295" lon="7.03602">
        <ele>952.3</ele>
        <time>2019-12-12T13:07:03Z</time>
      </trkpt>
      <trkpt lat="43.76298" lon="7.03605">
        <ele>952.3</ele>
        <time>2019-12-12T13:07:05Z</time>
      </trkpt>
      <trkpt lat="43.76304" lon="7.03608">
        <ele>952.3</ele>
        <time>2019-12-12T13:07:07Z</time>
      </trkpt>
      <trkpt lat="43.76307" lon="7.03612">
        <ele>952.3</ele>
        <time>2019-12-12T13:07:09Z</time>
      </trkpt>
      <trkpt lat="43.7631" lon="7.03615">
        <ele>951.8</ele>
        <time>2019-12-12T13:07:11Z</time>
      </trkpt>
      <trkpt lat="43.76312" lon="7.03617">
        <ele>951.8</ele>
        <time>2019-12-12T13:07:13Z</time>
      </trkpt>
      <trkpt lat="43.76315" lon="7.03619">
        <ele>951.8</ele>
        <time>2019-12-12T13:07:15Z</time>
      </trkpt>
      <trkpt lat="43.7632" lon="7.03621">
        <ele>951.4</ele>
        <time>2019-12-12T13:07:17Z</time>
      </trkpt>
      <trkpt lat="43.76324" lon="7.03624">
        <ele>950.9</ele>
        <time>2019-12-12T13:07:19Z</time>
      </trkpt>
      <trkpt lat="43.76328" lon="7.03628">
        <ele>950.4</ele>
        <time>2019-12-12T13:07:21Z</time>
      </trkpt>
      <trkpt lat="43.76332" lon="7.03632">
        <ele>949.9</ele>
        <time>2019-12-12T13:07:23Z</time>
      </trkpt>
      <trkpt lat="43.76338" lon="7.03637">
        <ele>949.4</ele>
        <time>2019-12-12T13:07:25Z</time>
      </trkpt>
      <trkpt lat="43.76343" lon="7.03641">
        <ele>949</ele>
        <time>2019-12-12T13:07:27Z</time>
      </trkpt>
      <trkpt lat="43.76346" lon="7.03644">
        <ele>948</ele>
        <time>2019-12-12T13:07:29Z</time>
      </trkpt>
      <trkpt lat="43.76351" lon="7.03648">
        <ele>948</ele>
        <time>2019-12-12T13:07:31Z</time>
      </trkpt>
      <trkpt lat="43.76356" lon="7.03652">
        <ele>947.5</ele>
        <time>2019-12-12T13:07:33Z</time>
      </trkpt>
      <trkpt lat="43.76359" lon="7.03655">
        <ele>947.5</ele>
        <time>2019-12-12T13:07:35Z</time>
      </trkpt>
      <trkpt lat="43.76362" lon="7.03658">
        <ele>947.5</ele>
        <time>2019-12-12T13:07:37Z</time>
      </trkpt>
      <trkpt lat="43.76365" lon="7.03662">
        <ele>947.5</ele>
        <time>2019-12-12T13:07:39Z</time>
      </trkpt>
      <trkpt lat="43.76367" lon="7.03666">
        <ele>947</ele>
        <time>2019-12-12T13:07:41Z</time>
      </trkpt>
      <trkpt lat="43.7637" lon="7.03671">
        <ele>947.5</ele>
        <time>2019-12-12T13:07:43Z</time>
      </trkpt>
      <trkpt lat="43.76372" lon="7.03675">
        <ele>947.5</ele>
        <time>2019-12-12T13:07:45Z</time>
      </trkpt>
      <trkpt lat="43.76377" lon="7.03678">
        <ele>947.5</ele>
        <time>2019-12-12T13:07:47Z</time>
      </trkpt>
      <trkpt lat="43.76382" lon="7.03682">
        <ele>948</ele>
        <time>2019-12-12T13:07:49Z</time>
      </trkpt>
      <trkpt lat="43.76385" lon="7.03686">
        <ele>948</ele>
        <time>2019-12-12T13:07:51Z</time>
      </trkpt>
      <trkpt lat="43.76388" lon="7.03691">
        <ele>948</ele>
        <time>2019-12-12T13:07:53Z</time>
      </trkpt>
      <trkpt lat="43.7639" lon="7.03696">
        <ele>948</ele>
        <time>2019-12-12T13:07:55Z</time>
      </trkpt>
      <trkpt lat="43.76393" lon="7.03702">
        <ele>948.5</ele>
        <time>2019-12-12T13:07:57Z</time>
      </trkpt>
      <trkpt lat="43.76396" lon="7.03706">
        <ele>949</ele>
        <time>2019-12-12T13:07:59Z</time>
      </trkpt>
      <trkpt lat="43.76397" lon="7.03711">
        <ele>949</ele>
        <time>2019-12-12T13:08:01Z</time>
      </trkpt>
      <trkpt lat="43.76398" lon="7.03714">
        <ele>949.4</ele>
        <time>2019-12-12T13:08:03Z</time>
      </trkpt>
      <trkpt lat="43.76399" lon="7.03717">
        <ele>949.4</ele>
        <time>2019-12-12T13:08:05Z</time>
      </trkpt>
      <trkpt lat="43.764" lon="7.0372">
        <ele>949.9</ele>
        <time>2019-12-12T13:08:07Z</time>
      </trkpt>
      <trkpt lat="43.76401" lon="7.03722">
        <ele>950.4</ele>
        <time>2019-12-12T13:08:09Z</time>
      </trkpt>
      <trkpt lat="43.76401" lon="7.03725">
        <ele>951.4</ele>
        <time>2019-12-12T13:08:11Z</time>
      </trkpt>
      <trkpt lat="43.76404" lon="7.03729">
        <ele>951.8</ele>
        <time>2019-12-12T13:08:13Z</time>
      </trkpt>
      <trkpt lat="43.76408" lon="7.03734">
        <ele>952.3</ele>
        <time>2019-12-12T13:08:15Z</time>
      </trkpt>
      <trkpt lat="43.7641" lon="7.03736">
        <ele>952.8</ele>
        <time>2019-12-12T13:08:17Z</time>
      </trkpt>
      <trkpt lat="43.76411" lon="7.03739">
        <ele>953.8</ele>
        <time>2019-12-12T13:08:19Z</time>
      </trkpt>
      <trkpt lat="43.76413" lon="7.03742">
        <ele>954.2</ele>
        <time>2019-12-12T13:08:21Z</time>
      </trkpt>
      <trkpt lat="43.76415" lon="7.03745">
        <ele>954.2</ele>
        <time>2019-12-12T13:08:23Z</time>
      </trkpt>
      <trkpt lat="43.76417" lon="7.03747">
        <ele>955.2</ele>
        <time>2019-12-12T13:08:25Z</time>
      </trkpt>
      <trkpt lat="43.76419" lon="7.0375">
        <ele>955.7</ele>
        <time>2019-12-12T13:08:27Z</time>
      </trkpt>
      <trkpt lat="43.76421" lon="7.03753">
        <ele>956.2</ele>
        <time>2019-12-12T13:08:29Z</time>
      </trkpt>
      <trkpt lat="43.76422" lon="7.03756">
        <ele>957.1</ele>
        <time>2019-12-12T13:08:31Z</time>
      </trkpt>
      <trkpt lat="43.76424" lon="7.03758">
        <ele>958.1</ele>
        <time>2019-12-12T13:08:33Z</time>
      </trkpt>
      <trkpt lat="43.76426" lon="7.0376">
        <ele>958.6</ele>
        <time>2019-12-12T13:08:35Z</time>
      </trkpt>
      <trkpt lat="43.76428" lon="7.03763">
        <ele>959.1</ele>
        <time>2019-12-12T13:08:37Z</time>
      </trkpt>
      <trkpt lat="43.76428" lon="7.03767">
        <ele>959.5</ele>
        <time>2019-12-12T13:08:39Z</time>
      </trkpt>
      <trkpt lat="43.76429" lon="7.0377">
        <ele>960</ele>
        <time>2019-12-12T13:08:41Z</time>
      </trkpt>
      <trkpt lat="43.76429" lon="7.03775">
        <ele>960</ele>
        <time>2019-12-12T13:08:43Z</time>
      </trkpt>
      <trkpt lat="43.7643" lon="7.03779">
        <ele>960.5</ele>
        <time>2019-12-12T13:08:45Z</time>
      </trkpt>
      <trkpt lat="43.7643" lon="7.03783">
        <ele>961.5</ele>
        <time>2019-12-12T13:08:47Z</time>
      </trkpt>
      <trkpt lat="43.7643" lon="7.03787">
        <ele>961.5</ele>
        <time>2019-12-12T13:08:49Z</time>
      </trkpt>
      <trkpt lat="43.7643" lon="7.03792">
        <ele>962.4</ele>
        <time>2019-12-12T13:08:51Z</time>
      </trkpt>
      <trkpt lat="43.7643" lon="7.03796">
        <ele>962.9</ele>
        <time>2019-12-12T13:08:53Z</time>
      </trkpt>
      <trkpt lat="43.7643" lon="7.03801">
        <ele>963.4</ele>
        <time>2019-12-12T13:08:55Z</time>
      </trkpt>
      <trkpt lat="43.76429" lon="7.03805">
        <ele>963.9</ele>
        <time>2019-12-12T13:08:57Z</time>
      </trkpt>
      <trkpt lat="43.76429" lon="7.0381">
        <ele>964.3</ele>
        <time>2019-12-12T13:08:59Z</time>
      </trkpt>
      <trkpt lat="43.7643" lon="7.03814">
        <ele>965.3</ele>
        <time>2019-12-12T13:09:01Z</time>
      </trkpt>
      <trkpt lat="43.7643" lon="7.03818">
        <ele>965.8</ele>
        <time>2019-12-12T13:09:03Z</time>
      </trkpt>
      <trkpt lat="43.7643" lon="7.03822">
        <ele>965.8</ele>
        <time>2019-12-12T13:09:05Z</time>
      </trkpt>
      <trkpt lat="43.7643" lon="7.03826">
        <ele>966.3</ele>
        <time>2019-12-12T13:09:07Z</time>
      </trkpt>
      <trkpt lat="43.76432" lon="7.03829">
        <ele>966.3</ele>
        <time>2019-12-12T13:09:09Z</time>
      </trkpt>
      <trkpt lat="43.76433" lon="7.03832">
        <ele>966.7</ele>
        <time>2019-12-12T13:09:11Z</time>
      </trkpt>
      <trkpt lat="43.76434" lon="7.03836">
        <ele>966.3</ele>
        <time>2019-12-12T13:09:13Z</time>
      </trkpt>
      <trkpt lat="43.76434" lon="7.0384">
        <ele>966.3</ele>
        <time>2019-12-12T13:09:15Z</time>
      </trkpt>
      <trkpt lat="43.76432" lon="7.03841">
        <ele>966.7</ele>
        <time>2019-12-12T13:09:17Z</time>
      </trkpt>
      <trkpt lat="43.76428" lon="7.03842">
        <ele>966.7</ele>
        <time>2019-12-12T13:09:19Z</time>
      </trkpt>
      <trkpt lat="43.76424" lon="7.03842">
        <ele>967.2</ele>
        <time>2019-12-12T13:09:21Z</time>
      </trkpt>
      <trkpt lat="43.7642" lon="7.03842">
        <ele>967.7</ele>
        <time>2019-12-12T13:09:23Z</time>
      </trkpt>
      <trkpt lat="43.76415" lon="7.03843">
        <ele>968.2</ele>
        <time>2019-12-12T13:09:25Z</time>
      </trkpt>
      <trkpt lat="43.76409" lon="7.03844">
        <ele>969.1</ele>
        <time>2019-12-12T13:09:27Z</time>
      </trkpt>
      <trkpt lat="43.76404" lon="7.03844">
        <ele>970.1</ele>
        <time>2019-12-12T13:09:29Z</time>
      </trkpt>
      <trkpt lat="43.764" lon="7.03845">
        <ele>970.6</ele>
        <time>2019-12-12T13:09:31Z</time>
      </trkpt>
      <trkpt lat="43.76396" lon="7.03847">
        <ele>971.5</ele>
        <time>2019-12-12T13:09:33Z</time>
      </trkpt>
      <trkpt lat="43.76392" lon="7.0385">
        <ele>972</ele>
        <time>2019-12-12T13:09:35Z</time>
      </trkpt>
      <trkpt lat="43.76387" lon="7.03854">
        <ele>972</ele>
        <time>2019-12-12T13:09:37Z</time>
      </trkpt>
      <trkpt lat="43.76384" lon="7.03857">
        <ele>972</ele>
        <time>2019-12-12T13:09:39Z</time>
      </trkpt>
      <trkpt lat="43.76382" lon="7.03862">
        <ele>972.5</ele>
        <time>2019-12-12T13:09:41Z</time>
      </trkpt>
      <trkpt lat="43.7638" lon="7.03865">
        <ele>973</ele>
        <time>2019-12-12T13:09:43Z</time>
      </trkpt>
      <trkpt lat="43.76377" lon="7.03869">
        <ele>972.5</ele>
        <time>2019-12-12T13:09:45Z</time>
      </trkpt>
      <trkpt lat="43.76374" lon="7.03872">
        <ele>972.5</ele>
        <time>2019-12-12T13:09:47Z</time>
      </trkpt>
      <trkpt lat="43.7637" lon="7.03876">
        <ele>972.5</ele>
        <time>2019-12-12T13:09:49Z</time>
      </trkpt>
      <trkpt lat="43.76369" lon="7.0388">
        <ele>972.5</ele>
        <time>2019-12-12T13:09:51Z</time>
      </trkpt>
      <trkpt lat="43.76368" lon="7.03885">
        <ele>972.5</ele>
        <time>2019-12-12T13:09:53Z</time>
      </trkpt>
      <trkpt lat="43.76367" lon="7.0389">
        <ele>972</ele>
        <time>2019-12-12T13:09:55Z</time>
      </trkpt>
      <trkpt lat="43.76367" lon="7.03896">
        <ele>972</ele>
        <time>2019-12-12T13:09:57Z</time>
      </trkpt>
      <trkpt lat="43.76367" lon="7.03899">
        <ele>972</ele>
        <time>2019-12-12T13:09:59Z</time>
      </trkpt>
      <trkpt lat="43.76367" lon="7.03901">
        <ele>971.5</ele>
        <time>2019-12-12T13:10:01Z</time>
      </trkpt>
      <trkpt lat="43.76367" lon="7.03901">
        <ele>972</ele>
        <time>2019-12-12T13:10:03Z</time>
      </trkpt>
      <trkpt lat="43.76367" lon="7.03901">
        <ele>972</ele>
        <time>2019-12-12T13:10:05Z</time>
      </trkpt>
      <trkpt lat="43.76367" lon="7.03902">
        <ele>972</ele>
        <time>2019-12-12T13:10:07Z</time>
      </trkpt>
      <trkpt lat="43.76367" lon="7.03902">
        <ele>972</ele>
        <time>2019-12-12T13:10:09Z</time>
      </trkpt>
      <trkpt lat="43.76367" lon="7.03902">
        <ele>972</ele>
        <time>2019-12-12T13:10:11Z</time>
      </trkpt>
      <trkpt lat="43.76367" lon="7.03902">
        <ele>972</ele>
        <time>2019-12-12T13:10:13Z</time>
      </trkpt>
      <trkpt lat="43.76367" lon="7.03902">
        <ele>972</ele>
        <time>2019-12-12T13:10:15Z</time>
      </trkpt>
      <trkpt lat="43.76367" lon="7.03902">
        <ele>972</ele>
        <time>2019-12-12T13:10:17Z</time>
      </trkpt>
      <trkpt lat="43.76367" lon="7.03902">
        <ele>972</ele>
        <time>2019-12-12T13:10:19Z</time>
      </trkpt>
      <trkpt lat="43.76367" lon="7.03902">
        <ele>972</ele>
        <time>2019-12-12T13:10:21Z</time>
      </trkpt>
      <trkpt lat="43.76367" lon="7.03902">
        <ele>972</ele>
        <time>2019-12-12T13:10:23Z</time>
      </trkpt>
      <trkpt lat="43.76367" lon="7.03902">
        <ele>972</ele>
        <time>2019-12-12T13:10:25Z</time>
      </trkpt>
      <trkpt lat="43.76367" lon="7.03902">
        <ele>972</ele>
        <time>2019-12-12T13:10:27Z</time>
      </trkpt>
      <trkpt lat="43.76367" lon="7.03902">
        <ele>972</ele>
        <time>2019-12-12T13:10:29Z</time>
      </trkpt>
      <trkpt lat="43.76367" lon="7.03902">
        <ele>972</ele>
        <time>2019-12-12T13:10:31Z</time>
      </trkpt>
      <trkpt lat="43.76367" lon="7.03902">
        <ele>972</ele>
        <time>2019-12-12T13:10:33Z</time>
      </trkpt>
      <trkpt lat="43.76367" lon="7.03902">
        <ele>972</ele>
        <time>2019-12-12T13:10:35Z</time>
      </trkpt>
      <trkpt lat="43.76367" lon="7.03902">
        <ele>972</ele>
        <time>2019-12-12T13:10:37Z</time>
      </trkpt>
      <trkpt lat="43.76367" lon="7.03902">
        <ele>972</ele>
        <time>2019-12-12T13:10:39Z</time>
      </trkpt>
      <trkpt lat="43.76367" lon="7.03902">
        <ele>972</ele>
        <time>2019-12-12T13:10:41Z</time>
      </trkpt>
      <trkpt lat="43.76367" lon="7.03902">
        <ele>972</ele>
        <time>2019-12-12T13:10:43Z</time>
      </trkpt>
      <trkpt lat="43.76367" lon="7.03902">
        <ele>972</ele>
        <time>2019-12-12T13:10:45Z</time>
      </trkpt>
      <trkpt lat="43.76367" lon="7.03902">
        <ele>972</ele>
        <time>2019-12-12T13:10:47Z</time>
      </trkpt>
      <trkpt lat="43.76367" lon="7.03902">
        <ele>972</ele>
        <time>2019-12-12T13:10:49Z</time>
      </trkpt>
      <trkpt lat="43.76367" lon="7.03902">
        <ele>972</ele>
        <time>2019-12-12T13:10:51Z</time>
      </trkpt>
      <trkpt lat="43.76367" lon="7.03902">
        <ele>972</ele>
        <time>2019-12-12T13:10:53Z</time>
      </trkpt>
      <trkpt lat="43.76367" lon="7.03902">
        <ele>972</ele>
        <time>2019-12-12T13:10:55Z</time>
      </trkpt>
      <trkpt lat="43.76367" lon="7.03902">
        <ele>972</ele>
        <time>2019-12-12T13:10:57Z</time>
      </trkpt>
      <trkpt lat="43.76367" lon="7.03902">
        <ele>972</ele>
        <time>2019-12-12T13:10:59Z</time>
      </trkpt>
      <trkpt lat="43.76367" lon="7.03902">
        <ele>972</ele>
        <time>2019-12-12T13:11:01Z</time>
      </trkpt>
      <trkpt lat="43.76367" lon="7.03902">
        <ele>972</ele>
        <time>2019-12-12T13:11:03Z</time>
      </trkpt>
      <trkpt lat="43.76367" lon="7.03902">
        <ele>972</ele>
        <time>2019-12-12T13:11:05Z</time>
      </trkpt>
      <trkpt lat="43.76367" lon="7.03903">
        <ele>972</ele>
        <time>2019-12-12T13:11:07Z</time>
      </trkpt>
      <trkpt lat="43.76367" lon="7.03903">
        <ele>972</ele>
        <time>2019-12-12T13:11:09Z</time>
      </trkpt>
      <trkpt lat="43.76367" lon="7.03903">
        <ele>972</ele>
        <time>2019-12-12T13:11:11Z</time>
      </trkpt>
      <trkpt lat="43.76367" lon="7.03903">
        <ele>972</ele>
        <time>2019-12-12T13:11:13Z</time>
      </trkpt>
      <trkpt lat="43.76367" lon="7.03903">
        <ele>972</ele>
        <time>2019-12-12T13:11:15Z</time>
      </trkpt>
      <trkpt lat="43.76367" lon="7.03903">
        <ele>972</ele>
        <time>2019-12-12T13:11:17Z</time>
      </trkpt>
      <trkpt lat="43.76367" lon="7.03903">
        <ele>972</ele>
        <time>2019-12-12T13:11:19Z</time>
      </trkpt>
      <trkpt lat="43.76367" lon="7.03903">
        <ele>972</ele>
        <time>2019-12-12T13:11:21Z</time>
      </trkpt>
      <trkpt lat="43.76367" lon="7.03903">
        <ele>972</ele>
        <time>2019-12-12T13:11:23Z</time>
      </trkpt>
      <trkpt lat="43.76367" lon="7.03903">
        <ele>972</ele>
        <time>2019-12-12T13:11:25Z</time>
      </trkpt>
      <trkpt lat="43.76367" lon="7.03903">
        <ele>972</ele>
        <time>2019-12-12T13:11:27Z</time>
      </trkpt>
      <trkpt lat="43.76367" lon="7.03903">
        <ele>972</ele>
        <time>2019-12-12T13:11:29Z</time>
      </trkpt>
      <trkpt lat="43.76367" lon="7.03903">
        <ele>972</ele>
        <time>2019-12-12T13:11:31Z</time>
      </trkpt>
      <trkpt lat="43.76367" lon="7.03903">
        <ele>972</ele>
        <time>2019-12-12T13:11:33Z</time>
      </trkpt>
      <trkpt lat="43.76367" lon="7.03903">
        <ele>972</ele>
        <time>2019-12-12T13:11:35Z</time>
      </trkpt>
      <trkpt lat="43.76367" lon="7.03903">
        <ele>972</ele>
        <time>2019-12-12T13:11:37Z</time>
      </trkpt>
      <trkpt lat="43.76367" lon="7.03903">
        <ele>972</ele>
        <time>2019-12-12T13:11:39Z</time>
      </trkpt>
      <trkpt lat="43.76367" lon="7.03903">
        <ele>972</ele>
        <time>2019-12-12T13:11:41Z</time>
      </trkpt>
      <trkpt lat="43.76367" lon="7.03903">
        <ele>972</ele>
        <time>2019-12-12T13:11:43Z</time>
      </trkpt>
      <trkpt lat="43.76367" lon="7.03903">
        <ele>972</ele>
        <time>2019-12-12T13:11:45Z</time>
      </trkpt>
      <trkpt lat="43.76368" lon="7.03903">
        <ele>972</ele>
        <time>2019-12-12T13:11:47Z</time>
      </trkpt>
      <trkpt lat="43.76368" lon="7.03904">
        <ele>972</ele>
        <time>2019-12-12T13:11:49Z</time>
      </trkpt>
      <trkpt lat="43.76368" lon="7.03904">
        <ele>972</ele>
        <time>2019-12-12T13:11:51Z</time>
      </trkpt>
      <trkpt lat="43.76368" lon="7.03904">
        <ele>972</ele>
        <time>2019-12-12T13:11:53Z</time>
      </trkpt>
      <trkpt lat="43.76368" lon="7.03904">
        <ele>972</ele>
        <time>2019-12-12T13:11:55Z</time>
      </trkpt>
      <trkpt lat="43.76368" lon="7.03904">
        <ele>972</ele>
        <time>2019-12-12T13:11:57Z</time>
      </trkpt>
      <trkpt lat="43.76368" lon="7.03904">
        <ele>972</ele>
        <time>2019-12-12T13:11:59Z</time>
      </trkpt>
      <trkpt lat="43.76368" lon="7.03904">
        <ele>972</ele>
        <time>2019-12-12T13:12:01Z</time>
      </trkpt>
      <trkpt lat="43.76368" lon="7.03904">
        <ele>972</ele>
        <time>2019-12-12T13:12:03Z</time>
      </trkpt>
      <trkpt lat="43.76368" lon="7.03904">
        <ele>972</ele>
        <time>2019-12-12T13:12:05Z</time>
      </trkpt>
      <trkpt lat="43.76368" lon="7.03904">
        <ele>972</ele>
        <time>2019-12-12T13:12:07Z</time>
      </trkpt>
      <trkpt lat="43.76368" lon="7.03904">
        <ele>972</ele>
        <time>2019-12-12T13:12:09Z</time>
      </trkpt>
      <trkpt lat="43.76368" lon="7.03904">
        <ele>972</ele>
        <time>2019-12-12T13:12:11Z</time>
      </trkpt>
      <trkpt lat="43.76368" lon="7.03904">
        <ele>972</ele>
        <time>2019-12-12T13:12:13Z</time>
      </trkpt>
      <trkpt lat="43.76368" lon="7.03904">
        <ele>972</ele>
        <time>2019-12-12T13:12:15Z</time>
      </trkpt>
      <trkpt lat="43.76368" lon="7.03904">
        <ele>972</ele>
        <time>2019-12-12T13:12:17Z</time>
      </trkpt>
      <trkpt lat="43.76368" lon="7.03904">
        <ele>972</ele>
        <time>2019-12-12T13:12:19Z</time>
      </trkpt>
      <trkpt lat="43.76368" lon="7.03904">
        <ele>972</ele>
        <time>2019-12-12T13:12:21Z</time>
      </trkpt>
      <trkpt lat="43.76368" lon="7.03904">
        <ele>972</ele>
        <time>2019-12-12T13:12:23Z</time>
      </trkpt>
      <trkpt lat="43.76368" lon="7.03904">
        <ele>972</ele>
        <time>2019-12-12T13:12:25Z</time>
      </trkpt>
      <trkpt lat="43.76368" lon="7.03904">
        <ele>972</ele>
        <time>2019-12-12T13:12:27Z</time>
      </trkpt>
      <trkpt lat="43.76368" lon="7.03904">
        <ele>972</ele>
        <time>2019-12-12T13:12:29Z</time>
      </trkpt>
      <trkpt lat="43.76368" lon="7.03904">
        <ele>972</ele>
        <time>2019-12-12T13:12:31Z</time>
      </trkpt>
      <trkpt lat="43.76368" lon="7.03904">
        <ele>972</ele>
        <time>2019-12-12T13:12:33Z</time>
      </trkpt>
      <trkpt lat="43.76368" lon="7.03904">
        <ele>972</ele>
        <time>2019-12-12T13:12:35Z</time>
      </trkpt>
      <trkpt lat="43.76368" lon="7.03904">
        <ele>972</ele>
        <time>2019-12-12T13:12:37Z</time>
      </trkpt>
      <trkpt lat="43.76368" lon="7.03904">
        <ele>972</ele>
        <time>2019-12-12T13:12:39Z</time>
      </trkpt>
      <trkpt lat="43.76368" lon="7.03904">
        <ele>972</ele>
        <time>2019-12-12T13:12:41Z</time>
      </trkpt>
      <trkpt lat="43.76368" lon="7.03904">
        <ele>972</ele>
        <time>2019-12-12T13:12:43Z</time>
      </trkpt>
      <trkpt lat="43.76368" lon="7.03904">
        <ele>972</ele>
        <time>2019-12-12T13:12:45Z</time>
      </trkpt>
      <trkpt lat="43.76368" lon="7.03904">
        <ele>972</ele>
        <time>2019-12-12T13:12:47Z</time>
      </trkpt>
      <trkpt lat="43.76368" lon="7.03904">
        <ele>972</ele>
        <time>2019-12-12T13:12:49Z</time>
      </trkpt>
      <trkpt lat="43.76368" lon="7.03904">
        <ele>972</ele>
        <time>2019-12-12T13:12:51Z</time>
      </trkpt>
      <trkpt lat="43.76368" lon="7.03904">
        <ele>972</ele>
        <time>2019-12-12T13:12:53Z</time>
      </trkpt>
      <trkpt lat="43.76368" lon="7.03904">
        <ele>972</ele>
        <time>2019-12-12T13:12:55Z</time>
      </trkpt>
      <trkpt lat="43.76368" lon="7.03904">
        <ele>972</ele>
        <time>2019-12-12T13:12:57Z</time>
      </trkpt>
      <trkpt lat="43.76368" lon="7.03904">
        <ele>972</ele>
        <time>2019-12-12T13:12:59Z</time>
      </trkpt>
      <trkpt lat="43.76368" lon="7.03904">
        <ele>972</ele>
        <time>2019-12-12T13:13:01Z</time>
      </trkpt>
      <trkpt lat="43.76368" lon="7.03904">
        <ele>972</ele>
        <time>2019-12-12T13:13:03Z</time>
      </trkpt>
      <trkpt lat="43.76368" lon="7.03904">
        <ele>972</ele>
        <time>2019-12-12T13:13:05Z</time>
      </trkpt>
      <trkpt lat="43.76368" lon="7.03904">
        <ele>972</ele>
        <time>2019-12-12T13:13:07Z</time>
      </trkpt>
      <trkpt lat="43.76368" lon="7.03904">
        <ele>972</ele>
        <time>2019-12-12T13:13:09Z</time>
      </trkpt>
      <trkpt lat="43.76368" lon="7.03904">
        <ele>972</ele>
        <time>2019-12-12T13:13:11Z</time>
      </trkpt>
      <trkpt lat="43.76368" lon="7.03904">
        <ele>972</ele>
        <time>2019-12-12T13:13:13Z</time>
      </trkpt>
      <trkpt lat="43.76368" lon="7.03904">
        <ele>972</ele>
        <time>2019-12-12T13:13:15Z</time>
      </trkpt>
      <trkpt lat="43.76368" lon="7.03904">
        <ele>972</ele>
        <time>2019-12-12T13:13:17Z</time>
      </trkpt>
      <trkpt lat="43.76368" lon="7.03904">
        <ele>972</ele>
        <time>2019-12-12T13:13:19Z</time>
      </trkpt>
      <trkpt lat="43.76368" lon="7.03904">
        <ele>972</ele>
        <time>2019-12-12T13:13:21Z</time>
      </trkpt>
      <trkpt lat="43.76368" lon="7.03904">
        <ele>972</ele>
        <time>2019-12-12T13:13:23Z</time>
      </trkpt>
      <trkpt lat="43.76368" lon="7.03904">
        <ele>972</ele>
        <time>2019-12-12T13:13:25Z</time>
      </trkpt>
      <trkpt lat="43.76368" lon="7.03904">
        <ele>972</ele>
        <time>2019-12-12T13:13:27Z</time>
      </trkpt>
      <trkpt lat="43.76368" lon="7.03904">
        <ele>972</ele>
        <time>2019-12-12T13:13:29Z</time>
      </trkpt>
      <trkpt lat="43.76368" lon="7.03904">
        <ele>972</ele>
        <time>2019-12-12T13:13:31Z</time>
      </trkpt>
      <trkpt lat="43.76368" lon="7.03904">
        <ele>972</ele>
        <time>2019-12-12T13:13:33Z</time>
      </trkpt>
      <trkpt lat="43.76368" lon="7.03904">
        <ele>972</ele>
        <time>2019-12-12T13:13:35Z</time>
      </trkpt>
      <trkpt lat="43.76368" lon="7.03904">
        <ele>972</ele>
        <time>2019-12-12T13:13:37Z</time>
      </trkpt>
      <trkpt lat="43.76368" lon="7.03904">
        <ele>972</ele>
        <time>2019-12-12T13:13:39Z</time>
      </trkpt>
      <trkpt lat="43.76368" lon="7.03904">
        <ele>972</ele>
        <time>2019-12-12T13:13:41Z</time>
      </trkpt>
      <trkpt lat="43.76368" lon="7.03904">
        <ele>972</ele>
        <time>2019-12-12T13:13:43Z</time>
      </trkpt>
      <trkpt lat="43.76368" lon="7.03904">
        <ele>972</ele>
        <time>2019-12-12T13:13:45Z</time>
      </trkpt>
      <trkpt lat="43.76368" lon="7.03904">
        <ele>972</ele>
        <time>2019-12-12T13:13:47Z</time>
      </trkpt>
      <trkpt lat="43.76367" lon="7.03904">
        <ele>972</ele>
        <time>2019-12-12T13:13:49Z</time>
      </trkpt>
      <trkpt lat="43.76367" lon="7.03904">
        <ele>972</ele>
        <time>2019-12-12T13:13:51Z</time>
      </trkpt>
      <trkpt lat="43.76367" lon="7.03903">
        <ele>972</ele>
        <time>2019-12-12T13:13:53Z</time>
      </trkpt>
      <trkpt lat="43.76366" lon="7.03902">
        <ele>971.5</ele>
        <time>2019-12-12T13:13:55Z</time>
      </trkpt>
      <trkpt lat="43.76365" lon="7.039">
        <ele>971.5</ele>
        <time>2019-12-12T13:13:57Z</time>
      </trkpt>
      <trkpt lat="43.76364" lon="7.03898">
        <ele>971.1</ele>
        <time>2019-12-12T13:13:59Z</time>
      </trkpt>
      <trkpt lat="43.76363" lon="7.03897">
        <ele>971.1</ele>
        <time>2019-12-12T13:14:01Z</time>
      </trkpt>
      <trkpt lat="43.76363" lon="7.03897">
        <ele>970.6</ele>
        <time>2019-12-12T13:14:03Z</time>
      </trkpt>
      <trkpt lat="43.76362" lon="7.03898">
        <ele>970.6</ele>
        <time>2019-12-12T13:14:05Z</time>
      </trkpt>
      <trkpt lat="43.76361" lon="7.03898">
        <ele>970.1</ele>
        <time>2019-12-12T13:14:07Z</time>
      </trkpt>
      <trkpt lat="43.76361" lon="7.03899">
        <ele>969.6</ele>
        <time>2019-12-12T13:14:09Z</time>
      </trkpt>
      <trkpt lat="43.76359" lon="7.03903">
        <ele>969.6</ele>
        <time>2019-12-12T13:14:11Z</time>
      </trkpt>
      <trkpt lat="43.76356" lon="7.03909">
        <ele>969.6</ele>
        <time>2019-12-12T13:14:13Z</time>
      </trkpt>
      <trkpt lat="43.76354" lon="7.03916">
        <ele>969.1</ele>
        <time>2019-12-12T13:14:15Z</time>
      </trkpt>
      <trkpt lat="43.76351" lon="7.03921">
        <ele>969.1</ele>
        <time>2019-12-12T13:14:17Z</time>
      </trkpt>
      <trkpt lat="43.76348" lon="7.03926">
        <ele>969.1</ele>
        <time>2019-12-12T13:14:19Z</time>
      </trkpt>
      <trkpt lat="43.76344" lon="7.03931">
        <ele>968.7</ele>
        <time>2019-12-12T13:14:21Z</time>
      </trkpt>
      <trkpt lat="43.76339" lon="7.03936">
        <ele>968.7</ele>
        <time>2019-12-12T13:14:23Z</time>
      </trkpt>
      <trkpt lat="43.76334" lon="7.03941">
        <ele>968.2</ele>
        <time>2019-12-12T13:14:25Z</time>
      </trkpt>
      <trkpt lat="43.76329" lon="7.03946">
        <ele>968.2</ele>
        <time>2019-12-12T13:14:27Z</time>
      </trkpt>
      <trkpt lat="43.76325" lon="7.03949">
        <ele>967.7</ele>
        <time>2019-12-12T13:14:29Z</time>
      </trkpt>
      <trkpt lat="43.76321" lon="7.03954">
        <ele>967.2</ele>
        <time>2019-12-12T13:14:31Z</time>
      </trkpt>
      <trkpt lat="43.76317" lon="7.0396">
        <ele>966.7</ele>
        <time>2019-12-12T13:14:33Z</time>
      </trkpt>
      <trkpt lat="43.76312" lon="7.03965">
        <ele>966.3</ele>
        <time>2019-12-12T13:14:35Z</time>
      </trkpt>
      <trkpt lat="43.76306" lon="7.0397">
        <ele>966.3</ele>
        <time>2019-12-12T13:14:37Z</time>
      </trkpt>
      <trkpt lat="43.76301" lon="7.03975">
        <ele>965.8</ele>
        <time>2019-12-12T13:14:39Z</time>
      </trkpt>
      <trkpt lat="43.76295" lon="7.03982">
        <ele>965.8</ele>
        <time>2019-12-12T13:14:41Z</time>
      </trkpt>
      <trkpt lat="43.76289" lon="7.03987">
        <ele>965.8</ele>
        <time>2019-12-12T13:14:43Z</time>
      </trkpt>
      <trkpt lat="43.76281" lon="7.03993">
        <ele>965.3</ele>
        <time>2019-12-12T13:14:45Z</time>
      </trkpt>
      <trkpt lat="43.76274" lon="7.03997">
        <ele>965.3</ele>
        <time>2019-12-12T13:14:47Z</time>
      </trkpt>
      <trkpt lat="43.76268" lon="7.04003">
        <ele>964.8</ele>
        <time>2019-12-12T13:14:49Z</time>
      </trkpt>
      <trkpt lat="43.76262" lon="7.04008">
        <ele>964.3</ele>
        <time>2019-12-12T13:14:51Z</time>
      </trkpt>
      <trkpt lat="43.76256" lon="7.04011">
        <ele>964.3</ele>
        <time>2019-12-12T13:14:53Z</time>
      </trkpt>
      <trkpt lat="43.7625" lon="7.04014">
        <ele>964.3</ele>
        <time>2019-12-12T13:14:55Z</time>
      </trkpt>
      <trkpt lat="43.76243" lon="7.04017">
        <ele>964.3</ele>
        <time>2019-12-12T13:14:57Z</time>
      </trkpt>
      <trkpt lat="43.76236" lon="7.04021">
        <ele>964.3</ele>
        <time>2019-12-12T13:14:59Z</time>
      </trkpt>
      <trkpt lat="43.76229" lon="7.04025">
        <ele>964.3</ele>
        <time>2019-12-12T13:15:01Z</time>
      </trkpt>
      <trkpt lat="43.76222" lon="7.04029">
        <ele>963.9</ele>
        <time>2019-12-12T13:15:03Z</time>
      </trkpt>
      <trkpt lat="43.76216" lon="7.04036">
        <ele>964.3</ele>
        <time>2019-12-12T13:15:05Z</time>
      </trkpt>
      <trkpt lat="43.76211" lon="7.04044">
        <ele>964.8</ele>
        <time>2019-12-12T13:15:07Z</time>
      </trkpt>
      <trkpt lat="43.76206" lon="7.04052">
        <ele>964.8</ele>
        <time>2019-12-12T13:15:09Z</time>
      </trkpt>
      <trkpt lat="43.76202" lon="7.0406">
        <ele>965.3</ele>
        <time>2019-12-12T13:15:11Z</time>
      </trkpt>
      <trkpt lat="43.76197" lon="7.04068">
        <ele>964.8</ele>
        <time>2019-12-12T13:15:13Z</time>
      </trkpt>
      <trkpt lat="43.76192" lon="7.04077">
        <ele>964.8</ele>
        <time>2019-12-12T13:15:15Z</time>
      </trkpt>
      <trkpt lat="43.76187" lon="7.04085">
        <ele>964.3</ele>
        <time>2019-12-12T13:15:17Z</time>
      </trkpt>
      <trkpt lat="43.76181" lon="7.04092">
        <ele>964.8</ele>
        <time>2019-12-12T13:15:19Z</time>
      </trkpt>
      <trkpt lat="43.76175" lon="7.04098">
        <ele>964.8</ele>
        <time>2019-12-12T13:15:21Z</time>
      </trkpt>
      <trkpt lat="43.76168" lon="7.04105">
        <ele>965.3</ele>
        <time>2019-12-12T13:15:23Z</time>
      </trkpt>
      <trkpt lat="43.76162" lon="7.04112">
        <ele>965.3</ele>
        <time>2019-12-12T13:15:25Z</time>
      </trkpt>
      <trkpt lat="43.76155" lon="7.04119">
        <ele>965.8</ele>
        <time>2019-12-12T13:15:27Z</time>
      </trkpt>
      <trkpt lat="43.76148" lon="7.04126">
        <ele>966.3</ele>
        <time>2019-12-12T13:15:29Z</time>
      </trkpt>
      <trkpt lat="43.76141" lon="7.04133">
        <ele>966.7</ele>
        <time>2019-12-12T13:15:31Z</time>
      </trkpt>
      <trkpt lat="43.76135" lon="7.0414">
        <ele>966.7</ele>
        <time>2019-12-12T13:15:33Z</time>
      </trkpt>
      <trkpt lat="43.76129" lon="7.04147">
        <ele>967.7</ele>
        <time>2019-12-12T13:15:35Z</time>
      </trkpt>
      <trkpt lat="43.76122" lon="7.04153">
        <ele>968.7</ele>
        <time>2019-12-12T13:15:37Z</time>
      </trkpt>
      <trkpt lat="43.76114" lon="7.0416">
        <ele>969.6</ele>
        <time>2019-12-12T13:15:39Z</time>
      </trkpt>
      <trkpt lat="43.76106" lon="7.04167">
        <ele>970.6</ele>
        <time>2019-12-12T13:15:41Z</time>
      </trkpt>
      <trkpt lat="43.76099" lon="7.04175">
        <ele>972</ele>
        <time>2019-12-12T13:15:43Z</time>
      </trkpt>
      <trkpt lat="43.76091" lon="7.04182">
        <ele>973.5</ele>
        <time>2019-12-12T13:15:45Z</time>
      </trkpt>
      <trkpt lat="43.76081" lon="7.04192">
        <ele>974.4</ele>
        <time>2019-12-12T13:15:47Z</time>
      </trkpt>
      <trkpt lat="43.76073" lon="7.042">
        <ele>975.9</ele>
        <time>2019-12-12T13:15:49Z</time>
      </trkpt>
      <trkpt lat="43.76066" lon="7.04207">
        <ele>976.8</ele>
        <time>2019-12-12T13:15:51Z</time>
      </trkpt>
      <trkpt lat="43.76059" lon="7.04216">
        <ele>977.3</ele>
        <time>2019-12-12T13:15:53Z</time>
      </trkpt>
      <trkpt lat="43.76052" lon="7.04224">
        <ele>978.3</ele>
        <time>2019-12-12T13:15:55Z</time>
      </trkpt>
      <trkpt lat="43.76045" lon="7.04232">
        <ele>979.2</ele>
        <time>2019-12-12T13:15:57Z</time>
      </trkpt>
      <trkpt lat="43.76037" lon="7.04241">
        <ele>979.7</ele>
        <time>2019-12-12T13:15:59Z</time>
      </trkpt>
      <trkpt lat="43.7603" lon="7.0425">
        <ele>980.2</ele>
        <time>2019-12-12T13:16:01Z</time>
      </trkpt>
      <trkpt lat="43.76023" lon="7.04258">
        <ele>981.6</ele>
        <time>2019-12-12T13:16:03Z</time>
      </trkpt>
      <trkpt lat="43.76016" lon="7.04266">
        <ele>982.1</ele>
        <time>2019-12-12T13:16:05Z</time>
      </trkpt>
      <trkpt lat="43.7601" lon="7.04274">
        <ele>983.1</ele>
        <time>2019-12-12T13:16:07Z</time>
      </trkpt>
      <trkpt lat="43.76005" lon="7.04283">
        <ele>983.6</ele>
        <time>2019-12-12T13:16:09Z</time>
      </trkpt>
      <trkpt lat="43.76" lon="7.04292">
        <ele>982.1</ele>
        <time>2019-12-12T13:16:11Z</time>
      </trkpt>
      <trkpt lat="43.75994" lon="7.04301">
        <ele>981.2</ele>
        <time>2019-12-12T13:16:13Z</time>
      </trkpt>
      <trkpt lat="43.75988" lon="7.04309">
        <ele>981.2</ele>
        <time>2019-12-12T13:16:15Z</time>
      </trkpt>
      <trkpt lat="43.75983" lon="7.04317">
        <ele>981.2</ele>
        <time>2019-12-12T13:16:17Z</time>
      </trkpt>
      <trkpt lat="43.75976" lon="7.04324">
        <ele>980.7</ele>
        <time>2019-12-12T13:16:19Z</time>
      </trkpt>
      <trkpt lat="43.7597" lon="7.04331">
        <ele>981.2</ele>
        <time>2019-12-12T13:16:21Z</time>
      </trkpt>
      <trkpt lat="43.75963" lon="7.04336">
        <ele>982.1</ele>
        <time>2019-12-12T13:16:23Z</time>
      </trkpt>
      <trkpt lat="43.75956" lon="7.04339">
        <ele>982.6</ele>
        <time>2019-12-12T13:16:25Z</time>
      </trkpt>
      <trkpt lat="43.75948" lon="7.04342">
        <ele>983.1</ele>
        <time>2019-12-12T13:16:27Z</time>
      </trkpt>
      <trkpt lat="43.75941" lon="7.04343">
        <ele>983.6</ele>
        <time>2019-12-12T13:16:29Z</time>
      </trkpt>
      <trkpt lat="43.75935" lon="7.04344">
        <ele>984</ele>
        <time>2019-12-12T13:16:31Z</time>
      </trkpt>
      <trkpt lat="43.75928" lon="7.04346">
        <ele>984.5</ele>
        <time>2019-12-12T13:16:33Z</time>
      </trkpt>
      <trkpt lat="43.75921" lon="7.04349">
        <ele>985</ele>
        <time>2019-12-12T13:16:35Z</time>
      </trkpt>
      <trkpt lat="43.75913" lon="7.04351">
        <ele>985</ele>
        <time>2019-12-12T13:16:37Z</time>
      </trkpt>
      <trkpt lat="43.75905" lon="7.04354">
        <ele>984.5</ele>
        <time>2019-12-12T13:16:39Z</time>
      </trkpt>
      <trkpt lat="43.75897" lon="7.04356">
        <ele>983.6</ele>
        <time>2019-12-12T13:16:41Z</time>
      </trkpt>
      <trkpt lat="43.7589" lon="7.0436">
        <ele>983.6</ele>
        <time>2019-12-12T13:16:43Z</time>
      </trkpt>
      <trkpt lat="43.75882" lon="7.04362">
        <ele>983.1</ele>
        <time>2019-12-12T13:16:45Z</time>
      </trkpt>
      <trkpt lat="43.75873" lon="7.04366">
        <ele>983.1</ele>
        <time>2019-12-12T13:16:47Z</time>
      </trkpt>
      <trkpt lat="43.75864" lon="7.0437">
        <ele>983.1</ele>
        <time>2019-12-12T13:16:49Z</time>
      </trkpt>
      <trkpt lat="43.75856" lon="7.04375">
        <ele>983.1</ele>
        <time>2019-12-12T13:16:51Z</time>
      </trkpt>
      <trkpt lat="43.75848" lon="7.04381">
        <ele>982.1</ele>
        <time>2019-12-12T13:16:53Z</time>
      </trkpt>
      <trkpt lat="43.75838" lon="7.04389">
        <ele>982.1</ele>
        <time>2019-12-12T13:16:55Z</time>
      </trkpt>
      <trkpt lat="43.75829" lon="7.04397">
        <ele>982.6</ele>
        <time>2019-12-12T13:16:57Z</time>
      </trkpt>
      <trkpt lat="43.75822" lon="7.04405">
        <ele>983.6</ele>
        <time>2019-12-12T13:16:59Z</time>
      </trkpt>
      <trkpt lat="43.75815" lon="7.04415">
        <ele>983.6</ele>
        <time>2019-12-12T13:17:01Z</time>
      </trkpt>
      <trkpt lat="43.75809" lon="7.04425">
        <ele>983.6</ele>
        <time>2019-12-12T13:17:03Z</time>
      </trkpt>
      <trkpt lat="43.75803" lon="7.04436">
        <ele>982.6</ele>
        <time>2019-12-12T13:17:05Z</time>
      </trkpt>
      <trkpt lat="43.75797" lon="7.04443">
        <ele>982.6</ele>
        <time>2019-12-12T13:17:07Z</time>
      </trkpt>
      <trkpt lat="43.75792" lon="7.04451">
        <ele>982.1</ele>
        <time>2019-12-12T13:17:09Z</time>
      </trkpt>
      <trkpt lat="43.75785" lon="7.0446">
        <ele>982.1</ele>
        <time>2019-12-12T13:17:11Z</time>
      </trkpt>
      <trkpt lat="43.75779" lon="7.04468">
        <ele>982.1</ele>
        <time>2019-12-12T13:17:13Z</time>
      </trkpt>
      <trkpt lat="43.75774" lon="7.04476">
        <ele>982.1</ele>
        <time>2019-12-12T13:17:15Z</time>
      </trkpt>
      <trkpt lat="43.75769" lon="7.04486">
        <ele>980.2</ele>
        <time>2019-12-12T13:17:17Z</time>
      </trkpt>
      <trkpt lat="43.75763" lon="7.04496">
        <ele>979.2</ele>
        <time>2019-12-12T13:17:19Z</time>
      </trkpt>
      <trkpt lat="43.75758" lon="7.04504">
        <ele>976.8</ele>
        <time>2019-12-12T13:17:21Z</time>
      </trkpt>
      <trkpt lat="43.75755" lon="7.04515">
        <ele>973.5</ele>
        <time>2019-12-12T13:17:23Z</time>
      </trkpt>
      <trkpt lat="43.75753" lon="7.04528">
        <ele>971.5</ele>
        <time>2019-12-12T13:17:25Z</time>
      </trkpt>
      <trkpt lat="43.75752" lon="7.0454">
        <ele>969.6</ele>
        <time>2019-12-12T13:17:27Z</time>
      </trkpt>
      <trkpt lat="43.75753" lon="7.04552">
        <ele>968.7</ele>
        <time>2019-12-12T13:17:29Z</time>
      </trkpt>
      <trkpt lat="43.75754" lon="7.04565">
        <ele>968.2</ele>
        <time>2019-12-12T13:17:31Z</time>
      </trkpt>
      <trkpt lat="43.75757" lon="7.04578">
        <ele>967.2</ele>
        <time>2019-12-12T13:17:33Z</time>
      </trkpt>
      <trkpt lat="43.75761" lon="7.0459">
        <ele>966.7</ele>
        <time>2019-12-12T13:17:35Z</time>
      </trkpt>
      <trkpt lat="43.75766" lon="7.04599">
        <ele>966.7</ele>
        <time>2019-12-12T13:17:37Z</time>
      </trkpt>
      <trkpt lat="43.75773" lon="7.04607">
        <ele>967.2</ele>
        <time>2019-12-12T13:17:39Z</time>
      </trkpt>
      <trkpt lat="43.75779" lon="7.04612">
        <ele>967.7</ele>
        <time>2019-12-12T13:17:41Z</time>
      </trkpt>
      <trkpt lat="43.75786" lon="7.04616">
        <ele>967.7</ele>
        <time>2019-12-12T13:17:43Z</time>
      </trkpt>
      <trkpt lat="43.75792" lon="7.04618">
        <ele>968.7</ele>
        <time>2019-12-12T13:17:45Z</time>
      </trkpt>
      <trkpt lat="43.758" lon="7.0462">
        <ele>968.7</ele>
        <time>2019-12-12T13:17:47Z</time>
      </trkpt>
      <trkpt lat="43.75807" lon="7.0462">
        <ele>969.1</ele>
        <time>2019-12-12T13:17:49Z</time>
      </trkpt>
      <trkpt lat="43.75815" lon="7.04622">
        <ele>968.7</ele>
        <time>2019-12-12T13:17:51Z</time>
      </trkpt>
      <trkpt lat="43.75823" lon="7.04626">
        <ele>968.7</ele>
        <time>2019-12-12T13:17:53Z</time>
      </trkpt>
      <trkpt lat="43.7583" lon="7.04635">
        <ele>968.2</ele>
        <time>2019-12-12T13:17:55Z</time>
      </trkpt>
      <trkpt lat="43.75834" lon="7.04646">
        <ele>967.2</ele>
        <time>2019-12-12T13:17:57Z</time>
      </trkpt>
      <trkpt lat="43.75837" lon="7.04657">
        <ele>966.7</ele>
        <time>2019-12-12T13:17:59Z</time>
      </trkpt>
      <trkpt lat="43.75841" lon="7.04667">
        <ele>966.7</ele>
        <time>2019-12-12T13:18:01Z</time>
      </trkpt>
      <trkpt lat="43.75844" lon="7.04679">
        <ele>965.8</ele>
        <time>2019-12-12T13:18:03Z</time>
      </trkpt>
      <trkpt lat="43.75846" lon="7.0469">
        <ele>965.8</ele>
        <time>2019-12-12T13:18:05Z</time>
      </trkpt>
      <trkpt lat="43.7585" lon="7.04701">
        <ele>965.8</ele>
        <time>2019-12-12T13:18:07Z</time>
      </trkpt>
      <trkpt lat="43.75857" lon="7.04711">
        <ele>966.3</ele>
        <time>2019-12-12T13:18:09Z</time>
      </trkpt>
      <trkpt lat="43.75865" lon="7.0472">
        <ele>966.7</ele>
        <time>2019-12-12T13:18:11Z</time>
      </trkpt>
      <trkpt lat="43.75874" lon="7.04728">
        <ele>966.7</ele>
        <time>2019-12-12T13:18:13Z</time>
      </trkpt>
      <trkpt lat="43.75884" lon="7.04737">
        <ele>967.2</ele>
        <time>2019-12-12T13:18:15Z</time>
      </trkpt>
      <trkpt lat="43.75894" lon="7.04746">
        <ele>966.3</ele>
        <time>2019-12-12T13:18:17Z</time>
      </trkpt>
      <trkpt lat="43.75903" lon="7.04756">
        <ele>965.8</ele>
        <time>2019-12-12T13:18:19Z</time>
      </trkpt>
      <trkpt lat="43.7591" lon="7.04768">
        <ele>965.3</ele>
        <time>2019-12-12T13:18:21Z</time>
      </trkpt>
      <trkpt lat="43.75914" lon="7.04782">
        <ele>965.3</ele>
        <time>2019-12-12T13:18:23Z</time>
      </trkpt>
      <trkpt lat="43.75919" lon="7.04794">
        <ele>964.8</ele>
        <time>2019-12-12T13:18:25Z</time>
      </trkpt>
      <trkpt lat="43.75924" lon="7.04808">
        <ele>964.3</ele>
        <time>2019-12-12T13:18:27Z</time>
      </trkpt>
      <trkpt lat="43.7593" lon="7.04822">
        <ele>964.3</ele>
        <time>2019-12-12T13:18:29Z</time>
      </trkpt>
      <trkpt lat="43.75937" lon="7.04834">
        <ele>964.3</ele>
        <time>2019-12-12T13:18:31Z</time>
      </trkpt>
      <trkpt lat="43.75942" lon="7.04848">
        <ele>963.9</ele>
        <time>2019-12-12T13:18:33Z</time>
      </trkpt>
      <trkpt lat="43.75948" lon="7.04862">
        <ele>963.9</ele>
        <time>2019-12-12T13:18:35Z</time>
      </trkpt>
      <trkpt lat="43.75957" lon="7.04875">
        <ele>963.9</ele>
        <time>2019-12-12T13:18:37Z</time>
      </trkpt>
      <trkpt lat="43.75966" lon="7.04885">
        <ele>964.3</ele>
        <time>2019-12-12T13:18:39Z</time>
      </trkpt>
      <trkpt lat="43.75974" lon="7.04898">
        <ele>964.3</ele>
        <time>2019-12-12T13:18:41Z</time>
      </trkpt>
      <trkpt lat="43.75982" lon="7.04913">
        <ele>965.3</ele>
        <time>2019-12-12T13:18:43Z</time>
      </trkpt>
      <trkpt lat="43.75988" lon="7.04929">
        <ele>964.8</ele>
        <time>2019-12-12T13:18:45Z</time>
      </trkpt>
      <trkpt lat="43.75995" lon="7.04943">
        <ele>964.8</ele>
        <time>2019-12-12T13:18:47Z</time>
      </trkpt>
      <trkpt lat="43.76002" lon="7.04956">
        <ele>965.3</ele>
        <time>2019-12-12T13:18:49Z</time>
      </trkpt>
      <trkpt lat="43.76006" lon="7.04968">
        <ele>965.3</ele>
        <time>2019-12-12T13:18:51Z</time>
      </trkpt>
      <trkpt lat="43.76005" lon="7.04981">
        <ele>965.8</ele>
        <time>2019-12-12T13:18:53Z</time>
      </trkpt>
      <trkpt lat="43.76" lon="7.04992">
        <ele>965.8</ele>
        <time>2019-12-12T13:18:55Z</time>
      </trkpt>
      <trkpt lat="43.75995" lon="7.05006">
        <ele>965.8</ele>
        <time>2019-12-12T13:18:57Z</time>
      </trkpt>
      <trkpt lat="43.75993" lon="7.05021">
        <ele>964.8</ele>
        <time>2019-12-12T13:18:59Z</time>
      </trkpt>
      <trkpt lat="43.75995" lon="7.05038">
        <ele>964.3</ele>
        <time>2019-12-12T13:19:01Z</time>
      </trkpt>
      <trkpt lat="43.75997" lon="7.05053">
        <ele>964.3</ele>
        <time>2019-12-12T13:19:03Z</time>
      </trkpt>
      <trkpt lat="43.76001" lon="7.05068">
        <ele>964.8</ele>
        <time>2019-12-12T13:19:05Z</time>
      </trkpt>
      <trkpt lat="43.76007" lon="7.05077">
        <ele>966.3</ele>
        <time>2019-12-12T13:19:07Z</time>
      </trkpt>
      <trkpt lat="43.76016" lon="7.05083">
        <ele>967.2</ele>
        <time>2019-12-12T13:19:09Z</time>
      </trkpt>
      <trkpt lat="43.76027" lon="7.05085">
        <ele>967.2</ele>
        <time>2019-12-12T13:19:11Z</time>
      </trkpt>
      <trkpt lat="43.76039" lon="7.05087">
        <ele>967.7</ele>
        <time>2019-12-12T13:19:13Z</time>
      </trkpt>
      <trkpt lat="43.76051" lon="7.05096">
        <ele>968.2</ele>
        <time>2019-12-12T13:19:15Z</time>
      </trkpt>
      <trkpt lat="43.7606" lon="7.05109">
        <ele>968.7</ele>
        <time>2019-12-12T13:19:17Z</time>
      </trkpt>
      <trkpt lat="43.76062" lon="7.05126">
        <ele>968.7</ele>
        <time>2019-12-12T13:19:19Z</time>
      </trkpt>
      <trkpt lat="43.76057" lon="7.05138">
        <ele>968.2</ele>
        <time>2019-12-12T13:19:21Z</time>
      </trkpt>
      <trkpt lat="43.7605" lon="7.05146">
        <ele>969.6</ele>
        <time>2019-12-12T13:19:23Z</time>
      </trkpt>
      <trkpt lat="43.76041" lon="7.05154">
        <ele>970.1</ele>
        <time>2019-12-12T13:19:25Z</time>
      </trkpt>
      <trkpt lat="43.76038" lon="7.05168">
        <ele>968.2</ele>
        <time>2019-12-12T13:19:27Z</time>
      </trkpt>
      <trkpt lat="43.76041" lon="7.05183">
        <ele>967.7</ele>
        <time>2019-12-12T13:19:29Z</time>
      </trkpt>
      <trkpt lat="43.76047" lon="7.05195">
        <ele>968.7</ele>
        <time>2019-12-12T13:19:31Z</time>
      </trkpt>
      <trkpt lat="43.76057" lon="7.05198">
        <ele>969.1</ele>
        <time>2019-12-12T13:19:33Z</time>
      </trkpt>
      <trkpt lat="43.76069" lon="7.05199">
        <ele>969.6</ele>
        <time>2019-12-12T13:19:35Z</time>
      </trkpt>
      <trkpt lat="43.7608" lon="7.05206">
        <ele>969.6</ele>
        <time>2019-12-12T13:19:37Z</time>
      </trkpt>
      <trkpt lat="43.76089" lon="7.05218">
        <ele>969.1</ele>
        <time>2019-12-12T13:19:39Z</time>
      </trkpt>
      <trkpt lat="43.76093" lon="7.05233">
        <ele>968.7</ele>
        <time>2019-12-12T13:19:41Z</time>
      </trkpt>
      <trkpt lat="43.76098" lon="7.05249">
        <ele>968.2</ele>
        <time>2019-12-12T13:19:43Z</time>
      </trkpt>
      <trkpt lat="43.76106" lon="7.05262">
        <ele>966.7</ele>
        <time>2019-12-12T13:19:45Z</time>
      </trkpt>
      <trkpt lat="43.76116" lon="7.05275">
        <ele>967.2</ele>
        <time>2019-12-12T13:19:47Z</time>
      </trkpt>
      <trkpt lat="43.76127" lon="7.05286">
        <ele>967.7</ele>
        <time>2019-12-12T13:19:49Z</time>
      </trkpt>
      <trkpt lat="43.76139" lon="7.05296">
        <ele>967.2</ele>
        <time>2019-12-12T13:19:51Z</time>
      </trkpt>
      <trkpt lat="43.76151" lon="7.0531">
        <ele>966.7</ele>
        <time>2019-12-12T13:19:53Z</time>
      </trkpt>
      <trkpt lat="43.76162" lon="7.05329">
        <ele>965.8</ele>
        <time>2019-12-12T13:19:55Z</time>
      </trkpt>
      <trkpt lat="43.7617" lon="7.05346">
        <ele>963.9</ele>
        <time>2019-12-12T13:19:57Z</time>
      </trkpt>
      <trkpt lat="43.76177" lon="7.05364">
        <ele>962.9</ele>
        <time>2019-12-12T13:19:59Z</time>
      </trkpt>
      <trkpt lat="43.76183" lon="7.05382">
        <ele>961</ele>
        <time>2019-12-12T13:20:01Z</time>
      </trkpt>
      <trkpt lat="43.76189" lon="7.05399">
        <ele>960</ele>
        <time>2019-12-12T13:20:03Z</time>
      </trkpt>
      <trkpt lat="43.76194" lon="7.05415">
        <ele>959.1</ele>
        <time>2019-12-12T13:20:05Z</time>
      </trkpt>
      <trkpt lat="43.76198" lon="7.0543">
        <ele>958.1</ele>
        <time>2019-12-12T13:20:07Z</time>
      </trkpt>
      <trkpt lat="43.76201" lon="7.05443">
        <ele>958.1</ele>
        <time>2019-12-12T13:20:09Z</time>
      </trkpt>
      <trkpt lat="43.76204" lon="7.05455">
        <ele>958.1</ele>
        <time>2019-12-12T13:20:11Z</time>
      </trkpt>
      <trkpt lat="43.76208" lon="7.05469">
        <ele>958.1</ele>
        <time>2019-12-12T13:20:13Z</time>
      </trkpt>
      <trkpt lat="43.76212" lon="7.05482">
        <ele>957.6</ele>
        <time>2019-12-12T13:20:15Z</time>
      </trkpt>
      <trkpt lat="43.76216" lon="7.05496">
        <ele>957.6</ele>
        <time>2019-12-12T13:20:17Z</time>
      </trkpt>
      <trkpt lat="43.76221" lon="7.05511">
        <ele>957.6</ele>
        <time>2019-12-12T13:20:19Z</time>
      </trkpt>
      <trkpt lat="43.76225" lon="7.05525">
        <ele>957.1</ele>
        <time>2019-12-12T13:20:21Z</time>
      </trkpt>
      <trkpt lat="43.7623" lon="7.05541">
        <ele>957.1</ele>
        <time>2019-12-12T13:20:23Z</time>
      </trkpt>
      <trkpt lat="43.76235" lon="7.05558">
        <ele>956.2</ele>
        <time>2019-12-12T13:20:25Z</time>
      </trkpt>
      <trkpt lat="43.76242" lon="7.05575">
        <ele>954.7</ele>
        <time>2019-12-12T13:20:27Z</time>
      </trkpt>
      <trkpt lat="43.76246" lon="7.05594">
        <ele>953.8</ele>
        <time>2019-12-12T13:20:29Z</time>
      </trkpt>
      <trkpt lat="43.76244" lon="7.05612">
        <ele>952.8</ele>
        <time>2019-12-12T13:20:31Z</time>
      </trkpt>
      <trkpt lat="43.76239" lon="7.05629">
        <ele>952.8</ele>
        <time>2019-12-12T13:20:33Z</time>
      </trkpt>
      <trkpt lat="43.76233" lon="7.05643">
        <ele>952.8</ele>
        <time>2019-12-12T13:20:35Z</time>
      </trkpt>
      <trkpt lat="43.76228" lon="7.05657">
        <ele>952.8</ele>
        <time>2019-12-12T13:20:37Z</time>
      </trkpt>
      <trkpt lat="43.76224" lon="7.05671">
        <ele>952.3</ele>
        <time>2019-12-12T13:20:39Z</time>
      </trkpt>
      <trkpt lat="43.76222" lon="7.05686">
        <ele>952.3</ele>
        <time>2019-12-12T13:20:41Z</time>
      </trkpt>
      <trkpt lat="43.76223" lon="7.05702">
        <ele>952.3</ele>
        <time>2019-12-12T13:20:43Z</time>
      </trkpt>
      <trkpt lat="43.76228" lon="7.05717">
        <ele>952.3</ele>
        <time>2019-12-12T13:20:45Z</time>
      </trkpt>
      <trkpt lat="43.76232" lon="7.05733">
        <ele>951.8</ele>
        <time>2019-12-12T13:20:47Z</time>
      </trkpt>
      <trkpt lat="43.76236" lon="7.05749">
        <ele>951.8</ele>
        <time>2019-12-12T13:20:49Z</time>
      </trkpt>
      <trkpt lat="43.76242" lon="7.05765">
        <ele>951.8</ele>
        <time>2019-12-12T13:20:51Z</time>
      </trkpt>
      <trkpt lat="43.76249" lon="7.05779">
        <ele>951.8</ele>
        <time>2019-12-12T13:20:53Z</time>
      </trkpt>
      <trkpt lat="43.76254" lon="7.05794">
        <ele>951.4</ele>
        <time>2019-12-12T13:20:55Z</time>
      </trkpt>
      <trkpt lat="43.76251" lon="7.05807">
        <ele>951.4</ele>
        <time>2019-12-12T13:20:57Z</time>
      </trkpt>
      <trkpt lat="43.76243" lon="7.05815">
        <ele>951.4</ele>
        <time>2019-12-12T13:20:59Z</time>
      </trkpt>
      <trkpt lat="43.76235" lon="7.05824">
        <ele>951.4</ele>
        <time>2019-12-12T13:21:01Z</time>
      </trkpt>
      <trkpt lat="43.76229" lon="7.05838">
        <ele>950.9</ele>
        <time>2019-12-12T13:21:03Z</time>
      </trkpt>
      <trkpt lat="43.76227" lon="7.05855">
        <ele>949.9</ele>
        <time>2019-12-12T13:21:05Z</time>
      </trkpt>
      <trkpt lat="43.76227" lon="7.05872">
        <ele>949</ele>
        <time>2019-12-12T13:21:07Z</time>
      </trkpt>
      <trkpt lat="43.76228" lon="7.05889">
        <ele>949</ele>
        <time>2019-12-12T13:21:09Z</time>
      </trkpt>
      <trkpt lat="43.76231" lon="7.05905">
        <ele>948.5</ele>
        <time>2019-12-12T13:21:11Z</time>
      </trkpt>
      <trkpt lat="43.76234" lon="7.05922">
        <ele>948.5</ele>
        <time>2019-12-12T13:21:13Z</time>
      </trkpt>
      <trkpt lat="43.76237" lon="7.05938">
        <ele>948</ele>
        <time>2019-12-12T13:21:15Z</time>
      </trkpt>
      <trkpt lat="43.7624" lon="7.05955">
        <ele>947.5</ele>
        <time>2019-12-12T13:21:17Z</time>
      </trkpt>
      <trkpt lat="43.76242" lon="7.05971">
        <ele>947.5</ele>
        <time>2019-12-12T13:21:19Z</time>
      </trkpt>
      <trkpt lat="43.76244" lon="7.05985">
        <ele>947.5</ele>
        <time>2019-12-12T13:21:21Z</time>
      </trkpt>
      <trkpt lat="43.76245" lon="7.06">
        <ele>947.5</ele>
        <time>2019-12-12T13:21:23Z</time>
      </trkpt>
      <trkpt lat="43.76242" lon="7.06013">
        <ele>947.5</ele>
        <time>2019-12-12T13:21:25Z</time>
      </trkpt>
      <trkpt lat="43.76237" lon="7.06026">
        <ele>947.5</ele>
        <time>2019-12-12T13:21:27Z</time>
      </trkpt>
      <trkpt lat="43.76232" lon="7.06038">
        <ele>947.5</ele>
        <time>2019-12-12T13:21:29Z</time>
      </trkpt>
      <trkpt lat="43.7623" lon="7.06052">
        <ele>947</ele>
        <time>2019-12-12T13:21:31Z</time>
      </trkpt>
      <trkpt lat="43.7623" lon="7.06066">
        <ele>947</ele>
        <time>2019-12-12T13:21:33Z</time>
      </trkpt>
      <trkpt lat="43.76232" lon="7.06079">
        <ele>947</ele>
        <time>2019-12-12T13:21:35Z</time>
      </trkpt>
      <trkpt lat="43.76229" lon="7.06091">
        <ele>947</ele>
        <time>2019-12-12T13:21:37Z</time>
      </trkpt>
      <trkpt lat="43.76223" lon="7.06101">
        <ele>947</ele>
        <time>2019-12-12T13:21:39Z</time>
      </trkpt>
      <trkpt lat="43.76216" lon="7.06108">
        <ele>947</ele>
        <time>2019-12-12T13:21:41Z</time>
      </trkpt>
      <trkpt lat="43.76209" lon="7.06116">
        <ele>947</ele>
        <time>2019-12-12T13:21:43Z</time>
      </trkpt>
      <trkpt lat="43.76202" lon="7.06126">
        <ele>946.6</ele>
        <time>2019-12-12T13:21:45Z</time>
      </trkpt>
      <trkpt lat="43.76194" lon="7.06136">
        <ele>947</ele>
        <time>2019-12-12T13:21:47Z</time>
      </trkpt>
      <trkpt lat="43.76186" lon="7.06145">
        <ele>946.6</ele>
        <time>2019-12-12T13:21:49Z</time>
      </trkpt>
      <trkpt lat="43.76178" lon="7.06156">
        <ele>946.6</ele>
        <time>2019-12-12T13:21:51Z</time>
      </trkpt>
      <trkpt lat="43.76171" lon="7.06168">
        <ele>946.1</ele>
        <time>2019-12-12T13:21:53Z</time>
      </trkpt>
      <trkpt lat="43.76165" lon="7.06181">
        <ele>945.1</ele>
        <time>2019-12-12T13:21:55Z</time>
      </trkpt>
      <trkpt lat="43.7616" lon="7.06195">
        <ele>944.2</ele>
        <time>2019-12-12T13:21:57Z</time>
      </trkpt>
      <trkpt lat="43.76155" lon="7.06211">
        <ele>943.2</ele>
        <time>2019-12-12T13:21:59Z</time>
      </trkpt>
      <trkpt lat="43.76154" lon="7.06227">
        <ele>942.7</ele>
        <time>2019-12-12T13:22:01Z</time>
      </trkpt>
      <trkpt lat="43.76153" lon="7.06241">
        <ele>941.7</ele>
        <time>2019-12-12T13:22:03Z</time>
      </trkpt>
      <trkpt lat="43.76152" lon="7.06255">
        <ele>941.3</ele>
        <time>2019-12-12T13:22:05Z</time>
      </trkpt>
      <trkpt lat="43.76152" lon="7.06269">
        <ele>940.8</ele>
        <time>2019-12-12T13:22:07Z</time>
      </trkpt>
      <trkpt lat="43.76153" lon="7.06284">
        <ele>939.8</ele>
        <time>2019-12-12T13:22:09Z</time>
      </trkpt>
      <trkpt lat="43.76153" lon="7.06298">
        <ele>939.3</ele>
        <time>2019-12-12T13:22:11Z</time>
      </trkpt>
      <trkpt lat="43.76154" lon="7.06313">
        <ele>938.9</ele>
        <time>2019-12-12T13:22:13Z</time>
      </trkpt>
      <trkpt lat="43.76154" lon="7.06328">
        <ele>938.9</ele>
        <time>2019-12-12T13:22:15Z</time>
      </trkpt>
      <trkpt lat="43.76156" lon="7.06343">
        <ele>938.9</ele>
        <time>2019-12-12T13:22:17Z</time>
      </trkpt>
      <trkpt lat="43.76161" lon="7.06356">
        <ele>939.3</ele>
        <time>2019-12-12T13:22:19Z</time>
      </trkpt>
      <trkpt lat="43.76168" lon="7.06366">
        <ele>939.8</ele>
        <time>2019-12-12T13:22:21Z</time>
      </trkpt>
      <trkpt lat="43.76177" lon="7.06373">
        <ele>940.3</ele>
        <time>2019-12-12T13:22:23Z</time>
      </trkpt>
      <trkpt lat="43.76186" lon="7.06379">
        <ele>940.3</ele>
        <time>2019-12-12T13:22:25Z</time>
      </trkpt>
      <trkpt lat="43.76195" lon="7.06386">
        <ele>940.8</ele>
        <time>2019-12-12T13:22:27Z</time>
      </trkpt>
      <trkpt lat="43.76203" lon="7.06397">
        <ele>940.8</ele>
        <time>2019-12-12T13:22:29Z</time>
      </trkpt>
      <trkpt lat="43.76207" lon="7.06409">
        <ele>940.8</ele>
        <time>2019-12-12T13:22:31Z</time>
      </trkpt>
      <trkpt lat="43.7621" lon="7.06422">
        <ele>940.3</ele>
        <time>2019-12-12T13:22:33Z</time>
      </trkpt>
      <trkpt lat="43.76216" lon="7.06434">
        <ele>940.3</ele>
        <time>2019-12-12T13:22:35Z</time>
      </trkpt>
      <trkpt lat="43.76224" lon="7.06444">
        <ele>940.3</ele>
        <time>2019-12-12T13:22:37Z</time>
      </trkpt>
      <trkpt lat="43.76233" lon="7.06454">
        <ele>940.8</ele>
        <time>2019-12-12T13:22:39Z</time>
      </trkpt>
      <trkpt lat="43.76241" lon="7.06463">
        <ele>940.8</ele>
        <time>2019-12-12T13:22:41Z</time>
      </trkpt>
      <trkpt lat="43.76249" lon="7.06473">
        <ele>940.8</ele>
        <time>2019-12-12T13:22:43Z</time>
      </trkpt>
      <trkpt lat="43.76256" lon="7.06483">
        <ele>940.8</ele>
        <time>2019-12-12T13:22:45Z</time>
      </trkpt>
      <trkpt lat="43.76262" lon="7.06496">
        <ele>940.8</ele>
        <time>2019-12-12T13:22:47Z</time>
      </trkpt>
      <trkpt lat="43.76267" lon="7.06509">
        <ele>940.8</ele>
        <time>2019-12-12T13:22:49Z</time>
      </trkpt>
      <trkpt lat="43.76272" lon="7.06524">
        <ele>940.8</ele>
        <time>2019-12-12T13:22:51Z</time>
      </trkpt>
      <trkpt lat="43.76277" lon="7.06538">
        <ele>940.8</ele>
        <time>2019-12-12T13:22:53Z</time>
      </trkpt>
      <trkpt lat="43.76282" lon="7.06553">
        <ele>940.3</ele>
        <time>2019-12-12T13:22:55Z</time>
      </trkpt>
      <trkpt lat="43.76286" lon="7.06568">
        <ele>940.3</ele>
        <time>2019-12-12T13:22:57Z</time>
      </trkpt>
      <trkpt lat="43.76289" lon="7.06583">
        <ele>940.8</ele>
        <time>2019-12-12T13:22:59Z</time>
      </trkpt>
      <trkpt lat="43.76295" lon="7.06598">
        <ele>940.3</ele>
        <time>2019-12-12T13:23:01Z</time>
      </trkpt>
      <trkpt lat="43.76299" lon="7.0661">
        <ele>940.3</ele>
        <time>2019-12-12T13:23:03Z</time>
      </trkpt>
      <trkpt lat="43.76302" lon="7.06621">
        <ele>940.8</ele>
        <time>2019-12-12T13:23:05Z</time>
      </trkpt>
      <trkpt lat="43.76308" lon="7.0663">
        <ele>939.8</ele>
        <time>2019-12-12T13:23:07Z</time>
      </trkpt>
      <trkpt lat="43.76313" lon="7.0664">
        <ele>940.3</ele>
        <time>2019-12-12T13:23:09Z</time>
      </trkpt>
      <trkpt lat="43.7632" lon="7.06648">
        <ele>940.8</ele>
        <time>2019-12-12T13:23:11Z</time>
      </trkpt>
      <trkpt lat="43.76328" lon="7.06655">
        <ele>940.8</ele>
        <time>2019-12-12T13:23:13Z</time>
      </trkpt>
      <trkpt lat="43.76336" lon="7.06662">
        <ele>940.8</ele>
        <time>2019-12-12T13:23:15Z</time>
      </trkpt>
      <trkpt lat="43.76344" lon="7.0667">
        <ele>940.8</ele>
        <time>2019-12-12T13:23:17Z</time>
      </trkpt>
      <trkpt lat="43.76351" lon="7.0668">
        <ele>940.8</ele>
        <time>2019-12-12T13:23:19Z</time>
      </trkpt>
      <trkpt lat="43.76359" lon="7.06692">
        <ele>940.3</ele>
        <time>2019-12-12T13:23:21Z</time>
      </trkpt>
      <trkpt lat="43.76367" lon="7.06705">
        <ele>940.3</ele>
        <time>2019-12-12T13:23:23Z</time>
      </trkpt>
      <trkpt lat="43.76373" lon="7.0672">
        <ele>939.8</ele>
        <time>2019-12-12T13:23:25Z</time>
      </trkpt>
      <trkpt lat="43.76377" lon="7.06735">
        <ele>939.3</ele>
        <time>2019-12-12T13:23:27Z</time>
      </trkpt>
      <trkpt lat="43.7638" lon="7.06749">
        <ele>939.3</ele>
        <time>2019-12-12T13:23:29Z</time>
      </trkpt>
      <trkpt lat="43.76384" lon="7.06762">
        <ele>938.4</ele>
        <time>2019-12-12T13:23:31Z</time>
      </trkpt>
      <trkpt lat="43.76385" lon="7.06776">
        <ele>937.9</ele>
        <time>2019-12-12T13:23:33Z</time>
      </trkpt>
      <trkpt lat="43.76387" lon="7.06789">
        <ele>936.9</ele>
        <time>2019-12-12T13:23:35Z</time>
      </trkpt>
      <trkpt lat="43.76389" lon="7.06803">
        <ele>936.5</ele>
        <time>2019-12-12T13:23:37Z</time>
      </trkpt>
      <trkpt lat="43.76391" lon="7.06816">
        <ele>936.5</ele>
        <time>2019-12-12T13:23:39Z</time>
      </trkpt>
      <trkpt lat="43.76395" lon="7.06831">
        <ele>936.9</ele>
        <time>2019-12-12T13:23:41Z</time>
      </trkpt>
      <trkpt lat="43.76401" lon="7.06845">
        <ele>936.5</ele>
        <time>2019-12-12T13:23:43Z</time>
      </trkpt>
      <trkpt lat="43.76405" lon="7.0686">
        <ele>936</ele>
        <time>2019-12-12T13:23:45Z</time>
      </trkpt>
      <trkpt lat="43.76407" lon="7.06874">
        <ele>935.5</ele>
        <time>2019-12-12T13:23:47Z</time>
      </trkpt>
      <trkpt lat="43.76411" lon="7.06886">
        <ele>935</ele>
        <time>2019-12-12T13:23:49Z</time>
      </trkpt>
      <trkpt lat="43.76417" lon="7.06897">
        <ele>935</ele>
        <time>2019-12-12T13:23:51Z</time>
      </trkpt>
      <trkpt lat="43.76427" lon="7.06901">
        <ele>934.5</ele>
        <time>2019-12-12T13:23:53Z</time>
      </trkpt>
      <trkpt lat="43.76437" lon="7.06904">
        <ele>934.5</ele>
        <time>2019-12-12T13:23:55Z</time>
      </trkpt>
      <trkpt lat="43.76446" lon="7.06906">
        <ele>935</ele>
        <time>2019-12-12T13:23:57Z</time>
      </trkpt>
      <trkpt lat="43.76456" lon="7.06909">
        <ele>935.5</ele>
        <time>2019-12-12T13:23:59Z</time>
      </trkpt>
      <trkpt lat="43.76465" lon="7.06912">
        <ele>936</ele>
        <time>2019-12-12T13:24:01Z</time>
      </trkpt>
      <trkpt lat="43.76474" lon="7.06918">
        <ele>936</ele>
        <time>2019-12-12T13:24:03Z</time>
      </trkpt>
      <trkpt lat="43.76483" lon="7.06922">
        <ele>936</ele>
        <time>2019-12-12T13:24:05Z</time>
      </trkpt>
      <trkpt lat="43.7649" lon="7.06926">
        <ele>936</ele>
        <time>2019-12-12T13:24:07Z</time>
      </trkpt>
      <trkpt lat="43.76498" lon="7.06933">
        <ele>936.5</ele>
        <time>2019-12-12T13:24:09Z</time>
      </trkpt>
      <trkpt lat="43.76505" lon="7.0694">
        <ele>936</ele>
        <time>2019-12-12T13:24:11Z</time>
      </trkpt>
      <trkpt lat="43.76511" lon="7.06949">
        <ele>936</ele>
        <time>2019-12-12T13:24:13Z</time>
      </trkpt>
      <trkpt lat="43.76516" lon="7.0696">
        <ele>936</ele>
        <time>2019-12-12T13:24:15Z</time>
      </trkpt>
      <trkpt lat="43.7652" lon="7.0697">
        <ele>936</ele>
        <time>2019-12-12T13:24:17Z</time>
      </trkpt>
      <trkpt lat="43.76523" lon="7.0698">
        <ele>936</ele>
        <time>2019-12-12T13:24:19Z</time>
      </trkpt>
      <trkpt lat="43.76523" lon="7.06988">
        <ele>936</ele>
        <time>2019-12-12T13:24:21Z</time>
      </trkpt>
      <trkpt lat="43.76522" lon="7.06996">
        <ele>936</ele>
        <time>2019-12-12T13:24:23Z</time>
      </trkpt>
      <trkpt lat="43.76521" lon="7.07003">
        <ele>935.5</ele>
        <time>2019-12-12T13:24:25Z</time>
      </trkpt>
      <trkpt lat="43.7652" lon="7.07011">
        <ele>935</ele>
        <time>2019-12-12T13:24:27Z</time>
      </trkpt>
      <trkpt lat="43.7652" lon="7.07019">
        <ele>934.5</ele>
        <time>2019-12-12T13:24:29Z</time>
      </trkpt>
      <trkpt lat="43.76519" lon="7.07027">
        <ele>934.5</ele>
        <time>2019-12-12T13:24:31Z</time>
      </trkpt>
      <trkpt lat="43.76518" lon="7.07035">
        <ele>934.5</ele>
        <time>2019-12-12T13:24:33Z</time>
      </trkpt>
      <trkpt lat="43.7652" lon="7.07044">
        <ele>934.5</ele>
        <time>2019-12-12T13:24:35Z</time>
      </trkpt>
      <trkpt lat="43.76522" lon="7.07051">
        <ele>935</ele>
        <time>2019-12-12T13:24:37Z</time>
      </trkpt>
      <trkpt lat="43.76526" lon="7.07056">
        <ele>935.5</ele>
        <time>2019-12-12T13:24:39Z</time>
      </trkpt>
      <trkpt lat="43.76532" lon="7.07056">
        <ele>935.5</ele>
        <time>2019-12-12T13:24:41Z</time>
      </trkpt>
      <trkpt lat="43.76539" lon="7.07054">
        <ele>935</ele>
        <time>2019-12-12T13:24:43Z</time>
      </trkpt>
      <trkpt lat="43.76548" lon="7.07051">
        <ele>934.5</ele>
        <time>2019-12-12T13:24:45Z</time>
      </trkpt>
      <trkpt lat="43.76559" lon="7.07048">
        <ele>934.5</ele>
        <time>2019-12-12T13:24:47Z</time>
      </trkpt>
      <trkpt lat="43.76572" lon="7.07044">
        <ele>934.5</ele>
        <time>2019-12-12T13:24:49Z</time>
      </trkpt>
      <trkpt lat="43.76587" lon="7.07039">
        <ele>934.1</ele>
        <time>2019-12-12T13:24:51Z</time>
      </trkpt>
      <trkpt lat="43.76604" lon="7.07035">
        <ele>933.1</ele>
        <time>2019-12-12T13:24:53Z</time>
      </trkpt>
      <trkpt lat="43.76621" lon="7.07029">
        <ele>931.2</ele>
        <time>2019-12-12T13:24:55Z</time>
      </trkpt>
      <trkpt lat="43.76639" lon="7.07024">
        <ele>930.7</ele>
        <time>2019-12-12T13:24:57Z</time>
      </trkpt>
      <trkpt lat="43.76656" lon="7.07019">
        <ele>930.7</ele>
        <time>2019-12-12T13:24:59Z</time>
      </trkpt>
      <trkpt lat="43.76673" lon="7.07013">
        <ele>929.3</ele>
        <time>2019-12-12T13:25:01Z</time>
      </trkpt>
      <trkpt lat="43.76691" lon="7.07007">
        <ele>928.3</ele>
        <time>2019-12-12T13:25:03Z</time>
      </trkpt>
      <trkpt lat="43.76709" lon="7.07001">
        <ele>927.8</ele>
        <time>2019-12-12T13:25:05Z</time>
      </trkpt>
      <trkpt lat="43.76726" lon="7.06996">
        <ele>927.3</ele>
        <time>2019-12-12T13:25:07Z</time>
      </trkpt>
      <trkpt lat="43.76742" lon="7.06991">
        <ele>927.3</ele>
        <time>2019-12-12T13:25:09Z</time>
      </trkpt>
      <trkpt lat="43.76758" lon="7.06987">
        <ele>927.8</ele>
        <time>2019-12-12T13:25:11Z</time>
      </trkpt>
      <trkpt lat="43.76772" lon="7.06983">
        <ele>928.3</ele>
        <time>2019-12-12T13:25:13Z</time>
      </trkpt>
      <trkpt lat="43.76786" lon="7.06978">
        <ele>928.8</ele>
        <time>2019-12-12T13:25:15Z</time>
      </trkpt>
      <trkpt lat="43.76799" lon="7.06971">
        <ele>928.8</ele>
        <time>2019-12-12T13:25:17Z</time>
      </trkpt>
      <trkpt lat="43.7681" lon="7.06966">
        <ele>928.8</ele>
        <time>2019-12-12T13:25:19Z</time>
      </trkpt>
      <trkpt lat="43.76817" lon="7.06963">
        <ele>928.3</ele>
        <time>2019-12-12T13:25:21Z</time>
      </trkpt>
      <trkpt lat="43.76822" lon="7.06961">
        <ele>927.8</ele>
        <time>2019-12-12T13:25:23Z</time>
      </trkpt>
      <trkpt lat="43.76827" lon="7.06957">
        <ele>928.3</ele>
        <time>2019-12-12T13:25:25Z</time>
      </trkpt>
      <trkpt lat="43.76829" lon="7.06956">
        <ele>928.3</ele>
        <time>2019-12-12T13:25:27Z</time>
      </trkpt>
      <trkpt lat="43.7683" lon="7.06958">
        <ele>927.3</ele>
        <time>2019-12-12T13:25:29Z</time>
      </trkpt>
      <trkpt lat="43.7683" lon="7.06958">
        <ele>927.3</ele>
        <time>2019-12-12T13:25:31Z</time>
      </trkpt>
      <trkpt lat="43.7683" lon="7.06958">
        <ele>927.3</ele>
        <time>2019-12-12T13:25:33Z</time>
      </trkpt>
      <trkpt lat="43.7683" lon="7.06958">
        <ele>927.3</ele>
        <time>2019-12-12T13:25:35Z</time>
      </trkpt>
      <trkpt lat="43.7683" lon="7.06958">
        <ele>927.3</ele>
        <time>2019-12-12T13:25:37Z</time>
      </trkpt>
      <trkpt lat="43.7683" lon="7.06958">
        <ele>927.3</ele>
        <time>2019-12-12T13:25:39Z</time>
      </trkpt>
      <trkpt lat="43.7683" lon="7.06958">
        <ele>927.3</ele>
        <time>2019-12-12T13:25:41Z</time>
      </trkpt>
      <trkpt lat="43.7683" lon="7.06958">
        <ele>927.3</ele>
        <time>2019-12-12T13:25:43Z</time>
      </trkpt>
      <trkpt lat="43.7683" lon="7.06958">
        <ele>927.3</ele>
        <time>2019-12-12T13:25:45Z</time>
      </trkpt>
      <trkpt lat="43.7683" lon="7.06958">
        <ele>927.3</ele>
        <time>2019-12-12T13:25:47Z</time>
      </trkpt>
      <trkpt lat="43.7683" lon="7.06958">
        <ele>927.3</ele>
        <time>2019-12-12T13:25:49Z</time>
      </trkpt>
      <trkpt lat="43.7683" lon="7.06958">
        <ele>927.3</ele>
        <time>2019-12-12T13:25:51Z</time>
      </trkpt>
      <trkpt lat="43.7683" lon="7.06958">
        <ele>927.3</ele>
        <time>2019-12-12T13:25:53Z</time>
      </trkpt>
      <trkpt lat="43.7683" lon="7.06958">
        <ele>927.3</ele>
        <time>2019-12-12T13:25:55Z</time>
      </trkpt>
      <trkpt lat="43.7683" lon="7.06958">
        <ele>927.3</ele>
        <time>2019-12-12T13:25:57Z</time>
      </trkpt>
      <trkpt lat="43.7683" lon="7.06958">
        <ele>927.3</ele>
        <time>2019-12-12T13:25:59Z</time>
      </trkpt>
      <trkpt lat="43.7683" lon="7.06958">
        <ele>927.3</ele>
        <time>2019-12-12T13:26:01Z</time>
      </trkpt>
      <trkpt lat="43.7683" lon="7.06958">
        <ele>927.3</ele>
        <time>2019-12-12T13:26:03Z</time>
      </trkpt>
    </trkseg>
  </trk>
</gpx>